
Distance (Route):
Temperature : 17°C
Humidity : 93.8%
Pressure : 983.4hPa| Receiver | Frames | First received | Last received |
|---|---|---|---|
| AA1-15 | 986 | 2026-09-04 12:55:53 | 2026-09-04 15:10:15 |
| DL1XH-west | 810 | 2026-09-04 12:36:33 | 2026-09-04 14:59:35 |
| DO2SHX-10 | 619 | 2026-09-04 13:16:29 | 2026-09-04 15:08:16 |
| DL1XH-15 | 608 | 2026-09-04 12:49:13 | 2026-09-04 15:08:15 |
| DL1XH1-15 | 574 | 2026-09-04 12:38:37 | 2026-09-04 14:59:13 |
| DM0DOS-11 | 474 | 2026-09-04 12:51:34 | 2026-09-04 14:53:53 |
| BIOWL1-15 | 465 | 2026-09-04 12:42:05 | 2026-09-04 14:49:41 |
| DF8AY | 401 | 2026-09-04 13:04:08 | 2026-09-04 14:48:51 |
| GOEST3-10 | 308 | 2026-09-04 12:34:14 | 2026-09-04 14:35:08 |
| DB0DAN | 280 | 2026-09-04 13:07:10 | 2026-09-04 15:09:40 |
| DO2JMG | 235 | 2026-09-04 13:04:11 | 2026-09-04 14:20:29 |
| DJ2DS-15 | 168 | 2026-09-04 12:31:25 | 2026-09-04 14:53:38 |
| DF5WG-10 | 156 | 2026-09-04 12:34:09 | 2026-09-04 14:24:38 |
| DD8BA-10 | 140 | 2026-09-04 12:52:35 | 2026-09-04 14:37:47 |
| DL3AQ-11 | 66 | 2026-09-04 13:15:14 | 2026-09-04 14:05:56 |
| DL4XJ-10 | 59 | 2026-09-04 13:02:03 | 2026-09-04 14:12:30 |
| DF8AY-15 | 49 | 2026-09-04 13:13:56 | 2026-09-04 14:37:45 |
| HSKMA3-T | 41 | 2026-09-04 13:44:46 | 2026-09-04 14:00:02 |
| DB0UT-7 | 38 | 2026-09-04 13:01:06 | 2026-09-04 14:19:07 |
| HTAHTA | 37 | 2026-09-04 12:49:47 | 2026-09-04 14:26:02 |
| SMARD9-15 | 36 | 2026-09-04 12:48:45 | 2026-09-04 14:52:59 |
| D01LWL | 30 | 2026-09-04 13:21:43 | 2026-09-04 15:05:45 |
| BIOWL9-15 | 28 | 2026-09-04 12:51:35 | 2026-09-04 14:49:34 |
| DO9LL-15 | 28 | 2026-09-04 12:54:14 | 2026-09-04 13:43:15 |
| SONDE2-11 | 26 | 2026-09-04 13:14:49 | 2026-09-04 14:39:10 |
| DK1YY | 26 | 2026-09-04 13:24:44 | 2026-09-04 14:55:49 |
| DL1NUX | 26 | 2026-09-04 13:47:26 | 2026-09-04 13:58:40 |
| DL4BBY-15 | 25 | 2026-09-04 12:51:25 | 2026-09-04 14:39:51 |
| SONCRA | 23 | 2026-09-04 13:02:55 | 2026-09-04 14:23:08 |
| EDDB2-12 | 21 | 2026-09-04 13:29:45 | 2026-09-04 14:50:58 |
| DO9FK | 20 | 2026-09-04 12:32:58 | 2026-09-04 12:59:17 |
| DC6BW-12 | 20 | 2026-09-04 12:50:53 | 2026-09-04 13:08:34 |
| AM1SDL-15 | 19 | 2026-09-04 13:09:56 | 2026-09-04 14:44:43 |
| DF2AP-13 | 17 | 2026-09-04 13:20:49 | 2026-09-04 14:02:14 |
| DL1CLM-18 | 16 | 2026-09-04 12:50:30 | 2026-09-04 14:06:11 |
| S3001 | 14 | 2026-09-04 13:31:47 | 2026-09-04 14:39:08 |
| DO2LYB-13 | 12 | 2026-09-04 12:53:35 | 2026-09-04 14:22:01 |
| SMARD9-10 | 11 | 2026-09-04 12:54:24 | 2026-09-04 14:27:01 |
| BIOWL7-15 | 11 | 2026-09-04 13:06:26 | 2026-09-04 14:47:37 |
| BUE01 | 11 | 2026-09-04 13:12:45 | 2026-09-04 14:18:00 |
| DL8OAI-8 | 11 | 2026-09-04 13:22:06 | 2026-09-04 14:01:26 |
| DL1LOL-11 | 10 | 2026-09-04 12:55:04 | 2026-09-04 14:26:11 |
| DB0NH | 10 | 2026-09-04 13:17:30 | 2026-09-04 13:58:21 |
| DD1CC8 | 10 | 2026-09-04 13:31:50 | 2026-09-04 14:04:57 |
| AP2371 | 7 | 2026-09-04 13:21:03 | 2026-09-04 14:37:32 |
| DK7RCA | 7 | 2026-09-04 14:25:08 | 2026-09-04 14:37:08 |
| DL1ZP-14 | 5 | 2026-09-04 13:29:06 | 2026-09-04 14:05:21 |
| DC4HF-4 | 5 | 2026-09-04 14:10:40 | 2026-09-04 14:30:29 |
| SO1NDE-10 | 4 | 2026-09-04 13:49:28 | 2026-09-04 13:56:11 |
| WEDDY | 3 | 2026-09-04 12:53:17 | 2026-09-04 13:52:41 |
| DL9SK-14 | 3 | 2026-09-04 13:44:51 | 2026-09-04 13:46:24 |
| DK9SH | 2 | 2026-09-04 12:51:09 | 2026-09-04 13:11:52 |
| Receiver | Date | Latitude | Longitude | Direction | Speed | Altitude | Climb | Temperature | Humidity | Pressure | Voltage | Killtimer | Uptime | BKT | XDATA |
|---|---|---|---|---|---|---|---|---|---|---|---|---|---|---|---|
| AA1-15 | 2026-09-04 15:10:15 | 53.99334 | 11.73831 | 77° | 42km/h | 191m | -4.6m/s | 17°C | 93.8% | 983.4hPa | 2.8V | 07:15:30 | 02:51:14 | 00:00:00 | |
| AA1-15 | 2026-09-04 15:10:13 | 53.99329 | 11.73798 | 77° | 38km/h | 199m | -3.4m/s | 16.9°C | 93.8% | 982.6hPa | 2.8V | 07:15:30 | 02:51:12 | 00:00:00 | |
| AA1-15 | 2026-09-04 15:10:09 | 53.99320 | 11.73724 | 79° | 51km/h | 212m | -3.7m/s | 16.9°C | 92.9% | 981.1hPa | 2.8V | 07:15:30 | 02:51:08 | 00:00:00 | |
| AA1-15 | 2026-09-04 15:10:08 | 53.99317 | 11.73703 | 72° | 47km/h | 215m | -2.8m/s | 17°C | 91.9% | 980.8hPa | 2.8V | 07:15:30 | 02:51:07 | 00:00:00 | |
| AA1-15 | 2026-09-04 15:10:06 | 53.99309 | 11.73662 | 70° | 51km/h | 223m | -5.1m/s | 16.8°C | 93.1% | 979.8hPa | 2.8V | 07:15:30 | 02:51:05 | 00:00:00 | |
| AA1-15 | 2026-09-04 15:10:04 | 53.99301 | 11.73620 | 73° | 53km/h | 231m | -4.5m/s | 16.7°C | 93.6% | 978.8hPa | 2.8V | 07:15:30 | 02:51:03 | 00:00:00 | |
| AA1-15 | 2026-09-04 15:10:02 | 53.99294 | 11.73576 | 74° | 49km/h | 239m | -4.4m/s | 16.7°C | 92.7% | 977.9hPa | 2.8V | 07:15:30 | 02:51:01 | 00:00:00 | |
| AA1-15 | 2026-09-04 15:10:00 | 53.99287 | 11.73534 | 72° | 51km/h | 247m | -4.2m/s | 16.8°C | 90.8% | 977.1hPa | 2.8V | 07:15:30 | 02:50:59 | 00:00:00 | |
| AA1-15 | 2026-09-04 15:09:58 | 53.99280 | 11.73493 | 79° | 51km/h | 255m | -3m/s | 16.8°C | 90.5% | 976.5hPa | 2.8V | 07:15:30 | 02:50:57 | 00:00:00 | |
| AA1-15 | 2026-09-04 15:09:57 | 53.99278 | 11.73471 | 81° | 51km/h | 258m | -3.3m/s | 16.7°C | 90.9% | 976hPa | 2.8V | 07:15:30 | 02:50:56 | 00:00:00 | |
| AA1-15 | 2026-09-04 15:09:55 | 53.99274 | 11.73428 | 82° | 51km/h | 265m | -4.4m/s | 16.7°C | 92.2% | 975.3hPa | 2.8V | 07:15:30 | 02:50:54 | 00:00:00 | |
| AA1-15 | 2026-09-04 15:09:52 | 53.99268 | 11.73365 | 81° | 51km/h | 276m | -3.2m/s | 16.5°C | 92.9% | 974.1hPa | 2.8V | 07:15:30 | 02:50:51 | 00:00:00 | |
| AA1-15 | 2026-09-04 15:09:50 | 53.99264 | 11.73323 | 79° | 49km/h | 283m | -3.7m/s | 16.5°C | 92.9% | 973.1hPa | 2.8V | 07:16:21 | 02:50:49 | 00:00:00 | |
| AA1-15 | 2026-09-04 15:09:48 | 53.99259 | 11.73280 | 78° | 51km/h | 290m | -3m/s | 16.4°C | 93.9% | 972.3hPa | 2.8V | 07:16:21 | 02:50:47 | 00:00:00 | |
| AA1-15 | 2026-09-04 15:09:46 | 53.99253 | 11.73235 | 78° | 55km/h | 297m | -4.1m/s | 16.3°C | 95% | 971.6hPa | 2.7V | 07:16:21 | 02:50:45 | 00:00:00 | |
| AA1-15 | 2026-09-04 15:09:44 | 53.99247 | 11.73189 | 76° | 55km/h | 305m | -3.8m/s | 16.2°C | 95% | 970.9hPa | 2.8V | 07:16:21 | 02:50:43 | 00:00:00 | |
| AA1-15 | 2026-09-04 15:09:43 | 53.99243 | 11.73166 | 77° | 55km/h | 308m | -3.9m/s | 16.2°C | 95.2% | 970.2hPa | 2.8V | 07:16:21 | 02:50:42 | 00:00:00 | |
| AA1-15 | 2026-09-04 15:09:41 | 53.99238 | 11.73122 | 78° | 51km/h | 316m | -3.8m/s | 16.2°C | 94.3% | 969.4hPa | 2.8V | 07:16:21 | 02:50:40 | 00:00:00 | |
| DB0DAN | 2026-09-04 15:09:40 | 53.99235 | 11.73100 | 80° | 49km/h | 320m | -4.4m/s | 16.1°C | 91.6% | 969.05hPa | 2.8V | 00:00:00 | 00:00:00 | 00:00:00 | |
| AA1-15 | 2026-09-04 15:09:39 | 53.99233 | 11.73078 | 80° | 51km/h | 324m | -4.2m/s | 16.1°C | 94.2% | 968.4hPa | 2.8V | 07:16:21 | 02:50:38 | 00:00:00 | |
| AA1-15 | 2026-09-04 15:09:38 | 53.99231 | 11.73056 | 80° | 53km/h | 328m | -4.1m/s | 16.1°C | 94.1% | 968hPa | 2.8V | 07:16:21 | 02:50:37 | 00:00:00 | |
| AA1-15 | 2026-09-04 15:09:36 | 53.99226 | 11.73012 | 81° | 53km/h | 336m | -4.3m/s | 16.1°C | 94.7% | 967.2hPa | 2.8V | 07:16:21 | 02:50:35 | 00:00:00 | |
| AA1-15 | 2026-09-04 15:09:34 | 53.99222 | 11.72967 | 82° | 53km/h | 344m | -4.1m/s | 16°C | 94.2% | 966.2hPa | 2.8V | 07:16:21 | 02:50:33 | 00:00:00 | |
| AA1-15 | 2026-09-04 15:09:32 | 53.99218 | 11.72923 | 82° | 51km/h | 352m | -4m/s | 16°C | 94% | 965.1hPa | 2.8V | 07:16:21 | 02:50:31 | 00:00:00 | |
| AA1-15 | 2026-09-04 15:09:30 | 53.99215 | 11.72878 | 84° | 53km/h | 361m | -4.1m/s | 15.9°C | 94.3% | 964.3hPa | 2.8V | 07:16:21 | 02:50:29 | 00:00:00 | |
| AA1-15 | 2026-09-04 15:09:29 | 53.99214 | 11.72856 | 84° | 53km/h | 365m | -4.1m/s | 15.9°C | 93.9% | 963.9hPa | 2.8V | 07:16:21 | 02:50:28 | 00:00:00 | |
| AA1-15 | 2026-09-04 15:09:27 | 53.99211 | 11.72810 | 85° | 53km/h | 372m | -3.6m/s | 15.8°C | 93.8% | 963hPa | 2.8V | 07:16:21 | 02:50:26 | 00:00:00 | |
| AA1-15 | 2026-09-04 15:09:25 | 53.99208 | 11.72764 | 85° | 55km/h | 379m | -3.6m/s | 15.8°C | 94.2% | 962.2hPa | 2.8V | 07:16:21 | 02:50:24 | 00:00:00 | |
| AA1-15 | 2026-09-04 15:09:24 | 53.99207 | 11.72741 | 84° | 57km/h | 383m | -4.2m/s | 15.7°C | 93.7% | 961.6hPa | 2.8V | 07:16:21 | 02:50:23 | 00:00:00 | |
| AA1-15 | 2026-09-04 15:09:23 | 53.99206 | 11.72717 | 84° | 55km/h | 387m | -4m/s | 15.7°C | 93.5% | 961.3hPa | 2.8V | 07:16:21 | 02:50:22 | 00:00:00 | |
| AA1-15 | 2026-09-04 15:09:21 | 53.99202 | 11.72669 | 83° | 57km/h | 395m | -3.8m/s | 15.6°C | 94% | 960.4hPa | 2.8V | 07:16:21 | 02:50:20 | 00:00:00 | |
| AA1-15 | 2026-09-04 15:09:20 | 53.99200 | 11.72645 | 82° | 58km/h | 398m | -3.5m/s | 15.6°C | 94.6% | 960.2hPa | 2.8V | 07:16:21 | 02:50:19 | 00:00:00 | |
| AA1-15 | 2026-09-04 15:09:19 | 53.99198 | 11.72620 | 83° | 58km/h | 402m | -3.7m/s | 15.5°C | 95.1% | 959.8hPa | 2.8V | 07:16:21 | 02:50:18 | 00:00:00 | |
| AA1-15 | 2026-09-04 15:09:17 | 53.99194 | 11.72570 | 82° | 58km/h | 410m | -3.8m/s | 15.4°C | 95.2% | 958.7hPa | 2.8V | 07:16:21 | 02:50:16 | 00:00:00 | |
| AA1-15 | 2026-09-04 15:09:15 | 53.99189 | 11.72519 | 82° | 60km/h | 417m | -3.6m/s | 15.4°C | 94.2% | 957.9hPa | 2.8V | 07:16:21 | 02:50:14 | 00:00:00 | |
| AA1-15 | 2026-09-04 15:09:13 | 53.99186 | 11.72468 | 85° | 60km/h | 424m | -3.5m/s | 15.3°C | 94% | 957.2hPa | 2.8V | 07:16:21 | 02:50:12 | 00:00:00 | |
| AA1-15 | 2026-09-04 15:09:11 | 53.99182 | 11.72416 | 84° | 62km/h | 431m | -4.2m/s | 15.2°C | 95.2% | 956.4hPa | 2.7V | 07:16:21 | 02:50:10 | 00:00:00 | |
| DB0DAN | 2026-09-04 15:09:10 | 53.99181 | 11.72390 | 85° | 58km/h | 436m | -4.7m/s | 15.2°C | 92.9% | 956.02hPa | 2.8V | 00:00:00 | 00:00:00 | 00:00:00 | |
| AA1-15 | 2026-09-04 15:09:10 | 53.99181 | 11.72390 | 85° | 60km/h | 436m | -4.7m/s | 15.2°C | 94.7% | 956hPa | 2.8V | 07:16:21 | 02:50:09 | 00:00:00 | |
| AA1-15 | 2026-09-04 15:09:08 | 53.99179 | 11.72339 | 88° | 58km/h | 443m | -3m/s | 15.2°C | 95.5% | 955.1hPa | 2.8V | 07:16:21 | 02:50:07 | 00:00:00 | |
| AA1-15 | 2026-09-04 15:09:06 | 53.99178 | 11.72286 | 88° | 64km/h | 450m | -4.4m/s | 15.2°C | 94.6% | 954.5hPa | 2.8V | 07:16:21 | 02:50:05 | 00:00:00 | |
| AA1-15 | 2026-09-04 15:09:05 | 53.99177 | 11.72259 | 88° | 64km/h | 455m | -3.8m/s | 15.1°C | 94.8% | 953.9hPa | 2.8V | 07:16:21 | 02:50:04 | 00:00:00 | |
| AA1-15 | 2026-09-04 15:09:04 | 53.99177 | 11.72232 | 89° | 62km/h | 459m | -3.8m/s | 15.1°C | 95.1% | 953.4hPa | 2.8V | 07:16:21 | 02:50:03 | 00:00:00 | |
| AA1-15 | 2026-09-04 15:09:02 | 53.99176 | 11.72179 | 88° | 64km/h | 465m | -3.4m/s | 15°C | 96.2% | 952.9hPa | 2.8V | 07:16:21 | 02:50:01 | 00:00:00 | |
| AA1-15 | 2026-09-04 15:09:00 | 53.99174 | 11.72126 | 86° | 62km/h | 472m | -3.7m/s | 15°C | 97.2% | 951.9hPa | 2.8V | 07:17:12 | 02:49:59 | 00:00:00 | |
| AA1-15 | 2026-09-04 15:08:58 | 53.99172 | 11.72071 | 87° | 64km/h | 479m | -3.8m/s | 14.9°C | 97.7% | 951.2hPa | 2.8V | 07:17:12 | 02:49:57 | 00:00:00 | |
| AA1-15 | 2026-09-04 15:08:56 | 53.99170 | 11.72016 | 88° | 64km/h | 487m | -4.4m/s | 15°C | 95.8% | 950.2hPa | 2.8V | 07:17:12 | 02:49:55 | 00:00:00 | |
| DB0DAN | 2026-09-04 15:08:55 | 53.99170 | 11.71988 | 88° | 62km/h | 492m | -4.3m/s | 15°C | 91.7% | 949.8hPa | 2.7V | 00:00:00 | 00:00:00 | 00:00:00 | |
| AA1-15 | 2026-09-04 15:08:54 | 53.99169 | 11.71960 | 89° | 66km/h | 496m | -3.4m/s | 15°C | 95.8% | 949.4hPa | 2.8V | 07:17:12 | 02:49:53 | 00:00:00 | |
| AA1-15 | 2026-09-04 15:08:53 | 53.99169 | 11.71932 | 89° | 66km/h | 499m | -3.6m/s | 14.9°C | 96.2% | 948.9hPa | 2.8V | 07:17:12 | 02:49:52 | 00:00:00 | |
| AA1-15 | 2026-09-04 15:08:52 | 53.99169 | 11.71904 | 88° | 64km/h | 503m | -3.2m/s | 14.8°C | 96.7% | 948.6hPa | 2.8V | 07:17:12 | 02:49:51 | 00:00:00 | |
| AA1-15 | 2026-09-04 15:08:50 | 53.99167 | 11.71850 | 88° | 62km/h | 509m | -3.2m/s | 14.8°C | 96.5% | 947.7hPa | 2.8V | 07:17:12 | 02:49:49 | 00:00:00 | |
| AA1-15 | 2026-09-04 15:08:49 | 53.99167 | 11.71823 | 89° | 64km/h | 513m | -4.1m/s | 14.7°C | 96.6% | 947.4hPa | 2.8V | 07:17:12 | 02:49:48 | 00:00:00 | |
| AA1-15 | 2026-09-04 15:08:47 | 53.99166 | 11.71767 | 90° | 68km/h | 520m | -3.5m/s | 14.6°C | 95.5% | 946.5hPa | 2.8V | 07:17:12 | 02:49:46 | 00:00:00 | |
| AA1-15 | 2026-09-04 15:08:45 | 53.99166 | 11.71709 | 90° | 68km/h | 527m | -3.5m/s | 14.7°C | 93.9% | 945.8hPa | 2.8V | 07:17:12 | 02:49:44 | 00:00:00 | |
| AA1-15 | 2026-09-04 15:08:44 | 53.99166 | 11.71680 | 90° | 68km/h | 531m | -3.8m/s | 14.6°C | 94.1% | 945.5hPa | 2.8V | 07:17:12 | 02:49:43 | 00:00:00 | |
| AA1-15 | 2026-09-04 15:08:42 | 53.99166 | 11.71621 | 91° | 69km/h | 538m | -3.8m/s | 14.6°C | 94.1% | 944.5hPa | 2.8V | 07:17:12 | 02:49:41 | 00:00:00 | |
| DB0DAN | 2026-09-04 15:08:40 | 53.99167 | 11.71561 | 90° | 68km/h | 546m | -3.7m/s | 14.5°C | 93.3% | 943.81hPa | 2.8V | 00:00:00 | 00:00:00 | 00:00:00 | |
| AA1-15 | 2026-09-04 15:08:40 | 53.99167 | 11.71561 | 90° | 71km/h | 546m | -3.7m/s | 14.5°C | 94.2% | 943.8hPa | 2.8V | 07:17:12 | 02:49:39 | 00:00:00 | |
| AA1-15 | 2026-09-04 15:08:38 | 53.99167 | 11.71501 | 91° | 73km/h | 553m | -3.5m/s | 14.4°C | 95.9% | 943hPa | 2.8V | 07:17:12 | 02:49:37 | 00:00:00 | |
| AA1-15 | 2026-09-04 15:08:37 | 53.99167 | 11.71469 | 90° | 73km/h | 557m | -3.5m/s | 14.4°C | 95.6% | 942.5hPa | 2.8V | 07:17:12 | 02:49:36 | 00:00:00 | |
| AA1-15 | 2026-09-04 15:08:36 | 53.99167 | 11.71438 | 90° | 73km/h | 560m | -3.3m/s | 14.4°C | 95.7% | 942.3hPa | 2.8V | 07:17:12 | 02:49:35 | 00:00:00 | |
| AA1-15 | 2026-09-04 15:08:34 | 53.99167 | 11.71375 | 89° | 71km/h | 568m | -4.2m/s | 14.4°C | 94.8% | 941.5hPa | 2.8V | 07:17:12 | 02:49:33 | 00:00:00 | |
| AA1-15 | 2026-09-04 15:08:32 | 53.99167 | 11.71313 | 91° | 73km/h | 575m | -3.6m/s | 14.4°C | 94.6% | 940.8hPa | 2.8V | 07:17:12 | 02:49:31 | 00:00:00 | |
| AA1-15 | 2026-09-04 15:08:30 | 53.99167 | 11.71251 | 90° | 71km/h | 583m | -4.3m/s | 14.3°C | 95.5% | 939.8hPa | 2.8V | 07:17:12 | 02:49:29 | 00:00:00 | |
| AA1-15 | 2026-09-04 15:08:28 | 53.99167 | 11.71190 | 91° | 71km/h | 591m | -3.4m/s | 14.3°C | 95.4% | 939.1hPa | 2.8V | 07:17:12 | 02:49:27 | 00:00:00 | |
| AA1-15 | 2026-09-04 15:08:26 | 53.99168 | 11.71128 | 90° | 73km/h | 597m | -3.4m/s | 14.2°C | 95.5% | 938.3hPa | 2.8V | 07:17:12 | 02:49:25 | 00:00:00 | |
| DB0DAN | 2026-09-04 15:08:25 | 53.99168 | 11.71097 | 91° | 69km/h | 601m | -3.5m/s | 14.2°C | 93.1% | 937.67hPa | 2.8V | 00:00:00 | 00:00:00 | 00:00:00 | |
| AA1-15 | 2026-09-04 15:08:25 | 53.99168 | 11.71097 | 91° | 73km/h | 601m | -3.5m/s | 14.2°C | 95.5% | 937.7hPa | 2.8V | 07:17:12 | 02:49:24 | 00:00:00 | |
| AA1-15 | 2026-09-04 15:08:23 | 53.99168 | 11.71033 | 91° | 75km/h | 608m | -4m/s | 14.3°C | 94.4% | 937hPa | 2.8V | 07:17:12 | 02:49:22 | 00:00:00 | |
| AA1-15 | 2026-09-04 15:08:21 | 53.99169 | 11.70969 | 90° | 75km/h | 615m | -3.5m/s | 14.2°C | 94.6% | 936.2hPa | 2.8V | 07:17:12 | 02:49:20 | 00:00:00 | |
| AA1-15 | 2026-09-04 15:08:19 | 53.99169 | 11.70905 | 91° | 73km/h | 621m | -3.3m/s | 14.1°C | 94.7% | 935.4hPa | 2.8V | 07:17:12 | 02:49:18 | 00:00:00 | |
| AA1-15 | 2026-09-04 15:08:17 | 53.99171 | 11.70842 | 93° | 73km/h | 628m | -3.4m/s | 14.1°C | 95.1% | 934.9hPa | 2.8V | 07:17:12 | 02:49:16 | 00:00:00 | |
| DO2SHX-10 | 2026-09-04 15:08:16 | 53.99171 | 11.70810 | 93° | 75km/h | 632m | -3.3m/s | 14.0°C | 92.8% | 934.3hPa | 2.8V | 00:00:00 | 02:49:15 | 00:00:00 | |
| DL1XH-15 | 2026-09-04 15:08:15 | 53.99173 | 11.70745 | 91° | 75km/h | 638m | -3.5m/s | 14°C | 92.9% | 933.5hPa | 2.8V | 07:17:08 | 02:49:13 | 00:00:00 | |
| AA1-15 | 2026-09-04 15:08:15 | 53.99172 | 11.70778 | 92° | 75km/h | 635m | -3.3m/s | 14°C | 95.3% | 934hPa | 2.8V | 07:17:12 | 02:49:14 | 00:00:00 | |
| AA1-15 | 2026-09-04 15:08:13 | 53.99173 | 11.70713 | 92° | 75km/h | 642m | -3.3m/s | 13.9°C | 94.6% | 933.2hPa | 2.8V | 07:17:12 | 02:49:12 | 00:00:00 | |
| AA1-15 | 2026-09-04 15:08:12 | 53.99174 | 11.70681 | 92° | 75km/h | 645m | -3.5m/s | 13.9°C | 94.5% | 932.7hPa | 2.8V | 07:17:12 | 02:49:11 | 00:00:00 | |
| AA1-15 | 2026-09-04 15:08:11 | 53.99175 | 11.70648 | 93° | 77km/h | 649m | -3.2m/s | 14°C | 93.7% | 932.4hPa | 2.8V | 07:17:12 | 02:49:10 | 00:00:00 | |
| DB0DAN | 2026-09-04 15:08:10 | 53.99176 | 11.70615 | 93° | 73km/h | 652m | -3.5m/s | 14°C | 91.6% | 931.99hPa | 2.7V | 00:00:00 | 00:00:00 | 00:00:00 | |
| DO2SHX-10 | 2026-09-04 15:08:10 | 53.99176 | 11.70615 | 93° | 77km/h | 652m | -3.5m/s | 14.0°C | 91.9% | 931.9hPa | 2.7V | 00:00:00 | 02:49:09 | 00:00:00 | |
| DL1XH-15 | 2026-09-04 15:08:09 | 53.99178 | 11.70549 | 92° | 77km/h | 658m | -3.1m/s | 14°C | 90.5% | 931.3hPa | 2.8V | 07:17:14 | 02:49:07 | 00:00:00 | |
| DL1XH-15 | 2026-09-04 15:08:09 | 53.99180 | 11.70484 | 93° | 77km/h | 665m | -3.4m/s | 14°C | 90.7% | 930.7hPa | 2.8V | 07:17:16 | 02:49:05 | 00:00:00 | |
| AA1-15 | 2026-09-04 15:08:09 | 53.99177 | 11.70582 | 93° | 77km/h | 655m | -3.1m/s | 14.1°C | 91% | 931.8hPa | 2.8V | 07:18:03 | 02:49:08 | 00:00:00 | |
| AA1-15 | 2026-09-04 15:08:07 | 53.99179 | 11.70517 | 94° | 77km/h | 662m | -3.3m/s | 14°C | 91.5% | 931hPa | 2.8V | 07:18:03 | 02:49:06 | 00:00:00 | |
| AA1-15 | 2026-09-04 15:08:05 | 53.99181 | 11.70451 | 94° | 77km/h | 668m | -3.6m/s | 14°C | 91% | 930.3hPa | 2.8V | 07:18:03 | 02:49:04 | 00:00:00 | |
| AA1-15 | 2026-09-04 15:08:03 | 53.99183 | 11.70385 | 93° | 77km/h | 675m | -3.1m/s | 13.9°C | 91.2% | 929.5hPa | 2.8V | 07:18:03 | 02:49:02 | 00:00:00 | |
| AA1-15 | 2026-09-04 15:08:02 | 53.99184 | 11.70352 | 94° | 77km/h | 678m | -3.2m/s | 13.9°C | 91.2% | 929.2hPa | 2.8V | 07:18:03 | 02:49:01 | 00:00:00 | |
| AA1-15 | 2026-09-04 15:08:00 | 53.99187 | 11.70285 | 93° | 78km/h | 684m | -3.8m/s | 14°C | 89.8% | 928.4hPa | 2.8V | 07:18:03 | 02:48:59 | 00:00:00 | |
| AA1-15 | 2026-09-04 15:07:59 | 53.99188 | 11.70251 | 93° | 78km/h | 688m | -2.9m/s | 14°C | 89.7% | 928.1hPa | 2.8V | 07:18:03 | 02:48:58 | 00:00:00 | |
| AA1-15 | 2026-09-04 15:07:57 | 53.99190 | 11.70183 | 93° | 78km/h | 694m | -3.3m/s | 13.9°C | 89.6% | 927.4hPa | 2.8V | 07:18:03 | 02:48:56 | 00:00:00 | |
| AA1-15 | 2026-09-04 15:07:56 | 53.99191 | 11.70150 | 94° | 78km/h | 697m | -3m/s | 13.9°C | 89.8% | 927.1hPa | 2.7V | 07:18:03 | 02:48:55 | 00:00:00 | |
| DB0DAN | 2026-09-04 15:07:55 | 53.99193 | 11.70116 | 95° | 75km/h | 700m | -2.9m/s | 13.9°C | 87.3% | 926.72hPa | 2.8V | 00:00:00 | 00:00:00 | 00:00:00 | |
| AA1-15 | 2026-09-04 15:07:54 | 53.99195 | 11.70083 | 94° | 78km/h | 703m | -3.2m/s | 13.9°C | 89% | 926.5hPa | 2.8V | 07:18:03 | 02:48:53 | 00:00:00 | |
| AA1-15 | 2026-09-04 15:07:53 | 53.99196 | 11.70049 | 94° | 78km/h | 706m | -2.9m/s | 13.9°C | 89.1% | 926.1hPa | 2.8V | 07:18:03 | 02:48:52 | 00:00:00 | |
| AA1-15 | 2026-09-04 15:07:51 | 53.99199 | 11.69982 | 95° | 78km/h | 713m | -2.9m/s | 13.9°C | 89.5% | 925.4hPa | 2.8V | 07:18:03 | 02:48:50 | 00:00:00 | |
| AA1-15 | 2026-09-04 15:07:49 | 53.99203 | 11.69915 | 95° | 80km/h | 720m | -2.8m/s | 13.9°C | 88.8% | 924.6hPa | 2.8V | 07:18:03 | 02:48:48 | 00:00:00 | |
| AA1-15 | 2026-09-04 15:07:48 | 53.99204 | 11.69880 | 94° | 80km/h | 722m | -3m/s | 13.9°C | 88.9% | 924.3hPa | 2.8V | 07:18:03 | 02:48:47 | 00:00:00 | |
| AA1-15 | 2026-09-04 15:07:46 | 53.99207 | 11.69811 | 94° | 80km/h | 728m | -3.3m/s | 13.8°C | 89% | 923.8hPa | 2.8V | 07:18:03 | 02:48:45 | 00:00:00 | |
| DL1XH-15 | 2026-09-04 15:07:46 | 53.99215 | 11.69672 | 93° | 82km/h | 741m | -3.4m/s | 13.8°C | 86.3% | 922.4hPa | 2.7V | 07:17:40 | 02:48:41 | 00:00:00 | |
| DL1XH-15 | 2026-09-04 15:07:46 | 53.99216 | 11.69602 | 91° | 80km/h | 748m | -2.7m/s | 13.8°C | 85.8% | 921.7hPa | 2.8V | 07:17:42 | 02:48:39 | 00:00:00 | |
| AA1-15 | 2026-09-04 15:07:45 | 53.99209 | 11.69777 | 95° | 80km/h | 732m | -3.2m/s | 13.8°C | 89.2% | 923.2hPa | 2.8V | 07:18:03 | 02:48:44 | 00:00:00 | |
| AA1-15 | 2026-09-04 15:07:44 | 53.99211 | 11.69743 | 95° | 80km/h | 735m | -2.9m/s | 13.8°C | 89.1% | 923hPa | 2.8V | 07:18:03 | 02:48:43 | 00:00:00 | |
| AA1-15 | 2026-09-04 15:07:42 | 53.99214 | 11.69672 | 94° | 82km/h | 741m | -3.4m/s | 13.8°C | 88.7% | 922.4hPa | 2.7V | 07:18:03 | 02:48:41 | 00:00:00 | |
| AA1-15 | 2026-09-04 15:07:41 | 53.99216 | 11.69637 | 93° | 82km/h | 745m | -3.1m/s | 13.8°C | 88.2% | 922hPa | 2.8V | 07:18:03 | 02:48:40 | 00:00:00 | |
| DB0DAN | 2026-09-04 15:07:40 | 53.99216 | 11.69602 | 92° | 77km/h | 748m | -2.7m/s | 13.8°C | 85.5% | 921.73hPa | 2.8V | 00:00:00 | 00:00:00 | 00:00:00 | |
| AA1-15 | 2026-09-04 15:07:40 | 53.99216 | 11.69602 | 92° | 80km/h | 748m | -2.7m/s | 13.8°C | 87.8% | 921.7hPa | 2.8V | 07:18:03 | 02:48:39 | 00:00:00 | |
| AA1-15 | 2026-09-04 15:07:38 | 53.99218 | 11.69533 | 92° | 80km/h | 753m | -2.6m/s | 13.8°C | 87.4% | 921hPa | 2.8V | 07:18:03 | 02:48:37 | 00:00:00 | |
| AA1-15 | 2026-09-04 15:07:36 | 53.99220 | 11.69464 | 92° | 80km/h | 759m | -2.9m/s | 13.8°C | 87.3% | 920.4hPa | 2.8V | 07:18:03 | 02:48:35 | 00:00:00 | |
| AA1-15 | 2026-09-04 15:07:34 | 53.99221 | 11.69395 | 93° | 80km/h | 765m | -3m/s | 13.8°C | 86.1% | 919.8hPa | 2.8V | 07:18:03 | 02:48:33 | 00:00:00 | |
| DO2SHX-10 | 2026-09-04 15:07:34 | 53.99221 | 11.69395 | 93° | 80km/h | 765m | -3.0m/s | 13.8°C | 84.1% | 919.7hPa | 2.7V | 00:00:00 | 02:48:33 | 00:00:00 | |
| DL1XH-15 | 2026-09-04 15:07:33 | 53.99225 | 11.69255 | 92° | 82km/h | 777m | -2.7m/s | 13.8°C | 83% | 918.5hPa | 2.8V | 07:17:52 | 02:48:29 | 00:00:00 | |
| DL1XH-15 | 2026-09-04 15:07:33 | 53.99228 | 11.69185 | 93° | 82km/h | 783m | -3m/s | 13.8°C | 82.7% | 917.9hPa | 2.8V | 07:17:54 | 02:48:27 | 00:00:00 | |
| AA1-15 | 2026-09-04 15:07:32 | 53.99223 | 11.69325 | 93° | 82km/h | 771m | -2.8m/s | 13.8°C | 85.7% | 919.1hPa | 2.8V | 07:18:03 | 02:48:31 | 00:00:00 | |
| AA1-15 | 2026-09-04 15:07:31 | 53.99224 | 11.69290 | 93° | 82km/h | 774m | -3.5m/s | 13.8°C | 85.7% | 918.8hPa | 2.8V | 07:18:03 | 02:48:30 | 00:00:00 | |
| AA1-15 | 2026-09-04 15:07:30 | 53.99225 | 11.69255 | 93° | 82km/h | 777m | -2.7m/s | 13.8°C | 85.3% | 918.5hPa | 2.8V | 07:18:03 | 02:48:29 | 00:00:00 | |
| AA1-15 | 2026-09-04 15:07:28 | 53.99228 | 11.69185 | 94° | 82km/h | 783m | -3m/s | 13.8°C | 84.8% | 917.9hPa | 2.8V | 07:18:03 | 02:48:27 | 00:00:00 | |
| AA1-15 | 2026-09-04 15:07:27 | 53.99229 | 11.69150 | 94° | 82km/h | 786m | -2.6m/s | 13.8°C | 84.6% | 917.3hPa | 2.8V | 07:18:03 | 02:48:26 | 00:00:00 | |
| DB0DAN | 2026-09-04 15:07:25 | 53.99232 | 11.69078 | 93° | 80km/h | 792m | -2.4m/s | 13.8°C | 82.2% | 916.7hPa | 2.8V | 00:00:00 | 00:00:00 | 00:00:00 | |
| AA1-15 | 2026-09-04 15:07:25 | 53.99232 | 11.69078 | 93° | 84km/h | 792m | -2.4m/s | 13.8°C | 84.1% | 916.7hPa | 2.8V | 07:18:03 | 02:48:24 | 00:00:00 | |
| AA1-15 | 2026-09-04 15:07:23 | 53.99234 | 11.69007 | 93° | 82km/h | 797m | -2.7m/s | 13.8°C | 83.4% | 916.1hPa | 2.8V | 07:18:03 | 02:48:22 | 00:00:00 | |
| AA1-15 | 2026-09-04 15:07:22 | 53.99235 | 11.68972 | 93° | 82km/h | 800m | -2.6m/s | 13.9°C | 83.3% | 915.9hPa | 2.8V | 07:18:03 | 02:48:21 | 00:00:00 | |
| AA1-15 | 2026-09-04 15:07:20 | 53.99237 | 11.68902 | 93° | 82km/h | 806m | -3.3m/s | 13.8°C | 83.4% | 915.2hPa | 2.8V | 07:18:03 | 02:48:19 | 00:00:00 | |
| AA1-15 | 2026-09-04 15:07:18 | 53.99239 | 11.68832 | 93° | 80km/h | 813m | -3m/s | 13.9°C | 82.7% | 914.4hPa | 2.8V | 07:18:54 | 02:48:17 | 00:00:00 | |
| AA1-15 | 2026-09-04 15:07:17 | 53.99240 | 11.68797 | 93° | 82km/h | 816m | -3.2m/s | 13.9°C | 82.6% | 914.2hPa | 2.8V | 07:18:54 | 02:48:16 | 00:00:00 | |
| AA1-15 | 2026-09-04 15:07:16 | 53.99241 | 11.68762 | 93° | 82km/h | 819m | -3.1m/s | 13.9°C | 82.7% | 913.8hPa | 2.7V | 07:18:54 | 02:48:15 | 00:00:00 | |
| DO2SHX-10 | 2026-09-04 15:07:16 | 53.99241 | 11.68762 | 93° | 82km/h | 819m | -3.0m/s | 13.8°C | 79.8% | 913.8hPa | 2.7V | 00:00:00 | 02:48:15 | 00:00:00 | |
| DL1XH-15 | 2026-09-04 15:07:15 | 53.99243 | 11.68691 | 92° | 82km/h | 825m | -3.3m/s | 13.8°C | 80% | 913.4hPa | 2.8V | 07:18:08 | 02:48:13 | 00:00:00 | |
| DL1XH-15 | 2026-09-04 15:07:15 | 53.99245 | 11.68621 | 92° | 82km/h | 831m | -3m/s | 13.8°C | 80.4% | 912.6hPa | 2.8V | 07:18:10 | 02:48:11 | 00:00:00 | |
| AA1-15 | 2026-09-04 15:07:15 | 53.99242 | 11.68727 | 93° | 82km/h | 822m | -3.1m/s | 13.9°C | 82.8% | 913.4hPa | 2.8V | 07:18:54 | 02:48:14 | 00:00:00 | |
| AA1-15 | 2026-09-04 15:07:13 | 53.99244 | 11.68656 | 93° | 82km/h | 828m | -3m/s | 13.8°C | 83% | 912.8hPa | 2.8V | 07:18:54 | 02:48:12 | 00:00:00 | |
| AA1-15 | 2026-09-04 15:07:11 | 53.99246 | 11.68585 | 92° | 82km/h | 835m | -3.2m/s | 13.8°C | 83.2% | 912.2hPa | 2.8V | 07:18:54 | 02:48:10 | 00:00:00 | |
| DB0DAN | 2026-09-04 15:07:10 | 53.99247 | 11.68550 | 92° | 78km/h | 838m | -3.1m/s | 13.7°C | 80.3% | 911.81hPa | 2.8V | 00:00:00 | 00:00:00 | 00:00:00 | |
| AA1-15 | 2026-09-04 15:07:10 | 53.99247 | 11.68550 | 92° | 82km/h | 838m | -3.1m/s | 13.7°C | 83.2% | 911.8hPa | 2.8V | 07:18:54 | 02:48:09 | 00:00:00 | |
| AA1-15 | 2026-09-04 15:07:08 | 53.99249 | 11.68479 | 92° | 82km/h | 843m | -3.1m/s | 13.7°C | 83.4% | 911.2hPa | 2.8V | 07:18:54 | 02:48:07 | 00:00:00 | |
| AA1-15 | 2026-09-04 15:07:06 | 53.99250 | 11.68408 | 91° | 82km/h | 849m | -3m/s | 13.7°C | 83.4% | 910.5hPa | 2.8V | 07:18:54 | 02:48:05 | 00:00:00 | |
| AA1-15 | 2026-09-04 15:07:04 | 53.99250 | 11.68338 | 91° | 82km/h | 856m | -3.2m/s | 13.6°C | 83.3% | 909.9hPa | 2.7V | 07:18:54 | 02:48:03 | 00:00:00 | |
| DO2SHX-10 | 2026-09-04 15:07:04 | 53.99250 | 11.68338 | 92° | 82km/h | 856m | -3.2m/s | 13.6°C | 81.1% | 909.8hPa | 2.8V | 00:00:00 | 02:48:03 | 00:00:00 | |
| DL1XH-15 | 2026-09-04 15:07:04 | 53.99251 | 11.68267 | 90° | 84km/h | 861m | -2.8m/s | 13.6°C | 81.1% | 909.2hPa | 2.8V | 07:18:20 | 02:48:01 | 00:00:00 | |
| DL1XH-15 | 2026-09-04 15:07:04 | 53.99251 | 11.68195 | 90° | 84km/h | 867m | -2.9m/s | 13.5°C | 81.2% | 908.6hPa | 2.8V | 07:18:22 | 02:47:59 | 00:00:00 | |
| AA1-15 | 2026-09-04 15:07:03 | 53.99251 | 11.68302 | 91° | 82km/h | 859m | -2.9m/s | 13.6°C | 83.1% | 909.6hPa | 2.8V | 07:18:54 | 02:48:02 | 00:00:00 | |
| AA1-15 | 2026-09-04 15:07:02 | 53.99251 | 11.68267 | 90° | 84km/h | 861m | -2.8m/s | 13.6°C | 83.1% | 909.2hPa | 2.8V | 07:18:54 | 02:48:01 | 00:00:00 | |
| AA1-15 | 2026-09-04 15:07:00 | 53.99251 | 11.68195 | 91° | 84km/h | 867m | -2.9m/s | 13.5°C | 83.3% | 908.6hPa | 2.8V | 07:18:54 | 02:47:59 | 00:00:00 | |
| AA1-15 | 2026-09-04 15:06:59 | 53.99251 | 11.68159 | 91° | 84km/h | 870m | -2.8m/s | 13.5°C | 83.4% | 908.5hPa | 2.8V | 07:18:54 | 02:47:58 | 00:00:00 | |
| DO2SHX-10 | 2026-09-04 15:06:58 | 53.99251 | 11.68123 | 91° | 86km/h | 873m | -2.8m/s | 13.4°C | 81.3% | 908.0hPa | 2.7V | 00:00:00 | 02:47:57 | 00:00:00 | |
| DL1XH-15 | 2026-09-04 15:06:57 | 53.99251 | 11.67904 | 89° | 86km/h | 890m | -2.8m/s | 13.4°C | 81.6% | 906.2hPa | 2.7V | 07:18:30 | 02:47:51 | 00:00:00 | |
| AA1-15 | 2026-09-04 15:06:57 | 53.99252 | 11.68086 | 90° | 86km/h | 876m | -2.7m/s | 13.4°C | 83.7% | 907.8hPa | 2.8V | 07:18:54 | 02:47:56 | 00:00:00 | |
| AA1-15 | 2026-09-04 15:06:55 | 53.99251 | 11.68014 | 90° | 84km/h | 881m | -3m/s | 13.4°C | 83.9% | 907.3hPa | 2.8V | 07:18:54 | 02:47:54 | 00:00:00 | |
| AA1-15 | 2026-09-04 15:06:54 | 53.99251 | 11.67977 | 90° | 84km/h | 884m | -2.8m/s | 13.4°C | 84.3% | 906.9hPa | 2.8V | 07:18:54 | 02:47:53 | 00:00:00 | |
| AA1-15 | 2026-09-04 15:06:53 | 53.99251 | 11.67941 | 90° | 86km/h | 887m | -3m/s | 13.4°C | 84.3% | 906.7hPa | 2.8V | 07:18:54 | 02:47:52 | 00:00:00 | |
| AA1-15 | 2026-09-04 15:06:52 | 53.99251 | 11.67904 | 90° | 86km/h | 890m | -2.8m/s | 13.4°C | 84.5% | 906.2hPa | 2.7V | 07:18:54 | 02:47:51 | 00:00:00 | |
| DO2SHX-10 | 2026-09-04 15:06:52 | 53.99251 | 11.67904 | 90° | 84km/h | 890m | -2.8m/s | 13.3°C | 81.6% | 906.2hPa | 2.8V | 00:00:00 | 02:47:51 | 00:00:00 | |
| DL1XH-15 | 2026-09-04 15:06:51 | 53.99251 | 11.67686 | 89° | 84km/h | 907m | -2.5m/s | 13.3°C | 81.4% | 904.4hPa | 2.8V | 07:18:36 | 02:47:45 | 00:00:00 | |
| AA1-15 | 2026-09-04 15:06:50 | 53.99251 | 11.67832 | 90° | 84km/h | 896m | -2.8m/s | 13.4°C | 84.5% | 905.6hPa | 2.8V | 07:18:54 | 02:47:49 | 00:00:00 | |
| AA1-15 | 2026-09-04 15:06:48 | 53.99251 | 11.67759 | 90° | 86km/h | 901m | -3m/s | 13.4°C | 84.5% | 905.2hPa | 2.8V | 07:18:54 | 02:47:47 | 00:00:00 | |
| AA1-15 | 2026-09-04 15:06:47 | 53.99251 | 11.67722 | 89° | 84km/h | 904m | -2.8m/s | 13.4°C | 84.6% | 904.7hPa | 2.8V | 07:18:54 | 02:47:46 | 00:00:00 | |
| DO2SHX-10 | 2026-09-04 15:06:46 | 53.99251 | 11.67686 | 90° | 84km/h | 907m | -2.4m/s | 13.3°C | 81.4% | 904.3hPa | 2.8V | 00:00:00 | 02:47:45 | 00:00:00 | |
| DL1XH-15 | 2026-09-04 15:06:45 | 53.99250 | 11.67613 | 89° | 86km/h | 912m | -2.8m/s | 13.3°C | 81.3% | 903.7hPa | 2.8V | 07:18:38 | 02:47:43 | 00:00:00 | |
| DL1XH-15 | 2026-09-04 15:06:45 | 53.99250 | 11.67540 | 89° | 84km/h | 917m | -2.7m/s | 13.3°C | 80.6% | 903.3hPa | 2.8V | 07:18:40 | 02:47:41 | 00:00:00 | |
| DL1XH-15 | 2026-09-04 15:06:45 | 53.99250 | 11.67468 | 90° | 84km/h | 923m | -2.2m/s | 13.3°C | 79.6% | 902.8hPa | 2.7V | 07:18:42 | 02:47:39 | 00:00:00 | |
| AA1-15 | 2026-09-04 15:06:45 | 53.99251 | 11.67649 | 90° | 84km/h | 910m | -2.9m/s | 13.3°C | 84.4% | 904.2hPa | 2.8V | 07:18:54 | 02:47:44 | 00:00:00 | |
| AA1-15 | 2026-09-04 15:06:43 | 53.99250 | 11.67576 | 89° | 84km/h | 915m | -2.5m/s | 13.3°C | 83.7% | 903.6hPa | 2.8V | 07:18:54 | 02:47:42 | 00:00:00 | |
| AA1-15 | 2026-09-04 15:06:42 | 53.99250 | 11.67540 | 89° | 84km/h | 917m | -2.7m/s | 13.3°C | 83.5% | 903.3hPa | 2.8V | 07:18:54 | 02:47:41 | 00:00:00 | |
| DB0DAN | 2026-09-04 15:06:40 | 53.99250 | 11.67468 | 90° | 80km/h | 923m | -2.2m/s | 13.3°C | 79.2% | 902.76hPa | 2.7V | 00:00:00 | 00:00:00 | 00:00:00 | |
| AA1-15 | 2026-09-04 15:06:40 | 53.99250 | 11.67468 | 90° | 84km/h | 923m | -2.2m/s | 13.3°C | 82.4% | 902.8hPa | 2.7V | 07:18:54 | 02:47:39 | 00:00:00 | |
| AA1-15 | 2026-09-04 15:06:38 | 53.99249 | 11.67395 | 89° | 86km/h | 928m | -2.6m/s | 13.3°C | 81% | 902.2hPa | 2.8V | 07:18:54 | 02:47:37 | 00:00:00 | |
| AA1-15 | 2026-09-04 15:06:37 | 53.99249 | 11.67358 | 88° | 86km/h | 930m | -2.2m/s | 13.3°C | 80.6% | 901.8hPa | 2.8V | 07:18:54 | 02:47:36 | 00:00:00 | |
| AA1-15 | 2026-09-04 15:06:35 | 53.99248 | 11.67286 | 89° | 84km/h | 934m | -2.2m/s | 13.3°C | 80.4% | 901.4hPa | 2.8V | 07:18:54 | 02:47:34 | 00:00:00 | |
| AA1-15 | 2026-09-04 15:06:34 | 53.99247 | 11.67249 | 89° | 84km/h | 936m | -2.2m/s | 13.3°C | 80.7% | 901.3hPa | 2.8V | 07:18:54 | 02:47:33 | 00:00:00 | |
| DO2SHX-10 | 2026-09-04 15:06:34 | 53.99247 | 11.67249 | 90° | 84km/h | 936m | -2.2m/s | 13.2°C | 77.7% | 901.2hPa | 2.8V | 00:00:00 | 02:47:33 | 00:00:00 | |
| DL1XH-15 | 2026-09-04 15:06:33 | 53.99244 | 11.67105 | 87° | 84km/h | 947m | -2.8m/s | 13.2°C | 77.4% | 900.1hPa | 2.8V | 07:18:52 | 02:47:29 | 00:00:00 | |
| AA1-15 | 2026-09-04 15:06:32 | 53.99246 | 11.67177 | 88° | 84km/h | 941m | -2.6m/s | 13.2°C | 81.1% | 900.7hPa | 2.8V | 07:18:54 | 02:47:31 | 00:00:00 | |
| AA1-15 | 2026-09-04 15:06:31 | 53.99245 | 11.67141 | 88° | 84km/h | 944m | -2.7m/s | 13.2°C | 81% | 900.3hPa | 2.8V | 07:18:54 | 02:47:30 | 00:00:00 | |
| AA1-15 | 2026-09-04 15:06:29 | 53.99244 | 11.67069 | 88° | 84km/h | 949m | -2.6m/s | 13.2°C | 80.6% | 899.8hPa | 2.8V | 07:18:54 | 02:47:28 | 00:00:00 | |
| DO2SHX-10 | 2026-09-04 15:06:28 | 53.99242 | 11.67033 | 87° | 84km/h | 952m | -2.4m/s | 13.1°C | 77.6% | 899.5hPa | 2.8V | 00:00:00 | 02:47:27 | 00:00:00 | |
| DL1XH-15 | 2026-09-04 15:06:27 | 53.99240 | 11.66961 | 87° | 84km/h | 957m | -2.3m/s | 13.1°C | 77.9% | 899.1hPa | 2.8V | 07:18:56 | 02:47:25 | 00:00:00 | |
| DL1XH-15 | 2026-09-04 15:06:27 | 53.99239 | 11.66888 | 88° | 86km/h | 962m | -2.2m/s | 13.1°C | 77.2% | 898.5hPa | 2.8V | 07:18:58 | 02:47:23 | 00:00:00 | |
| DL1XH-15 | 2026-09-04 15:06:27 | 53.99238 | 11.66814 | 88° | 86km/h | 966m | -1.7m/s | 13.1°C | 77.7% | 898hPa | 2.8V | 07:19:00 | 02:47:21 | 00:00:00 | |
| AA1-15 | 2026-09-04 15:06:27 | 53.99241 | 11.66997 | 87° | 84km/h | 955m | -2.8m/s | 13.1°C | 80.7% | 899.3hPa | 2.8V | 07:19:45 | 02:47:26 | 00:00:00 | |
| DB0DAN | 2026-09-04 15:06:25 | 53.99240 | 11.66925 | 88° | 80km/h | 960m | -2.6m/s | 13.1°C | 76.9% | 898.76hPa | 2.8V | 00:00:00 | 00:00:00 | 00:00:00 | |
| AA1-15 | 2026-09-04 15:06:25 | 53.99240 | 11.66925 | 88° | 84km/h | 960m | -2.6m/s | 13.1°C | 80.1% | 898.8hPa | 2.8V | 07:19:45 | 02:47:24 | 00:00:00 | |
| AA1-15 | 2026-09-04 15:06:23 | 53.99239 | 11.66851 | 88° | 88km/h | 964m | -2.1m/s | 13.1°C | 79.8% | 898.3hPa | 2.8V | 07:19:45 | 02:47:22 | 00:00:00 | |
| AA1-15 | 2026-09-04 15:06:22 | 53.99238 | 11.66814 | 88° | 86km/h | 966m | -1.7m/s | 13.1°C | 80.3% | 898.1hPa | 2.8V | 07:19:45 | 02:47:21 | 00:00:00 | |
| DO2SHX-10 | 2026-09-04 15:06:22 | 53.99238 | 11.66814 | 89° | 86km/h | 966m | -1.7m/s | 13.0°C | 77.7% | 898.0hPa | 2.7V | 00:00:00 | 02:47:21 | 00:00:00 | |
| DL1XH-15 | 2026-09-04 15:06:21 | 53.99237 | 11.66740 | 89° | 86km/h | 970m | -1.9m/s | 13°C | 77.5% | 897.6hPa | 2.8V | 07:19:02 | 02:47:19 | 00:00:00 | |
| DL1XH-15 | 2026-09-04 15:06:21 | 53.99237 | 11.66667 | 90° | 86km/h | 974m | -2.1m/s | 13°C | 77.6% | 897.2hPa | 2.8V | 07:19:04 | 02:47:17 | 00:00:00 | |
| DL1XH-15 | 2026-09-04 15:06:21 | 53.99237 | 11.66594 | 90° | 84km/h | 978m | -2.2m/s | 12.9°C | 77.8% | 896.7hPa | 2.8V | 07:19:06 | 02:47:15 | 00:00:00 | |
| AA1-15 | 2026-09-04 15:06:20 | 53.99237 | 11.66740 | 90° | 86km/h | 970m | -1.9m/s | 13°C | 80.2% | 897.6hPa | 2.8V | 07:19:45 | 02:47:19 | 00:00:00 | |
| AA1-15 | 2026-09-04 15:06:19 | 53.99237 | 11.66704 | 90° | 86km/h | 972m | -2m/s | 13°C | 80.5% | 897.4hPa | 2.8V | 07:19:45 | 02:47:18 | 00:00:00 | |
| AA1-15 | 2026-09-04 15:06:18 | 53.99237 | 11.66667 | 90° | 86km/h | 974m | -2.1m/s | 13°C | 80.6% | 897.2hPa | 2.8V | 07:19:45 | 02:47:17 | 00:00:00 | |
| AA1-15 | 2026-09-04 15:06:16 | 53.99237 | 11.66594 | 90° | 84km/h | 978m | -2.2m/s | 13°C | 80.9% | 896.7hPa | 2.8V | 07:19:45 | 02:47:15 | 00:00:00 | |
| DO2SHX-10 | 2026-09-04 15:06:16 | 53.99237 | 11.66594 | 91° | 84km/h | 978m | -2.1m/s | 12.9°C | 77.8% | 896.6hPa | 2.8V | 00:00:00 | 02:47:15 | 00:00:00 | |
| DL1XH-15 | 2026-09-04 15:06:15 | 53.99237 | 11.66522 | 90° | 86km/h | 983m | -2m/s | 12.9°C | 78.1% | 896.3hPa | 2.8V | 07:19:08 | 02:47:13 | 00:00:00 | |
| DL1XH-15 | 2026-09-04 15:06:15 | 53.99236 | 11.66448 | 87° | 88km/h | 987m | -1.9m/s | 12.9°C | 77.9% | 895.8hPa | 2.8V | 07:19:10 | 02:47:11 | 00:00:00 | |
| DL1XH-15 | 2026-09-04 15:06:15 | 53.99234 | 11.66373 | 86° | 86km/h | 991m | -2.1m/s | 12.8°C | 77.9% | 895.4hPa | 2.8V | 07:19:12 | 02:47:09 | 00:00:00 | |
| AA1-15 | 2026-09-04 15:06:15 | 53.99237 | 11.66558 | 90° | 84km/h | 981m | -2.2m/s | 12.9°C | 80.9% | 896.5hPa | 2.8V | 07:19:45 | 02:47:14 | 00:00:00 | |
| AA1-15 | 2026-09-04 15:06:13 | 53.99237 | 11.66485 | 89° | 88km/h | 985m | -2.4m/s | 12.9°C | 80.9% | 896.1hPa | 2.8V | 07:19:45 | 02:47:12 | 00:00:00 | |
| AA1-15 | 2026-09-04 15:06:12 | 53.99236 | 11.66448 | 88° | 88km/h | 987m | -1.9m/s | 12.9°C | 80.9% | 895.8hPa | 2.8V | 07:19:45 | 02:47:11 | 00:00:00 | |
| AA1-15 | 2026-09-04 15:06:11 | 53.99235 | 11.66410 | 87° | 88km/h | 989m | -2.1m/s | 12.9°C | 81.2% | 895.5hPa | 2.8V | 07:19:45 | 02:47:10 | 00:00:00 | |
| DB0DAN | 2026-09-04 15:06:10 | 53.99234 | 11.66373 | 86° | 82km/h | 991m | -2.1m/s | 12.8°C | 77.5% | 895.39hPa | 2.8V | 00:00:00 | 00:00:00 | 00:00:00 | |
| AA1-15 | 2026-09-04 15:06:09 | 53.99233 | 11.66336 | 86° | 86km/h | 993m | -2.1m/s | 12.8°C | 81.5% | 895.2hPa | 2.8V | 07:19:45 | 02:47:08 | 00:00:00 | |
| AA1-15 | 2026-09-04 15:06:07 | 53.99231 | 11.66263 | 88° | 86km/h | 998m | -2.9m/s | 12.8°C | 81.8% | 894.6hPa | 2.8V | 07:19:45 | 02:47:06 | 00:00:00 | |
| AA1-15 | 2026-09-04 15:06:05 | 53.99230 | 11.66189 | 89° | 88km/h | 1003m | -2.4m/s | 12.7°C | 82.1% | 894hPa | 2.8V | 07:19:45 | 02:47:04 | 00:00:00 | |
| DO2SHX-10 | 2026-09-04 15:06:04 | 53.99229 | 11.66151 | 89° | 86km/h | 1005m | -2.2m/s | 12.6°C | 78.7% | 893.8hPa | 2.7V | 00:00:00 | 02:47:03 | 00:00:00 | |
| DL1XH-15 | 2026-09-04 15:06:03 | 53.99228 | 11.66077 | 88° | 86km/h | 1010m | -2.6m/s | 12.6°C | 79% | 893.4hPa | 2.8V | 07:19:20 | 02:47:01 | 00:00:00 | |
| AA1-15 | 2026-09-04 15:06:03 | 53.99229 | 11.66114 | 89° | 86km/h | 1007m | -2.5m/s | 12.7°C | 82.3% | 893.7hPa | 2.8V | 07:19:45 | 02:47:02 | 00:00:00 | |
| AA1-15 | 2026-09-04 15:06:01 | 53.99228 | 11.66040 | 89° | 86km/h | 1013m | -2.3m/s | 12.6°C | 82.5% | 893.1hPa | 2.8V | 07:19:45 | 02:47:00 | 00:00:00 | |
| AA1-15 | 2026-09-04 15:05:59 | 53.99227 | 11.65966 | 89° | 88km/h | 1017m | -2.4m/s | 12.6°C | 82.5% | 892.6hPa | 2.8V | 07:19:45 | 02:46:58 | 00:00:00 | |
| DO2SHX-10 | 2026-09-04 15:05:58 | 53.99226 | 11.65928 | 89° | 88km/h | 1020m | -2.3m/s | 12.5°C | 79.3% | 892.3hPa | 2.8V | 00:00:00 | 02:46:57 | 00:00:00 | |
| DL1XH-15 | 2026-09-04 15:05:57 | 53.99224 | 11.65853 | 87° | 88km/h | 1024m | -2m/s | 12.5°C | 79.5% | 892hPa | 2.8V | 07:19:26 | 02:46:55 | 00:00:00 | |
| DL1XH-15 | 2026-09-04 15:05:57 | 53.99222 | 11.65778 | 87° | 88km/h | 1028m | -2.1m/s | 12.5°C | 79.3% | 891.3hPa | 2.8V | 07:19:28 | 02:46:53 | 00:00:00 | |
| AA1-15 | 2026-09-04 15:05:57 | 53.99225 | 11.65890 | 88° | 88km/h | 1022m | -2.4m/s | 12.5°C | 82.3% | 892.2hPa | 2.8V | 07:19:45 | 02:46:56 | 00:00:00 | |
| AA1-15 | 2026-09-04 15:05:55 | 53.99223 | 11.65815 | 87° | 88km/h | 1026m | -2.1m/s | 12.5°C | 82.4% | 891.5hPa | 2.7V | 07:19:45 | 02:46:54 | 00:00:00 | |
| AA1-15 | 2026-09-04 15:05:53 | 53.99221 | 11.65741 | 87° | 86km/h | 1031m | -2.2m/s | 12.5°C | 83.1% | 891.2hPa | 2.8V | 07:19:45 | 02:46:52 | 00:00:00 | |
| AA1-15 | 2026-09-04 15:05:52 | 53.99220 | 11.65704 | 87° | 86km/h | 1032m | -1.9m/s | 12.5°C | 83.6% | 890.9hPa | 2.8V | 07:19:45 | 02:46:51 | 00:00:00 | |
| AA1-15 | 2026-09-04 15:05:50 | 53.99219 | 11.65631 | 89° | 84km/h | 1037m | -2.4m/s | 12.4°C | 84.1% | 890.5hPa | 2.8V | 07:19:45 | 02:46:49 | 00:00:00 | |
| AA1-15 | 2026-09-04 15:05:48 | 53.99218 | 11.65558 | 89° | 86km/h | 1042m | -2.2m/s | 12.4°C | 83.9% | 890hPa | 2.8V | 07:19:45 | 02:46:47 | 00:00:00 | |
| AA1-15 | 2026-09-04 15:05:47 | 53.99218 | 11.65522 | 89° | 84km/h | 1044m | -2.1m/s | 12.4°C | 83.5% | 889.6hPa | 2.8V | 07:19:45 | 02:46:46 | 00:00:00 | |
| D01LWL | 2026-09-04 15:05:45 | 53.99218 | 11.65449 | 90° | 86km/h | 1048m | -2.3m/s | 12.3°C | 79.5% | 889.4hPa | 2.8V | 00:00:00 | 00:00:00 | 00:00:00 | |
| DL1XH-15 | 2026-09-04 15:05:45 | 53.99215 | 11.65261 | 87° | 86km/h | 1058m | -1.6m/s | 12.2°C | 80.6% | 888.2hPa | 2.8V | 07:19:42 | 02:46:39 | 00:00:00 | |
| AA1-15 | 2026-09-04 15:05:45 | 53.99218 | 11.65449 | 90° | 86km/h | 1048m | -2.3m/s | 12.3°C | 83.2% | 889.4hPa | 2.7V | 07:19:45 | 02:46:44 | 00:00:00 | |
| AA1-15 | 2026-09-04 15:05:44 | 53.99218 | 11.65412 | 90° | 88km/h | 1050m | -2.1m/s | 12.3°C | 82.9% | 889hPa | 2.8V | 07:19:45 | 02:46:43 | 00:00:00 | |
| AA1-15 | 2026-09-04 15:05:42 | 53.99217 | 11.65336 | 88° | 88km/h | 1054m | -1.9m/s | 12.3°C | 82.8% | 888.7hPa | 2.8V | 07:19:45 | 02:46:41 | 00:00:00 | |
| AA1-15 | 2026-09-04 15:05:41 | 53.99216 | 11.65298 | 87° | 88km/h | 1056m | -1.7m/s | 12.2°C | 82.8% | 888.5hPa | 2.8V | 07:19:45 | 02:46:40 | 00:00:00 | |
| DB0DAN | 2026-09-04 15:05:40 | 53.99215 | 11.65261 | 87° | 82km/h | 1058m | -1.6m/s | 12.2°C | 80.1% | 888.25hPa | 2.8V | 00:00:00 | 00:00:00 | 00:00:00 | |
| DO2SHX-10 | 2026-09-04 15:05:40 | 53.99215 | 11.65261 | 88° | 86km/h | 1058m | -1.5m/s | 12.2°C | 80.6% | 888.2hPa | 2.8V | 00:00:00 | 02:46:39 | 00:00:00 | |
| DL1XH-15 | 2026-09-04 15:05:39 | 53.99213 | 11.65188 | 88° | 86km/h | 1061m | -1.7m/s | 12.2°C | 80.5% | 888hPa | 2.8V | 07:19:44 | 02:46:37 | 00:00:00 | |
| DL1XH-15 | 2026-09-04 15:05:39 | 53.99212 | 11.65113 | 87° | 88km/h | 1064m | -1.5m/s | 12.2°C | 80.6% | 887.5hPa | 2.8V | 07:19:46 | 02:46:35 | 00:00:00 | |
| DL1XH-15 | 2026-09-04 15:05:39 | 53.99210 | 11.65040 | 87° | 84km/h | 1067m | -1.7m/s | 12.1°C | 80.9% | 887.2hPa | 2.7V | 07:19:48 | 02:46:33 | 00:00:00 | |
| AA1-15 | 2026-09-04 15:05:39 | 53.99214 | 11.65224 | 88° | 86km/h | 1059m | -1.5m/s | 12.2°C | 82.7% | 888.2hPa | 2.8V | 07:19:45 | 02:46:38 | 00:00:00 | |
| AA1-15 | 2026-09-04 15:05:37 | 53.99213 | 11.65151 | 88° | 88km/h | 1063m | -1.7m/s | 12.2°C | 82.9% | 887.9hPa | 2.8V | 07:19:45 | 02:46:36 | 00:00:00 | |
| AA1-15 | 2026-09-04 15:05:36 | 53.99212 | 11.65113 | 88° | 88km/h | 1064m | -1.5m/s | 12.2°C | 82.9% | 887.5hPa | 2.8V | 07:20:36 | 02:46:35 | 00:00:00 | |
| AA1-15 | 2026-09-04 15:05:34 | 53.99210 | 11.65040 | 88° | 84km/h | 1067m | -1.7m/s | 12.1°C | 83.3% | 887.2hPa | 2.7V | 07:20:36 | 02:46:33 | 00:00:00 | |
| DO2SHX-10 | 2026-09-04 15:05:34 | 53.99210 | 11.65040 | 88° | 86km/h | 1067m | -1.7m/s | 12.1°C | 80.9% | 887.2hPa | 2.8V | 00:00:00 | 02:46:33 | 00:00:00 | |
| DL1XH-15 | 2026-09-04 15:05:33 | 53.99208 | 11.64967 | 88° | 84km/h | 1070m | -1.6m/s | 12.1°C | 81% | 886.9hPa | 2.8V | 07:19:50 | 02:46:31 | 00:00:00 | |
| AA1-15 | 2026-09-04 15:05:32 | 53.99208 | 11.64967 | 89° | 84km/h | 1070m | -1.7m/s | 12.1°C | 83.3% | 886.9hPa | 2.8V | 07:20:36 | 02:46:31 | 00:00:00 | |
| AA1-15 | 2026-09-04 15:05:30 | 53.99207 | 11.64893 | 88° | 86km/h | 1074m | -2.1m/s | 12.1°C | 82.7% | 886.5hPa | 2.8V | 07:20:36 | 02:46:29 | 00:00:00 | |
| AA1-15 | 2026-09-04 15:05:29 | 53.99206 | 11.64856 | 87° | 86km/h | 1076m | -1.8m/s | 12.1°C | 82.3% | 886.3hPa | 2.8V | 07:20:36 | 02:46:28 | 00:00:00 | |
| AA1-15 | 2026-09-04 15:05:28 | 53.99205 | 11.64820 | 87° | 86km/h | 1078m | -1.6m/s | 12°C | 82.2% | 886.1hPa | 2.8V | 07:20:36 | 02:46:27 | 00:00:00 | |
| AA1-15 | 2026-09-04 15:05:26 | 53.99202 | 11.64746 | 86° | 86km/h | 1081m | -1.3m/s | 12°C | 82.2% | 885.8hPa | 2.8V | 07:20:36 | 02:46:25 | 00:00:00 | |
| DB0DAN | 2026-09-04 15:05:25 | 53.99201 | 11.64709 | 86° | 84km/h | 1082m | -1.5m/s | 12°C | 80.6% | 885.62hPa | 2.8V | 00:00:00 | 00:00:00 | 00:00:00 | |
| AA1-15 | 2026-09-04 15:05:25 | 53.99201 | 11.64709 | 86° | 88km/h | 1082m | -1.5m/s | 12°C | 82.4% | 885.6hPa | 2.8V | 07:20:36 | 02:46:24 | 00:00:00 | |
| AA1-15 | 2026-09-04 15:05:23 | 53.99197 | 11.64634 | 85° | 88km/h | 1086m | -1.7m/s | 12°C | 82.6% | 885.4hPa | 2.8V | 07:20:36 | 02:46:22 | 00:00:00 | |
| AA1-15 | 2026-09-04 15:05:21 | 53.99192 | 11.64558 | 85° | 89km/h | 1090m | -1.9m/s | 11.9°C | 82.7% | 885.1hPa | 2.8V | 07:20:36 | 02:46:20 | 00:00:00 | |
| AA1-15 | 2026-09-04 15:05:19 | 53.99188 | 11.64482 | 85° | 89km/h | 1093m | -1.6m/s | 11.9°C | 83.5% | 884.6hPa | 2.8V | 07:20:36 | 02:46:18 | 00:00:00 | |
| AA1-15 | 2026-09-04 15:05:17 | 53.99184 | 11.64406 | 85° | 89km/h | 1097m | -2.3m/s | 11.9°C | 83.8% | 884.2hPa | 2.8V | 07:20:36 | 02:46:16 | 00:00:00 | |
| DO2SHX-10 | 2026-09-04 15:05:16 | 53.99182 | 11.64367 | 87° | 91km/h | 1100m | -2.2m/s | 11.8°C | 82.1% | 883.9hPa | 2.8V | 00:00:00 | 02:46:15 | 00:00:00 | |
| DL1XH-15 | 2026-09-04 15:05:15 | 53.99176 | 11.64212 | 85° | 89km/h | 1109m | -2.2m/s | 11.7°C | 82.5% | 883hPa | 2.8V | 07:20:10 | 02:46:11 | 00:00:00 | |
| DL1XH-15 | 2026-09-04 15:05:15 | 53.99172 | 11.64134 | 86° | 91km/h | 1113m | -2.2m/s | 11.7°C | 81.9% | 882.6hPa | 2.8V | 07:20:12 | 02:46:09 | 00:00:00 | |
| AA1-15 | 2026-09-04 15:05:15 | 53.99181 | 11.64329 | 86° | 91km/h | 1102m | -2.3m/s | 11.8°C | 84.3% | 883.8hPa | 2.8V | 07:20:36 | 02:46:14 | 00:00:00 | |
| AA1-15 | 2026-09-04 15:05:14 | 53.99179 | 11.64290 | 86° | 91km/h | 1104m | -2.3m/s | 11.8°C | 84.3% | 883.5hPa | 2.7V | 07:20:36 | 02:46:13 | 00:00:00 | |
| AA1-15 | 2026-09-04 15:05:12 | 53.99176 | 11.64212 | 85° | 89km/h | 1109m | -2.2m/s | 11.7°C | 84.1% | 883hPa | 2.8V | 07:20:36 | 02:46:11 | 00:00:00 | |
| DB0DAN | 2026-09-04 15:05:10 | 53.99172 | 11.64134 | 86° | 86km/h | 1114m | -2.2m/s | 11.7°C | 81.4% | 882.56hPa | 2.8V | 00:00:00 | 00:00:00 | 00:00:00 | |
| AA1-15 | 2026-09-04 15:05:10 | 53.99172 | 11.64134 | 86° | 91km/h | 1114m | -2.2m/s | 11.7°C | 83.4% | 882.6hPa | 2.8V | 07:20:36 | 02:46:09 | 00:00:00 | |
| DO2SHX-10 | 2026-09-04 15:05:10 | 53.99172 | 11.64134 | 87° | 91km/h | 1114m | -2.2m/s | 11.7°C | 81.9% | 882.5hPa | 2.7V | 00:00:00 | 02:46:09 | 00:00:00 | |
| DL1XH-15 | 2026-09-04 15:05:09 | 53.99169 | 11.64056 | 85° | 91km/h | 1118m | -2.1m/s | 11.8°C | 81.3% | 882.1hPa | 2.8V | 07:20:14 | 02:46:07 | 00:00:00 | |
| DL1XH-15 | 2026-09-04 15:05:09 | 53.99165 | 11.63978 | 84° | 91km/h | 1122m | -2m/s | 12.1°C | 75.8% | 881.6hPa | 2.8V | 07:20:16 | 02:46:05 | 00:00:00 | |
| AA1-15 | 2026-09-04 15:05:08 | 53.99169 | 11.64056 | 85° | 91km/h | 1118m | -2.1m/s | 11.8°C | 83.3% | 882.1hPa | 2.8V | 07:20:36 | 02:46:07 | 00:00:00 | |
| AA1-15 | 2026-09-04 15:05:06 | 53.99165 | 11.63978 | 85° | 91km/h | 1122m | -2m/s | 12.1°C | 79.4% | 881.6hPa | 2.8V | 07:20:36 | 02:46:05 | 00:00:00 | |
| AA1-15 | 2026-09-04 15:05:04 | 53.99161 | 11.63901 | 86° | 91km/h | 1126m | -2.3m/s | 12.1°C | 78.6% | 881.2hPa | 2.7V | 07:20:36 | 02:46:03 | 00:00:00 | |
| DO2SHX-10 | 2026-09-04 15:05:04 | 53.99161 | 11.63901 | 86° | 91km/h | 1126m | -2.2m/s | 12.0°C | 74.3% | 881.2hPa | 2.8V | 00:00:00 | 02:46:03 | 00:00:00 | |
| DL1XH-15 | 2026-09-04 15:05:03 | 53.99148 | 11.63669 | 83° | 91km/h | 1139m | -2m/s | 11.9°C | 75.2% | 879.8hPa | 2.8V | 07:20:24 | 02:45:57 | 00:00:00 | |
| AA1-15 | 2026-09-04 15:05:02 | 53.99157 | 11.63824 | 84° | 89km/h | 1130m | -2.1m/s | 12.1°C | 78.6% | 880.8hPa | 2.8V | 07:20:36 | 02:46:01 | 00:00:00 | |
| AA1-15 | 2026-09-04 15:05:01 | 53.99155 | 11.63785 | 84° | 89km/h | 1132m | -2.4m/s | 12°C | 78.7% | 880.4hPa | 2.8V | 07:20:36 | 02:46:00 | 00:00:00 | |
| AA1-15 | 2026-09-04 15:05:00 | 53.99153 | 11.63747 | 84° | 91km/h | 1134m | -2.6m/s | 12°C | 78% | 880.2hPa | 2.8V | 07:20:36 | 02:45:59 | 00:00:00 | |
| AA1-15 | 2026-09-04 15:04:58 | 53.99148 | 11.63669 | 83° | 91km/h | 1139m | -2m/s | 12°C | 77.6% | 879.8hPa | 2.8V | 07:20:36 | 02:45:57 | 00:00:00 | |
| DO2SHX-10 | 2026-09-04 15:04:58 | 53.99147 | 11.63669 | 84° | 91km/h | 1139m | -1.9m/s | 11.9°C | 75.2% | 879.7hPa | 2.8V | 00:00:00 | 02:45:57 | 00:00:00 | |
| DL1XH-15 | 2026-09-04 15:04:57 | 53.99133 | 11.63433 | 84° | 93km/h | 1151m | -2m/s | 11.8°C | 75.4% | 878.7hPa | 2.8V | 07:20:30 | 02:45:51 | 00:00:00 | |
| AA1-15 | 2026-09-04 15:04:57 | 53.99145 | 11.63629 | 83° | 91km/h | 1141m | -1.7m/s | 11.9°C | 77.4% | 879.6hPa | 2.8V | 07:20:36 | 02:45:56 | 00:00:00 | |
| DB0DAN | 2026-09-04 15:04:55 | 53.99140 | 11.63551 | 84° | 88km/h | 1145m | -2m/s | 11.9°C | 74.6% | 879.26hPa | 2.7V | 00:00:00 | 00:00:00 | 00:00:00 | |
| AA1-15 | 2026-09-04 15:04:55 | 53.99140 | 11.63551 | 84° | 91km/h | 1145m | -2m/s | 11.9°C | 77.3% | 879.3hPa | 2.7V | 07:20:36 | 02:45:54 | 00:00:00 | |
| AA1-15 | 2026-09-04 15:04:53 | 53.99135 | 11.63473 | 85° | 93km/h | 1149m | -2m/s | 11.9°C | 77.9% | 878.8hPa | 2.8V | 07:20:36 | 02:45:52 | 00:00:00 | |
| DO2SHX-10 | 2026-09-04 15:04:52 | 53.99133 | 11.63432 | 85° | 93km/h | 1151m | -2.0m/s | 11.8°C | 75.4% | 878.6hPa | 2.7V | 00:00:00 | 02:45:51 | 00:00:00 | |
| DL1XH-15 | 2026-09-04 15:04:51 | 53.99129 | 11.63353 | 85° | 93km/h | 1155m | -1.5m/s | 11.8°C | 75.5% | 878.2hPa | 2.8V | 07:20:32 | 02:45:49 | 00:00:00 | |
| DL1XH-15 | 2026-09-04 15:04:51 | 53.99126 | 11.63273 | 86° | 95km/h | 1158m | -1.8m/s | 11.8°C | 76.3% | 877.7hPa | 2.8V | 07:20:34 | 02:45:47 | 00:00:00 | |
| DL1XH-15 | 2026-09-04 15:04:51 | 53.99123 | 11.63191 | 85° | 95km/h | 1162m | -1.9m/s | 11.8°C | 75.5% | 877.4hPa | 2.8V | 07:20:36 | 02:45:45 | 00:00:00 | |
| AA1-15 | 2026-09-04 15:04:51 | 53.99131 | 11.63393 | 85° | 93km/h | 1153m | -2.1m/s | 11.8°C | 78.7% | 878.4hPa | 2.8V | 07:20:36 | 02:45:50 | 00:00:00 | |
| AA1-15 | 2026-09-04 15:04:49 | 53.99128 | 11.63313 | 86° | 93km/h | 1156m | -1.5m/s | 11.7°C | 79.3% | 877.9hPa | 2.8V | 07:20:36 | 02:45:48 | 00:00:00 | |
| AA1-15 | 2026-09-04 15:04:48 | 53.99126 | 11.63273 | 87° | 95km/h | 1158m | -1.8m/s | 11.8°C | 78.7% | 877.7hPa | 2.8V | 07:20:36 | 02:45:47 | 00:00:00 | |
| AA1-15 | 2026-09-04 15:04:47 | 53.99125 | 11.63232 | 86° | 95km/h | 1160m | -1.7m/s | 11.8°C | 78.2% | 877.5hPa | 2.8V | 07:20:36 | 02:45:46 | 00:00:00 | |
| AA1-15 | 2026-09-04 15:04:46 | 53.99123 | 11.63191 | 86° | 95km/h | 1162m | -1.9m/s | 11.8°C | 78% | 877.4hPa | 2.8V | 07:20:36 | 02:45:45 | 00:00:00 | |
| DO2SHX-10 | 2026-09-04 15:04:46 | 53.99123 | 11.63191 | 86° | 93km/h | 1162m | -1.9m/s | 11.7°C | 75.5% | 877.3hPa | 2.8V | 00:00:00 | 02:45:45 | 00:00:00 | |
| DL1XH-15 | 2026-09-04 15:04:45 | 53.99120 | 11.63111 | 86° | 93km/h | 1165m | -1.9m/s | 11.7°C | 76% | 877hPa | 2.8V | 07:20:38 | 02:45:43 | 00:00:00 | |
| DL1XH-15 | 2026-09-04 15:04:45 | 53.99113 | 11.62950 | 85° | 95km/h | 1173m | -2.6m/s | 11.8°C | 73.8% | 876.3hPa | 2.8V | 07:20:42 | 02:45:39 | 00:00:00 | |
| AA1-15 | 2026-09-04 15:04:44 | 53.99120 | 11.63111 | 86° | 93km/h | 1165m | -1.9m/s | 11.7°C | 78.1% | 877hPa | 2.8V | 07:21:27 | 02:45:43 | 00:00:00 | |
| AA1-15 | 2026-09-04 15:04:43 | 53.99118 | 11.63071 | 86° | 93km/h | 1167m | -2m/s | 11.7°C | 77.8% | 876.8hPa | 2.8V | 07:21:27 | 02:45:42 | 00:00:00 | |
| AA1-15 | 2026-09-04 15:04:41 | 53.99115 | 11.62991 | 86° | 95km/h | 1171m | -1.8m/s | 11.8°C | 77.2% | 876.5hPa | 2.8V | 07:21:27 | 02:45:40 | 00:00:00 | |
| DB0DAN | 2026-09-04 15:04:40 | 53.99113 | 11.62950 | 85° | 91km/h | 1173m | -2.6m/s | 11.8°C | 73.4% | 876.3hPa | 2.8V | 00:00:00 | 00:00:00 | 00:00:00 | |
| AA1-15 | 2026-09-04 15:04:40 | 53.99113 | 11.62950 | 85° | 95km/h | 1173m | -2.6m/s | 11.8°C | 76.1% | 876.3hPa | 2.8V | 07:21:27 | 02:45:39 | 00:00:00 | |
| DO2SHX-10 | 2026-09-04 15:04:40 | 53.99113 | 11.62950 | 86° | 93km/h | 1173m | -2.6m/s | 11.8°C | 73.8% | 876.3hPa | 2.8V | 00:00:00 | 02:45:39 | 00:00:00 | |
| DL1XH-15 | 2026-09-04 15:04:39 | 53.99109 | 11.62870 | 85° | 93km/h | 1177m | -1.8m/s | 11.8°C | 74% | 875.8hPa | 2.8V | 07:20:44 | 02:45:37 | 00:00:00 | |
| AA1-15 | 2026-09-04 15:04:38 | 53.99109 | 11.62870 | 85° | 93km/h | 1177m | -1.8m/s | 11.8°C | 76% | 875.8hPa | 2.8V | 07:21:27 | 02:45:37 | 00:00:00 | |
| AA1-15 | 2026-09-04 15:04:37 | 53.99107 | 11.62830 | 86° | 93km/h | 1179m | -1.6m/s | 11.8°C | 75.9% | 875.6hPa | 2.8V | 07:21:27 | 02:45:36 | 00:00:00 | |
| AA1-15 | 2026-09-04 15:04:35 | 53.99103 | 11.62749 | 85° | 95km/h | 1182m | -1.7m/s | 11.8°C | 75.5% | 875.2hPa | 2.8V | 07:21:27 | 02:45:34 | 00:00:00 | |
| AA1-15 | 2026-09-04 15:04:33 | 53.99099 | 11.62670 | 85° | 91km/h | 1186m | -1.7m/s | 11.8°C | 75.5% | 874.8hPa | 2.8V | 07:21:27 | 02:45:32 | 00:00:00 | |
| AA1-15 | 2026-09-04 15:04:31 | 53.99095 | 11.62592 | 86° | 91km/h | 1189m | -1.5m/s | 11.8°C | 75.2% | 874.3hPa | 2.8V | 07:21:27 | 02:45:30 | 00:00:00 | |
| AA1-15 | 2026-09-04 15:04:29 | 53.99091 | 11.62513 | 85° | 93km/h | 1192m | -2.1m/s | 11.8°C | 74.8% | 874.1hPa | 2.8V | 07:21:27 | 02:45:28 | 00:00:00 | |
| DO2SHX-10 | 2026-09-04 15:04:28 | 53.99089 | 11.62473 | 86° | 93km/h | 1195m | -1.8m/s | 11.7°C | 72.3% | 873.9hPa | 2.8V | 00:00:00 | 02:45:27 | 00:00:00 | |
| DL1XH-15 | 2026-09-04 15:04:27 | 53.99086 | 11.62395 | 87° | 93km/h | 1198m | -2.1m/s | 11.9°C | 69.5% | 873.4hPa | 2.8V | 07:20:56 | 02:45:25 | 00:00:00 | |
| DL1XH-15 | 2026-09-04 15:04:27 | 53.99084 | 11.62315 | 86° | 95km/h | 1202m | -2.2m/s | 12°C | 69.2% | 873.1hPa | 2.8V | 07:20:58 | 02:45:23 | 00:00:00 | |
| DL1XH-15 | 2026-09-04 15:04:27 | 53.99080 | 11.62234 | 85° | 93km/h | 1206m | -2m/s | 11.9°C | 69.4% | 872.7hPa | 2.8V | 07:21:00 | 02:45:21 | 00:00:00 | |
| AA1-15 | 2026-09-04 15:04:27 | 53.99087 | 11.62434 | 86° | 91km/h | 1196m | -1.8m/s | 11.9°C | 73.8% | 873.7hPa | 2.7V | 07:21:27 | 02:45:26 | 00:00:00 | |
| AA1-15 | 2026-09-04 15:04:26 | 53.99086 | 11.62395 | 87° | 93km/h | 1198m | -2.1m/s | 12°C | 73.1% | 873.4hPa | 2.8V | 07:21:27 | 02:45:25 | 00:00:00 | |
| DB0DAN | 2026-09-04 15:04:25 | 53.99085 | 11.62355 | 87° | 89km/h | 1200m | -1.8m/s | 12°C | 68.7% | 873.39hPa | 2.8V | 00:00:00 | 00:00:00 | 00:00:00 | |
| AA1-15 | 2026-09-04 15:04:25 | 53.99085 | 11.62355 | 87° | 93km/h | 1200m | -1.8m/s | 12°C | 72.7% | 873.4hPa | 2.8V | 07:21:27 | 02:45:24 | 00:00:00 | |
| AA1-15 | 2026-09-04 15:04:23 | 53.99082 | 11.62274 | 86° | 93km/h | 1204m | -1.6m/s | 12°C | 72.7% | 872.9hPa | 2.8V | 07:21:27 | 02:45:22 | 00:00:00 | |
| DO2SHX-10 | 2026-09-04 15:04:22 | 53.99080 | 11.62234 | 86° | 91km/h | 1206m | -2.0m/s | 11.9°C | 69.4% | 872.7hPa | 2.8V | 00:00:00 | 02:45:21 | 00:00:00 | |
| DL1XH-15 | 2026-09-04 15:04:21 | 53.99076 | 11.62156 | 85° | 91km/h | 1209m | -1.6m/s | 11.9°C | 69.3% | 872.3hPa | 2.8V | 07:21:02 | 02:45:19 | 00:00:00 | |
| DL1XH-15 | 2026-09-04 15:04:21 | 53.99072 | 11.62078 | 85° | 91km/h | 1213m | -1.8m/s | 11.9°C | 69.4% | 872hPa | 2.7V | 07:21:04 | 02:45:17 | 00:00:00 | |
| DL1XH-15 | 2026-09-04 15:04:21 | 53.99068 | 11.62000 | 84° | 89km/h | 1217m | -1.9m/s | 11.9°C | 69.4% | 871.5hPa | 2.8V | 07:21:06 | 02:45:15 | 00:00:00 | |
| AA1-15 | 2026-09-04 15:04:21 | 53.99078 | 11.62195 | 85° | 91km/h | 1208m | -1.8m/s | 11.9°C | 72.8% | 872.5hPa | 2.8V | 07:21:27 | 02:45:20 | 00:00:00 | |
| AA1-15 | 2026-09-04 15:04:20 | 53.99076 | 11.62156 | 85° | 91km/h | 1209m | -1.6m/s | 11.9°C | 72.6% | 872.3hPa | 2.8V | 07:21:27 | 02:45:19 | 00:00:00 | |
| AA1-15 | 2026-09-04 15:04:18 | 53.99072 | 11.62078 | 85° | 91km/h | 1213m | -1.8m/s | 11.9°C | 72.6% | 872hPa | 2.7V | 07:21:27 | 02:45:17 | 00:00:00 | |
| AA1-15 | 2026-09-04 15:04:17 | 53.99070 | 11.62039 | 84° | 91km/h | 1215m | -1.9m/s | 11.9°C | 72.4% | 871.7hPa | 2.8V | 07:21:27 | 02:45:16 | 00:00:00 | |
| AA1-15 | 2026-09-04 15:04:16 | 53.99068 | 11.62001 | 84° | 89km/h | 1217m | -1.9m/s | 11.9°C | 72.1% | 871.5hPa | 2.8V | 07:21:27 | 02:45:15 | 00:00:00 | |
| AA1-15 | 2026-09-04 15:04:14 | 53.99063 | 11.61925 | 85° | 89km/h | 1221m | -2.1m/s | 11.9°C | 71.8% | 871.1hPa | 2.8V | 07:21:27 | 02:45:13 | 00:00:00 | |
| AA1-15 | 2026-09-04 15:04:12 | 53.99060 | 11.61848 | 85° | 89km/h | 1224m | -1.5m/s | 11.8°C | 72% | 870.8hPa | 2.8V | 07:21:27 | 02:45:11 | 00:00:00 | |
| AA1-15 | 2026-09-04 15:04:11 | 53.99058 | 11.61809 | 85° | 91km/h | 1226m | -1.8m/s | 11.8°C | 72.4% | 870.6hPa | 2.8V | 07:21:27 | 02:45:10 | 00:00:00 | |
| DB0DAN | 2026-09-04 15:04:10 | 53.99055 | 11.61771 | 85° | 86km/h | 1228m | -2.2m/s | 11.8°C | 68.9% | 870.27hPa | 2.8V | 00:00:00 | 00:00:00 | 00:00:00 | |
| DO2SHX-10 | 2026-09-04 15:04:10 | 53.99055 | 11.61771 | 85° | 89km/h | 1228m | -2.2m/s | 11.8°C | 69.4% | 870.2hPa | 2.8V | 00:00:00 | 02:45:09 | 00:00:00 | |
| DL1XH-15 | 2026-09-04 15:04:09 | 53.99052 | 11.61694 | 86° | 89km/h | 1233m | -2.1m/s | 11.8°C | 69.5% | 869.9hPa | 2.8V | 07:21:14 | 02:45:07 | 00:00:00 | |
| DL1XH-15 | 2026-09-04 15:04:09 | 53.99049 | 11.61617 | 86° | 91km/h | 1238m | -2.3m/s | 11.8°C | 69.5% | 869.4hPa | 2.8V | 07:21:16 | 02:45:05 | 00:00:00 | |
| AA1-15 | 2026-09-04 15:04:09 | 53.99053 | 11.61732 | 85° | 89km/h | 1230m | -2.5m/s | 11.8°C | 72.6% | 870.2hPa | 2.7V | 07:21:27 | 02:45:08 | 00:00:00 | |
| AA1-15 | 2026-09-04 15:04:07 | 53.99050 | 11.61656 | 86° | 91km/h | 1235m | -2.7m/s | 11.8°C | 73.1% | 869.6hPa | 2.8V | 07:21:27 | 02:45:06 | 00:00:00 | |
| AA1-15 | 2026-09-04 15:04:05 | 53.99047 | 11.61578 | 86° | 91km/h | 1240m | -2.4m/s | 11.7°C | 73.3% | 869.1hPa | 2.8V | 07:21:27 | 02:45:04 | 00:00:00 | |
| AA1-15 | 2026-09-04 15:04:03 | 53.99044 | 11.61500 | 86° | 91km/h | 1245m | -2.6m/s | 11.7°C | 73.3% | 868.7hPa | 2.8V | 07:21:27 | 02:45:02 | 00:00:00 | |
| AA1-15 | 2026-09-04 15:04:01 | 53.99040 | 11.61422 | 84° | 91km/h | 1250m | -2.1m/s | 11.7°C | 72.7% | 868.2hPa | 2.8V | 07:21:27 | 02:45:00 | 00:00:00 | |
| AA1-15 | 2026-09-04 15:03:59 | 53.99035 | 11.61345 | 84° | 89km/h | 1254m | -2m/s | 11.7°C | 72.8% | 867.8hPa | 2.8V | 07:21:27 | 02:44:58 | 00:00:00 | |
| AA1-15 | 2026-09-04 15:03:58 | 53.99033 | 11.61306 | 84° | 89km/h | 1256m | -1.9m/s | 11.7°C | 72.8% | 867.4hPa | 2.8V | 07:21:27 | 02:44:57 | 00:00:00 | |
| AA1-15 | 2026-09-04 15:03:56 | 53.99029 | 11.61230 | 85° | 89km/h | 1260m | -2m/s | 11.6°C | 73.2% | 867hPa | 2.8V | 07:21:27 | 02:44:55 | 00:00:00 | |
| DB0DAN | 2026-09-04 15:03:55 | 53.99027 | 11.61192 | 85° | 86km/h | 1262m | -1.9m/s | 11.6°C | 69.5% | 866.9hPa | 2.8V | 00:00:00 | 00:00:00 | 00:00:00 | |
| AA1-15 | 2026-09-04 15:03:54 | 53.99025 | 11.61153 | 85° | 89km/h | 1264m | -2m/s | 11.6°C | 73.7% | 866.6hPa | 2.8V | 07:22:18 | 02:44:53 | 00:00:00 | |
| AA1-15 | 2026-09-04 15:03:53 | 53.99023 | 11.61115 | 85° | 88km/h | 1266m | -2.4m/s | 11.6°C | 73.3% | 866.4hPa | 2.8V | 07:22:18 | 02:44:52 | 00:00:00 | |
| AA1-15 | 2026-09-04 15:03:51 | 53.99019 | 11.61040 | 86° | 89km/h | 1271m | -2.2m/s | 11.6°C | 72.9% | 866hPa | 2.8V | 07:22:18 | 02:44:50 | 00:00:00 | |
| AA1-15 | 2026-09-04 15:03:49 | 53.99016 | 11.60964 | 85° | 89km/h | 1275m | -1.7m/s | 11.6°C | 72.9% | 865.5hPa | 2.8V | 07:22:18 | 02:44:48 | 00:00:00 | |
| AA1-15 | 2026-09-04 15:03:48 | 53.99013 | 11.60926 | 84° | 88km/h | 1276m | -1.8m/s | 11.6°C | 72.9% | 865.4hPa | 2.8V | 07:22:18 | 02:44:47 | 00:00:00 | |
| AA1-15 | 2026-09-04 15:03:46 | 53.99009 | 11.60851 | 84° | 88km/h | 1280m | -2.2m/s | 11.5°C | 73% | 865hPa | 2.8V | 07:22:18 | 02:44:45 | 00:00:00 | |
| DO2SHX-10 | 2026-09-04 15:03:46 | 53.99009 | 11.60851 | 85° | 89km/h | 1280m | -2.1m/s | 11.5°C | 69.1% | 865.0hPa | 2.8V | 07:21:00 | 02:44:45 | 00:00:00 | |
| DL1XH-15 | 2026-09-04 15:03:45 | 53.98999 | 11.60699 | 83° | 89km/h | 1288m | -2.3m/s | 11.4°C | 69.4% | 864.1hPa | 2.8V | 07:21:40 | 02:44:41 | 00:00:00 | |
| AA1-15 | 2026-09-04 15:03:44 | 53.99004 | 11.60775 | 83° | 89km/h | 1284m | -2m/s | 11.5°C | 72.9% | 864.6hPa | 2.8V | 07:22:18 | 02:44:43 | 00:00:00 | |
| AA1-15 | 2026-09-04 15:03:43 | 53.99002 | 11.60737 | 83° | 89km/h | 1286m | -1.8m/s | 11.5°C | 72.9% | 864.3hPa | 2.7V | 07:22:18 | 02:44:42 | 00:00:00 | |
| AA1-15 | 2026-09-04 15:03:42 | 53.98999 | 11.60699 | 84° | 89km/h | 1288m | -2.3m/s | 11.4°C | 72.5% | 864.1hPa | 2.8V | 07:22:18 | 02:44:41 | 00:00:00 | |
| DB0DAN | 2026-09-04 15:03:40 | 53.98994 | 11.60623 | 84° | 86km/h | 1292m | -2m/s | 11.4°C | 69.3% | 863.83hPa | 2.8V | 00:00:00 | 00:00:00 | 00:00:00 | |
| AA1-15 | 2026-09-04 15:03:40 | 53.98994 | 11.60623 | 84° | 89km/h | 1292m | -2m/s | 11.4°C | 72.4% | 863.8hPa | 2.8V | 07:22:18 | 02:44:39 | 00:00:00 | |
| AA1-15 | 2026-09-04 15:03:38 | 53.98990 | 11.60546 | 84° | 89km/h | 1296m | -1.8m/s | 11.4°C | 72.5% | 863.4hPa | 2.8V | 07:22:18 | 02:44:37 | 00:00:00 | |
| AA1-15 | 2026-09-04 15:03:36 | 53.98986 | 11.60471 | 86° | 88km/h | 1299m | -1.8m/s | 11.3°C | 73.3% | 863hPa | 2.8V | 07:22:18 | 02:44:35 | 00:00:00 | |
| AA1-15 | 2026-09-04 15:03:34 | 53.98983 | 11.60397 | 86° | 86km/h | 1303m | -2m/s | 11.3°C | 73.7% | 862.7hPa | 2.8V | 07:22:18 | 02:44:33 | 00:00:00 | |
| DO2SHX-10 | 2026-09-04 15:03:34 | 53.98983 | 11.60397 | 87° | 84km/h | 1303m | -2.0m/s | 11.2°C | 70.0% | 862.6hPa | 2.8V | 00:00:00 | 02:44:33 | 00:00:00 | |
| DL1XH-15 | 2026-09-04 15:03:33 | 53.98977 | 11.60252 | 85° | 84km/h | 1312m | -2.3m/s | 11.2°C | 70.1% | 861.7hPa | 2.8V | 07:21:52 | 02:44:29 | 00:00:00 | |
| AA1-15 | 2026-09-04 15:03:32 | 53.98980 | 11.60324 | 86° | 84km/h | 1307m | -2.9m/s | 11.3°C | 74.1% | 862.3hPa | 2.8V | 07:22:18 | 02:44:31 | 00:00:00 | |
| AA1-15 | 2026-09-04 15:03:30 | 53.98977 | 11.60252 | 85° | 84km/h | 1312m | -2.3m/s | 11.2°C | 73.6% | 861.7hPa | 2.8V | 07:22:18 | 02:44:29 | 00:00:00 | |
| AA1-15 | 2026-09-04 15:03:29 | 53.98975 | 11.60217 | 84° | 84km/h | 1314m | -2.3m/s | 11.2°C | 73.3% | 861.6hPa | 2.8V | 07:22:18 | 02:44:28 | 00:00:00 | |
| AA1-15 | 2026-09-04 15:03:28 | 53.98972 | 11.60180 | 83° | 86km/h | 1316m | -2.3m/s | 11.2°C | 73.1% | 861.4hPa | 2.8V | 07:22:18 | 02:44:27 | 00:00:00 | |
| DO2SHX-10 | 2026-09-04 15:03:28 | 53.98972 | 11.60180 | 83° | 88km/h | 1316m | -2.2m/s | 11.2°C | 70.0% | 861.3hPa | 2.8V | 00:00:00 | 02:44:27 | 00:00:00 | |
| DL1XH-15 | 2026-09-04 15:03:27 | 53.98957 | 11.59957 | 86° | 88km/h | 1327m | -2.2m/s | 11.1°C | 70.5% | 860hPa | 2.8V | 07:22:00 | 02:44:21 | 00:00:00 | |
| AA1-15 | 2026-09-04 15:03:27 | 53.98969 | 11.60144 | 82° | 86km/h | 1318m | -2m/s | 11.2°C | 72.9% | 861hPa | 2.8V | 07:22:18 | 02:44:26 | 00:00:00 | |
| DB0DAN | 2026-09-04 15:03:25 | 53.98964 | 11.60069 | 83° | 84km/h | 1322m | -1.5m/s | 11.2°C | 69.9% | 860.71hPa | 2.8V | 00:00:00 | 00:00:00 | 00:00:00 | |
| AA1-15 | 2026-09-04 15:03:25 | 53.98964 | 11.60069 | 83° | 88km/h | 1322m | -1.5m/s | 11.2°C | 73% | 860.7hPa | 2.8V | 07:22:18 | 02:44:24 | 00:00:00 | |
| AA1-15 | 2026-09-04 15:03:24 | 53.98961 | 11.60032 | 84° | 88km/h | 1323m | -1.6m/s | 11.1°C | 73.4% | 860.6hPa | 2.8V | 07:22:18 | 02:44:23 | 00:00:00 | |
| AA1-15 | 2026-09-04 15:03:22 | 53.98958 | 11.59957 | 86° | 88km/h | 1327m | -2.2m/s | 11.1°C | 74% | 860hPa | 2.8V | 07:22:18 | 02:44:21 | 00:00:00 | |
| DO2SHX-10 | 2026-09-04 15:03:22 | 53.98958 | 11.59957 | 87° | 88km/h | 1327m | -2.2m/s | 11.1°C | 70.5% | 860.0hPa | 2.7V | 00:00:00 | 02:44:21 | 00:00:00 | |
| DL1XH-15 | 2026-09-04 15:03:21 | 53.98955 | 11.59881 | 86° | 88km/h | 1333m | -2.2m/s | 11.1°C | 70.6% | 859.6hPa | 2.8V | 07:22:02 | 02:44:19 | 00:00:00 | |
| DL1XH-15 | 2026-09-04 15:03:21 | 53.98951 | 11.59806 | 85° | 88km/h | 1337m | -1.9m/s | 11°C | 70.7% | 859.2hPa | 2.7V | 07:22:04 | 02:44:17 | 00:00:00 | |
| AA1-15 | 2026-09-04 15:03:20 | 53.98955 | 11.59881 | 86° | 89km/h | 1333m | -2.2m/s | 11.1°C | 73.8% | 859.6hPa | 2.8V | 07:22:18 | 02:44:19 | 00:00:00 | |
| AA1-15 | 2026-09-04 15:03:18 | 53.98951 | 11.59806 | 85° | 88km/h | 1337m | -1.9m/s | 11°C | 74% | 859.2hPa | 2.7V | 07:22:18 | 02:44:17 | 00:00:00 | |
| AA1-15 | 2026-09-04 15:03:16 | 53.98947 | 11.59732 | 86° | 86km/h | 1342m | -2.3m/s | 11°C | 74.3% | 858.6hPa | 2.8V | 07:22:18 | 02:44:15 | 00:00:00 | |
| DO2SHX-10 | 2026-09-04 15:03:16 | 53.98947 | 11.59732 | 86° | 88km/h | 1342m | -2.3m/s | 11.0°C | 70.6% | 858.6hPa | 2.8V | 00:00:00 | 02:44:15 | 00:00:00 | |
| DL1XH-15 | 2026-09-04 15:03:15 | 53.98945 | 11.59658 | 86° | 86km/h | 1346m | -2.3m/s | 11°C | 70.9% | 858.2hPa | 2.8V | 07:22:08 | 02:44:13 | 00:00:00 | |
| AA1-15 | 2026-09-04 15:03:15 | 53.98946 | 11.59695 | 87° | 86km/h | 1344m | -2.5m/s | 11°C | 74.3% | 858.6hPa | 2.8V | 07:22:18 | 02:44:14 | 00:00:00 | |
| AA1-15 | 2026-09-04 15:03:13 | 53.98943 | 11.59621 | 87° | 88km/h | 1349m | -2.4m/s | 11°C | 74.4% | 858.1hPa | 2.8V | 07:22:18 | 02:44:12 | 00:00:00 | |
| AA1-15 | 2026-09-04 15:03:12 | 53.98942 | 11.59583 | 86° | 88km/h | 1351m | -2.1m/s | 10.9°C | 74.6% | 857.9hPa | 2.8V | 07:22:18 | 02:44:11 | 00:00:00 | |
| AA1-15 | 2026-09-04 15:03:11 | 53.98940 | 11.59546 | 85° | 88km/h | 1353m | -2.3m/s | 10.9°C | 74.8% | 857.4hPa | 2.8V | 07:22:18 | 02:44:10 | 00:00:00 | |
| DB0DAN | 2026-09-04 15:03:10 | 53.98939 | 11.59508 | 85° | 82km/h | 1356m | -2.2m/s | 10.9°C | 70.7% | 857.18hPa | 2.7V | 00:00:00 | 00:00:00 | 00:00:00 | |
| AA1-15 | 2026-09-04 15:03:10 | 53.98939 | 11.59508 | 85° | 86km/h | 1356m | -2.2m/s | 10.9°C | 75.1% | 857.2hPa | 2.7V | 07:22:18 | 02:44:09 | 00:00:00 | |
| DO2SHX-10 | 2026-09-04 15:03:10 | 53.98938 | 11.59508 | 86° | 86km/h | 1356m | -2.1m/s | 10.8°C | 71.3% | 857.1hPa | 2.8V | 00:00:00 | 02:44:09 | 00:00:00 | |
| DL1XH-15 | 2026-09-04 15:03:09 | 53.98935 | 11.59435 | 86° | 86km/h | 1361m | -2.6m/s | 10.8°C | 71.3% | 856.8hPa | 2.8V | 07:22:14 | 02:44:07 | 00:00:00 | |
| AA1-15 | 2026-09-04 15:03:08 | 53.98935 | 11.59435 | 86° | 86km/h | 1361m | -2.6m/s | 10.8°C | 75.5% | 856.8hPa | 2.8V | 07:22:18 | 02:44:07 | 00:00:00 | |
| AA1-15 | 2026-09-04 15:03:07 | 53.98934 | 11.59398 | 86° | 86km/h | 1363m | -2.7m/s | 10.8°C | 76.1% | 856.6hPa | 2.8V | 07:22:18 | 02:44:06 | 00:00:00 | |
| AA1-15 | 2026-09-04 15:03:05 | 53.98931 | 11.59324 | 86° | 86km/h | 1369m | -2.7m/s | 10.8°C | 76.3% | 856hPa | 2.8V | 07:22:18 | 02:44:04 | 00:00:00 | |
| DL1XH-15 | 2026-09-04 15:03:03 | 53.98921 | 11.59137 | 83° | 89km/h | 1382m | -2.9m/s | 10.7°C | 72.2% | 854.6hPa | 2.8V | 07:22:22 | 02:43:59 | 00:00:00 | |
| AA1-15 | 2026-09-04 15:03:03 | 53.98927 | 11.59251 | 86° | 86km/h | 1374m | -2.7m/s | 10.8°C | 75.9% | 855.4hPa | 2.8V | 07:23:09 | 02:44:02 | 00:00:00 | |
| AA1-15 | 2026-09-04 15:03:01 | 53.98923 | 11.59175 | 84° | 89km/h | 1380m | -2.7m/s | 10.7°C | 76.2% | 854.9hPa | 2.8V | 07:23:09 | 02:44:00 | 00:00:00 | |
| AA1-15 | 2026-09-04 15:03:00 | 53.98921 | 11.59137 | 84° | 89km/h | 1382m | -2.9m/s | 10.7°C | 76.3% | 854.6hPa | 2.8V | 07:23:09 | 02:43:59 | 00:00:00 | |
| AA1-15 | 2026-09-04 15:02:59 | 53.98918 | 11.59099 | 83° | 89km/h | 1385m | -2.6m/s | 10.7°C | 76.5% | 854.3hPa | 2.8V | 07:23:09 | 02:43:58 | 00:00:00 | |
| DO2SHX-10 | 2026-09-04 15:02:58 | 53.98916 | 11.59061 | 84° | 88km/h | 1387m | -1.6m/s | 10.6°C | 72.5% | 853.9hPa | 2.8V | 07:22:00 | 02:43:57 | 00:00:00 | |
| DL1XH-15 | 2026-09-04 15:02:57 | 53.98911 | 11.58986 | 85° | 88km/h | 1392m | -2.8m/s | 10.6°C | 72.4% | 853.3hPa | 2.8V | 07:22:26 | 02:43:55 | 00:00:00 | |
| DL1XH-15 | 2026-09-04 15:02:57 | 53.98908 | 11.58912 | 86° | 88km/h | 1398m | -1.9m/s | 10.6°C | 72.6% | 852.9hPa | 2.7V | 07:22:28 | 02:43:53 | 00:00:00 | |
| AA1-15 | 2026-09-04 15:02:57 | 53.98913 | 11.59024 | 84° | 88km/h | 1390m | -2.8m/s | 10.6°C | 76.4% | 853.8hPa | 2.8V | 07:23:09 | 02:43:56 | 00:00:00 | |
| AA1-15 | 2026-09-04 15:02:56 | 53.98911 | 11.58986 | 85° | 88km/h | 1392m | -2.8m/s | 10.6°C | 76.1% | 853.3hPa | 2.8V | 07:23:09 | 02:43:55 | 00:00:00 | |
| DB0DAN | 2026-09-04 15:02:55 | 53.98910 | 11.58949 | 86° | 84km/h | 1395m | -2.8m/s | 10.6°C | 71.9% | 853.21hPa | 2.8V | 00:00:00 | 00:00:00 | 00:00:00 | |
| AA1-15 | 2026-09-04 15:02:54 | 53.98908 | 11.58912 | 86° | 88km/h | 1398m | -1.9m/s | 10.6°C | 76.2% | 852.9hPa | 2.7V | 07:23:09 | 02:43:53 | 00:00:00 | |
| AA1-15 | 2026-09-04 15:02:53 | 53.98907 | 11.58874 | 86° | 88km/h | 1400m | -2.7m/s | 10.5°C | 76.4% | 852.7hPa | 2.8V | 07:23:09 | 02:43:52 | 00:00:00 | |
| DO2SHX-10 | 2026-09-04 15:02:52 | 53.98905 | 11.58836 | 86° | 88km/h | 1402m | -2.3m/s | 10.4°C | 73.1% | 852.4hPa | 2.8V | 00:00:00 | 02:43:51 | 00:00:00 | |
| DL1XH-15 | 2026-09-04 15:02:51 | 53.98892 | 11.58611 | 84° | 88km/h | 1417m | -2.4m/s | 10.3°C | 74% | 850.8hPa | 2.8V | 07:22:36 | 02:43:45 | 00:00:00 | |
| AA1-15 | 2026-09-04 15:02:51 | 53.98903 | 11.58798 | 85° | 89km/h | 1405m | -2.2m/s | 10.5°C | 77.3% | 852hPa | 2.8V | 07:23:09 | 02:43:50 | 00:00:00 | |
| AA1-15 | 2026-09-04 15:02:50 | 53.98901 | 11.58760 | 84° | 88km/h | 1407m | -2.8m/s | 10.4°C | 77.4% | 851.9hPa | 2.8V | 07:23:09 | 02:43:49 | 00:00:00 | |
| AA1-15 | 2026-09-04 15:02:48 | 53.98896 | 11.58685 | 84° | 86km/h | 1412m | -2.4m/s | 10.4°C | 77.3% | 851.2hPa | 2.8V | 07:23:09 | 02:43:47 | 00:00:00 | |
| AA1-15 | 2026-09-04 15:02:47 | 53.98894 | 11.58648 | 84° | 86km/h | 1414m | -2.3m/s | 10.4°C | 77.6% | 851.2hPa | 2.7V | 07:23:09 | 02:43:46 | 00:00:00 | |
| AA1-15 | 2026-09-04 15:02:46 | 53.98892 | 11.58611 | 84° | 88km/h | 1417m | -2.4m/s | 10.3°C | 77.4% | 850.8hPa | 2.8V | 07:23:09 | 02:43:45 | 00:00:00 | |
| AA1-15 | 2026-09-04 15:02:45 | 53.98890 | 11.58574 | 84° | 88km/h | 1419m | -2.6m/s | 10.3°C | 77.6% | 850.6hPa | 2.8V | 07:23:09 | 02:43:44 | 00:00:00 | |
| AA1-15 | 2026-09-04 15:02:43 | 53.98885 | 11.58500 | 84° | 86km/h | 1425m | -2.6m/s | 10.3°C | 77.5% | 850hPa | 2.8V | 07:23:09 | 02:43:42 | 00:00:00 | |
| AA1-15 | 2026-09-04 15:02:42 | 53.98882 | 11.58463 | 84° | 86km/h | 1428m | -3.2m/s | 10.2°C | 77.5% | 849.6hPa | 2.8V | 07:23:09 | 02:43:41 | 00:00:00 | |
| AA1-15 | 2026-09-04 15:02:41 | 53.98880 | 11.58426 | 85° | 88km/h | 1431m | -2.5m/s | 10.2°C | 77.7% | 849.5hPa | 2.8V | 07:23:09 | 02:43:40 | 00:00:00 | |
| DB0DAN | 2026-09-04 15:02:40 | 53.98878 | 11.58389 | 85° | 84km/h | 1433m | -2.5m/s | 10.2°C | 74% | 849.18hPa | 2.8V | 00:00:00 | 00:00:00 | 00:00:00 | |
| AA1-15 | 2026-09-04 15:02:39 | 53.98876 | 11.58351 | 85° | 88km/h | 1436m | -2.7m/s | 10.2°C | 78.2% | 848.9hPa | 2.7V | 07:23:09 | 02:43:38 | 00:00:00 | |
| AA1-15 | 2026-09-04 15:02:37 | 53.98871 | 11.58276 | 84° | 88km/h | 1441m | -2.6m/s | 10.1°C | 78% | 848.3hPa | 2.8V | 07:23:09 | 02:43:36 | 00:00:00 | |
| AA1-15 | 2026-09-04 15:02:36 | 53.98869 | 11.58239 | 84° | 86km/h | 1444m | -3m/s | 10.1°C | 78% | 848.1hPa | 2.8V | 07:23:09 | 02:43:35 | 00:00:00 | |
| AA1-15 | 2026-09-04 15:02:35 | 53.98867 | 11.58203 | 85° | 86km/h | 1447m | -2.6m/s | 10.1°C | 78.3% | 847.8hPa | 2.8V | 07:23:09 | 02:43:34 | 00:00:00 | |
| AA1-15 | 2026-09-04 15:02:34 | 53.98865 | 11.58166 | 85° | 86km/h | 1450m | -3m/s | 10.1°C | 78% | 847.6hPa | 2.8V | 07:23:09 | 02:43:33 | 00:00:00 | |
| DO2SHX-10 | 2026-09-04 15:02:34 | 53.98865 | 11.58166 | 86° | 86km/h | 1450m | -2.9m/s | 10.0°C | 74.8% | 847.5hPa | 2.8V | 00:00:00 | 02:43:33 | 00:00:00 | |
| DL1XH-15 | 2026-09-04 15:02:33 | 53.98854 | 11.57946 | 85° | 86km/h | 1465m | -2.8m/s | 9.9°C | 75.3% | 845.9hPa | 2.8V | 07:22:54 | 02:43:27 | 00:00:00 | |
| AA1-15 | 2026-09-04 15:02:32 | 53.98861 | 11.58092 | 85° | 86km/h | 1455m | -2.4m/s | 10°C | 77.9% | 846.9hPa | 2.8V | 07:23:09 | 02:43:31 | 00:00:00 | |
| AA1-15 | 2026-09-04 15:02:31 | 53.98859 | 11.58055 | 84° | 86km/h | 1457m | -2.6m/s | 10°C | 77.9% | 846.8hPa | 2.7V | 07:23:09 | 02:43:30 | 00:00:00 | |
| AA1-15 | 2026-09-04 15:02:29 | 53.98856 | 11.57983 | 85° | 84km/h | 1462m | -2.8m/s | 9.9°C | 77.7% | 846.1hPa | 2.8V | 07:23:09 | 02:43:28 | 00:00:00 | |
| AA1-15 | 2026-09-04 15:02:28 | 53.98854 | 11.57947 | 85° | 86km/h | 1465m | -2.8m/s | 9.9°C | 77.9% | 845.9hPa | 2.8V | 07:23:09 | 02:43:27 | 00:00:00 | |
| DO2SHX-10 | 2026-09-04 15:02:28 | 53.98854 | 11.57947 | 86° | 86km/h | 1465m | -2.8m/s | 9.9°C | 75.3% | 845.9hPa | 2.7V | 00:00:00 | 02:43:27 | 00:00:00 | |
| DL1XH-15 | 2026-09-04 15:02:27 | 53.98849 | 11.57873 | 83° | 86km/h | 1471m | -2.4m/s | 9.9°C | 75.5% | 845.2hPa | 2.8V | 07:22:56 | 02:43:25 | 00:00:00 | |
| DL1XH-15 | 2026-09-04 15:02:27 | 53.98845 | 11.57800 | 83° | 84km/h | 1476m | -2.9m/s | 9.8°C | 75.6% | 844.9hPa | 2.7V | 07:22:58 | 02:43:23 | 00:00:00 | |
| AA1-15 | 2026-09-04 15:02:26 | 53.98850 | 11.57873 | 84° | 86km/h | 1471m | -2.4m/s | 9.9°C | 77.9% | 845.3hPa | 2.8V | 07:23:09 | 02:43:25 | 00:00:00 | |
| DB0DAN | 2026-09-04 15:02:25 | 53.98847 | 11.57836 | 84° | 80km/h | 1473m | -2.6m/s | 9.8°C | 75.1% | 845.13hPa | 2.8V | 00:00:00 | 00:00:00 | 00:00:00 | |
| AA1-15 | 2026-09-04 15:02:24 | 53.98845 | 11.57800 | 84° | 84km/h | 1476m | -2.9m/s | 9.8°C | 78.3% | 844.9hPa | 2.7V | 07:23:09 | 02:43:23 | 00:00:00 | |
| AA1-15 | 2026-09-04 15:02:22 | 53.98840 | 11.57728 | 84° | 86km/h | 1482m | -3m/s | 9.8°C | 78.4% | 844.2hPa | 2.8V | 07:23:09 | 02:43:21 | 00:00:00 | |
| DO2SHX-10 | 2026-09-04 15:02:22 | 53.98840 | 11.57728 | 85° | 84km/h | 1482m | -2.9m/s | 9.7°C | 75.7% | 844.1hPa | 2.7V | 00:00:00 | 02:43:21 | 00:00:00 | |
| DL1XH-15 | 2026-09-04 15:02:21 | 53.98824 | 11.57513 | 82° | 84km/h | 1499m | -2.7m/s | 9.6°C | 76.5% | 842.5hPa | 2.7V | 07:23:06 | 02:43:15 | 00:00:00 | |
| AA1-15 | 2026-09-04 15:02:20 | 53.98835 | 11.57655 | 82° | 84km/h | 1488m | -2.4m/s | 9.7°C | 78.9% | 843.6hPa | 2.8V | 07:23:09 | 02:43:19 | 00:00:00 | |
| AA1-15 | 2026-09-04 15:02:18 | 53.98830 | 11.57584 | 83° | 84km/h | 1494m | -2.8m/s | 9.7°C | 79.5% | 843hPa | 2.8V | 07:23:09 | 02:43:17 | 00:00:00 | |
| AA1-15 | 2026-09-04 15:02:16 | 53.98824 | 11.57513 | 82° | 84km/h | 1499m | -2.7m/s | 9.6°C | 79.8% | 842.5hPa | 2.7V | 07:23:09 | 02:43:15 | 00:00:00 | |
| DO2SHX-10 | 2026-09-04 15:02:16 | 53.98824 | 11.57512 | 83° | 82km/h | 1499m | -2.7m/s | 9.6°C | 76.5% | 842.5hPa | 2.8V | 00:00:00 | 02:43:15 | 00:00:00 | |
| DL1XH-15 | 2026-09-04 15:02:15 | 53.98808 | 11.57301 | 81° | 82km/h | 1517m | -2.5m/s | 9.5°C | 76.6% | 840.7hPa | 2.8V | 07:23:12 | 02:43:09 | 00:00:00 | |
| AA1-15 | 2026-09-04 15:02:14 | 53.98819 | 11.57442 | 82° | 82km/h | 1505m | -3m/s | 9.6°C | 80.1% | 841.8hPa | 2.8V | 07:23:09 | 02:43:13 | 00:00:00 | |
| AA1-15 | 2026-09-04 15:02:13 | 53.98816 | 11.57407 | 83° | 82km/h | 1508m | -3.3m/s | 9.5°C | 80% | 841.6hPa | 2.8V | 07:23:09 | 02:43:12 | 00:00:00 | |
| AA1-15 | 2026-09-04 15:02:11 | 53.98811 | 11.57336 | 83° | 82km/h | 1514m | -3m/s | 9.5°C | 79.8% | 840.9hPa | 2.8V | 07:24:00 | 02:43:10 | 00:00:00 | |
| DB0DAN | 2026-09-04 15:02:10 | 53.98808 | 11.57301 | 81° | 78km/h | 1517m | -2.5m/s | 9.5°C | 75.9% | 840.67hPa | 2.8V | 00:00:00 | 00:00:00 | 00:00:00 | |
| AA1-15 | 2026-09-04 15:02:09 | 53.98805 | 11.57266 | 82° | 82km/h | 1520m | -2.8m/s | 9.5°C | 79.6% | 840.3hPa | 2.7V | 07:24:00 | 02:43:08 | 00:00:00 | |
| AA1-15 | 2026-09-04 15:02:07 | 53.98799 | 11.57196 | 82° | 82km/h | 1526m | -3.3m/s | 9.5°C | 79.1% | 839.8hPa | 2.8V | 07:24:00 | 02:43:06 | 00:00:00 | |
| AA1-15 | 2026-09-04 15:02:06 | 53.98796 | 11.57160 | 82° | 82km/h | 1529m | -3.1m/s | 9.5°C | 79.1% | 839.3hPa | 2.8V | 07:24:00 | 02:43:05 | 00:00:00 | |
| AA1-15 | 2026-09-04 15:02:04 | 53.98791 | 11.57091 | 83° | 80km/h | 1535m | -3.1m/s | 9.4°C | 79.2% | 838.9hPa | 2.8V | 07:24:00 | 02:43:03 | 00:00:00 | |
| DO2SHX-10 | 2026-09-04 15:02:04 | 53.98790 | 11.57091 | 83° | 80km/h | 1535m | -3.0m/s | 9.4°C | 76.1% | 838.8hPa | 2.8V | 00:00:00 | 02:43:03 | 00:00:00 | |
| DL1XH-15 | 2026-09-04 15:02:03 | 53.98780 | 11.56954 | 81° | 80km/h | 1547m | -3.1m/s | 9.4°C | 75.8% | 837.7hPa | 2.8V | 07:23:22 | 02:42:59 | 00:00:00 | |
| AA1-15 | 2026-09-04 15:02:02 | 53.98785 | 11.57022 | 82° | 80km/h | 1541m | -3.1m/s | 9.4°C | 79.3% | 838.3hPa | 2.8V | 07:24:00 | 02:43:01 | 00:00:00 | |
| AA1-15 | 2026-09-04 15:02:01 | 53.98783 | 11.56988 | 82° | 80km/h | 1544m | -3m/s | 9.4°C | 79.2% | 837.8hPa | 2.7V | 07:24:00 | 02:43:00 | 00:00:00 | |
| AA1-15 | 2026-09-04 15:01:59 | 53.98777 | 11.56920 | 82° | 80km/h | 1550m | -3.2m/s | 9.4°C | 79.1% | 837.4hPa | 2.8V | 07:24:00 | 02:42:58 | 00:00:00 | |
| DO2SHX-10 | 2026-09-04 15:01:58 | 53.98774 | 11.56886 | 82° | 78km/h | 1553m | -3.1m/s | 9.3°C | 75.5% | 837.0hPa | 2.8V | 00:00:00 | 02:42:57 | 00:00:00 | |
| AA1-15 | 2026-09-04 15:01:58 | 53.98774 | 11.56886 | 82° | 80km/h | 1553m | -3.1m/s | 9.4°C | 78.9% | 837hPa | 2.8V | 07:24:00 | 02:42:57 | 00:00:00 | |
| DL1XH-15 | 2026-09-04 15:01:57 | 53.98768 | 11.56819 | 81° | 78km/h | 1560m | -3.3m/s | 9.3°C | 75.8% | 836.3hPa | 2.8V | 07:23:26 | 02:42:55 | 00:00:00 | |
| AA1-15 | 2026-09-04 15:01:56 | 53.98768 | 11.56819 | 82° | 78km/h | 1560m | -3.3m/s | 9.3°C | 79% | 836.3hPa | 2.8V | 07:24:00 | 02:42:55 | 00:00:00 | |
| DB0DAN | 2026-09-04 15:01:55 | 53.98765 | 11.56785 | 82° | 75km/h | 1563m | -3.4m/s | 9.3°C | 75% | 836.1hPa | 2.8V | 00:00:00 | 00:00:00 | 00:00:00 | |
| AA1-15 | 2026-09-04 15:01:55 | 53.98765 | 11.56785 | 82° | 78km/h | 1563m | -3.4m/s | 9.3°C | 79% | 836.1hPa | 2.8V | 07:24:00 | 02:42:54 | 00:00:00 | |
| AA1-15 | 2026-09-04 15:01:53 | 53.98760 | 11.56718 | 82° | 78km/h | 1569m | -3.1m/s | 9.4°C | 78.4% | 835.4hPa | 2.8V | 07:24:00 | 02:42:52 | 00:00:00 | |
| AA1-15 | 2026-09-04 15:01:52 | 53.98757 | 11.56685 | 82° | 78km/h | 1572m | -3.3m/s | 9.3°C | 78.3% | 835.1hPa | 2.8V | 07:24:00 | 02:42:51 | 00:00:00 | |
| DO2SHX-10 | 2026-09-04 15:01:52 | 53.98757 | 11.56685 | 82° | 77km/h | 1573m | -3.3m/s | 9.3°C | 74.9% | 835.1hPa | 2.7V | 00:00:00 | 02:42:51 | 00:00:00 | |
| DL1XH-15 | 2026-09-04 15:01:51 | 53.98752 | 11.56619 | 83° | 77km/h | 1579m | -2.7m/s | 9.3°C | 74.8% | 834.5hPa | 2.8V | 07:23:32 | 02:42:49 | 00:00:00 | |
| DL1XH-15 | 2026-09-04 15:01:51 | 53.98747 | 11.56553 | 83° | 78km/h | 1584m | -3m/s | 9.2°C | 75% | 833.8hPa | 2.8V | 07:23:34 | 02:42:47 | 00:00:00 | |
| AA1-15 | 2026-09-04 15:01:50 | 53.98752 | 11.56619 | 83° | 77km/h | 1579m | -2.7m/s | 9.3°C | 78.4% | 834.5hPa | 2.8V | 07:24:00 | 02:42:49 | 00:00:00 | |
| AA1-15 | 2026-09-04 15:01:49 | 53.98750 | 11.56587 | 84° | 77km/h | 1582m | -2.9m/s | 9.3°C | 78.3% | 834.1hPa | 2.8V | 07:24:00 | 02:42:48 | 00:00:00 | |
| AA1-15 | 2026-09-04 15:01:48 | 53.98747 | 11.56553 | 84° | 78km/h | 1584m | -3m/s | 9.3°C | 78.5% | 833.9hPa | 2.8V | 07:24:00 | 02:42:47 | 00:00:00 | |
| AA1-15 | 2026-09-04 15:01:46 | 53.98743 | 11.56487 | 83° | 77km/h | 1590m | -3m/s | 9.2°C | 79% | 833.4hPa | 2.8V | 07:24:00 | 02:42:45 | 00:00:00 | |
| AA1-15 | 2026-09-04 15:01:45 | 53.98740 | 11.56454 | 83° | 77km/h | 1593m | -3.4m/s | 9.2°C | 79.1% | 833hPa | 2.8V | 07:24:00 | 02:42:44 | 00:00:00 | |
| AA1-15 | 2026-09-04 15:01:43 | 53.98736 | 11.56389 | 84° | 77km/h | 1600m | -3.1m/s | 9.1°C | 79.1% | 832.3hPa | 2.8V | 07:24:00 | 02:42:42 | 00:00:00 | |
| AA1-15 | 2026-09-04 15:01:42 | 53.98733 | 11.56356 | 83° | 78km/h | 1603m | -3.4m/s | 9.1°C | 79.1% | 832.1hPa | 2.8V | 07:24:00 | 02:42:41 | 00:00:00 | |
| AA1-15 | 2026-09-04 15:01:41 | 53.98731 | 11.56322 | 82° | 78km/h | 1607m | -3.4m/s | 9.1°C | 79.2% | 831.7hPa | 2.8V | 07:24:00 | 02:42:40 | 00:00:00 | |
| DO2SHX-10 | 2026-09-04 15:01:40 | 53.98728 | 11.56290 | 83° | 77km/h | 1610m | -3.0m/s | 9.0°C | 75.8% | 831.3hPa | 2.8V | 00:00:00 | 02:42:39 | 00:00:00 | |
| DL1XH-15 | 2026-09-04 15:01:39 | 53.98719 | 11.56158 | 82° | 78km/h | 1622m | -3.2m/s | 8.9°C | 76.1% | 830hPa | 2.8V | 07:23:46 | 02:42:35 | 00:00:00 | |
| DL1XH-15 | 2026-09-04 15:01:39 | 53.98713 | 11.56093 | 81° | 77km/h | 1629m | -2.9m/s | 8.9°C | 76.1% | 829.4hPa | 2.8V | 07:23:48 | 02:42:33 | 00:00:00 | |
| AA1-15 | 2026-09-04 15:01:39 | 53.98726 | 11.56257 | 83° | 77km/h | 1613m | -3m/s | 9°C | 79.1% | 831.1hPa | 2.8V | 07:24:00 | 02:42:38 | 00:00:00 | |
| AA1-15 | 2026-09-04 15:01:38 | 53.98723 | 11.56224 | 83° | 77km/h | 1616m | -2.8m/s | 9°C | 79.2% | 830.7hPa | 2.8V | 07:24:00 | 02:42:37 | 00:00:00 | |
| AA1-15 | 2026-09-04 15:01:36 | 53.98719 | 11.56158 | 83° | 78km/h | 1622m | -3.2m/s | 8.9°C | 79.3% | 830.1hPa | 2.8V | 07:24:00 | 02:42:35 | 00:00:00 | |
| AA1-15 | 2026-09-04 15:01:35 | 53.98716 | 11.56125 | 82° | 77km/h | 1625m | -3.3m/s | 8.9°C | 79.1% | 829.7hPa | 2.8V | 07:24:00 | 02:42:34 | 00:00:00 | |
| AA1-15 | 2026-09-04 15:01:33 | 53.98710 | 11.56060 | 83° | 77km/h | 1632m | -3.4m/s | 8.9°C | 79.4% | 829.1hPa | 2.7V | 07:24:00 | 02:42:32 | 00:00:00 | |
| AA1-15 | 2026-09-04 15:01:31 | 53.98705 | 11.55995 | 83° | 77km/h | 1638m | -3.2m/s | 8.8°C | 79.6% | 828.5hPa | 2.8V | 07:24:00 | 02:42:30 | 00:00:00 | |
| AA1-15 | 2026-09-04 15:01:30 | 53.98703 | 11.55962 | 82° | 77km/h | 1642m | -3.3m/s | 8.8°C | 79.7% | 828.1hPa | 2.8V | 07:24:00 | 02:42:29 | 00:00:00 | |
| AA1-15 | 2026-09-04 15:01:28 | 53.98698 | 11.55898 | 83° | 75km/h | 1649m | -3.3m/s | 8.8°C | 79.8% | 827.5hPa | 2.8V | 07:24:00 | 02:42:27 | 00:00:00 | |
| DO2SHX-10 | 2026-09-04 15:01:28 | 53.98697 | 11.55898 | 83° | 73km/h | 1649m | -3.3m/s | 8.7°C | 76.2% | 827.5hPa | 2.8V | 00:00:00 | 02:42:27 | 00:00:00 | |
| DL1XH-15 | 2026-09-04 15:01:27 | 53.98686 | 11.55709 | 85° | 73km/h | 1669m | -3.8m/s | 8.7°C | 76.7% | 825.4hPa | 2.8V | 07:24:00 | 02:42:21 | 00:00:00 | |
| AA1-15 | 2026-09-04 15:01:26 | 53.98693 | 11.55834 | 83° | 75km/h | 1655m | -3.6m/s | 8.8°C | 80.1% | 826.7hPa | 2.7V | 07:24:00 | 02:42:25 | 00:00:00 | |
| DB0DAN | 2026-09-04 15:01:25 | 53.98691 | 11.55803 | 83° | 69km/h | 1659m | -3.5m/s | 8.7°C | 75.6% | 826.49hPa | 2.8V | 00:00:00 | 00:00:00 | 00:00:00 | |
| AA1-15 | 2026-09-04 15:01:24 | 53.98689 | 11.55772 | 84° | 73km/h | 1662m | -3.5m/s | 8.7°C | 80.1% | 826.1hPa | 2.8V | 07:24:00 | 02:42:23 | 00:00:00 | |
| AA1-15 | 2026-09-04 15:01:22 | 53.98686 | 11.55709 | 85° | 73km/h | 1669m | -3.8m/s | 8.7°C | 80% | 825.4hPa | 2.8V | 07:24:00 | 02:42:21 | 00:00:00 | |
| DO2SHX-10 | 2026-09-04 15:01:22 | 53.98686 | 11.55709 | 86° | 75km/h | 1669m | -3.7m/s | 8.6°C | 76.7% | 825.3hPa | 2.8V | 07:24:00 | 02:42:21 | 00:00:00 | |
| DL1XH-15 | 2026-09-04 15:01:21 | 53.98682 | 11.55645 | 83° | 75km/h | 1677m | -3.5m/s | 8.6°C | 77% | 824.8hPa | 2.8V | 07:24:02 | 02:42:19 | 00:00:00 | |
| AA1-15 | 2026-09-04 15:01:21 | 53.98684 | 11.55677 | 84° | 75km/h | 1673m | -3.5m/s | 8.6°C | 80% | 825.1hPa | 2.8V | 07:24:51 | 02:42:20 | 00:00:00 | |
| AA1-15 | 2026-09-04 15:01:19 | 53.98679 | 11.55613 | 82° | 75km/h | 1680m | -3.3m/s | 8.6°C | 80% | 824.4hPa | 2.7V | 07:24:51 | 02:42:18 | 00:00:00 | |
| AA1-15 | 2026-09-04 15:01:17 | 53.98674 | 11.55550 | 82° | 73km/h | 1687m | -3.7m/s | 8.5°C | 80% | 823.7hPa | 2.8V | 07:24:51 | 02:42:16 | 00:00:00 | |
| AA1-15 | 2026-09-04 15:01:16 | 53.98671 | 11.55519 | 82° | 73km/h | 1690m | -3.5m/s | 8.5°C | 80% | 823.4hPa | 2.8V | 07:24:51 | 02:42:15 | 00:00:00 | |
| DO2SHX-10 | 2026-09-04 15:01:16 | 53.98671 | 11.55519 | 83° | 75km/h | 1690m | -3.4m/s | 8.4°C | 77.4% | 823.4hPa | 2.7V | 00:00:00 | 02:42:15 | 00:00:00 | |
| DL1XH-15 | 2026-09-04 15:01:15 | 53.98666 | 11.55456 | 81° | 75km/h | 1697m | -3.4m/s | 8.4°C | 77.4% | 822.7hPa | 2.8V | 07:24:08 | 02:42:13 | 00:00:00 | |
| DL1XH-15 | 2026-09-04 15:01:15 | 53.98660 | 11.55392 | 80° | 75km/h | 1704m | -3.4m/s | 8.4°C | 77.4% | 821.9hPa | 2.7V | 07:24:10 | 02:42:11 | 00:00:00 | |
| AA1-15 | 2026-09-04 15:01:15 | 53.98669 | 11.55487 | 82° | 75km/h | 1694m | -3.4m/s | 8.5°C | 79.7% | 823hPa | 2.8V | 07:24:51 | 02:42:14 | 00:00:00 | |
| AA1-15 | 2026-09-04 15:01:14 | 53.98666 | 11.55456 | 82° | 75km/h | 1697m | -3.4m/s | 8.5°C | 79.7% | 822.7hPa | 2.8V | 07:24:51 | 02:42:13 | 00:00:00 | |
| AA1-15 | 2026-09-04 15:01:12 | 53.98660 | 11.55392 | 81° | 75km/h | 1704m | -3.4m/s | 8.4°C | 79.4% | 821.9hPa | 2.7V | 07:24:51 | 02:42:11 | 00:00:00 | |
| DB0DAN | 2026-09-04 15:01:10 | 53.98655 | 11.55329 | 82° | 71km/h | 1711m | -3.4m/s | 8.4°C | 75.9% | 821.24hPa | 2.8V | 00:00:00 | 00:00:00 | 00:00:00 | |
| AA1-15 | 2026-09-04 15:01:10 | 53.98655 | 11.55329 | 83° | 73km/h | 1711m | -3.4m/s | 8.4°C | 79.2% | 821.2hPa | 2.8V | 07:24:51 | 02:42:09 | 00:00:00 | |
| DO2SHX-10 | 2026-09-04 15:01:10 | 53.98655 | 11.55329 | 83° | 75km/h | 1711m | -3.3m/s | 8.4°C | 76.8% | 821.2hPa | 2.8V | 00:00:00 | 02:42:09 | 00:00:00 | |
| DL1XH-15 | 2026-09-04 15:01:09 | 53.98644 | 11.55203 | 80° | 73km/h | 1725m | -3.5m/s | 8.3°C | 76.8% | 819.8hPa | 2.8V | 07:24:16 | 02:42:05 | 00:00:00 | |
| DL1XH-15 | 2026-09-04 15:01:09 | 53.98639 | 11.55140 | 81° | 75km/h | 1733m | -3.6m/s | 8.3°C | 76.3% | 819.1hPa | 2.8V | 07:24:18 | 02:42:03 | 00:00:00 | |
| AA1-15 | 2026-09-04 15:01:08 | 53.98650 | 11.55266 | 82° | 75km/h | 1718m | -3.7m/s | 8.4°C | 79% | 820.6hPa | 2.8V | 07:24:51 | 02:42:07 | 00:00:00 | |
| AA1-15 | 2026-09-04 15:01:07 | 53.98647 | 11.55234 | 81° | 75km/h | 1722m | -3.6m/s | 8.3°C | 79% | 820.1hPa | 2.8V | 07:24:51 | 02:42:06 | 00:00:00 | |
| AA1-15 | 2026-09-04 15:01:05 | 53.98641 | 11.55172 | 82° | 73km/h | 1729m | -4.2m/s | 8.3°C | 79.2% | 819.5hPa | 2.7V | 07:24:51 | 02:42:04 | 00:00:00 | |
| AA1-15 | 2026-09-04 15:01:03 | 53.98636 | 11.55109 | 82° | 75km/h | 1737m | -3.6m/s | 8.3°C | 78.8% | 818.7hPa | 2.8V | 07:24:51 | 02:42:02 | 00:00:00 | |
| AA1-15 | 2026-09-04 15:01:02 | 53.98633 | 11.55077 | 81° | 75km/h | 1741m | -3.9m/s | 8.3°C | 78.8% | 818.4hPa | 2.8V | 07:24:51 | 02:42:01 | 00:00:00 | |
| AA1-15 | 2026-09-04 15:01:00 | 53.98627 | 11.55015 | 80° | 71km/h | 1748m | -3.4m/s | 8.3°C | 78.6% | 817.6hPa | 2.8V | 07:24:51 | 02:41:59 | 00:00:00 | |
| AA1-15 | 2026-09-04 15:00:59 | 53.98623 | 11.54985 | 80° | 71km/h | 1752m | -3.6m/s | 8.3°C | 78.8% | 817.2hPa | 2.7V | 07:24:51 | 02:41:58 | 00:00:00 | |
| DO2SHX-10 | 2026-09-04 15:00:58 | 53.98620 | 11.54955 | 81° | 71km/h | 1755m | -3.9m/s | 8.2°C | 75.9% | 816.9hPa | 2.7V | 00:00:00 | 02:41:57 | 00:00:00 | |
| DL1XH-15 | 2026-09-04 15:00:57 | 53.98615 | 11.54894 | 80° | 71km/h | 1763m | -3.9m/s | 8.2°C | 75.9% | 816.1hPa | 2.8V | 07:24:26 | 02:41:55 | 00:00:00 | |
| AA1-15 | 2026-09-04 15:00:57 | 53.98618 | 11.54925 | 81° | 71km/h | 1759m | -3.8m/s | 8.2°C | 78.7% | 816.5hPa | 2.8V | 07:24:51 | 02:41:56 | 00:00:00 | |
| DB0DAN | 2026-09-04 15:00:55 | 53.98612 | 11.54864 | 80° | 68km/h | 1767m | -4m/s | 8.2°C | 74.7% | 815.87hPa | 2.8V | 00:00:00 | 00:00:00 | 00:00:00 | |
| AA1-15 | 2026-09-04 15:00:55 | 53.98612 | 11.54864 | 80° | 71km/h | 1767m | -4m/s | 8.2°C | 78.9% | 815.9hPa | 2.8V | 07:24:51 | 02:41:54 | 00:00:00 | |
| AA1-15 | 2026-09-04 15:00:54 | 53.98609 | 11.54834 | 80° | 71km/h | 1771m | -3.9m/s | 8.2°C | 79% | 815.4hPa | 2.8V | 07:24:51 | 02:41:53 | 00:00:00 | |
| AA1-15 | 2026-09-04 15:00:52 | 53.98603 | 11.54774 | 81° | 71km/h | 1779m | -3.8m/s | 8.2°C | 78.3% | 814.7hPa | 2.7V | 07:24:51 | 02:41:51 | 00:00:00 | |
| DO2SHX-10 | 2026-09-04 15:00:52 | 53.98603 | 11.54774 | 81° | 71km/h | 1779m | -3.8m/s | 8.1°C | 75.1% | 814.6hPa | 2.8V | 00:00:00 | 02:41:51 | 00:00:00 | |
| DL1XH-15 | 2026-09-04 15:00:51 | 53.98589 | 11.54652 | 78° | 71km/h | 1794m | -3.6m/s | 8.1°C | 75.1% | 813hPa | 2.8V | 07:24:34 | 02:41:47 | 00:00:00 | |
| DL1XH-15 | 2026-09-04 15:00:51 | 53.98582 | 11.54593 | 79° | 71km/h | 1802m | -3.6m/s | 8.1°C | 75.4% | 812.3hPa | 2.8V | 07:24:36 | 02:41:45 | 00:00:00 | |
| AA1-15 | 2026-09-04 15:00:51 | 53.98600 | 11.54743 | 80° | 73km/h | 1783m | -3.7m/s | 8.1°C | 78.5% | 814.2hPa | 2.8V | 07:24:51 | 02:41:50 | 00:00:00 | |
| AA1-15 | 2026-09-04 15:00:49 | 53.98593 | 11.54682 | 79° | 71km/h | 1790m | -4.1m/s | 8.1°C | 78.6% | 813.4hPa | 2.8V | 07:24:51 | 02:41:48 | 00:00:00 | |
| AA1-15 | 2026-09-04 15:00:47 | 53.98586 | 11.54622 | 79° | 71km/h | 1798m | -4.1m/s | 8.1°C | 78.7% | 812.8hPa | 2.8V | 07:24:51 | 02:41:46 | 00:00:00 | |
| AA1-15 | 2026-09-04 15:00:46 | 53.98582 | 11.54593 | 79° | 71km/h | 1802m | -3.6m/s | 8°C | 78.6% | 812.3hPa | 2.8V | 07:24:51 | 02:41:45 | 00:00:00 | |
| DO2SHX-10 | 2026-09-04 15:00:46 | 53.98582 | 11.54592 | 80° | 71km/h | 1802m | -3.6m/s | 8.0°C | 75.4% | 812.2hPa | 2.8V | 00:00:00 | 02:41:45 | 00:00:00 | |
| DL1XH-15 | 2026-09-04 15:00:45 | 53.98576 | 11.54533 | 79° | 69km/h | 1809m | -3.9m/s | 8°C | 74.8% | 811.6hPa | 2.8V | 07:24:38 | 02:41:43 | 00:00:00 | |
| AA1-15 | 2026-09-04 15:00:44 | 53.98576 | 11.54533 | 79° | 69km/h | 1809m | -3.9m/s | 8°C | 77.9% | 811.6hPa | 2.8V | 07:24:51 | 02:41:43 | 00:00:00 | |
| AA1-15 | 2026-09-04 15:00:42 | 53.98570 | 11.54474 | 82° | 69km/h | 1817m | -3.3m/s | 8.1°C | 77.2% | 810.8hPa | 2.8V | 07:24:51 | 02:41:41 | 00:00:00 | |
| AA1-15 | 2026-09-04 15:00:41 | 53.98568 | 11.54444 | 83° | 71km/h | 1821m | -4.2m/s | 8°C | 77.3% | 810.5hPa | 2.8V | 07:24:51 | 02:41:40 | 00:00:00 | |
| DB0DAN | 2026-09-04 15:00:40 | 53.98565 | 11.54414 | 82° | 68km/h | 1825m | -4m/s | 8°C | 73.3% | 810.12hPa | 2.8V | 00:00:00 | 00:00:00 | 00:00:00 | |
| DO2SHX-10 | 2026-09-04 15:00:40 | 53.98565 | 11.54414 | 82° | 71km/h | 1825m | -4.0m/s | 8.0°C | 74.2% | 810.1hPa | 2.7V | 00:00:00 | 02:41:39 | 00:00:00 | |
| DL1XH-15 | 2026-09-04 15:00:39 | 53.98560 | 11.54353 | 82° | 71km/h | 1832m | -3.8m/s | 7.9°C | 74.4% | 809.5hPa | 2.8V | 07:24:44 | 02:41:37 | 00:00:00 | |
| DL1XH-15 | 2026-09-04 15:00:39 | 53.98556 | 11.54292 | 82° | 73km/h | 1839m | -4.1m/s | 7.9°C | 74.6% | 808.6hPa | 2.8V | 07:24:46 | 02:41:35 | 00:00:00 | |
| AA1-15 | 2026-09-04 15:00:39 | 53.98563 | 11.54383 | 82° | 71km/h | 1828m | -3.4m/s | 8°C | 77.4% | 809.7hPa | 2.7V | 07:24:51 | 02:41:38 | 00:00:00 | |
| AA1-15 | 2026-09-04 15:00:38 | 53.98560 | 11.54353 | 82° | 71km/h | 1832m | -3.8m/s | 7.9°C | 77.4% | 809.5hPa | 2.8V | 07:24:51 | 02:41:37 | 00:00:00 | |
| AA1-15 | 2026-09-04 15:00:36 | 53.98556 | 11.54292 | 83° | 73km/h | 1840m | -4.1m/s | 7.9°C | 77.4% | 808.6hPa | 2.8V | 07:24:51 | 02:41:35 | 00:00:00 | |
| AA1-15 | 2026-09-04 15:00:35 | 53.98553 | 11.54261 | 81° | 73km/h | 1844m | -4.3m/s | 7.9°C | 77.6% | 808.2hPa | 2.8V | 07:24:51 | 02:41:34 | 00:00:00 | |
| AA1-15 | 2026-09-04 15:00:34 | 53.98550 | 11.54230 | 81° | 73km/h | 1848m | -3.7m/s | 7.9°C | 78.1% | 807.8hPa | 2.8V | 07:24:51 | 02:41:33 | 00:00:00 | |
| AA1-15 | 2026-09-04 15:00:33 | 53.98547 | 11.54200 | 80° | 71km/h | 1851m | -3.8m/s | 7.9°C | 78.2% | 807.3hPa | 2.8V | 07:24:51 | 02:41:32 | 00:00:00 | |
| AA1-15 | 2026-09-04 15:00:31 | 53.98541 | 11.54140 | 81° | 69km/h | 1859m | -3.9m/s | 7.9°C | 78.5% | 806.6hPa | 2.8V | 07:24:51 | 02:41:30 | 00:00:00 | |
| AA1-15 | 2026-09-04 15:00:29 | 53.98536 | 11.54081 | 82° | 71km/h | 1867m | -4.1m/s | 7.8°C | 78.9% | 806hPa | 2.8V | 07:25:42 | 02:41:28 | 00:00:00 | |
| AA1-15 | 2026-09-04 15:00:27 | 53.98531 | 11.54019 | 81° | 73km/h | 1875m | -3.7m/s | 7.8°C | 79.3% | 805.2hPa | 2.8V | 07:25:42 | 02:41:26 | 00:00:00 | |
| AA1-15 | 2026-09-04 15:00:26 | 53.98528 | 11.53989 | 81° | 71km/h | 1879m | -3.8m/s | 7.8°C | 79.3% | 804.7hPa | 2.8V | 07:25:42 | 02:41:25 | 00:00:00 | |
| DB0DAN | 2026-09-04 15:00:25 | 53.98525 | 11.53959 | 81° | 68km/h | 1883m | -4.1m/s | 7.8°C | 75.3% | 804.49hPa | 2.8V | 00:00:00 | 00:00:00 | 00:00:00 | |
| AA1-15 | 2026-09-04 15:00:24 | 53.98522 | 11.53929 | 82° | 71km/h | 1887m | -3.9m/s | 7.8°C | 79.4% | 804hPa | 2.8V | 07:25:42 | 02:41:23 | 00:00:00 | |
| AA1-15 | 2026-09-04 15:00:23 | 53.98520 | 11.53898 | 82° | 71km/h | 1891m | -4.2m/s | 7.7°C | 79.4% | 803.7hPa | 2.8V | 07:25:42 | 02:41:22 | 00:00:00 | |
| DO2SHX-10 | 2026-09-04 15:00:22 | 53.98517 | 11.53868 | 82° | 71km/h | 1895m | -3.9m/s | 7.7°C | 76.1% | 803.3hPa | 2.7V | 00:00:00 | 02:41:21 | 00:00:00 | |
| DL1XH-15 | 2026-09-04 15:00:21 | 53.98507 | 11.53747 | 82° | 71km/h | 1910m | -3.9m/s | 7.6°C | 76.1% | 801.8hPa | 2.8V | 07:25:04 | 02:41:17 | 00:00:00 | |
| DL1XH-15 | 2026-09-04 15:00:21 | 53.98496 | 11.53624 | 80° | 71km/h | 1926m | -4m/s | 7.5°C | 75.1% | 800.1hPa | 2.8V | 07:25:08 | 02:41:13 | 00:00:00 | |
| AA1-15 | 2026-09-04 15:00:21 | 53.98515 | 11.53837 | 81° | 71km/h | 1899m | -4.1m/s | 7.7°C | 79% | 802.9hPa | 2.7V | 07:25:42 | 02:41:20 | 00:00:00 | |
| AA1-15 | 2026-09-04 15:00:19 | 53.98510 | 11.53777 | 82° | 71km/h | 1907m | -3.8m/s | 7.6°C | 79.3% | 802.1hPa | 2.8V | 07:25:42 | 02:41:18 | 00:00:00 | |
| AA1-15 | 2026-09-04 15:00:18 | 53.98507 | 11.53747 | 82° | 71km/h | 1910m | -3.9m/s | 7.6°C | 79.3% | 801.8hPa | 2.8V | 07:25:42 | 02:41:17 | 00:00:00 | |
| AA1-15 | 2026-09-04 15:00:17 | 53.98502 | 11.53685 | 81° | 73km/h | 1918m | -3.6m/s | 7.6°C | 78.6% | 801hPa | 2.8V | 07:25:42 | 02:41:15 | 00:00:00 | |
| AA1-15 | 2026-09-04 15:00:16 | 53.98499 | 11.53655 | 80° | 71km/h | 1922m | -4m/s | 7.6°C | 78.6% | 800.6hPa | 2.8V | 07:25:42 | 02:41:14 | 00:00:00 | |
| DL1XH-15 | 2026-09-04 15:00:15 | 53.98487 | 11.53532 | 81° | 75km/h | 1938m | -4.3m/s | 7.5°C | 74.4% | 798.9hPa | 2.8V | 07:25:11 | 02:41:10 | 00:00:00 | |
| DL1XH-15 | 2026-09-04 15:00:15 | 53.98482 | 11.53469 | 81° | 73km/h | 1946m | -4m/s | 7.5°C | 74.5% | 798.2hPa | 2.7V | 07:25:13 | 02:41:08 | 00:00:00 | |
| AA1-15 | 2026-09-04 15:00:14 | 53.98496 | 11.53624 | 80° | 71km/h | 1926m | -4m/s | 7.5°C | 78.5% | 800.1hPa | 2.8V | 07:25:42 | 02:41:13 | 00:00:00 | |
| AA1-15 | 2026-09-04 15:00:12 | 53.98490 | 11.53563 | 82° | 73km/h | 1934m | -4m/s | 7.5°C | 78.3% | 799.4hPa | 2.8V | 07:25:42 | 02:41:11 | 00:00:00 | |
| DB0DAN | 2026-09-04 15:00:10 | 53.98485 | 11.53500 | 81° | 71km/h | 1942m | -4.1m/s | 7.5°C | 73.4% | 798.67hPa | 2.7V | 00:00:00 | 00:00:00 | 00:00:00 | |
| AA1-15 | 2026-09-04 15:00:10 | 53.98485 | 11.53500 | 82° | 75km/h | 1942m | -4.1m/s | 7.5°C | 78.3% | 798.7hPa | 2.7V | 07:25:42 | 02:41:09 | 00:00:00 | |
| DO2SHX-10 | 2026-09-04 15:00:10 | 53.98485 | 11.53500 | 82° | 75km/h | 1942m | -4.0m/s | 7.5°C | 74.4% | 798.6hPa | 2.8V | 00:00:00 | 02:41:09 | 00:00:00 | |
| DL1XH-15 | 2026-09-04 15:00:08 | 53.98477 | 11.53406 | 82° | 73km/h | 1955m | -4.5m/s | 7.4°C | 74.8% | 797.2hPa | 2.8V | 07:25:15 | 02:41:06 | 00:00:00 | |
| DL1XH-15 | 2026-09-04 15:00:08 | 53.98472 | 11.53342 | 81° | 75km/h | 1964m | -4.7m/s | 7.4°C | 75.3% | 796.6hPa | 2.8V | 07:25:17 | 02:41:04 | 00:00:00 | |
| DL1XH-15 | 2026-09-04 15:00:08 | 53.98466 | 11.53278 | 80° | 75km/h | 1972m | -4.3m/s | 7.3°C | 75.6% | 795.6hPa | 2.8V | 07:25:19 | 02:41:02 | 00:00:00 | |
| AA1-15 | 2026-09-04 15:00:08 | 53.98479 | 11.53437 | 82° | 73km/h | 1951m | -4.2m/s | 7.4°C | 78.7% | 797.7hPa | 2.8V | 07:25:42 | 02:41:07 | 00:00:00 | |
| AA1-15 | 2026-09-04 15:00:06 | 53.98474 | 11.53374 | 83° | 75km/h | 1959m | -4.5m/s | 7.4°C | 79.1% | 796.9hPa | 2.8V | 07:25:42 | 02:41:05 | 00:00:00 | |
| AA1-15 | 2026-09-04 15:00:04 | 53.98469 | 11.53310 | 81° | 75km/h | 1968m | -4m/s | 7.3°C | 79% | 796.1hPa | 2.8V | 07:25:42 | 02:41:03 | 00:00:00 | |
| AA1-15 | 2026-09-04 15:00:03 | 53.98466 | 11.53278 | 80° | 75km/h | 1972m | -4.3m/s | 7.3°C | 79.1% | 795.6hPa | 2.8V | 07:25:42 | 02:41:02 | 00:00:00 | |
| DL1XH-15 | 2026-09-04 15:00:02 | 53.98459 | 11.53215 | 79° | 75km/h | 1981m | -4.7m/s | 7.2°C | 75.9% | 794.8hPa | 2.8V | 07:25:21 | 02:41:00 | 00:00:00 | |
| DL1XH-15 | 2026-09-04 15:00:02 | 53.98452 | 11.53152 | 79° | 75km/h | 1989m | -3.9m/s | 7.2°C | 75.8% | 793.9hPa | 2.8V | 07:25:23 | 02:40:58 | 00:00:00 | |
| DL1XH-15 | 2026-09-04 15:00:02 | 53.98445 | 11.53089 | 79° | 73km/h | 1997m | -3.9m/s | 7.1°C | 76.1% | 793.3hPa | 2.8V | 07:25:25 | 02:40:56 | 00:00:00 | |
| AA1-15 | 2026-09-04 15:00:01 | 53.98459 | 11.53215 | 80° | 75km/h | 1981m | -4.7m/s | 7.2°C | 79.2% | 794.8hPa | 2.8V | 07:25:42 | 02:41:00 | 00:00:00 | |
| AA1-15 | 2026-09-04 14:59:59 | 53.98452 | 11.53152 | 79° | 75km/h | 1989m | -3.9m/s | 7.2°C | 78.8% | 794hPa | 2.8V | 07:25:42 | 02:40:58 | 00:00:00 | |
| AA1-15 | 2026-09-04 14:59:57 | 53.98445 | 11.53089 | 80° | 73km/h | 1997m | -3.9m/s | 7.1°C | 78.8% | 793.3hPa | 2.8V | 07:25:42 | 02:40:56 | 00:00:00 | |
| DB0DAN | 2026-09-04 14:59:55 | 53.98440 | 11.53028 | 82° | 69km/h | 2005m | -3.9m/s | 7°C | 75.2% | 792.55hPa | 2.8V | 00:00:00 | 00:00:00 | 00:00:00 | |
| DL1XH-15 | 2026-09-04 14:59:55 | 53.98440 | 11.53028 | 82° | 73km/h | 2005m | -3.9m/s | 7°C | 76.2% | 792.5hPa | 2.8V | 07:25:27 | 02:40:54 | 00:00:00 | |
| DL1XH-15 | 2026-09-04 14:59:55 | 53.98428 | 11.52872 | 83° | 73km/h | 2025m | -4.4m/s | 6.9°C | 75.4% | 790.5hPa | 2.7V | 07:25:32 | 02:40:49 | 00:00:00 | |
| AA1-15 | 2026-09-04 14:59:48 | 53.98424 | 11.52808 | 85° | 77km/h | 2033m | -3.7m/s | 6.9°C | 78.5% | 789.8hPa | 2.8V | 07:25:42 | 02:40:47 | 00:00:00 | |
| DL1XH-15 | 2026-09-04 14:59:45 | 53.98418 | 11.52708 | 82° | 78km/h | 2045m | -3.7m/s | 6.8°C | 75.7% | 788.5hPa | 2.8V | 07:25:37 | 02:40:44 | 00:00:00 | |
| DL1XH-15 | 2026-09-04 14:59:45 | 53.98406 | 11.52543 | 84° | 77km/h | 2064m | -4m/s | 6.8°C | 74% | 786.8hPa | 2.7V | 07:25:42 | 02:40:39 | 00:00:00 | |
| DO2SHX-10 | 2026-09-04 14:59:42 | 53.98410 | 11.52609 | 84° | 77km/h | 2056m | -3.7m/s | 6.8°C | 74.8% | 787.5hPa | 2.7V | 07:25:00 | 02:40:41 | 00:00:00 | |
| DB0DAN | 2026-09-04 14:59:40 | 53.98406 | 11.52543 | 85° | 73km/h | 2065m | -4m/s | 6.8°C | 73% | 786.8hPa | 2.7V | 00:00:00 | 00:00:00 | 00:00:00 | |
| DL1XH-15 | 2026-09-04 14:59:40 | 53.98396 | 11.52378 | 84° | 77km/h | 2084m | -3.7m/s | 6.6°C | 74.5% | 784.9hPa | 2.8V | 07:25:47 | 02:40:34 | 00:00:00 | |
| AA1-15 | 2026-09-04 14:59:38 | 53.98402 | 11.52477 | 84° | 78km/h | 2072m | -3.7m/s | 6.7°C | 75.9% | 786.1hPa | 2.8V | 07:26:33 | 02:40:37 | 00:00:00 | |
| DL1XH-15 | 2026-09-04 14:59:35 | 53.98388 | 11.52209 | 85° | 78km/h | 2103m | -4m/s | 6.6°C | 78.9% | 783.1hPa | 2.7V | 07:25:52 | 02:40:29 | 00:00:00 | |
| DL1XH-west | 2026-09-04 14:59:35 | 53.98396 | 11.52378 | 85° | 77km/h | 2084m | -3.7m/s | 6.6°C | 76.3% | 784.9hPa | 2.8V | 07:27:24 | 02:40:34 | 00:00:00 | |
| AA1-15 | 2026-09-04 14:59:27 | 53.98384 | 11.52108 | 86° | 80km/h | 2114m | -4.2m/s | 6.7°C | 74.6% | 782.1hPa | 2.8V | 07:26:33 | 02:40:26 | 00:00:00 | |
| DB0DAN | 2026-09-04 14:59:25 | 53.98382 | 11.52041 | 87° | 75km/h | 2123m | -4.5m/s | 6.7°C | 71.7% | 781.32hPa | 2.8V | 00:00:00 | 00:00:00 | 00:00:00 | |
| DL1XH-15 | 2026-09-04 14:59:25 | 53.98381 | 11.52041 | 86° | 78km/h | 2123m | -4.5m/s | 6.7°C | 72.7% | 781.3hPa | 2.8V | 07:25:57 | 02:40:24 | 00:00:00 | |
| DL1XH-west | 2026-09-04 14:59:25 | 53.98382 | 11.52041 | 87° | 78km/h | 2123m | -4.5m/s | 6.7°C | 75.6% | 781.3hPa | 2.8V | 07:27:24 | 02:40:24 | 00:00:00 | |
| AA1-15 | 2026-09-04 14:59:16 | 53.98374 | 11.51731 | 88° | 82km/h | 2157m | -4.2m/s | 6.7°C | 79% | 777.9hPa | 2.8V | 07:26:33 | 02:40:15 | 00:00:00 | |
| DL1XH-15 | 2026-09-04 14:59:15 | 53.98373 | 11.51695 | 87° | 82km/h | 2161m | -3.8m/s | 6.7°C | 75.9% | 777.6hPa | 2.8V | 07:26:07 | 02:40:14 | 00:00:00 | |
| DL1XH-15 | 2026-09-04 14:59:15 | 53.98370 | 11.51521 | 89° | 80km/h | 2181m | -3.8m/s | 6.6°C | 75.7% | 775.9hPa | 2.8V | 07:26:12 | 02:40:09 | 00:00:00 | |
| DL1XH-west | 2026-09-04 14:59:15 | 53.98373 | 11.51695 | 87° | 82km/h | 2161m | -3.8m/s | 6.7°C | 78.5% | 777.6hPa | 2.8V | 07:27:24 | 02:40:14 | 00:00:00 | |
| DL1XH1-15 | 2026-09-04 14:59:13 | 53.98371 | 11.51626 | 88° | 80km/h | 2168m | -4.2m/s | 6.7°C | 75.9% | 777hPa | 2.8V | 07:26:09 | 02:40:12 | 00:00:00 | |
| DL1XH1-15 | 2026-09-04 14:59:13 | 53.98370 | 11.51452 | 90° | 80km/h | 2188m | -3.7m/s | 6.7°C | 74.9% | 775.1hPa | 2.8V | 07:26:14 | 02:40:07 | 00:00:00 | |
| DO2SHX-10 | 2026-09-04 14:59:12 | 53.98370 | 11.51591 | 90° | 80km/h | 2173m | -3.9m/s | 6.6°C | 75.5% | 776.5hPa | 2.7V | 00:00:00 | 02:40:11 | 00:00:00 | |
| DB0DAN | 2026-09-04 14:59:10 | 53.98370 | 11.51521 | 89° | 77km/h | 2181m | -3.8m/s | 6.6°C | 74.6% | 775.86hPa | 2.8V | 00:00:00 | 00:00:00 | 00:00:00 | |
| DL1XH-15 | 2026-09-04 14:59:10 | 53.98372 | 11.51348 | 91° | 82km/h | 2199m | -3.6m/s | 6.6°C | 74.1% | 774.1hPa | 2.8V | 07:26:17 | 02:40:04 | 00:00:00 | |
| AA1-15 | 2026-09-04 14:59:06 | 53.98371 | 11.51383 | 92° | 80km/h | 2196m | -3.8m/s | 6.7°C | 77.1% | 774.3hPa | 2.7V | 07:26:33 | 02:40:05 | 00:00:00 | |
| DL1XH-15 | 2026-09-04 14:59:05 | 53.98373 | 11.51176 | 91° | 80km/h | 2218m | -3.8m/s | 6.5°C | 73.7% | 772.4hPa | 2.8V | 07:26:22 | 02:39:59 | 00:00:00 | |
| DL1XH-west | 2026-09-04 14:59:04 | 53.98372 | 11.51313 | 91° | 80km/h | 2203m | -3.8m/s | 6.6°C | 77% | 773.6hPa | 2.8V | 07:27:24 | 02:40:03 | 00:00:00 | |
| DL1XH1-15 | 2026-09-04 14:59:03 | 53.98372 | 11.51279 | 90° | 80km/h | 2206m | -3.6m/s | 6.6°C | 74.1% | 773.4hPa | 2.8V | 07:26:19 | 02:40:02 | 00:00:00 | |
| AA1-15 | 2026-09-04 14:58:56 | 53.98375 | 11.51035 | 91° | 82km/h | 2233m | -4.1m/s | 6.4°C | 77.4% | 771.1hPa | 2.7V | 07:26:33 | 02:39:55 | 00:00:00 | |
| DB0DAN | 2026-09-04 14:58:55 | 53.98375 | 11.51001 | 91° | 77km/h | 2236m | -3.4m/s | 6.4°C | 72.6% | 770.74hPa | 2.7V | 00:00:00 | 00:00:00 | 00:00:00 | |
| DL1XH-15 | 2026-09-04 14:58:55 | 53.98375 | 11.51000 | 91° | 80km/h | 2236m | -3.4m/s | 6.4°C | 73.7% | 770.7hPa | 2.7V | 07:26:27 | 02:39:54 | 00:00:00 | |
| DL1XH-15 | 2026-09-04 14:58:55 | 53.98376 | 11.50825 | 90° | 82km/h | 2255m | -3.5m/s | 6.3°C | 72.8% | 768.9hPa | 2.8V | 07:26:32 | 02:39:49 | 00:00:00 | |
| DL1XH-west | 2026-09-04 14:58:53 | 53.98376 | 11.50931 | 91° | 82km/h | 2244m | -3.7m/s | 6.4°C | 76.2% | 769.9hPa | 2.8V | 07:27:24 | 02:39:52 | 00:00:00 | |
| DO2SHX-10 | 2026-09-04 14:58:52 | 53.98376 | 11.50895 | 90° | 82km/h | 2248m | -3.5m/s | 6.4°C | 72.6% | 769.6hPa | 2.8V | 00:00:00 | 02:39:51 | 00:00:00 | |
| DL1XH-15 | 2026-09-04 14:58:50 | 53.98376 | 11.50645 | 89° | 84km/h | 2274m | -4.1m/s | 6.2°C | 72.5% | 767.1hPa | 2.8V | 07:26:37 | 02:39:44 | 00:00:00 | |
| AA1-15 | 2026-09-04 14:58:45 | 53.98376 | 11.50645 | 89° | 84km/h | 2274m | -4.1m/s | 6.3°C | 76% | 767.1hPa | 2.8V | 07:27:24 | 02:39:44 | 00:00:00 | |
| DL1XH-west | 2026-09-04 14:58:42 | 53.98375 | 11.50539 | 90° | 82km/h | 2285m | -3.8m/s | 6.2°C | 76.2% | 766.1hPa | 2.8V | 07:27:24 | 02:39:41 | 00:00:00 | |
| DO2SHX-10 | 2026-09-04 14:58:42 | 53.98375 | 11.50539 | 90° | 82km/h | 2285m | -3.7m/s | 6.1°C | 73.0% | 766.0hPa | 2.7V | 00:00:00 | 02:39:41 | 00:00:00 | |
| DB0DAN | 2026-09-04 14:58:40 | 53.98375 | 11.50469 | 89° | 78km/h | 2292m | -3.9m/s | 6.1°C | 72% | 765.51hPa | 2.8V | 00:00:00 | 00:00:00 | 00:00:00 | |
| DL1XH-15 | 2026-09-04 14:58:35 | 53.98377 | 11.50293 | 91° | 84km/h | 2310m | -3.5m/s | 6°C | 73.4% | 763.6hPa | 2.7V | 07:26:47 | 02:39:34 | 00:00:00 | |
| AA1-15 | 2026-09-04 14:58:35 | 53.98377 | 11.50293 | 92° | 84km/h | 2310m | -3.6m/s | 6°C | 75.7% | 763.6hPa | 2.7V | 07:27:24 | 02:39:34 | 00:00:00 | |
| DL1XH1-15 | 2026-09-04 14:58:31 | 53.98378 | 11.50149 | 90° | 84km/h | 2324m | -3.7m/s | 5.9°C | 73.4% | 762.4hPa | 2.8V | 07:26:51 | 02:39:30 | 00:00:00 | |
| DL1XH1-15 | 2026-09-04 14:58:31 | 53.98378 | 11.49964 | 89° | 86km/h | 2344m | -3.5m/s | 5.8°C | 72.5% | 760.6hPa | 2.8V | 07:26:56 | 02:39:25 | 00:00:00 | |
| DL1XH-west | 2026-09-04 14:58:31 | 53.98378 | 11.50149 | 91° | 86km/h | 2324m | -3.7m/s | 5.9°C | 76.6% | 762.4hPa | 2.8V | 07:27:24 | 02:39:30 | 00:00:00 | |
| D01LWL | 2026-09-04 14:58:31 | 53.98379 | 11.50112 | 90° | 86km/h | 2328m | -3.7m/s | 5.9°C | 71.8% | 762.1hPa | 2.7V | 00:00:00 | 00:00:00 | 00:00:00 | |
| DL1XH1-15 | 2026-09-04 14:58:26 | 53.98380 | 11.49779 | 90° | 86km/h | 2363m | -3.5m/s | 5.7°C | 73.1% | 759hPa | 2.7V | 07:27:01 | 02:39:20 | 00:00:00 | |
| DB0DAN | 2026-09-04 14:58:25 | 53.98378 | 11.49927 | 91° | 80km/h | 2348m | -3.9m/s | 5.8°C | 71.2% | 760.34hPa | 2.8V | 00:00:00 | 00:00:00 | 00:00:00 | |
| DL1XH-15 | 2026-09-04 14:58:25 | 53.98378 | 11.49927 | 90° | 86km/h | 2348m | -3.9m/s | 5.8°C | 72.3% | 760.3hPa | 2.8V | 07:26:57 | 02:39:24 | 00:00:00 | |
| DL1XH-15 | 2026-09-04 14:58:25 | 53.98380 | 11.49743 | 90° | 86km/h | 2366m | -3.4m/s | 5.7°C | 73.1% | 758.6hPa | 2.8V | 07:27:02 | 02:39:19 | 00:00:00 | |
| AA1-15 | 2026-09-04 14:58:24 | 53.98378 | 11.49890 | 91° | 86km/h | 2352m | -3.6m/s | 5.8°C | 76.3% | 760hPa | 2.8V | 07:27:24 | 02:39:23 | 00:00:00 | |
| DL1XH-west | 2026-09-04 14:58:21 | 53.98380 | 11.49779 | 91° | 86km/h | 2363m | -3.5m/s | 5.7°C | 76.3% | 759hPa | 2.7V | 07:27:24 | 02:39:20 | 00:00:00 | |
| DL1XH-15 | 2026-09-04 14:58:15 | 53.98381 | 11.49556 | 89° | 88km/h | 2384m | -3.7m/s | 5.6°C | 71.1% | 757hPa | 2.8V | 07:27:07 | 02:39:14 | 00:00:00 | |
| DL1XH-15 | 2026-09-04 14:58:15 | 53.98382 | 11.49373 | 90° | 86km/h | 2401m | -4.2m/s | 5.5°C | 70.6% | 755.3hPa | 2.8V | 07:27:12 | 02:39:09 | 00:00:00 | |
| AA1-15 | 2026-09-04 14:58:14 | 53.98381 | 11.49519 | 90° | 86km/h | 2387m | -3.2m/s | 5.6°C | 74.3% | 756.7hPa | 2.8V | 07:27:24 | 02:39:13 | 00:00:00 | |
| DL1XH-west | 2026-09-04 14:58:11 | 53.98382 | 11.49410 | 91° | 86km/h | 2397m | -3.4m/s | 5.6°C | 73.8% | 755.8hPa | 2.7V | 07:27:24 | 02:39:10 | 00:00:00 | |
| DB0DAN | 2026-09-04 14:58:10 | 53.98382 | 11.49373 | 90° | 82km/h | 2401m | -4.2m/s | 5.5°C | 69.5% | 755.26hPa | 2.8V | 00:00:00 | 00:00:00 | 00:00:00 | |
| DL1XH-15 | 2026-09-04 14:58:05 | 53.98384 | 11.49190 | 90° | 86km/h | 2420m | -3.7m/s | 5.3°C | 71.5% | 753.6hPa | 2.7V | 07:27:17 | 02:39:04 | 00:00:00 | |
| DL1XH-15 | 2026-09-04 14:58:05 | 53.98385 | 11.49007 | 90° | 86km/h | 2440m | -3.9m/s | 5.2°C | 72% | 751.8hPa | 2.8V | 07:27:22 | 02:38:59 | 00:00:00 | |
| AA1-15 | 2026-09-04 14:58:03 | 53.98384 | 11.49116 | 90° | 86km/h | 2428m | -4.2m/s | 5.3°C | 75.2% | 752.9hPa | 2.8V | 07:27:24 | 02:39:02 | 00:00:00 | |
| DL1XH-west | 2026-09-04 14:57:58 | 53.98385 | 11.48934 | 90° | 84km/h | 2448m | -3.9m/s | 5.1°C | 76.4% | 751hPa | 2.7V | 07:27:24 | 02:38:57 | 00:00:00 | |
| DB0DAN | 2026-09-04 14:57:55 | 53.98386 | 11.48827 | 90° | 78km/h | 2459m | -3.9m/s | 5.1°C | 70.1% | 749.94hPa | 2.8V | 00:00:00 | 00:00:00 | 00:00:00 | |
| DL1XH-15 | 2026-09-04 14:57:55 | 53.98386 | 11.48827 | 90° | 84km/h | 2459m | -3.9m/s | 5.1°C | 71.3% | 749.9hPa | 2.8V | 07:27:27 | 02:38:54 | 00:00:00 | |
| DL1XH-15 | 2026-09-04 14:57:55 | 53.98388 | 11.48649 | 91° | 84km/h | 2478m | -3.4m/s | 4.9°C | 71.9% | 748.4hPa | 2.7V | 07:27:32 | 02:38:49 | 00:00:00 | |
| AA1-15 | 2026-09-04 14:57:53 | 53.98386 | 11.48756 | 91° | 82km/h | 2467m | -3.6m/s | 5.1°C | 75.2% | 749.3hPa | 2.8V | 07:28:15 | 02:38:52 | 00:00:00 | |
| DO2SHX-10 | 2026-09-04 14:57:52 | 53.98387 | 11.48721 | 92° | 86km/h | 2471m | -3.7m/s | 5.0°C | 71.0% | 749.0hPa | 2.8V | 00:00:00 | 02:38:51 | 00:00:00 | |
| DL1XH-15 | 2026-09-04 14:57:50 | 53.98391 | 11.48465 | 91° | 88km/h | 2496m | -3.7m/s | 4.8°C | 71.6% | 746.7hPa | 2.8V | 07:27:37 | 02:38:44 | 00:00:00 | |
| DL1XH1-15 | 2026-09-04 14:57:47 | 53.98391 | 11.48355 | 89° | 84km/h | 2507m | -3.4m/s | 4.7°C | 72.5% | 745.7hPa | 2.8V | 07:27:40 | 02:38:41 | 00:00:00 | |
| DL1XH-west | 2026-09-04 14:57:47 | 53.98389 | 11.48539 | 91° | 86km/h | 2488m | -3.4m/s | 4.8°C | 75.4% | 747.2hPa | 2.7V | 07:28:15 | 02:38:46 | 00:00:00 | |
| AA1-15 | 2026-09-04 14:57:42 | 53.98391 | 11.48355 | 90° | 84km/h | 2507m | -3.4m/s | 4.7°C | 75.4% | 745.7hPa | 2.8V | 07:28:15 | 02:38:41 | 00:00:00 | |
| DO2SHX-10 | 2026-09-04 14:57:42 | 53.98391 | 11.48355 | 90° | 82km/h | 2507m | -3.4m/s | 4.6°C | 72.5% | 745.7hPa | 2.7V | 00:00:00 | 02:38:41 | 00:00:00 | |
| DB0DAN | 2026-09-04 14:57:40 | 53.98392 | 11.48284 | 91° | 77km/h | 2514m | -3.8m/s | 4.7°C | 70.7% | 744.97hPa | 2.7V | 00:00:00 | 00:00:00 | 00:00:00 | |
| DL1XH-15 | 2026-09-04 14:57:40 | 53.98391 | 11.48284 | 90° | 80km/h | 2514m | -3.8m/s | 4.7°C | 72% | 745hPa | 2.7V | 07:27:42 | 02:38:39 | 00:00:00 | |
| DL1XH-15 | 2026-09-04 14:57:40 | 53.98393 | 11.48110 | 90° | 82km/h | 2530m | -4m/s | 4.5°C | 72.6% | 743.4hPa | 2.8V | 07:27:47 | 02:38:34 | 00:00:00 | |
| DL1XH1-15 | 2026-09-04 14:57:37 | 53.98392 | 11.48180 | 90° | 82km/h | 2523m | -3.3m/s | 4.6°C | 72.4% | 744.1hPa | 2.7V | 07:27:45 | 02:38:36 | 00:00:00 | |
| DL1XH1-15 | 2026-09-04 14:57:37 | 53.98394 | 11.48002 | 90° | 86km/h | 2541m | -3.5m/s | 4.4°C | 72.9% | 742.4hPa | 2.7V | 07:27:50 | 02:38:31 | 00:00:00 | |
| DL1XH-west | 2026-09-04 14:57:36 | 53.98393 | 11.48145 | 90° | 80km/h | 2527m | -3.5m/s | 4.5°C | 75.8% | 743.7hPa | 2.7V | 07:28:15 | 02:38:35 | 00:00:00 | |
| DL1XH-15 | 2026-09-04 14:57:35 | 53.98394 | 11.47928 | 90° | 88km/h | 2548m | -3.7m/s | 4.4°C | 72.8% | 741.7hPa | 2.7V | 07:27:52 | 02:38:29 | 00:00:00 | |
| AA1-15 | 2026-09-04 14:57:31 | 53.98394 | 11.47965 | 91° | 86km/h | 2545m | -3.7m/s | 4.4°C | 76.1% | 742.1hPa | 2.7V | 07:28:15 | 02:38:30 | 00:00:00 | |
| DL1XH1-15 | 2026-09-04 14:57:27 | 53.98395 | 11.47815 | 90° | 86km/h | 2559m | -3.7m/s | 4.3°C | 73.1% | 740.8hPa | 2.7V | 07:27:55 | 02:38:26 | 00:00:00 | |
| DL1XH1-15 | 2026-09-04 14:57:27 | 53.98399 | 11.47637 | 92° | 82km/h | 2576m | -3.6m/s | 4.1°C | 73.8% | 739.2hPa | 2.7V | 07:28:00 | 02:38:21 | 00:00:00 | |
| DB0DAN | 2026-09-04 14:57:25 | 53.98396 | 11.47743 | 92° | 78km/h | 2566m | -3.5m/s | 4.2°C | 72% | 740.17hPa | 2.7V | 00:00:00 | 00:00:00 | 00:00:00 | |
| DL1XH-west | 2026-09-04 14:57:25 | 53.98396 | 11.47743 | 92° | 82km/h | 2566m | -3.5m/s | 4.2°C | 76.8% | 740.2hPa | 2.7V | 07:28:15 | 02:38:24 | 00:00:00 | |
| DL1XH1-15 | 2026-09-04 14:57:22 | 53.98402 | 11.47460 | 92° | 84km/h | 2594m | -3.6m/s | 4°C | 74% | 737.7hPa | 2.7V | 07:28:05 | 02:38:16 | 00:00:00 | |
| DO2SHX-10 | 2026-09-04 14:57:22 | 53.98399 | 11.47637 | 93° | 84km/h | 2576m | -3.6m/s | 4.1°C | 73.8% | 739.2hPa | 2.7V | 00:00:00 | 02:38:21 | 00:00:00 | |
| DL1XH-15 | 2026-09-04 14:57:20 | 53.98404 | 11.47387 | 91° | 86km/h | 2601m | -3.8m/s | 3.9°C | 74.3% | 737hPa | 2.7V | 07:28:07 | 02:38:14 | 00:00:00 | |
| AA1-15 | 2026-09-04 14:57:20 | 53.98400 | 11.47566 | 91° | 82km/h | 2583m | -3.5m/s | 4.1°C | 77.1% | 738.5hPa | 2.7V | 07:28:15 | 02:38:19 | 00:00:00 | |
| DL1XH1-15 | 2026-09-04 14:57:17 | 53.98405 | 11.47276 | 90° | 86km/h | 2612m | -3.5m/s | 3.8°C | 74.9% | 736.1hPa | 2.7V | 07:28:10 | 02:38:11 | 00:00:00 | |
| DL1XH-west | 2026-09-04 14:57:15 | 53.98403 | 11.47387 | 92° | 86km/h | 2601m | -3.8m/s | 3.9°C | 78% | 737hPa | 2.7V | 07:28:15 | 02:38:14 | 00:00:00 | |
| DL1XH1-15 | 2026-09-04 14:57:12 | 53.98409 | 11.47095 | 93° | 86km/h | 2628m | -3.1m/s | 3.6°C | 75.9% | 734.6hPa | 2.7V | 07:28:15 | 02:38:06 | 00:00:00 | |
| DO2SHX-10 | 2026-09-04 14:57:12 | 53.98405 | 11.47276 | 91° | 86km/h | 2612m | -3.5m/s | 3.8°C | 74.9% | 736.1hPa | 2.7V | 00:00:00 | 02:38:11 | 00:00:00 | |
| DB0DAN | 2026-09-04 14:57:10 | 53.98406 | 11.47203 | 92° | 80km/h | 2618m | -2.8m/s | 3.7°C | 74.1% | 735.52hPa | 2.7V | 00:00:00 | 00:00:00 | 00:00:00 | |
| AA1-15 | 2026-09-04 14:57:09 | 53.98407 | 11.47167 | 93° | 84km/h | 2622m | -3.4m/s | 3.7°C | 79.5% | 735.2hPa | 2.8V | 07:28:15 | 02:38:08 | 00:00:00 | |
| DL1XH-15 | 2026-09-04 14:57:05 | 53.98412 | 11.47021 | 92° | 86km/h | 2635m | -3.7m/s | 3.6°C | 76.1% | 734hPa | 2.7V | 07:28:17 | 02:38:04 | 00:00:00 | |
| DL1XH-15 | 2026-09-04 14:57:05 | 53.98416 | 11.46838 | 92° | 84km/h | 2650m | -2.7m/s | 3.4°C | 76.9% | 732.6hPa | 2.7V | 07:28:22 | 02:37:59 | 00:00:00 | |
| DL1XH-west | 2026-09-04 14:57:04 | 53.98413 | 11.46983 | 92° | 86km/h | 2638m | -2.9m/s | 3.5°C | 78.8% | 733.8hPa | 2.8V | 07:29:06 | 02:38:03 | 00:00:00 | |
| DL1XH1-15 | 2026-09-04 14:57:02 | 53.98414 | 11.46911 | 92° | 84km/h | 2644m | -2.6m/s | 3.5°C | 76.7% | 733.1hPa | 2.7V | 07:28:20 | 02:38:01 | 00:00:00 | |
| DL1XH1-15 | 2026-09-04 14:57:02 | 53.98418 | 11.46731 | 91° | 82km/h | 2658m | -2.7m/s | 3.3°C | 77.3% | 731.8hPa | 2.7V | 07:28:25 | 02:37:56 | 00:00:00 | |
| AA1-15 | 2026-09-04 14:56:58 | 53.98417 | 11.46766 | 91° | 84km/h | 2655m | -2.9m/s | 3.4°C | 79.7% | 732hPa | 2.7V | 07:29:06 | 02:37:57 | 00:00:00 | |
| D01LWL | 2026-09-04 14:56:58 | 53.98418 | 11.46731 | 91° | 82km/h | 2658m | -2.7m/s | 3.3°C | 75.7% | 731.8hPa | 2.7V | 00:00:00 | 00:00:00 | 00:00:00 | |
| DB0DAN | 2026-09-04 14:56:55 | 53.98420 | 11.46660 | 93° | 80km/h | 2664m | -2.9m/s | 3.3°C | 75.9% | 731.17hPa | 2.7V | 00:00:00 | 00:00:00 | 00:00:00 | |
| DL1XH-15 | 2026-09-04 14:56:55 | 53.98420 | 11.46660 | 92° | 84km/h | 2664m | -2.9m/s | 3.3°C | 77.5% | 731.2hPa | 2.7V | 07:28:27 | 02:37:54 | 00:00:00 | |
| DL1XH-15 | 2026-09-04 14:56:55 | 53.98423 | 11.46478 | 92° | 84km/h | 2679m | -3.1m/s | 3.2°C | 77.8% | 729.8hPa | 2.7V | 07:28:32 | 02:37:49 | 00:00:00 | |
| DL1XH-west | 2026-09-04 14:56:54 | 53.98421 | 11.46623 | 92° | 86km/h | 2667m | -3.1m/s | 3.3°C | 80.3% | 731hPa | 2.7V | 07:29:06 | 02:37:53 | 00:00:00 | |
| DL1XH1-15 | 2026-09-04 14:56:52 | 53.98422 | 11.46550 | 90° | 86km/h | 2673m | -3.4m/s | 3.2°C | 77.4% | 730.3hPa | 2.7V | 07:28:30 | 02:37:51 | 00:00:00 | |
| DL1XH1-15 | 2026-09-04 14:56:52 | 53.98426 | 11.46370 | 92° | 84km/h | 2689m | -2.6m/s | 3.1°C | 78.2% | 729hPa | 2.7V | 07:28:35 | 02:37:46 | 00:00:00 | |
| AA1-15 | 2026-09-04 14:56:48 | 53.98425 | 11.46406 | 93° | 84km/h | 2686m | -3.3m/s | 3.1°C | 80.8% | 729.3hPa | 2.7V | 07:29:06 | 02:37:47 | 00:00:00 | |
| DL1XH-15 | 2026-09-04 14:56:45 | 53.98427 | 11.46297 | 91° | 84km/h | 2694m | -2.7m/s | 3°C | 78.4% | 728.5hPa | 2.7V | 07:28:37 | 02:37:44 | 00:00:00 | |
| DL1XH-15 | 2026-09-04 14:56:45 | 53.98431 | 11.46117 | 91° | 84km/h | 2709m | -2.9m/s | 2.9°C | 78.9% | 727.2hPa | 2.7V | 07:28:42 | 02:37:39 | 00:00:00 | |
| DL1XH-west | 2026-09-04 14:56:43 | 53.98429 | 11.46226 | 93° | 84km/h | 2700m | -3m/s | 3°C | 80.7% | 727.9hPa | 2.7V | 07:29:06 | 02:37:42 | 00:00:00 | |
| DL1XH1-15 | 2026-09-04 14:56:41 | 53.98430 | 11.46154 | 92° | 84km/h | 2706m | -3.1m/s | 2.9°C | 78.8% | 727.4hPa | 2.7V | 07:28:41 | 02:37:40 | 00:00:00 | |
| DL1XH1-15 | 2026-09-04 14:56:41 | 53.98435 | 11.45973 | 92° | 86km/h | 2721m | -3.3m/s | 2.8°C | 79.8% | 726.1hPa | 2.7V | 07:28:46 | 02:37:35 | 00:00:00 | |
| DB0DAN | 2026-09-04 14:56:40 | 53.98431 | 11.46117 | 92° | 80km/h | 2709m | -2.9m/s | 2.9°C | 77.3% | 727.23hPa | 2.7V | 00:00:00 | 00:00:00 | 00:00:00 | |
| DL1XH-15 | 2026-09-04 14:56:40 | 53.98436 | 11.45936 | 91° | 86km/h | 2724m | -2.8m/s | 2.7°C | 79.8% | 725.8hPa | 2.7V | 07:28:47 | 02:37:34 | 00:00:00 | |
| AA1-15 | 2026-09-04 14:56:37 | 53.98434 | 11.46010 | 93° | 84km/h | 2718m | -3m/s | 2.8°C | 81.8% | 726.4hPa | 2.7V | 07:29:06 | 02:37:36 | 00:00:00 | |
| DL1XH-west | 2026-09-04 14:56:32 | 53.98437 | 11.45828 | 92° | 82km/h | 2732m | -3.1m/s | 2.7°C | 82% | 725hPa | 2.7V | 07:29:06 | 02:37:31 | 00:00:00 | |
| DL1XH1-15 | 2026-09-04 14:56:31 | 53.98438 | 11.45792 | 92° | 84km/h | 2735m | -2.6m/s | 2.6°C | 80% | 724.7hPa | 2.7V | 07:28:51 | 02:37:30 | 00:00:00 | |
| DL1XH1-15 | 2026-09-04 14:56:31 | 53.98441 | 11.45615 | 93° | 82km/h | 2749m | -2.8m/s | 2.5°C | 80.1% | 723.5hPa | 2.7V | 07:28:56 | 02:37:25 | 00:00:00 | |
| DL1XH-15 | 2026-09-04 14:56:30 | 53.98439 | 11.45756 | 92° | 84km/h | 2738m | -2.6m/s | 2.6°C | 80% | 724.6hPa | 2.7V | 07:28:52 | 02:37:29 | 00:00:00 | |
| DL1XH-15 | 2026-09-04 14:56:30 | 53.98442 | 11.45579 | 93° | 82km/h | 2751m | -2.4m/s | 2.5°C | 79.9% | 723.3hPa | 2.7V | 07:28:57 | 02:37:24 | 00:00:00 | |
| DL1XH1-15 | 2026-09-04 14:56:26 | 53.98447 | 11.45437 | 93° | 82km/h | 2762m | -2.4m/s | 2.4°C | 80.1% | 722.3hPa | 2.7V | 07:29:01 | 02:37:20 | 00:00:00 | |
| AA1-15 | 2026-09-04 14:56:26 | 53.98441 | 11.45615 | 93° | 82km/h | 2749m | -2.8m/s | 2.5°C | 82.7% | 723.5hPa | 2.7V | 07:29:06 | 02:37:25 | 00:00:00 | |
| DB0DAN | 2026-09-04 14:56:25 | 53.98443 | 11.45579 | 93° | 78km/h | 2752m | -2.4m/s | 2.5°C | 78.2% | 723.29hPa | 2.7V | 00:00:00 | 00:00:00 | 00:00:00 | |
| DL1XH-15 | 2026-09-04 14:56:25 | 53.98447 | 11.45401 | 92° | 84km/h | 2765m | -2.8m/s | 2.4°C | 80.2% | 722hPa | 2.7V | 07:29:02 | 02:37:19 | 00:00:00 | |
| DL1XH-west | 2026-09-04 14:56:22 | 53.98445 | 11.45472 | 93° | 82km/h | 2760m | -2.8m/s | 2.5°C | 82.2% | 722.7hPa | 2.7V | 07:29:06 | 02:37:21 | 00:00:00 | |
| DO2SHX-10 | 2026-09-04 14:56:22 | 53.98445 | 11.45472 | 93° | 84km/h | 2760m | -2.7m/s | 2.4°C | 79.8% | 722.6hPa | 2.7V | 00:00:00 | 02:37:21 | 00:00:00 | |
| DL1XH1-15 | 2026-09-04 14:56:21 | 53.98450 | 11.45256 | 92° | 84km/h | 2776m | -2.4m/s | 2.3°C | 80.4% | 721.1hPa | 2.7V | 07:29:06 | 02:37:15 | 00:00:00 | |
| DL1XH-15 | 2026-09-04 14:56:20 | 53.98450 | 11.45220 | 92° | 86km/h | 2778m | -2.6m/s | 2.3°C | 80.5% | 720.8hPa | 2.7V | 07:29:07 | 02:37:14 | 00:00:00 | |
| AA1-15 | 2026-09-04 14:56:16 | 53.98450 | 11.45256 | 92° | 84km/h | 2776m | -2.4m/s | 2.3°C | 82.7% | 721.1hPa | 2.7V | 07:29:06 | 02:37:15 | 00:00:00 | |
| DL1XH-west | 2026-09-04 14:56:12 | 53.98453 | 11.45110 | 92° | 86km/h | 2786m | -2.7m/s | 2.3°C | 82.4% | 720.2hPa | 2.7V | 07:29:57 | 02:37:11 | 00:00:00 | |
| DO2SHX-10 | 2026-09-04 14:56:12 | 53.98453 | 11.45110 | 92° | 86km/h | 2786m | -2.7m/s | 2.3°C | 79.9% | 720.2hPa | 2.7V | 00:00:00 | 02:37:11 | 00:00:00 | |
| DL1XH1-15 | 2026-09-04 14:56:11 | 53.98457 | 11.44888 | 91° | 86km/h | 2801m | -2.4m/s | 2.2°C | 80.6% | 718.9hPa | 2.7V | 07:29:16 | 02:37:05 | 00:00:00 | |
| DB0DAN | 2026-09-04 14:56:10 | 53.98455 | 11.45036 | 93° | 82km/h | 2792m | -2.7m/s | 2.3°C | 78.2% | 719.72hPa | 2.7V | 00:00:00 | 00:00:00 | 00:00:00 | |
| DL1XH-15 | 2026-09-04 14:56:10 | 53.98455 | 11.45036 | 92° | 86km/h | 2792m | -2.7m/s | 2.3°C | 79.9% | 719.7hPa | 2.7V | 07:29:12 | 02:37:09 | 00:00:00 | |
| DL1XH-15 | 2026-09-04 14:56:10 | 53.98458 | 11.44850 | 91° | 88km/h | 2804m | -2.7m/s | 2.1°C | 80.7% | 718.7hPa | 2.7V | 07:29:17 | 02:37:04 | 00:00:00 | |
| AA1-15 | 2026-09-04 14:56:06 | 53.98457 | 11.44888 | 92° | 86km/h | 2801m | -2.4m/s | 2.2°C | 82.4% | 718.9hPa | 2.7V | 07:29:57 | 02:37:05 | 00:00:00 | |
| DL1XH-west | 2026-09-04 14:56:02 | 53.98460 | 11.44740 | 92° | 84km/h | 2812m | -2.9m/s | 2.1°C | 83.2% | 717.9hPa | 2.7V | 07:29:57 | 02:37:01 | 00:00:00 | |
| DL1XH1-15 | 2026-09-04 14:56:01 | 53.98460 | 11.44704 | 92° | 84km/h | 2815m | -2.9m/s | 2°C | 81.7% | 717.6hPa | 2.7V | 07:29:21 | 02:37:00 | 00:00:00 | |
| DL1XH1-15 | 2026-09-04 14:56:01 | 53.98466 | 11.44523 | 92° | 86km/h | 2829m | -2.8m/s | 1.9°C | 82.4% | 716.4hPa | 2.7V | 07:29:26 | 02:36:55 | 00:00:00 | |
| DB0DAN | 2026-09-04 14:55:55 | 53.98467 | 11.44486 | 92° | 82km/h | 2832m | -2.8m/s | 1.8°C | 80.6% | 716.12hPa | 2.7V | 00:00:00 | 00:00:00 | 00:00:00 | |
| DL1XH-15 | 2026-09-04 14:55:55 | 53.98467 | 11.44486 | 92° | 86km/h | 2832m | -2.8m/s | 1.9°C | 82.4% | 716.1hPa | 2.7V | 07:29:27 | 02:36:54 | 00:00:00 | |
| DL1XH-15 | 2026-09-04 14:55:55 | 53.98472 | 11.44306 | 92° | 86km/h | 2845m | -2.8m/s | 1.8°C | 81.7% | 714.9hPa | 2.7V | 07:29:32 | 02:36:49 | 00:00:00 | |
| AA1-15 | 2026-09-04 14:55:55 | 53.98467 | 11.44486 | 92° | 86km/h | 2832m | -2.8m/s | 1.8°C | 83.9% | 716.1hPa | 2.7V | 07:29:57 | 02:36:54 | 00:00:00 | |
| DL1XH1-15 | 2026-09-04 14:55:51 | 53.98471 | 11.44342 | 93° | 84km/h | 2842m | -2.6m/s | 1.8°C | 81.7% | 715.1hPa | 2.7V | 07:29:31 | 02:36:50 | 00:00:00 | |
| DL1XH-west | 2026-09-04 14:55:51 | 53.98471 | 11.44342 | 93° | 84km/h | 2842m | -2.6m/s | 1.8°C | 83.5% | 715.1hPa | 2.7V | 07:29:57 | 02:36:50 | 00:00:00 | |
| DL1XH-15 | 2026-09-04 14:55:50 | 53.98476 | 11.44124 | 92° | 84km/h | 2858m | -2.4m/s | 1.7°C | 82.5% | 713.8hPa | 2.7V | 07:29:37 | 02:36:44 | 00:00:00 | |
| DK1YY | 2026-09-04 14:55:49 | 53.98473 | 11.44233 | 91° | 84km/h | 2850m | -2.7m/s | 1.8°C | 79.9% | 714.6hPa | 2.7V | 00:00:00 | 00:00:00 | 00:00:00 | |
| DL1XH1-15 | 2026-09-04 14:55:46 | 53.98479 | 11.43983 | 93° | 80km/h | 2868m | -2.7m/s | 1.6°C | 82.5% | 712.9hPa | 2.7V | 07:29:41 | 02:36:40 | 00:00:00 | |
| AA1-15 | 2026-09-04 14:55:44 | 53.98477 | 11.44088 | 92° | 84km/h | 2861m | -2.6m/s | 1.7°C | 84% | 713.6hPa | 2.7V | 07:29:57 | 02:36:43 | 00:00:00 | |
| DO2SHX-10 | 2026-09-04 14:55:42 | 53.98479 | 11.44017 | 93° | 84km/h | 2865m | -2.4m/s | 1.6°C | 82.6% | 713.0hPa | 2.7V | 07:29:00 | 02:36:41 | 00:00:00 | |
| DL1XH1-15 | 2026-09-04 14:55:41 | 53.98486 | 11.43805 | 92° | 82km/h | 2880m | -2m/s | 1.5°C | 83.6% | 711.8hPa | 2.7V | 07:29:46 | 02:36:35 | 00:00:00 | |
| DL1XH-west | 2026-09-04 14:55:41 | 53.98480 | 11.43983 | 93° | 80km/h | 2868m | -2.7m/s | 1.6°C | 84.9% | 712.9hPa | 2.7V | 07:29:57 | 02:36:40 | 00:00:00 | |
| DB0DAN | 2026-09-04 14:55:40 | 53.98481 | 11.43948 | 94° | 78km/h | 2870m | -2.4m/s | 1.6°C | 80.8% | 712.61hPa | 2.7V | 00:00:00 | 00:00:00 | 00:00:00 | |
| DL1XH-15 | 2026-09-04 14:55:40 | 53.98481 | 11.43948 | 94° | 82km/h | 2870m | -2.4m/s | 1.6°C | 82.7% | 712.6hPa | 2.7V | 07:29:42 | 02:36:39 | 00:00:00 | |
| DL1XH1-15 | 2026-09-04 14:55:36 | 53.98488 | 11.43623 | 89° | 84km/h | 2891m | -2.2m/s | 1.4°C | 83.1% | 710.8hPa | 2.7V | 07:29:51 | 02:36:30 | 00:00:00 | |
| DL1XH-15 | 2026-09-04 14:55:35 | 53.98489 | 11.43587 | 91° | 82km/h | 2894m | -2.7m/s | 1.4°C | 83% | 710.6hPa | 2.7V | 07:29:52 | 02:36:29 | 00:00:00 | |
| AA1-15 | 2026-09-04 14:55:33 | 53.98488 | 11.43696 | 91° | 86km/h | 2886m | -2.4m/s | 1.4°C | 85.1% | 711.2hPa | 2.7V | 07:29:57 | 02:36:32 | 00:00:00 | |
| DO2SHX-10 | 2026-09-04 14:55:32 | 53.98488 | 11.43659 | 90° | 84km/h | 2889m | -2.7m/s | 1.4°C | 83.5% | 711.0hPa | 2.7V | 00:00:00 | 02:36:31 | 00:00:00 | |
| DL1XH1-15 | 2026-09-04 14:55:31 | 53.98492 | 11.43444 | 93° | 84km/h | 2902m | -2.5m/s | 1.4°C | 82.6% | 709.8hPa | 2.7V | 07:29:56 | 02:36:25 | 00:00:00 | |
| DL1XH-west | 2026-09-04 14:55:30 | 53.98489 | 11.43587 | 91° | 84km/h | 2894m | -2.7m/s | 1.4°C | 84.5% | 710.7hPa | 2.7V | 07:29:57 | 02:36:29 | 00:00:00 | |
| DB0DAN | 2026-09-04 14:55:25 | 53.98494 | 11.43409 | 93° | 78km/h | 2905m | -2.5m/s | 1.3°C | 81% | 709.55hPa | 2.7V | 00:00:00 | 00:00:00 | 00:00:00 | |
| DL1XH-15 | 2026-09-04 14:55:25 | 53.98499 | 11.43231 | 92° | 80km/h | 2916m | -2.2m/s | 1.2°C | 83.4% | 708.6hPa | 2.7V | 07:30:02 | 02:36:19 | 00:00:00 | |
| AA1-15 | 2026-09-04 14:55:22 | 53.98497 | 11.43302 | 93° | 84km/h | 2911m | -2.5m/s | 1.3°C | 84.5% | 709hPa | 2.7V | 07:30:48 | 02:36:21 | 00:00:00 | |
| DL1XH1-15 | 2026-09-04 14:55:21 | 53.98499 | 11.43267 | 92° | 82km/h | 2913m | -2.4m/s | 1.3°C | 83% | 708.7hPa | 2.7V | 07:30:01 | 02:36:20 | 00:00:00 | |
| DL1XH1-15 | 2026-09-04 14:55:21 | 53.98503 | 11.43094 | 92° | 80km/h | 2924m | -1.9m/s | 1.2°C | 83.3% | 707.8hPa | 2.7V | 07:30:06 | 02:36:15 | 00:00:00 | |
| DL1XH-west | 2026-09-04 14:55:19 | 53.98500 | 11.43197 | 93° | 80km/h | 2918m | -2.3m/s | 1.2°C | 84.6% | 708.4hPa | 2.7V | 07:30:48 | 02:36:18 | 00:00:00 | |
| DL1XH-15 | 2026-09-04 14:55:15 | 53.98504 | 11.43060 | 92° | 80km/h | 2926m | -1.9m/s | 1.2°C | 83.4% | 707.5hPa | 2.7V | 07:30:07 | 02:36:14 | 00:00:00 | |
| DL1XH-15 | 2026-09-04 14:55:15 | 53.98511 | 11.42888 | 93° | 80km/h | 2936m | -2.1m/s | 1.1°C | 83.1% | 706.7hPa | 2.6V | 07:30:12 | 02:36:09 | 00:00:00 | |
| AA1-15 | 2026-09-04 14:55:12 | 53.98508 | 11.42957 | 95° | 80km/h | 2932m | -2m/s | 1.1°C | 84.3% | 707.2hPa | 2.7V | 07:30:48 | 02:36:11 | 00:00:00 | |
| DL1XH1-15 | 2026-09-04 14:55:11 | 53.98510 | 11.42923 | 94° | 80km/h | 2934m | -2.2m/s | 1.1°C | 83.3% | 707hPa | 2.7V | 07:30:11 | 02:36:10 | 00:00:00 | |
| DB0DAN | 2026-09-04 14:55:10 | 53.98511 | 11.42888 | 94° | 77km/h | 2936m | -2.1m/s | 1.1°C | 81.2% | 706.74hPa | 2.6V | 00:00:00 | 00:00:00 | 00:00:00 | |
| DL1XH-15 | 2026-09-04 14:55:10 | 53.98520 | 11.42719 | 96° | 78km/h | 2946m | -1.8m/s | 1.1°C | 82.9% | 705.8hPa | 2.7V | 07:30:17 | 02:36:04 | 00:00:00 | |
| DL1XH-west | 2026-09-04 14:55:09 | 53.98512 | 11.42854 | 94° | 80km/h | 2938m | -2.3m/s | 1.1°C | 84% | 706.6hPa | 2.7V | 07:30:48 | 02:36:08 | 00:00:00 | |
| DL1XH1-15 | 2026-09-04 14:55:06 | 53.98526 | 11.42587 | 93° | 77km/h | 2954m | -2.6m/s | 1°C | 83.4% | 705hPa | 2.6V | 07:30:21 | 02:36:00 | 00:00:00 | |
| AA1-15 | 2026-09-04 14:55:01 | 53.98526 | 11.42587 | 94° | 77km/h | 2954m | -2.6m/s | 1°C | 84.3% | 705hPa | 2.6V | 07:30:48 | 02:36:00 | 00:00:00 | |
| DL1XH-15 | 2026-09-04 14:55:00 | 53.98528 | 11.42554 | 92° | 77km/h | 2957m | -2.8m/s | 1°C | 83.4% | 704.9hPa | 2.7V | 07:30:22 | 02:35:59 | 00:00:00 | |
| DL1XH-15 | 2026-09-04 14:55:00 | 53.98532 | 11.42391 | 94° | 77km/h | 2970m | -2.8m/s | 1°C | 82.8% | 703.6hPa | 2.6V | 07:30:27 | 02:35:54 | 00:00:00 | |
| DL1XH-west | 2026-09-04 14:54:58 | 53.98529 | 11.42488 | 91° | 77km/h | 2962m | -2.7m/s | 1°C | 83.5% | 704.3hPa | 2.7V | 07:30:48 | 02:35:57 | 00:00:00 | |
| DL1XH1-15 | 2026-09-04 14:54:56 | 53.98539 | 11.42262 | 96° | 73km/h | 2980m | -2.9m/s | 1°C | 82.6% | 702.8hPa | 2.7V | 07:30:31 | 02:35:50 | 00:00:00 | |
| DB0DAN | 2026-09-04 14:54:55 | 53.98532 | 11.42391 | 94° | 73km/h | 2970m | -2.8m/s | 1°C | 80.8% | 703.63hPa | 2.6V | 00:00:00 | 00:00:00 | 00:00:00 | |
| D01LWL | 2026-09-04 14:54:53 | 53.98535 | 11.42326 | 94° | 75km/h | 2975m | -2.8m/s | 1.0°C | 80.5% | 703.2hPa | 2.7V | 00:00:00 | 00:00:00 | 00:00:00 | |
| DO2SHX-10 | 2026-09-04 14:54:52 | 53.98537 | 11.42293 | 96° | 73km/h | 2978m | -2.5m/s | 0.9°C | 82.7% | 702.9hPa | 2.7V | 00:00:00 | 02:35:51 | 00:00:00 | |
| DL1XH1-15 | 2026-09-04 14:54:51 | 53.98548 | 11.42106 | 94° | 71km/h | 2994m | -3.4m/s | 1°C | 80.5% | 701.6hPa | 2.7V | 07:30:36 | 02:35:45 | 00:00:00 | |
| DL1XH-15 | 2026-09-04 14:54:50 | 53.98541 | 11.42231 | 96° | 73km/h | 2983m | -2.8m/s | 1.1°C | 80.7% | 702.4hPa | 2.7V | 07:30:32 | 02:35:49 | 00:00:00 | |
| AA1-15 | 2026-09-04 14:54:50 | 53.98541 | 11.42231 | 97° | 73km/h | 2983m | -2.8m/s | 1.1°C | 82.4% | 702.4hPa | 2.7V | 07:30:48 | 02:35:49 | 00:00:00 | |
| DL1XH-west | 2026-09-04 14:54:47 | 53.98547 | 11.42137 | 95° | 73km/h | 2991m | -3.1m/s | 0.9°C | 83.4% | 701.8hPa | 2.7V | 07:30:48 | 02:35:46 | 00:00:00 | |
| DK1YY | 2026-09-04 14:54:46 | 53.98548 | 11.42106 | 94° | 71km/h | 2994m | -3.4m/s | 1.0°C | 78.5% | 701.6hPa | 2.7V | 00:00:00 | 00:00:00 | 00:00:00 | |
| DL1XH1-15 | 2026-09-04 14:54:41 | 53.98557 | 11.41954 | 98° | 73km/h | 3008m | -3m/s | 0.9°C | 80.7% | 700.3hPa | 2.7V | 07:30:41 | 02:35:40 | 00:00:00 | |
| DL1XH1-15 | 2026-09-04 14:54:41 | 53.98569 | 11.41798 | 96° | 73km/h | 3023m | -3.7m/s | 0.8°C | 80.1% | 699hPa | 2.7V | 07:30:46 | 02:35:35 | 00:00:00 | |
| DB0DAN | 2026-09-04 14:54:40 | 53.98560 | 11.41923 | 98° | 71km/h | 3011m | -2.9m/s | 0.9°C | 79.1% | 700.08hPa | 2.7V | 00:00:00 | 00:00:00 | 00:00:00 | |
| DL1XH-15 | 2026-09-04 14:54:40 | 53.98560 | 11.41923 | 98° | 75km/h | 3011m | -2.9m/s | 0.9°C | 81.1% | 700.1hPa | 2.7V | 07:30:42 | 02:35:39 | 00:00:00 | |
| AA1-15 | 2026-09-04 14:54:40 | 53.98560 | 11.41923 | 98° | 75km/h | 3011m | -2.9m/s | 0.9°C | 83.6% | 700.1hPa | 2.7V | 07:30:48 | 02:35:39 | 00:00:00 | |
| DL1XH-west | 2026-09-04 14:54:36 | 53.98569 | 11.41798 | 97° | 73km/h | 3023m | -3.7m/s | 0.9°C | 82.6% | 699hPa | 2.7V | 07:30:48 | 02:35:35 | 00:00:00 | |
| DO2SHX-10 | 2026-09-04 14:54:36 | 53.98569 | 11.41798 | 97° | 73km/h | 3024m | -3.6m/s | 0.8°C | 80.1% | 698.9hPa | 2.7V | 07:30:00 | 02:35:35 | 00:00:00 | |
| DL1XH-15 | 2026-09-04 14:54:35 | 53.98578 | 11.41614 | 95° | 68km/h | 3043m | -2.8m/s | 0.7°C | 81.3% | 697.3hPa | 2.7V | 07:30:52 | 02:35:29 | 00:00:00 | |
| DO2SHX-10 | 2026-09-04 14:54:33 | 53.98574 | 11.41704 | 94° | 71km/h | 3033m | -3.3m/s | 0.7°C | 80.5% | 698.0hPa | 2.7V | 00:00:00 | 02:35:32 | 00:00:00 | |
| DL1XH1-15 | 2026-09-04 14:54:31 | 53.98576 | 11.41644 | 93° | 69km/h | 3039m | -3.7m/s | 0.7°C | 81% | 697.7hPa | 2.7V | 07:30:51 | 02:35:30 | 00:00:00 | |
| DL1XH1-15 | 2026-09-04 14:54:31 | 53.98588 | 11.41496 | 97° | 73km/h | 3054m | -3.1m/s | 0.5°C | 82.1% | 696.2hPa | 2.6V | 07:30:56 | 02:35:25 | 00:00:00 | |
| DL1XH-15 | 2026-09-04 14:54:30 | 53.98590 | 11.41465 | 95° | 73km/h | 3057m | -3.4m/s | 0.6°C | 81.8% | 696hPa | 2.7V | 07:30:57 | 02:35:24 | 00:00:00 | |
| AA1-15 | 2026-09-04 14:54:29 | 53.98580 | 11.41585 | 98° | 68km/h | 3045m | -2.9m/s | 0.7°C | 82% | 697hPa | 2.7V | 07:31:39 | 02:35:28 | 00:00:00 | |
| DL1XH-west | 2026-09-04 14:54:26 | 53.98588 | 11.41496 | 97° | 73km/h | 3054m | -3.2m/s | 0.5°C | 83% | 696.2hPa | 2.6V | 07:31:39 | 02:35:25 | 00:00:00 | |
| DO2SHX-10 | 2026-09-04 14:54:24 | 53.98592 | 11.41434 | 97° | 75km/h | 3060m | -3.5m/s | 0.6°C | 80.1% | 695.6hPa | 2.7V | 00:00:00 | 02:35:23 | 00:00:00 | |
| D01LWL | 2026-09-04 14:54:22 | 53.98596 | 11.41369 | 96° | 75km/h | 3066m | -2.9m/s | 0.6°C | 78.2% | 695.2hPa | 2.7V | 00:00:00 | 00:00:00 | 00:00:00 | |
| DL1XH1-15 | 2026-09-04 14:54:21 | 53.98612 | 11.41176 | 98° | 75km/h | 3089m | -4.1m/s | 0.4°C | 80.9% | 693.3hPa | 2.7V | 07:31:06 | 02:35:15 | 00:00:00 | |
| DL1XH-15 | 2026-09-04 14:54:20 | 53.98601 | 11.41304 | 96° | 77km/h | 3073m | -3.9m/s | 0.5°C | 80.7% | 694.6hPa | 2.7V | 07:31:02 | 02:35:19 | 00:00:00 | |
| DL1XH-15 | 2026-09-04 14:54:20 | 53.98615 | 11.41144 | 98° | 75km/h | 3092m | -3.2m/s | 0.3°C | 81.2% | 693hPa | 2.7V | 07:31:07 | 02:35:14 | 00:00:00 | |
| AA1-15 | 2026-09-04 14:54:19 | 53.98603 | 11.41272 | 98° | 75km/h | 3077m | -4.3m/s | 0.4°C | 83.1% | 694.3hPa | 2.7V | 07:31:39 | 02:35:18 | 00:00:00 | |
| DL1XH-west | 2026-09-04 14:54:16 | 53.98612 | 11.41176 | 98° | 75km/h | 3089m | -4.1m/s | 0.4°C | 82.1% | 693.4hPa | 2.7V | 07:31:39 | 02:35:15 | 00:00:00 | |
| DL1XH-15 | 2026-09-04 14:54:15 | 53.98630 | 11.40986 | 99° | 75km/h | 3110m | -3.5m/s | 0.2°C | 81.5% | 691.4hPa | 2.7V | 07:31:12 | 02:35:09 | 00:00:00 | |
| DO2SHX-10 | 2026-09-04 14:54:15 | 53.98615 | 11.41144 | 99° | 75km/h | 3092m | -3.2m/s | 0.3°C | 81.2% | 692.9hPa | 2.7V | 00:00:00 | 02:35:14 | 00:00:00 | |
| DO2SHX-10 | 2026-09-04 14:54:12 | 53.98623 | 11.41049 | 101° | 75km/h | 3103m | -3.8m/s | 0.2°C | 81.0% | 692.0hPa | 2.7V | 07:31:00 | 02:35:11 | 00:00:00 | |
| DL1XH1-15 | 2026-09-04 14:54:11 | 53.98643 | 11.40860 | 100° | 73km/h | 3123m | -3m/s | 0.1°C | 82% | 690.3hPa | 2.7V | 07:31:16 | 02:35:05 | 00:00:00 | |
| DB0DAN | 2026-09-04 14:54:10 | 53.98630 | 11.40986 | 100° | 71km/h | 3110m | -3.5m/s | 0.2°C | 79.5% | 691.38hPa | 2.7V | 00:00:00 | 00:00:00 | 00:00:00 | |
| AA1-15 | 2026-09-04 14:54:08 | 53.98637 | 11.40922 | 99° | 75km/h | 3117m | -3.4m/s | 0.1°C | 81.3% | 690.8hPa | 2.7V | 07:31:39 | 02:35:07 | 00:00:00 | |
| DL1XH1-15 | 2026-09-04 14:54:06 | 53.98661 | 11.40695 | 99° | 84km/h | 3142m | -3.5m/s | 0.5°C | 70.7% | 688.6hPa | 2.7V | 07:31:21 | 02:35:00 | 00:00:00 | |
| DL1XH-15 | 2026-09-04 14:54:05 | 53.98647 | 11.40829 | 100° | 75km/h | 3126m | -4.2m/s | 0.1°C | 81.8% | 689.9hPa | 2.7V | 07:31:17 | 02:35:04 | 00:00:00 | |
| DL1XH-west | 2026-09-04 14:54:05 | 53.98647 | 11.40829 | 101° | 75km/h | 3126m | -4.2m/s | 0.1°C | 80.9% | 689.9hPa | 2.7V | 07:31:39 | 02:35:04 | 00:00:00 | |
| AA1-15 | 2026-09-04 14:53:57 | 53.98677 | 11.40556 | 101° | 84km/h | 3157m | -3.9m/s | 0.3°C | 74.2% | 687.4hPa | 2.7V | 07:31:39 | 02:34:56 | 00:00:00 | |
| DL1XH1-15 | 2026-09-04 14:53:56 | 53.98681 | 11.40521 | 101° | 82km/h | 3161m | -3.6m/s | 0.4°C | 70.7% | 687.1hPa | 2.7V | 07:31:26 | 02:34:55 | 00:00:00 | |
| DB0DAN | 2026-09-04 14:53:55 | 53.98685 | 11.40487 | 101° | 80km/h | 3165m | -3.7m/s | 0.3°C | 70.3% | 686.87hPa | 2.7V | 00:00:00 | 00:00:00 | 00:00:00 | |
| DL1XH-15 | 2026-09-04 14:53:55 | 53.98685 | 11.40487 | 100° | 84km/h | 3164m | -3.7m/s | 0.3°C | 72.1% | 686.9hPa | 2.7V | 07:31:27 | 02:34:54 | 00:00:00 | |
| DL1XH-west | 2026-09-04 14:53:55 | 53.98685 | 11.40487 | 101° | 84km/h | 3165m | -3.7m/s | 0.3°C | 73.7% | 686.9hPa | 2.7V | 07:31:39 | 02:34:54 | 00:00:00 | |
| DO2SHX-10 | 2026-09-04 14:53:54 | 53.98689 | 11.40451 | 102° | 86km/h | 3168m | -3.4m/s | 0.4°C | 67.7% | 686.4hPa | 2.7V | 00:00:00 | 02:34:53 | 00:00:00 | |
| DM0DOS-11 | 2026-09-04 14:53:53 | 53.98719 | 11.40236 | 101° | 88km/h | 3187m | -3.2m/s | 0.5°C | 63.6% | 685.1hPa | 2.7V | 07:31:34 | 02:34:47 | 00:00:00 | |
| DL1XH1-15 | 2026-09-04 14:53:51 | 53.98728 | 11.40162 | 99° | 89km/h | 3192m | -2.6m/s | 0.6°C | 59.9% | 684.6hPa | 2.6V | 07:31:36 | 02:34:45 | 00:00:00 | |
| AA1-15 | 2026-09-04 14:53:46 | 53.98728 | 11.40162 | 100° | 89km/h | 3192m | -2.6m/s | 0.6°C | 63.8% | 684.6hPa | 2.6V | 07:31:39 | 02:34:45 | 00:00:00 | |
| DL1XH-15 | 2026-09-04 14:53:45 | 53.98732 | 11.40124 | 99° | 89km/h | 3195m | -2.9m/s | 0.6°C | 60.3% | 684.2hPa | 2.7V | 07:31:37 | 02:34:44 | 00:00:00 | |
| DO2SHX-10 | 2026-09-04 14:53:45 | 53.98732 | 11.40124 | 100° | 89km/h | 3195m | -2.9m/s | 0.5°C | 60.3% | 684.2hPa | 2.6V | 00:00:00 | 02:34:44 | 00:00:00 | |
| DM0DOS-11 | 2026-09-04 14:53:44 | 53.98755 | 11.39893 | 99° | 91km/h | 3213m | -3.2m/s | 0.5°C | 59.2% | 682.9hPa | 2.6V | 07:31:43 | 02:34:38 | 00:00:00 | |
| DL1XH-west | 2026-09-04 14:53:44 | 53.98735 | 11.40086 | 100° | 89km/h | 3198m | -2.5m/s | 0.5°C | 64.4% | 684.2hPa | 2.7V | 07:31:39 | 02:34:43 | 00:00:00 | |
| DL1XH1-15 | 2026-09-04 14:53:43 | 53.98748 | 11.39970 | 99° | 91km/h | 3207m | -3.6m/s | 0.5°C | 60% | 683.5hPa | 2.7V | 07:31:41 | 02:34:40 | 00:00:00 | |
| DL1XH1-15 | 2026-09-04 14:53:43 | 53.98766 | 11.39778 | 99° | 89km/h | 3225m | -3.9m/s | 0.4°C | 58.7% | 682hPa | 2.7V | 07:31:46 | 02:34:35 | 00:00:00 | |
| DO2SHX-10 | 2026-09-04 14:53:42 | 53.98743 | 11.40009 | 100° | 91km/h | 3204m | -3.3m/s | 0.4°C | 60.8% | 683.5hPa | 2.7V | 00:00:00 | 02:34:41 | 00:00:00 | |
| DB0DAN | 2026-09-04 14:53:40 | 53.98751 | 11.39932 | 99° | 86km/h | 3210m | -2.3m/s | 0.5°C | 58.6% | 683.14hPa | 2.7V | 00:00:00 | 00:00:00 | 00:00:00 | |
| DL1XH-15 | 2026-09-04 14:53:40 | 53.98770 | 11.39741 | 99° | 88km/h | 3228m | -3.2m/s | 0.3°C | 59.1% | 681.6hPa | 2.7V | 07:31:47 | 02:34:34 | 00:00:00 | |
| DO2SHX-10 | 2026-09-04 14:53:39 | 53.98755 | 11.39893 | 100° | 91km/h | 3213m | -3.2m/s | 0.4°C | 59.2% | 682.9hPa | 2.6V | 00:00:00 | 02:34:38 | 00:00:00 | |
| DJ2DS-15 | 2026-09-04 14:53:38 | 53.98759 | 11.39855 | 100° | 91km/h | 3217m | -3.9m/s | 0.4°C | 58.7% | 682.6hPa | 2.6V | 00:00:00 | 02:34:37 | 00:00:00 | |
| DM0DOS-11 | 2026-09-04 14:53:37 | 53.98783 | 11.39628 | 102° | 91km/h | 3239m | -3m/s | 0.3°C | 58.5% | 680.8hPa | 2.7V | 07:31:50 | 02:34:31 | 00:00:00 | |
| DO2SHX-10 | 2026-09-04 14:53:36 | 53.98766 | 11.39778 | 100° | 88km/h | 3225m | -3.9m/s | 0.3°C | 58.7% | 681.9hPa | 2.6V | 00:00:00 | 02:34:35 | 00:00:00 | |
| DL1XH-15 | 2026-09-04 14:53:35 | 53.98793 | 11.39551 | 102° | 91km/h | 3246m | -3.6m/s | 0.2°C | 59.1% | 680.2hPa | 2.6V | 07:31:52 | 02:34:29 | 00:00:00 | |
| AA1-15 | 2026-09-04 14:53:35 | 53.98770 | 11.39741 | 100° | 88km/h | 3228m | -3.2m/s | 0.3°C | 62.1% | 681.6hPa | 2.7V | 07:32:30 | 02:34:34 | 00:00:00 | |
| DL1XH-west | 2026-09-04 14:53:34 | 53.98774 | 11.39704 | 102° | 88km/h | 3232m | -3.9m/s | 0.3°C | 62.2% | 681.3hPa | 2.7V | 07:32:30 | 02:34:33 | 00:00:00 | |
| DO2SHX-10 | 2026-09-04 14:53:33 | 53.98778 | 11.39666 | 102° | 91km/h | 3236m | -3.2m/s | 0.2°C | 59.2% | 681.1hPa | 2.6V | 00:00:00 | 02:34:32 | 00:00:00 | |
| DL1XH1-15 | 2026-09-04 14:53:31 | 53.98788 | 11.39590 | 102° | 91km/h | 3242m | -3.9m/s | 0.2°C | 58.8% | 680.4hPa | 2.6V | 07:31:51 | 02:34:30 | 00:00:00 | |
| DM0DOS-11 | 2026-09-04 14:53:31 | 53.98815 | 11.39399 | 103° | 91km/h | 3261m | -3.9m/s | 0°C | 60.2% | 679hPa | 2.7V | 07:31:56 | 02:34:25 | 00:00:00 | |
| DO2SHX-10 | 2026-09-04 14:53:30 | 53.98793 | 11.39551 | 103° | 91km/h | 3246m | -3.6m/s | 0.1°C | 59.1% | 680.1hPa | 2.6V | 00:00:00 | 02:34:29 | 00:00:00 | |
| DO2SHX-10 | 2026-09-04 14:53:27 | 53.98809 | 11.39437 | 104° | 91km/h | 3258m | -3.4m/s | 0.0°C | 60.3% | 679.2hPa | 2.7V | 00:00:00 | 02:34:26 | 00:00:00 | |
| DM0DOS-11 | 2026-09-04 14:53:26 | 53.98843 | 11.39212 | 103° | 89km/h | 3281m | -3.9m/s | -0.1°C | 59.9% | 677.4hPa | 2.7V | 07:32:01 | 02:34:20 | 00:00:00 | |
| DL1XH-15 | 2026-09-04 14:53:25 | 53.98820 | 11.39361 | 103° | 91km/h | 3265m | -3.7m/s | 0°C | 59.8% | 678.7hPa | 2.7V | 07:31:57 | 02:34:24 | 00:00:00 | |
| DB0DAN | 2026-09-04 14:53:25 | 53.98820 | 11.39361 | 103° | 86km/h | 3265m | -3.7m/s | 0°C | 58.2% | 678.68hPa | 2.7V | 00:00:00 | 00:00:00 | 00:00:00 | |
| DL1XH1-15 | 2026-09-04 14:53:25 | 53.98848 | 11.39174 | 103° | 91km/h | 3284m | -4.1m/s | -0.1°C | 60.1% | 677.1hPa | 2.7V | 07:32:02 | 02:34:19 | 00:00:00 | |
| DL1XH-west | 2026-09-04 14:53:24 | 53.98826 | 11.39323 | 104° | 88km/h | 3269m | -3.6m/s | -0°C | 63.8% | 678.3hPa | 2.7V | 07:32:30 | 02:34:23 | 00:00:00 | |
| DO2SHX-10 | 2026-09-04 14:53:24 | 53.98826 | 11.39323 | 105° | 89km/h | 3269m | -3.5m/s | -0.0°C | 60.3% | 678.3hPa | 2.7V | 07:31:00 | 02:34:23 | 00:00:00 | |
| DM0DOS-11 | 2026-09-04 14:53:21 | 53.98870 | 11.39021 | 104° | 93km/h | 3302m | -4.5m/s | -0.3°C | 61.7% | 675.6hPa | 2.7V | 07:32:06 | 02:34:15 | 00:00:00 | |
| DO2SHX-10 | 2026-09-04 14:53:21 | 53.98842 | 11.39212 | 104° | 91km/h | 3281m | -3.9m/s | -0.1°C | 59.9% | 677.4hPa | 2.7V | 00:00:00 | 02:34:20 | 00:00:00 | |
| D01LWL | 2026-09-04 14:53:20 | 53.98848 | 11.39174 | 103° | 91km/h | 3284m | -4.1m/s | -0.2°C | 58.5% | 677.1hPa | 2.6V | 00:00:00 | 00:00:00 | 00:00:00 | |
| DO2SHX-10 | 2026-09-04 14:53:18 | 53.98858 | 11.39098 | 104° | 91km/h | 3293m | -4.6m/s | -0.2°C | 61.6% | 676.3hPa | 2.6V | 00:00:00 | 02:34:17 | 00:00:00 | |
| DL1XH-15 | 2026-09-04 14:53:15 | 53.98875 | 11.38983 | 104° | 93km/h | 3306m | -4.2m/s | -0.3°C | 61.5% | 675.2hPa | 2.6V | 07:32:07 | 02:34:14 | 00:00:00 | |
| DL1XH1-15 | 2026-09-04 14:53:15 | 53.98907 | 11.38790 | 106° | 97km/h | 3328m | -4.7m/s | -0.6°C | 62.1% | 673.5hPa | 2.7V | 07:32:12 | 02:34:09 | 00:00:00 | |
| DL1XH-west | 2026-09-04 14:53:13 | 53.98887 | 11.38906 | 105° | 91km/h | 3314m | -3.6m/s | -0.4°C | 66.6% | 674.6hPa | 2.7V | 07:32:30 | 02:34:12 | 00:00:00 | |
| DM0DOS-11 | 2026-09-04 14:53:11 | 53.98901 | 11.38829 | 106° | 95km/h | 3323m | -4.8m/s | -0.5°C | 61.7% | 673.9hPa | 2.7V | 07:32:11 | 02:34:10 | 00:00:00 | |
| DM0DOS-11 | 2026-09-04 14:53:11 | 53.98933 | 11.38634 | 106° | 91km/h | 3344m | -4.3m/s | -0.8°C | 64% | 671.9hPa | 2.6V | 07:32:16 | 02:34:05 | 00:00:00 | |
| DB0DAN | 2026-09-04 14:53:10 | 53.98907 | 11.38790 | 106° | 91km/h | 3328m | -4.7m/s | -0.6°C | 60.3% | 673.54hPa | 2.7V | 00:00:00 | 00:00:00 | 00:00:00 | |
| DO2SHX-10 | 2026-09-04 14:53:09 | 53.98914 | 11.38750 | 106° | 95km/h | 3331m | -3.6m/s | -0.6°C | 62.8% | 673.0hPa | 2.7V | 00:00:00 | 02:34:08 | 00:00:00 | |
| DM0DOS-11 | 2026-09-04 14:53:06 | 53.98967 | 11.38444 | 106° | 91km/h | 3364m | -4m/s | -1°C | 65.6% | 670.2hPa | 2.7V | 07:32:21 | 02:34:00 | 00:00:00 | |
| DL1XH1-15 | 2026-09-04 14:53:05 | 53.98940 | 11.38596 | 107° | 91km/h | 3348m | -4m/s | -0.8°C | 64.2% | 671.6hPa | 2.7V | 07:32:17 | 02:34:04 | 00:00:00 | |
| DL1XH-west | 2026-09-04 14:53:02 | 53.98960 | 11.38482 | 106° | 93km/h | 3360m | -4.2m/s | -1°C | 68.7% | 670.6hPa | 2.7V | 07:32:30 | 02:34:01 | 00:00:00 | |
| DM0DOS-11 | 2026-09-04 14:53:01 | 53.99003 | 11.38250 | 108° | 97km/h | 3384m | -3.9m/s | -1.2°C | 66.1% | 668.6hPa | 2.7V | 07:32:26 | 02:33:55 | 00:00:00 | |
| DL1XH-15 | 2026-09-04 14:53:00 | 53.98974 | 11.38406 | 107° | 93km/h | 3368m | -4.2m/s | -1°C | 65.3% | 669.9hPa | 2.7V | 07:32:22 | 02:33:59 | 00:00:00 | |
| SMARD9-15 | 2026-09-04 14:52:59 | 53.98981 | 11.38367 | 107° | 93km/h | 3372m | -3.9m/s | -1.0°C | 63.1% | 669.5hPa | 2.6V | 00:00:00 | 00:00:00 | 00:00:00 | |
| DO2SHX-10 | 2026-09-04 14:52:57 | 53.98996 | 11.38289 | 108° | 97km/h | 3380m | -3.8m/s | -1.1°C | 65.2% | 668.9hPa | 2.6V | 00:00:00 | 02:33:56 | 00:00:00 | |
| DM0DOS-11 | 2026-09-04 14:52:56 | 53.99044 | 11.38053 | 109° | 95km/h | 3403m | -3.1m/s | -1.4°C | 68.1% | 667hPa | 2.6V | 07:32:31 | 02:33:50 | 00:00:00 | |
| DB0DAN | 2026-09-04 14:52:55 | 53.99011 | 11.38211 | 109° | 93km/h | 3388m | -3.8m/s | -1.2°C | 64.4% | 668.21hPa | 2.7V | 00:00:00 | 00:00:00 | 00:00:00 | |
| DL1XH1-15 | 2026-09-04 14:52:55 | 53.99011 | 11.38211 | 108° | 97km/h | 3388m | -3.8m/s | -1.2°C | 66.3% | 668.2hPa | 2.7V | 07:32:27 | 02:33:54 | 00:00:00 | |
| DL1XH1-15 | 2026-09-04 14:52:55 | 53.99052 | 11.38014 | 111° | 95km/h | 3406m | -3.2m/s | -1.4°C | 68.2% | 666.8hPa | 2.6V | 07:32:32 | 02:33:49 | 00:00:00 | |
| DL1XH-west | 2026-09-04 14:52:52 | 53.99035 | 11.38092 | 109° | 97km/h | 3399m | -3.8m/s | -1.4°C | 70.9% | 667.4hPa | 2.7V | 07:32:30 | 02:33:51 | 00:00:00 | |
| D01LWL | 2026-09-04 14:52:49 | 53.99061 | 11.37976 | 111° | 97km/h | 3409m | -3.2m/s | -1.5°C | 66.2% | 666.5hPa | 2.7V | 00:00:00 | 00:00:00 | 00:00:00 | |
| DO2SHX-10 | 2026-09-04 14:52:48 | 53.99070 | 11.37936 | 111° | 99km/h | 3413m | -3.4m/s | -1.5°C | 69.5% | 666.1hPa | 2.7V | 00:00:00 | 02:33:47 | 00:00:00 | |
| DM0DOS-11 | 2026-09-04 14:52:46 | 53.99127 | 11.37656 | 108° | 99km/h | 3435m | -3.6m/s | -1.7°C | 68.5% | 664.2hPa | 2.7V | 07:32:41 | 02:33:40 | 00:00:00 | |
| DL1XH-15 | 2026-09-04 14:52:45 | 53.99095 | 11.37816 | 108° | 99km/h | 3423m | -3.2m/s | -1.6°C | 68.9% | 665.3hPa | 2.7V | 07:32:37 | 02:33:44 | 00:00:00 | |
| DL1XH1-15 | 2026-09-04 14:52:45 | 53.99135 | 11.37616 | 108° | 99km/h | 3438m | -3m/s | -1.7°C | 68.7% | 664hPa | 2.7V | 07:32:42 | 02:33:39 | 00:00:00 | |
| DL1XH-west | 2026-09-04 14:52:42 | 53.99119 | 11.37697 | 109° | 99km/h | 3432m | -2.9m/s | -1.7°C | 70.1% | 664.5hPa | 2.6V | 07:33:21 | 02:33:41 | 00:00:00 | |
| AA1-15 | 2026-09-04 14:52:41 | 53.99127 | 11.37656 | 108° | 99km/h | 3435m | -3.6m/s | -1.7°C | 70.3% | 664.2hPa | 2.7V | 07:33:21 | 02:33:40 | 00:00:00 | |
| DO2SHX-10 | 2026-09-04 14:52:39 | 53.99143 | 11.37576 | 110° | 100km/h | 3441m | -3.4m/s | -1.8°C | 69.7% | 663.6hPa | 2.7V | 00:00:00 | 02:33:38 | 00:00:00 | |
| DM0DOS-11 | 2026-09-04 14:52:36 | 53.99210 | 11.37246 | 107° | 102km/h | 3468m | -3.9m/s | -2.1°C | 71.4% | 661.6hPa | 2.7V | 07:32:51 | 02:33:30 | 00:00:00 | |
| DL1XH-15 | 2026-09-04 14:52:35 | 53.99217 | 11.37205 | 107° | 102km/h | 3472m | -3.9m/s | -2°C | 70.1% | 661.2hPa | 2.7V | 07:32:52 | 02:33:29 | 00:00:00 | |
| DL1XH-west | 2026-09-04 14:52:31 | 53.99209 | 11.37246 | 108° | 104km/h | 3468m | -3.9m/s | -2.1°C | 74.6% | 661.6hPa | 2.7V | 07:33:21 | 02:33:30 | 00:00:00 | |
| AA1-15 | 2026-09-04 14:52:30 | 53.99217 | 11.37205 | 107° | 102km/h | 3472m | -3.9m/s | -2.1°C | 73.2% | 661.2hPa | 2.7V | 07:33:21 | 02:33:29 | 00:00:00 | |
| DM0DOS-11 | 2026-09-04 14:52:26 | 53.99248 | 11.37037 | 107° | 104km/h | 3486m | -3.9m/s | -2.2°C | 71% | 660.1hPa | 2.6V | 07:32:56 | 02:33:25 | 00:00:00 | |
| DM0DOS-11 | 2026-09-04 14:52:26 | 53.99287 | 11.36826 | 109° | 104km/h | 3504m | -3.2m/s | -2.3°C | 69.3% | 658.6hPa | 2.7V | 07:33:01 | 02:33:20 | 00:00:00 | |
| DB0DAN | 2026-09-04 14:52:25 | 53.99256 | 11.36995 | 107° | 99km/h | 3489m | -3.1m/s | -2.2°C | 68.1% | 659.82hPa | 2.7V | 00:00:00 | 00:00:00 | 00:00:00 | |
| DO2SHX-10 | 2026-09-04 14:52:24 | 53.99263 | 11.36952 | 108° | 102km/h | 3493m | -4.3m/s | -2.1°C | 68.7% | 659.3hPa | 2.7V | 00:00:00 | 02:33:23 | 00:00:00 | |
| DM0DOS-11 | 2026-09-04 14:52:21 | 53.99332 | 11.36616 | 110° | 102km/h | 3518m | -3.2m/s | -2.4°C | 69.9% | 657.3hPa | 2.7V | 07:33:06 | 02:33:15 | 00:00:00 | |
| DL1XH1-15 | 2026-09-04 14:52:20 | 53.99296 | 11.36784 | 109° | 106km/h | 3507m | -2.9m/s | -2.3°C | 69.5% | 658.3hPa | 2.7V | 07:33:02 | 02:33:19 | 00:00:00 | |
| DL1XH1-15 | 2026-09-04 14:52:20 | 53.99342 | 11.36574 | 110° | 104km/h | 3521m | -3.2m/s | -2.4°C | 69.5% | 657.1hPa | 2.7V | 07:33:07 | 02:33:14 | 00:00:00 | |
| DL1XH-west | 2026-09-04 14:52:20 | 53.99296 | 11.36784 | 110° | 106km/h | 3507m | -2.9m/s | -2.3°C | 71% | 658.3hPa | 2.7V | 07:33:21 | 02:33:19 | 00:00:00 | |
| AA1-15 | 2026-09-04 14:52:19 | 53.99305 | 11.36741 | 110° | 106km/h | 3510m | -2.8m/s | -2.3°C | 71.3% | 658.1hPa | 2.6V | 07:33:21 | 02:33:18 | 00:00:00 | |
| DO2SHX-10 | 2026-09-04 14:52:18 | 53.99314 | 11.36699 | 110° | 104km/h | 3513m | -2.5m/s | -2.3°C | 69.5% | 657.8hPa | 2.6V | 00:00:00 | 02:33:17 | 00:00:00 | |
| DM0DOS-11 | 2026-09-04 14:52:16 | 53.99378 | 11.36409 | 110° | 102km/h | 3535m | -3.1m/s | -2.6°C | 70.5% | 656hPa | 2.6V | 07:33:11 | 02:33:10 | 00:00:00 | |
| DO2SHX-10 | 2026-09-04 14:52:15 | 53.99342 | 11.36574 | 111° | 102km/h | 3522m | -3.1m/s | -2.4°C | 69.5% | 657.0hPa | 2.7V | 00:00:00 | 02:33:14 | 00:00:00 | |
| DJ2DS-15 | 2026-09-04 14:52:13 | 53.99360 | 11.36491 | 111° | 102km/h | 3528m | -3.3m/s | -2.4°C | 69.9% | 656.5hPa | 2.7V | 00:00:00 | 02:33:12 | 00:00:00 | |
| DO2SHX-10 | 2026-09-04 14:52:12 | 53.99369 | 11.36450 | 111° | 102km/h | 3531m | -3.3m/s | -2.5°C | 70.0% | 656.3hPa | 2.7V | 07:33:00 | 02:33:11 | 00:00:00 | |
| DM0DOS-11 | 2026-09-04 14:52:11 | 53.99422 | 11.36205 | 110° | 102km/h | 3551m | -3.5m/s | -2.7°C | 72.3% | 654.6hPa | 2.7V | 07:33:16 | 02:33:05 | 00:00:00 | |
| DB0DAN | 2026-09-04 14:52:10 | 53.99387 | 11.36368 | 110° | 97km/h | 3538m | -3m/s | -2.6°C | 68.4% | 655.76hPa | 2.6V | 00:00:00 | 00:00:00 | 00:00:00 | |
| DL1XH1-15 | 2026-09-04 14:52:10 | 53.99387 | 11.36368 | 110° | 102km/h | 3538m | -3m/s | -2.6°C | 70.7% | 655.8hPa | 2.6V | 07:33:12 | 02:33:09 | 00:00:00 | |
| DL1XH1-15 | 2026-09-04 14:52:10 | 53.99432 | 11.36164 | 111° | 104km/h | 3554m | -3.2m/s | -2.8°C | 72.6% | 654.4hPa | 2.7V | 07:33:17 | 02:33:04 | 00:00:00 | |
| DL1XH-west | 2026-09-04 14:52:09 | 53.99396 | 11.36327 | 110° | 100km/h | 3541m | -3.1m/s | -2.6°C | 74.6% | 655.4hPa | 2.7V | 07:33:21 | 02:33:08 | 00:00:00 | |
| AA1-15 | 2026-09-04 14:52:08 | 53.99404 | 11.36287 | 110° | 100km/h | 3544m | -3.4m/s | -2.7°C | 74.7% | 655.1hPa | 2.7V | 07:33:21 | 02:33:07 | 00:00:00 | |
| DM0DOS-11 | 2026-09-04 14:52:06 | 53.99469 | 11.35999 | 110° | 104km/h | 3566m | -2.9m/s | -2.9°C | 73.3% | 653.3hPa | 2.7V | 07:33:21 | 02:33:00 | 00:00:00 | |
| DO2SHX-10 | 2026-09-04 14:52:06 | 53.99422 | 11.36205 | 111° | 102km/h | 3551m | -3.5m/s | -2.7°C | 72.3% | 654.6hPa | 2.7V | 00:00:00 | 02:33:05 | 00:00:00 | |
| DL1XH1-15 | 2026-09-04 14:52:05 | 53.99478 | 11.35958 | 110° | 104km/h | 3569m | -2.9m/s | -2.9°C | 73.4% | 653.1hPa | 2.7V | 07:33:22 | 02:32:59 | 00:00:00 | |
| DL1XH-west | 2026-09-04 14:51:58 | 53.99495 | 11.35875 | 109° | 100km/h | 3574m | -2.3m/s | -3°C | 75.3% | 652.7hPa | 2.7V | 07:34:12 | 02:32:57 | 00:00:00 | |
| AA1-15 | 2026-09-04 14:51:57 | 53.99504 | 11.35835 | 110° | 99km/h | 3577m | -2.4m/s | -3°C | 75.6% | 652.4hPa | 2.7V | 07:34:12 | 02:32:56 | 00:00:00 | |
| DM0DOS-11 | 2026-09-04 14:51:56 | 53.99512 | 11.35795 | 110° | 100km/h | 3579m | -2.5m/s | -3°C | 73.9% | 652.3hPa | 2.7V | 07:33:26 | 02:32:55 | 00:00:00 | |
| DM0DOS-11 | 2026-09-04 14:51:56 | 53.99558 | 11.35594 | 112° | 102km/h | 3593m | -2.7m/s | -3.1°C | 74.7% | 651.2hPa | 2.7V | 07:33:31 | 02:32:50 | 00:00:00 | |
| DB0DAN | 2026-09-04 14:51:55 | 53.99521 | 11.35755 | 111° | 95km/h | 3582m | -3m/s | -3°C | 71.7% | 652.14hPa | 2.6V | 00:00:00 | 00:00:00 | 00:00:00 | |
| DL1XH-15 | 2026-09-04 14:51:55 | 53.99521 | 11.35755 | 110° | 100km/h | 3582m | -3m/s | -3°C | 74.1% | 652.1hPa | 2.6V | 07:33:27 | 02:32:54 | 00:00:00 | |
| DL1XH1-15 | 2026-09-04 14:51:55 | 53.99568 | 11.35553 | 111° | 104km/h | 3595m | -2.5m/s | -3.2°C | 75% | 650.9hPa | 2.7V | 07:33:32 | 02:32:49 | 00:00:00 | |
| DL1XH-west | 2026-09-04 14:51:47 | 53.99595 | 11.35426 | 109° | 102km/h | 3604m | -3.8m/s | -3.2°C | 75.7% | 650.3hPa | 2.6V | 07:34:12 | 02:32:46 | 00:00:00 | |
| AA1-15 | 2026-09-04 14:51:46 | 53.99603 | 11.35384 | 109° | 102km/h | 3607m | -3m/s | -3.3°C | 75.6% | 650hPa | 2.7V | 07:34:12 | 02:32:45 | 00:00:00 | |
| DM0DOS-11 | 2026-09-04 14:51:46 | 53.99603 | 11.35384 | 108° | 102km/h | 3607m | -3m/s | -3.3°C | 74.4% | 650hPa | 2.7V | 07:33:36 | 02:32:45 | 00:00:00 | |
| DL1XH-15 | 2026-09-04 14:51:45 | 53.99611 | 11.35343 | 108° | 100km/h | 3610m | -3.6m/s | -3.3°C | 74.7% | 649.7hPa | 2.7V | 07:33:37 | 02:32:44 | 00:00:00 | |
| DO2SHX-10 | 2026-09-04 14:51:45 | 53.99611 | 11.35343 | 109° | 100km/h | 3610m | -3.5m/s | -3.3°C | 74.7% | 649.7hPa | 2.7V | 00:00:00 | 02:32:44 | 00:00:00 | |
| DO2SHX-10 | 2026-09-04 14:51:42 | 53.99636 | 11.35220 | 109° | 99km/h | 3622m | -4.3m/s | -3.4°C | 75.1% | 648.8hPa | 2.7V | 00:00:00 | 02:32:41 | 00:00:00 | |
| DM0DOS-11 | 2026-09-04 14:51:41 | 53.99688 | 11.34980 | 110° | 100km/h | 3647m | -2.9m/s | -3.6°C | 75.6% | 646.8hPa | 2.7V | 07:33:46 | 02:32:35 | 00:00:00 | |
| DB0DAN | 2026-09-04 14:51:40 | 53.99652 | 11.35140 | 110° | 95km/h | 3631m | -4.9m/s | -3.5°C | 73.4% | 648.14hPa | 2.6V | 00:00:00 | 00:00:00 | 00:00:00 | |
| DL1XH1-15 | 2026-09-04 14:51:40 | 53.99652 | 11.35140 | 110° | 99km/h | 3631m | -4.9m/s | -3.5°C | 75.9% | 648.1hPa | 2.6V | 07:33:42 | 02:32:39 | 00:00:00 | |
| DL1XH-west | 2026-09-04 14:51:36 | 53.99688 | 11.34980 | 110° | 100km/h | 3647m | -2.9m/s | -3.6°C | 78.4% | 646.8hPa | 2.7V | 07:34:12 | 02:32:35 | 00:00:00 | |
| DL1XH-15 | 2026-09-04 14:51:35 | 53.99697 | 11.34939 | 110° | 100km/h | 3650m | -3.1m/s | -3.6°C | 75.8% | 646.5hPa | 2.7V | 07:33:47 | 02:32:34 | 00:00:00 | |
| DO2SHX-10 | 2026-09-04 14:51:33 | 53.99715 | 11.34858 | 112° | 100km/h | 3656m | -2.9m/s | -3.6°C | 74.9% | 645.9hPa | 2.7V | 00:00:00 | 02:32:32 | 00:00:00 | |
| DM0DOS-11 | 2026-09-04 14:51:31 | 53.99778 | 11.34575 | 109° | 100km/h | 3680m | -3.8m/s | -3.9°C | 75.6% | 644hPa | 2.7V | 07:33:56 | 02:32:25 | 00:00:00 | |
| DL1XH1-15 | 2026-09-04 14:51:30 | 53.99742 | 11.34737 | 110° | 100km/h | 3665m | -3.4m/s | -3.7°C | 74.4% | 645.3hPa | 2.7V | 07:33:52 | 02:32:29 | 00:00:00 | |
| DL1XH1-15 | 2026-09-04 14:51:30 | 53.99786 | 11.34534 | 109° | 100km/h | 3683m | -4m/s | -3.9°C | 76.1% | 643.8hPa | 2.7V | 07:33:57 | 02:32:24 | 00:00:00 | |
| DO2SHX-10 | 2026-09-04 14:51:30 | 53.99742 | 11.34737 | 111° | 100km/h | 3665m | -3.4m/s | -3.6°C | 74.4% | 645.2hPa | 2.6V | 00:00:00 | 02:32:29 | 00:00:00 | |
| DO2SHX-10 | 2026-09-04 14:51:27 | 53.99769 | 11.34616 | 111° | 100km/h | 3676m | -3.8m/s | -3.8°C | 75.7% | 644.3hPa | 2.6V | 00:00:00 | 02:32:26 | 00:00:00 | |
| SMARD9-15 | 2026-09-04 14:51:26 | 53.99778 | 11.34575 | 109° | 100km/h | 3679m | -3.8m/s | -3.9°C | 73.1% | 644.0hPa | 2.6V | 00:00:00 | 00:00:00 | 00:00:00 | |
| DL1XH-west | 2026-09-04 14:51:26 | 53.99778 | 11.34575 | 110° | 100km/h | 3680m | -3.8m/s | -3.9°C | 76.6% | 644hPa | 2.7V | 07:34:12 | 02:32:25 | 00:00:00 | |
| DL1XH1-15 | 2026-09-04 14:51:25 | 53.99832 | 11.34331 | 111° | 100km/h | 3702m | -3.6m/s | -4°C | 76.1% | 642.2hPa | 2.6V | 07:34:02 | 02:32:19 | 00:00:00 | |
| AA1-15 | 2026-09-04 14:51:25 | 53.99786 | 11.34534 | 110° | 100km/h | 3683m | -4m/s | -3.9°C | 77.2% | 643.8hPa | 2.7V | 07:34:12 | 02:32:24 | 00:00:00 | |
| DO2SHX-10 | 2026-09-04 14:51:24 | 53.99795 | 11.34493 | 111° | 100km/h | 3687m | -3.8m/s | -4.0°C | 77.4% | 643.4hPa | 2.7V | 07:33:00 | 02:32:23 | 00:00:00 | |
| DO2SHX-10 | 2026-09-04 14:51:21 | 53.99822 | 11.34372 | 111° | 100km/h | 3699m | -3.6m/s | -4.0°C | 75.8% | 642.4hPa | 2.7V | 00:00:00 | 02:32:20 | 00:00:00 | |
| DL1XH1-15 | 2026-09-04 14:51:20 | 53.99879 | 11.34128 | 110° | 102km/h | 3720m | -3.8m/s | -4.2°C | 75.9% | 640.7hPa | 2.7V | 07:34:07 | 02:32:14 | 00:00:00 | |
| DO2SHX-10 | 2026-09-04 14:51:18 | 53.99851 | 11.34251 | 113° | 102km/h | 3709m | -3.6m/s | -4.0°C | 75.8% | 641.7hPa | 2.7V | 00:00:00 | 02:32:17 | 00:00:00 | |
| DM0DOS-11 | 2026-09-04 14:51:16 | 53.99870 | 11.34169 | 110° | 102km/h | 3716m | -3.9m/s | -4.1°C | 75.7% | 641.1hPa | 2.7V | 07:34:06 | 02:32:15 | 00:00:00 | |
| DL1XH-west | 2026-09-04 14:51:16 | 53.99869 | 11.34169 | 111° | 102km/h | 3716m | -3.9m/s | -4.1°C | 77.9% | 641.1hPa | 2.7V | 07:34:12 | 02:32:15 | 00:00:00 | |
| AA1-15 | 2026-09-04 14:51:15 | 53.99879 | 11.34128 | 111° | 102km/h | 3720m | -3.8m/s | -4.2°C | 77.9% | 640.7hPa | 2.7V | 07:34:12 | 02:32:14 | 00:00:00 | |
| DO2SHX-10 | 2026-09-04 14:51:15 | 53.99879 | 11.34128 | 111° | 100km/h | 3720m | -3.8m/s | -4.1°C | 75.9% | 640.6hPa | 2.7V | 00:00:00 | 02:32:14 | 00:00:00 | |
| DJ2DS-15 | 2026-09-04 14:51:13 | 53.99897 | 11.34047 | 112° | 100km/h | 3728m | -4.0m/s | -4.2°C | 76.3% | 640.0hPa | 2.7V | 00:00:00 | 02:32:12 | 00:00:00 | |
| DO2SHX-10 | 2026-09-04 14:51:12 | 53.99906 | 11.34008 | 113° | 100km/h | 3732m | -3.5m/s | -4.2°C | 76.7% | 639.8hPa | 2.7V | 00:00:00 | 02:32:11 | 00:00:00 | |
| DL1XH-15 | 2026-09-04 14:51:10 | 53.99926 | 11.33928 | 112° | 102km/h | 3739m | -4m/s | -4.3°C | 76.7% | 639.2hPa | 2.7V | 07:34:12 | 02:32:09 | 00:00:00 | |
| DM0DOS-11 | 2026-09-04 14:51:06 | 53.99965 | 11.33767 | 112° | 102km/h | 3755m | -4.2m/s | -4.5°C | 77.5% | 637.8hPa | 2.6V | 07:34:16 | 02:32:05 | 00:00:00 | |
| DL1XH-west | 2026-09-04 14:51:06 | 53.99965 | 11.33767 | 113° | 102km/h | 3755m | -4.2m/s | -4.5°C | 79.7% | 637.8hPa | 2.6V | 07:35:03 | 02:32:05 | 00:00:00 | |
| DL1XH1-15 | 2026-09-04 14:51:05 | 53.99974 | 11.33727 | 112° | 102km/h | 3758m | -3.8m/s | -4.5°C | 77.7% | 637.6hPa | 2.6V | 07:34:17 | 02:32:04 | 00:00:00 | |
| AA1-15 | 2026-09-04 14:51:05 | 53.99975 | 11.33727 | 113° | 102km/h | 3758m | -3.8m/s | -4.6°C | 80% | 637.6hPa | 2.6V | 07:35:03 | 02:32:04 | 00:00:00 | |
| DO2SHX-10 | 2026-09-04 14:51:03 | 53.99994 | 11.33647 | 112° | 99km/h | 3767m | -4.2m/s | -4.6°C | 77.9% | 637.0hPa | 2.7V | 00:00:00 | 02:32:02 | 00:00:00 | |
| DM0DOS-11 | 2026-09-04 14:51:01 | 54.00059 | 11.33369 | 111° | 100km/h | 3795m | -4.1m/s | -4.9°C | 79.1% | 634.7hPa | 2.7V | 07:34:26 | 02:31:55 | 00:00:00 | |
| EDDB2-12 | 2026-09-04 14:50:58 | 54.00096 | 11.33206 | 110° | 102km/h | 3812m | -4.6m/s | -5.0°C | 76.3% | 633.3hPa | 2.6V | 00:00:00 | 00:00:00 | 00:00:00 | |
| DO2SHX-10 | 2026-09-04 14:50:57 | 54.00050 | 11.33410 | 112° | 100km/h | 3791m | -4.2m/s | -4.8°C | 79.2% | 635.0hPa | 2.6V | 00:00:00 | 02:31:56 | 00:00:00 | |
| DM0DOS-11 | 2026-09-04 14:50:56 | 54.00105 | 11.33165 | 110° | 102km/h | 3816m | -4.1m/s | -5.1°C | 79.6% | 632.9hPa | 2.6V | 07:34:31 | 02:31:50 | 00:00:00 | |
| DB0DAN | 2026-09-04 14:50:55 | 54.00068 | 11.33329 | 111° | 97km/h | 3799m | -4m/s | -4.9°C | 76.2% | 634.23hPa | 2.7V | 00:00:00 | 00:00:00 | 00:00:00 | |
| DL1XH1-15 | 2026-09-04 14:50:55 | 54.00068 | 11.33329 | 110° | 102km/h | 3799m | -4m/s | -4.9°C | 79% | 634.2hPa | 2.7V | 07:34:27 | 02:31:54 | 00:00:00 | |
| DL1XH-west | 2026-09-04 14:50:55 | 54.00068 | 11.33329 | 111° | 102km/h | 3799m | -4m/s | -4.9°C | 80.4% | 634.2hPa | 2.7V | 07:35:03 | 02:31:54 | 00:00:00 | |
| DO2SHX-10 | 2026-09-04 14:50:54 | 54.00077 | 11.33288 | 111° | 102km/h | 3804m | -4.5m/s | -4.9°C | 79.1% | 633.9hPa | 2.7V | 00:00:00 | 02:31:53 | 00:00:00 | |
| DJ2DS-15 | 2026-09-04 14:50:53 | 54.00086 | 11.33247 | 111° | 100km/h | 3808m | -3.7m/s | -4.9°C | 78.9% | 633.6hPa | 2.7V | 00:00:00 | 02:31:52 | 00:00:00 | |
| DM0DOS-11 | 2026-09-04 14:50:51 | 54.00152 | 11.32963 | 112° | 100km/h | 3837m | -3.9m/s | -5.3°C | 80.8% | 631.3hPa | 2.7V | 07:34:36 | 02:31:45 | 00:00:00 | |
| DO2SHX-10 | 2026-09-04 14:50:51 | 54.00105 | 11.33164 | 111° | 102km/h | 3816m | -4.1m/s | -5.0°C | 79.6% | 632.8hPa | 2.7V | 00:00:00 | 02:31:50 | 00:00:00 | |
| DO2SHX-10 | 2026-09-04 14:50:48 | 54.00132 | 11.33042 | 112° | 100km/h | 3829m | -4.0m/s | -5.2°C | 80.3% | 631.9hPa | 2.7V | 00:00:00 | 02:31:47 | 00:00:00 | |
| DM0DOS-11 | 2026-09-04 14:50:46 | 54.00199 | 11.32765 | 110° | 100km/h | 3856m | -3.9m/s | -5.5°C | 81.5% | 629.7hPa | 2.7V | 07:34:41 | 02:31:40 | 00:00:00 | |
| DL1XH-15 | 2026-09-04 14:50:45 | 54.00162 | 11.32923 | 112° | 100km/h | 3841m | -3.8m/s | -5.4°C | 81.1% | 630.9hPa | 2.7V | 07:34:37 | 02:31:44 | 00:00:00 | |
| DL1XH-west | 2026-09-04 14:50:45 | 54.00162 | 11.32923 | 112° | 100km/h | 3841m | -3.8m/s | -5.4°C | 83.2% | 631hPa | 2.7V | 07:35:03 | 02:31:44 | 00:00:00 | |
| AA1-15 | 2026-09-04 14:50:44 | 54.00171 | 11.32883 | 112° | 99km/h | 3844m | -4m/s | -5.4°C | 83.3% | 630.7hPa | 2.7V | 07:35:03 | 02:31:43 | 00:00:00 | |
| DO2SHX-10 | 2026-09-04 14:50:42 | 54.00190 | 11.32804 | 112° | 99km/h | 3852m | -3.6m/s | -5.4°C | 81.3% | 629.9hPa | 2.6V | 00:00:00 | 02:31:41 | 00:00:00 | |
| DM0DOS-11 | 2026-09-04 14:50:41 | 54.00241 | 11.32565 | 110° | 99km/h | 3873m | -3.4m/s | -5.7°C | 82.9% | 628.3hPa | 2.6V | 07:34:46 | 02:31:35 | 00:00:00 | |
| DO2SHX-10 | 2026-09-04 14:50:39 | 54.00216 | 11.32684 | 109° | 99km/h | 3863m | -3.6m/s | -5.5°C | 82.1% | 629.1hPa | 2.7V | 00:00:00 | 02:31:38 | 00:00:00 | |
| DK1YY | 2026-09-04 14:50:38 | 54.00232 | 11.32605 | 109° | 97km/h | 3870m | -3.9m/s | -5.7°C | 79.5% | 628.6hPa | 2.6V | 00:00:00 | 00:00:00 | 00:00:00 | |
| DL1XH-15 | 2026-09-04 14:50:35 | 54.00250 | 11.32525 | 111° | 102km/h | 3877m | -3.7m/s | -5.7°C | 83.2% | 628hPa | 2.6V | 07:34:47 | 02:31:34 | 00:00:00 | |
| DL1XH1-15 | 2026-09-04 14:50:35 | 54.00296 | 11.32317 | 109° | 104km/h | 3894m | -3.8m/s | -5.9°C | 83.9% | 626.5hPa | 2.7V | 07:34:52 | 02:31:29 | 00:00:00 | |
| DL1XH-west | 2026-09-04 14:50:34 | 54.00259 | 11.32484 | 111° | 102km/h | 3880m | -3.6m/s | -5.8°C | 84% | 627.8hPa | 2.7V | 07:35:03 | 02:31:33 | 00:00:00 | |
| AA1-15 | 2026-09-04 14:50:33 | 54.00268 | 11.32442 | 111° | 102km/h | 3884m | -3.3m/s | -5.8°C | 84.2% | 627.5hPa | 2.7V | 07:35:03 | 02:31:32 | 00:00:00 | |
| DJ2DS-15 | 2026-09-04 14:50:33 | 54.00268 | 11.32442 | 111° | 102km/h | 3884m | -3.2m/s | -5.8°C | 83.4% | 627.4hPa | 2.7V | 00:00:00 | 02:31:32 | 00:00:00 | |
| DM0DOS-11 | 2026-09-04 14:50:31 | 54.00287 | 11.32359 | 110° | 104km/h | 3890m | -3.8m/s | -5.9°C | 83.8% | 626.9hPa | 2.7V | 07:34:51 | 02:31:30 | 00:00:00 | |
| DM0DOS-11 | 2026-09-04 14:50:31 | 54.00330 | 11.32152 | 109° | 100km/h | 3909m | -3.2m/s | -6.1°C | 84.6% | 625.3hPa | 2.7V | 07:34:56 | 02:31:25 | 00:00:00 | |
| DO2SHX-10 | 2026-09-04 14:50:30 | 54.00296 | 11.32317 | 110° | 104km/h | 3894m | -3.8m/s | -5.9°C | 83.9% | 626.5hPa | 2.7V | 00:00:00 | 02:31:29 | 00:00:00 | |
| DO2SHX-10 | 2026-09-04 14:50:27 | 54.00321 | 11.32192 | 110° | 100km/h | 3906m | -3.2m/s | -6.0°C | 84.8% | 625.6hPa | 2.6V | 00:00:00 | 02:31:26 | 00:00:00 | |
| DM0DOS-11 | 2026-09-04 14:50:26 | 54.00372 | 11.31946 | 109° | 100km/h | 3929m | -4.9m/s | -6.3°C | 85.7% | 623.8hPa | 2.6V | 07:35:01 | 02:31:20 | 00:00:00 | |
| DL1XH-15 | 2026-09-04 14:50:25 | 54.00338 | 11.32111 | 109° | 100km/h | 3912m | -3.9m/s | -6.1°C | 84.7% | 625.1hPa | 2.7V | 07:34:57 | 02:31:24 | 00:00:00 | |
| DL1XH-15 | 2026-09-04 14:50:25 | 54.00381 | 11.31905 | 110° | 100km/h | 3934m | -4.8m/s | -6.3°C | 86.2% | 623.5hPa | 2.6V | 07:35:02 | 02:31:19 | 00:00:00 | |
| DL1XH-west | 2026-09-04 14:50:24 | 54.00347 | 11.32070 | 110° | 102km/h | 3916m | -3.9m/s | -6.2°C | 85.4% | 624.9hPa | 2.7V | 07:35:03 | 02:31:23 | 00:00:00 | |
| AA1-15 | 2026-09-04 14:50:22 | 54.00364 | 11.31987 | 109° | 102km/h | 3925m | -4.8m/s | -6.2°C | 86.4% | 624.2hPa | 2.7V | 07:35:03 | 02:31:21 | 00:00:00 | |
| DO2SHX-10 | 2026-09-04 14:50:21 | 54.00372 | 11.31946 | 110° | 102km/h | 3929m | -4.9m/s | -6.2°C | 85.7% | 623.7hPa | 2.6V | 00:00:00 | 02:31:20 | 00:00:00 | |
| DO2SHX-10 | 2026-09-04 14:50:18 | 54.00400 | 11.31823 | 112° | 104km/h | 3944m | -5.2m/s | -6.4°C | 86.7% | 622.5hPa | 2.7V | 00:00:00 | 02:31:17 | 00:00:00 | |
| DM0DOS-11 | 2026-09-04 14:50:16 | 54.00465 | 11.31532 | 110° | 104km/h | 3979m | -5.2m/s | -6.8°C | 88.1% | 619.8hPa | 2.7V | 07:35:11 | 02:31:10 | 00:00:00 | |
| DL1XH1-15 | 2026-09-04 14:50:15 | 54.00428 | 11.31697 | 110° | 104km/h | 3958m | -5m/s | -6.6°C | 87.1% | 621.4hPa | 2.7V | 07:35:07 | 02:31:14 | 00:00:00 | |
| DL1XH1-15 | 2026-09-04 14:50:15 | 54.00474 | 11.31490 | 110° | 104km/h | 3983m | -4.8m/s | -6.8°C | 87.4% | 619.4hPa | 2.7V | 07:35:12 | 02:31:09 | 00:00:00 | |
| DL1XH-west | 2026-09-04 14:50:13 | 54.00446 | 11.31614 | 111° | 102km/h | 3968m | -5m/s | -6.7°C | 89% | 620.7hPa | 2.6V | 07:35:54 | 02:31:12 | 00:00:00 | |
| DJ2DS-15 | 2026-09-04 14:50:13 | 54.00446 | 11.31614 | 112° | 106km/h | 3968m | -5.0m/s | -6.7°C | 88.1% | 620.6hPa | 2.6V | 07:35:00 | 02:31:12 | 00:00:00 | |
| DO2SHX-10 | 2026-09-04 14:50:12 | 54.00456 | 11.31573 | 112° | 104km/h | 3973m | -5.1m/s | -6.7°C | 88.2% | 620.1hPa | 2.6V | 07:35:00 | 02:31:11 | 00:00:00 | |
| DM0DOS-11 | 2026-09-04 14:50:11 | 54.00510 | 11.31323 | 109° | 106km/h | 4002m | -4.8m/s | -7°C | 88.2% | 617.9hPa | 2.6V | 07:35:16 | 02:31:05 | 00:00:00 | |
| AA1-15 | 2026-09-04 14:50:11 | 54.00465 | 11.31532 | 111° | 104km/h | 3979m | -5.2m/s | -6.8°C | 88.6% | 619.8hPa | 2.7V | 07:35:54 | 02:31:10 | 00:00:00 | |
| DO2SHX-10 | 2026-09-04 14:50:09 | 54.00483 | 11.31448 | 110° | 104km/h | 3988m | -4.7m/s | -6.8°C | 87.6% | 619.0hPa | 2.7V | 00:00:00 | 02:31:08 | 00:00:00 | |
| DK1YY | 2026-09-04 14:50:07 | 54.00501 | 11.31365 | 110° | 102km/h | 3997m | -4.9m/s | -6.9°C | 84.5% | 618.2hPa | 2.7V | 00:00:00 | 00:00:00 | 00:00:00 | |
| DM0DOS-11 | 2026-09-04 14:50:06 | 54.00557 | 11.31109 | 110° | 108km/h | 4026m | -4.7m/s | -7.2°C | 89.6% | 615.9hPa | 2.7V | 07:35:21 | 02:31:00 | 00:00:00 | |
| DL1XH-west | 2026-09-04 14:50:03 | 54.00537 | 11.31195 | 111° | 106km/h | 4017m | -5.2m/s | -7.1°C | 89.1% | 616.8hPa | 2.7V | 07:35:54 | 02:31:02 | 00:00:00 | |
| DO2SHX-10 | 2026-09-04 14:50:03 | 54.00537 | 11.31195 | 111° | 108km/h | 4017m | -5.2m/s | -7.1°C | 88.8% | 616.8hPa | 2.7V | 00:00:00 | 02:31:02 | 00:00:00 | |
| DL1XH-15 | 2026-09-04 14:50:00 | 54.00566 | 11.31066 | 110° | 108km/h | 4031m | -4.7m/s | -7.3°C | 89.9% | 615.6hPa | 2.7V | 07:35:22 | 02:30:59 | 00:00:00 | |
| AA1-15 | 2026-09-04 14:50:00 | 54.00567 | 11.31066 | 111° | 108km/h | 4031m | -4.7m/s | -7.3°C | 89.2% | 615.6hPa | 2.7V | 07:35:54 | 02:30:59 | 00:00:00 | |
| DO2SHX-10 | 2026-09-04 14:50:00 | 54.00567 | 11.31066 | 111° | 106km/h | 4031m | -4.6m/s | -7.2°C | 89.9% | 615.5hPa | 2.7V | 00:00:00 | 02:30:59 | 00:00:00 | |
| DM0DOS-11 | 2026-09-04 14:49:56 | 54.00605 | 11.30895 | 111° | 106km/h | 4049m | -4.3m/s | -7.4°C | 90.4% | 614.2hPa | 2.7V | 07:35:26 | 02:30:55 | 00:00:00 | |
| DM0DOS-11 | 2026-09-04 14:49:56 | 54.00655 | 11.30686 | 111° | 106km/h | 4070m | -4.4m/s | -7.6°C | 91.5% | 612.5hPa | 2.6V | 07:35:31 | 02:30:50 | 00:00:00 | |
| DL1XH1-15 | 2026-09-04 14:49:55 | 54.00665 | 11.30644 | 112° | 106km/h | 4074m | -4.2m/s | -7.6°C | 92.1% | 612.1hPa | 2.6V | 07:35:32 | 02:30:49 | 00:00:00 | |
| DL1XH-west | 2026-09-04 14:49:52 | 54.00645 | 11.30728 | 112° | 106km/h | 4065m | -4.6m/s | -7.6°C | 89.4% | 612.9hPa | 2.7V | 07:35:54 | 02:30:51 | 00:00:00 | |
| AA1-15 | 2026-09-04 14:49:49 | 54.00675 | 11.30602 | 112° | 106km/h | 4078m | -4m/s | -7.7°C | 90.1% | 611.9hPa | 2.7V | 07:35:54 | 02:30:48 | 00:00:00 | |
| DO2SHX-10 | 2026-09-04 14:49:48 | 54.00684 | 11.30559 | 112° | 110km/h | 4082m | -4.2m/s | -7.6°C | 91.9% | 611.5hPa | 2.7V | 07:35:00 | 02:30:47 | 00:00:00 | |
| DM0DOS-11 | 2026-09-04 14:49:46 | 54.00750 | 11.30245 | 108° | 111km/h | 4113m | -4.5m/s | -7.9°C | 92.5% | 609.4hPa | 2.7V | 07:35:41 | 02:30:40 | 00:00:00 | |
| DL1XH1-15 | 2026-09-04 14:49:45 | 54.00713 | 11.30426 | 109° | 111km/h | 4095m | -4.2m/s | -7.8°C | 92.2% | 610.6hPa | 2.7V | 07:35:37 | 02:30:44 | 00:00:00 | |
| DL1XH1-15 | 2026-09-04 14:49:45 | 54.00759 | 11.30200 | 107° | 111km/h | 4118m | -4.3m/s | -7.9°C | 92.7% | 609hPa | 2.7V | 07:35:42 | 02:30:39 | 00:00:00 | |
| BIOWL1-15 | 2026-09-04 14:49:41 | 54.00750 | 11.30245 | 108° | 111km/h | 4113m | -4.5m/s | -7.9°C | 91% | 609.4hPa | 2.7V | 07:35:54 | 02:30:40 | 00:00:00 | |
| AA1-15 | 2026-09-04 14:49:39 | 54.00768 | 11.30154 | 109° | 111km/h | 4122m | -3.9m/s | -8°C | 90.7% | 608.6hPa | 2.7V | 07:35:54 | 02:30:38 | 00:00:00 | |
| DO2SHX-10 | 2026-09-04 14:49:39 | 54.00768 | 11.30154 | 109° | 113km/h | 4122m | -3.8m/s | -7.9°C | 93.2% | 608.5hPa | 2.7V | 00:00:00 | 02:30:38 | 00:00:00 | |
| DM0DOS-11 | 2026-09-04 14:49:36 | 54.00834 | 11.29781 | 105° | 113km/h | 4153m | -3.6m/s | -8.2°C | 95.2% | 606.4hPa | 2.7V | 07:35:51 | 02:30:30 | 00:00:00 | |
| DO2SHX-10 | 2026-09-04 14:49:36 | 54.00794 | 11.30016 | 107° | 111km/h | 4135m | -3.6m/s | -8.0°C | 93.8% | 607.7hPa | 2.6V | 00:00:00 | 02:30:35 | 00:00:00 | |
| DL1XH1-15 | 2026-09-04 14:49:35 | 54.00842 | 11.29734 | 104° | 115km/h | 4157m | -3.7m/s | -8.3°C | 95.4% | 606hPa | 2.7V | 07:35:52 | 02:30:29 | 00:00:00 | |
| BIOWL9-15 | 2026-09-04 14:49:34 | 54.00810 | 11.29924 | 105° | 111km/h | 4142m | -3.5m/s | -8.1°C | 90.9% | 607.2hPa | 2.7V | 00:00:00 | 00:00:00 | 00:00:00 | |
| DO2SHX-10 | 2026-09-04 14:49:33 | 54.00818 | 11.29877 | 107° | 115km/h | 4146m | -3.6m/s | -8.1°C | 94.6% | 606.9hPa | 2.7V | 00:00:00 | 02:30:32 | 00:00:00 | |
| DM0DOS-11 | 2026-09-04 14:49:31 | 54.00871 | 11.29542 | 104° | 115km/h | 4170m | -3.6m/s | -8.4°C | 95.9% | 605.1hPa | 2.7V | 07:35:56 | 02:30:25 | 00:00:00 | |
| DL1XH-west | 2026-09-04 14:49:30 | 54.00841 | 11.29734 | 104° | 115km/h | 4157m | -3.7m/s | -8.3°C | 90.8% | 606hPa | 2.7V | 07:35:54 | 02:30:29 | 00:00:00 | |
| AA1-15 | 2026-09-04 14:49:28 | 54.00856 | 11.29639 | 104° | 115km/h | 4163m | -3.3m/s | -8.3°C | 90.2% | 605.6hPa | 2.6V | 07:35:54 | 02:30:27 | 00:00:00 | |
| DO2SHX-10 | 2026-09-04 14:49:27 | 54.00864 | 11.29590 | 106° | 117km/h | 4167m | -2.9m/s | -8.3°C | 95.6% | 605.2hPa | 2.7V | 00:00:00 | 02:30:26 | 00:00:00 | |
| DM0DOS-11 | 2026-09-04 14:49:26 | 54.00904 | 11.29295 | 100° | 119km/h | 4190m | -4.4m/s | -8.5°C | 96.3% | 603.4hPa | 2.6V | 07:36:01 | 02:30:20 | 00:00:00 | |
| DL1XH1-15 | 2026-09-04 14:49:25 | 54.00909 | 11.29244 | 100° | 119km/h | 4194m | -3.8m/s | -8.6°C | 96.8% | 603.1hPa | 2.7V | 07:36:02 | 02:30:19 | 00:00:00 | |
| BIOWL1-15 | 2026-09-04 14:49:21 | 54.00915 | 11.29194 | 100° | 119km/h | 4198m | -3.8m/s | -8.6°C | 92.3% | 602.9hPa | 2.7V | 07:36:45 | 02:30:18 | 00:00:00 | |
| DO2SHX-10 | 2026-09-04 14:49:21 | 54.00904 | 11.29295 | 101° | 119km/h | 4190m | -4.4m/s | -8.5°C | 96.3% | 603.4hPa | 2.6V | 00:00:00 | 02:30:20 | 00:00:00 | |
| DL1XH1-15 | 2026-09-04 14:49:20 | 54.00939 | 11.28991 | 101° | 120km/h | 4213m | -2.9m/s | -8.6°C | 97.7% | 601.8hPa | 2.6V | 07:36:07 | 02:30:14 | 00:00:00 | |
| DL1XH-west | 2026-09-04 14:49:20 | 54.00909 | 11.29244 | 101° | 119km/h | 4194m | -3.8m/s | -8.6°C | 91.8% | 603.1hPa | 2.7V | 07:36:45 | 02:30:19 | 00:00:00 | |
| AA1-15 | 2026-09-04 14:49:17 | 54.00927 | 11.29092 | 102° | 120km/h | 4206m | -4.2m/s | -8.7°C | 92.5% | 602.5hPa | 2.7V | 07:36:45 | 02:30:16 | 00:00:00 | |
| DM0DOS-11 | 2026-09-04 14:49:16 | 54.00933 | 11.29042 | 101° | 120km/h | 4210m | -3.4m/s | -8.7°C | 98% | 602.1hPa | 2.7V | 07:36:06 | 02:30:15 | 00:00:00 | |
| DO2SHX-10 | 2026-09-04 14:49:15 | 54.00939 | 11.28991 | 102° | 120km/h | 4213m | -2.9m/s | -8.6°C | 97.7% | 601.8hPa | 2.7V | 00:00:00 | 02:30:14 | 00:00:00 | |
| DJ2DS-15 | 2026-09-04 14:49:13 | 54.00953 | 11.28890 | 104° | 124km/h | 4219m | -4.5m/s | -8.7°C | 98.1% | 601.4hPa | 2.7V | 00:00:00 | 02:30:12 | 00:00:00 | |
| DO2SHX-10 | 2026-09-04 14:49:12 | 54.00960 | 11.28839 | 103° | 122km/h | 4224m | -4.1m/s | -8.7°C | 98.0% | 601.0hPa | 2.7V | 00:00:00 | 02:30:11 | 00:00:00 | |
| DL1XH1-15 | 2026-09-04 14:49:10 | 54.00972 | 11.28736 | 99° | 122km/h | 4232m | -4m/s | -8.7°C | 96.7% | 600.5hPa | 2.7V | 07:36:12 | 02:30:09 | 00:00:00 | |
| DL1XH-15 | 2026-09-04 14:49:10 | 54.00989 | 11.28472 | 95° | 124km/h | 4250m | -4.2m/s | -7.7°C | 93.2% | 599hPa | 2.7V | 07:36:17 | 02:30:04 | 00:00:00 | |
| DL1XH-west | 2026-09-04 14:49:09 | 54.00976 | 11.28684 | 98° | 124km/h | 4236m | -3.5m/s | -8.5°C | 89.4% | 600.1hPa | 2.7V | 07:36:45 | 02:30:08 | 00:00:00 | |
| BIOWL1-15 | 2026-09-04 14:49:08 | 54.00980 | 11.28631 | 96° | 124km/h | 4239m | -3.5m/s | -7.7°C | 90% | 599.9hPa | 2.6V | 07:36:45 | 02:30:07 | 00:00:00 | |
| DM0DOS-11 | 2026-09-04 14:49:06 | 54.00986 | 11.28525 | 94° | 124km/h | 4246m | -3.7m/s | -7.7°C | 92.8% | 599.3hPa | 2.7V | 07:36:16 | 02:30:05 | 00:00:00 | |
| AA1-15 | 2026-09-04 14:49:06 | 54.00986 | 11.28525 | 95° | 124km/h | 4246m | -3.7m/s | -7.7°C | 90.7% | 599.3hPa | 2.7V | 07:36:45 | 02:30:05 | 00:00:00 | |
| DO2SHX-10 | 2026-09-04 14:49:06 | 54.00986 | 11.28525 | 95° | 124km/h | 4246m | -3.6m/s | -7.6°C | 92.8% | 599.2hPa | 2.6V | 00:00:00 | 02:30:05 | 00:00:00 | |
| DK1YY | 2026-09-04 14:49:05 | 54.00989 | 11.28472 | 95° | 124km/h | 4250m | -4.2m/s | -7.8°C | 89.4% | 599.1hPa | 2.6V | 00:00:00 | 00:00:00 | 00:00:00 | |
| DO2SHX-10 | 2026-09-04 14:49:03 | 54.00995 | 11.28366 | 96° | 124km/h | 4258m | -5.5m/s | -7.7°C | 92.9% | 598.4hPa | 2.6V | 00:00:00 | 02:30:02 | 00:00:00 | |
| DL1XH1-15 | 2026-09-04 14:49:00 | 54.01004 | 11.28206 | 96° | 124km/h | 4273m | -5.4m/s | -7.6°C | 92.2% | 597.2hPa | 2.6V | 07:36:22 | 02:29:59 | 00:00:00 | |
| DL1XH1-15 | 2026-09-04 14:49:00 | 54.01022 | 11.27941 | 97° | 126km/h | 4293m | -3m/s | -7.8°C | 93.2% | 595.8hPa | 2.7V | 07:36:27 | 02:29:54 | 00:00:00 | |
| DL1XH-west | 2026-09-04 14:48:58 | 54.01010 | 11.28100 | 97° | 124km/h | 4282m | -4.1m/s | -7.7°C | 91.3% | 596.6hPa | 2.7V | 07:36:45 | 02:29:57 | 00:00:00 | |
| BIOWL1-15 | 2026-09-04 14:48:57 | 54.01014 | 11.28047 | 97° | 124km/h | 4286m | -3.9m/s | -7.8°C | 90.4% | 596.3hPa | 2.7V | 07:36:45 | 02:29:56 | 00:00:00 | |
| DO2SHX-10 | 2026-09-04 14:48:57 | 54.01014 | 11.28047 | 98° | 124km/h | 4286m | -3.9m/s | -7.8°C | 92.9% | 596.2hPa | 2.7V | 00:00:00 | 02:29:56 | 00:00:00 | |
| DM0DOS-11 | 2026-09-04 14:48:56 | 54.01037 | 11.27724 | 95° | 126km/h | 4307m | -3.6m/s | -8.1°C | 94.2% | 594.7hPa | 2.7V | 07:36:31 | 02:29:50 | 00:00:00 | |
| DB0DAN | 2026-09-04 14:48:55 | 54.01022 | 11.27941 | 97° | 120km/h | 4293m | -3m/s | -7.8°C | 89.4% | 595.8hPa | 2.7V | 00:00:00 | 00:00:00 | 00:00:00 | |
| AA1-15 | 2026-09-04 14:48:55 | 54.01022 | 11.27941 | 97° | 126km/h | 4293m | -3m/s | -7.8°C | 91% | 595.8hPa | 2.7V | 07:36:45 | 02:29:54 | 00:00:00 | |
| DO2SHX-10 | 2026-09-04 14:48:54 | 54.01026 | 11.27887 | 98° | 128km/h | 4296m | -3.7m/s | -7.9°C | 93.3% | 595.5hPa | 2.6V | 00:00:00 | 02:29:53 | 00:00:00 | |
| DJ2DS-15 | 2026-09-04 14:48:53 | 54.01030 | 11.27832 | 97° | 135km/h | 4300m | -3.8m/s | -8.0°C | 93.4% | 595.2hPa | 2.6V | 00:00:00 | 02:29:52 | 00:00:00 | |
| DM0DOS-11 | 2026-09-04 14:48:51 | 54.01050 | 11.27446 | 93° | 135km/h | 4325m | -3.8m/s | -8.1°C | 94.2% | 593.4hPa | 2.6V | 07:36:36 | 02:29:45 | 00:00:00 | |
| DF8AY | 2026-09-04 14:48:51 | 54.01037 | 11.27724 | 96° | 126km/h | 4308m | -3.6m/s | -8.1°C | 88.5% | 594.7hPa | 2.7V | 07:36:45 | 02:29:50 | 00:00:00 | |
| DL1XH-west | 2026-09-04 14:48:48 | 54.01045 | 11.27560 | 95° | 130km/h | 4319m | -3.4m/s | -8.1°C | 88.8% | 593.8hPa | 2.7V | 07:36:45 | 02:29:47 | 00:00:00 | |
| BIOWL1-15 | 2026-09-04 14:48:47 | 54.01048 | 11.27503 | 94° | 133km/h | 4322m | -2.5m/s | -8.1°C | 89.5% | 593.6hPa | 2.7V | 07:36:45 | 02:29:46 | 00:00:00 | |
| DM0DOS-11 | 2026-09-04 14:48:46 | 54.01061 | 11.27149 | 94° | 137km/h | 4343m | -2.8m/s | -8°C | 95% | 592hPa | 2.7V | 07:36:41 | 02:29:40 | 00:00:00 | |
| AA1-15 | 2026-09-04 14:48:45 | 54.01052 | 11.27387 | 93° | 139km/h | 4329m | -3.8m/s | -8.1°C | 87.8% | 593hPa | 2.6V | 07:36:45 | 02:29:44 | 00:00:00 | |
| DF8AY | 2026-09-04 14:48:40 | 54.01064 | 11.27090 | 95° | 137km/h | 4346m | -4m/s | -8.1°C | 89.4% | 591.7hPa | 2.7V | 07:36:45 | 02:29:39 | 00:00:00 | |
| DL1XH-west | 2026-09-04 14:48:37 | 54.01072 | 11.26915 | 94° | 137km/h | 4356m | -2.8m/s | -8°C | 90.8% | 590.9hPa | 2.7V | 07:36:45 | 02:29:36 | 00:00:00 | |
| DM0DOS-11 | 2026-09-04 14:48:36 | 54.01074 | 11.26857 | 93° | 137km/h | 4359m | -3.2m/s | -8.1°C | 95.8% | 590.6hPa | 2.7V | 07:36:46 | 02:29:35 | 00:00:00 | |
| BIOWL1-15 | 2026-09-04 14:48:36 | 54.01074 | 11.26857 | 94° | 137km/h | 4359m | -3.2m/s | -8.1°C | 91.3% | 590.6hPa | 2.7V | 07:37:36 | 02:29:35 | 00:00:00 | |
| DL1XH1-15 | 2026-09-04 14:48:35 | 54.01076 | 11.26798 | 92° | 137km/h | 4362m | -2.6m/s | -8.4°C | 95.9% | 590.4hPa | 2.7V | 07:36:47 | 02:29:34 | 00:00:00 | |
| DL1XH1-15 | 2026-09-04 14:48:35 | 54.01085 | 11.26506 | 93° | 135km/h | 4374m | -1.6m/s | -8.3°C | 95.9% | 589.4hPa | 2.7V | 07:36:52 | 02:29:29 | 00:00:00 | |
| AA1-15 | 2026-09-04 14:48:34 | 54.01078 | 11.26739 | 93° | 139km/h | 4365m | -2.5m/s | -8.4°C | 90.5% | 590.2hPa | 2.7V | 07:37:36 | 02:29:33 | 00:00:00 | |
| DF8AY | 2026-09-04 14:48:29 | 54.01087 | 11.26448 | 93° | 135km/h | 4375m | -2.4m/s | -8.2°C | 89.8% | 589.3hPa | 2.7V | 07:38:27 | 02:29:28 | 00:00:00 | |
| DM0DOS-11 | 2026-09-04 14:48:26 | 54.01088 | 11.26275 | 89° | 135km/h | 4385m | -3.2m/s | -6.8°C | 92.1% | 588.7hPa | 2.7V | 07:36:56 | 02:29:25 | 00:00:00 | |
| DL1XH-west | 2026-09-04 14:48:26 | 54.01088 | 11.26275 | 89° | 135km/h | 4385m | -3.2m/s | -6.8°C | 91% | 588.7hPa | 2.7V | 07:37:36 | 02:29:25 | 00:00:00 | |
| DL1XH1-15 | 2026-09-04 14:48:25 | 54.01088 | 11.26217 | 89° | 135km/h | 4389m | -3.5m/s | -6.6°C | 91.3% | 588.3hPa | 2.6V | 07:36:57 | 02:29:24 | 00:00:00 | |
| AA1-15 | 2026-09-04 14:48:24 | 54.01087 | 11.26158 | 89° | 137km/h | 4392m | -3.1m/s | -6.6°C | 89.3% | 588.1hPa | 2.6V | 07:37:36 | 02:29:23 | 00:00:00 | |
| DO2SHX-10 | 2026-09-04 14:48:24 | 54.01087 | 11.26158 | 90° | 139km/h | 4392m | -3.0m/s | -6.6°C | 91.6% | 588.0hPa | 2.6V | 00:00:00 | 02:29:23 | 00:00:00 | |
| DM0DOS-11 | 2026-09-04 14:48:21 | 54.01085 | 11.25671 | 89° | 144km/h | 4416m | -3.4m/s | -7.2°C | 94.1% | 586.2hPa | 2.7V | 07:37:06 | 02:29:15 | 00:00:00 | |
| DF8AY | 2026-09-04 14:48:18 | 54.01085 | 11.25794 | 90° | 144km/h | 4410m | -3.2m/s | -6.7°C | 91% | 586.7hPa | 2.6V | 07:38:27 | 02:29:17 | 00:00:00 | |
| DO2SHX-10 | 2026-09-04 14:48:18 | 54.01085 | 11.25794 | 91° | 144km/h | 4410m | -3.2m/s | -6.7°C | 92.6% | 586.7hPa | 2.6V | 00:00:00 | 02:29:17 | 00:00:00 | |
| DM0DOS-11 | 2026-09-04 14:48:16 | 54.01081 | 11.25365 | 87° | 142km/h | 4432m | -3.4m/s | -7.5°C | 94.9% | 585.1hPa | 2.6V | 07:37:11 | 02:29:10 | 00:00:00 | |
| BIOWL1-15 | 2026-09-04 14:48:16 | 54.01085 | 11.25671 | 89° | 144km/h | 4416m | -3.4m/s | -7.2°C | 91.3% | 586.2hPa | 2.7V | 07:37:36 | 02:29:15 | 00:00:00 | |
| DL1XH-15 | 2026-09-04 14:48:15 | 54.01084 | 11.25609 | 89° | 144km/h | 4420m | -3.6m/s | -7.2°C | 94.7% | 586hPa | 2.7V | 07:37:07 | 02:29:14 | 00:00:00 | |
| DL1XH-west | 2026-09-04 14:48:15 | 54.01084 | 11.25609 | 89° | 144km/h | 4420m | -3.6m/s | -7.2°C | 92.6% | 586hPa | 2.7V | 07:37:36 | 02:29:14 | 00:00:00 | |
| AA1-15 | 2026-09-04 14:48:13 | 54.01083 | 11.25487 | 89° | 142km/h | 4426m | -3.3m/s | -7.4°C | 92.9% | 585.5hPa | 2.7V | 07:37:36 | 02:29:12 | 00:00:00 | |
| DJ2DS-15 | 2026-09-04 14:48:13 | 54.01083 | 11.25486 | 90° | 144km/h | 4426m | -3.2m/s | -7.3°C | 94.6% | 585.5hPa | 2.7V | 00:00:00 | 02:29:12 | 00:00:00 | |
| DO2SHX-10 | 2026-09-04 14:48:12 | 54.01083 | 11.25425 | 89° | 142km/h | 4429m | -2.9m/s | -7.4°C | 94.8% | 585.3hPa | 2.7V | 07:37:00 | 02:29:11 | 00:00:00 | |
| DM0DOS-11 | 2026-09-04 14:48:11 | 54.01073 | 11.25060 | 87° | 141km/h | 4446m | -3.3m/s | -6.9°C | 93.2% | 584hPa | 2.7V | 07:37:16 | 02:29:05 | 00:00:00 | |
| DB0DAN | 2026-09-04 14:48:10 | 54.01080 | 11.25304 | 87° | 135km/h | 4435m | -2.8m/s | -7.4°C | 91.3% | 584.8hPa | 2.6V | 00:00:00 | 00:00:00 | 00:00:00 | |
| DF8AY | 2026-09-04 14:48:07 | 54.01075 | 11.25121 | 87° | 142km/h | 4443m | -2.8m/s | -7.1°C | 90.3% | 584.3hPa | 2.7V | 07:38:27 | 02:29:06 | 00:00:00 | |
| DM0DOS-11 | 2026-09-04 14:48:06 | 54.01065 | 11.24753 | 87° | 148km/h | 4461m | -3m/s | -6.8°C | 93.4% | 583hPa | 2.7V | 07:37:21 | 02:29:00 | 00:00:00 | |
| DL1XH-15 | 2026-09-04 14:48:05 | 54.01072 | 11.25000 | 87° | 141km/h | 4449m | -3.2m/s | -6.8°C | 93.5% | 583.8hPa | 2.7V | 07:37:17 | 02:29:04 | 00:00:00 | |
| DL1XH1-15 | 2026-09-04 14:48:05 | 54.01064 | 11.24690 | 86° | 146km/h | 4464m | -3m/s | -6.7°C | 93.4% | 582.8hPa | 2.7V | 07:37:22 | 02:28:59 | 00:00:00 | |
| BIOWL1-15 | 2026-09-04 14:48:05 | 54.01072 | 11.25000 | 87° | 141km/h | 4449m | -3.2m/s | -6.8°C | 90.3% | 583.8hPa | 2.7V | 07:37:36 | 02:29:04 | 00:00:00 | |
| DL1XH-west | 2026-09-04 14:48:04 | 54.01070 | 11.24939 | 87° | 142km/h | 4452m | -2.8m/s | -6.8°C | 90.7% | 583.6hPa | 2.6V | 07:37:36 | 02:29:03 | 00:00:00 | |
| AA1-15 | 2026-09-04 14:48:02 | 54.01067 | 11.24816 | 88° | 146km/h | 4458m | -3.6m/s | -6.8°C | 90.5% | 583.1hPa | 2.7V | 07:37:36 | 02:29:01 | 00:00:00 | |
| BIOWL9-15 | 2026-09-04 14:48:01 | 54.01065 | 11.24753 | 87° | 146km/h | 4461m | -3.0m/s | -6.8°C | 89.8% | 583.0hPa | 2.7V | 00:00:00 | 00:00:00 | 00:00:00 | |
| DL1XH1-15 | 2026-09-04 14:48:00 | 54.01053 | 11.24374 | 85° | 146km/h | 4479m | -3m/s | -6.8°C | 93.8% | 581.6hPa | 2.7V | 07:37:27 | 02:28:54 | 00:00:00 | |
| DF8AY | 2026-09-04 14:47:57 | 54.01058 | 11.24500 | 87° | 148km/h | 4474m | -3.4m/s | -6.8°C | 90.5% | 582.1hPa | 2.6V | 07:38:27 | 02:28:56 | 00:00:00 | |
| DM0DOS-11 | 2026-09-04 14:47:56 | 54.01056 | 11.24437 | 86° | 148km/h | 4477m | -2.9m/s | -6.8°C | 93.5% | 581.9hPa | 2.6V | 07:37:26 | 02:28:55 | 00:00:00 | |
| DM0DOS-11 | 2026-09-04 14:47:56 | 54.01042 | 11.24121 | 85° | 148km/h | 4491m | -3.2m/s | -6.9°C | 94.1% | 580.6hPa | 2.7V | 07:37:31 | 02:28:50 | 00:00:00 | |
| DL1XH1-15 | 2026-09-04 14:47:55 | 54.01038 | 11.24057 | 84° | 148km/h | 4494m | -2.4m/s | -6.9°C | 94.4% | 580.5hPa | 2.6V | 07:37:32 | 02:28:49 | 00:00:00 | |
| DL1XH-west | 2026-09-04 14:47:54 | 54.01050 | 11.24311 | 86° | 148km/h | 4483m | -3.3m/s | -6.8°C | 91% | 581.4hPa | 2.7V | 07:37:36 | 02:28:53 | 00:00:00 | |
| AA1-15 | 2026-09-04 14:47:52 | 54.01045 | 11.24184 | 86° | 148km/h | 4488m | -2.7m/s | -6.9°C | 91.4% | 580.9hPa | 2.7V | 07:37:36 | 02:28:51 | 00:00:00 | |
| DF8AY | 2026-09-04 14:47:47 | 54.01028 | 11.23869 | 85° | 146km/h | 4503m | -3.1m/s | -7°C | 92.7% | 579.9hPa | 2.7V | 07:38:27 | 02:28:46 | 00:00:00 | |
| DM0DOS-11 | 2026-09-04 14:47:46 | 54.01024 | 11.23806 | 84° | 146km/h | 4505m | -3m/s | -7°C | 94.9% | 579.7hPa | 2.7V | 07:37:36 | 02:28:45 | 00:00:00 | |
| DM0DOS-11 | 2026-09-04 14:47:46 | 54.01004 | 11.23497 | 83° | 146km/h | 4520m | -2.8m/s | -7.1°C | 94.5% | 578.5hPa | 2.7V | 07:37:41 | 02:28:40 | 00:00:00 | |
| DL1XH1-15 | 2026-09-04 14:47:45 | 54.01020 | 11.23744 | 83° | 146km/h | 4509m | -3.3m/s | -7°C | 95% | 579.4hPa | 2.7V | 07:37:37 | 02:28:44 | 00:00:00 | |
| DL1XH1-15 | 2026-09-04 14:47:45 | 54.00999 | 11.23435 | 82° | 144km/h | 4523m | -2.8m/s | -7°C | 94.5% | 578.4hPa | 2.7V | 07:37:42 | 02:28:39 | 00:00:00 | |
| DL1XH-west | 2026-09-04 14:47:43 | 54.01012 | 11.23621 | 84° | 144km/h | 4515m | -3.1m/s | -7°C | 93.2% | 579.1hPa | 2.6V | 07:38:27 | 02:28:42 | 00:00:00 | |
| DO2SHX-10 | 2026-09-04 14:47:42 | 54.01008 | 11.23559 | 84° | 144km/h | 4518m | -2.8m/s | -7.0°C | 94.8% | 578.8hPa | 2.6V | 00:00:00 | 02:28:41 | 00:00:00 | |
| DM0DOS-11 | 2026-09-04 14:47:41 | 54.00984 | 11.23189 | 85° | 146km/h | 4534m | -2.6m/s | -7°C | 94.3% | 577.6hPa | 2.6V | 07:37:46 | 02:28:35 | 00:00:00 | |
| AA1-15 | 2026-09-04 14:47:41 | 54.01004 | 11.23497 | 83° | 146km/h | 4520m | -2.8m/s | -7.1°C | 92.4% | 578.5hPa | 2.7V | 07:38:27 | 02:28:40 | 00:00:00 | |
| DB0DAN | 2026-09-04 14:47:40 | 54.01000 | 11.23435 | 82° | 137km/h | 4523m | -2.8m/s | -7°C | 90.8% | 578.37hPa | 2.7V | 00:00:00 | 00:00:00 | 00:00:00 | |
| DO2SHX-10 | 2026-09-04 14:47:39 | 54.00995 | 11.23374 | 84° | 144km/h | 4526m | -3.0m/s | -7.0°C | 94.4% | 578.2hPa | 2.7V | 00:00:00 | 02:28:38 | 00:00:00 | |
| D01LWL | 2026-09-04 14:47:38 | 54.00991 | 11.23313 | 83° | 142km/h | 4529m | -2.3m/s | -7.1°C | 91.2% | 578.0hPa | 2.7V | 00:00:00 | 00:00:00 | 00:00:00 | |
| BIOWL7-15 | 2026-09-04 14:47:37 | 54.00991 | 11.23312 | 85° | 142km/h | 4529m | -2.3m/s | -7.1°C | 91.2% | 578.0hPa | 2.7V | 00:00:00 | 00:00:00 | 00:00:00 | |
| DM0DOS-11 | 2026-09-04 14:47:36 | 54.00968 | 11.22875 | 83° | 144km/h | 4546m | -1.9m/s | -6.9°C | 94.1% | 576.8hPa | 2.7V | 07:37:51 | 02:28:30 | 00:00:00 | |
| DL1XH1-15 | 2026-09-04 14:47:35 | 54.00982 | 11.23126 | 85° | 148km/h | 4536m | -2.7m/s | -6.9°C | 93.9% | 577.5hPa | 2.6V | 07:37:47 | 02:28:34 | 00:00:00 | |
| DL1XH1-15 | 2026-09-04 14:47:35 | 54.00963 | 11.22814 | 82° | 141km/h | 4548m | -2.2m/s | -6.9°C | 94% | 576.6hPa | 2.7V | 07:37:52 | 02:28:29 | 00:00:00 | |
| DL1XH-west | 2026-09-04 14:47:33 | 54.00976 | 11.22999 | 85° | 148km/h | 4542m | -2.2m/s | -6.9°C | 90.8% | 577.1hPa | 2.7V | 07:38:27 | 02:28:32 | 00:00:00 | |
| AA1-15 | 2026-09-04 14:47:31 | 54.00968 | 11.22874 | 83° | 144km/h | 4546m | -1.9m/s | -6.9°C | 91.6% | 576.8hPa | 2.7V | 07:38:27 | 02:28:30 | 00:00:00 | |
| DF8AY | 2026-09-04 14:47:26 | 54.00943 | 11.22573 | 81° | 144km/h | 4559m | -2.9m/s | -6.9°C | 90.9% | 575.9hPa | 2.7V | 07:38:27 | 02:28:25 | 00:00:00 | |
| DL1XH1-15 | 2026-09-04 14:47:26 | 54.00937 | 11.22512 | 80° | 144km/h | 4561m | -2.6m/s | -7°C | 94.1% | 575.7hPa | 2.7V | 07:37:57 | 02:28:24 | 00:00:00 | |
| DM0DOS-11 | 2026-09-04 14:47:25 | 54.00911 | 11.22201 | 83° | 150km/h | 4571m | -1.8m/s | -7°C | 94.8% | 574.8hPa | 2.7V | 07:38:02 | 02:28:19 | 00:00:00 | |
| DL1XH-west | 2026-09-04 14:47:23 | 54.00926 | 11.22388 | 81° | 146km/h | 4567m | -2m/s | -6.9°C | 90.2% | 575.2hPa | 2.7V | 07:38:27 | 02:28:22 | 00:00:00 | |
| AA1-15 | 2026-09-04 14:47:21 | 54.00915 | 11.22264 | 82° | 148km/h | 4570m | -1.2m/s | -7°C | 90.7% | 574.9hPa | 2.6V | 07:38:27 | 02:28:20 | 00:00:00 | |
| DO2SHX-10 | 2026-09-04 14:47:21 | 54.00915 | 11.22264 | 83° | 148km/h | 4570m | -1.1m/s | -6.9°C | 94.9% | 574.8hPa | 2.6V | 00:00:00 | 02:28:20 | 00:00:00 | |
| DO2SHX-10 | 2026-09-04 14:47:18 | 54.00901 | 11.22074 | 83° | 146km/h | 4576m | -2.0m/s | -6.9°C | 94.8% | 574.4hPa | 2.7V | 00:00:00 | 02:28:17 | 00:00:00 | |
| BIOWL7-15 | 2026-09-04 14:47:16 | 54.00896 | 11.22012 | 83° | 148km/h | 4578m | -2.7m/s | -7.0°C | 91.0% | 574.2hPa | 2.7V | 00:00:00 | 00:00:00 | 00:00:00 | |
| DM0DOS-11 | 2026-09-04 14:47:15 | 54.00856 | 11.21572 | 80° | 148km/h | 4598m | -2.4m/s | -6.8°C | 94.7% | 572.8hPa | 2.7V | 07:38:12 | 02:28:09 | 00:00:00 | |
| DL1XH-west | 2026-09-04 14:47:12 | 54.00869 | 11.21698 | 81° | 150km/h | 4593m | -2.7m/s | -6.8°C | 91.6% | 573.2hPa | 2.7V | 07:38:27 | 02:28:11 | 00:00:00 | |
| AA1-15 | 2026-09-04 14:47:10 | 54.00856 | 11.21572 | 80° | 148km/h | 4598m | -2.4m/s | -6.8°C | 91.4% | 572.8hPa | 2.7V | 07:38:27 | 02:28:09 | 00:00:00 | |
| DO2SHX-10 | 2026-09-04 14:47:09 | 54.00850 | 11.21509 | 81° | 148km/h | 4601m | -2.7m/s | -6.7°C | 94.6% | 572.6hPa | 2.7V | 00:00:00 | 02:28:08 | 00:00:00 | |
| D01LWL | 2026-09-04 14:47:07 | 54.00838 | 11.21383 | 80° | 148km/h | 4606m | -2.8m/s | -6.8°C | 91.0% | 572.2hPa | 2.7V | 00:00:00 | 00:00:00 | 00:00:00 | |
| DL1XH1-15 | 2026-09-04 14:47:05 | 54.00825 | 11.21256 | 79° | 150km/h | 4612m | -2.5m/s | -6.7°C | 95% | 571.9hPa | 2.7V | 07:38:17 | 02:28:04 | 00:00:00 | |
| BIOWL1-15 | 2026-09-04 14:47:02 | 54.00806 | 11.21065 | 80° | 151km/h | 4619m | -3.7m/s | -6.9°C | 92.3% | 571.5hPa | 2.6V | 07:38:27 | 02:28:01 | 00:00:00 | |
| DM0DOS-11 | 2026-09-04 14:47:00 | 54.00793 | 11.20937 | 79° | 150km/h | 4625m | -3m/s | -6.9°C | 95.1% | 571hPa | 2.7V | 07:38:22 | 02:27:59 | 00:00:00 | |
| AA1-15 | 2026-09-04 14:46:59 | 54.00786 | 11.20874 | 80° | 150km/h | 4628m | -2.8m/s | -6.9°C | 92.5% | 570.6hPa | 2.7V | 07:38:27 | 02:27:58 | 00:00:00 | |
| DF8AY | 2026-09-04 14:46:57 | 54.00773 | 11.20747 | 81° | 151km/h | 4633m | -2.5m/s | -7°C | 93% | 570.3hPa | 2.7V | 07:38:27 | 02:27:56 | 00:00:00 | |
| DO2SHX-10 | 2026-09-04 14:46:57 | 54.00773 | 11.20747 | 81° | 151km/h | 4633m | -2.5m/s | -6.9°C | 95.5% | 570.3hPa | 2.6V | 00:00:00 | 02:27:56 | 00:00:00 | |
| BIOWL7-15 | 2026-09-04 14:46:56 | 54.00773 | 11.20747 | 82° | 151km/h | 4633m | -2.5m/s | -7.0°C | 91.8% | 570.3hPa | 2.6V | 00:00:00 | 00:00:00 | 00:00:00 | |
| DB0DAN | 2026-09-04 14:46:55 | 54.00760 | 11.20618 | 80° | 146km/h | 4639m | -2.7m/s | -7°C | 91.9% | 569.83hPa | 2.6V | 00:00:00 | 00:00:00 | 00:00:00 | |
| DL1XH1-15 | 2026-09-04 14:46:55 | 54.00760 | 11.20618 | 80° | 153km/h | 4638m | -2.7m/s | -7°C | 95.7% | 569.8hPa | 2.6V | 07:38:27 | 02:27:54 | 00:00:00 | |
| DL1XH-west | 2026-09-04 14:46:51 | 54.00731 | 11.20359 | 79° | 151km/h | 4652m | -2.9m/s | -6.8°C | 93% | 569hPa | 2.7V | 07:39:18 | 02:27:50 | 00:00:00 | |
| DM0DOS-11 | 2026-09-04 14:46:50 | 54.00723 | 11.20295 | 79° | 153km/h | 4655m | -3.3m/s | -6.8°C | 95.6% | 568.7hPa | 2.7V | 07:38:32 | 02:27:49 | 00:00:00 | |
| AA1-15 | 2026-09-04 14:46:48 | 54.00709 | 11.20165 | 79° | 155km/h | 4661m | -3.2m/s | -6.8°C | 93.3% | 568.2hPa | 2.6V | 07:39:18 | 02:27:47 | 00:00:00 | |
| DF8AY | 2026-09-04 14:46:46 | 54.00693 | 11.20034 | 79° | 155km/h | 4668m | -3.3m/s | -6.8°C | 93.1% | 567.7hPa | 2.7V | 07:39:18 | 02:27:45 | 00:00:00 | |
| BIOWL1-15 | 2026-09-04 14:46:41 | 54.00655 | 11.19708 | 78° | 155km/h | 4685m | -3.3m/s | -6.8°C | 93.2% | 566.5hPa | 2.6V | 07:39:18 | 02:27:40 | 00:00:00 | |
| DB0DAN | 2026-09-04 14:46:40 | 54.00647 | 11.19643 | 78° | 146km/h | 4688m | -3.5m/s | -6.9°C | 92.5% | 566.28hPa | 2.7V | 00:00:00 | 00:00:00 | 00:00:00 | |
| DL1XH-west | 2026-09-04 14:46:40 | 54.00647 | 11.19643 | 78° | 153km/h | 4688m | -3.5m/s | -6.9°C | 93.3% | 566.3hPa | 2.7V | 07:39:18 | 02:27:39 | 00:00:00 | |
| AA1-15 | 2026-09-04 14:46:37 | 54.00623 | 11.19449 | 78° | 153km/h | 4699m | -3.8m/s | -6.9°C | 93.5% | 565.5hPa | 2.7V | 07:39:18 | 02:27:36 | 00:00:00 | |
| DF8AY | 2026-09-04 14:46:35 | 54.00606 | 11.19320 | 77° | 153km/h | 4707m | -3.6m/s | -6.9°C | 93.1% | 564.9hPa | 2.6V | 07:39:18 | 02:27:34 | 00:00:00 | |
| BIOWL1-15 | 2026-09-04 14:46:33 | 54.00570 | 11.19060 | 77° | 159km/h | 4722m | -3.8m/s | -7°C | 93.6% | 563.9hPa | 2.7V | 07:39:18 | 02:27:30 | 00:00:00 | |
| DL1XH-west | 2026-09-04 14:46:29 | 54.00552 | 11.18928 | 76° | 157km/h | 4730m | -4m/s | -7°C | 93.5% | 563.3hPa | 2.7V | 07:39:18 | 02:27:28 | 00:00:00 | |
| AA1-15 | 2026-09-04 14:46:26 | 54.00524 | 11.18732 | 76° | 157km/h | 4741m | -3.5m/s | -7°C | 93.8% | 562.5hPa | 2.7V | 07:39:18 | 02:27:25 | 00:00:00 | |
| DL1XH1-15 | 2026-09-04 14:46:25 | 54.00514 | 11.18668 | 75° | 155km/h | 4744m | -3.7m/s | -7°C | 96.7% | 562.2hPa | 2.7V | 07:38:57 | 02:27:24 | 00:00:00 | |
| DF8AY | 2026-09-04 14:46:24 | 54.00504 | 11.18603 | 75° | 153km/h | 4748m | -3.6m/s | -7.1°C | 93.9% | 561.9hPa | 2.7V | 07:39:18 | 02:27:23 | 00:00:00 | |
| BIOWL1-15 | 2026-09-04 14:46:20 | 54.00465 | 11.18347 | 75° | 153km/h | 4764m | -4.1m/s | -7.1°C | 93.9% | 560.7hPa | 2.7V | 07:39:18 | 02:27:19 | 00:00:00 | |
| DL1XH-west | 2026-09-04 14:46:19 | 54.00454 | 11.18284 | 75° | 151km/h | 4768m | -3.9m/s | -7.1°C | 94% | 560.5hPa | 2.7V | 07:39:18 | 02:27:18 | 00:00:00 | |
| EDDB2-12 | 2026-09-04 14:46:19 | 54.00444 | 11.18222 | 75° | 150km/h | 4772m | -3.9m/s | -7.1°C | 93.3% | 560.2hPa | 2.7V | 00:00:00 | 00:00:00 | 00:00:00 | |
| DO2SHX-10 | 2026-09-04 14:46:18 | 54.00444 | 11.18222 | 76° | 151km/h | 4772m | -3.9m/s | -7.0°C | 97.1% | 560.2hPa | 2.7V | 00:00:00 | 02:27:17 | 00:00:00 | |
| DL1XH1-15 | 2026-09-04 14:46:15 | 54.00415 | 11.18032 | 74° | 153km/h | 4784m | -3.9m/s | -7.2°C | 97.6% | 559.3hPa | 2.6V | 07:39:07 | 02:27:14 | 00:00:00 | |
| AA1-15 | 2026-09-04 14:46:15 | 54.00415 | 11.18032 | 75° | 153km/h | 4784m | -3.9m/s | -7.2°C | 94.4% | 559.3hPa | 2.6V | 07:39:18 | 02:27:14 | 00:00:00 | |
| DF8AY | 2026-09-04 14:46:14 | 54.00405 | 11.17968 | 75° | 155km/h | 4788m | -4m/s | -7.2°C | 94.6% | 559hPa | 2.6V | 07:39:18 | 02:27:13 | 00:00:00 | |
| BIOWL1-15 | 2026-09-04 14:46:10 | 54.00362 | 11.17714 | 75° | 153km/h | 4804m | -4m/s | -7.2°C | 95% | 557.8hPa | 2.7V | 07:39:18 | 02:27:09 | 00:00:00 | |
| DL1XH-west | 2026-09-04 14:46:08 | 54.00341 | 11.17587 | 74° | 153km/h | 4812m | -4m/s | -7.3°C | 95.2% | 557.3hPa | 2.6V | 07:39:18 | 02:27:07 | 00:00:00 | |
| DO2SHX-10 | 2026-09-04 14:46:06 | 54.00319 | 11.17462 | 74° | 151km/h | 4820m | -4.1m/s | -7.2°C | 98.0% | 556.7hPa | 2.7V | 00:00:00 | 02:27:05 | 00:00:00 | |
| DM0DOS-11 | 2026-09-04 14:46:05 | 54.00254 | 11.17083 | 74° | 157km/h | 4845m | -4m/s | -7.4°C | 98.7% | 555hPa | 2.7V | 07:39:22 | 02:26:59 | 00:00:00 | |
| AA1-15 | 2026-09-04 14:46:05 | 54.00309 | 11.17399 | 74° | 151km/h | 4824m | -3.9m/s | -7.3°C | 95.5% | 556.4hPa | 2.7V | 07:39:18 | 02:27:04 | 00:00:00 | |
| DF8AY | 2026-09-04 14:46:04 | 54.00298 | 11.17337 | 74° | 153km/h | 4829m | -4.4m/s | -7.3°C | 95.7% | 556.1hPa | 2.7V | 07:39:18 | 02:27:03 | 00:00:00 | |
| BIOWL1-15 | 2026-09-04 14:46:02 | 54.00254 | 11.17083 | 74° | 157km/h | 4845m | -4.1m/s | -7.4°C | 96.6% | 555hPa | 2.7V | 07:41:00 | 02:26:59 | 00:00:00 | |
| DJ2DS-15 | 2026-09-04 14:46:02 | 54.00265 | 11.17147 | 74° | 153km/h | 4841m | -4.1m/s | -7.4°C | 94.8% | 555.1hPa | 2.6V | 00:00:00 | 00:00:00 | 00:00:00 | |
| DM0DOS-11 | 2026-09-04 14:46:00 | 54.00196 | 11.16762 | 72° | 155km/h | 4866m | -4m/s | -7.5°C | 98.6% | 553.4hPa | 2.6V | 07:39:27 | 02:26:54 | 00:00:00 | |
| DL1XH-west | 2026-09-04 14:45:58 | 54.00232 | 11.16953 | 73° | 157km/h | 4853m | -4.5m/s | -7.4°C | 96.5% | 554.4hPa | 2.7V | 07:40:09 | 02:26:57 | 00:00:00 | |
| BIOWL9-15 | 2026-09-04 14:45:57 | 54.00208 | 11.16826 | 72° | 153km/h | 4862m | -4.1m/s | -7.5°C | 94.7% | 553.7hPa | 2.6V | 00:00:00 | 00:00:00 | 00:00:00 | |
| DB0DAN | 2026-09-04 14:45:55 | 54.00196 | 11.16762 | 73° | 148km/h | 4866m | -4m/s | -7.5°C | 94.6% | 553.45hPa | 2.6V | 00:00:00 | 00:00:00 | 00:00:00 | |
| DM0DOS-11 | 2026-09-04 14:45:55 | 54.00138 | 11.16446 | 73° | 155km/h | 4886m | -4m/s | -7.6°C | 98.9% | 552hPa | 2.7V | 07:39:32 | 02:26:49 | 00:00:00 | |
| DF8AY | 2026-09-04 14:45:54 | 54.00173 | 11.16635 | 73° | 155km/h | 4874m | -4.4m/s | -7.5°C | 96.8% | 552.9hPa | 2.7V | 07:40:09 | 02:26:52 | 00:00:00 | |
| AA1-15 | 2026-09-04 14:45:54 | 54.00185 | 11.16699 | 73° | 155km/h | 4870m | -4.2m/s | -7.5°C | 96.8% | 553.2hPa | 2.7V | 07:40:09 | 02:26:53 | 00:00:00 | |
| BIOWL1-15 | 2026-09-04 14:45:51 | 54.00127 | 11.16382 | 73° | 155km/h | 4890m | -4.3m/s | -7.6°C | 96.4% | 551.7hPa | 2.6V | 07:41:00 | 02:26:48 | 00:00:00 | |
| DL1XH-west | 2026-09-04 14:45:47 | 54.00104 | 11.16255 | 74° | 155km/h | 4898m | -3.9m/s | -7.7°C | 96.5% | 551.1hPa | 2.7V | 07:40:09 | 02:26:46 | 00:00:00 | |
| DL1XH1-15 | 2026-09-04 14:45:45 | 54.00082 | 11.16126 | 73° | 157km/h | 4906m | -4m/s | -7.7°C | 98.8% | 550.6hPa | 2.7V | 07:39:37 | 02:26:44 | 00:00:00 | |
| SMARD9-15 | 2026-09-04 14:45:44 | 54.00070 | 11.16061 | 72° | 155km/h | 4910m | -3.8m/s | -7.8°C | 94.9% | 550.3hPa | 2.6V | 00:00:00 | 00:00:00 | 00:00:00 | |
| AA1-15 | 2026-09-04 14:45:43 | 54.00059 | 11.15998 | 73° | 155km/h | 4914m | -3.8m/s | -7.8°C | 96.3% | 550hPa | 2.6V | 07:40:09 | 02:26:42 | 00:00:00 | |
| DF8AY | 2026-09-04 14:45:42 | 54.00047 | 11.15934 | 73° | 155km/h | 4917m | -3.7m/s | -7.8°C | 96.4% | 549.8hPa | 2.6V | 07:40:09 | 02:26:41 | 00:00:00 | |
| DO2SHX-10 | 2026-09-04 14:45:42 | 54.00047 | 11.15934 | 74° | 155km/h | 4917m | -3.7m/s | -7.8°C | 99.1% | 549.7hPa | 2.6V | 00:00:00 | 02:26:41 | 00:00:00 | |
| DB0DAN | 2026-09-04 14:45:40 | 54.00025 | 11.15806 | 74° | 150km/h | 4925m | -3.8m/s | -7.8°C | 95% | 549.16hPa | 2.7V | 00:00:00 | 00:00:00 | 00:00:00 | |
| DM0DOS-11 | 2026-09-04 14:45:40 | 54.00026 | 11.15806 | 73° | 157km/h | 4925m | -3.8m/s | -7.8°C | 99.1% | 549.1hPa | 2.7V | 07:39:42 | 02:26:39 | 00:00:00 | |
| BIOWL1-15 | 2026-09-04 14:45:37 | 53.99991 | 11.15614 | 73° | 157km/h | 4937m | -3.7m/s | -7.9°C | 95.7% | 548.4hPa | 2.7V | 07:41:00 | 02:26:36 | 00:00:00 | |
| DL1XH-west | 2026-09-04 14:45:36 | 53.99979 | 11.15549 | 73° | 157km/h | 4940m | -3.6m/s | -7.9°C | 95.6% | 548.2hPa | 2.6V | 07:40:09 | 02:26:35 | 00:00:00 | |
| DL1XH1-15 | 2026-09-04 14:45:35 | 53.99968 | 11.15485 | 72° | 157km/h | 4944m | -3.7m/s | -7.9°C | 98.6% | 547.9hPa | 2.6V | 07:39:47 | 02:26:34 | 00:00:00 | |
| AA1-15 | 2026-09-04 14:45:32 | 53.99932 | 11.15293 | 73° | 155km/h | 4955m | -3.6m/s | -8°C | 95.1% | 547.2hPa | 2.7V | 07:40:09 | 02:26:31 | 00:00:00 | |
| DM0DOS-11 | 2026-09-04 14:45:30 | 53.99909 | 11.15165 | 72° | 155km/h | 4962m | -3.8m/s | -8°C | 98.5% | 546.6hPa | 2.6V | 07:39:52 | 02:26:29 | 00:00:00 | |
| DL1XH-west | 2026-09-04 14:45:26 | 53.99863 | 11.14911 | 74° | 155km/h | 4977m | -3.6m/s | -8.1°C | 95.7% | 545.5hPa | 2.7V | 07:40:09 | 02:26:25 | 00:00:00 | |
| DL1XH-15 | 2026-09-04 14:45:25 | 53.99852 | 11.14847 | 73° | 157km/h | 4980m | -3.4m/s | -8.1°C | 99.1% | 545.3hPa | 2.7V | 07:39:57 | 02:26:24 | 00:00:00 | |
| AA1-15 | 2026-09-04 14:45:22 | 53.99817 | 11.14654 | 73° | 155km/h | 4991m | -3.5m/s | -8.2°C | 95.6% | 544.5hPa | 2.6V | 07:40:09 | 02:26:21 | 00:00:00 | |
| DF8AY | 2026-09-04 14:45:21 | 53.99806 | 11.14591 | 73° | 153km/h | 4994m | -3.8m/s | -8.2°C | 95.6% | 544.3hPa | 2.7V | 07:40:09 | 02:26:20 | 00:00:00 | |
| DL1XH1-15 | 2026-09-04 14:45:20 | 53.99795 | 11.14527 | 73° | 153km/h | 4998m | -3.4m/s | -8.2°C | 99.6% | 544.1hPa | 2.7V | 07:40:02 | 02:26:19 | 00:00:00 | |
| DL1XH1-15 | 2026-09-04 14:45:20 | 53.99738 | 11.14209 | 72° | 153km/h | 5016m | -3.4m/s | -8.3°C | 0% | 542.8hPa | 2.7V | 07:40:07 | 02:26:14 | 00:00:00 | |
| DL1XH-15 | 2026-09-04 14:45:19 | 53.99727 | 11.14146 | 73° | 155km/h | 5019m | -3.7m/s | -8.3°C | 0% | 542.5hPa | 2.7V | 07:40:08 | 02:26:13 | 00:00:00 | |
| DO2SHX-10 | 2026-09-04 14:45:18 | 53.99773 | 11.14400 | 74° | 155km/h | 5005m | -3.7m/s | -8.2°C | 0% | 543.5hPa | 2.6V | 00:00:00 | 02:26:17 | 00:00:00 | |
| EDDB2-12 | 2026-09-04 14:45:16 | 53.99750 | 11.14272 | 72° | 153km/h | 5012m | -3.6m/s | -8.3°C | 95.7% | 543.0hPa | 2.6V | 00:00:00 | 00:00:00 | 00:00:00 | |
| DL1XH-west | 2026-09-04 14:45:16 | 53.99750 | 11.14272 | 73° | 155km/h | 5012m | -3.6m/s | -8.3°C | 96.1% | 543hPa | 2.6V | 07:40:09 | 02:26:15 | 00:00:00 | |
| DM0DOS-11 | 2026-09-04 14:45:15 | 53.99679 | 11.13888 | 72° | 157km/h | 5033m | -3.8m/s | -8.4°C | 0% | 541.6hPa | 2.6V | 07:40:12 | 02:26:09 | 00:00:00 | |
| AA1-15 | 2026-09-04 14:45:11 | 53.99691 | 11.13952 | 72° | 159km/h | 5030m | -3.6m/s | -8.4°C | 97.3% | 541.8hPa | 2.6V | 07:41:00 | 02:26:10 | 00:00:00 | |
| DB0DAN | 2026-09-04 14:45:10 | 53.99679 | 11.13888 | 72° | 150km/h | 5033m | -3.8m/s | -8.4°C | 96.2% | 541.58hPa | 2.6V | 00:00:00 | 00:00:00 | 00:00:00 | |
| DL1XH1-15 | 2026-09-04 14:45:10 | 53.99619 | 11.13563 | 72° | 159km/h | 5052m | -3.4m/s | -8.5°C | 0% | 540.2hPa | 2.7V | 07:40:17 | 02:26:04 | 00:00:00 | |
| DF8AY | 2026-09-04 14:45:10 | 53.99679 | 11.13888 | 72° | 157km/h | 5033m | -3.8m/s | -8.4°C | 97.6% | 541.6hPa | 2.6V | 07:41:00 | 02:26:09 | 00:00:00 | |
| DL1XH-15 | 2026-09-04 14:45:09 | 53.99607 | 11.13498 | 72° | 157km/h | 5056m | -4m/s | -8.6°C | 0% | 540hPa | 2.6V | 07:40:18 | 02:26:03 | 00:00:00 | |
| DL1XH-west | 2026-09-04 14:45:05 | 53.99619 | 11.13563 | 72° | 159km/h | 5053m | -3.4m/s | -8.5°C | 97.2% | 540.3hPa | 2.7V | 07:41:00 | 02:26:04 | 00:00:00 | |
| AA1-15 | 2026-09-04 14:45:01 | 53.99572 | 11.13306 | 74° | 157km/h | 5067m | -3.2m/s | -8.6°C | 97.3% | 539.3hPa | 2.7V | 07:41:00 | 02:26:00 | 00:00:00 | |
| DF8AY | 2026-09-04 14:45:00 | 53.99561 | 11.13242 | 73° | 157km/h | 5070m | -4.1m/s | -8.6°C | 97.2% | 539.1hPa | 2.7V | 07:41:00 | 02:25:59 | 00:00:00 | |
| DO2SHX-10 | 2026-09-04 14:45:00 | 53.99561 | 11.13242 | 74° | 159km/h | 5070m | -4.1m/s | -8.6°C | 0% | 539.1hPa | 2.7V | 07:40:00 | 02:25:59 | 00:00:00 | |
| DL1XH-15 | 2026-09-04 14:44:59 | 53.99488 | 11.12848 | 71° | 162km/h | 5091m | -3.2m/s | -8.8°C | 0% | 537.7hPa | 2.7V | 07:40:28 | 02:25:53 | 00:00:00 | |
| BIOWL1-15 | 2026-09-04 14:44:57 | 53.99525 | 11.13047 | 73° | 159km/h | 5080m | -3.5m/s | -8.7°C | 97.7% | 538.3hPa | 2.6V | 07:41:00 | 02:25:56 | 00:00:00 | |
| DK1YY | 2026-09-04 14:44:56 | 53.99513 | 11.12981 | 72° | 161km/h | 5084m | -4.0m/s | -8.7°C | 96.2% | 538.1hPa | 2.7V | 00:00:00 | 00:00:00 | 00:00:00 | |
| DB0DAN | 2026-09-04 14:44:55 | 53.99501 | 11.12915 | 72° | 155km/h | 5088m | -3.4m/s | -8.7°C | 95.8% | 537.84hPa | 2.7V | 00:00:00 | 00:00:00 | 00:00:00 | |
| DL1XH-west | 2026-09-04 14:44:55 | 53.99501 | 11.12915 | 73° | 162km/h | 5088m | -3.4m/s | -8.7°C | 97.3% | 537.8hPa | 2.7V | 07:41:00 | 02:25:54 | 00:00:00 | |
| AA1-15 | 2026-09-04 14:44:51 | 53.99449 | 11.12652 | 71° | 159km/h | 5101m | -3m/s | -8.8°C | 96.2% | 536.9hPa | 2.6V | 07:41:00 | 02:25:50 | 00:00:00 | |
| DF8AY | 2026-09-04 14:44:50 | 53.99436 | 11.12588 | 72° | 157km/h | 5105m | -3.6m/s | -8.9°C | 96.4% | 536.8hPa | 2.7V | 07:41:00 | 02:25:49 | 00:00:00 | |
| DL1XH-15 | 2026-09-04 14:44:49 | 53.99361 | 11.12196 | 71° | 162km/h | 5124m | -3.1m/s | -8.9°C | 99% | 535.4hPa | 2.6V | 07:40:38 | 02:25:43 | 00:00:00 | |
| DL1XH-west | 2026-09-04 14:44:44 | 53.99361 | 11.12196 | 71° | 162km/h | 5124m | -3.1m/s | -9°C | 96.4% | 535.4hPa | 2.6V | 07:41:00 | 02:25:43 | 00:00:00 | |
| AM1SDL-15 | 2026-09-04 14:44:43 | 53.99347 | 11.12130 | 71° | 161km/h | 5127m | -3.2m/s | -8.9°C | 99.0% | 535.1hPa | 2.7V | 00:00:00 | 02:25:42 | 00:00:00 | |
| DO2SHX-10 | 2026-09-04 14:44:42 | 53.99334 | 11.12064 | 71° | 164km/h | 5130m | -3.4m/s | -8.9°C | 98.8% | 534.9hPa | 2.7V | 00:00:00 | 02:25:41 | 00:00:00 | |
| DB0DAN | 2026-09-04 14:44:40 | 53.99306 | 11.11931 | 70° | 155km/h | 5138m | -3.6m/s | -9°C | 94.1% | 534.49hPa | 2.7V | 00:00:00 | 00:00:00 | 00:00:00 | |
| DL1XH1-15 | 2026-09-04 14:44:40 | 53.99238 | 11.11605 | 70° | 161km/h | 5155m | -3.4m/s | -9.1°C | 97.6% | 533.3hPa | 2.7V | 07:40:47 | 02:25:34 | 00:00:00 | |
| AA1-15 | 2026-09-04 14:44:40 | 53.99306 | 11.11931 | 70° | 164km/h | 5138m | -3.6m/s | -9°C | 95.5% | 534.5hPa | 2.7V | 07:41:00 | 02:25:39 | 00:00:00 | |
| DF8AY | 2026-09-04 14:44:39 | 53.99292 | 11.11866 | 70° | 162km/h | 5141m | -3.7m/s | -9°C | 95% | 534.2hPa | 2.6V | 07:41:00 | 02:25:38 | 00:00:00 | |
| DL1XH-west | 2026-09-04 14:44:33 | 53.99210 | 11.11476 | 70° | 159km/h | 5162m | -3.6m/s | -9.1°C | 93.9% | 532.8hPa | 2.6V | 07:41:00 | 02:25:32 | 00:00:00 | |
| AA1-15 | 2026-09-04 14:44:30 | 53.99170 | 11.11286 | 72° | 159km/h | 5172m | -3.5m/s | -9.2°C | 94% | 532.1hPa | 2.7V | 07:41:00 | 02:25:29 | 00:00:00 | |
| DO2SHX-10 | 2026-09-04 14:44:30 | 53.99170 | 11.11286 | 72° | 161km/h | 5172m | -3.5m/s | -9.2°C | 98.8% | 532.0hPa | 2.7V | 00:00:00 | 02:25:29 | 00:00:00 | |
| DL1XH-15 | 2026-09-04 14:44:29 | 53.99088 | 11.10890 | 69° | 166km/h | 5193m | -3.7m/s | -9.3°C | 98.9% | 530.7hPa | 2.7V | 07:40:58 | 02:25:23 | 00:00:00 | |
| BIOWL1-15 | 2026-09-04 14:44:29 | 53.99158 | 11.11221 | 71° | 161km/h | 5176m | -3.3m/s | -9.2°C | 94.5% | 531.9hPa | 2.7V | 07:41:00 | 02:25:28 | 00:00:00 | |
| DL1XH-west | 2026-09-04 14:44:22 | 53.99058 | 11.10756 | 69° | 164km/h | 5201m | -3.8m/s | -9.4°C | 97.9% | 530.1hPa | 2.7V | 07:41:00 | 02:25:21 | 00:00:00 | |
| DO2SHX-10 | 2026-09-04 14:44:21 | 53.99043 | 11.10690 | 69° | 161km/h | 5205m | -3.8m/s | -9.4°C | 98.9% | 529.9hPa | 2.7V | 00:00:00 | 02:25:20 | 00:00:00 | |
| DL1XH1-15 | 2026-09-04 14:44:20 | 53.98958 | 11.10307 | 70° | 161km/h | 5225m | -2.9m/s | -9.5°C | 98.8% | 528.5hPa | 2.7V | 07:41:07 | 02:25:14 | 00:00:00 | |
| AA1-15 | 2026-09-04 14:44:20 | 53.99028 | 11.10626 | 69° | 161km/h | 5208m | -3.8m/s | -9.4°C | 97% | 529.7hPa | 2.6V | 07:41:51 | 02:25:19 | 00:00:00 | |
| DF8AY | 2026-09-04 14:44:18 | 53.99000 | 11.10499 | 70° | 159km/h | 5216m | -3.3m/s | -9.5°C | 95.9% | 529.1hPa | 2.7V | 07:41:51 | 02:25:17 | 00:00:00 | |
| BIOWL1-15 | 2026-09-04 14:44:17 | 53.98958 | 11.10307 | 70° | 161km/h | 5225m | -2.9m/s | -9.5°C | 94.3% | 528.5hPa | 2.7V | 07:41:51 | 02:25:14 | 00:00:00 | |
| DL1XH-west | 2026-09-04 14:44:12 | 53.98915 | 11.10112 | 69° | 162km/h | 5234m | -2.8m/s | -9.6°C | 94.6% | 527.8hPa | 2.7V | 07:41:51 | 02:25:11 | 00:00:00 | |
| DO2SHX-10 | 2026-09-04 14:44:12 | 53.98915 | 11.10112 | 69° | 162km/h | 5234m | -2.8m/s | -9.5°C | 99.2% | 527.8hPa | 2.7V | 07:41:00 | 02:25:11 | 00:00:00 | |
| DB0DAN | 2026-09-04 14:44:10 | 53.98885 | 11.09983 | 69° | 153km/h | 5242m | -3.7m/s | -9.6°C | 95.3% | 527.27hPa | 2.7V | 00:00:00 | 00:00:00 | 00:00:00 | |
| DL1XH1-15 | 2026-09-04 14:44:10 | 53.98813 | 11.09650 | 69° | 168km/h | 5259m | -3.6m/s | -9.8°C | 0% | 526.2hPa | 2.7V | 07:41:17 | 02:25:04 | 00:00:00 | |
| AA1-15 | 2026-09-04 14:44:09 | 53.98871 | 11.09918 | 70° | 162km/h | 5245m | -3.7m/s | -9.7°C | 95% | 527hPa | 2.7V | 07:41:51 | 02:25:08 | 00:00:00 | |
| DF8AY | 2026-09-04 14:44:07 | 53.98842 | 11.09785 | 70° | 166km/h | 5252m | -3.1m/s | -9.7°C | 95.6% | 526.6hPa | 2.6V | 07:41:51 | 02:25:06 | 00:00:00 | |
| BIOWL1-15 | 2026-09-04 14:44:05 | 53.98813 | 11.09650 | 69° | 168km/h | 5259m | -3.6m/s | -9.8°C | 96.2% | 526.2hPa | 2.7V | 07:41:51 | 02:25:04 | 00:00:00 | |
| DL1XH-west | 2026-09-04 14:44:01 | 53.98751 | 11.09387 | 68° | 162km/h | 5272m | -3.7m/s | -9.8°C | 97.3% | 525.2hPa | 2.6V | 07:41:51 | 02:25:00 | 00:00:00 | |
| DL1XH1-15 | 2026-09-04 14:44:00 | 53.98660 | 11.08999 | 68° | 162km/h | 5293m | -3.3m/s | -10°C | 0% | 523.8hPa | 2.6V | 07:41:27 | 02:24:54 | 00:00:00 | |
| DO2SHX-10 | 2026-09-04 14:44:00 | 53.98735 | 11.09323 | 69° | 161km/h | 5276m | -3.6m/s | -9.8°C | 0% | 525.0hPa | 2.7V | 00:00:00 | 02:24:59 | 00:00:00 | |
| DM0DOS-11 | 2026-09-04 14:43:59 | 53.98645 | 11.08935 | 68° | 162km/h | 5296m | -3.3m/s | -10°C | 99.8% | 523.5hPa | 2.7V | 07:41:28 | 02:24:53 | 00:00:00 | |
| AA1-15 | 2026-09-04 14:43:58 | 53.98706 | 11.09194 | 69° | 162km/h | 5282m | -3.6m/s | -9.9°C | 98% | 524.5hPa | 2.7V | 07:41:51 | 02:24:57 | 00:00:00 | |
| DF8AY | 2026-09-04 14:43:56 | 53.98676 | 11.09064 | 68° | 162km/h | 5289m | -3.3m/s | -9.9°C | 97.8% | 524hPa | 2.6V | 07:41:51 | 02:24:55 | 00:00:00 | |
| DB0DAN | 2026-09-04 14:43:55 | 53.98660 | 11.08999 | 68° | 155km/h | 5293m | -3.3m/s | -10°C | 95.9% | 523.84hPa | 2.6V | 00:00:00 | 00:00:00 | 00:00:00 | |
| DL1XH-west | 2026-09-04 14:43:51 | 53.98600 | 11.08739 | 68° | 164km/h | 5306m | -3.5m/s | -10.1°C | 95.7% | 522.9hPa | 2.7V | 07:41:51 | 02:24:50 | 00:00:00 | |
| DM0DOS-11 | 2026-09-04 14:43:49 | 53.98489 | 11.08281 | 67° | 168km/h | 5329m | -3.4m/s | -10.2°C | 99.8% | 521.4hPa | 2.6V | 07:41:38 | 02:24:43 | 00:00:00 | |
| AA1-15 | 2026-09-04 14:43:48 | 53.98552 | 11.08543 | 67° | 164km/h | 5316m | -3.5m/s | -10.1°C | 94.9% | 522.2hPa | 2.7V | 07:41:51 | 02:24:47 | 00:00:00 | |
| DF8AY | 2026-09-04 14:43:46 | 53.98521 | 11.08413 | 68° | 164km/h | 5322m | -2.9m/s | -10.2°C | 95.1% | 521.8hPa | 2.7V | 07:41:51 | 02:24:45 | 00:00:00 | |
| BIOWL1-15 | 2026-09-04 14:43:41 | 53.98440 | 11.08085 | 67° | 162km/h | 5338m | -3.1m/s | -10.3°C | 95% | 520.7hPa | 2.7V | 07:41:51 | 02:24:40 | 00:00:00 | |
| DB0DAN | 2026-09-04 14:43:40 | 53.98424 | 11.08020 | 67° | 155km/h | 5341m | -3.4m/s | -10.3°C | 95.2% | 520.43hPa | 2.7V | 00:00:00 | 00:00:00 | 00:00:00 | |
| DL1XH-west | 2026-09-04 14:43:40 | 53.98424 | 11.08020 | 67° | 162km/h | 5341m | -3.4m/s | -10.3°C | 95% | 520.4hPa | 2.7V | 07:41:51 | 02:24:39 | 00:00:00 | |
| DM0DOS-11 | 2026-09-04 14:43:39 | 53.98333 | 11.07625 | 68° | 166km/h | 5360m | -3m/s | -10.4°C | 0% | 519.1hPa | 2.7V | 07:41:48 | 02:24:33 | 00:00:00 | |
| AA1-15 | 2026-09-04 14:43:37 | 53.98378 | 11.07825 | 70° | 166km/h | 5351m | -2.8m/s | -10.3°C | 95.5% | 519.8hPa | 2.6V | 07:41:51 | 02:24:36 | 00:00:00 | |
| DF8AY | 2026-09-04 14:43:36 | 53.98364 | 11.07758 | 69° | 166km/h | 5354m | -3.2m/s | -10.4°C | 95.8% | 519.6hPa | 2.7V | 07:41:51 | 02:24:35 | 00:00:00 | |
| DO2SHX-10 | 2026-09-04 14:43:36 | 53.98364 | 11.07758 | 70° | 166km/h | 5354m | -3.2m/s | -10.3°C | 0% | 519.5hPa | 2.7V | 00:00:00 | 02:24:35 | 00:00:00 | |
| DO2SHX-10 | 2026-09-04 14:43:33 | 53.98317 | 11.07558 | 69° | 164km/h | 5363m | -3.1m/s | -10.4°C | 0% | 518.9hPa | 2.6V | 00:00:00 | 02:24:32 | 00:00:00 | |
| DL1XH1-15 | 2026-09-04 14:43:30 | 53.98195 | 11.07029 | 68° | 166km/h | 5389m | -3m/s | -10.6°C | 99% | 517.2hPa | 2.6V | 07:41:57 | 02:24:24 | 00:00:00 | |
| BIOWL1-15 | 2026-09-04 14:43:30 | 53.98272 | 11.07361 | 69° | 166km/h | 5373m | -3.2m/s | -10.4°C | 96.6% | 518.3hPa | 2.7V | 07:42:42 | 02:24:29 | 00:00:00 | |
| DL1XH-west | 2026-09-04 14:43:29 | 53.98257 | 11.07295 | 69° | 166km/h | 5376m | -3.5m/s | -10.5°C | 96.1% | 518.1hPa | 2.7V | 07:42:42 | 02:24:28 | 00:00:00 | |
| DF8AY | 2026-09-04 14:43:26 | 53.98210 | 11.07095 | 68° | 166km/h | 5386m | -3.2m/s | -10.5°C | 95.6% | 517.5hPa | 2.6V | 07:42:42 | 02:24:25 | 00:00:00 | |
| DB0DAN | 2026-09-04 14:43:25 | 53.98195 | 11.07029 | 69° | 159km/h | 5389m | -3m/s | -10.6°C | 94.3% | 517.22hPa | 2.6V | 00:00:00 | 00:00:00 | 00:00:00 | |
| DO2SHX-10 | 2026-09-04 14:43:24 | 53.98180 | 11.06963 | 69° | 168km/h | 5392m | -3.3m/s | -10.5°C | 99.3% | 517.0hPa | 2.7V | 07:41:00 | 02:24:23 | 00:00:00 | |
| DK1YY | 2026-09-04 14:43:23 | 53.98165 | 11.06896 | 68° | 166km/h | 5395m | -3.2m/s | -10.6°C | 94.9% | 516.8hPa | 2.7V | 00:00:00 | 00:00:00 | 00:00:00 | |
| BIOWL9-15 | 2026-09-04 14:43:22 | 53.98133 | 11.06762 | 67° | 166km/h | 5402m | -3.2m/s | -10.6°C | 94.0% | 516.4hPa | 2.7V | 00:00:00 | 00:00:00 | 00:00:00 | |
| DO2SHX-10 | 2026-09-04 14:43:21 | 53.98133 | 11.06762 | 68° | 166km/h | 5402m | -3.2m/s | -10.6°C | 98.7% | 516.4hPa | 2.7V | 00:00:00 | 02:24:20 | 00:00:00 | |
| DL1XH1-15 | 2026-09-04 14:43:20 | 53.98043 | 11.06364 | 68° | 168km/h | 5421m | -2.8m/s | -10.7°C | 97.8% | 515.1hPa | 2.7V | 07:42:07 | 02:24:14 | 00:00:00 | |
| BIOWL1-15 | 2026-09-04 14:43:20 | 53.98118 | 11.06696 | 68° | 164km/h | 5405m | -3.3m/s | -10.6°C | 94.1% | 516.2hPa | 2.6V | 07:42:42 | 02:24:19 | 00:00:00 | |
| DM0DOS-11 | 2026-09-04 14:43:19 | 53.98027 | 11.06297 | 68° | 168km/h | 5424m | -3.4m/s | -10.8°C | 97.7% | 514.9hPa | 2.6V | 07:42:08 | 02:24:13 | 00:00:00 | |
| DL1XH-west | 2026-09-04 14:43:19 | 53.98102 | 11.06630 | 69° | 164km/h | 5408m | -3.2m/s | -10.7°C | 94.2% | 516hPa | 2.6V | 07:42:42 | 02:24:18 | 00:00:00 | |
| AA1-15 | 2026-09-04 14:43:16 | 53.98058 | 11.06431 | 69° | 168km/h | 5418m | -3.4m/s | -10.7°C | 93.6% | 515.3hPa | 2.7V | 07:42:42 | 02:24:15 | 00:00:00 | |
| DF8AY | 2026-09-04 14:43:15 | 53.98043 | 11.06364 | 69° | 168km/h | 5421m | -2.8m/s | -10.7°C | 93.4% | 515.1hPa | 2.7V | 07:42:42 | 02:24:14 | 00:00:00 | |
| DO2SHX-10 | 2026-09-04 14:43:15 | 53.98043 | 11.06364 | 69° | 168km/h | 5421m | -2.8m/s | -10.7°C | 97.8% | 515.1hPa | 2.7V | 00:00:00 | 02:24:14 | 00:00:00 | |
| DJ2DS-15 | 2026-09-04 14:43:13 | 53.98012 | 11.06230 | 69° | 168km/h | 5427m | -3.2m/s | -10.7°C | 97.5% | 514.7hPa | 2.7V | 00:00:00 | 02:24:12 | 00:00:00 | |
| DO2SHX-10 | 2026-09-04 14:43:12 | 53.97996 | 11.06163 | 69° | 168km/h | 5430m | -3.2m/s | -10.7°C | 97.6% | 514.4hPa | 2.7V | 00:00:00 | 02:24:11 | 00:00:00 | |
| DB0DAN | 2026-09-04 14:43:10 | 53.97965 | 11.06029 | 68° | 161km/h | 5437m | -3.3m/s | -10.8°C | 92.6% | 514.08hPa | 2.7V | 00:00:00 | 00:00:00 | 00:00:00 | |
| DL1XH1-15 | 2026-09-04 14:43:10 | 53.97887 | 11.05699 | 70° | 164km/h | 5454m | -3.5m/s | -10.9°C | 97.5% | 513hPa | 2.7V | 07:42:17 | 02:24:04 | 00:00:00 | |
| DL1XH-15 | 2026-09-04 14:43:09 | 53.97873 | 11.05632 | 71° | 166km/h | 5458m | -4m/s | -10.9°C | 97.3% | 512.8hPa | 2.7V | 07:42:18 | 02:24:03 | 00:00:00 | |
| BIOWL1-15 | 2026-09-04 14:43:08 | 53.97932 | 11.05896 | 67° | 166km/h | 5444m | -3.5m/s | -10.9°C | 92.2% | 513.6hPa | 2.6V | 07:42:42 | 02:24:07 | 00:00:00 | |
| AA1-15 | 2026-09-04 14:43:05 | 53.97887 | 11.05699 | 71° | 164km/h | 5454m | -3.6m/s | -10.9°C | 93.1% | 513hPa | 2.7V | 07:42:42 | 02:24:04 | 00:00:00 | |
| AM1SDL-15 | 2026-09-04 14:43:04 | 53.97873 | 11.05632 | 72° | 168km/h | 5458m | -4.0m/s | -10.9°C | 97.3% | 512.7hPa | 2.6V | 00:00:00 | 02:24:03 | 00:00:00 | |
| DO2SHX-10 | 2026-09-04 14:43:03 | 53.97860 | 11.05564 | 72° | 170km/h | 5462m | -4.5m/s | -10.9°C | 97.3% | 512.4hPa | 2.6V | 00:00:00 | 02:24:02 | 00:00:00 | |
| DJ2DS-15 | 2026-09-04 14:43:01 | 53.97832 | 11.05426 | 70° | 168km/h | 5470m | -4.0m/s | -11.0°C | 92.5% | 511.9hPa | 2.6V | 00:00:00 | 00:00:00 | 00:00:00 | |
| DL1XH1-15 | 2026-09-04 14:43:00 | 53.97750 | 11.05018 | 70° | 166km/h | 5493m | -4.3m/s | -11.1°C | 96.1% | 510.3hPa | 2.6V | 07:42:27 | 02:23:54 | 00:00:00 | |
| DO2SHX-10 | 2026-09-04 14:43:00 | 53.97818 | 11.05357 | 71° | 168km/h | 5474m | -3.4m/s | -11.0°C | 97.4% | 511.6hPa | 2.7V | 07:42:00 | 02:23:59 | 00:00:00 | |
| DM0DOS-11 | 2026-09-04 14:42:59 | 53.97736 | 11.04951 | 69° | 164km/h | 5497m | -4m/s | -11.2°C | 96% | 510.1hPa | 2.7V | 07:42:28 | 02:23:53 | 00:00:00 | |
| DL1XH-west | 2026-09-04 14:42:57 | 53.97777 | 11.05154 | 71° | 166km/h | 5485m | -4.2m/s | -11.1°C | 93.2% | 511hPa | 2.7V | 07:42:42 | 02:23:56 | 00:00:00 | |
| DO2SHX-10 | 2026-09-04 14:42:57 | 53.97777 | 11.05154 | 72° | 168km/h | 5485m | -4.2m/s | -11.0°C | 96.5% | 510.9hPa | 2.6V | 00:00:00 | 02:23:56 | 00:00:00 | |
| DB0DAN | 2026-09-04 14:42:55 | 53.97750 | 11.05018 | 71° | 159km/h | 5493m | -4.3m/s | -11.1°C | 91.4% | 510.31hPa | 2.6V | 00:00:00 | 00:00:00 | 00:00:00 | |
| AA1-15 | 2026-09-04 14:42:54 | 53.97736 | 11.04951 | 70° | 164km/h | 5497m | -4m/s | -11.2°C | 93.5% | 510.1hPa | 2.7V | 07:42:42 | 02:23:53 | 00:00:00 | |
| DK1YY | 2026-09-04 14:42:52 | 53.97707 | 11.04819 | 70° | 162km/h | 5506m | -4.4m/s | -11.2°C | 91.0% | 509.6hPa | 2.7V | 00:00:00 | 00:00:00 | 00:00:00 | |
| BIOWL9-15 | 2026-09-04 14:42:51 | 53.97680 | 11.04687 | 70° | 164km/h | 5514m | -4.4m/s | -11.2°C | 90.3% | 509.0hPa | 2.7V | 00:00:00 | 00:00:00 | 00:00:00 | |
| DL1XH1-15 | 2026-09-04 14:42:50 | 53.97611 | 11.04354 | 71° | 162km/h | 5534m | -3.8m/s | -11.2°C | 94.7% | 507.7hPa | 2.7V | 07:42:37 | 02:23:44 | 00:00:00 | |
| DL1XH-15 | 2026-09-04 14:42:49 | 53.97598 | 11.04287 | 72° | 164km/h | 5538m | -4m/s | -11.3°C | 94.7% | 507.4hPa | 2.6V | 07:42:38 | 02:23:43 | 00:00:00 | |
| BIOWL1-15 | 2026-09-04 14:42:46 | 53.97625 | 11.04420 | 71° | 162km/h | 5530m | -4m/s | -11.2°C | 90.8% | 508hPa | 2.7V | 07:42:42 | 02:23:45 | 00:00:00 | |
| AA1-15 | 2026-09-04 14:42:44 | 53.97598 | 11.04287 | 72° | 164km/h | 5538m | -4m/s | -11.3°C | 91% | 507.4hPa | 2.6V | 07:42:42 | 02:23:43 | 00:00:00 | |
| DO2SHX-10 | 2026-09-04 14:42:42 | 53.97572 | 11.04151 | 72° | 168km/h | 5546m | -3.9m/s | -11.3°C | 94.8% | 506.8hPa | 2.7V | 00:00:00 | 02:23:41 | 00:00:00 | |
| DB0DAN | 2026-09-04 14:42:40 | 53.97544 | 11.04016 | 70° | 159km/h | 5554m | -3.8m/s | -11.4°C | 90.5% | 506.41hPa | 2.7V | 00:00:00 | 00:00:00 | 00:00:00 | |
| DL1XH1-15 | 2026-09-04 14:42:40 | 53.97477 | 11.03677 | 72° | 168km/h | 5573m | -3.6m/s | -11.5°C | 96% | 505.2hPa | 2.7V | 07:42:47 | 02:23:34 | 00:00:00 | |
| DM0DOS-11 | 2026-09-04 14:42:39 | 53.97465 | 11.03609 | 72° | 168km/h | 5576m | -3.9m/s | -11.5°C | 96% | 505hPa | 2.7V | 07:42:48 | 02:23:33 | 00:00:00 | |
| DL1XH-west | 2026-09-04 14:42:36 | 53.97490 | 11.03746 | 73° | 168km/h | 5569m | -3.8m/s | -11.5°C | 92% | 505.4hPa | 2.7V | 07:43:33 | 02:23:35 | 00:00:00 | |
| DF8AY | 2026-09-04 14:42:33 | 53.97452 | 11.03541 | 72° | 166km/h | 5580m | -3.5m/s | -11.5°C | 92.3% | 504.6hPa | 2.7V | 07:43:33 | 02:23:32 | 00:00:00 | |
| DJ2DS-15 | 2026-09-04 14:42:33 | 53.97452 | 11.03540 | 73° | 170km/h | 5580m | -3.4m/s | -11.5°C | 96.3% | 504.6hPa | 2.7V | 00:00:00 | 02:23:32 | 00:00:00 | |
| DL1XH1-15 | 2026-09-04 14:42:30 | 53.97349 | 11.02990 | 71° | 168km/h | 5607m | -3.5m/s | -11.7°C | 97.6% | 502.9hPa | 2.7V | 07:42:57 | 02:23:24 | 00:00:00 | |
| DO2SHX-10 | 2026-09-04 14:42:30 | 53.97415 | 11.03336 | 74° | 170km/h | 5590m | -3.4m/s | -11.6°C | 96.6% | 503.9hPa | 2.7V | 00:00:00 | 02:23:29 | 00:00:00 | |
| DM0DOS-11 | 2026-09-04 14:42:29 | 53.97336 | 11.02921 | 72° | 168km/h | 5611m | -3.3m/s | -11.8°C | 97.6% | 502.7hPa | 2.7V | 07:42:58 | 02:23:23 | 00:00:00 | |
| D01LWL | 2026-09-04 14:42:28 | 53.97389 | 11.03197 | 72° | 170km/h | 5597m | -3.6m/s | -11.7°C | 91.8% | 503.6hPa | 2.7V | 00:00:00 | 00:00:00 | 00:00:00 | |
| DO2SHX-10 | 2026-09-04 14:42:27 | 53.97376 | 11.03127 | 72° | 170km/h | 5600m | -3.1m/s | -11.6°C | 96.9% | 503.3hPa | 2.7V | 00:00:00 | 02:23:26 | 00:00:00 | |
| DB0DAN | 2026-09-04 14:42:25 | 53.97349 | 11.02990 | 72° | 161km/h | 5608m | -3.5m/s | -11.7°C | 92.8% | 502.89hPa | 2.7V | 00:00:00 | 00:00:00 | 00:00:00 | |
| BIOWL1-15 | 2026-09-04 14:42:25 | 53.97349 | 11.02990 | 72° | 168km/h | 5608m | -3.5m/s | -11.7°C | 93.3% | 502.9hPa | 2.7V | 07:43:33 | 02:23:24 | 00:00:00 | |
| AA1-15 | 2026-09-04 14:42:23 | 53.97323 | 11.02853 | 72° | 170km/h | 5614m | -3m/s | -11.8°C | 93.1% | 502.4hPa | 2.7V | 07:43:33 | 02:23:22 | 00:00:00 | |
| DF8AY | 2026-09-04 14:42:22 | 53.97310 | 11.02783 | 72° | 170km/h | 5617m | -3.6m/s | -11.8°C | 92.3% | 502.1hPa | 2.7V | 07:43:33 | 02:23:21 | 00:00:00 | |
| DO2SHX-10 | 2026-09-04 14:42:21 | 53.97297 | 11.02714 | 73° | 170km/h | 5621m | -3.3m/s | -11.7°C | 96.6% | 501.9hPa | 2.6V | 00:00:00 | 02:23:20 | 00:00:00 | |
| DL1XH1-15 | 2026-09-04 14:42:20 | 53.97223 | 11.02292 | 73° | 175km/h | 5643m | -4.5m/s | -11.9°C | 95.4% | 500.6hPa | 2.6V | 07:43:07 | 02:23:14 | 00:00:00 | |
| DL1XH-15 | 2026-09-04 14:42:19 | 53.97210 | 11.02220 | 73° | 173km/h | 5647m | -4.5m/s | -12°C | 95.5% | 500.3hPa | 2.6V | 07:43:08 | 02:23:13 | 00:00:00 | |
| BIOWL1-15 | 2026-09-04 14:42:14 | 53.97210 | 11.02220 | 73° | 173km/h | 5647m | -4.5m/s | -12°C | 91.4% | 500.3hPa | 2.6V | 07:43:33 | 02:23:13 | 00:00:00 | |
| AA1-15 | 2026-09-04 14:42:13 | 53.97198 | 11.02149 | 73° | 172km/h | 5652m | -3.7m/s | -12°C | 91.6% | 500hPa | 2.7V | 07:43:33 | 02:23:12 | 00:00:00 | |
| DF8AY | 2026-09-04 14:42:12 | 53.97185 | 11.02079 | 73° | 170km/h | 5656m | -4.2m/s | -12°C | 91.4% | 499.8hPa | 2.7V | 07:43:33 | 02:23:11 | 00:00:00 | |
| DO2SHX-10 | 2026-09-04 14:42:12 | 53.97185 | 11.02079 | 74° | 168km/h | 5656m | -4.2m/s | -12.0°C | 96.3% | 499.7hPa | 2.7V | 07:43:00 | 02:23:11 | 00:00:00 | |
| DB0DAN | 2026-09-04 14:42:10 | 53.97161 | 11.01941 | 74° | 159km/h | 5663m | -3.7m/s | -12.1°C | 91.3% | 499.27hPa | 2.7V | 00:00:00 | 00:00:00 | 00:00:00 | |
| DL1XH1-15 | 2026-09-04 14:42:10 | 53.97101 | 11.01599 | 73° | 164km/h | 5682m | -4.4m/s | -12.2°C | 96.9% | 498.1hPa | 2.7V | 07:43:17 | 02:23:04 | 00:00:00 | |
| DL1XH-15 | 2026-09-04 14:42:09 | 53.97089 | 11.01530 | 74° | 168km/h | 5687m | -5.1m/s | -12.2°C | 97.3% | 497.7hPa | 2.7V | 07:43:18 | 02:23:03 | 00:00:00 | |
| DL1XH-west | 2026-09-04 14:42:04 | 53.97090 | 11.01530 | 75° | 168km/h | 5687m | -5.1m/s | -12.2°C | 93.4% | 497.7hPa | 2.7V | 07:43:33 | 02:23:03 | 00:00:00 | |
| AA1-15 | 2026-09-04 14:42:02 | 53.97067 | 11.01389 | 74° | 172km/h | 5696m | -4.9m/s | -12.3°C | 93.9% | 497.1hPa | 2.6V | 07:43:33 | 02:23:01 | 00:00:00 | |
| DL1XH1-15 | 2026-09-04 14:42:00 | 53.96985 | 11.00896 | 75° | 172km/h | 5731m | -4.7m/s | -12.5°C | 99.1% | 494.9hPa | 2.7V | 07:43:27 | 02:22:54 | 00:00:00 | |
| DO2SHX-10 | 2026-09-04 14:42:00 | 53.97043 | 11.01247 | 74° | 170km/h | 5706m | -5.3m/s | -12.3°C | 98.4% | 496.3hPa | 2.7V | 00:00:00 | 02:22:59 | 00:00:00 | |
| DM0DOS-11 | 2026-09-04 14:41:59 | 53.96974 | 11.00825 | 74° | 172km/h | 5736m | -4.9m/s | -12.6°C | 99.6% | 494.6hPa | 2.7V | 07:43:28 | 02:22:53 | 00:00:00 | |
| BIOWL1-15 | 2026-09-04 14:41:56 | 53.96974 | 11.00825 | 75° | 172km/h | 5736m | -4.9m/s | -12.6°C | 95.6% | 494.6hPa | 2.7V | 07:43:33 | 02:22:53 | 00:00:00 | |
| DB0DAN | 2026-09-04 14:41:55 | 53.96985 | 11.00896 | 75° | 164km/h | 5731m | -4.7m/s | -12.5°C | 94% | 494.91hPa | 2.7V | 00:00:00 | 00:00:00 | 00:00:00 | |
| DL1XH-west | 2026-09-04 14:41:53 | 53.96962 | 11.00754 | 74° | 172km/h | 5741m | -4.7m/s | -12.6°C | 94.8% | 494.2hPa | 2.7V | 07:43:33 | 02:22:52 | 00:00:00 | |
| AA1-15 | 2026-09-04 14:41:51 | 53.96938 | 11.00612 | 74° | 170km/h | 5750m | -4.6m/s | -12.7°C | 94.9% | 493.6hPa | 2.6V | 07:43:33 | 02:22:50 | 00:00:00 | |
| DO2SHX-10 | 2026-09-04 14:41:51 | 53.96938 | 11.00612 | 74° | 172km/h | 5750m | -4.5m/s | -12.6°C | 0% | 493.5hPa | 2.6V | 00:00:00 | 02:22:50 | 00:00:00 | |
| DL1XH1-15 | 2026-09-04 14:41:50 | 53.96868 | 11.00187 | 74° | 172km/h | 5777m | -4.7m/s | -12.8°C | 0% | 491.8hPa | 2.6V | 07:43:37 | 02:22:44 | 00:00:00 | |
| DM0DOS-11 | 2026-09-04 14:41:49 | 53.96856 | 11.00116 | 74° | 173km/h | 5782m | -4.5m/s | -12.9°C | 0% | 491.5hPa | 2.7V | 07:43:38 | 02:22:43 | 00:00:00 | |
| BIOWL9-15 | 2026-09-04 14:41:48 | 53.96903 | 11.00400 | 74° | 172km/h | 5764m | -4.5m/s | -12.8°C | 96.8% | 492.7hPa | 2.7V | 00:00:00 | 00:00:00 | 00:00:00 | |
| BIOWL1-15 | 2026-09-04 14:41:45 | 53.96845 | 11.00044 | 75° | 173km/h | 5787m | -4.5m/s | -12.9°C | 95.6% | 491.3hPa | 2.7V | 07:44:24 | 02:22:42 | 00:00:00 | |
| DL1XH-west | 2026-09-04 14:41:42 | 53.96833 | 10.99973 | 75° | 172km/h | 5791m | -4.6m/s | -12.9°C | 94.5% | 490.9hPa | 2.7V | 07:44:24 | 02:22:41 | 00:00:00 | |
| AA1-15 | 2026-09-04 14:41:41 | 53.96821 | 10.99902 | 75° | 172km/h | 5796m | -4.4m/s | -12.9°C | 94.7% | 490.6hPa | 2.6V | 07:44:24 | 02:22:40 | 00:00:00 | |
| DB0DAN | 2026-09-04 14:41:40 | 53.96810 | 10.99831 | 75° | 162km/h | 5800m | -4.7m/s | -13°C | 94.1% | 490.38hPa | 2.6V | 00:00:00 | 00:00:00 | 00:00:00 | |
| DF8AY | 2026-09-04 14:41:40 | 53.96810 | 10.99831 | 75° | 170km/h | 5800m | -4.7m/s | -13°C | 94.9% | 490.4hPa | 2.6V | 07:44:24 | 02:22:39 | 00:00:00 | |
| DL1XH-15 | 2026-09-04 14:41:39 | 53.96743 | 10.99401 | 74° | 172km/h | 5827m | -4.4m/s | -13.2°C | 98.2% | 488.6hPa | 2.6V | 07:43:48 | 02:22:33 | 00:00:00 | |
| BIOWL1-15 | 2026-09-04 14:41:35 | 53.96731 | 10.99330 | 75° | 172km/h | 5831m | -4.5m/s | -13.2°C | 93.3% | 488.4hPa | 2.7V | 07:44:24 | 02:22:32 | 00:00:00 | |
| DL1XH-west | 2026-09-04 14:41:31 | 53.96709 | 10.99186 | 75° | 175km/h | 5840m | -4.5m/s | -13.2°C | 92.9% | 487.9hPa | 2.7V | 07:44:24 | 02:22:30 | 00:00:00 | |
| AA1-15 | 2026-09-04 14:41:30 | 53.96697 | 10.99114 | 74° | 175km/h | 5845m | -4.4m/s | -13.2°C | 92.8% | 487.6hPa | 2.7V | 07:44:24 | 02:22:29 | 00:00:00 | |
| DO2SHX-10 | 2026-09-04 14:41:30 | 53.96697 | 10.99114 | 75° | 173km/h | 5845m | -4.3m/s | -13.2°C | 97.9% | 487.5hPa | 2.7V | 00:00:00 | 02:22:29 | 00:00:00 | |
| AM1SDL-15 | 2026-09-04 14:41:28 | 53.96673 | 10.98971 | 74° | 172km/h | 5853m | -4.4m/s | -13.2°C | 97.9% | 486.9hPa | 2.6V | 00:00:00 | 02:22:27 | 00:00:00 | |
| DO2SHX-10 | 2026-09-04 14:41:27 | 53.96661 | 10.98900 | 75° | 173km/h | 5858m | -4.2m/s | -13.2°C | 97.9% | 486.6hPa | 2.7V | 00:00:00 | 02:22:26 | 00:00:00 | |
| BIOWL7-15 | 2026-09-04 14:41:26 | 53.96660 | 10.98900 | 75° | 172km/h | 5858m | -4.3m/s | -13.3°C | 92.7% | 486.7hPa | 2.7V | 00:00:00 | 00:00:00 | 00:00:00 | |
| DB0DAN | 2026-09-04 14:41:25 | 53.96637 | 10.98757 | 74° | 166km/h | 5866m | -4.4m/s | -13.3°C | 92.6% | 486.15hPa | 2.7V | 00:00:00 | 00:00:00 | 00:00:00 | |
| BIOWL1-15 | 2026-09-04 14:41:22 | 53.96601 | 10.98543 | 74° | 172km/h | 5879m | -4.4m/s | -13.4°C | 93.6% | 485.3hPa | 2.7V | 07:44:24 | 02:22:21 | 00:00:00 | |
| AA1-15 | 2026-09-04 14:41:20 | 53.96578 | 10.98402 | 75° | 172km/h | 5887m | -4.2m/s | -13.5°C | 93.7% | 484.8hPa | 2.7V | 07:44:24 | 02:22:19 | 00:00:00 | |
| DF8AY | 2026-09-04 14:41:19 | 53.96567 | 10.98331 | 75° | 173km/h | 5891m | -3.8m/s | -13.5°C | 93.8% | 484.6hPa | 2.7V | 07:44:24 | 02:22:18 | 00:00:00 | |
| BIOWL1-15 | 2026-09-04 14:41:14 | 53.96488 | 10.97829 | 75° | 172km/h | 5921m | -4.3m/s | -13.7°C | 93.1% | 482.8hPa | 2.6V | 07:44:24 | 02:22:11 | 00:00:00 | |
| DJ2DS-15 | 2026-09-04 14:41:13 | 53.96499 | 10.97900 | 76° | 173km/h | 5916m | -4.4m/s | -13.6°C | 98.1% | 482.9hPa | 2.6V | 00:00:00 | 02:22:12 | 00:00:00 | |
| DO2SHX-10 | 2026-09-04 14:41:12 | 53.96488 | 10.97829 | 75° | 172km/h | 5921m | -4.3m/s | -13.6°C | 98.1% | 482.7hPa | 2.6V | 00:00:00 | 02:22:11 | 00:00:00 | |
| DB0DAN | 2026-09-04 14:41:10 | 53.96465 | 10.97687 | 75° | 162km/h | 5929m | -4.2m/s | -13.8°C | 93% | 482.17hPa | 2.7V | 00:00:00 | 00:00:00 | 00:00:00 | |
| DL1XH1-15 | 2026-09-04 14:41:10 | 53.96409 | 10.97327 | 74° | 175km/h | 5949m | -4.2m/s | -13.8°C | 97.7% | 480.9hPa | 2.7V | 07:44:17 | 02:22:04 | 00:00:00 | |
| DL1XH-west | 2026-09-04 14:41:10 | 53.96465 | 10.97687 | 75° | 170km/h | 5929m | -4.2m/s | -13.8°C | 93% | 482.2hPa | 2.7V | 07:44:24 | 02:22:09 | 00:00:00 | |
| AA1-15 | 2026-09-04 14:41:09 | 53.96454 | 10.97616 | 76° | 172km/h | 5933m | -4m/s | -13.8°C | 92.8% | 482hPa | 2.7V | 07:44:24 | 02:22:08 | 00:00:00 | |
| DF8AY | 2026-09-04 14:41:08 | 53.96444 | 10.97544 | 76° | 173km/h | 5937m | -4.2m/s | -13.8°C | 92.6% | 481.6hPa | 2.7V | 07:44:24 | 02:22:07 | 00:00:00 | |
| BIOWL1-15 | 2026-09-04 14:41:01 | 53.96364 | 10.97039 | 76° | 175km/h | 5966m | -3.9m/s | -13.9°C | 91.9% | 479.8hPa | 2.6V | 07:44:24 | 02:22:00 | 00:00:00 | |
| DL1XH1-15 | 2026-09-04 14:41:00 | 53.96296 | 10.96607 | 75° | 173km/h | 5989m | -3.9m/s | -14.1°C | 96.2% | 478.3hPa | 2.6V | 07:44:27 | 02:21:54 | 00:00:00 | |
| DO2SHX-10 | 2026-09-04 14:41:00 | 53.96353 | 10.96966 | 76° | 175km/h | 5970m | -4.0m/s | -13.9°C | 97.1% | 479.5hPa | 2.7V | 07:44:00 | 02:21:59 | 00:00:00 | |
| DL1XH-15 | 2026-09-04 14:40:59 | 53.96285 | 10.96535 | 75° | 173km/h | 5993m | -3.9m/s | -14.1°C | 96.3% | 478.1hPa | 2.7V | 07:44:28 | 02:21:53 | 00:00:00 | |
| DL1XH-west | 2026-09-04 14:40:59 | 53.96341 | 10.96894 | 75° | 175km/h | 5973m | -4m/s | -14°C | 92.1% | 479.3hPa | 2.7V | 07:44:24 | 02:21:58 | 00:00:00 | |
| AA1-15 | 2026-09-04 14:40:58 | 53.96329 | 10.96822 | 75° | 173km/h | 5977m | -3.8m/s | -14°C | 92.1% | 479.1hPa | 2.7V | 07:44:24 | 02:21:57 | 00:00:00 | |
| DF8AY | 2026-09-04 14:40:57 | 53.96318 | 10.96750 | 75° | 172km/h | 5981m | -3.9m/s | -14°C | 91.8% | 478.8hPa | 2.7V | 07:46:06 | 02:21:56 | 00:00:00 | |
| DO2SHX-10 | 2026-09-04 14:40:57 | 53.96318 | 10.96750 | 75° | 172km/h | 5981m | -3.8m/s | -14.0°C | 96.6% | 478.7hPa | 2.6V | 00:00:00 | 02:21:56 | 00:00:00 | |
| DB0DAN | 2026-09-04 14:40:55 | 53.96296 | 10.96607 | 76° | 164km/h | 5989m | -3.9m/s | -14.1°C | 90.9% | 478.31hPa | 2.6V | 00:00:00 | 00:00:00 | 00:00:00 | |
| BIOWL1-15 | 2026-09-04 14:40:52 | 53.96241 | 10.96247 | 76° | 173km/h | 6009m | -4.1m/s | -14.2°C | 91.1% | 477.1hPa | 2.6V | 07:45:15 | 02:21:49 | 00:00:00 | |
| DO2SHX-10 | 2026-09-04 14:40:51 | 53.96251 | 10.96319 | 76° | 173km/h | 6005m | -3.9m/s | -14.1°C | 96.3% | 477.3hPa | 2.6V | 00:00:00 | 02:21:50 | 00:00:00 | |
| DL1XH-15 | 2026-09-04 14:40:49 | 53.96171 | 10.95813 | 74° | 177km/h | 6031m | -3.8m/s | -14.3°C | 96.2% | 475.6hPa | 2.6V | 07:44:38 | 02:21:43 | 00:00:00 | |
| DL1XH-west | 2026-09-04 14:40:48 | 53.96218 | 10.96102 | 75° | 175km/h | 6016m | -3.8m/s | -14.3°C | 91.2% | 476.6hPa | 2.7V | 07:45:15 | 02:21:47 | 00:00:00 | |
| AA1-15 | 2026-09-04 14:40:47 | 53.96206 | 10.96030 | 74° | 173km/h | 6020m | -3.7m/s | -14.3°C | 91.3% | 476.3hPa | 2.7V | 07:45:15 | 02:21:46 | 00:00:00 | |
| BIOWL9-15 | 2026-09-04 14:40:46 | 53.96195 | 10.95958 | 74° | 173km/h | 6024m | -3.8m/s | -14.3°C | 91.0% | 476.1hPa | 2.7V | 00:00:00 | 00:00:00 | 00:00:00 | |
| BIOWL1-15 | 2026-09-04 14:40:42 | 53.96123 | 10.95523 | 75° | 175km/h | 6047m | -3.5m/s | -14.4°C | 90.5% | 474.7hPa | 2.7V | 07:45:15 | 02:21:39 | 00:00:00 | |
| DO2SHX-10 | 2026-09-04 14:40:42 | 53.96147 | 10.95667 | 74° | 175km/h | 6039m | -3.8m/s | -14.3°C | 95.9% | 475.1hPa | 2.7V | 00:00:00 | 02:21:41 | 00:00:00 | |
| DB0DAN | 2026-09-04 14:40:40 | 53.96123 | 10.95523 | 75° | 166km/h | 6047m | -3.5m/s | -14.4°C | 90.5% | 474.7hPa | 2.7V | 00:00:00 | 00:00:00 | 00:00:00 | |
| DL1XH1-15 | 2026-09-04 14:40:40 | 53.96065 | 10.95159 | 75° | 173km/h | 6066m | -3.9m/s | -14.5°C | 95.3% | 473.5hPa | 2.7V | 07:44:47 | 02:21:34 | 00:00:00 | |
| DL1XH-west | 2026-09-04 14:40:37 | 53.96088 | 10.95304 | 75° | 175km/h | 6058m | -4.1m/s | -14.5°C | 90.2% | 474hPa | 2.7V | 07:45:15 | 02:21:36 | 00:00:00 | |
| DF8AY | 2026-09-04 14:40:36 | 53.96076 | 10.95231 | 75° | 173km/h | 6062m | -3.9m/s | -14.5°C | 90.2% | 473.7hPa | 2.7V | 07:46:06 | 02:21:35 | 00:00:00 | |
| DO2SHX-10 | 2026-09-04 14:40:36 | 53.96076 | 10.95231 | 75° | 173km/h | 6062m | -3.9m/s | -14.5°C | 95.6% | 473.7hPa | 2.7V | 07:44:00 | 02:21:35 | 00:00:00 | |
| SMARD9-15 | 2026-09-04 14:40:34 | 53.96043 | 10.95014 | 76° | 175km/h | 6073m | -3.9m/s | -14.5°C | 89.4% | 473.1hPa | 2.6V | 00:00:00 | 00:00:00 | 00:00:00 | |
| DJ2DS-15 | 2026-09-04 14:40:33 | 53.96043 | 10.95014 | 77° | 175km/h | 6073m | -3.8m/s | -14.5°C | 94.7% | 473.1hPa | 2.6V | 00:00:00 | 02:21:32 | 00:00:00 | |
| DL1XH1-15 | 2026-09-04 14:40:30 | 53.95951 | 10.94429 | 74° | 173km/h | 6105m | -3.6m/s | -14.6°C | 93.9% | 471hPa | 2.7V | 07:44:57 | 02:21:24 | 00:00:00 | |
| BIOWL1-15 | 2026-09-04 14:40:29 | 53.95998 | 10.94720 | 75° | 175km/h | 6089m | -4.1m/s | -14.6°C | 89.8% | 472.1hPa | 2.7V | 07:45:15 | 02:21:28 | 00:00:00 | |
| DL1XH-west | 2026-09-04 14:40:26 | 53.95963 | 10.94502 | 75° | 175km/h | 6101m | -4m/s | -14.6°C | 89.5% | 471.4hPa | 2.7V | 07:45:15 | 02:21:25 | 00:00:00 | |
| AM1SDL-15 | 2026-09-04 14:40:25 | 53.95951 | 10.94429 | 75° | 175km/h | 6105m | -3.6m/s | -14.6°C | 93.9% | 471.0hPa | 2.7V | 00:00:00 | 02:21:24 | 00:00:00 | |
| DB0DAN | 2026-09-04 14:40:25 | 53.95952 | 10.94429 | 75° | 166km/h | 6105m | -3.6m/s | -14.6°C | 88.5% | 471.01hPa | 2.7V | 00:00:00 | 00:00:00 | 00:00:00 | |
| DO2SHX-10 | 2026-09-04 14:40:24 | 53.95940 | 10.94358 | 76° | 173km/h | 6108m | -4.2m/s | -14.6°C | 93.8% | 470.8hPa | 2.7V | 00:00:00 | 02:21:23 | 00:00:00 | |
| DO2SHX-10 | 2026-09-04 14:40:21 | 53.95908 | 10.94141 | 77° | 177km/h | 6120m | -3.6m/s | -14.7°C | 92.7% | 470.2hPa | 2.7V | 00:00:00 | 02:21:20 | 00:00:00 | |
| DL1XH1-15 | 2026-09-04 14:40:20 | 53.95841 | 10.93701 | 75° | 177km/h | 6142m | -3.8m/s | -14.9°C | 93.2% | 468.8hPa | 2.7V | 07:45:07 | 02:21:14 | 00:00:00 | |
| DL1XH-15 | 2026-09-04 14:40:19 | 53.95830 | 10.93628 | 75° | 177km/h | 6146m | -3.6m/s | -14.9°C | 93.6% | 468.6hPa | 2.7V | 07:45:08 | 02:21:13 | 00:00:00 | |
| BIOWL1-15 | 2026-09-04 14:40:18 | 53.95875 | 10.93920 | 75° | 177km/h | 6131m | -3.6m/s | -14.8°C | 87.9% | 469.5hPa | 2.7V | 07:45:15 | 02:21:17 | 00:00:00 | |
| DL1XH-west | 2026-09-04 14:40:16 | 53.95852 | 10.93774 | 76° | 175km/h | 6139m | -3.6m/s | -14.8°C | 87.9% | 469hPa | 2.6V | 07:45:15 | 02:21:15 | 00:00:00 | |
| DF8AY | 2026-09-04 14:40:15 | 53.95841 | 10.93701 | 76° | 177km/h | 6143m | -3.8m/s | -14.9°C | 88.1% | 468.8hPa | 2.7V | 07:46:06 | 02:21:14 | 00:00:00 | |
| DO2SHX-10 | 2026-09-04 14:40:15 | 53.95841 | 10.93701 | 76° | 177km/h | 6143m | -3.7m/s | -14.8°C | 93.2% | 468.7hPa | 2.7V | 00:00:00 | 02:21:14 | 00:00:00 | |
| DJ2DS-15 | 2026-09-04 14:40:13 | 53.95819 | 10.93554 | 76° | 177km/h | 6150m | -3.6m/s | -14.9°C | 93.5% | 468.4hPa | 2.7V | 00:00:00 | 02:21:12 | 00:00:00 | |
| DO2SHX-10 | 2026-09-04 14:40:12 | 53.95808 | 10.93481 | 76° | 175km/h | 6153m | -3.5m/s | -14.9°C | 94.0% | 468.0hPa | 2.7V | 07:45:00 | 02:21:11 | 00:00:00 | |
| DB0DAN | 2026-09-04 14:40:10 | 53.95786 | 10.93335 | 76° | 168km/h | 6160m | -3.5m/s | -15°C | 88.9% | 467.72hPa | 2.7V | 00:00:00 | 00:00:00 | 00:00:00 | |
| DL1XH1-15 | 2026-09-04 14:40:10 | 53.95730 | 10.92962 | 75° | 179km/h | 6177m | -3.4m/s | -15.1°C | 94.8% | 466.6hPa | 2.6V | 07:45:17 | 02:21:04 | 00:00:00 | |
| BIOWL1-15 | 2026-09-04 14:40:10 | 53.95764 | 10.93186 | 76° | 181km/h | 6167m | -3.5m/s | -15.1°C | 89.1% | 467.2hPa | 2.7V | 07:45:15 | 02:21:07 | 00:00:00 | |
| DM0DOS-11 | 2026-09-04 14:40:09 | 53.95718 | 10.92887 | 75° | 181km/h | 6181m | -3.5m/s | -15.2°C | 94.7% | 466.4hPa | 2.7V | 07:45:18 | 02:21:03 | 00:00:00 | |
| DL1XH-west | 2026-09-04 14:40:05 | 53.95730 | 10.92962 | 75° | 179km/h | 6177m | -3.4m/s | -15.1°C | 89.5% | 466.6hPa | 2.6V | 07:46:06 | 02:21:04 | 00:00:00 | |
| DF8AY | 2026-09-04 14:40:04 | 53.95718 | 10.92887 | 75° | 181km/h | 6181m | -3.5m/s | -15.2°C | 89.5% | 466.4hPa | 2.7V | 07:46:06 | 02:21:03 | 00:00:00 | |
| DL1XH1-15 | 2026-09-04 14:40:02 | 53.95612 | 10.92226 | 75° | 177km/h | 6211m | -3.2m/s | -15.4°C | 93.3% | 464.6hPa | 2.6V | 07:45:27 | 02:20:54 | 00:00:00 | |
| DJ2DS-15 | 2026-09-04 14:40:01 | 53.95682 | 10.92664 | 73° | 177km/h | 6191m | -3.3m/s | -15.2°C | 88.0% | 465.8hPa | 2.6V | 00:00:00 | 00:00:00 | 00:00:00 | |
| DO2SHX-10 | 2026-09-04 14:40:00 | 53.95670 | 10.92590 | 75° | 175km/h | 6194m | -3.1m/s | -15.2°C | 93.6% | 465.6hPa | 2.6V | 00:00:00 | 02:20:59 | 00:00:00 | |
| DL1XH-15 | 2026-09-04 14:39:59 | 53.95601 | 10.92152 | 75° | 179km/h | 6214m | -3.2m/s | -15.4°C | 93.3% | 464.3hPa | 2.6V | 07:45:28 | 02:20:53 | 00:00:00 | |
| BIOWL1-15 | 2026-09-04 14:39:57 | 53.95635 | 10.92373 | 75° | 177km/h | 6204m | -3.4m/s | -15.3°C | 88% | 464.9hPa | 2.7V | 07:46:06 | 02:20:56 | 00:00:00 | |
| DO2SHX-10 | 2026-09-04 14:39:57 | 53.95635 | 10.92373 | 76° | 177km/h | 6205m | -3.3m/s | -15.3°C | 93.5% | 464.9hPa | 2.6V | 00:00:00 | 02:20:56 | 00:00:00 | |
| DB0DAN | 2026-09-04 14:39:55 | 53.95612 | 10.92226 | 75° | 170km/h | 6211m | -3.2m/s | -15.4°C | 87.8% | 464.59hPa | 2.6V | 00:00:00 | 00:00:00 | 00:00:00 | |
| DL1XH-west | 2026-09-04 14:39:54 | 53.95601 | 10.92152 | 76° | 179km/h | 6215m | -3.3m/s | -15.4°C | 88.1% | 464.3hPa | 2.6V | 07:46:06 | 02:20:53 | 00:00:00 | |
| D01LWL | 2026-09-04 14:39:53 | 53.95579 | 10.92002 | 75° | 181km/h | 6221m | -3.9m/s | -15.5°C | 87.8% | 463.9hPa | 2.6V | 00:00:00 | 00:00:00 | 00:00:00 | |
| DL4BBY-15 | 2026-09-04 14:39:51 | 53.95568 | 10.91926 | 76° | 179km/h | 6224m | -3.2m/s | -15.4°C | 0% | 0hPa | 2.6V | 00:00:00 | 00:00:00 | 00:00:00 | |
| DL1XH1-15 | 2026-09-04 14:39:50 | 53.95498 | 10.91476 | 74° | 179km/h | 6245m | -3.4m/s | -15.6°C | 93.1% | 462.4hPa | 2.6V | 07:45:37 | 02:20:44 | 00:00:00 | |
| DM0DOS-11 | 2026-09-04 14:39:49 | 53.95486 | 10.91403 | 75° | 177km/h | 6248m | -3.3m/s | -15.6°C | 93.2% | 462.2hPa | 2.6V | 07:45:38 | 02:20:43 | 00:00:00 | |
| BIOWL1-15 | 2026-09-04 14:39:48 | 53.95509 | 10.91550 | 75° | 181km/h | 6241m | -3.8m/s | -15.6°C | 88% | 462.7hPa | 2.7V | 07:46:06 | 02:20:45 | 00:00:00 | |
| DF8AY | 2026-09-04 14:39:45 | 53.95497 | 10.91476 | 75° | 179km/h | 6245m | -3.4m/s | -15.6°C | 87.8% | 462.4hPa | 2.6V | 07:46:06 | 02:20:44 | 00:00:00 | |
| AA1-15 | 2026-09-04 14:39:44 | 53.95486 | 10.91403 | 75° | 177km/h | 6248m | -3.3m/s | -15.6°C | 87.9% | 462.2hPa | 2.6V | 07:46:06 | 02:20:43 | 00:00:00 | |
| DL1XH-west | 2026-09-04 14:39:43 | 53.95474 | 10.91329 | 75° | 177km/h | 6252m | -3.2m/s | -15.7°C | 88% | 462hPa | 2.7V | 07:46:06 | 02:20:42 | 00:00:00 | |
| DO2SHX-10 | 2026-09-04 14:39:42 | 53.95462 | 10.91256 | 76° | 177km/h | 6255m | -3.5m/s | -15.6°C | 93.2% | 461.8hPa | 2.7V | 00:00:00 | 02:20:41 | 00:00:00 | |
| DB0DAN | 2026-09-04 14:39:40 | 53.95440 | 10.91109 | 76° | 168km/h | 6262m | -3.6m/s | -15.7°C | 87.4% | 461.38hPa | 2.7V | 00:00:00 | 00:00:00 | 00:00:00 | |
| DL1XH1-15 | 2026-09-04 14:39:40 | 53.95386 | 10.90738 | 75° | 181km/h | 6280m | -3.5m/s | -15.8°C | 93.3% | 460.3hPa | 2.7V | 07:45:47 | 02:20:34 | 00:00:00 | |
| DM0DOS-11 | 2026-09-04 14:39:39 | 53.95374 | 10.90662 | 75° | 183km/h | 6284m | -3.6m/s | -15.9°C | 93.2% | 460.1hPa | 2.6V | 07:45:48 | 02:20:33 | 00:00:00 | |
| BIOWL1-15 | 2026-09-04 14:39:35 | 53.95386 | 10.90738 | 76° | 181km/h | 6280m | -3.5m/s | -15.9°C | 87.8% | 460.3hPa | 2.7V | 07:46:06 | 02:20:34 | 00:00:00 | |
| AA1-15 | 2026-09-04 14:39:34 | 53.95374 | 10.90662 | 75° | 183km/h | 6284m | -3.6m/s | -15.9°C | 87.7% | 460.1hPa | 2.6V | 07:46:06 | 02:20:33 | 00:00:00 | |
| DL1XH-west | 2026-09-04 14:39:32 | 53.95350 | 10.90511 | 74° | 183km/h | 6291m | -3.3m/s | -15.9°C | 87.2% | 459.7hPa | 2.7V | 07:46:06 | 02:20:31 | 00:00:00 | |
| SMARD9-15 | 2026-09-04 14:39:32 | 53.95337 | 10.90437 | 74° | 179km/h | 6294m | -3.2m/s | -15.9°C | 87.0% | 459.5hPa | 2.7V | 00:00:00 | 00:00:00 | 00:00:00 | |
| DL1XH1-15 | 2026-09-04 14:39:30 | 53.95270 | 10.89993 | 75° | 179km/h | 6313m | -3.2m/s | -16.1°C | 93.3% | 458.3hPa | 2.7V | 07:45:57 | 02:20:24 | 00:00:00 | |
| DO2SHX-10 | 2026-09-04 14:39:30 | 53.95325 | 10.90363 | 75° | 177km/h | 6297m | -3.0m/s | -15.9°C | 92.8% | 459.2hPa | 2.7V | 00:00:00 | 02:20:29 | 00:00:00 | |
| DL1XH-15 | 2026-09-04 14:39:29 | 53.95259 | 10.89919 | 75° | 177km/h | 6316m | -3.3m/s | -16.1°C | 93.1% | 458.1hPa | 2.7V | 07:45:58 | 02:20:23 | 00:00:00 | |
| DO2SHX-10 | 2026-09-04 14:39:27 | 53.95292 | 10.90141 | 77° | 179km/h | 6307m | -3.2m/s | -16.0°C | 93.2% | 458.7hPa | 2.7V | 00:00:00 | 02:20:26 | 00:00:00 | |
| DB0DAN | 2026-09-04 14:39:25 | 53.95270 | 10.89993 | 76° | 170km/h | 6313m | -3.2m/s | -16.1°C | 87.7% | 458.27hPa | 2.7V | 00:00:00 | 00:00:00 | 00:00:00 | |
| BIOWL1-15 | 2026-09-04 14:39:25 | 53.95270 | 10.89993 | 76° | 179km/h | 6313m | -3.2m/s | -16.1°C | 87.2% | 458.3hPa | 2.7V | 07:46:06 | 02:20:24 | 00:00:00 | |
| AA1-15 | 2026-09-04 14:39:23 | 53.95248 | 10.89845 | 76° | 179km/h | 6320m | -3.2m/s | -16.1°C | 87.3% | 457.9hPa | 2.6V | 07:46:06 | 02:20:22 | 00:00:00 | |
| DL1XH-west | 2026-09-04 14:39:22 | 53.95237 | 10.89770 | 76° | 179km/h | 6323m | -3.7m/s | -16.1°C | 87.3% | 457.8hPa | 2.6V | 07:46:06 | 02:20:21 | 00:00:00 | |
| DF8AY | 2026-09-04 14:39:21 | 53.95226 | 10.89696 | 76° | 179km/h | 6326m | -3.1m/s | -16.1°C | 86.8% | 457.4hPa | 2.7V | 07:46:06 | 02:20:20 | 00:00:00 | |
| DO2SHX-10 | 2026-09-04 14:39:21 | 53.95226 | 10.89696 | 76° | 179km/h | 6326m | -3.1m/s | -16.1°C | 92.3% | 457.4hPa | 2.7V | 00:00:00 | 02:20:20 | 00:00:00 | |
| DL1XH-15 | 2026-09-04 14:39:19 | 53.95152 | 10.89172 | 76° | 181km/h | 6350m | -3.1m/s | -16.3°C | 91.6% | 456.1hPa | 2.7V | 07:46:08 | 02:20:13 | 00:00:00 | |
| DO2SHX-10 | 2026-09-04 14:39:18 | 53.95194 | 10.89473 | 77° | 179km/h | 6337m | -3.1m/s | -16.1°C | 92.1% | 456.9hPa | 2.6V | 00:00:00 | 02:20:17 | 00:00:00 | |
| DM0DOS-11 | 2026-09-04 14:39:17 | 53.95131 | 10.89022 | 76° | 181km/h | 6356m | -3.3m/s | -16.3°C | 91.6% | 455.7hPa | 2.6V | 07:46:10 | 02:20:11 | 00:00:00 | |
| BIOWL1-15 | 2026-09-04 14:39:15 | 53.95163 | 10.89248 | 77° | 181km/h | 6347m | -3.7m/s | -16.2°C | 86.3% | 456.3hPa | 2.7V | 07:46:57 | 02:20:14 | 00:00:00 | |
| AA1-15 | 2026-09-04 14:39:12 | 53.95131 | 10.89022 | 77° | 181km/h | 6356m | -3.3m/s | -16.3°C | 86.6% | 455.7hPa | 2.6V | 07:46:57 | 02:20:11 | 00:00:00 | |
| DL1XH-west | 2026-09-04 14:39:11 | 53.95121 | 10.88946 | 77° | 181km/h | 6360m | -3.4m/s | -16.3°C | 86.4% | 455.4hPa | 2.7V | 07:46:57 | 02:20:10 | 00:00:00 | |
| DB0DAN | 2026-09-04 14:39:10 | 53.95110 | 10.88870 | 77° | 173km/h | 6363m | -3.6m/s | -16.4°C | 85.8% | 455.38hPa | 2.7V | 00:00:00 | 00:00:00 | 00:00:00 | |
| DL1XH1-15 | 2026-09-04 14:39:10 | 53.95057 | 10.88494 | 76° | 181km/h | 6380m | -3.8m/s | -16.4°C | 90.8% | 454.2hPa | 2.7V | 07:46:17 | 02:20:04 | 00:00:00 | |
| SONDE2-11 | 2026-09-04 14:39:10 | 53.95100 | 10.88794 | 76° | 181km/h | 6367m | -3.4m/s | -16.4°C | 86.0% | 455.1hPa | 2.6V | 00:00:00 | 00:00:00 | 00:00:00 | |
| DF8AY | 2026-09-04 14:39:10 | 53.95110 | 10.88870 | 77° | 183km/h | 6363m | -3.6m/s | -16.4°C | 86.2% | 455.4hPa | 2.7V | 07:46:57 | 02:20:09 | 00:00:00 | |
| DO2SHX-10 | 2026-09-04 14:39:09 | 53.95100 | 10.88794 | 77° | 181km/h | 6367m | -3.4m/s | -16.3°C | 91.6% | 455.1hPa | 2.6V | 00:00:00 | 02:20:08 | 00:00:00 | |
| S3001 | 2026-09-04 14:39:08 | 53.95089 | 10.88719 | 76° | 181km/h | 6370m | -3.4m/s | -16.4°C | 85.6% | 454.9hPa | 2.6V | 00:00:00 | 00:00:00 | 00:00:00 | |
| DM0DOS-11 | 2026-09-04 14:39:07 | 53.95026 | 10.88267 | 76° | 183km/h | 6390m | -3.4m/s | -16.5°C | 89.7% | 453.7hPa | 2.6V | 07:46:20 | 02:20:01 | 00:00:00 | |
| BIOWL1-15 | 2026-09-04 14:39:07 | 53.95057 | 10.88494 | 77° | 181km/h | 6380m | -3.8m/s | -16.4°C | 85.2% | 454.2hPa | 2.7V | 07:46:57 | 02:20:04 | 00:00:00 | |
| AA1-15 | 2026-09-04 14:39:02 | 53.95026 | 10.88267 | 77° | 183km/h | 6390m | -3.4m/s | -16.5°C | 84.9% | 453.7hPa | 2.6V | 07:46:57 | 02:20:01 | 00:00:00 | |
| DL1XH-west | 2026-09-04 14:39:00 | 53.95004 | 10.88114 | 76° | 184km/h | 6397m | -3.5m/s | -16.5°C | 84.7% | 453.3hPa | 2.7V | 07:46:57 | 02:19:59 | 00:00:00 | |
| DF8AY | 2026-09-04 14:38:59 | 53.94993 | 10.88037 | 76° | 184km/h | 6400m | -3m/s | -16.6°C | 84.9% | 453.1hPa | 2.7V | 07:46:57 | 02:19:58 | 00:00:00 | |
| DM0DOS-11 | 2026-09-04 14:38:57 | 53.94914 | 10.87500 | 76° | 183km/h | 6423m | -3.2m/s | -16.7°C | 89.8% | 451.7hPa | 2.6V | 07:46:30 | 02:19:51 | 00:00:00 | |
| DO2SHX-10 | 2026-09-04 14:38:57 | 53.94970 | 10.87884 | 76° | 184km/h | 6407m | -3.0m/s | -16.6°C | 89.8% | 452.6hPa | 2.6V | 00:00:00 | 02:19:56 | 00:00:00 | |
| DB0DAN | 2026-09-04 14:38:55 | 53.94947 | 10.87731 | 76° | 177km/h | 6413m | -3.2m/s | -16.7°C | 84.3% | 452.35hPa | 2.7V | 00:00:00 | 00:00:00 | 00:00:00 | |
| BIOWL1-15 | 2026-09-04 14:38:54 | 53.94936 | 10.87654 | 76° | 184km/h | 6416m | -3.5m/s | -16.7°C | 84.7% | 452.1hPa | 2.7V | 07:46:57 | 02:19:53 | 00:00:00 | |
| DF8AY | 2026-09-04 14:38:53 | 53.94875 | 10.87193 | 78° | 184km/h | 6436m | -3.7m/s | -16.8°C | 84.7% | 450.9hPa | 2.7V | 07:46:57 | 02:19:47 | 00:00:00 | |
| AA1-15 | 2026-09-04 14:38:51 | 53.94904 | 10.87424 | 77° | 183km/h | 6426m | -2.8m/s | -16.8°C | 84.8% | 451.4hPa | 2.6V | 07:46:57 | 02:19:50 | 00:00:00 | |
| D01LWL | 2026-09-04 14:38:51 | 53.94894 | 10.87348 | 77° | 183km/h | 6429m | -3.2m/s | -16.8°C | 84.3% | 451.3hPa | 2.6V | 00:00:00 | 00:00:00 | 00:00:00 | |
| DL1XH1-15 | 2026-09-04 14:38:50 | 53.94844 | 10.86961 | 77° | 184km/h | 6446m | -3.5m/s | -16.9°C | 89.7% | 450.2hPa | 2.6V | 07:46:37 | 02:19:44 | 00:00:00 | |
| DL1XH-west | 2026-09-04 14:38:50 | 53.94894 | 10.87348 | 78° | 183km/h | 6429m | -3.2m/s | -16.8°C | 84.7% | 451.3hPa | 2.7V | 07:46:57 | 02:19:49 | 00:00:00 | |
| DJ2DS-15 | 2026-09-04 14:38:49 | 53.94884 | 10.87271 | 78° | 183km/h | 6432m | -3.4m/s | -16.8°C | 84.3% | 451.1hPa | 2.7V | 00:00:00 | 00:00:00 | 00:00:00 | |
| DO2SHX-10 | 2026-09-04 14:38:48 | 53.94875 | 10.87193 | 78° | 184km/h | 6436m | -3.7m/s | -16.8°C | 90.1% | 450.8hPa | 2.7V | 00:00:00 | 02:19:47 | 00:00:00 | |
| DM0DOS-11 | 2026-09-04 14:38:47 | 53.94814 | 10.86730 | 77° | 186km/h | 6456m | -3.3m/s | -16.9°C | 89% | 449.6hPa | 2.7V | 07:46:40 | 02:19:41 | 00:00:00 | |
| BIOWL1-15 | 2026-09-04 14:38:44 | 53.94834 | 10.86884 | 78° | 184km/h | 6450m | -3.2m/s | -16.9°C | 84.1% | 450.1hPa | 2.6V | 07:46:57 | 02:19:43 | 00:00:00 | |
| AA1-15 | 2026-09-04 14:38:41 | 53.94803 | 10.86652 | 77° | 186km/h | 6460m | -4.1m/s | -16.9°C | 83.3% | 449.5hPa | 2.7V | 07:46:57 | 02:19:40 | 00:00:00 | |
| DB0DAN | 2026-09-04 14:38:40 | 53.94793 | 10.86575 | 77° | 175km/h | 6464m | -3.4m/s | -16.9°C | 82.8% | 449.21hPa | 2.7V | 00:00:00 | 00:00:00 | 00:00:00 | |
| DL1XH-west | 2026-09-04 14:38:39 | 53.94782 | 10.86498 | 77° | 184km/h | 6467m | -3.4m/s | -17°C | 82.7% | 449hPa | 2.6V | 07:46:57 | 02:19:38 | 00:00:00 | |
| DF8AY | 2026-09-04 14:38:38 | 53.94772 | 10.86421 | 77° | 184km/h | 6471m | -3.5m/s | -17°C | 82.5% | 448.9hPa | 2.6V | 07:46:57 | 02:19:37 | 00:00:00 | |
| DM0DOS-11 | 2026-09-04 14:38:37 | 53.94711 | 10.85952 | 77° | 186km/h | 6491m | -3.5m/s | -17.1°C | 87.6% | 447.6hPa | 2.7V | 07:46:50 | 02:19:31 | 00:00:00 | |
| BIOWL1-15 | 2026-09-04 14:38:33 | 53.94721 | 10.86030 | 77° | 186km/h | 6488m | -3.6m/s | -17.1°C | 81.7% | 447.9hPa | 2.6V | 07:46:57 | 02:19:32 | 00:00:00 | |
| AA1-15 | 2026-09-04 14:38:30 | 53.94692 | 10.85796 | 79° | 186km/h | 6498m | -3.4m/s | -17.1°C | 81.4% | 447.2hPa | 2.7V | 07:46:57 | 02:19:29 | 00:00:00 | |
| DL1XH-west | 2026-09-04 14:38:28 | 53.94673 | 10.85640 | 78° | 186km/h | 6505m | -3.4m/s | -17.1°C | 81.4% | 446.8hPa | 2.6V | 07:46:57 | 02:19:27 | 00:00:00 | |
| DM0DOS-11 | 2026-09-04 14:38:27 | 53.94618 | 10.85174 | 78° | 186km/h | 6525m | -3.5m/s | -17.2°C | 87.5% | 445.5hPa | 2.7V | 07:47:00 | 02:19:21 | 00:00:00 | |
| DO2SHX-10 | 2026-09-04 14:38:27 | 53.94664 | 10.85562 | 79° | 184km/h | 6508m | -3.4m/s | -17.1°C | 87.4% | 446.5hPa | 2.7V | 00:00:00 | 02:19:26 | 00:00:00 | |
| DB0DAN | 2026-09-04 14:38:25 | 53.94645 | 10.85407 | 79° | 175km/h | 6515m | -3.2m/s | -17.1°C | 81.6% | 446.2hPa | 2.7V | 00:00:00 | 00:00:00 | 00:00:00 | |
| BIOWL1-15 | 2026-09-04 14:38:22 | 53.94618 | 10.85174 | 78° | 186km/h | 6525m | -3.5m/s | -17.2°C | 81.4% | 445.5hPa | 2.7V | 07:47:48 | 02:19:21 | 00:00:00 | |
| DO2SHX-10 | 2026-09-04 14:38:21 | 53.94608 | 10.85096 | 78° | 184km/h | 6529m | -3.6m/s | -17.1°C | 87.5% | 445.3hPa | 2.7V | 00:00:00 | 02:19:20 | 00:00:00 | |
| DL1XH1-15 | 2026-09-04 14:38:20 | 53.94551 | 10.84638 | 79° | 183km/h | 6550m | -3.8m/s | -17.3°C | 87.2% | 444.1hPa | 2.7V | 07:47:07 | 02:19:14 | 00:00:00 | |
| AA1-15 | 2026-09-04 14:38:19 | 53.94587 | 10.84942 | 77° | 183km/h | 6536m | -3.3m/s | -17.2°C | 81.5% | 444.9hPa | 2.6V | 07:47:48 | 02:19:18 | 00:00:00 | |
| DL1XH-west | 2026-09-04 14:38:18 | 53.94577 | 10.84866 | 78° | 181km/h | 6539m | -3.4m/s | -17.2°C | 81.4% | 444.8hPa | 2.6V | 07:47:48 | 02:19:17 | 00:00:00 | |
| DO2SHX-10 | 2026-09-04 14:38:18 | 53.94577 | 10.84866 | 78° | 181km/h | 6539m | -3.3m/s | -17.2°C | 87.1% | 444.7hPa | 2.7V | 00:00:00 | 02:19:17 | 00:00:00 | |
| DM0DOS-11 | 2026-09-04 14:38:17 | 53.94525 | 10.84405 | 79° | 184km/h | 6560m | -4m/s | -17.4°C | 87.8% | 443.5hPa | 2.7V | 07:47:10 | 02:19:11 | 00:00:00 | |
| BIOWL1-15 | 2026-09-04 14:38:16 | 53.94525 | 10.84405 | 79° | 184km/h | 6561m | -4m/s | -17.4°C | 81% | 443.5hPa | 2.7V | 07:47:48 | 02:19:11 | 00:00:00 | |
| DO2SHX-10 | 2026-09-04 14:38:15 | 53.94551 | 10.84638 | 80° | 184km/h | 6550m | -3.8m/s | -17.2°C | 87.2% | 444.1hPa | 2.7V | 00:00:00 | 02:19:14 | 00:00:00 | |
| DJ2DS-15 | 2026-09-04 14:38:13 | 53.94534 | 10.84483 | 80° | 181km/h | 6557m | -3.2m/s | -17.3°C | 87.8% | 443.6hPa | 2.7V | 00:00:00 | 02:19:12 | 00:00:00 | |
| DO2SHX-10 | 2026-09-04 14:38:12 | 53.94525 | 10.84405 | 80° | 184km/h | 6561m | -4.0m/s | -17.3°C | 87.8% | 443.4hPa | 2.7V | 07:47:00 | 02:19:11 | 00:00:00 | |
| DB0DAN | 2026-09-04 14:38:10 | 53.94507 | 10.84251 | 79° | 175km/h | 6568m | -3.8m/s | -17.4°C | 82.2% | 443.08hPa | 2.7V | 00:00:00 | 00:00:00 | 00:00:00 | |
| DL1XH1-15 | 2026-09-04 14:38:10 | 53.94464 | 10.83870 | 80° | 181km/h | 6586m | -3.8m/s | -17.4°C | 87.5% | 442hPa | 2.7V | 07:47:17 | 02:19:04 | 00:00:00 | |
| DL1XH-15 | 2026-09-04 14:38:09 | 53.94457 | 10.83794 | 79° | 179km/h | 6589m | -3.4m/s | -17.4°C | 87.5% | 441.8hPa | 2.6V | 07:47:18 | 02:19:03 | 00:00:00 | |
| AA1-15 | 2026-09-04 14:38:09 | 53.94498 | 10.84173 | 79° | 183km/h | 6571m | -3.7m/s | -17.4°C | 81.1% | 442.8hPa | 2.6V | 07:47:48 | 02:19:08 | 00:00:00 | |
| DL1XH-west | 2026-09-04 14:38:08 | 53.94490 | 10.84097 | 79° | 181km/h | 6575m | -3.9m/s | -17.4°C | 81.1% | 442.6hPa | 2.6V | 07:47:48 | 02:19:07 | 00:00:00 | |
| DF8AY | 2026-09-04 14:38:07 | 53.94481 | 10.84021 | 79° | 179km/h | 6579m | -3.3m/s | -17.4°C | 81.2% | 442.4hPa | 2.7V | 07:47:48 | 02:19:06 | 00:00:00 | |
| BIOWL1-15 | 2026-09-04 14:38:03 | 53.94434 | 10.83566 | 81° | 181km/h | 6600m | -3.7m/s | -17.4°C | 80.9% | 441.1hPa | 2.7V | 07:47:48 | 02:19:00 | 00:00:00 | |
| DO2SHX-10 | 2026-09-04 14:38:03 | 53.94449 | 10.83718 | 81° | 179km/h | 6593m | -3.4m/s | -17.4°C | 87.5% | 441.5hPa | 2.6V | 00:00:00 | 02:19:02 | 00:00:00 | |
| EDDB2-12 | 2026-09-04 14:38:02 | 53.94441 | 10.83643 | 80° | 179km/h | 6596m | -3.6m/s | -17.4°C | 82.1% | 441.3hPa | 2.6V | 00:00:00 | 00:00:00 | 00:00:00 | |
| DO2SHX-10 | 2026-09-04 14:38:00 | 53.94427 | 10.83490 | 82° | 183km/h | 6604m | -3.1m/s | -17.4°C | 87.8% | 440.8hPa | 2.6V | 00:00:00 | 02:18:59 | 00:00:00 | |
| DL1XH-15 | 2026-09-04 14:37:59 | 53.94381 | 10.83028 | 80° | 181km/h | 6626m | -3.8m/s | -17.5°C | 88.3% | 439.6hPa | 2.6V | 07:47:28 | 02:18:53 | 00:00:00 | |
| DL1XH-west | 2026-09-04 14:37:58 | 53.94412 | 10.83335 | 80° | 183km/h | 6611m | -3.7m/s | -17.4°C | 80.8% | 440.5hPa | 2.6V | 07:47:48 | 02:18:57 | 00:00:00 | |
| DF8AY | 2026-09-04 14:37:57 | 53.94404 | 10.83258 | 80° | 183km/h | 6614m | -3.7m/s | -17.4°C | 80.9% | 440.3hPa | 2.7V | 07:47:48 | 02:18:56 | 00:00:00 | |
| DO2SHX-10 | 2026-09-04 14:37:57 | 53.94404 | 10.83258 | 80° | 183km/h | 6614m | -3.7m/s | -17.4°C | 88.1% | 440.3hPa | 2.7V | 00:00:00 | 02:18:56 | 00:00:00 | |
| DB0DAN | 2026-09-04 14:37:55 | 53.94389 | 10.83105 | 80° | 172km/h | 6622m | -4m/s | -17.5°C | 82.7% | 439.82hPa | 2.7V | 00:00:00 | 00:00:00 | 00:00:00 | |
| DF8AY | 2026-09-04 14:37:51 | 53.94323 | 10.82418 | 82° | 181km/h | 6656m | -3.7m/s | -17.4°C | 82% | 437.9hPa | 2.7V | 07:47:48 | 02:18:45 | 00:00:00 | |
| BIOWL1-15 | 2026-09-04 14:37:50 | 53.94350 | 10.82723 | 80° | 179km/h | 6641m | -3.4m/s | -17.3°C | 81.5% | 438.7hPa | 2.7V | 07:47:48 | 02:18:49 | 00:00:00 | |
| DL1XH-15 | 2026-09-04 14:37:49 | 53.94310 | 10.82264 | 82° | 181km/h | 6664m | -4.1m/s | -17.4°C | 88% | 437.5hPa | 2.6V | 07:47:38 | 02:18:43 | 00:00:00 | |
| DL1XH-west | 2026-09-04 14:37:47 | 53.94329 | 10.82495 | 82° | 181km/h | 6653m | -3.8m/s | -17.3°C | 81.8% | 438.1hPa | 2.7V | 07:47:48 | 02:18:46 | 00:00:00 | |
| DD8BA-10 | 2026-09-04 14:37:47 | 53.94329 | 10.82495 | 82° | 183km/h | 6653m | -3.7m/s | -17.3°C | 88.2% | 438.0hPa | 2.6V | 07:47:00 | 00:00:00 | 00:00:00 | |
| DF8AY-15 | 2026-09-04 14:37:45 | 53.94316 | 10.82341 | 82° | 183km/h | 6660m | -3.9m/s | -17.3°C | 88.2% | 437.6hPa | 2.6V | 00:00:00 | 02:18:44 | 00:00:00 | |
| AM1SDL-15 | 2026-09-04 14:37:43 | 53.94304 | 10.82188 | 83° | 183km/h | 6668m | -3.9m/s | -17.3°C | 88.1% | 437.1hPa | 2.7V | 00:00:00 | 02:18:42 | 00:00:00 | |
| DO2SHX-10 | 2026-09-04 14:37:42 | 53.94298 | 10.82110 | 84° | 184km/h | 6672m | -3.9m/s | -17.3°C | 88.2% | 436.9hPa | 2.7V | 00:00:00 | 02:18:41 | 00:00:00 | |
| DL1XH1-15 | 2026-09-04 14:37:40 | 53.94253 | 10.81560 | 81° | 183km/h | 6698m | -4.1m/s | -17.4°C | 87.7% | 435.4hPa | 2.7V | 07:47:47 | 02:18:34 | 00:00:00 | |
| DB0DAN | 2026-09-04 14:37:40 | 53.94287 | 10.81954 | 83° | 177km/h | 6679m | -3.9m/s | -17.4°C | 82.2% | 436.55hPa | 2.7V | 00:00:00 | 00:00:00 | 00:00:00 | |
| BIOWL1-15 | 2026-09-04 14:37:39 | 53.94281 | 10.81874 | 82° | 186km/h | 6683m | -3.7m/s | -17.4°C | 81.6% | 436.2hPa | 2.6V | 07:47:48 | 02:18:38 | 00:00:00 | |
| DL1XH-west | 2026-09-04 14:37:37 | 53.94267 | 10.81716 | 81° | 186km/h | 6691m | -3.6m/s | -17.4°C | 81.5% | 435.8hPa | 2.7V | 07:47:48 | 02:18:36 | 00:00:00 | |
| AA1-15 | 2026-09-04 14:37:36 | 53.94260 | 10.81638 | 82° | 183km/h | 6694m | -3.8m/s | -17.4°C | 81.7% | 435.6hPa | 2.7V | 07:47:48 | 02:18:35 | 00:00:00 | |
| DF8AY | 2026-09-04 14:37:35 | 53.94253 | 10.81560 | 82° | 183km/h | 6698m | -4.1m/s | -17.4°C | 81.9% | 435.4hPa | 2.7V | 07:47:48 | 02:18:34 | 00:00:00 | |
| DO2SHX-10 | 2026-09-04 14:37:33 | 53.94241 | 10.81406 | 83° | 183km/h | 6707m | -3.6m/s | -17.3°C | 87.7% | 434.9hPa | 2.7V | 00:00:00 | 02:18:32 | 00:00:00 | |
| AP2371 | 2026-09-04 14:37:32 | 53.94241 | 10.81406 | 84° | 183km/h | 6707m | -3.7m/s | -17.4°C | 82.2% | 434.9hPa | 2.7V | 00:00:00 | 00:00:00 | 00:00:00 | |
| EDDB2-12 | 2026-09-04 14:37:31 | 53.94230 | 10.81251 | 83° | 183km/h | 6714m | -3.8m/s | -17.3°C | 82.0% | 434.5hPa | 2.7V | 00:00:00 | 00:00:00 | 00:00:00 | |
| DL1XH1-15 | 2026-09-04 14:37:30 | 53.94198 | 10.80781 | 83° | 188km/h | 6738m | -4.1m/s | -17.3°C | 87.5% | 433.1hPa | 2.7V | 07:47:57 | 02:18:24 | 00:00:00 | |
| DO2SHX-10 | 2026-09-04 14:37:30 | 53.94224 | 10.81172 | 83° | 183km/h | 6718m | -3.9m/s | -17.3°C | 87.5% | 434.2hPa | 2.6V | 00:00:00 | 02:18:29 | 00:00:00 | |
| DL1XH-15 | 2026-09-04 14:37:29 | 53.94193 | 10.80700 | 82° | 190km/h | 6742m | -4m/s | -17.4°C | 87.7% | 432.9hPa | 2.6V | 07:47:58 | 02:18:23 | 00:00:00 | |
| BIOWL1-15 | 2026-09-04 14:37:29 | 53.94219 | 10.81094 | 83° | 183km/h | 6722m | -4m/s | -17.3°C | 81.9% | 434.1hPa | 2.6V | 07:48:39 | 02:18:28 | 00:00:00 | |
| DL1XH-west | 2026-09-04 14:37:27 | 53.94208 | 10.80939 | 84° | 183km/h | 6730m | -4.1m/s | -17.3°C | 82% | 433.6hPa | 2.7V | 07:48:39 | 02:18:26 | 00:00:00 | |
| AA1-15 | 2026-09-04 14:37:26 | 53.94203 | 10.80860 | 84° | 186km/h | 6734m | -4m/s | -17.3°C | 82.2% | 433.3hPa | 2.7V | 07:48:39 | 02:18:25 | 00:00:00 | |
| DB0DAN | 2026-09-04 14:37:25 | 53.94198 | 10.80781 | 84° | 179km/h | 6738m | -4.1m/s | -17.3°C | 81.9% | 433.15hPa | 2.7V | 00:00:00 | 00:00:00 | 00:00:00 | |
| DF8AY | 2026-09-04 14:37:24 | 53.94192 | 10.80700 | 83° | 190km/h | 6742m | -4m/s | -17.4°C | 82.1% | 432.9hPa | 2.6V | 07:48:39 | 02:18:23 | 00:00:00 | |
| DO2SHX-10 | 2026-09-04 14:37:24 | 53.94192 | 10.80700 | 83° | 188km/h | 6742m | -3.9m/s | -17.3°C | 87.7% | 432.9hPa | 2.7V | 07:47:00 | 02:18:23 | 00:00:00 | |
| DO2SHX-10 | 2026-09-04 14:37:21 | 53.94172 | 10.80461 | 82° | 186km/h | 6754m | -3.8m/s | -17.3°C | 87.8% | 432.1hPa | 2.7V | 00:00:00 | 02:18:20 | 00:00:00 | |
| DL1XH1-15 | 2026-09-04 14:37:20 | 53.94136 | 10.79988 | 82° | 184km/h | 6778m | -4.2m/s | -17.6°C | 87.8% | 430.9hPa | 2.7V | 07:48:07 | 02:18:14 | 00:00:00 | |
| DL1XH-15 | 2026-09-04 14:37:19 | 53.94131 | 10.79910 | 83° | 183km/h | 6781m | -3.9m/s | -17.6°C | 88% | 430.6hPa | 2.7V | 07:48:08 | 02:18:13 | 00:00:00 | |
| BIOWL1-15 | 2026-09-04 14:37:18 | 53.94154 | 10.80224 | 83° | 186km/h | 6766m | -4.1m/s | -17.5°C | 81.7% | 431.5hPa | 2.7V | 07:48:39 | 02:18:17 | 00:00:00 | |
| DO2SHX-10 | 2026-09-04 14:37:18 | 53.94153 | 10.80224 | 83° | 186km/h | 6766m | -4.0m/s | -17.4°C | 87.8% | 431.5hPa | 2.7V | 00:00:00 | 02:18:17 | 00:00:00 | |
| DM0DOS-11 | 2026-09-04 14:37:17 | 53.94121 | 10.79753 | 84° | 184km/h | 6790m | -4.3m/s | -17.6°C | 87.7% | 430.1hPa | 2.6V | 07:48:10 | 02:18:11 | 00:00:00 | |
| DL1XH-west | 2026-09-04 14:37:16 | 53.94142 | 10.80066 | 83° | 186km/h | 6774m | -4.1m/s | -17.6°C | 81.7% | 431hPa | 2.6V | 07:48:39 | 02:18:15 | 00:00:00 | |
| AA1-15 | 2026-09-04 14:37:15 | 53.94136 | 10.79988 | 83° | 184km/h | 6778m | -4.2m/s | -17.6°C | 81.9% | 430.9hPa | 2.7V | 07:48:39 | 02:18:14 | 00:00:00 | |
| DF8AY | 2026-09-04 14:37:13 | 53.94126 | 10.79832 | 84° | 183km/h | 6786m | -4.3m/s | -17.6°C | 82.2% | 430.4hPa | 2.6V | 07:48:39 | 02:18:12 | 00:00:00 | |
| DJ2DS-15 | 2026-09-04 14:37:13 | 53.94125 | 10.79832 | 84° | 186km/h | 6786m | -4.2m/s | -17.6°C | 87.8% | 430.3hPa | 2.6V | 00:00:00 | 02:18:12 | 00:00:00 | |
| DO2SHX-10 | 2026-09-04 14:37:12 | 53.94121 | 10.79753 | 85° | 186km/h | 6790m | -4.2m/s | -17.6°C | 87.7% | 430.1hPa | 2.6V | 00:00:00 | 02:18:11 | 00:00:00 | |
| DL1XH1-15 | 2026-09-04 14:37:10 | 53.94083 | 10.79196 | 82° | 186km/h | 6819m | -3.9m/s | -17.6°C | 88.2% | 428.5hPa | 2.6V | 07:48:17 | 02:18:04 | 00:00:00 | |
| DB0DAN | 2026-09-04 14:37:10 | 53.94111 | 10.79594 | 84° | 179km/h | 6798m | -4.3m/s | -17.6°C | 82.1% | 429.69hPa | 2.7V | 00:00:00 | 00:00:00 | 00:00:00 | |
| DL1XH-15 | 2026-09-04 14:37:09 | 53.94077 | 10.79118 | 82° | 184km/h | 6823m | -4.1m/s | -17.6°C | 87.9% | 428.3hPa | 2.6V | 07:48:18 | 02:18:03 | 00:00:00 | |
| DO2SHX-10 | 2026-09-04 14:37:09 | 53.94106 | 10.79514 | 84° | 186km/h | 6802m | -4.2m/s | -17.6°C | 88.2% | 429.4hPa | 2.7V | 00:00:00 | 02:18:08 | 00:00:00 | |
| DK7RCA | 2026-09-04 14:37:08 | 53.94106 | 10.79514 | 84° | 188km/h | 6802m | -4.2m/s | -17.6°C | 82.5% | 429.4hPa | 2.7V | 07:48:00 | 00:00:00 | 00:00:00 | |
| DM0DOS-11 | 2026-09-04 14:37:07 | 53.94064 | 10.78960 | 82° | 186km/h | 6831m | -4.1m/s | -17.6°C | 88% | 427.8hPa | 2.7V | 07:48:20 | 02:18:01 | 00:00:00 | |
| BIOWL1-15 | 2026-09-04 14:37:07 | 53.94095 | 10.79355 | 83° | 186km/h | 6811m | -4.2m/s | -17.6°C | 82.9% | 429hPa | 2.7V | 07:48:39 | 02:18:06 | 00:00:00 | |
| DL1XH-west | 2026-09-04 14:37:06 | 53.94089 | 10.79276 | 83° | 186km/h | 6815m | -4.4m/s | -17.6°C | 82.8% | 428.8hPa | 2.6V | 07:48:39 | 02:18:05 | 00:00:00 | |
| AA1-15 | 2026-09-04 14:37:04 | 53.94077 | 10.79118 | 82° | 184km/h | 6823m | -4.1m/s | -17.6°C | 82.9% | 428.3hPa | 2.6V | 07:48:39 | 02:18:03 | 00:00:00 | |
| DF8AY | 2026-09-04 14:37:03 | 53.94070 | 10.79039 | 83° | 184km/h | 6828m | -4.4m/s | -17.6°C | 82.9% | 428hPa | 2.7V | 07:48:39 | 02:18:02 | 00:00:00 | |
| DO2SHX-10 | 2026-09-04 14:37:03 | 53.94070 | 10.79039 | 83° | 186km/h | 6828m | -4.4m/s | -17.6°C | 88.1% | 428.0hPa | 2.6V | 00:00:00 | 02:18:02 | 00:00:00 | |
| DJ2DS-15 | 2026-09-04 14:37:01 | 53.94059 | 10.78881 | 83° | 186km/h | 6836m | -3.9m/s | -17.6°C | 82.4% | 427.5hPa | 2.6V | 00:00:00 | 00:00:00 | 00:00:00 | |
| DL1XH1-15 | 2026-09-04 14:37:00 | 53.94027 | 10.78403 | 83° | 188km/h | 6860m | -4m/s | -17.8°C | 88.2% | 426.1hPa | 2.6V | 07:48:27 | 02:17:54 | 00:00:00 | |
| DO2SHX-10 | 2026-09-04 14:37:00 | 53.94053 | 10.78801 | 83° | 186km/h | 6840m | -4.2m/s | -17.6°C | 88.1% | 427.3hPa | 2.6V | 07:48:00 | 02:17:59 | 00:00:00 | |
| DL1XH-15 | 2026-09-04 14:36:59 | 53.94022 | 10.78323 | 83° | 188km/h | 6864m | -4.2m/s | -17.8°C | 88.3% | 425.9hPa | 2.5V | 07:48:28 | 02:17:53 | 00:00:00 | |
| BIOWL1-15 | 2026-09-04 14:36:57 | 53.94037 | 10.78563 | 84° | 186km/h | 6852m | -4m/s | -17.7°C | 83.1% | 426.6hPa | 2.7V | 07:48:39 | 02:17:56 | 00:00:00 | |
| SMARD9-15 | 2026-09-04 14:36:56 | 53.94032 | 10.78483 | 83° | 186km/h | 6856m | -4.1m/s | -17.8°C | 82.4% | 426.4hPa | 2.6V | 00:00:00 | 00:00:00 | 00:00:00 | |
| DB0DAN | 2026-09-04 14:36:55 | 53.94027 | 10.78403 | 84° | 179km/h | 6860m | -4m/s | -17.8°C | 82.4% | 426.12hPa | 2.6V | 00:00:00 | 00:00:00 | 00:00:00 | |
| DL1XH-west | 2026-09-04 14:36:55 | 53.94027 | 10.78403 | 84° | 188km/h | 6860m | -4m/s | -17.8°C | 83.3% | 426.1hPa | 2.6V | 07:48:39 | 02:17:54 | 00:00:00 | |
| AA1-15 | 2026-09-04 14:36:54 | 53.94022 | 10.78323 | 84° | 188km/h | 6864m | -4.2m/s | -17.8°C | 83.3% | 426hPa | 2.5V | 07:48:39 | 02:17:53 | 00:00:00 | |
| DF8AY | 2026-09-04 14:36:53 | 53.94017 | 10.78243 | 84° | 188km/h | 6868m | -4.6m/s | -17.8°C | 83.3% | 425.7hPa | 2.6V | 07:48:39 | 02:17:52 | 00:00:00 | |
| DJ2DS-15 | 2026-09-04 14:36:53 | 53.94017 | 10.78243 | 84° | 188km/h | 6869m | -4.6m/s | -17.8°C | 88.2% | 425.6hPa | 2.7V | 07:48:00 | 02:17:52 | 00:00:00 | |
| DO2SHX-10 | 2026-09-04 14:36:51 | 53.94006 | 10.78082 | 84° | 188km/h | 6877m | -4.2m/s | -17.9°C | 88.5% | 425.1hPa | 2.7V | 00:00:00 | 02:17:50 | 00:00:00 | |
| DL1XH1-15 | 2026-09-04 14:36:50 | 53.93972 | 10.77604 | 82° | 186km/h | 6903m | -4.1m/s | -18°C | 88.7% | 423.7hPa | 2.7V | 07:48:37 | 02:17:44 | 00:00:00 | |
| DL1XH-15 | 2026-09-04 14:36:49 | 53.93966 | 10.77525 | 82° | 184km/h | 6907m | -4.2m/s | -18.1°C | 88.7% | 423.5hPa | 2.6V | 07:48:38 | 02:17:43 | 00:00:00 | |
| BIOWL1-15 | 2026-09-04 14:36:47 | 53.93983 | 10.77763 | 83° | 188km/h | 6894m | -4.3m/s | -18°C | 83.1% | 424.2hPa | 2.6V | 07:48:39 | 02:17:46 | 00:00:00 | |
| DL1XH-west | 2026-09-04 14:36:44 | 53.93966 | 10.77525 | 83° | 184km/h | 6907m | -4.2m/s | -18.1°C | 82.8% | 423.5hPa | 2.6V | 07:48:39 | 02:17:43 | 00:00:00 | |
| AA1-15 | 2026-09-04 14:36:43 | 53.93960 | 10.77446 | 83° | 184km/h | 6911m | -4.3m/s | -18.1°C | 82.6% | 423.3hPa | 2.6V | 07:48:39 | 02:17:42 | 00:00:00 | |
| DF8AY | 2026-09-04 14:36:42 | 53.93955 | 10.77367 | 84° | 186km/h | 6915m | -4.4m/s | -18.1°C | 82.5% | 423hPa | 2.6V | 07:49:30 | 02:17:41 | 00:00:00 | |
| DO2SHX-10 | 2026-09-04 14:36:42 | 53.93955 | 10.77367 | 84° | 188km/h | 6915m | -4.4m/s | -18.1°C | 88.7% | 423.0hPa | 2.6V | 00:00:00 | 02:17:41 | 00:00:00 | |
| DB0DAN | 2026-09-04 14:36:40 | 53.93944 | 10.77207 | 83° | 179km/h | 6924m | -4.3m/s | -18.2°C | 82.9% | 422.52hPa | 2.6V | 00:00:00 | 00:00:00 | 00:00:00 | |
| DK1YY | 2026-09-04 14:36:40 | 53.93938 | 10.77127 | 82° | 188km/h | 6928m | -4.2m/s | -18.2°C | 82.9% | 422.3hPa | 2.5V | 00:00:00 | 00:00:00 | 00:00:00 | |
| DL1XH1-15 | 2026-09-04 14:36:40 | 53.93914 | 10.76806 | 82° | 188km/h | 6945m | -4.5m/s | -18.4°C | 88.7% | 421.3hPa | 2.6V | 07:48:47 | 02:17:34 | 00:00:00 | |
| DL1XH-15 | 2026-09-04 14:36:39 | 53.93908 | 10.76726 | 82° | 186km/h | 6950m | -4.6m/s | -18.4°C | 88.6% | 421.1hPa | 2.5V | 07:48:48 | 02:17:33 | 00:00:00 | |
| BIOWL1-15 | 2026-09-04 14:36:36 | 53.93921 | 10.76886 | 83° | 190km/h | 6941m | -4.2m/s | -18.3°C | 82.6% | 421.6hPa | 2.6V | 07:49:30 | 02:17:35 | 00:00:00 | |
| DL1XH-west | 2026-09-04 14:36:34 | 53.93908 | 10.76726 | 82° | 186km/h | 6950m | -4.6m/s | -18.4°C | 82.5% | 421.1hPa | 2.5V | 07:49:30 | 02:17:33 | 00:00:00 | |
| AA1-15 | 2026-09-04 14:36:32 | 53.93896 | 10.76569 | 83° | 184km/h | 6959m | -4.4m/s | -18.4°C | 83% | 420.6hPa | 2.7V | 07:49:30 | 02:17:31 | 00:00:00 | |
| DL1XH1-15 | 2026-09-04 14:36:30 | 53.93861 | 10.76007 | 83° | 193km/h | 6990m | -4.5m/s | -18.6°C | 89.3% | 418.8hPa | 2.7V | 07:48:57 | 02:17:24 | 00:00:00 | |
| BIOWL1-15 | 2026-09-04 14:36:30 | 53.93867 | 10.76089 | 84° | 193km/h | 6985m | -4.4m/s | -18.6°C | 84.4% | 419.1hPa | 2.6V | 07:49:30 | 02:17:25 | 00:00:00 | |
| DO2SHX-10 | 2026-09-04 14:36:30 | 53.93886 | 10.76411 | 85° | 186km/h | 6967m | -4.5m/s | -18.4°C | 89.4% | 420.0hPa | 2.7V | 00:00:00 | 02:17:29 | 00:00:00 | |
| DL1XH-15 | 2026-09-04 14:36:29 | 53.93856 | 10.75924 | 82° | 193km/h | 6994m | -4.2m/s | -18.6°C | 89.3% | 418.6hPa | 2.7V | 07:48:58 | 02:17:23 | 00:00:00 | |
| EDDB2-12 | 2026-09-04 14:36:29 | 53.93881 | 10.76332 | 84° | 184km/h | 6971m | -4.3m/s | -18.5°C | 83.5% | 419.9hPa | 2.6V | 00:00:00 | 00:00:00 | 00:00:00 | |
| DM0DOS-11 | 2026-09-04 14:36:27 | 53.93843 | 10.75760 | 82° | 192km/h | 7002m | -4.8m/s | -18.7°C | 88.7% | 418.1hPa | 2.6V | 07:49:00 | 02:17:21 | 00:00:00 | |
| DO2SHX-10 | 2026-09-04 14:36:27 | 53.93872 | 10.76171 | 85° | 192km/h | 6981m | -4.5m/s | -18.5°C | 89.5% | 419.3hPa | 2.7V | 00:00:00 | 02:17:26 | 00:00:00 | |
| DK7RCA | 2026-09-04 14:36:26 | 53.93872 | 10.76171 | 85° | 192km/h | 6981m | -4.6m/s | -18.5°C | 83.5% | 419.4hPa | 2.7V | 07:49:00 | 00:00:00 | 00:00:00 | |
| DB0DAN | 2026-09-04 14:36:25 | 53.93861 | 10.76007 | 83° | 184km/h | 6990m | -4.5m/s | -18.6°C | 83.2% | 418.81hPa | 2.7V | 00:00:00 | 00:00:00 | 00:00:00 | |
| DL1XH-west | 2026-09-04 14:36:23 | 53.93849 | 10.75842 | 82° | 193km/h | 6998m | -4.2m/s | -18.7°C | 83.5% | 418.4hPa | 2.6V | 07:49:30 | 02:17:22 | 00:00:00 | |
| AA1-15 | 2026-09-04 14:36:21 | 53.93836 | 10.75679 | 83° | 190km/h | 7007m | -4.3m/s | -18.7°C | 83.2% | 417.9hPa | 2.5V | 07:49:30 | 02:17:20 | 00:00:00 | |
| DO2SHX-10 | 2026-09-04 14:36:21 | 53.93836 | 10.75679 | 83° | 190km/h | 7007m | -4.2m/s | -18.7°C | 88.8% | 417.9hPa | 2.6V | 00:00:00 | 02:17:20 | 00:00:00 | |
| DL1XH1-15 | 2026-09-04 14:36:20 | 53.93803 | 10.75195 | 83° | 186km/h | 7034m | -4.5m/s | -18.9°C | 88.4% | 416.4hPa | 2.6V | 07:49:07 | 02:17:14 | 00:00:00 | |
| DL1XH-15 | 2026-09-04 14:36:19 | 53.93798 | 10.75115 | 83° | 186km/h | 7038m | -4.8m/s | -18.9°C | 88.5% | 416.1hPa | 2.5V | 07:49:08 | 02:17:13 | 00:00:00 | |
| DL4BBY-15 | 2026-09-04 14:36:19 | 53.93824 | 10.75517 | 84° | 188km/h | 7016m | -4.2m/s | -18.7°C | 0% | 0hPa | 2.6V | 00:00:00 | 00:00:00 | 00:00:00 | |
| DO2SHX-10 | 2026-09-04 14:36:18 | 53.93819 | 10.75436 | 84° | 190km/h | 7020m | -4.3m/s | -18.8°C | 88.8% | 417.1hPa | 2.6V | 00:00:00 | 02:17:17 | 00:00:00 | |
| DM0DOS-11 | 2026-09-04 14:36:17 | 53.93789 | 10.74955 | 84° | 188km/h | 7047m | -4.4m/s | -19°C | 88.8% | 415.7hPa | 2.6V | 07:49:10 | 02:17:11 | 00:00:00 | |
| BIOWL1-15 | 2026-09-04 14:36:16 | 53.93809 | 10.75275 | 84° | 188km/h | 7029m | -4.2m/s | -18.9°C | 83% | 416.7hPa | 2.6V | 07:49:30 | 02:17:15 | 00:00:00 | |
| DL1XH-west | 2026-09-04 14:36:13 | 53.93793 | 10.75035 | 84° | 186km/h | 7043m | -4.5m/s | -19°C | 82.5% | 415.9hPa | 2.6V | 07:49:30 | 02:17:12 | 00:00:00 | |
| AA1-15 | 2026-09-04 14:36:11 | 53.93784 | 10.74875 | 84° | 190km/h | 7052m | -4.2m/s | -19.1°C | 82.1% | 415.4hPa | 2.7V | 07:49:30 | 02:17:10 | 00:00:00 | |
| DB0DAN | 2026-09-04 14:36:10 | 53.93779 | 10.74793 | 84° | 183km/h | 7056m | -4.2m/s | -19.1°C | 82.7% | 415.13hPa | 2.7V | 00:00:00 | 00:00:00 | 00:00:00 | |
| DL1XH1-15 | 2026-09-04 14:36:10 | 53.93750 | 10.74387 | 83° | 188km/h | 7078m | -5.3m/s | -19.1°C | 89.4% | 413.9hPa | 2.5V | 07:49:17 | 02:17:04 | 00:00:00 | |
| DL1XH-15 | 2026-09-04 14:36:09 | 53.93744 | 10.74306 | 84° | 190km/h | 7083m | -4.3m/s | -19.2°C | 89.7% | 413.7hPa | 2.6V | 07:49:18 | 02:17:03 | 00:00:00 | |
| DO2SHX-10 | 2026-09-04 14:36:09 | 53.93773 | 10.74712 | 84° | 192km/h | 7060m | -4.3m/s | -19.0°C | 88.6% | 414.8hPa | 2.6V | 00:00:00 | 02:17:08 | 00:00:00 | |
| AM1SDL-15 | 2026-09-04 14:36:08 | 53.93767 | 10.74630 | 83° | 192km/h | 7065m | -4.4m/s | -19.0°C | 88.9% | 414.6hPa | 2.6V | 07:49:00 | 02:17:07 | 00:00:00 | |
| DM0DOS-11 | 2026-09-04 14:36:07 | 53.93735 | 10.74144 | 84° | 190km/h | 7092m | -4.5m/s | -19.2°C | 89.8% | 413.2hPa | 2.6V | 07:49:20 | 02:17:01 | 00:00:00 | |
| BIOWL1-15 | 2026-09-04 14:36:07 | 53.93750 | 10.74387 | 84° | 190km/h | 7078m | -5.3m/s | -19.1°C | 83.1% | 413.9hPa | 2.5V | 07:49:30 | 02:17:04 | 00:00:00 | |
| DL1XH-west | 2026-09-04 14:36:03 | 53.93740 | 10.74225 | 84° | 190km/h | 7087m | -4.6m/s | -19.2°C | 83.4% | 413.4hPa | 2.6V | 07:49:30 | 02:17:02 | 00:00:00 | |
| DF8AY | 2026-09-04 14:36:01 | 53.93730 | 10.74063 | 84° | 190km/h | 7096m | -4.4m/s | -19.3°C | 83.8% | 412.9hPa | 2.6V | 07:49:30 | 02:17:00 | 00:00:00 | |
| AA1-15 | 2026-09-04 14:36:00 | 53.93726 | 10.73981 | 85° | 190km/h | 7101m | -4.3m/s | -19.3°C | 84.1% | 412.6hPa | 2.5V | 07:49:30 | 02:16:59 | 00:00:00 | |
| DO2SHX-10 | 2026-09-04 14:36:00 | 53.93726 | 10.73981 | 85° | 192km/h | 7101m | -4.2m/s | -19.3°C | 90.5% | 412.6hPa | 2.6V | 00:00:00 | 02:16:59 | 00:00:00 | |
| DL1XH-15 | 2026-09-04 14:35:59 | 53.93694 | 10.73488 | 82° | 190km/h | 7127m | -4.5m/s | -19.5°C | 90.1% | 411.1hPa | 2.6V | 07:49:28 | 02:16:53 | 00:00:00 | |
| EDDB2-12 | 2026-09-04 14:35:58 | 53.93717 | 10.73818 | 84° | 193km/h | 7109m | -4.5m/s | -19.4°C | 84.3% | 412.1hPa | 2.5V | 00:00:00 | 00:00:00 | 00:00:00 | |
| DM0DOS-11 | 2026-09-04 14:35:57 | 53.93682 | 10.73327 | 83° | 188km/h | 7136m | -4.5m/s | -19.6°C | 90.2% | 410.6hPa | 2.5V | 07:49:30 | 02:16:51 | 00:00:00 | |
| BIOWL1-15 | 2026-09-04 14:35:56 | 53.93694 | 10.73488 | 82° | 190km/h | 7127m | -4.6m/s | -19.5°C | 83.4% | 411.2hPa | 2.6V | 07:49:30 | 02:16:53 | 00:00:00 | |
| DB0DAN | 2026-09-04 14:35:55 | 53.93700 | 10.73569 | 83° | 184km/h | 7123m | -4.5m/s | -19.5°C | 83.9% | 411.41hPa | 2.6V | 00:00:00 | 00:00:00 | 00:00:00 | |
| DL1XH-west | 2026-09-04 14:35:52 | 53.93682 | 10.73327 | 83° | 188km/h | 7136m | -4.5m/s | -19.6°C | 83.2% | 410.6hPa | 2.5V | 07:49:30 | 02:16:51 | 00:00:00 | |
| DF8AY | 2026-09-04 14:35:51 | 53.93676 | 10.73247 | 84° | 188km/h | 7140m | -4.6m/s | -19.6°C | 83.3% | 410.5hPa | 2.6V | 07:50:21 | 02:16:50 | 00:00:00 | |
| DO2SHX-10 | 2026-09-04 14:35:51 | 53.93676 | 10.73247 | 84° | 190km/h | 7140m | -4.5m/s | -19.6°C | 90.4% | 410.4hPa | 2.6V | 00:00:00 | 02:16:50 | 00:00:00 | |
| DL1XH1-15 | 2026-09-04 14:35:50 | 53.93649 | 10.72759 | 84° | 193km/h | 7167m | -4.3m/s | -19.8°C | 90.6% | 408.9hPa | 2.6V | 07:49:37 | 02:16:44 | 00:00:00 | |
| AA1-15 | 2026-09-04 14:35:50 | 53.93671 | 10.73167 | 84° | 190km/h | 7145m | -4.2m/s | -19.7°C | 83.4% | 410.2hPa | 2.7V | 07:50:21 | 02:16:49 | 00:00:00 | |
| DJ2DS-15 | 2026-09-04 14:35:49 | 53.93662 | 10.73005 | 84° | 190km/h | 7153m | -5.2m/s | -19.7°C | 84.1% | 409.7hPa | 2.5V | 00:00:00 | 00:00:00 | 00:00:00 | |
| DM0DOS-11 | 2026-09-04 14:35:47 | 53.93633 | 10.72511 | 82° | 192km/h | 7180m | -4.4m/s | -19.9°C | 90.8% | 408.2hPa | 2.5V | 07:49:40 | 02:16:41 | 00:00:00 | |
| BIOWL1-15 | 2026-09-04 14:35:44 | 53.93644 | 10.72676 | 84° | 195km/h | 7172m | -4.5m/s | -19.9°C | 83.9% | 408.7hPa | 2.6V | 07:50:21 | 02:16:43 | 00:00:00 | |
| DL1XH-west | 2026-09-04 14:35:42 | 53.93633 | 10.72511 | 83° | 192km/h | 7180m | -4.4m/s | -19.9°C | 84% | 408.2hPa | 2.5V | 07:50:21 | 02:16:41 | 00:00:00 | |
| DO2SHX-10 | 2026-09-04 14:35:42 | 53.93632 | 10.72511 | 83° | 190km/h | 7180m | -4.3m/s | -19.9°C | 90.8% | 408.2hPa | 2.6V | 00:00:00 | 02:16:41 | 00:00:00 | |
| DL1XH1-15 | 2026-09-04 14:35:40 | 53.93596 | 10.71949 | 84° | 192km/h | 7212m | -4.3m/s | -20.2°C | 91.5% | 406.5hPa | 2.6V | 07:49:47 | 02:16:34 | 00:00:00 | |
| DF8AY | 2026-09-04 14:35:40 | 53.93620 | 10.72350 | 83° | 186km/h | 7189m | -4.4m/s | -20°C | 83.9% | 407.7hPa | 2.6V | 07:50:21 | 02:16:39 | 00:00:00 | |
| AA1-15 | 2026-09-04 14:35:39 | 53.93615 | 10.72271 | 84° | 186km/h | 7194m | -4.7m/s | -20°C | 83.9% | 407.4hPa | 2.6V | 07:50:21 | 02:16:38 | 00:00:00 | |
| DO2SHX-10 | 2026-09-04 14:35:39 | 53.93615 | 10.72271 | 84° | 188km/h | 7194m | -4.7m/s | -20.0°C | 90.8% | 407.4hPa | 2.6V | 00:00:00 | 02:16:38 | 00:00:00 | |
| BIOWL7-15 | 2026-09-04 14:35:38 | 53.93615 | 10.72271 | 85° | 186km/h | 7194m | -4.7m/s | -20.0°C | 84.5% | 407.4hPa | 2.6V | 00:00:00 | 00:00:00 | 00:00:00 | |
| DM0DOS-11 | 2026-09-04 14:35:37 | 53.93583 | 10.71702 | 84° | 193km/h | 7226m | -4.7m/s | -20.3°C | 91.4% | 405.7hPa | 2.6V | 07:49:50 | 02:16:31 | 00:00:00 | |
| BIOWL1-15 | 2026-09-04 14:35:36 | 53.93592 | 10.71867 | 85° | 192km/h | 7216m | -4.8m/s | -20.2°C | 84.2% | 406.2hPa | 2.6V | 07:50:21 | 02:16:33 | 00:00:00 | |
| DL1XH-west | 2026-09-04 14:35:31 | 53.93578 | 10.71619 | 85° | 195km/h | 7230m | -4.4m/s | -20.3°C | 84.1% | 405.5hPa | 2.6V | 07:50:21 | 02:16:30 | 00:00:00 | |
| DF8AY | 2026-09-04 14:35:30 | 53.93573 | 10.71536 | 84° | 195km/h | 7235m | -5.3m/s | -20.3°C | 84% | 405.2hPa | 2.6V | 07:50:21 | 02:16:29 | 00:00:00 | |
| DO2SHX-10 | 2026-09-04 14:35:30 | 53.93573 | 10.71536 | 84° | 193km/h | 7235m | -5.2m/s | -20.3°C | 91.2% | 405.2hPa | 2.6V | 00:00:00 | 02:16:29 | 00:00:00 | |
| DL1XH-15 | 2026-09-04 14:35:29 | 53.93538 | 10.71052 | 83° | 188km/h | 7262m | -4.7m/s | -20.5°C | 91.4% | 403.7hPa | 2.6V | 07:49:58 | 02:16:23 | 00:00:00 | |
| AA1-15 | 2026-09-04 14:35:28 | 53.93561 | 10.71372 | 83° | 192km/h | 7244m | -4.5m/s | -20.4°C | 84% | 404.7hPa | 2.5V | 07:50:21 | 02:16:27 | 00:00:00 | |
| DM0DOS-11 | 2026-09-04 14:35:27 | 53.93529 | 10.70891 | 84° | 190km/h | 7271m | -4.5m/s | -20.6°C | 91.4% | 403.2hPa | 2.6V | 07:50:00 | 02:16:21 | 00:00:00 | |
| DO2SHX-10 | 2026-09-04 14:35:27 | 53.93555 | 10.71291 | 83° | 188km/h | 7249m | -4.7m/s | -20.4°C | 90.9% | 404.3hPa | 2.6V | 00:00:00 | 02:16:26 | 00:00:00 | |
| DB0DAN | 2026-09-04 14:35:25 | 53.93544 | 10.71132 | 83° | 179km/h | 7258m | -4.4m/s | -20.5°C | 84.7% | 403.99hPa | 2.6V | 00:00:00 | 00:00:00 | 00:00:00 | |
| BIOWL1-15 | 2026-09-04 14:35:25 | 53.93533 | 10.70972 | 85° | 190km/h | 7267m | -4.1m/s | -20.5°C | 84.3% | 403.5hPa | 2.6V | 07:50:21 | 02:16:22 | 00:00:00 | |
| DL1XH-west | 2026-09-04 14:35:20 | 53.93520 | 10.70728 | 85° | 192km/h | 7281m | -4.8m/s | -20.6°C | 84.5% | 402.8hPa | 2.5V | 07:50:21 | 02:16:19 | 00:00:00 | |
| AA1-15 | 2026-09-04 14:35:18 | 53.93511 | 10.70565 | 85° | 192km/h | 7290m | -4.8m/s | -20.7°C | 84.8% | 402.2hPa | 2.6V | 07:50:21 | 02:16:17 | 00:00:00 | |
| DO2SHX-10 | 2026-09-04 14:35:18 | 53.93511 | 10.70565 | 86° | 192km/h | 7290m | -4.7m/s | -20.6°C | 91.0% | 402.1hPa | 2.6V | 00:00:00 | 02:16:17 | 00:00:00 | |
| DM0DOS-11 | 2026-09-04 14:35:17 | 53.93484 | 10.70070 | 83° | 190km/h | 7319m | -5m/s | -20.9°C | 90.4% | 400.7hPa | 2.6V | 07:50:10 | 02:16:11 | 00:00:00 | |
| BIOWL1-15 | 2026-09-04 14:35:12 | 53.93484 | 10.70070 | 84° | 190km/h | 7319m | -5m/s | -20.9°C | 84.3% | 400.7hPa | 2.6V | 07:50:21 | 02:16:11 | 00:00:00 | |
| DO2SHX-10 | 2026-09-04 14:35:12 | 53.93484 | 10.70070 | 84° | 188km/h | 7319m | -4.9m/s | -20.8°C | 90.4% | 400.6hPa | 2.6V | 00:00:00 | 02:16:11 | 00:00:00 | |
| DB0DAN | 2026-09-04 14:35:10 | 53.93473 | 10.69911 | 84° | 177km/h | 7328m | -4.7m/s | -21°C | 83.6% | 400.11hPa | 2.5V | 00:00:00 | 00:00:00 | 00:00:00 | |
| DL1XH1-15 | 2026-09-04 14:35:10 | 53.93454 | 10.69509 | 85° | 190km/h | 7352m | -4.5m/s | -21.1°C | 90.4% | 398.8hPa | 2.6V | 07:50:17 | 02:16:04 | 00:00:00 | |
| DL1XH-west | 2026-09-04 14:35:09 | 53.93469 | 10.69831 | 85° | 186km/h | 7333m | -4.5m/s | -21°C | 83.8% | 399.8hPa | 2.5V | 07:50:21 | 02:16:08 | 00:00:00 | |
| DO2SHX-10 | 2026-09-04 14:35:09 | 53.93469 | 10.69831 | 86° | 186km/h | 7333m | -4.5m/s | -20.9°C | 90.1% | 399.7hPa | 2.5V | 00:00:00 | 02:16:08 | 00:00:00 | |
| GOEST3-10 | 2026-09-04 14:35:08 | 53.93465 | 10.69752 | 86° | 186km/h | 7338m | -4.8m/s | -21.0°C | 90.3% | 399.5hPa | 2.5V | 00:00:00 | 00:00:00 | 00:00:00 | |
| DM0DOS-11 | 2026-09-04 14:35:07 | 53.93441 | 10.69265 | 84° | 192km/h | 7367m | -5m/s | -21.3°C | 90.3% | 398hPa | 2.5V | 07:50:20 | 02:16:01 | 00:00:00 | |
| AA1-15 | 2026-09-04 14:35:07 | 53.93462 | 10.69671 | 86° | 188km/h | 7342m | -4.8m/s | -21.1°C | 83.9% | 399.3hPa | 2.6V | 07:50:21 | 02:16:06 | 00:00:00 | |
| BIOWL1-15 | 2026-09-04 14:35:05 | 53.93440 | 10.69265 | 84° | 192km/h | 7367m | -5m/s | -21.3°C | 84.5% | 398hPa | 2.5V | 07:50:21 | 02:16:01 | 00:00:00 | |
| DK7RCA | 2026-09-04 14:35:04 | 53.93454 | 10.69509 | 86° | 190km/h | 7352m | -4.6m/s | -21.1°C | 83.8% | 398.8hPa | 2.5V | 07:50:00 | 00:00:00 | 00:00:00 | |
| DO2SHX-10 | 2026-09-04 14:35:03 | 53.93445 | 10.69346 | 85° | 192km/h | 7362m | -5.3m/s | -21.2°C | 90.4% | 398.3hPa | 2.5V | 00:00:00 | 02:16:02 | 00:00:00 | |
| GOEST3-10 | 2026-09-04 14:35:01 | 53.93436 | 10.69183 | 85° | 192km/h | 7372m | -4.8m/s | -21.2°C | 90.1% | 397.7hPa | 2.6V | 00:00:00 | 02:16:00 | 00:00:00 | |
| DL1XH1-15 | 2026-09-04 14:35:00 | 53.93404 | 10.68696 | 84° | 190km/h | 7400m | -4.4m/s | -21.5°C | 90.4% | 396.3hPa | 2.6V | 07:50:27 | 02:15:54 | 00:00:00 | |
| DF8AY | 2026-09-04 14:34:59 | 53.93425 | 10.69019 | 83° | 192km/h | 7381m | -5.4m/s | -21.4°C | 84% | 397.2hPa | 2.6V | 07:51:12 | 02:15:58 | 00:00:00 | |
| DL1XH-west | 2026-09-04 14:34:58 | 53.93419 | 10.68938 | 83° | 190km/h | 7386m | -4.7m/s | -21.4°C | 83.8% | 397hPa | 2.6V | 07:51:12 | 02:15:57 | 00:00:00 | |
| AA1-15 | 2026-09-04 14:34:57 | 53.93413 | 10.68857 | 84° | 190km/h | 7391m | -4.6m/s | -21.4°C | 83.8% | 396.8hPa | 2.5V | 07:51:12 | 02:15:56 | 00:00:00 | |
| EDDB2-12 | 2026-09-04 14:34:56 | 53.93404 | 10.68696 | 84° | 188km/h | 7400m | -4.4m/s | -21.5°C | 83.6% | 396.3hPa | 2.6V | 00:00:00 | 00:00:00 | 00:00:00 | |
| DB0DAN | 2026-09-04 14:34:55 | 53.93404 | 10.68696 | 85° | 181km/h | 7400m | -4.4m/s | -21.5°C | 83.6% | 396.27hPa | 2.6V | 00:00:00 | 00:00:00 | 00:00:00 | |
| BIOWL1-15 | 2026-09-04 14:34:55 | 53.93388 | 10.68374 | 86° | 188km/h | 7419m | -4.8m/s | -21.6°C | 84.8% | 395.2hPa | 2.5V | 07:51:12 | 02:15:50 | 00:00:00 | |
| SMARD9-15 | 2026-09-04 14:34:52 | 53.93391 | 10.68454 | 85° | 186km/h | 7414m | -4.9m/s | -21.6°C | 83.6% | 395.5hPa | 2.5V | 00:00:00 | 00:00:00 | 00:00:00 | |
| DO2SHX-10 | 2026-09-04 14:34:51 | 53.93388 | 10.68374 | 87° | 190km/h | 7419m | -4.8m/s | -21.5°C | 90.4% | 395.2hPa | 2.5V | 00:00:00 | 02:15:50 | 00:00:00 | |
| DL1XH1-15 | 2026-09-04 14:34:50 | 53.93362 | 10.67885 | 83° | 190km/h | 7447m | -4.8m/s | -21.8°C | 90.8% | 393.6hPa | 2.5V | 07:50:37 | 02:15:44 | 00:00:00 | |
| DL1XH-15 | 2026-09-04 14:34:49 | 53.93357 | 10.67804 | 83° | 188km/h | 7452m | -4.8m/s | -21.8°C | 90.5% | 393.4hPa | 2.6V | 07:50:38 | 02:15:43 | 00:00:00 | |
| DF8AY | 2026-09-04 14:34:48 | 53.93377 | 10.68130 | 85° | 192km/h | 7433m | -4.8m/s | -21.7°C | 84.8% | 394.5hPa | 2.6V | 07:51:12 | 02:15:47 | 00:00:00 | |
| DO2SHX-10 | 2026-09-04 14:34:48 | 53.93377 | 10.68130 | 85° | 192km/h | 7433m | -4.8m/s | -21.6°C | 90.7% | 394.5hPa | 2.6V | 00:00:00 | 02:15:47 | 00:00:00 | |
| DM0DOS-11 | 2026-09-04 14:34:47 | 53.93347 | 10.67643 | 84° | 190km/h | 7461m | -4.7m/s | -21.9°C | 90.5% | 392.9hPa | 2.6V | 07:50:40 | 02:15:41 | 00:00:00 | |
| DL1XH-west | 2026-09-04 14:34:47 | 53.93372 | 10.68048 | 84° | 192km/h | 7438m | -4.4m/s | -21.7°C | 84.9% | 394.2hPa | 2.6V | 07:51:12 | 02:15:46 | 00:00:00 | |
| BIOWL1-15 | 2026-09-04 14:34:40 | 53.93337 | 10.67480 | 84° | 192km/h | 7471m | -4.8m/s | -22°C | 84.5% | 392.4hPa | 2.5V | 07:51:12 | 02:15:39 | 00:00:00 | |
| DB0DAN | 2026-09-04 14:34:40 | 53.93337 | 10.67480 | 84° | 183km/h | 7471m | -4.8m/s | -22°C | 83.3% | 392.36hPa | 2.5V | 00:00:00 | 00:00:00 | 00:00:00 | |
| DL1XH-15 | 2026-09-04 14:34:39 | 53.93311 | 10.66991 | 84° | 192km/h | 7501m | -4.6m/s | -22.2°C | 90% | 390.9hPa | 2.5V | 07:50:48 | 02:15:33 | 00:00:00 | |
| DF8AY | 2026-09-04 14:34:38 | 53.93328 | 10.67317 | 85° | 190km/h | 7481m | -4.8m/s | -22.1°C | 84.3% | 391.9hPa | 2.6V | 07:51:12 | 02:15:37 | 00:00:00 | |
| DM0DOS-11 | 2026-09-04 14:34:37 | 53.93301 | 10.66828 | 84° | 190km/h | 7510m | -4.8m/s | -22.3°C | 90.4% | 390.2hPa | 2.5V | 07:50:50 | 02:15:31 | 00:00:00 | |
| DL1XH-west | 2026-09-04 14:34:36 | 53.93319 | 10.67155 | 85° | 192km/h | 7490m | -4.9m/s | -22.2°C | 84.3% | 391.3hPa | 2.6V | 07:51:12 | 02:15:35 | 00:00:00 | |
| DK1YY | 2026-09-04 14:34:35 | 53.93315 | 10.67073 | 84° | 192km/h | 7496m | -5.1m/s | -22.2°C | 83.2% | 391.1hPa | 2.5V | 00:00:00 | 00:00:00 | 00:00:00 | |
| BIOWL9-15 | 2026-09-04 14:34:34 | 53.93306 | 10.66909 | 84° | 190km/h | 7505m | -4.9m/s | -22.3°C | 83.1% | 390.6hPa | 2.5V | 00:00:00 | 00:00:00 | 00:00:00 | |
| DJ2DS-15 | 2026-09-04 14:34:33 | 53.93306 | 10.66909 | 85° | 190km/h | 7505m | -4.9m/s | -22.2°C | 90.0% | 390.6hPa | 2.5V | 00:00:00 | 02:15:32 | 00:00:00 | |
| DL1XH1-15 | 2026-09-04 14:34:30 | 53.93271 | 10.66264 | 84° | 190km/h | 7543m | -4.2m/s | -22.5°C | 91.8% | 388.6hPa | 2.6V | 07:50:57 | 02:15:24 | 00:00:00 | |
| BIOWL1-15 | 2026-09-04 14:34:30 | 53.93292 | 10.66668 | 85° | 186km/h | 7520m | -4.9m/s | -22.4°C | 84.5% | 389.8hPa | 2.6V | 07:51:12 | 02:15:29 | 00:00:00 | |
| DO2SHX-10 | 2026-09-04 14:34:30 | 53.93292 | 10.66668 | 86° | 188km/h | 7520m | -4.8m/s | -22.4°C | 90.7% | 389.8hPa | 2.6V | 00:00:00 | 02:15:29 | 00:00:00 | |
| S3001 | 2026-09-04 14:34:28 | 53.93271 | 10.66264 | 84° | 190km/h | 7543m | -4.2m/s | -22.5°C | 84.8% | 388.6hPa | 2.6V | 00:00:00 | 00:00:00 | 00:00:00 | |
| DM0DOS-11 | 2026-09-04 14:34:27 | 53.93258 | 10.66021 | 85° | 190km/h | 7558m | -4.8m/s | -22.6°C | 92% | 387.8hPa | 2.6V | 07:51:00 | 02:15:21 | 00:00:00 | |
| DF8AY | 2026-09-04 14:34:27 | 53.93280 | 10.66426 | 85° | 190km/h | 7534m | -4.8m/s | -22.5°C | 85% | 389hPa | 2.5V | 07:51:12 | 02:15:26 | 00:00:00 | |
| DO2SHX-10 | 2026-09-04 14:34:27 | 53.93280 | 10.66426 | 85° | 190km/h | 7534m | -4.7m/s | -22.5°C | 91.8% | 388.9hPa | 2.5V | 00:00:00 | 02:15:26 | 00:00:00 | |
| DB0DAN | 2026-09-04 14:34:25 | 53.93271 | 10.66264 | 84° | 181km/h | 7543m | -4.2m/s | -22.5°C | 84.8% | 388.57hPa | 2.6V | 00:00:00 | 00:00:00 | 00:00:00 | |
| DL1XH-west | 2026-09-04 14:34:25 | 53.93271 | 10.66264 | 85° | 190km/h | 7543m | -4.2m/s | -22.5°C | 85.1% | 388.6hPa | 2.6V | 07:51:12 | 02:15:24 | 00:00:00 | |
| EDDB2-12 | 2026-09-04 14:34:25 | 53.93267 | 10.66183 | 84° | 188km/h | 7548m | -4.9m/s | -22.6°C | 84.8% | 388.3hPa | 2.6V | 00:00:00 | 00:00:00 | 00:00:00 | |
| DO2SHX-10 | 2026-09-04 14:34:24 | 53.93267 | 10.66183 | 85° | 190km/h | 7548m | -4.9m/s | -22.5°C | 91.9% | 388.2hPa | 2.6V | 00:00:00 | 02:15:23 | 00:00:00 | |
| DF8AY-15 | 2026-09-04 14:34:23 | 53.93262 | 10.66102 | 85° | 162km/h | 7553m | -4.8m/s | -22.6°C | 92.0% | 388.0hPa | 2.6V | 00:00:00 | 02:15:22 | 00:00:00 | |
| DO2SHX-10 | 2026-09-04 14:34:21 | 53.93254 | 10.65940 | 86° | 192km/h | 7562m | -4.8m/s | -22.6°C | 92.2% | 387.4hPa | 2.6V | 00:00:00 | 02:15:20 | 00:00:00 | |
| DL1XH1-15 | 2026-09-04 14:34:20 | 53.93227 | 10.65452 | 84° | 188km/h | 7591m | -4.3m/s | -22.9°C | 91.5% | 386hPa | 2.6V | 07:51:07 | 02:15:14 | 00:00:00 | |
| DL1XH-15 | 2026-09-04 14:34:20 | 53.93222 | 10.65372 | 84° | 190km/h | 7595m | -4.9m/s | -23°C | 91.2% | 385.7hPa | 2.6V | 07:51:08 | 02:15:13 | 00:00:00 | |
| BIOWL1-15 | 2026-09-04 14:34:20 | 53.93246 | 10.65776 | 85° | 192km/h | 7572m | -4.7m/s | -22.8°C | 85.9% | 387hPa | 2.5V | 07:51:12 | 02:15:18 | 00:00:00 | |
| GOEST3-10 | 2026-09-04 14:34:19 | 53.93246 | 10.65776 | 85° | 190km/h | 7572m | -4.6m/s | -22.7°C | 92.5% | 387.0hPa | 2.5V | 00:00:00 | 00:00:00 | 00:00:00 | |
| DO2SHX-10 | 2026-09-04 14:34:18 | 53.93241 | 10.65695 | 85° | 190km/h | 7576m | -4.7m/s | -22.8°C | 92.4% | 386.7hPa | 2.5V | 00:00:00 | 02:15:17 | 00:00:00 | |
| DM0DOS-11 | 2026-09-04 14:34:17 | 53.93213 | 10.65208 | 84° | 193km/h | 7605m | -5.2m/s | -23°C | 91.3% | 385.2hPa | 2.5V | 07:51:10 | 02:15:11 | 00:00:00 | |
| DF8AY | 2026-09-04 14:34:17 | 53.93236 | 10.65613 | 84° | 190km/h | 7581m | -5m/s | -22.8°C | 85.4% | 386.5hPa | 2.5V | 07:51:12 | 02:15:16 | 00:00:00 | |
| DL1XH-west | 2026-09-04 14:34:15 | 53.93227 | 10.65452 | 85° | 188km/h | 7591m | -4.3m/s | -22.9°C | 84.9% | 386hPa | 2.6V | 07:51:12 | 02:15:14 | 00:00:00 | |
| AA1-15 | 2026-09-04 14:34:14 | 53.93222 | 10.65371 | 85° | 190km/h | 7595m | -4.9m/s | -23°C | 85% | 385.7hPa | 2.6V | 07:51:12 | 02:15:13 | 00:00:00 | |
| BIOWL1-15 | 2026-09-04 14:34:14 | 53.93191 | 10.64885 | 83° | 184km/h | 7625m | -5.2m/s | -23.2°C | 85.3% | 384.2hPa | 2.6V | 07:52:03 | 02:15:07 | 00:00:00 | |
| DJ2DS-15 | 2026-09-04 14:34:13 | 53.93218 | 10.65290 | 85° | 190km/h | 7600m | -4.8m/s | -22.9°C | 91.3% | 385.4hPa | 2.5V | 07:51:00 | 02:15:12 | 00:00:00 | |
| DO2SHX-10 | 2026-09-04 14:34:12 | 53.93213 | 10.65208 | 85° | 192km/h | 7605m | -5.1m/s | -23.0°C | 91.3% | 385.2hPa | 2.5V | 07:51:00 | 02:15:11 | 00:00:00 | |
| DB0DAN | 2026-09-04 14:34:10 | 53.93203 | 10.65044 | 83° | 181km/h | 7615m | -5.2m/s | -23.1°C | 84.1% | 384.75hPa | 2.5V | 00:00:00 | 00:00:00 | 00:00:00 | |
| DL1XH1-15 | 2026-09-04 14:34:10 | 53.93177 | 10.64649 | 85° | 186km/h | 7639m | -4.5m/s | -23.3°C | 91.6% | 383.5hPa | 2.5V | 07:51:17 | 02:15:04 | 00:00:00 | |
| DL1XH-15 | 2026-09-04 14:34:09 | 53.93174 | 10.64569 | 85° | 188km/h | 7644m | -4.6m/s | -23.3°C | 91.6% | 383.2hPa | 2.5V | 07:51:18 | 02:15:03 | 00:00:00 | |
| DF8AY | 2026-09-04 14:34:07 | 53.93186 | 10.64806 | 84° | 184km/h | 7630m | -4.8m/s | -23.2°C | 85.2% | 383.9hPa | 2.6V | 07:52:03 | 02:15:06 | 00:00:00 | |
| DL1XH-west | 2026-09-04 14:34:05 | 53.93178 | 10.64649 | 86° | 186km/h | 7639m | -4.5m/s | -23.3°C | 85.2% | 383.5hPa | 2.5V | 07:52:03 | 02:15:04 | 00:00:00 | |
| AA1-15 | 2026-09-04 14:34:03 | 53.93170 | 10.64488 | 86° | 190km/h | 7649m | -5.3m/s | -23.4°C | 85.2% | 383hPa | 2.6V | 07:52:03 | 02:15:02 | 00:00:00 | |
| BIOWL9-15 | 2026-09-04 14:34:03 | 53.93166 | 10.64407 | 85° | 190km/h | 7654m | -4.9m/s | -23.4°C | 84.2% | 382.8hPa | 2.6V | 00:00:00 | 00:00:00 | 00:00:00 | |
| DJ2DS-15 | 2026-09-04 14:34:01 | 53.93158 | 10.64244 | 84° | 190km/h | 7663m | -4.6m/s | -23.5°C | 84.6% | 382.2hPa | 2.6V | 00:00:00 | 00:00:00 | 00:00:00 | |
| DL1XH1-15 | 2026-09-04 14:34:00 | 53.93133 | 10.63834 | 83° | 193km/h | 7687m | -5.1m/s | -23.7°C | 91.9% | 381hPa | 2.6V | 07:51:27 | 02:14:54 | 00:00:00 | |
| DO2SHX-10 | 2026-09-04 14:34:00 | 53.93158 | 10.64244 | 85° | 190km/h | 7663m | -4.6m/s | -23.5°C | 91.9% | 382.1hPa | 2.6V | 00:00:00 | 02:14:59 | 00:00:00 | |
| DL1XH-15 | 2026-09-04 14:33:59 | 53.93127 | 10.63752 | 82° | 192km/h | 7693m | -5m/s | -23.8°C | 92% | 380.7hPa | 2.6V | 07:51:28 | 02:14:53 | 00:00:00 | |
| BIOWL1-15 | 2026-09-04 14:33:57 | 53.93143 | 10.63999 | 84° | 193km/h | 7678m | -5.5m/s | -23.6°C | 85.9% | 381.4hPa | 2.5V | 07:52:03 | 02:14:56 | 00:00:00 | |
| DL1XH-west | 2026-09-04 14:33:54 | 53.93127 | 10.63752 | 83° | 192km/h | 7693m | -5m/s | -23.8°C | 86.5% | 380.7hPa | 2.6V | 07:52:03 | 02:14:53 | 00:00:00 | |
| AA1-15 | 2026-09-04 14:33:52 | 53.93115 | 10.63592 | 83° | 186km/h | 7702m | -4.8m/s | -23.8°C | 86.5% | 380.2hPa | 2.5V | 07:52:03 | 02:14:51 | 00:00:00 | |
| DO2SHX-10 | 2026-09-04 14:33:51 | 53.93109 | 10.63513 | 84° | 184km/h | 7707m | -5.0m/s | -23.8°C | 92.2% | 379.9hPa | 2.5V | 00:00:00 | 02:14:50 | 00:00:00 | |
| DL1XH1-15 | 2026-09-04 14:33:50 | 53.93082 | 10.63032 | 83° | 192km/h | 7736m | -4.9m/s | -24.1°C | 93.5% | 378.4hPa | 2.5V | 07:51:37 | 02:14:44 | 00:00:00 | |
| DL1XH-15 | 2026-09-04 14:33:49 | 53.93076 | 10.62950 | 82° | 190km/h | 7740m | -4.5m/s | -24.1°C | 93.5% | 378.1hPa | 2.5V | 07:51:38 | 02:14:43 | 00:00:00 | |
| DO2SHX-10 | 2026-09-04 14:33:48 | 53.93096 | 10.63275 | 86° | 190km/h | 7722m | -4.7m/s | -23.9°C | 92.8% | 379.1hPa | 2.6V | 07:51:00 | 02:14:47 | 00:00:00 | |
| DM0DOS-11 | 2026-09-04 14:33:47 | 53.93064 | 10.62790 | 82° | 188km/h | 7750m | -5m/s | -24.1°C | 93.5% | 377.7hPa | 2.6V | 07:51:40 | 02:14:41 | 00:00:00 | |
| BIOWL1-15 | 2026-09-04 14:33:46 | 53.93087 | 10.63113 | 84° | 192km/h | 7731m | -4.5m/s | -24.1°C | 87.4% | 378.7hPa | 2.5V | 07:52:03 | 02:14:45 | 00:00:00 | |
| DL1XH-west | 2026-09-04 14:33:43 | 53.93070 | 10.62870 | 83° | 188km/h | 7745m | -5.1m/s | -24.1°C | 87.6% | 377.9hPa | 2.6V | 07:52:03 | 02:14:42 | 00:00:00 | |
| AA1-15 | 2026-09-04 14:33:41 | 53.93058 | 10.62710 | 83° | 186km/h | 7755m | -5.3m/s | -24.2°C | 87.4% | 377.4hPa | 2.6V | 07:52:03 | 02:14:40 | 00:00:00 | |
| D01LWL | 2026-09-04 14:33:40 | 53.93052 | 10.62631 | 83° | 186km/h | 7760m | -5.0m/s | -24.2°C | 86.7% | 377.1hPa | 2.5V | 00:00:00 | 00:00:00 | 00:00:00 | |
| DL1XH-15 | 2026-09-04 14:33:39 | 53.93023 | 10.62148 | 84° | 188km/h | 7789m | -4.7m/s | -24.5°C | 94.3% | 375.7hPa | 2.5V | 07:51:48 | 02:14:33 | 00:00:00 | |
| DO2SHX-10 | 2026-09-04 14:33:39 | 53.93047 | 10.62551 | 84° | 190km/h | 7765m | -4.7m/s | -24.2°C | 94.6% | 376.9hPa | 2.6V | 00:00:00 | 02:14:38 | 00:00:00 | |
| DM0DOS-11 | 2026-09-04 14:33:37 | 53.93013 | 10.61987 | 83° | 188km/h | 7798m | -4.7m/s | -24.5°C | 94.3% | 375.2hPa | 2.6V | 07:51:50 | 02:14:31 | 00:00:00 | |
| BIOWL1-15 | 2026-09-04 14:33:36 | 53.93032 | 10.62309 | 84° | 188km/h | 7779m | -4.5m/s | -24.4°C | 87.6% | 376.1hPa | 2.6V | 07:52:03 | 02:14:35 | 00:00:00 | |
| DF8AY | 2026-09-04 14:33:35 | 53.93027 | 10.62228 | 84° | 188km/h | 7784m | -4.7m/s | -24.4°C | 87.5% | 376hPa | 2.6V | 07:52:03 | 02:14:34 | 00:00:00 | |
| DL1XH-west | 2026-09-04 14:33:32 | 53.93012 | 10.61987 | 83° | 188km/h | 7798m | -4.7m/s | -24.5°C | 87.8% | 375.2hPa | 2.6V | 07:52:03 | 02:14:31 | 00:00:00 | |
| AA1-15 | 2026-09-04 14:33:30 | 53.93000 | 10.61829 | 82° | 186km/h | 7807m | -4.6m/s | -24.6°C | 88% | 374.7hPa | 2.6V | 07:52:03 | 02:14:29 | 00:00:00 | |
| DO2SHX-10 | 2026-09-04 14:33:30 | 53.93000 | 10.61829 | 83° | 184km/h | 7807m | -4.6m/s | -24.5°C | 94.3% | 374.7hPa | 2.6V | 00:00:00 | 02:14:29 | 00:00:00 | |
| DL1XH-15 | 2026-09-04 14:33:29 | 53.92969 | 10.61360 | 84° | 186km/h | 7835m | -4.7m/s | -24.8°C | 95% | 373.3hPa | 2.6V | 07:51:58 | 02:14:23 | 00:00:00 | |
| BIOWL1-15 | 2026-09-04 14:33:29 | 53.92973 | 10.61439 | 85° | 184km/h | 7831m | -4.4m/s | -24.8°C | 87.8% | 373.4hPa | 2.6V | 07:52:03 | 02:14:24 | 00:00:00 | |
| SONDE2-11 | 2026-09-04 14:33:28 | 53.92988 | 10.61673 | 82° | 181km/h | 7817m | -4.4m/s | -24.6°C | 86.4% | 374.2hPa | 2.5V | 00:00:00 | 00:00:00 | 00:00:00 | |
| DM0DOS-11 | 2026-09-04 14:33:27 | 53.92960 | 10.61199 | 84° | 190km/h | 7844m | -4.7m/s | -24.9°C | 95.9% | 372.8hPa | 2.5V | 07:52:00 | 02:14:21 | 00:00:00 | |
| DF8AY | 2026-09-04 14:33:24 | 53.92969 | 10.61360 | 85° | 186km/h | 7835m | -4.7m/s | -24.8°C | 88.1% | 373.3hPa | 2.6V | 07:52:03 | 02:14:23 | 00:00:00 | |
| DL1XH-west | 2026-09-04 14:33:22 | 53.92960 | 10.61199 | 84° | 190km/h | 7844m | -4.7m/s | -24.9°C | 88.8% | 372.8hPa | 2.5V | 07:52:03 | 02:14:21 | 00:00:00 | |
| DO2SHX-10 | 2026-09-04 14:33:21 | 53.92955 | 10.61119 | 84° | 188km/h | 7849m | -4.9m/s | -24.9°C | 96.0% | 372.5hPa | 2.6V | 00:00:00 | 02:14:20 | 00:00:00 | |
| DL1XH1-15 | 2026-09-04 14:33:20 | 53.92923 | 10.60638 | 82° | 186km/h | 7878m | -5m/s | -25.2°C | 96.6% | 371.1hPa | 2.6V | 07:52:07 | 02:14:14 | 00:00:00 | |
| AA1-15 | 2026-09-04 14:33:19 | 53.92945 | 10.60958 | 84° | 188km/h | 7858m | -4.8m/s | -25°C | 89.9% | 372.1hPa | 2.6V | 07:52:03 | 02:14:18 | 00:00:00 | |
| DO2SHX-10 | 2026-09-04 14:33:18 | 53.92940 | 10.60878 | 84° | 188km/h | 7863m | -4.8m/s | -25.0°C | 96.6% | 371.8hPa | 2.5V | 00:00:00 | 02:14:17 | 00:00:00 | |
| DM0DOS-11 | 2026-09-04 14:33:17 | 53.92906 | 10.60403 | 84° | 184km/h | 7892m | -4.9m/s | -25.3°C | 95.8% | 370.3hPa | 2.5V | 07:52:10 | 02:14:11 | 00:00:00 | |
| BIOWL1-15 | 2026-09-04 14:33:14 | 53.92917 | 10.60559 | 83° | 184km/h | 7883m | -5.1m/s | -25.2°C | 90.6% | 370.9hPa | 2.6V | 07:52:54 | 02:14:13 | 00:00:00 | |
| DF8AY | 2026-09-04 14:33:13 | 53.92911 | 10.60481 | 83° | 183km/h | 7888m | -4.7m/s | -25.2°C | 90.2% | 370.6hPa | 2.5V | 07:54:36 | 02:14:12 | 00:00:00 | |
| DL1XH-west | 2026-09-04 14:33:12 | 53.92906 | 10.60403 | 84° | 184km/h | 7892m | -4.9m/s | -25.3°C | 89.9% | 370.3hPa | 2.5V | 07:52:54 | 02:14:11 | 00:00:00 | |
| DO2SHX-10 | 2026-09-04 14:33:12 | 53.92906 | 10.60403 | 85° | 186km/h | 7892m | -4.8m/s | -25.2°C | 95.8% | 370.2hPa | 2.6V | 00:00:00 | 02:14:11 | 00:00:00 | |
| DL1XH1-15 | 2026-09-04 14:33:10 | 53.92875 | 10.59844 | 84° | 184km/h | 7925m | -5.2m/s | -25.6°C | 95% | 368.6hPa | 2.6V | 07:52:17 | 02:14:04 | 00:00:00 | |
| DL1XH-15 | 2026-09-04 14:33:09 | 53.92870 | 10.59765 | 84° | 184km/h | 7930m | -5.3m/s | -25.6°C | 94.7% | 368.3hPa | 2.6V | 07:52:18 | 02:14:03 | 00:00:00 | |
| AA1-15 | 2026-09-04 14:33:09 | 53.92894 | 10.60164 | 85° | 190km/h | 7907m | -4.7m/s | -25.4°C | 89.3% | 369.5hPa | 2.6V | 07:52:54 | 02:14:08 | 00:00:00 | |
| DO2SHX-10 | 2026-09-04 14:33:09 | 53.92893 | 10.60164 | 85° | 190km/h | 7907m | -4.6m/s | -25.4°C | 95.7% | 369.5hPa | 2.5V | 00:00:00 | 02:14:08 | 00:00:00 | |
| DM0DOS-11 | 2026-09-04 14:33:07 | 53.92861 | 10.59607 | 84° | 186km/h | 7941m | -5.2m/s | -25.7°C | 94.4% | 367.9hPa | 2.5V | 07:52:20 | 02:14:01 | 00:00:00 | |
| BIOWL1-15 | 2026-09-04 14:33:03 | 53.92866 | 10.59686 | 85° | 186km/h | 7935m | -5.2m/s | -25.6°C | 88.5% | 368.1hPa | 2.6V | 07:52:54 | 02:14:02 | 00:00:00 | |
| DL1XH-west | 2026-09-04 14:33:01 | 53.92857 | 10.59528 | 84° | 184km/h | 7946m | -4.9m/s | -25.7°C | 88.4% | 367.6hPa | 2.5V | 07:52:54 | 02:14:00 | 00:00:00 | |
| DO2SHX-10 | 2026-09-04 14:33:00 | 53.92852 | 10.59449 | 85° | 183km/h | 7951m | -5.2m/s | -25.7°C | 94.2% | 367.3hPa | 2.6V | 07:52:00 | 02:13:59 | 00:00:00 | |
| DL1XH-15 | 2026-09-04 14:32:59 | 53.92828 | 10.58978 | 85° | 186km/h | 7981m | -4.9m/s | -26°C | 93.8% | 365.8hPa | 2.6V | 07:52:28 | 02:13:53 | 00:00:00 | |
| AA1-15 | 2026-09-04 14:32:58 | 53.92843 | 10.59294 | 85° | 183km/h | 7961m | -5.1m/s | -25.9°C | 87.9% | 366.8hPa | 2.6V | 07:52:54 | 02:13:57 | 00:00:00 | |
| BIOWL1-15 | 2026-09-04 14:32:57 | 53.92824 | 10.58898 | 86° | 186km/h | 7985m | -4.8m/s | -26°C | 87.7% | 365.5hPa | 2.6V | 07:52:54 | 02:13:52 | 00:00:00 | |
| DF8AY | 2026-09-04 14:32:54 | 53.92828 | 10.58978 | 85° | 186km/h | 7981m | -4.9m/s | -26°C | 87.8% | 365.8hPa | 2.6V | 07:54:36 | 02:13:53 | 00:00:00 | |
| DL1XH-west | 2026-09-04 14:32:50 | 53.92813 | 10.58656 | 85° | 192km/h | 8000m | -4.9m/s | -26.1°C | 87.5% | 364.8hPa | 2.6V | 07:52:54 | 02:13:49 | 00:00:00 | |
| DL1XH-15 | 2026-09-04 14:32:49 | 53.92790 | 10.58177 | 86° | 184km/h | 8030m | -5.1m/s | -26.4°C | 92.6% | 363.3hPa | 2.6V | 07:52:38 | 02:13:43 | 00:00:00 | |
| AA1-15 | 2026-09-04 14:32:47 | 53.92800 | 10.58414 | 85° | 186km/h | 8015m | -4.7m/s | -26.2°C | 87.6% | 364hPa | 2.5V | 07:52:54 | 02:13:46 | 00:00:00 | |
| BIOWL1-15 | 2026-09-04 14:32:42 | 53.92785 | 10.58018 | 87° | 188km/h | 8040m | -5.1m/s | -26.5°C | 86.9% | 362.8hPa | 2.6V | 07:52:54 | 02:13:41 | 00:00:00 | |
| DO2SHX-10 | 2026-09-04 14:32:42 | 53.92785 | 10.58018 | 88° | 188km/h | 8040m | -5.1m/s | -26.4°C | 92.7% | 362.8hPa | 2.5V | 00:00:00 | 02:13:41 | 00:00:00 | |
| DK7RCA | 2026-09-04 14:32:41 | 53.92785 | 10.58018 | 88° | 188km/h | 8040m | -5.1m/s | -26.5°C | 84.6% | 362.8hPa | 2.5V | 07:52:00 | 00:00:00 | 00:00:00 | |
| DL1XH1-15 | 2026-09-04 14:32:40 | 53.92767 | 10.57458 | 87° | 188km/h | 8073m | -4.6m/s | -26.7°C | 91.8% | 361.1hPa | 2.5V | 07:52:47 | 02:13:34 | 00:00:00 | |
| DL1XH-west | 2026-09-04 14:32:39 | 53.92777 | 10.57777 | 86° | 186km/h | 8055m | -5.2m/s | -26.6°C | 86.9% | 362.1hPa | 2.5V | 07:52:54 | 02:13:38 | 00:00:00 | |
| AA1-15 | 2026-09-04 14:32:36 | 53.92769 | 10.57539 | 87° | 186km/h | 8069m | -4.8m/s | -26.7°C | 86.8% | 361.4hPa | 2.6V | 07:52:54 | 02:13:35 | 00:00:00 | |
| BIOWL1-15 | 2026-09-04 14:32:31 | 53.92754 | 10.57132 | 85° | 190km/h | 8094m | -5.5m/s | -26.9°C | 85.6% | 360.1hPa | 2.6V | 07:52:54 | 02:13:30 | 00:00:00 | |
| DF8AY | 2026-09-04 14:32:30 | 53.92749 | 10.57052 | 84° | 186km/h | 8099m | -4.7m/s | -26.9°C | 84.7% | 359.8hPa | 2.6V | 07:54:36 | 02:13:29 | 00:00:00 | |
| DO2SHX-10 | 2026-09-04 14:32:30 | 53.92749 | 10.57052 | 85° | 184km/h | 8099m | -4.7m/s | -26.8°C | 89.0% | 359.8hPa | 2.6V | 00:00:00 | 02:13:29 | 00:00:00 | |
| DL1XH-15 | 2026-09-04 14:32:29 | 53.92732 | 10.56583 | 88° | 184km/h | 8127m | -5m/s | -27.1°C | 88.4% | 358.5hPa | 2.5V | 07:52:58 | 02:13:23 | 00:00:00 | |
| DL1XH-west | 2026-09-04 14:32:29 | 53.92745 | 10.56973 | 85° | 184km/h | 8104m | -5.2m/s | -26.9°C | 84.6% | 359.6hPa | 2.5V | 07:52:54 | 02:13:28 | 00:00:00 | |
| AM1SDL-15 | 2026-09-04 14:32:28 | 53.92741 | 10.56895 | 86° | 184km/h | 8109m | -4.5m/s | -26.9°C | 89.1% | 359.3hPa | 2.5V | 00:00:00 | 02:13:27 | 00:00:00 | |
| DM0DOS-11 | 2026-09-04 14:32:27 | 53.92729 | 10.56424 | 87° | 188km/h | 8137m | -5.1m/s | -27.2°C | 88.1% | 357.9hPa | 2.6V | 07:53:00 | 02:13:21 | 00:00:00 | |
| AA1-15 | 2026-09-04 14:32:26 | 53.92735 | 10.56740 | 87° | 181km/h | 8118m | -4.8m/s | -27.1°C | 83.6% | 358.9hPa | 2.6V | 07:53:45 | 02:13:25 | 00:00:00 | |
| BIOWL1-15 | 2026-09-04 14:32:22 | 53.92723 | 10.56263 | 86° | 186km/h | 8147m | -4.8m/s | -27.3°C | 81.8% | 357.5hPa | 2.5V | 07:53:45 | 02:13:19 | 00:00:00 | |
| DO2SHX-10 | 2026-09-04 14:32:21 | 53.92726 | 10.56343 | 87° | 186km/h | 8142m | -4.7m/s | -27.2°C | 87.6% | 357.7hPa | 2.5V | 00:00:00 | 02:13:20 | 00:00:00 | |
| DL1XH1-15 | 2026-09-04 14:32:20 | 53.92710 | 10.55866 | 86° | 188km/h | 8171m | -4.8m/s | -27.5°C | 88.5% | 356.3hPa | 2.6V | 07:53:07 | 02:13:14 | 00:00:00 | |
| DL1XH-west | 2026-09-04 14:32:18 | 53.92717 | 10.56105 | 87° | 184km/h | 8156m | -5.1m/s | -27.4°C | 82.4% | 357.1hPa | 2.6V | 07:53:45 | 02:13:17 | 00:00:00 | |
| AA1-15 | 2026-09-04 14:32:16 | 53.92712 | 10.55946 | 87° | 186km/h | 8166m | -5.1m/s | -27.5°C | 82.9% | 356.5hPa | 2.5V | 07:53:45 | 02:13:15 | 00:00:00 | |
| BIOWL1-15 | 2026-09-04 14:32:11 | 53.92697 | 10.55380 | 87° | 192km/h | 8200m | -5m/s | -27.7°C | 83.3% | 354.8hPa | 2.6V | 07:53:45 | 02:13:08 | 00:00:00 | |
| DL1XH1-15 | 2026-09-04 14:32:10 | 53.92686 | 10.55054 | 86° | 190km/h | 8220m | -4.9m/s | -27.9°C | 87.7% | 353.9hPa | 2.5V | 07:53:17 | 02:13:04 | 00:00:00 | |
| DL1XH-west | 2026-09-04 14:32:07 | 53.92691 | 10.55217 | 87° | 190km/h | 8210m | -4.8m/s | -27.8°C | 83.4% | 354.4hPa | 2.6V | 07:53:45 | 02:13:06 | 00:00:00 | |
| AA1-15 | 2026-09-04 14:32:05 | 53.92686 | 10.55054 | 87° | 190km/h | 8220m | -4.9m/s | -27.9°C | 83.3% | 353.9hPa | 2.5V | 07:53:45 | 02:13:04 | 00:00:00 | |
| DO2SHX-10 | 2026-09-04 14:32:03 | 53.92680 | 10.54893 | 86° | 184km/h | 8230m | -4.7m/s | -27.9°C | 87.9% | 353.4hPa | 2.6V | 00:00:00 | 02:13:02 | 00:00:00 | |
| DO2SHX-10 | 2026-09-04 14:32:00 | 53.92671 | 10.54656 | 88° | 186km/h | 8244m | -5.1m/s | -28.0°C | 88.1% | 352.6hPa | 2.5V | 00:00:00 | 02:12:59 | 00:00:00 | |
| DL1XH-15 | 2026-09-04 14:31:59 | 53.92658 | 10.54171 | 87° | 188km/h | 8273m | -4.7m/s | -28.3°C | 89.3% | 351.3hPa | 2.5V | 07:53:28 | 02:12:53 | 00:00:00 | |
| BIOWL1-15 | 2026-09-04 14:31:58 | 53.92667 | 10.54496 | 88° | 188km/h | 8253m | -4.7m/s | -28.2°C | 82.4% | 352.2hPa | 2.5V | 07:53:45 | 02:12:57 | 00:00:00 | |
| DM0DOS-11 | 2026-09-04 14:31:57 | 53.92654 | 10.54011 | 87° | 188km/h | 8282m | -5.1m/s | -28.3°C | 89.3% | 350.9hPa | 2.5V | 07:53:30 | 02:12:51 | 00:00:00 | |
| DL1XH-west | 2026-09-04 14:31:56 | 53.92663 | 10.54333 | 87° | 190km/h | 8263m | -4.8m/s | -28.2°C | 82.8% | 351.8hPa | 2.6V | 07:53:45 | 02:12:55 | 00:00:00 | |
| AA1-15 | 2026-09-04 14:31:55 | 53.92661 | 10.54252 | 87° | 190km/h | 8268m | -5m/s | -28.2°C | 82.8% | 351.5hPa | 2.6V | 07:53:45 | 02:12:54 | 00:00:00 | |
| DF8AY | 2026-09-04 14:31:51 | 53.92652 | 10.53930 | 88° | 190km/h | 8288m | -5m/s | -28.4°C | 83.5% | 350.6hPa | 2.6V | 07:54:36 | 02:12:50 | 00:00:00 | |
| DO2SHX-10 | 2026-09-04 14:31:51 | 53.92652 | 10.53930 | 88° | 190km/h | 8288m | -5.0m/s | -28.3°C | 89.3% | 350.5hPa | 2.6V | 00:00:00 | 02:12:50 | 00:00:00 | |
| DL1XH1-15 | 2026-09-04 14:31:50 | 53.92637 | 10.53444 | 87° | 184km/h | 8317m | -4.9m/s | -28.6°C | 88.6% | 349.1hPa | 2.6V | 07:53:37 | 02:12:44 | 00:00:00 | |
| DL1XH-15 | 2026-09-04 14:31:49 | 53.92636 | 10.53365 | 88° | 184km/h | 8322m | -5m/s | -28.6°C | 88.3% | 348.9hPa | 2.6V | 07:53:38 | 02:12:43 | 00:00:00 | |
| BIOWL1-15 | 2026-09-04 14:31:48 | 53.92645 | 10.53685 | 87° | 190km/h | 8302m | -4.9m/s | -28.5°C | 84.5% | 349.9hPa | 2.5V | 07:53:45 | 02:12:47 | 00:00:00 | |
| DL1XH-west | 2026-09-04 14:31:46 | 53.92640 | 10.53524 | 87° | 186km/h | 8312m | -5.3m/s | -28.6°C | 84.5% | 349.4hPa | 2.5V | 07:53:45 | 02:12:45 | 00:00:00 | |
| AA1-15 | 2026-09-04 14:31:44 | 53.92636 | 10.53365 | 88° | 184km/h | 8322m | -5m/s | -28.6°C | 84% | 348.9hPa | 2.6V | 07:53:45 | 02:12:43 | 00:00:00 | |
| BIOWL1-15 | 2026-09-04 14:31:41 | 53.92627 | 10.52795 | 87° | 193km/h | 8356m | -4.6m/s | -28.9°C | 81.8% | 347.3hPa | 2.6V | 07:53:45 | 02:12:36 | 00:00:00 | |
| DL1XH1-15 | 2026-09-04 14:31:40 | 53.92622 | 10.52630 | 87° | 192km/h | 8365m | -4.6m/s | -28.9°C | 86.9% | 346.8hPa | 2.5V | 07:53:47 | 02:12:34 | 00:00:00 | |
| DF8AY | 2026-09-04 14:31:39 | 53.92631 | 10.52960 | 88° | 193km/h | 8346m | -4.5m/s | -28.8°C | 82.6% | 347.8hPa | 2.6V | 07:54:36 | 02:12:38 | 00:00:00 | |
| DL1XH-15 | 2026-09-04 14:31:39 | 53.92620 | 10.52548 | 87° | 192km/h | 8370m | -4.3m/s | -28.9°C | 86.8% | 346.6hPa | 2.5V | 07:53:48 | 02:12:33 | 00:00:00 | |
| DL1XH-west | 2026-09-04 14:31:35 | 53.92622 | 10.52630 | 87° | 192km/h | 8365m | -4.6m/s | -28.9°C | 80.8% | 346.8hPa | 2.5V | 07:54:36 | 02:12:34 | 00:00:00 | |
| AA1-15 | 2026-09-04 14:31:33 | 53.92618 | 10.52466 | 87° | 192km/h | 8374m | -5.2m/s | -29°C | 80.6% | 346.4hPa | 2.6V | 07:54:36 | 02:12:32 | 00:00:00 | |
| DJ2DS-15 | 2026-09-04 14:31:33 | 53.92618 | 10.52466 | 88° | 192km/h | 8375m | -5.2m/s | -28.9°C | 86.9% | 346.3hPa | 2.6V | 07:53:00 | 02:12:32 | 00:00:00 | |
| DL1XH1-15 | 2026-09-04 14:31:30 | 53.92608 | 10.51820 | 90° | 195km/h | 8413m | -4.7m/s | -29.2°C | 86.7% | 344.5hPa | 2.6V | 07:53:57 | 02:12:24 | 00:00:00 | |
| DO2SHX-10 | 2026-09-04 14:31:30 | 53.92610 | 10.52222 | 88° | 184km/h | 8389m | -4.6m/s | -29.0°C | 86.8% | 345.6hPa | 2.5V | 00:00:00 | 02:12:29 | 00:00:00 | |
| DL1XH-15 | 2026-09-04 14:31:29 | 53.92609 | 10.51736 | 90° | 197km/h | 8418m | -5m/s | -29.3°C | 86.2% | 344.4hPa | 2.5V | 07:53:58 | 02:12:23 | 00:00:00 | |
| BIOWL1-15 | 2026-09-04 14:31:29 | 53.92608 | 10.51984 | 90° | 188km/h | 8404m | -4.9m/s | -29.2°C | 82% | 345hPa | 2.6V | 07:54:36 | 02:12:26 | 00:00:00 | |
| DF8AY | 2026-09-04 14:31:26 | 53.92608 | 10.51902 | 91° | 192km/h | 8409m | -5.1m/s | -29.2°C | 82.4% | 344.8hPa | 2.6V | 07:54:36 | 02:12:25 | 00:00:00 | |
| DL1XH-west | 2026-09-04 14:31:24 | 53.92609 | 10.51736 | 90° | 197km/h | 8418m | -5m/s | -29.3°C | 82.5% | 344.4hPa | 2.5V | 07:54:36 | 02:12:23 | 00:00:00 | |
| AA1-15 | 2026-09-04 14:31:23 | 53.92609 | 10.51651 | 90° | 199km/h | 8423m | -4.5m/s | -29.3°C | 82.3% | 344hPa | 2.5V | 07:54:36 | 02:12:22 | 00:00:00 | |
| S3001 | 2026-09-04 14:31:22 | 53.92608 | 10.51565 | 88° | 199km/h | 8428m | -5.0m/s | 0°C | -1.0% | -1.0hPa | 2.6V | 00:00:00 | 00:00:00 | 00:00:00 | |
| GOEST3-10 | 2026-09-04 14:31:21 | 53.92606 | 10.51480 | 88° | 197km/h | 8433m | -4.7m/s | -29.4°C | 86.4% | 343.5hPa | 2.6V | 00:00:00 | 00:00:00 | 00:00:00 | |
| DL1XH1-15 | 2026-09-04 14:31:20 | 53.92596 | 10.50983 | 89° | 193km/h | 8460m | -4.8m/s | -29.6°C | 85% | 342.3hPa | 2.6V | 07:54:07 | 02:12:14 | 00:00:00 | |
| DL1XH-15 | 2026-09-04 14:31:19 | 53.92596 | 10.50900 | 90° | 195km/h | 8465m | -4.4m/s | -29.7°C | 85.3% | 342hPa | 2.6V | 07:54:08 | 02:12:13 | 00:00:00 | |
| DO2SHX-10 | 2026-09-04 14:31:18 | 53.92599 | 10.51229 | 88° | 192km/h | 8446m | -4.5m/s | -29.5°C | 86.3% | 342.9hPa | 2.5V | 00:00:00 | 02:12:17 | 00:00:00 | |
| DM0DOS-11 | 2026-09-04 14:31:17 | 53.92596 | 10.50731 | 89° | 199km/h | 8474m | -4.5m/s | -29.7°C | 84.7% | 341.6hPa | 2.5V | 07:54:10 | 02:12:11 | 00:00:00 | |
| BIOWL1-15 | 2026-09-04 14:31:16 | 53.92596 | 10.51065 | 89° | 192km/h | 8455m | -4.8m/s | -29.6°C | 80.4% | 342.5hPa | 2.5V | 07:54:36 | 02:12:15 | 00:00:00 | |
| DF8AY | 2026-09-04 14:31:15 | 53.92596 | 10.50983 | 90° | 193km/h | 8460m | -4.8m/s | -29.6°C | 80.5% | 342.3hPa | 2.6V | 07:54:36 | 02:12:14 | 00:00:00 | |
| DL1XH-west | 2026-09-04 14:31:14 | 53.92596 | 10.50900 | 90° | 195km/h | 8465m | -4.4m/s | -29.7°C | 80.5% | 342hPa | 2.6V | 07:54:36 | 02:12:13 | 00:00:00 | |
| AA1-15 | 2026-09-04 14:31:12 | 53.92596 | 10.50731 | 90° | 199km/h | 8474m | -4.5m/s | -29.7°C | 80% | 341.6hPa | 2.5V | 07:54:36 | 02:12:11 | 00:00:00 | |
| DO2SHX-10 | 2026-09-04 14:31:12 | 53.92596 | 10.50731 | 90° | 199km/h | 8474m | -4.5m/s | -29.7°C | 84.7% | 341.6hPa | 2.5V | 00:00:00 | 02:12:11 | 00:00:00 | |
| AM1SDL-15 | 2026-09-04 14:31:11 | 53.92595 | 10.50646 | 90° | 195km/h | 8479m | -4.6m/s | -29.7°C | 84.3% | 341.3hPa | 2.5V | 00:00:00 | 02:12:10 | 00:00:00 | |
| DL1XH1-15 | 2026-09-04 14:31:10 | 53.92589 | 10.50146 | 89° | 193km/h | 8506m | -4.4m/s | -29.9°C | 84.7% | 340.1hPa | 2.5V | 07:54:17 | 02:12:04 | 00:00:00 | |
| BIOWL1-15 | 2026-09-04 14:31:10 | 53.92590 | 10.50229 | 89° | 193km/h | 8501m | -4.5m/s | -29.9°C | 79.3% | 340.2hPa | 2.5V | 07:54:36 | 02:12:05 | 00:00:00 | |
| GOEST3-10 | 2026-09-04 14:31:10 | 53.92595 | 10.50561 | 89° | 195km/h | 8483m | -4.5m/s | -29.8°C | 84.7% | 341.1hPa | 2.5V | 00:00:00 | 00:00:00 | 00:00:00 | |
| DL1XH-15 | 2026-09-04 14:31:09 | 53.92588 | 10.50063 | 89° | 193km/h | 8510m | -4.3m/s | -29.9°C | 84.7% | 339.8hPa | 2.5V | 07:54:18 | 02:12:03 | 00:00:00 | |
| DO2SHX-10 | 2026-09-04 14:31:09 | 53.92593 | 10.50477 | 89° | 193km/h | 8488m | -4.5m/s | -29.7°C | 84.6% | 340.9hPa | 2.6V | 00:00:00 | 02:12:08 | 00:00:00 | |
| DM0DOS-11 | 2026-09-04 14:31:07 | 53.92587 | 10.49896 | 89° | 193km/h | 8520m | -4.7m/s | -30°C | 84.7% | 339.4hPa | 2.6V | 07:54:20 | 02:12:01 | 00:00:00 | |
| DF8AY | 2026-09-04 14:31:05 | 53.92589 | 10.50146 | 89° | 193km/h | 8506m | -4.4m/s | -29.9°C | 79.4% | 340.1hPa | 2.5V | 07:54:36 | 02:12:04 | 00:00:00 | |
| DL1XH-west | 2026-09-04 14:31:04 | 53.92589 | 10.50063 | 89° | 195km/h | 8511m | -4.4m/s | -29.9°C | 79.6% | 339.8hPa | 2.5V | 07:54:36 | 02:12:03 | 00:00:00 | |
| AA1-15 | 2026-09-04 14:31:01 | 53.92587 | 10.49813 | 90° | 195km/h | 8525m | -4.3m/s | -30.1°C | 79.8% | 339.2hPa | 2.6V | 07:54:36 | 02:12:00 | 00:00:00 | |
| DL1XH1-15 | 2026-09-04 14:31:00 | 53.92581 | 10.49308 | 88° | 193km/h | 8552m | -4.8m/s | -30.3°C | 85% | 337.9hPa | 2.6V | 07:54:27 | 02:11:54 | 00:00:00 | |
| DO2SHX-10 | 2026-09-04 14:31:00 | 53.92587 | 10.49729 | 90° | 197km/h | 8529m | -4.5m/s | -30.0°C | 84.8% | 339.0hPa | 2.5V | 07:54:00 | 02:11:59 | 00:00:00 | |
| DL1XH-15 | 2026-09-04 14:30:59 | 53.92580 | 10.49226 | 89° | 193km/h | 8556m | -4.6m/s | -30.3°C | 84.8% | 337.6hPa | 2.5V | 07:54:28 | 02:11:53 | 00:00:00 | |
| BIOWL1-15 | 2026-09-04 14:30:59 | 53.92581 | 10.49308 | 89° | 193km/h | 8552m | -4.8m/s | -30.3°C | 79.9% | 337.9hPa | 2.6V | 07:54:36 | 02:11:54 | 00:00:00 | |
| DK1YY | 2026-09-04 14:30:58 | 53.92585 | 10.49560 | 88° | 197km/h | 8538m | -5.0m/s | -30.2°C | 76.5% | 338.5hPa | 2.5V | 00:00:00 | 00:00:00 | 00:00:00 | |
| DM0DOS-11 | 2026-09-04 14:30:57 | 53.92579 | 10.49059 | 89° | 195km/h | 8566m | -4.6m/s | -30.4°C | 85% | 337.2hPa | 2.5V | 07:54:30 | 02:11:51 | 00:00:00 | |
| DF8AY | 2026-09-04 14:30:54 | 53.92580 | 10.49226 | 89° | 193km/h | 8557m | -4.6m/s | -30.3°C | 79.8% | 337.7hPa | 2.5V | 07:54:36 | 02:11:53 | 00:00:00 | |
| DL1XH-west | 2026-09-04 14:30:53 | 53.92580 | 10.49142 | 89° | 195km/h | 8561m | -4.7m/s | -30.4°C | 79.9% | 337.4hPa | 2.5V | 07:54:36 | 02:11:52 | 00:00:00 | |
| DJ2DS-15 | 2026-09-04 14:30:53 | 53.92580 | 10.49142 | 90° | 195km/h | 8561m | -4.6m/s | -30.3°C | 84.9% | 337.4hPa | 2.6V | 00:00:00 | 02:11:52 | 00:00:00 | |
| DO2SHX-10 | 2026-09-04 14:30:51 | 53.92579 | 10.48974 | 90° | 195km/h | 8571m | -4.7m/s | -30.4°C | 84.9% | 336.9hPa | 2.6V | 00:00:00 | 02:11:50 | 00:00:00 | |
| DL1XH1-15 | 2026-09-04 14:30:50 | 53.92575 | 10.48475 | 90° | 195km/h | 8598m | -4.6m/s | -30.7°C | 85.3% | 335.7hPa | 2.6V | 07:54:37 | 02:11:44 | 00:00:00 | |
| AA1-15 | 2026-09-04 14:30:50 | 53.92578 | 10.48890 | 89° | 197km/h | 8575m | -4.6m/s | -30.5°C | 80% | 336.8hPa | 2.6V | 07:54:36 | 02:11:49 | 00:00:00 | |
| DL1XH-15 | 2026-09-04 14:30:49 | 53.92576 | 10.48391 | 90° | 197km/h | 8603m | -4.3m/s | -30.7°C | 85.4% | 335.5hPa | 2.6V | 07:54:38 | 02:11:43 | 00:00:00 | |
| DO2SHX-10 | 2026-09-04 14:30:48 | 53.92576 | 10.48723 | 90° | 193km/h | 8585m | -4.7m/s | -30.5°C | 85.2% | 336.3hPa | 2.5V | 00:00:00 | 02:11:47 | 00:00:00 | |
| DM0DOS-11 | 2026-09-04 14:30:47 | 53.92575 | 10.48223 | 89° | 197km/h | 8611m | -4.2m/s | -30.8°C | 85.3% | 335.1hPa | 2.5V | 07:54:40 | 02:11:41 | 00:00:00 | |
| BIOWL1-15 | 2026-09-04 14:30:47 | 53.92576 | 10.48475 | 90° | 195km/h | 8598m | -4.6m/s | -30.7°C | 80.1% | 335.7hPa | 2.6V | 07:55:27 | 02:11:44 | 00:00:00 | |
| DL1XH-west | 2026-09-04 14:30:43 | 53.92576 | 10.48307 | 90° | 197km/h | 8607m | -4.3m/s | -30.8°C | 80.4% | 335.3hPa | 2.6V | 07:55:27 | 02:11:42 | 00:00:00 | |
| AA1-15 | 2026-09-04 14:30:40 | 53.92574 | 10.48053 | 89° | 199km/h | 8620m | -5.1m/s | -30.9°C | 80.4% | 334.7hPa | 2.5V | 07:55:27 | 02:11:39 | 00:00:00 | |
| GOEST3-10 | 2026-09-04 14:30:40 | 53.92574 | 10.48053 | 90° | 197km/h | 8620m | -5.1m/s | -30.8°C | 85.3% | 334.6hPa | 2.5V | 00:00:00 | 00:00:00 | 00:00:00 | |
| DL1XH-15 | 2026-09-04 14:30:39 | 53.92570 | 10.47548 | 90° | 195km/h | 8647m | -3.8m/s | -31.1°C | 85.9% | 333.3hPa | 2.5V | 07:54:48 | 02:11:33 | 00:00:00 | |
| DO2SHX-10 | 2026-09-04 14:30:39 | 53.92573 | 10.47968 | 89° | 199km/h | 8625m | -4.5m/s | -30.9°C | 85.1% | 334.3hPa | 2.6V | 00:00:00 | 02:11:38 | 00:00:00 | |
| DM0DOS-11 | 2026-09-04 14:30:37 | 53.92572 | 10.47378 | 91° | 201km/h | 8655m | -4.2m/s | -31.1°C | 86.5% | 332.9hPa | 2.6V | 07:54:50 | 02:11:31 | 00:00:00 | |
| BIOWL1-15 | 2026-09-04 14:30:35 | 53.92570 | 10.47631 | 90° | 193km/h | 8643m | -4.2m/s | -31°C | 80.7% | 333.6hPa | 2.5V | 07:55:27 | 02:11:34 | 00:00:00 | |
| DL1XH-west | 2026-09-04 14:30:32 | 53.92572 | 10.47378 | 91° | 201km/h | 8655m | -4.2m/s | -31.2°C | 81.5% | 332.9hPa | 2.6V | 07:55:27 | 02:11:31 | 00:00:00 | |
| DL1XH1-15 | 2026-09-04 14:30:30 | 53.92564 | 10.46782 | 89° | 192km/h | 8685m | -4.3m/s | -31.4°C | 87.6% | 331.5hPa | 2.6V | 07:54:57 | 02:11:24 | 00:00:00 | |
| AA1-15 | 2026-09-04 14:30:30 | 53.92572 | 10.47205 | 89° | 203km/h | 8664m | -4.5m/s | -31.2°C | 81.9% | 332.5hPa | 2.5V | 07:55:27 | 02:11:29 | 00:00:00 | |
| DO2SHX-10 | 2026-09-04 14:30:30 | 53.92572 | 10.47205 | 90° | 201km/h | 8664m | -4.4m/s | -31.2°C | 86.9% | 332.5hPa | 2.5V | 00:00:00 | 02:11:29 | 00:00:00 | |
| DC4HF-4 | 2026-09-04 14:30:29 | 53.92571 | 10.47118 | 88° | 201km/h | 8668m | -3.9m/s | -31.3°C | 78.0% | 332.3hPa | 2.5V | 00:00:00 | 00:00:00 | 00:00:00 | |
| DM0DOS-11 | 2026-09-04 14:30:27 | 53.92564 | 10.46533 | 90° | 197km/h | 8698m | -4.3m/s | -31.6°C | 89% | 330.9hPa | 2.5V | 07:55:00 | 02:11:21 | 00:00:00 | |
| BIOWL1-15 | 2026-09-04 14:30:24 | 53.92564 | 10.46700 | 90° | 193km/h | 8690m | -4.3m/s | -31.5°C | 82.4% | 331.3hPa | 2.5V | 07:55:27 | 02:11:23 | 00:00:00 | |
| DF8AY | 2026-09-04 14:30:22 | 53.92564 | 10.46533 | 91° | 197km/h | 8698m | -4.3m/s | -31.6°C | 82.9% | 330.9hPa | 2.5V | 07:56:18 | 02:11:21 | 00:00:00 | |
| DL1XH-west | 2026-09-04 14:30:21 | 53.92565 | 10.46448 | 91° | 199km/h | 8702m | -4.1m/s | -31.6°C | 82.8% | 330.7hPa | 2.6V | 07:55:27 | 02:11:20 | 00:00:00 | |
| DO2SHX-10 | 2026-09-04 14:30:21 | 53.92565 | 10.46448 | 91° | 201km/h | 8703m | -4.1m/s | -31.5°C | 88.6% | 330.7hPa | 2.5V | 00:00:00 | 02:11:20 | 00:00:00 | |
| DL1XH1-15 | 2026-09-04 14:30:20 | 53.92560 | 10.45937 | 89° | 199km/h | 8727m | -4.5m/s | -31.9°C | 88.2% | 329.6hPa | 2.5V | 07:55:07 | 02:11:14 | 00:00:00 | |
| GOEST3-10 | 2026-09-04 14:30:20 | 53.92565 | 10.46362 | 90° | 199km/h | 8707m | -4.3m/s | -31.6°C | 89.2% | 330.5hPa | 2.5V | 07:55:00 | 00:00:00 | 00:00:00 | |
| DL1XH-15 | 2026-09-04 14:30:19 | 53.92559 | 10.45851 | 89° | 201km/h | 8731m | -4.1m/s | -31.9°C | 88.2% | 329.3hPa | 2.5V | 07:55:08 | 02:11:13 | 00:00:00 | |
| AA1-15 | 2026-09-04 14:30:19 | 53.92565 | 10.46276 | 89° | 201km/h | 8711m | -4.1m/s | -31.7°C | 83.2% | 330.3hPa | 2.5V | 07:55:27 | 02:11:18 | 00:00:00 | |
| DO2SHX-10 | 2026-09-04 14:30:18 | 53.92564 | 10.46191 | 89° | 197km/h | 8715m | -4.1m/s | -31.7°C | 88.9% | 330.0hPa | 2.6V | 00:00:00 | 02:11:17 | 00:00:00 | |
| DM0DOS-11 | 2026-09-04 14:30:17 | 53.92558 | 10.45679 | 89° | 201km/h | 8739m | -4.1m/s | -32°C | 88.9% | 328.9hPa | 2.6V | 07:55:10 | 02:11:11 | 00:00:00 | |
| BIOWL1-15 | 2026-09-04 14:30:14 | 53.92559 | 10.45851 | 89° | 201km/h | 8731m | -4.1m/s | -31.9°C | 82% | 329.3hPa | 2.5V | 07:55:27 | 02:11:13 | 00:00:00 | |
| SMARD9-15 | 2026-09-04 14:30:13 | 53.92558 | 10.45679 | 89° | 201km/h | 8739m | -4.1m/s | -32.0°C | 79.6% | 328.9hPa | 2.5V | 00:00:00 | 00:00:00 | 00:00:00 | |
| DO2SHX-10 | 2026-09-04 14:30:12 | 53.92558 | 10.45679 | 90° | 201km/h | 8740m | -4.0m/s | -31.9°C | 88.9% | 328.9hPa | 2.5V | 07:55:00 | 02:11:11 | 00:00:00 | |
| DL1XH1-15 | 2026-09-04 14:30:10 | 53.92559 | 10.45085 | 91° | 201km/h | 8768m | -3.7m/s | -32.2°C | 87.6% | 327.6hPa | 2.5V | 07:55:17 | 02:11:04 | 00:00:00 | |
| DL1XH-west | 2026-09-04 14:30:10 | 53.92557 | 10.45508 | 89° | 199km/h | 8747m | -4m/s | -32°C | 82.2% | 328.6hPa | 2.5V | 07:55:27 | 02:11:09 | 00:00:00 | |
| DL1XH-15 | 2026-09-04 14:30:09 | 53.92559 | 10.44999 | 90° | 201km/h | 8772m | -4.3m/s | -32.2°C | 87.7% | 327.4hPa | 2.5V | 07:55:18 | 02:11:03 | 00:00:00 | |
| AA1-15 | 2026-09-04 14:30:08 | 53.92556 | 10.45339 | 90° | 195km/h | 8756m | -4.5m/s | -32.1°C | 81.9% | 328.1hPa | 2.6V | 07:55:27 | 02:11:07 | 00:00:00 | |
| DM0DOS-11 | 2026-09-04 14:30:07 | 53.92560 | 10.44826 | 89° | 203km/h | 8781m | -4.2m/s | -32.3°C | 87.6% | 327hPa | 2.6V | 07:55:20 | 02:11:01 | 00:00:00 | |
| BIOWL1-15 | 2026-09-04 14:30:06 | 53.92560 | 10.44999 | 91° | 203km/h | 8772m | -4.3m/s | -32.2°C | 81.3% | 327.4hPa | 2.5V | 07:55:27 | 02:11:03 | 00:00:00 | |
| DD8BA-10 | 2026-09-04 14:30:06 | 53.92558 | 10.45171 | 92° | 203km/h | 8764m | -4.5m/s | -32.1°C | 87.7% | 327.7hPa | 2.6V | 00:00:00 | 00:00:00 | 00:00:00 | |
| GOEST3-10 | 2026-09-04 14:30:05 | 53.92559 | 10.45085 | 92° | 203km/h | 8768m | -3.7m/s | -32.1°C | 87.6% | 327.5hPa | 2.6V | 00:00:00 | 02:11:04 | 00:00:00 | |
| DL1XH1-15 | 2026-09-04 14:30:00 | 53.92556 | 10.44221 | 88° | 195km/h | 8811m | -4m/s | -32.5°C | 86.9% | 325.6hPa | 2.6V | 07:55:27 | 02:10:54 | 00:00:00 | |
| DL1XH-west | 2026-09-04 14:30:00 | 53.92560 | 10.44653 | 90° | 201km/h | 8789m | -4.7m/s | -32.4°C | 80.9% | 326.6hPa | 2.6V | 07:55:27 | 02:10:59 | 00:00:00 | |
| DO2SHX-10 | 2026-09-04 14:30:00 | 53.92560 | 10.44653 | 90° | 203km/h | 8790m | -4.7m/s | -32.3°C | 87.3% | 326.6hPa | 2.6V | 00:00:00 | 02:10:59 | 00:00:00 | |
| DL1XH-15 | 2026-09-04 14:29:59 | 53.92555 | 10.44138 | 88° | 193km/h | 8815m | -4.4m/s | -32.5°C | 87.1% | 325.4hPa | 2.6V | 07:55:28 | 02:10:53 | 00:00:00 | |
| DM0DOS-11 | 2026-09-04 14:29:57 | 53.92554 | 10.43973 | 90° | 192km/h | 8823m | -4.3m/s | -32.6°C | 87.4% | 325hPa | 2.5V | 07:55:30 | 02:10:51 | 00:00:00 | |
| AA1-15 | 2026-09-04 14:29:57 | 53.92558 | 10.44392 | 89° | 203km/h | 8803m | -4.3m/s | -32.4°C | 80.8% | 326hPa | 2.5V | 07:55:27 | 02:10:56 | 00:00:00 | |
| BIOWL1-15 | 2026-09-04 14:29:54 | 53.92555 | 10.44138 | 89° | 193km/h | 8815m | -4.4m/s | -32.5°C | 81% | 325.4hPa | 2.6V | 07:56:18 | 02:10:53 | 00:00:00 | |
| DL1XH-west | 2026-09-04 14:29:50 | 53.92555 | 10.43807 | 90° | 197km/h | 8832m | -4.5m/s | -32.6°C | 81.1% | 324.6hPa | 2.6V | 07:56:18 | 02:10:49 | 00:00:00 | |
| DL1XH-15 | 2026-09-04 14:29:49 | 53.92548 | 10.43295 | 87° | 193km/h | 8858m | -4.7m/s | -32.8°C | 85.9% | 323.4hPa | 2.5V | 07:55:38 | 02:10:43 | 00:00:00 | |
| AA1-15 | 2026-09-04 14:29:47 | 53.92554 | 10.43550 | 88° | 203km/h | 8845m | -4.4m/s | -32.7°C | 80.8% | 324hPa | 2.5V | 07:56:18 | 02:10:46 | 00:00:00 | |
| BIOWL1-15 | 2026-09-04 14:29:46 | 53.92547 | 10.43295 | 88° | 193km/h | 8858m | -4.7m/s | -32.8°C | 79.9% | 323.4hPa | 2.5V | 07:56:18 | 02:10:43 | 00:00:00 | |
| EDDB2-12 | 2026-09-04 14:29:45 | 53.92550 | 10.43378 | 87° | 197km/h | 8854m | -4.5m/s | -32.8°C | 76.6% | 323.6hPa | 2.5V | 00:00:00 | 00:00:00 | 00:00:00 | |
| DF8AY | 2026-09-04 14:29:43 | 53.92546 | 10.43212 | 88° | 192km/h | 8863m | -4.5m/s | -32.9°C | 79.6% | 323.2hPa | 2.5V | 07:56:18 | 02:10:42 | 00:00:00 | |
| DL1XH-west | 2026-09-04 14:29:40 | 53.92544 | 10.42967 | 91° | 192km/h | 8876m | -4.2m/s | -33°C | 79.8% | 322.6hPa | 2.6V | 07:56:18 | 02:10:39 | 00:00:00 | |
| DL1XH-15 | 2026-09-04 14:29:39 | 53.92542 | 10.42457 | 88° | 197km/h | 8901m | -4.1m/s | -33.1°C | 86.1% | 321.4hPa | 2.6V | 07:55:48 | 02:10:33 | 00:00:00 | |
| AA1-15 | 2026-09-04 14:29:37 | 53.92545 | 10.42713 | 90° | 201km/h | 8889m | -4.6m/s | -33°C | 80.5% | 322hPa | 2.5V | 07:56:18 | 02:10:36 | 00:00:00 | |
| BIOWL1-15 | 2026-09-04 14:29:35 | 53.92540 | 10.42372 | 88° | 197km/h | 8906m | -4.5m/s | -33.1°C | 79.9% | 321.2hPa | 2.6V | 07:56:18 | 02:10:32 | 00:00:00 | |
| DF8AY | 2026-09-04 14:29:32 | 53.92539 | 10.42288 | 88° | 197km/h | 8910m | -4.6m/s | -33.1°C | 79.7% | 321hPa | 2.5V | 07:56:18 | 02:10:31 | 00:00:00 | |
| D01LWL | 2026-09-04 14:29:32 | 53.92537 | 10.42204 | 87° | 195km/h | 8915m | -4.6m/s | -33.2°C | 75.7% | 320.8hPa | 2.5V | 00:00:00 | 00:00:00 | 00:00:00 | |
| DO2SHX-10 | 2026-09-04 14:29:30 | 53.92535 | 10.42121 | 88° | 192km/h | 8919m | -4.1m/s | -33.2°C | 84.6% | 320.6hPa | 2.5V | 00:00:00 | 02:10:29 | 00:00:00 | |
| DL1XH-15 | 2026-09-04 14:29:29 | 53.92536 | 10.41621 | 90° | 203km/h | 8945m | -4.3m/s | -33.4°C | 82.9% | 319.4hPa | 2.6V | 07:55:58 | 02:10:23 | 00:00:00 | |
| DL1XH-west | 2026-09-04 14:29:29 | 53.92534 | 10.42039 | 89° | 192km/h | 8923m | -4.5m/s | -33.2°C | 78.9% | 320.4hPa | 2.6V | 07:56:18 | 02:10:28 | 00:00:00 | |
| AA1-15 | 2026-09-04 14:29:26 | 53.92534 | 10.41791 | 91° | 197km/h | 8936m | -4.3m/s | -33.3°C | 78.4% | 319.8hPa | 2.5V | 07:56:18 | 02:10:25 | 00:00:00 | |
| BIOWL1-15 | 2026-09-04 14:29:25 | 53.92536 | 10.41535 | 90° | 203km/h | 8950m | -4.8m/s | -33.4°C | 77.2% | 319.2hPa | 2.5V | 07:56:18 | 02:10:22 | 00:00:00 | |
| DF8AY | 2026-09-04 14:29:22 | 53.92536 | 10.41448 | 89° | 204km/h | 8954m | -4.5m/s | -33.5°C | 76.5% | 319hPa | 2.5V | 07:56:18 | 02:10:21 | 00:00:00 | |
| DO2SHX-10 | 2026-09-04 14:29:21 | 53.92534 | 10.41361 | 89° | 203km/h | 8959m | -4.6m/s | -33.4°C | 81.5% | 318.7hPa | 2.5V | 00:00:00 | 02:10:20 | 00:00:00 | |
| DL1XH1-15 | 2026-09-04 14:29:20 | 53.92523 | 10.40853 | 89° | 195km/h | 8986m | -4m/s | -33.6°C | 79.8% | 317.6hPa | 2.5V | 07:56:07 | 02:10:14 | 00:00:00 | |
| DL1XH-west | 2026-09-04 14:29:19 | 53.92530 | 10.41188 | 88° | 201km/h | 8968m | -5.1m/s | -33.5°C | 75.2% | 318.4hPa | 2.6V | 07:56:18 | 02:10:18 | 00:00:00 | |
| DO2SHX-10 | 2026-09-04 14:29:18 | 53.92528 | 10.41103 | 88° | 195km/h | 8973m | -4.2m/s | -33.5°C | 80.7% | 318.1hPa | 2.5V | 00:00:00 | 02:10:17 | 00:00:00 | |
| DM0DOS-11 | 2026-09-04 14:29:17 | 53.92523 | 10.40595 | 89° | 204km/h | 8999m | -5m/s | -33.6°C | 78% | 317hPa | 2.5V | 07:56:10 | 02:10:11 | 00:00:00 | |
| AA1-15 | 2026-09-04 14:29:16 | 53.92524 | 10.40936 | 89° | 193km/h | 8982m | -4.2m/s | -33.6°C | 73.8% | 317.8hPa | 2.5V | 07:56:18 | 02:10:15 | 00:00:00 | |
| BIOWL1-15 | 2026-09-04 14:29:15 | 53.92523 | 10.40683 | 90° | 203km/h | 8994m | -4.5m/s | -33.7°C | 72.6% | 317.3hPa | 2.6V | 07:56:18 | 02:10:12 | 00:00:00 | |
| DF8AY | 2026-09-04 14:29:11 | 53.92522 | 10.40506 | 89° | 210km/h | 9003m | -4.1m/s | -33.6°C | 71.5% | 316.8hPa | 2.5V | 07:56:18 | 02:10:10 | 00:00:00 | |
| DB0DAN | 2026-09-04 14:29:10 | 53.92521 | 10.40417 | 89° | 199km/h | 9007m | -4.5m/s | -33.7°C | 69% | 316.61hPa | 2.6V | 00:00:00 | 00:00:00 | 00:00:00 | |
| DL1XH1-15 | 2026-09-04 14:29:10 | 53.92511 | 10.39971 | 87° | 208km/h | 9029m | -5m/s | -33.8°C | 78.3% | 315.6hPa | 2.6V | 07:56:17 | 02:10:04 | 00:00:00 | |
| DL1XH-15 | 2026-09-04 14:29:09 | 53.92509 | 10.39882 | 87° | 208km/h | 9034m | -4.5m/s | -33.9°C | 78.2% | 315.5hPa | 2.6V | 07:56:18 | 02:10:03 | 00:00:00 | |
| DL1XH-west | 2026-09-04 14:29:09 | 53.92519 | 10.40327 | 88° | 210km/h | 9012m | -4.5m/s | -33.7°C | 71.8% | 316.4hPa | 2.6V | 07:56:18 | 02:10:08 | 00:00:00 | |
| DO2SHX-10 | 2026-09-04 14:29:09 | 53.92519 | 10.40327 | 89° | 208km/h | 9012m | -4.4m/s | -33.7°C | 77.9% | 316.4hPa | 2.5V | 00:00:00 | 02:10:08 | 00:00:00 | |
| DM0DOS-11 | 2026-09-04 14:29:07 | 53.92503 | 10.39704 | 86° | 208km/h | 9042m | -3.7m/s | -34°C | 78.6% | 315.1hPa | 2.5V | 07:56:20 | 02:10:01 | 00:00:00 | |
| AA1-15 | 2026-09-04 14:29:06 | 53.92513 | 10.40060 | 88° | 206km/h | 9025m | -4.4m/s | -33.8°C | 71.8% | 315.8hPa | 2.5V | 07:56:18 | 02:10:05 | 00:00:00 | |
| DF8AY | 2026-09-04 14:29:05 | 53.92496 | 10.39527 | 86° | 206km/h | 9051m | -4.5m/s | -34°C | 71.4% | 314.7hPa | 2.5V | 07:57:09 | 02:09:59 | 00:00:00 | |
| BIOWL1-15 | 2026-09-04 14:29:02 | 53.92503 | 10.39704 | 86° | 208km/h | 9043m | -3.7m/s | -34°C | 71.6% | 315.1hPa | 2.5V | 07:57:09 | 02:10:01 | 00:00:00 | |
| D01LWL | 2026-09-04 14:29:01 | 53.92496 | 10.39527 | 86° | 206km/h | 9051m | -4.5m/s | -34.0°C | 69.6% | 314.7hPa | 2.6V | 00:00:00 | 00:00:00 | 00:00:00 | |
| DL1XH1-15 | 2026-09-04 14:29:00 | 53.92482 | 10.39078 | 86° | 214km/h | 9073m | -4.7m/s | -33.9°C | 77.1% | 313.6hPa | 2.6V | 07:56:27 | 02:09:54 | 00:00:00 | |
| DO2SHX-10 | 2026-09-04 14:29:00 | 53.92496 | 10.39527 | 87° | 208km/h | 9051m | -4.4m/s | -33.9°C | 78.5% | 314.6hPa | 2.6V | 07:56:00 | 02:09:59 | 00:00:00 | |
| DL1XH-15 | 2026-09-04 14:28:59 | 53.92478 | 10.38987 | 85° | 212km/h | 9078m | -4.8m/s | -33.9°C | 77.1% | 313.5hPa | 2.6V | 07:56:28 | 02:09:53 | 00:00:00 | |
| DL1XH-west | 2026-09-04 14:28:58 | 53.92490 | 10.39350 | 87° | 210km/h | 9060m | -4.3m/s | -33.9°C | 70.9% | 314.2hPa | 2.6V | 07:57:09 | 02:09:57 | 00:00:00 | |
| DM0DOS-11 | 2026-09-04 14:28:57 | 53.92470 | 10.38807 | 85° | 208km/h | 9087m | -4.1m/s | -33.9°C | 76.9% | 313.1hPa | 2.5V | 07:56:30 | 02:09:51 | 00:00:00 | |
| AA1-15 | 2026-09-04 14:28:55 | 53.92482 | 10.39078 | 86° | 214km/h | 9073m | -4.7m/s | -33.9°C | 71.4% | 313.6hPa | 2.6V | 07:57:09 | 02:09:54 | 00:00:00 | |
| BIOWL1-15 | 2026-09-04 14:28:51 | 53.92466 | 10.38718 | 86° | 208km/h | 9091m | -4.5m/s | -33.9°C | 71.4% | 312.8hPa | 2.5V | 07:57:09 | 02:09:50 | 00:00:00 | |
| DO2SHX-10 | 2026-09-04 14:28:51 | 53.92466 | 10.38718 | 87° | 210km/h | 9091m | -4.4m/s | -33.9°C | 77.4% | 312.8hPa | 2.5V | 00:00:00 | 02:09:50 | 00:00:00 | |
| DL1XH1-15 | 2026-09-04 14:28:50 | 53.92447 | 10.38177 | 86° | 214km/h | 9118m | -3.9m/s | -33.8°C | 75.4% | 311.6hPa | 2.5V | 07:56:37 | 02:09:44 | 00:00:00 | |
| DF8AY | 2026-09-04 14:28:50 | 53.92463 | 10.38629 | 87° | 208km/h | 9096m | -4.3m/s | -34°C | 71.4% | 312.7hPa | 2.6V | 07:57:09 | 02:09:49 | 00:00:00 | |
| DL1XH-15 | 2026-09-04 14:28:49 | 53.92444 | 10.38085 | 86° | 215km/h | 9122m | -4.8m/s | -33.8°C | 75% | 311.5hPa | 2.6V | 07:56:38 | 02:09:43 | 00:00:00 | |
| DL1XH-west | 2026-09-04 14:28:47 | 53.92454 | 10.38358 | 86° | 212km/h | 9109m | -4.9m/s | -33.8°C | 71.1% | 312.1hPa | 2.5V | 07:57:09 | 02:09:46 | 00:00:00 | |
| AA1-15 | 2026-09-04 14:28:45 | 53.92447 | 10.38177 | 87° | 214km/h | 9118m | -3.9m/s | -33.8°C | 70.8% | 311.6hPa | 2.5V | 07:57:09 | 02:09:44 | 00:00:00 | |
| BIOWL1-15 | 2026-09-04 14:28:45 | 53.92432 | 10.37809 | 85° | 214km/h | 9136m | -4.9m/s | -33.8°C | 69.9% | 310.8hPa | 2.5V | 07:57:09 | 02:09:40 | 00:00:00 | |
| DD8BA-10 | 2026-09-04 14:28:45 | 53.92447 | 10.38177 | 87° | 212km/h | 9118m | -3.8m/s | -33.8°C | 75.4% | 311.6hPa | 2.6V | 00:00:00 | 00:00:00 | 00:00:00 | |
| GOEST3-10 | 2026-09-04 14:28:44 | 53.92444 | 10.38085 | 87° | 214km/h | 9122m | -4.8m/s | -33.7°C | 75.0% | 311.4hPa | 2.6V | 00:00:00 | 02:09:43 | 00:00:00 | |
| EDDB2-12 | 2026-09-04 14:28:43 | 53.92441 | 10.37993 | 86° | 215km/h | 9127m | -4.9m/s | -33.8°C | 66.4% | 311.3hPa | 2.6V | 00:00:00 | 00:00:00 | 00:00:00 | |
| DO2SHX-10 | 2026-09-04 14:28:42 | 53.92437 | 10.37901 | 86° | 214km/h | 9132m | -4.7m/s | -33.7°C | 74.8% | 310.9hPa | 2.6V | 00:00:00 | 02:09:41 | 00:00:00 | |
| DC4HF-4 | 2026-09-04 14:28:41 | 53.92432 | 10.37809 | 85° | 212km/h | 9136m | -4.9m/s | -33.8°C | 66.0% | 310.8hPa | 2.6V | 00:00:00 | 00:00:00 | 00:00:00 | |
| DL1XH1-15 | 2026-09-04 14:28:40 | 53.92412 | 10.37272 | 86° | 212km/h | 9164m | -4.7m/s | -33.8°C | 73% | 309.6hPa | 2.6V | 07:56:47 | 02:09:34 | 00:00:00 | |
| DL1XH-15 | 2026-09-04 14:28:39 | 53.92409 | 10.37182 | 86° | 212km/h | 9168m | -5.1m/s | -33.9°C | 73.2% | 309.5hPa | 2.6V | 07:56:48 | 02:09:33 | 00:00:00 | |
| DL1XH-west | 2026-09-04 14:28:37 | 53.92418 | 10.37452 | 87° | 208km/h | 9154m | -4.8m/s | -33.8°C | 68.8% | 310.1hPa | 2.5V | 07:57:09 | 02:09:36 | 00:00:00 | |
| AA1-15 | 2026-09-04 14:28:34 | 53.92409 | 10.37182 | 86° | 212km/h | 9169m | -5.1m/s | -33.9°C | 69.8% | 309.5hPa | 2.6V | 07:57:09 | 02:09:33 | 00:00:00 | |
| BIOWL1-15 | 2026-09-04 14:28:31 | 53.92399 | 10.36910 | 87° | 214km/h | 9182m | -5m/s | -34°C | 69.8% | 308.9hPa | 2.5V | 07:57:09 | 02:09:30 | 00:00:00 | |
| DL1XH1-15 | 2026-09-04 14:28:30 | 53.92376 | 10.36362 | 86° | 206km/h | 9212m | -4.5m/s | -34.2°C | 72.2% | 307.6hPa | 2.5V | 07:56:57 | 02:09:24 | 00:00:00 | |
| DO2SHX-10 | 2026-09-04 14:28:30 | 53.92395 | 10.36818 | 87° | 215km/h | 9188m | -4.9m/s | -34.0°C | 72.0% | 308.5hPa | 2.6V | 00:00:00 | 02:09:29 | 00:00:00 | |
| DL1XH-15 | 2026-09-04 14:28:29 | 53.92373 | 10.36274 | 86° | 206km/h | 9216m | -4.5m/s | -34.3°C | 72.1% | 307.4hPa | 2.6V | 07:56:58 | 02:09:23 | 00:00:00 | |
| GOEST3-10 | 2026-09-04 14:28:29 | 53.92392 | 10.36725 | 87° | 212km/h | 9192m | -5.3m/s | -34.0°C | 71.8% | 308.3hPa | 2.6V | 00:00:00 | 00:00:00 | 00:00:00 | |
| DM0DOS-11 | 2026-09-04 14:28:27 | 53.92368 | 10.36096 | 87° | 210km/h | 9224m | -4.4m/s | -34.3°C | 72.4% | 307hPa | 2.6V | 07:57:00 | 02:09:21 | 00:00:00 | |
| DL1XH-west | 2026-09-04 14:28:26 | 53.92380 | 10.36451 | 86° | 210km/h | 9207m | -4.8m/s | -34.2°C | 69% | 307.8hPa | 2.5V | 07:57:09 | 02:09:25 | 00:00:00 | |
| AA1-15 | 2026-09-04 14:28:23 | 53.92370 | 10.36186 | 87° | 206km/h | 9221m | -4.3m/s | -34.3°C | 69% | 307.1hPa | 2.6V | 07:57:09 | 02:09:22 | 00:00:00 | |
| BIOWL1-15 | 2026-09-04 14:28:20 | 53.92362 | 10.35916 | 86° | 214km/h | 9234m | -4.8m/s | -34.4°C | 69.4% | 306.6hPa | 2.5V | 07:57:09 | 02:09:19 | 00:00:00 | |
| DL1XH-15 | 2026-09-04 14:28:19 | 53.92338 | 10.35377 | 86° | 208km/h | 9260m | -4.8m/s | -34.7°C | 74.7% | 305.3hPa | 2.5V | 07:57:08 | 02:09:13 | 00:00:00 | |
| GOEST3-10 | 2026-09-04 14:28:19 | 53.92358 | 10.35825 | 86° | 210km/h | 9238m | -4.4m/s | -34.5°C | 73.3% | 306.3hPa | 2.6V | 07:57:00 | 00:00:00 | 00:00:00 | |
| SONDE2-11 | 2026-09-04 14:28:18 | 53.92350 | 10.35644 | 85° | 210km/h | 9247m | -4.9m/s | -34.6°C | 65.2% | 305.9hPa | 2.6V | 00:00:00 | 00:00:00 | 00:00:00 | |
| DM0DOS-11 | 2026-09-04 14:28:17 | 53.92331 | 10.35197 | 85° | 212km/h | 9270m | -4.6m/s | -34.8°C | 75.4% | 304.9hPa | 2.6V | 07:57:10 | 02:09:11 | 00:00:00 | |
| DF8AY | 2026-09-04 14:28:16 | 53.92345 | 10.35555 | 86° | 208km/h | 9252m | -4.6m/s | -34.6°C | 70% | 305.7hPa | 2.5V | 07:57:09 | 02:09:15 | 00:00:00 | |
| DL1XH-west | 2026-09-04 14:28:15 | 53.92342 | 10.35466 | 86° | 208km/h | 9256m | -4.3m/s | -34.7°C | 70.1% | 305.5hPa | 2.5V | 07:57:09 | 02:09:14 | 00:00:00 | |
| AA1-15 | 2026-09-04 14:28:12 | 53.92331 | 10.35197 | 86° | 212km/h | 9270m | -4.6m/s | -34.8°C | 70.8% | 304.9hPa | 2.6V | 07:58:00 | 02:09:11 | 00:00:00 | |
| DO2SHX-10 | 2026-09-04 14:28:12 | 53.92330 | 10.35197 | 86° | 212km/h | 9270m | -4.6m/s | -34.8°C | 75.4% | 304.9hPa | 2.5V | 07:57:00 | 02:09:11 | 00:00:00 | |
| DL1XH1-15 | 2026-09-04 14:28:10 | 53.92301 | 10.34565 | 85° | 210km/h | 9302m | -4.4m/s | -35.1°C | 76.4% | 303.6hPa | 2.5V | 07:57:17 | 02:09:04 | 00:00:00 | |
| BIOWL1-15 | 2026-09-04 14:28:10 | 53.92322 | 10.35017 | 85° | 210km/h | 9279m | -4.5m/s | -34.9°C | 71% | 304.6hPa | 2.5V | 07:58:00 | 02:09:09 | 00:00:00 | |
| DF8AY | 2026-09-04 14:28:05 | 53.92301 | 10.34565 | 85° | 210km/h | 9302m | -4.4m/s | -35.1°C | 71.9% | 303.6hPa | 2.5V | 07:58:51 | 02:09:04 | 00:00:00 | |
| DL1XH-west | 2026-09-04 14:28:04 | 53.92297 | 10.34475 | 86° | 208km/h | 9306m | -4.3m/s | -35.2°C | 72% | 303.4hPa | 2.5V | 07:58:00 | 02:09:03 | 00:00:00 | |
| AA1-15 | 2026-09-04 14:28:01 | 53.92288 | 10.34207 | 87° | 212km/h | 9318m | -4.4m/s | -35.3°C | 71.9% | 302.8hPa | 2.6V | 07:58:00 | 02:09:00 | 00:00:00 | |
| DL1XH1-15 | 2026-09-04 14:28:00 | 53.92270 | 10.33660 | 86° | 214km/h | 9345m | -4.5m/s | -35.5°C | 76.3% | 301.6hPa | 2.6V | 07:57:27 | 02:08:54 | 00:00:00 | |
| DO2SHX-10 | 2026-09-04 14:28:00 | 53.92285 | 10.34116 | 87° | 214km/h | 9323m | -4.6m/s | -35.2°C | 75.6% | 302.6hPa | 2.6V | 00:00:00 | 02:08:59 | 00:00:00 | |
| DL1XH-15 | 2026-09-04 14:27:59 | 53.92266 | 10.33569 | 86° | 212km/h | 9350m | -5m/s | -35.6°C | 76.2% | 301.4hPa | 2.5V | 07:57:28 | 02:08:53 | 00:00:00 | |
| BIOWL1-15 | 2026-09-04 14:27:59 | 53.92282 | 10.34025 | 87° | 214km/h | 9327m | -4.1m/s | -35.3°C | 71.7% | 302.4hPa | 2.5V | 07:58:00 | 02:08:58 | 00:00:00 | |
| D01LWL | 2026-09-04 14:27:58 | 53.92279 | 10.33933 | 86° | 212km/h | 9331m | -4.3m/s | -35.4°C | 67.3% | 302.2hPa | 2.5V | 00:00:00 | 00:00:00 | 00:00:00 | |
| DM0DOS-11 | 2026-09-04 14:27:57 | 53.92259 | 10.33389 | 85° | 210km/h | 9359m | -4.3m/s | -35.6°C | 76.5% | 301hPa | 2.5V | 07:57:30 | 02:08:51 | 00:00:00 | |
| DL1XH-west | 2026-09-04 14:27:54 | 53.92266 | 10.33569 | 86° | 212km/h | 9350m | -5m/s | -35.6°C | 71.6% | 301.4hPa | 2.5V | 07:58:00 | 02:08:53 | 00:00:00 | |
| AA1-15 | 2026-09-04 14:27:51 | 53.92255 | 10.33300 | 86° | 206km/h | 9363m | -4.6m/s | -35.7°C | 71.6% | 300.8hPa | 2.6V | 07:58:00 | 02:08:50 | 00:00:00 | |
| BIOWL9-15 | 2026-09-04 14:27:50 | 53.92252 | 10.33212 | 87° | 208km/h | 9368m | -4.9m/s | -35.7°C | 67.5% | 300.6hPa | 2.6V | 00:00:00 | 00:00:00 | 00:00:00 | |
| DL1XH-15 | 2026-09-04 14:27:49 | 53.92232 | 10.32678 | 86° | 203km/h | 9397m | -5.2m/s | -36°C | 75.8% | 299.4hPa | 2.6V | 07:57:38 | 02:08:43 | 00:00:00 | |
| BIOWL1-15 | 2026-09-04 14:27:48 | 53.92246 | 10.33033 | 87° | 212km/h | 9377m | -4.5m/s | -35.8°C | 71% | 300.2hPa | 2.5V | 07:58:00 | 02:08:47 | 00:00:00 | |
| DO2SHX-10 | 2026-09-04 14:27:48 | 53.92246 | 10.33032 | 87° | 210km/h | 9377m | -4.5m/s | -35.8°C | 76.0% | 300.1hPa | 2.5V | 07:57:00 | 02:08:47 | 00:00:00 | |
| DM0DOS-11 | 2026-09-04 14:27:47 | 53.92227 | 10.32505 | 88° | 204km/h | 9406m | -5m/s | -36.1°C | 76.2% | 299hPa | 2.5V | 07:57:40 | 02:08:41 | 00:00:00 | |
| DF8AY | 2026-09-04 14:27:46 | 53.92239 | 10.32853 | 86° | 208km/h | 9387m | -4.9m/s | -35.9°C | 71.5% | 299.8hPa | 2.5V | 07:58:51 | 02:08:45 | 00:00:00 | |
| DL1XH-west | 2026-09-04 14:27:44 | 53.92232 | 10.32678 | 87° | 203km/h | 9397m | -5.2m/s | -36°C | 71.3% | 299.4hPa | 2.6V | 07:58:00 | 02:08:43 | 00:00:00 | |
| DO2SHX-10 | 2026-09-04 14:27:42 | 53.92227 | 10.32505 | 89° | 206km/h | 9407m | -4.9m/s | -36.0°C | 76.2% | 298.9hPa | 2.5V | 00:00:00 | 02:08:41 | 00:00:00 | |
| EDDB2-12 | 2026-09-04 14:27:41 | 53.92226 | 10.32417 | 88° | 204km/h | 9411m | -4.9m/s | -36.1°C | 66.9% | 298.7hPa | 2.5V | 00:00:00 | 00:00:00 | 00:00:00 | |
| DL1XH1-15 | 2026-09-04 14:27:40 | 53.92216 | 10.31871 | 87° | 219km/h | 9441m | -4.8m/s | -36.4°C | 76.2% | 297.4hPa | 2.5V | 07:57:47 | 02:08:34 | 00:00:00 | |
| AA1-15 | 2026-09-04 14:27:40 | 53.92224 | 10.32329 | 89° | 208km/h | 9416m | -4.7m/s | -36.2°C | 71.3% | 298.5hPa | 2.6V | 07:58:00 | 02:08:39 | 00:00:00 | |
| BIOWL1-15 | 2026-09-04 14:27:39 | 53.92221 | 10.32057 | 88° | 215km/h | 9431m | -5.4m/s | -36.3°C | 71.3% | 297.9hPa | 2.5V | 07:58:00 | 02:08:36 | 00:00:00 | |
| DF8AY | 2026-09-04 14:27:35 | 53.92216 | 10.31871 | 87° | 219km/h | 9441m | -4.8m/s | -36.4°C | 71.5% | 297.5hPa | 2.5V | 07:58:51 | 02:08:34 | 00:00:00 | |
| DL1XH-west | 2026-09-04 14:27:33 | 53.92209 | 10.31684 | 86° | 219km/h | 9450m | -4.8m/s | -36.5°C | 71.5% | 297.1hPa | 2.6V | 07:58:00 | 02:08:32 | 00:00:00 | |
| DJ2DS-15 | 2026-09-04 14:27:33 | 53.92209 | 10.31684 | 86° | 212km/h | 9450m | -4.8m/s | -36.4°C | 76.1% | 297.1hPa | 2.6V | 00:00:00 | 02:08:32 | 00:00:00 | |
| DK7RCA | 2026-09-04 14:27:32 | 53.92209 | 10.31684 | 87° | 219km/h | 9450m | -4.8m/s | -36.5°C | 66.8% | 297.1hPa | 2.5V | 07:58:00 | 00:00:00 | 00:00:00 | |
| DL1XH1-15 | 2026-09-04 14:27:30 | 53.92177 | 10.30963 | 88° | 204km/h | 9487m | -4.4m/s | -36.8°C | 75% | 295.4hPa | 2.5V | 07:57:57 | 02:08:24 | 00:00:00 | |
| AA1-15 | 2026-09-04 14:27:29 | 53.92190 | 10.31316 | 85° | 212km/h | 9468m | -4.7m/s | -36.6°C | 71.3% | 296.3hPa | 2.5V | 07:58:00 | 02:08:28 | 00:00:00 | |
| DM0DOS-11 | 2026-09-04 14:27:27 | 53.92176 | 10.30693 | 89° | 214km/h | 9501m | -5.7m/s | -36.9°C | 73.4% | 294.9hPa | 2.6V | 07:58:00 | 02:08:21 | 00:00:00 | |
| BIOWL1-15 | 2026-09-04 14:27:27 | 53.92182 | 10.31138 | 86° | 206km/h | 9477m | -4.3m/s | -36.7°C | 71% | 295.9hPa | 2.6V | 07:58:00 | 02:08:26 | 00:00:00 | |
| DF8AY | 2026-09-04 14:27:25 | 53.92177 | 10.30963 | 88° | 204km/h | 9487m | -4.4m/s | -36.8°C | 70.7% | 295.4hPa | 2.5V | 07:58:51 | 02:08:24 | 00:00:00 | |
| DL1XH-west | 2026-09-04 14:27:23 | 53.92176 | 10.30785 | 90° | 212km/h | 9496m | -4.6m/s | -36.8°C | 69.9% | 295.1hPa | 2.5V | 07:58:00 | 02:08:22 | 00:00:00 | |
| DO2SHX-10 | 2026-09-04 14:27:21 | 53.92175 | 10.30600 | 90° | 219km/h | 9506m | -4.9m/s | -36.9°C | 72.4% | 294.6hPa | 2.6V | 00:00:00 | 02:08:20 | 00:00:00 | |
| DL1XH1-15 | 2026-09-04 14:27:20 | 53.92157 | 10.30045 | 85° | 208km/h | 9534m | -5m/s | -37.2°C | 71.4% | 293.4hPa | 2.6V | 07:58:07 | 02:08:14 | 00:00:00 | |
| BIOWL1-15 | 2026-09-04 14:27:20 | 53.92161 | 10.30135 | 85° | 212km/h | 9530m | -4.5m/s | -37.1°C | 67.9% | 293.7hPa | 2.5V | 07:58:51 | 02:08:15 | 00:00:00 | |
| AA1-15 | 2026-09-04 14:27:18 | 53.92169 | 10.30319 | 87° | 219km/h | 9521m | -5m/s | -37°C | 68.2% | 294hPa | 2.5V | 07:58:51 | 02:08:17 | 00:00:00 | |
| DO2SHX-10 | 2026-09-04 14:27:18 | 53.92169 | 10.30319 | 88° | 215km/h | 9521m | -4.9m/s | -37.0°C | 72.1% | 294.0hPa | 2.5V | 00:00:00 | 02:08:17 | 00:00:00 | |
| DM0DOS-11 | 2026-09-04 14:27:17 | 53.92143 | 10.29784 | 85° | 201km/h | 9549m | -4.8m/s | -37.3°C | 70.8% | 292.8hPa | 2.5V | 07:58:10 | 02:08:11 | 00:00:00 | |
| DL1XH-west | 2026-09-04 14:27:13 | 53.92147 | 10.29870 | 85° | 201km/h | 9544m | -5.2m/s | -37.3°C | 67% | 293.1hPa | 2.6V | 07:58:51 | 02:08:12 | 00:00:00 | |
| DJ2DS-15 | 2026-09-04 14:27:13 | 53.92147 | 10.29869 | 86° | 208km/h | 9545m | -5.2m/s | -37.2°C | 70.8% | 293.0hPa | 2.5V | 00:00:00 | 02:08:12 | 00:00:00 | |
| DO2SHX-10 | 2026-09-04 14:27:12 | 53.92143 | 10.29784 | 86° | 199km/h | 9549m | -4.7m/s | -37.2°C | 70.8% | 292.8hPa | 2.5V | 00:00:00 | 02:08:11 | 00:00:00 | |
| DK7RCA | 2026-09-04 14:27:11 | 53.92143 | 10.29784 | 87° | 201km/h | 9549m | -4.8m/s | -37.3°C | 61.8% | 292.8hPa | 2.5V | 07:58:00 | 00:00:00 | 00:00:00 | |
| DL1XH1-15 | 2026-09-04 14:27:10 | 53.92134 | 10.29173 | 88° | 214km/h | 9583m | -4.8m/s | -37.6°C | 70.6% | 291.4hPa | 2.5V | 07:58:17 | 02:08:04 | 00:00:00 | |
| DL1XH-15 | 2026-09-04 14:27:09 | 53.92133 | 10.29081 | 88° | 217km/h | 9587m | -4.8m/s | -37.6°C | 70.4% | 291.2hPa | 2.6V | 07:58:18 | 02:08:03 | 00:00:00 | |
| AA1-15 | 2026-09-04 14:27:08 | 53.92135 | 10.29442 | 89° | 201km/h | 9568m | -4.8m/s | -37.5°C | 66.4% | 292hPa | 2.6V | 07:58:51 | 02:08:07 | 00:00:00 | |
| DM0DOS-11 | 2026-09-04 14:27:07 | 53.92127 | 10.28894 | 86° | 217km/h | 9597m | -4.8m/s | -37.7°C | 70% | 290.8hPa | 2.6V | 07:58:20 | 02:08:01 | 00:00:00 | |
| BIOWL1-15 | 2026-09-04 14:27:05 | 53.92134 | 10.29173 | 89° | 214km/h | 9583m | -4.8m/s | -37.6°C | 66.4% | 291.4hPa | 2.5V | 07:58:51 | 02:08:04 | 00:00:00 | |
| DL1XH-west | 2026-09-04 14:27:03 | 53.92130 | 10.28987 | 87° | 219km/h | 9592m | -5.1m/s | -37.7°C | 66.4% | 291.1hPa | 2.6V | 07:58:51 | 02:08:02 | 00:00:00 | |
| SMARD9-10 | 2026-09-04 14:27:01 | 53.92127 | 10.28894 | 87° | 217km/h | 9597m | -4.8m/s | -37.7°C | 60.9% | 290.8hPa | 2.6V | 00:00:00 | 00:00:00 | 00:00:00 | |
| DL1XH1-15 | 2026-09-04 14:27:00 | 53.92095 | 10.28270 | 86° | 201km/h | 9631m | -4.9m/s | -38°C | 68.3% | 289.4hPa | 2.6V | 07:58:27 | 02:07:54 | 00:00:00 | |
| DO2SHX-10 | 2026-09-04 14:27:00 | 53.92118 | 10.28709 | 85° | 210km/h | 9606m | -4.6m/s | -37.8°C | 69.8% | 290.4hPa | 2.5V | 07:58:00 | 02:07:59 | 00:00:00 | |
| DL1XH-15 | 2026-09-04 14:26:59 | 53.92093 | 10.28185 | 87° | 199km/h | 9636m | -4.8m/s | -38.1°C | 67.9% | 289.2hPa | 2.5V | 07:58:28 | 02:07:53 | 00:00:00 | |
| AA1-15 | 2026-09-04 14:26:58 | 53.92108 | 10.28530 | 84° | 206km/h | 9616m | -5.2m/s | -37.9°C | 65.4% | 290hPa | 2.5V | 07:58:51 | 02:07:57 | 00:00:00 | |
| BIOWL1-15 | 2026-09-04 14:26:54 | 53.92093 | 10.28185 | 87° | 199km/h | 9636m | -4.8m/s | -38.1°C | 63.7% | 289.2hPa | 2.5V | 07:58:51 | 02:07:53 | 00:00:00 | |
| DL1XH-west | 2026-09-04 14:26:52 | 53.92090 | 10.28012 | 90° | 204km/h | 9646m | -5.1m/s | -38.2°C | 61.8% | 288.8hPa | 2.5V | 07:58:51 | 02:07:51 | 00:00:00 | |
| DO2SHX-10 | 2026-09-04 14:26:51 | 53.92090 | 10.27923 | 90° | 212km/h | 9651m | -5.1m/s | -38.1°C | 64.7% | 288.6hPa | 2.6V | 00:00:00 | 02:07:50 | 00:00:00 | |
| DL1XH1-15 | 2026-09-04 14:26:50 | 53.92081 | 10.27372 | 85° | 214km/h | 9681m | -4.9m/s | -38.4°C | 60.4% | 287.3hPa | 2.6V | 07:58:37 | 02:07:44 | 00:00:00 | |
| DK1YY | 2026-09-04 14:26:50 | 53.92089 | 10.27741 | 89° | 214km/h | 9661m | -5.2m/s | -38.2°C | 53.7% | 288.1hPa | 2.5V | 00:00:00 | 00:00:00 | 00:00:00 | |
| DL1XH-15 | 2026-09-04 14:26:49 | 53.92076 | 10.27281 | 84° | 212km/h | 9686m | -5m/s | -38.4°C | 60.4% | 287.1hPa | 2.5V | 07:58:38 | 02:07:43 | 00:00:00 | |
| AA1-15 | 2026-09-04 14:26:47 | 53.92087 | 10.27557 | 88° | 215km/h | 9671m | -5.5m/s | -38.3°C | 57.8% | 287.7hPa | 2.5V | 07:58:51 | 02:07:46 | 00:00:00 | |
| BIOWL1-15 | 2026-09-04 14:26:44 | 53.92077 | 10.27281 | 85° | 212km/h | 9686m | -5m/s | -38.4°C | 57.4% | 287.1hPa | 2.5V | 07:58:51 | 02:07:43 | 00:00:00 | |
| DL1XH-west | 2026-09-04 14:26:42 | 53.92067 | 10.27104 | 85° | 204km/h | 9697m | -5.2m/s | -38.5°C | 57.5% | 286.7hPa | 2.6V | 07:58:51 | 02:07:41 | 00:00:00 | |
| DO2SHX-10 | 2026-09-04 14:26:42 | 53.92067 | 10.27104 | 86° | 203km/h | 9697m | -5.2m/s | -38.5°C | 60.4% | 286.7hPa | 2.5V | 00:00:00 | 02:07:41 | 00:00:00 | |
| DL1XH1-15 | 2026-09-04 14:26:40 | 53.92053 | 10.26497 | 89° | 208km/h | 9732m | -5.6m/s | -38.8°C | 62.2% | 285.3hPa | 2.5V | 07:58:47 | 02:07:34 | 00:00:00 | |
| DL1XH-15 | 2026-09-04 14:26:39 | 53.92052 | 10.26407 | 89° | 214km/h | 9738m | -5.5m/s | -38.9°C | 62.5% | 285.1hPa | 2.5V | 07:58:48 | 02:07:33 | 00:00:00 | |
| AA1-15 | 2026-09-04 14:26:37 | 53.92054 | 10.26673 | 89° | 201km/h | 9722m | -4.9m/s | -38.7°C | 58.3% | 285.7hPa | 2.6V | 07:58:51 | 02:07:36 | 00:00:00 | |
| DF8AY | 2026-09-04 14:26:36 | 53.92053 | 10.26586 | 89° | 204km/h | 9727m | -5.4m/s | -38.8°C | 58.8% | 285.5hPa | 2.6V | 07:58:51 | 02:07:35 | 00:00:00 | |
| BIOWL1-15 | 2026-09-04 14:26:35 | 53.92051 | 10.26314 | 89° | 217km/h | 9743m | -5.1m/s | -38.9°C | 59.7% | 284.9hPa | 2.5V | 07:58:51 | 02:07:32 | 00:00:00 | |
| DL1XH-west | 2026-09-04 14:26:32 | 53.92049 | 10.26221 | 87° | 219km/h | 9748m | -4.6m/s | -39°C | 60.4% | 284.7hPa | 2.6V | 07:58:51 | 02:07:31 | 00:00:00 | |
| DL1XH1-15 | 2026-09-04 14:26:30 | 53.92020 | 10.25594 | 86° | 201km/h | 9784m | -5.3m/s | -39.4°C | 68.9% | 283.2hPa | 2.6V | 07:58:57 | 02:07:24 | 00:00:00 | |
| DO2SHX-10 | 2026-09-04 14:26:30 | 53.92042 | 10.26036 | 86° | 212km/h | 9758m | -5.4m/s | -39.1°C | 65.1% | 284.2hPa | 2.6V | 00:00:00 | 02:07:29 | 00:00:00 | |
| DL1XH-15 | 2026-09-04 14:26:29 | 53.92019 | 10.25508 | 88° | 201km/h | 9789m | -5m/s | -39.4°C | 69.2% | 282.9hPa | 2.6V | 07:58:58 | 02:07:23 | 00:00:00 | |
| GOEST3-10 | 2026-09-04 14:26:29 | 53.92038 | 10.25944 | 86° | 206km/h | 9764m | -5.6m/s | -39.1°C | 65.9% | 284.0hPa | 2.5V | 00:00:00 | 00:00:00 | 00:00:00 | |
| DM0DOS-11 | 2026-09-04 14:26:27 | 53.92017 | 10.25334 | 89° | 204km/h | 9799m | -4.8m/s | -39.5°C | 69.3% | 282.5hPa | 2.5V | 07:59:00 | 02:07:21 | 00:00:00 | |
| AA1-15 | 2026-09-04 14:26:26 | 53.92024 | 10.25679 | 86° | 201km/h | 9779m | -5.2m/s | -39.3°C | 65.4% | 283.4hPa | 2.5V | 07:59:42 | 02:07:25 | 00:00:00 | |
| DF8AY | 2026-09-04 14:26:25 | 53.92021 | 10.25594 | 87° | 201km/h | 9784m | -5.3m/s | -39.4°C | 65.2% | 283.2hPa | 2.6V | 07:59:42 | 02:07:24 | 00:00:00 | |
| BIOWL1-15 | 2026-09-04 14:26:25 | 53.92017 | 10.25422 | 89° | 203km/h | 9794m | -5.2m/s | -39.4°C | 65.3% | 282.7hPa | 2.6V | 07:59:42 | 02:07:22 | 00:00:00 | |
| DL1XH-west | 2026-09-04 14:26:21 | 53.92016 | 10.25246 | 90° | 208km/h | 9804m | -5m/s | -39.5°C | 65.3% | 282.3hPa | 2.5V | 07:59:42 | 02:07:20 | 00:00:00 | |
| DO2SHX-10 | 2026-09-04 14:26:21 | 53.92016 | 10.25246 | 90° | 210km/h | 9804m | -4.9m/s | -39.5°C | 69.4% | 282.2hPa | 2.5V | 00:00:00 | 02:07:20 | 00:00:00 | |
| DL1XH-15 | 2026-09-04 14:26:19 | 53.92009 | 10.24602 | 86° | 217km/h | 9841m | -5.4m/s | -39.9°C | 69.9% | 280.8hPa | 2.5V | 07:59:08 | 02:07:13 | 00:00:00 | |
| DK1YY | 2026-09-04 14:26:19 | 53.92016 | 10.24975 | 89° | 214km/h | 9819m | -5.5m/s | -39.7°C | 60.0% | 281.7hPa | 2.5V | 00:00:00 | 00:00:00 | 00:00:00 | |
| DO2SHX-10 | 2026-09-04 14:26:18 | 53.92016 | 10.24975 | 90° | 217km/h | 9820m | -5.5m/s | -39.6°C | 69.6% | 281.7hPa | 2.5V | 00:00:00 | 02:07:17 | 00:00:00 | |
| DM0DOS-11 | 2026-09-04 14:26:17 | 53.92001 | 10.24417 | 85° | 214km/h | 9851m | -5.8m/s | -40°C | 70.2% | 280.4hPa | 2.5V | 07:59:10 | 02:07:11 | 00:00:00 | |
| AA1-15 | 2026-09-04 14:26:16 | 53.92014 | 10.24790 | 88° | 219km/h | 9830m | -5.3m/s | -39.8°C | 65.6% | 281.2hPa | 2.6V | 07:59:42 | 02:07:15 | 00:00:00 | |
| DF8AY | 2026-09-04 14:26:14 | 53.92009 | 10.24602 | 86° | 217km/h | 9841m | -5.4m/s | -39.9°C | 65.6% | 280.8hPa | 2.5V | 07:59:42 | 02:07:13 | 00:00:00 | |
| BIOWL1-15 | 2026-09-04 14:26:14 | 53.92001 | 10.24417 | 85° | 214km/h | 9851m | -5.8m/s | -40°C | 65.6% | 280.4hPa | 2.5V | 07:59:42 | 02:07:11 | 00:00:00 | |
| GOEST3-10 | 2026-09-04 14:26:14 | 53.92009 | 10.24602 | 87° | 214km/h | 9841m | -5.4m/s | -39.8°C | 69.9% | 280.8hPa | 2.5V | 00:00:00 | 02:07:13 | 00:00:00 | |
| DJ2DS-15 | 2026-09-04 14:26:13 | 53.92005 | 10.24509 | 86° | 212km/h | 9846m | -4.8m/s | -39.9°C | 70.0% | 280.5hPa | 2.5V | 07:59:00 | 02:07:12 | 00:00:00 | |
| DO2SHX-10 | 2026-09-04 14:26:12 | 53.92001 | 10.24417 | 86° | 212km/h | 9852m | -5.7m/s | -39.9°C | 70.2% | 280.3hPa | 2.5V | 07:59:00 | 02:07:11 | 00:00:00 | |
| DL1LOL-11 | 2026-09-04 14:26:11 | 53.92001 | 10.24417 | 86° | 214km/h | 9852m | -5.8m/s | -40.0°C | 60.6% | 280.4hPa | 2.5V | 00:00:00 | 00:00:00 | 00:00:00 | |
| DL1XH1-15 | 2026-09-04 14:26:10 | 53.91980 | 10.23790 | 89° | 214km/h | 9887m | -5m/s | -40.3°C | 71.7% | 278.9hPa | 2.5V | 07:59:17 | 02:07:04 | 00:00:00 | |
| DL1XH-west | 2026-09-04 14:26:10 | 53.91992 | 10.24236 | 85° | 210km/h | 9862m | -4.7m/s | -40.1°C | 65.8% | 280hPa | 2.6V | 07:59:42 | 02:07:09 | 00:00:00 | |
| DO2SHX-10 | 2026-09-04 14:26:09 | 53.91988 | 10.24147 | 86° | 208km/h | 9867m | -5.5m/s | -40.1°C | 71.1% | 279.7hPa | 2.6V | 00:00:00 | 02:07:08 | 00:00:00 | |
| EDDB2-12 | 2026-09-04 14:26:08 | 53.91985 | 10.24058 | 86° | 206km/h | 9872m | -4.9m/s | -40.1°C | 61.4% | 279.5hPa | 2.6V | 00:00:00 | 00:00:00 | 00:00:00 | |
| DM0DOS-11 | 2026-09-04 14:26:07 | 53.91976 | 10.23513 | 87° | 217km/h | 9902m | -5.3m/s | -40.4°C | 72.3% | 278.4hPa | 2.6V | 07:59:20 | 02:07:01 | 00:00:00 | |
| AA1-15 | 2026-09-04 14:26:05 | 53.91980 | 10.23790 | 89° | 214km/h | 9887m | -5m/s | -40.3°C | 66.5% | 278.9hPa | 2.5V | 07:59:42 | 02:07:04 | 00:00:00 | |
| DF8AY | 2026-09-04 14:26:04 | 53.91979 | 10.23698 | 89° | 215km/h | 9892m | -5.1m/s | -40.4°C | 66.7% | 278.7hPa | 2.6V | 07:59:42 | 02:07:03 | 00:00:00 | |
| BIOWL1-15 | 2026-09-04 14:26:03 | 53.91974 | 10.23420 | 87° | 215km/h | 9907m | -4.9m/s | -40.5°C | 67.2% | 278.1hPa | 2.5V | 07:59:42 | 02:07:00 | 00:00:00 | |
| DO2SHX-10 | 2026-09-04 14:26:03 | 53.91978 | 10.23606 | 89° | 217km/h | 9897m | -4.8m/s | -40.3°C | 71.9% | 278.5hPa | 2.6V | 00:00:00 | 02:07:02 | 00:00:00 | |
| HTAHTA | 2026-09-04 14:26:02 | 53.91964 | 10.23148 | 86° | 206km/h | 9922m | -5.1m/s | -40.6°C | 62.9% | 277.4hPa | 2.6V | 00:00:00 | 00:00:00 | 00:00:00 | |
| DL1XH1-15 | 2026-09-04 14:26:00 | 53.91954 | 10.22881 | 86° | 208km/h | 9938m | -5m/s | -40.8°C | 73.5% | 276.9hPa | 2.6V | 07:59:27 | 02:06:54 | 00:00:00 | |
| DL1XH-west | 2026-09-04 14:25:59 | 53.91968 | 10.23238 | 86° | 210km/h | 9917m | -5.2m/s | -40.6°C | 67.6% | 277.7hPa | 2.5V | 07:59:42 | 02:06:58 | 00:00:00 | |
| DM0DOS-11 | 2026-09-04 14:25:57 | 53.91945 | 10.22615 | 86° | 206km/h | 9952m | -5.3m/s | -40.9°C | 73.6% | 276.3hPa | 2.5V | 07:59:30 | 02:06:51 | 00:00:00 | |
| AA1-15 | 2026-09-04 14:25:55 | 53.91954 | 10.22881 | 86° | 208km/h | 9938m | -5m/s | -40.8°C | 68.2% | 276.9hPa | 2.6V | 07:59:42 | 02:06:54 | 00:00:00 | |
| DF8AY | 2026-09-04 14:25:54 | 53.91951 | 10.22792 | 87° | 208km/h | 9943m | -4.5m/s | -40.8°C | 68.3% | 276.6hPa | 2.5V | 07:59:42 | 02:06:53 | 00:00:00 | |
| BIOWL1-15 | 2026-09-04 14:25:53 | 53.91942 | 10.22527 | 87° | 206km/h | 9958m | -5m/s | -41°C | 68.6% | 276.1hPa | 2.6V | 07:59:42 | 02:06:50 | 00:00:00 | |
| DJ2DS-15 | 2026-09-04 14:25:53 | 53.91948 | 10.22703 | 87° | 210km/h | 9947m | -4.7m/s | -40.8°C | 73.5% | 276.4hPa | 2.6V | 00:00:00 | 02:06:52 | 00:00:00 | |
| DO2SHX-10 | 2026-09-04 14:25:51 | 53.91942 | 10.22527 | 87° | 206km/h | 9958m | -5.0m/s | -40.9°C | 73.8% | 276.0hPa | 2.6V | 00:00:00 | 02:06:50 | 00:00:00 | |
| DL1XH1-15 | 2026-09-04 14:25:50 | 53.91933 | 10.21983 | 88° | 221km/h | 9989m | -5.4m/s | -41.2°C | 75.7% | 274.8hPa | 2.6V | 07:59:37 | 02:06:44 | 00:00:00 | |
| DL1XH-15 | 2026-09-04 14:25:49 | 53.91931 | 10.21888 | 87° | 223km/h | 9994m | -5.2m/s | -41.3°C | 75.6% | 274.6hPa | 2.5V | 07:59:38 | 02:06:43 | 00:00:00 | |
| DL1XH-west | 2026-09-04 14:25:48 | 53.91936 | 10.22260 | 89° | 212km/h | 9972m | -4.9m/s | -41.1°C | 69.4% | 275.4hPa | 2.5V | 07:59:42 | 02:06:47 | 00:00:00 | |
| DK1YY | 2026-09-04 14:25:48 | 53.91935 | 10.22169 | 89° | 212km/h | 9978m | -5.5m/s | -41.2°C | 64.7% | 275.2hPa | 2.5V | 00:00:00 | 00:00:00 | 00:00:00 | |
| DM0DOS-11 | 2026-09-04 14:25:47 | 53.91923 | 10.21699 | 85° | 217km/h | 10005m | -4.8m/s | -41.4°C | 76% | 274.2hPa | 2.5V | 07:59:40 | 02:06:41 | 00:00:00 | |
| AA1-15 | 2026-09-04 14:25:45 | 53.91933 | 10.21983 | 89° | 223km/h | 9989m | -5.4m/s | -41.3°C | 69.9% | 274.8hPa | 2.6V | 07:59:42 | 02:06:44 | 00:00:00 | |
| DF8AY | 2026-09-04 14:25:43 | 53.91927 | 10.21793 | 86° | 221km/h | 10000m | -5.4m/s | -41.4°C | 70% | 274.4hPa | 2.5V | 07:59:42 | 02:06:42 | 00:00:00 | |
| DO2SHX-10 | 2026-09-04 14:25:42 | 53.91923 | 10.21699 | 86° | 212km/h | 10005m | -4.8m/s | -41.4°C | 76.0% | 274.1hPa | 2.5V | 00:00:00 | 02:06:41 | 00:00:00 | |
| DC4HF-4 | 2026-09-04 14:25:41 | 53.91918 | 10.21608 | 84° | 212km/h | 10010m | -5.1m/s | -41.5°C | 65.6% | 273.9hPa | 2.5V | 00:00:00 | 00:00:00 | 00:00:00 | |
| DL1XH1-15 | 2026-09-04 14:25:40 | 53.91898 | 10.21080 | 88° | 208km/h | 10041m | -6.2m/s | -41.7°C | 77.7% | 272.6hPa | 2.5V | 07:59:47 | 02:06:34 | 00:00:00 | |
| BIOWL1-15 | 2026-09-04 14:25:40 | 53.91914 | 10.21518 | 85° | 208km/h | 10015m | -5.8m/s | -41.5°C | 71% | 273.7hPa | 2.6V | 07:59:42 | 02:06:39 | 00:00:00 | |
| DL1XH-15 | 2026-09-04 14:25:39 | 53.91897 | 10.20991 | 88° | 212km/h | 10047m | -5.3m/s | -41.8°C | 77.9% | 272.4hPa | 2.5V | 07:59:48 | 02:06:33 | 00:00:00 | |
| DL1XH-west | 2026-09-04 14:25:38 | 53.91905 | 10.21343 | 86° | 203km/h | 10026m | -5.1m/s | -41.6°C | 71.2% | 273.3hPa | 2.5V | 08:00:33 | 02:06:37 | 00:00:00 | |
| AA1-15 | 2026-09-04 14:25:34 | 53.91897 | 10.20991 | 89° | 212km/h | 10047m | -5.3m/s | -41.8°C | 71.8% | 272.4hPa | 2.5V | 08:00:33 | 02:06:33 | 00:00:00 | |
| DF8AY | 2026-09-04 14:25:33 | 53.91896 | 10.20899 | 89° | 215km/h | 10053m | -5.2m/s | -41.8°C | 72.1% | 272.2hPa | 2.5V | 08:00:33 | 02:06:32 | 00:00:00 | |
| BIOWL1-15 | 2026-09-04 14:25:30 | 53.91889 | 10.20618 | 86° | 219km/h | 10069m | -5.2m/s | -42°C | 72.2% | 271.5hPa | 2.6V | 08:00:33 | 02:06:29 | 00:00:00 | |
| DO2SHX-10 | 2026-09-04 14:25:30 | 53.91888 | 10.20618 | 86° | 215km/h | 10070m | -5.2m/s | -42.0°C | 76.5% | 271.5hPa | 2.6V | 00:00:00 | 02:06:29 | 00:00:00 | |
| DL1XH-15 | 2026-09-04 14:25:29 | 53.91862 | 10.20079 | 87° | 206km/h | 10102m | -5.5m/s | -42.3°C | 75.3% | 270.3hPa | 2.6V | 07:59:58 | 02:06:23 | 00:00:00 | |
| DL1XH-west | 2026-09-04 14:25:27 | 53.91874 | 10.20344 | 85° | 210km/h | 10086m | -5.3m/s | -42.2°C | 71.5% | 270.9hPa | 2.5V | 08:00:33 | 02:06:26 | 00:00:00 | |
| AA1-15 | 2026-09-04 14:25:23 | 53.91861 | 10.19990 | 88° | 206km/h | 10107m | -5m/s | -42.3°C | 70.9% | 270.1hPa | 2.5V | 08:00:33 | 02:06:22 | 00:00:00 | |
| DO2SHX-10 | 2026-09-04 14:25:21 | 53.91858 | 10.19812 | 90° | 210km/h | 10118m | -4.8m/s | -42.4°C | 75.2% | 269.6hPa | 2.6V | 00:00:00 | 02:06:20 | 00:00:00 | |
| DL1XH1-15 | 2026-09-04 14:25:20 | 53.91848 | 10.19271 | 87° | 212km/h | 10149m | -5m/s | -42.7°C | 76.4% | 268.4hPa | 2.6V | 08:00:07 | 02:06:14 | 00:00:00 | |
| BIOWL1-15 | 2026-09-04 14:25:20 | 53.91857 | 10.19723 | 89° | 210km/h | 10123m | -5.2m/s | -42.5°C | 70.3% | 269.4hPa | 2.6V | 08:00:33 | 02:06:19 | 00:00:00 | |
| DL1XH-west | 2026-09-04 14:25:16 | 53.91851 | 10.19362 | 88° | 212km/h | 10143m | -5.4m/s | -42.7°C | 70.4% | 268.6hPa | 2.5V | 08:00:33 | 02:06:15 | 00:00:00 | |
| AA1-15 | 2026-09-04 14:25:12 | 53.91840 | 10.19000 | 87° | 210km/h | 10164m | -5.3m/s | -42.9°C | 71.2% | 267.8hPa | 2.5V | 08:00:33 | 02:06:11 | 00:00:00 | |
| DO2SHX-10 | 2026-09-04 14:25:12 | 53.91840 | 10.19000 | 88° | 210km/h | 10164m | -5.2m/s | -42.8°C | 76.8% | 267.8hPa | 2.6V | 00:00:00 | 02:06:11 | 00:00:00 | |
| SONDE2-11 | 2026-09-04 14:25:11 | 53.91838 | 10.18911 | 88° | 208km/h | 10169m | -4.7m/s | -42.9°C | 65.5% | 267.6hPa | 2.6V | 00:00:00 | 00:00:00 | 00:00:00 | |
| DL1XH1-15 | 2026-09-04 14:25:10 | 53.91826 | 10.18365 | 86° | 210km/h | 10200m | -5.6m/s | -43.2°C | 78.8% | 266.3hPa | 2.6V | 08:00:17 | 02:06:04 | 00:00:00 | |
| DL1XH-15 | 2026-09-04 14:25:10 | 53.91823 | 10.18276 | 86° | 208km/h | 10205m | -5.2m/s | -43.2°C | 79.1% | 266.1hPa | 2.6V | 08:00:18 | 02:06:03 | 00:00:00 | |
| BIOWL1-15 | 2026-09-04 14:25:09 | 53.91835 | 10.18730 | 89° | 214km/h | 10178m | -4.9m/s | -43°C | 72% | 267.1hPa | 2.5V | 08:00:33 | 02:06:08 | 00:00:00 | |
| DO2SHX-10 | 2026-09-04 14:25:09 | 53.91835 | 10.18730 | 89° | 214km/h | 10178m | -4.8m/s | -42.9°C | 77.5% | 267.1hPa | 2.5V | 00:00:00 | 02:06:08 | 00:00:00 | |
| DK7RCA | 2026-09-04 14:25:08 | 53.91835 | 10.18730 | 90° | 214km/h | 10178m | -4.9m/s | -43.0°C | 66.1% | 267.1hPa | 2.5V | 08:00:00 | 00:00:00 | 00:00:00 | |
| DM0DOS-11 | 2026-09-04 14:25:07 | 53.91817 | 10.18097 | 86° | 208km/h | 10216m | -5.3m/s | -43.3°C | 79.5% | 265.7hPa | 2.5V | 08:00:20 | 02:06:01 | 00:00:00 | |
| DL1XH-west | 2026-09-04 14:25:06 | 53.91829 | 10.18455 | 87° | 212km/h | 10194m | -5.4m/s | -43.2°C | 72.9% | 266.5hPa | 2.5V | 08:00:33 | 02:06:05 | 00:00:00 | |
| AA1-15 | 2026-09-04 14:25:02 | 53.91817 | 10.18097 | 86° | 208km/h | 10216m | -5.3m/s | -43.3°C | 73.9% | 265.7hPa | 2.5V | 08:00:33 | 02:06:01 | 00:00:00 | |
| DF8AY | 2026-09-04 14:25:01 | 53.91813 | 10.18008 | 86° | 208km/h | 10221m | -5.4m/s | -43.4°C | 74% | 265.5hPa | 2.5V | 08:00:33 | 02:06:00 | 00:00:00 | |
| DL1XH1-15 | 2026-09-04 14:25:00 | 53.91802 | 10.17470 | 89° | 215km/h | 10254m | -5.5m/s | -43.7°C | 80% | 264.2hPa | 2.5V | 08:00:27 | 02:05:54 | 00:00:00 | |
| HTAHTA | 2026-09-04 14:25:00 | 53.91807 | 10.17830 | 87° | 206km/h | 10232m | -5.8m/s | -43.5°C | 67.5% | 265.0hPa | 2.5V | 00:00:00 | 00:00:00 | 00:00:00 | |
| DL1XH-15 | 2026-09-04 14:24:59 | 53.91801 | 10.17377 | 89° | 217km/h | 10260m | -5.4m/s | -43.8°C | 80.2% | 263.9hPa | 2.5V | 08:00:28 | 02:05:53 | 00:00:00 | |
| BIOWL1-15 | 2026-09-04 14:24:58 | 53.91804 | 10.17741 | 88° | 206km/h | 10238m | -5.8m/s | -43.6°C | 74.3% | 264.8hPa | 2.6V | 08:00:33 | 02:05:57 | 00:00:00 | |
| DM0DOS-11 | 2026-09-04 14:24:57 | 53.91799 | 10.17190 | 87° | 221km/h | 10271m | -5.2m/s | -43.8°C | 80% | 263.5hPa | 2.6V | 08:00:30 | 02:05:51 | 00:00:00 | |
| DL1XH-west | 2026-09-04 14:24:56 | 53.91803 | 10.17562 | 90° | 214km/h | 10249m | -5.2m/s | -43.6°C | 74.6% | 264.4hPa | 2.5V | 08:00:33 | 02:05:55 | 00:00:00 | |
| AA1-15 | 2026-09-04 14:24:51 | 53.91796 | 10.17095 | 87° | 221km/h | 10276m | -5.9m/s | -43.9°C | 74.7% | 263.3hPa | 2.6V | 08:00:33 | 02:05:50 | 00:00:00 | |
| BIOWL1-15 | 2026-09-04 14:24:51 | 53.91779 | 10.16729 | 85° | 206km/h | 10298m | -5.3m/s | -44.1°C | 74.5% | 262.5hPa | 2.6V | 08:01:24 | 02:05:46 | 00:00:00 | |
| DF8AY | 2026-09-04 14:24:50 | 53.91793 | 10.17001 | 86° | 217km/h | 10282m | -5.3m/s | -43.9°C | 74.6% | 263.1hPa | 2.5V | 08:00:33 | 02:05:49 | 00:00:00 | |
| DL1XH-15 | 2026-09-04 14:24:49 | 53.91768 | 10.16467 | 87° | 203km/h | 10314m | -5.8m/s | -44.2°C | 82.6% | 261.9hPa | 2.5V | 08:00:38 | 02:05:43 | 00:00:00 | |
| DL1XH-west | 2026-09-04 14:24:45 | 53.91771 | 10.16554 | 86° | 201km/h | 10308m | -5.7m/s | -44.2°C | 75.1% | 262.1hPa | 2.5V | 08:01:24 | 02:05:44 | 00:00:00 | |
| AA1-15 | 2026-09-04 14:24:41 | 53.91761 | 10.16200 | 88° | 215km/h | 10330m | -5.3m/s | -44.4°C | 76.6% | 261.3hPa | 2.6V | 08:01:24 | 02:05:40 | 00:00:00 | |
| DF8AY | 2026-09-04 14:24:40 | 53.91759 | 10.16108 | 87° | 217km/h | 10335m | -5.5m/s | -44.4°C | 76.9% | 261hPa | 2.6V | 08:03:57 | 02:05:39 | 00:00:00 | |
| DL1XH-15 | 2026-09-04 14:24:39 | 53.91730 | 10.15553 | 83° | 210km/h | 10367m | -5.5m/s | -44.8°C | 80.6% | 259.8hPa | 2.6V | 08:00:48 | 02:05:33 | 00:00:00 | |
| DO2SHX-10 | 2026-09-04 14:24:39 | 53.91756 | 10.16014 | 87° | 219km/h | 10341m | -5.7m/s | -44.4°C | 82.7% | 260.8hPa | 2.5V | 00:00:00 | 02:05:38 | 00:00:00 | |
| DF5WG-10 | 2026-09-04 14:24:38 | 53.91751 | 10.15920 | 86° | 212km/h | 10346m | -5.4m/s | -44.5°C | 82.1% | 260.6hPa | 2.5V | 00:00:00 | 02:05:37 | 00:00:00 | |
| DM0DOS-11 | 2026-09-04 14:24:37 | 53.91720 | 10.15376 | 85° | 206km/h | 10378m | -5.4m/s | -44.8°C | 80.5% | 259.4hPa | 2.5V | 08:00:50 | 02:05:31 | 00:00:00 | |
| BIOWL1-15 | 2026-09-04 14:24:37 | 53.91747 | 10.15827 | 85° | 219km/h | 10352m | -5.3m/s | -44.6°C | 76.9% | 260.4hPa | 2.5V | 08:01:24 | 02:05:36 | 00:00:00 | |
| DL1XH-west | 2026-09-04 14:24:34 | 53.91730 | 10.15553 | 84° | 210km/h | 10367m | -5.5m/s | -44.8°C | 75.7% | 259.8hPa | 2.6V | 08:01:24 | 02:05:33 | 00:00:00 | |
| DD8BA-10 | 2026-09-04 14:24:34 | 53.91730 | 10.15553 | 84° | 210km/h | 10367m | -5.4m/s | -44.7°C | 80.6% | 259.8hPa | 2.6V | 00:00:00 | 00:00:00 | 00:00:00 | |
| DJ2DS-15 | 2026-09-04 14:24:33 | 53.91725 | 10.15464 | 85° | 212km/h | 10373m | -5.6m/s | -44.7°C | 80.8% | 259.5hPa | 2.5V | 00:00:00 | 02:05:32 | 00:00:00 | |
| DL1XH1-15 | 2026-09-04 14:24:30 | 53.91695 | 10.14747 | 85° | 210km/h | 10416m | -5.8m/s | -45.1°C | 80.6% | 257.9hPa | 2.5V | 08:00:57 | 02:05:24 | 00:00:00 | |
| AA1-15 | 2026-09-04 14:24:30 | 53.91713 | 10.15199 | 87° | 208km/h | 10389m | -5.3m/s | -44.9°C | 75.4% | 259hPa | 2.5V | 08:01:24 | 02:05:29 | 00:00:00 | |
| DF8AY | 2026-09-04 14:24:29 | 53.91709 | 10.15110 | 87° | 212km/h | 10395m | -5.4m/s | -45°C | 75.4% | 258.8hPa | 2.6V | 08:03:57 | 02:05:28 | 00:00:00 | |
| GOEST3-10 | 2026-09-04 14:24:29 | 53.91709 | 10.15110 | 87° | 212km/h | 10395m | -5.4m/s | -44.9°C | 80.6% | 258.7hPa | 2.6V | 00:00:00 | 00:00:00 | 00:00:00 | |
| BIOWL7-15 | 2026-09-04 14:24:28 | 53.91710 | 10.15110 | 88° | 212km/h | 10395m | -5.4m/s | -44.9°C | 68.2% | 258.8hPa | 2.6V | 08:01:00 | 00:00:00 | 00:00:00 | |
| DM0DOS-11 | 2026-09-04 14:24:27 | 53.91684 | 10.14477 | 86° | 212km/h | 10433m | -5.8m/s | -45.2°C | 80.9% | 257.3hPa | 2.6V | 08:01:00 | 02:05:21 | 00:00:00 | |
| BIOWL1-15 | 2026-09-04 14:24:26 | 53.91699 | 10.14837 | 86° | 212km/h | 10411m | -5.3m/s | -45.1°C | 75.4% | 258.1hPa | 2.5V | 08:01:24 | 02:05:25 | 00:00:00 | |
| DL1XH-west | 2026-09-04 14:24:23 | 53.91687 | 10.14568 | 86° | 210km/h | 10427m | -5.5m/s | -45.3°C | 75.8% | 257.5hPa | 2.6V | 08:01:24 | 02:05:22 | 00:00:00 | |
| DL4BBY-15 | 2026-09-04 14:24:23 | 53.91687 | 10.14568 | 87° | 214km/h | 10427m | -5.5m/s | -45.2°C | 0% | 0hPa | 2.5V | 00:00:00 | 00:00:00 | 00:00:00 | |
| DO2SHX-10 | 2026-09-04 14:24:21 | 53.91680 | 10.14386 | 86° | 214km/h | 10438m | -5.3m/s | -45.3°C | 81.1% | 257.0hPa | 2.5V | 00:00:00 | 02:05:20 | 00:00:00 | |
| DL1XH1-15 | 2026-09-04 14:24:20 | 53.91653 | 10.13836 | 84° | 214km/h | 10472m | -5.4m/s | -45.6°C | 80.6% | 255.7hPa | 2.5V | 08:01:07 | 02:05:14 | 00:00:00 | |
| AA1-15 | 2026-09-04 14:24:19 | 53.91672 | 10.14203 | 86° | 215km/h | 10449m | -5.9m/s | -45.5°C | 75.9% | 256.7hPa | 2.5V | 08:01:24 | 02:05:18 | 00:00:00 | |
| DO2SHX-10 | 2026-09-04 14:24:18 | 53.91668 | 10.14112 | 86° | 215km/h | 10455m | -5.5m/s | -45.4°C | 81.0% | 256.4hPa | 2.6V | 00:00:00 | 02:05:17 | 00:00:00 | |
| DM0DOS-11 | 2026-09-04 14:24:17 | 53.91639 | 10.13562 | 84° | 214km/h | 10488m | -5.8m/s | -45.8°C | 79.5% | 255.1hPa | 2.6V | 08:01:10 | 02:05:11 | 00:00:00 | |
| BIOWL1-15 | 2026-09-04 14:24:15 | 53.91654 | 10.13835 | 85° | 214km/h | 10472m | -5.4m/s | -45.6°C | 75.3% | 255.7hPa | 2.5V | 08:01:24 | 02:05:14 | 00:00:00 | |
| DL1XH-west | 2026-09-04 14:24:12 | 53.91639 | 10.13563 | 85° | 214km/h | 10488m | -5.8m/s | -45.8°C | 74.9% | 255.1hPa | 2.6V | 08:01:24 | 02:05:11 | 00:00:00 | |
| DF8AY | 2026-09-04 14:24:11 | 53.91634 | 10.13472 | 84° | 212km/h | 10494m | -5.6m/s | -45.8°C | 74.8% | 254.9hPa | 2.6V | 08:03:57 | 02:05:10 | 00:00:00 | |
| AA1-15 | 2026-09-04 14:24:08 | 53.91619 | 10.13206 | 86° | 204km/h | 10510m | -5.2m/s | -46°C | 74.5% | 254.3hPa | 2.5V | 08:01:24 | 02:05:07 | 00:00:00 | |
| DM0DOS-11 | 2026-09-04 14:24:07 | 53.91600 | 10.12666 | 85° | 217km/h | 10544m | -5.7m/s | -46.3°C | 81% | 252.9hPa | 2.5V | 08:01:20 | 02:05:01 | 00:00:00 | |
| BIOWL1-15 | 2026-09-04 14:24:05 | 53.91607 | 10.12850 | 87° | 214km/h | 10532m | -5.7m/s | -46.2°C | 74.7% | 253.4hPa | 2.5V | 08:01:24 | 02:05:03 | 00:00:00 | |
| DL1XH-west | 2026-09-04 14:24:02 | 53.91600 | 10.12666 | 86° | 217km/h | 10544m | -5.7m/s | -46.3°C | 74.6% | 252.9hPa | 2.5V | 08:01:24 | 02:05:01 | 00:00:00 | |
| DL1XH1-15 | 2026-09-04 14:24:00 | 53.91566 | 10.12020 | 84° | 214km/h | 10581m | -5.1m/s | -46.6°C | 80.5% | 251.5hPa | 2.6V | 08:01:27 | 02:04:54 | 00:00:00 | |
| DO2SHX-10 | 2026-09-04 14:24:00 | 53.91590 | 10.12481 | 85° | 215km/h | 10555m | -5.2m/s | -46.3°C | 80.2% | 252.5hPa | 2.6V | 00:00:00 | 02:04:59 | 00:00:00 | |
| DL1XH-15 | 2026-09-04 14:23:59 | 53.91560 | 10.11930 | 84° | 210km/h | 10587m | -5.6m/s | -46.7°C | 80.9% | 251.3hPa | 2.6V | 08:01:28 | 02:04:53 | 00:00:00 | |
| AA1-15 | 2026-09-04 14:23:58 | 53.91581 | 10.12297 | 85° | 217km/h | 10565m | -4.7m/s | -46.5°C | 74.6% | 252.2hPa | 2.5V | 08:01:24 | 02:04:57 | 00:00:00 | |
| DM0DOS-11 | 2026-09-04 14:23:57 | 53.91550 | 10.11752 | 85° | 208km/h | 10598m | -5.9m/s | -46.8°C | 82% | 250.9hPa | 2.5V | 08:01:30 | 02:04:51 | 00:00:00 | |
| BIOWL1-15 | 2026-09-04 14:23:54 | 53.91560 | 10.11930 | 84° | 210km/h | 10587m | -5.6m/s | -46.7°C | 75.8% | 251.3hPa | 2.6V | 08:02:15 | 02:04:53 | 00:00:00 | |
| DL1XH-west | 2026-09-04 14:23:51 | 53.91547 | 10.11663 | 86° | 208km/h | 10603m | -5.4m/s | -46.9°C | 76.4% | 250.7hPa | 2.5V | 08:02:15 | 02:04:50 | 00:00:00 | |
| DO2SHX-10 | 2026-09-04 14:23:51 | 53.91547 | 10.11663 | 86° | 210km/h | 10603m | -5.4m/s | -46.8°C | 82.1% | 250.6hPa | 2.5V | 00:00:00 | 02:04:50 | 00:00:00 | |
| DL1XH1-15 | 2026-09-04 14:23:50 | 53.91523 | 10.11119 | 85° | 215km/h | 10636m | -5.8m/s | -47.1°C | 83.6% | 249.4hPa | 2.5V | 08:01:37 | 02:04:44 | 00:00:00 | |
| DL1XH-15 | 2026-09-04 14:23:49 | 53.91518 | 10.11027 | 84° | 215km/h | 10641m | -5.3m/s | -47.2°C | 83.8% | 249.2hPa | 2.6V | 08:01:38 | 02:04:43 | 00:00:00 | |
| DF8AY | 2026-09-04 14:23:49 | 53.91539 | 10.11484 | 86° | 212km/h | 10614m | -5.2m/s | -47°C | 77% | 250.3hPa | 2.6V | 08:03:57 | 02:04:48 | 00:00:00 | |
| DJ2DS-15 | 2026-09-04 14:23:48 | 53.91531 | 10.11302 | 85° | 212km/h | 10625m | -5.7m/s | -47.1°C | 70.1% | 249.9hPa | 2.6V | 00:00:00 | 00:00:00 | 00:00:00 | |
| AA1-15 | 2026-09-04 14:23:48 | 53.91536 | 10.11393 | 86° | 214km/h | 10619m | -5.6m/s | -47.1°C | 77.1% | 250.1hPa | 2.6V | 08:02:15 | 02:04:47 | 00:00:00 | |
| BIOWL1-15 | 2026-09-04 14:23:43 | 53.91513 | 10.10936 | 84° | 212km/h | 10647m | -5.3m/s | -47.2°C | 77.5% | 249hPa | 2.6V | 08:02:15 | 02:04:42 | 00:00:00 | |
| DL1XH-west | 2026-09-04 14:23:41 | 53.91503 | 10.10757 | 85° | 208km/h | 10657m | -5.4m/s | -47.4°C | 77.5% | 248.6hPa | 2.5V | 08:02:15 | 02:04:40 | 00:00:00 | |
| DL1XH1-15 | 2026-09-04 14:23:40 | 53.91477 | 10.10219 | 85° | 210km/h | 10690m | -5.8m/s | -47.6°C | 83.6% | 247.4hPa | 2.5V | 08:01:47 | 02:04:34 | 00:00:00 | |
| DL1XH-15 | 2026-09-04 14:23:39 | 53.91473 | 10.10129 | 85° | 210km/h | 10695m | -5.7m/s | -47.7°C | 83.7% | 247.2hPa | 2.6V | 08:01:48 | 02:04:33 | 00:00:00 | |
| DO2SHX-10 | 2026-09-04 14:23:39 | 53.91494 | 10.10579 | 86° | 212km/h | 10669m | -5.2m/s | -47.5°C | 84.9% | 248.2hPa | 2.6V | 00:00:00 | 02:04:38 | 00:00:00 | |
| GOEST3-10 | 2026-09-04 14:23:38 | 53.91490 | 10.10489 | 86° | 212km/h | 10674m | -5.2m/s | -47.5°C | 84.4% | 248.0hPa | 2.5V | 00:00:00 | 00:00:00 | 00:00:00 | |
| DM0DOS-11 | 2026-09-04 14:23:37 | 53.91465 | 10.09948 | 85° | 214km/h | 10706m | -5.2m/s | -47.8°C | 83.2% | 246.8hPa | 2.5V | 08:01:50 | 02:04:31 | 00:00:00 | |
| AA1-15 | 2026-09-04 14:23:37 | 53.91486 | 10.10399 | 85° | 212km/h | 10679m | -5.5m/s | -47.6°C | 77.1% | 247.8hPa | 2.5V | 08:02:15 | 02:04:36 | 00:00:00 | |
| BIOWL1-15 | 2026-09-04 14:23:35 | 53.91469 | 10.10039 | 86° | 212km/h | 10701m | -5.3m/s | -47.7°C | 77% | 247hPa | 2.6V | 08:02:15 | 02:04:32 | 00:00:00 | |
| DL1XH-west | 2026-09-04 14:23:30 | 53.91457 | 10.09765 | 85° | 214km/h | 10717m | -5.4m/s | -47.9°C | 76.8% | 246.4hPa | 2.5V | 08:02:15 | 02:04:29 | 00:00:00 | |
| DO2SHX-10 | 2026-09-04 14:23:30 | 53.91456 | 10.09765 | 86° | 212km/h | 10717m | -5.4m/s | -47.8°C | 83.2% | 246.3hPa | 2.5V | 08:01:00 | 02:04:29 | 00:00:00 | |
| DL1XH-15 | 2026-09-04 14:23:29 | 53.91431 | 10.09224 | 85° | 210km/h | 10749m | -5.7m/s | -48.1°C | 81.4% | 245.2hPa | 2.5V | 08:01:58 | 02:04:23 | 00:00:00 | |
| SMARD9-15 | 2026-09-04 14:23:29 | 53.91448 | 10.09584 | 85° | 210km/h | 10727m | -5.0m/s | -48.0°C | 69.6% | 246.0hPa | 2.6V | 00:00:00 | 00:00:00 | 00:00:00 | |
| GOEST3-10 | 2026-09-04 14:23:28 | 53.91448 | 10.09584 | 86° | 210km/h | 10727m | -4.9m/s | -48.0°C | 83.4% | 245.9hPa | 2.6V | 00:00:00 | 00:00:00 | 00:00:00 | |
| DM0DOS-11 | 2026-09-04 14:23:27 | 53.91423 | 10.09047 | 86° | 206km/h | 10760m | -5.4m/s | -48.2°C | 80.6% | 244.8hPa | 2.6V | 08:02:00 | 02:04:21 | 00:00:00 | |
| AA1-15 | 2026-09-04 14:23:26 | 53.91440 | 10.09404 | 86° | 212km/h | 10738m | -5.6m/s | -48°C | 76.2% | 245.6hPa | 2.6V | 08:02:15 | 02:04:25 | 00:00:00 | |
| BIOWL1-15 | 2026-09-04 14:23:22 | 53.91423 | 10.09047 | 86° | 206km/h | 10760m | -5.4m/s | -48.2°C | 75% | 244.8hPa | 2.6V | 08:02:15 | 02:04:21 | 00:00:00 | |
| DL1XH-west | 2026-09-04 14:23:20 | 53.91417 | 10.08871 | 88° | 208km/h | 10771m | -5m/s | -48.4°C | 74.5% | 244.3hPa | 2.5V | 08:02:15 | 02:04:19 | 00:00:00 | |
| D01LWL | 2026-09-04 14:23:19 | 53.91415 | 10.08781 | 87° | 210km/h | 10776m | -5.6m/s | -48.4°C | 65.7% | 244.2hPa | 2.6V | 00:00:00 | 00:00:00 | 00:00:00 | |
| DL1XH-15 | 2026-09-04 14:23:19 | 53.91397 | 10.08330 | 84° | 208km/h | 10802m | -5.4m/s | -48.7°C | 76.4% | 243.2hPa | 2.5V | 08:02:08 | 02:04:13 | 00:00:00 | |
| DO2SHX-10 | 2026-09-04 14:23:18 | 53.91412 | 10.08691 | 88° | 212km/h | 10782m | -5.5m/s | -48.4°C | 78.7% | 243.9hPa | 2.6V | 00:00:00 | 02:04:17 | 00:00:00 | |
| DM0DOS-11 | 2026-09-04 14:23:17 | 53.91388 | 10.08153 | 85° | 206km/h | 10813m | -5.4m/s | -48.8°C | 76.1% | 242.8hPa | 2.6V | 08:02:10 | 02:04:11 | 00:00:00 | |
| AA1-15 | 2026-09-04 14:23:15 | 53.91401 | 10.08419 | 85° | 212km/h | 10797m | -4.9m/s | -48.6°C | 71.6% | 243.4hPa | 2.5V | 08:02:15 | 02:04:14 | 00:00:00 | |
| DF8AY | 2026-09-04 14:23:11 | 53.91384 | 10.08065 | 86° | 208km/h | 10819m | -5.4m/s | -48.8°C | 70.2% | 242.6hPa | 2.6V | 08:03:57 | 02:04:10 | 00:00:00 | |
| DL1XH1-15 | 2026-09-04 14:23:10 | 53.91362 | 10.07528 | 86° | 208km/h | 10851m | -5.2m/s | -49°C | 69% | 241.4hPa | 2.5V | 08:02:17 | 02:04:04 | 00:00:00 | |
| DL1XH-west | 2026-09-04 14:23:09 | 53.91378 | 10.07886 | 86° | 210km/h | 10830m | -5.2m/s | -48.9°C | 68.9% | 242.2hPa | 2.5V | 08:02:15 | 02:04:08 | 00:00:00 | |
| DO2SHX-10 | 2026-09-04 14:23:09 | 53.91378 | 10.07886 | 87° | 210km/h | 10830m | -5.2m/s | -48.9°C | 74.3% | 242.2hPa | 2.6V | 00:00:00 | 02:04:08 | 00:00:00 | |
| SONCRA | 2026-09-04 14:23:08 | 53.91374 | 10.07796 | 85° | 210km/h | 10835m | -5.4m/s | -48.9°C | 59.7% | 242.0hPa | 2.6V | 00:00:00 | 00:00:00 | 00:00:00 | |
| DM0DOS-11 | 2026-09-04 14:23:07 | 53.91354 | 10.07259 | 86° | 212km/h | 10866m | -5m/s | -49.2°C | 69.5% | 240.9hPa | 2.6V | 08:02:20 | 02:04:01 | 00:00:00 | |
| AA1-15 | 2026-09-04 14:23:04 | 53.91359 | 10.07439 | 87° | 208km/h | 10856m | -5.1m/s | -49.1°C | 64.7% | 241.3hPa | 2.5V | 08:03:06 | 02:04:03 | 00:00:00 | |
| DD8BA-10 | 2026-09-04 14:23:03 | 53.91357 | 10.07349 | 88° | 208km/h | 10862m | -5.3m/s | -49.1°C | 68.9% | 241.0hPa | 2.5V | 00:00:00 | 00:00:00 | 00:00:00 | |
| GOEST3-10 | 2026-09-04 14:23:02 | 53.91354 | 10.07259 | 87° | 210km/h | 10867m | -4.9m/s | -49.2°C | 69.5% | 240.8hPa | 2.5V | 00:00:00 | 02:04:01 | 00:00:00 | |
| DL1XH1-15 | 2026-09-04 14:23:00 | 53.91329 | 10.06637 | 86° | 208km/h | 10903m | -4.8m/s | -49.5°C | 71.5% | 239.5hPa | 2.5V | 08:02:27 | 02:03:54 | 00:00:00 | |
| DF8AY | 2026-09-04 14:23:00 | 53.91347 | 10.07078 | 86° | 210km/h | 10877m | -5.1m/s | -49.3°C | 64.9% | 240.5hPa | 2.5V | 08:03:57 | 02:03:59 | 00:00:00 | |
| DL1XH-west | 2026-09-04 14:22:59 | 53.91343 | 10.06989 | 85° | 208km/h | 10882m | -5.1m/s | -49.3°C | 65% | 240.3hPa | 2.5V | 08:03:06 | 02:03:58 | 00:00:00 | |
| SMARD9-15 | 2026-09-04 14:22:58 | 53.91335 | 10.06813 | 86° | 204km/h | 10893m | -5.1m/s | -49.4°C | 57.6% | 239.9hPa | 2.6V | 00:00:00 | 00:00:00 | 00:00:00 | |
| DM0DOS-11 | 2026-09-04 14:22:57 | 53.91320 | 10.06369 | 86° | 210km/h | 10918m | -5.6m/s | -49.6°C | 72.6% | 239hPa | 2.6V | 08:02:30 | 02:03:51 | 00:00:00 | |
| AA1-15 | 2026-09-04 14:22:53 | 53.91323 | 10.06458 | 87° | 210km/h | 10913m | -5.8m/s | -49.6°C | 66.4% | 239.2hPa | 2.5V | 08:03:06 | 02:03:52 | 00:00:00 | |
| DD8BA-10 | 2026-09-04 14:22:53 | 53.91323 | 10.06458 | 87° | 212km/h | 10913m | -5.7m/s | -49.5°C | 72.4% | 239.1hPa | 2.5V | 00:00:00 | 00:00:00 | 00:00:00 | |
| GOEST3-10 | 2026-09-04 14:22:52 | 53.91320 | 10.06369 | 87° | 210km/h | 10919m | -5.5m/s | -49.6°C | 72.6% | 238.9hPa | 2.5V | 00:00:00 | 02:03:51 | 00:00:00 | |
| DO2SHX-10 | 2026-09-04 14:22:51 | 53.91317 | 10.06279 | 87° | 210km/h | 10924m | -5.4m/s | -49.7°C | 73.5% | 238.7hPa | 2.5V | 00:00:00 | 02:03:50 | 00:00:00 | |
| DL1XH1-15 | 2026-09-04 14:22:50 | 53.91299 | 10.05736 | 85° | 212km/h | 10958m | -6m/s | -50°C | 73% | 237.5hPa | 2.5V | 08:02:37 | 02:03:44 | 00:00:00 | |
| BIOWL1-15 | 2026-09-04 14:22:50 | 53.91314 | 10.06190 | 87° | 210km/h | 10929m | -4.9m/s | -49.7°C | 67.2% | 238.6hPa | 2.5V | 08:03:06 | 02:03:49 | 00:00:00 | |
| DL1XH-west | 2026-09-04 14:22:48 | 53.91309 | 10.06009 | 87° | 214km/h | 10940m | -5.6m/s | -49.9°C | 67.5% | 238.2hPa | 2.5V | 08:03:06 | 02:03:47 | 00:00:00 | |
| DO2SHX-10 | 2026-09-04 14:22:48 | 53.91309 | 10.06009 | 88° | 214km/h | 10940m | -5.5m/s | -49.8°C | 72.9% | 238.1hPa | 2.6V | 00:00:00 | 02:03:47 | 00:00:00 | |
| DM0DOS-11 | 2026-09-04 14:22:47 | 53.91286 | 10.05465 | 84° | 208km/h | 10975m | -5.9m/s | -50.2°C | 73.1% | 236.9hPa | 2.6V | 08:02:40 | 02:03:41 | 00:00:00 | |
| DF8AY | 2026-09-04 14:22:46 | 53.91281 | 10.05377 | 85° | 206km/h | 10981m | -6.1m/s | -50.2°C | 68.2% | 236.6hPa | 2.6V | 08:03:57 | 02:03:40 | 00:00:00 | |
| AA1-15 | 2026-09-04 14:22:43 | 53.91291 | 10.05555 | 85° | 212km/h | 10969m | -6m/s | -50.1°C | 68% | 237.1hPa | 2.5V | 08:03:06 | 02:03:42 | 00:00:00 | |
| BIOWL1-15 | 2026-09-04 14:22:40 | 53.91277 | 10.05289 | 85° | 206km/h | 10987m | -5.9m/s | -50.3°C | 68.4% | 236.4hPa | 2.5V | 08:03:06 | 02:03:39 | 00:00:00 | |
| DL1XH-west | 2026-09-04 14:22:38 | 53.91269 | 10.05113 | 86° | 208km/h | 10999m | -5.9m/s | -50.3°C | 68.8% | 236.1hPa | 2.5V | 08:03:06 | 02:03:37 | 00:00:00 | |
| DM0DOS-11 | 2026-09-04 14:22:37 | 53.91250 | 10.04564 | 85° | 215km/h | 11033m | -5.6m/s | -50.6°C | 76.6% | 234.8hPa | 2.6V | 08:02:50 | 02:03:31 | 00:00:00 | |
| AA1-15 | 2026-09-04 14:22:33 | 53.91254 | 10.04656 | 86° | 217km/h | 11027m | -5.6m/s | -50.6°C | 69.9% | 235hPa | 2.5V | 08:03:06 | 02:03:32 | 00:00:00 | |
| DF8AY | 2026-09-04 14:22:30 | 53.91241 | 10.04382 | 85° | 212km/h | 11044m | -5.6m/s | -50.7°C | 70.1% | 234.4hPa | 2.5V | 08:03:57 | 02:03:29 | 00:00:00 | |
| DL1XH-west | 2026-09-04 14:22:28 | 53.91231 | 10.04203 | 85° | 208km/h | 11055m | -5.8m/s | -50.7°C | 70% | 234hPa | 2.5V | 08:03:06 | 02:03:27 | 00:00:00 | |
| AA1-15 | 2026-09-04 14:22:23 | 53.91208 | 10.03758 | 86° | 212km/h | 11084m | -5.8m/s | -51°C | 69.5% | 233hPa | 2.5V | 08:03:06 | 02:03:22 | 00:00:00 | |
| GOEST3-10 | 2026-09-04 14:22:22 | 53.91204 | 10.03667 | 86° | 215km/h | 11090m | -5.7m/s | -51.0°C | 75.2% | 232.7hPa | 2.5V | 00:00:00 | 02:03:21 | 00:00:00 | |
| DO2SHX-10 | 2026-09-04 14:22:21 | 53.91200 | 10.03576 | 86° | 215km/h | 11095m | -5.6m/s | -51.0°C | 75.3% | 232.5hPa | 2.5V | 00:00:00 | 02:03:20 | 00:00:00 | |
| DL1XH1-15 | 2026-09-04 14:22:20 | 53.91171 | 10.03025 | 84° | 212km/h | 11129m | -5.4m/s | -51.3°C | 74.1% | 231.3hPa | 2.5V | 08:03:07 | 02:03:14 | 00:00:00 | |
| BIOWL1-15 | 2026-09-04 14:22:19 | 53.91191 | 10.03393 | 86° | 215km/h | 11107m | -5.8m/s | -51.1°C | 69% | 232.1hPa | 2.5V | 08:03:06 | 02:03:18 | 00:00:00 | |
| DL1XH-west | 2026-09-04 14:22:18 | 53.91187 | 10.03301 | 85° | 217km/h | 11112m | -5.5m/s | -51.1°C | 68.8% | 231.9hPa | 2.5V | 08:03:06 | 02:03:17 | 00:00:00 | |
| DO2SHX-10 | 2026-09-04 14:22:18 | 53.91187 | 10.03301 | 86° | 215km/h | 11112m | -5.4m/s | -51.1°C | 74.5% | 231.9hPa | 2.5V | 00:00:00 | 02:03:17 | 00:00:00 | |
| DM0DOS-11 | 2026-09-04 14:22:17 | 53.91157 | 10.02756 | 85° | 210km/h | 11146m | -5.8m/s | -51.4°C | 73.9% | 230.7hPa | 2.6V | 08:03:10 | 02:03:11 | 00:00:00 | |
| AA1-15 | 2026-09-04 14:22:13 | 53.91162 | 10.02846 | 85° | 210km/h | 11140m | -5.7m/s | -51.4°C | 68.1% | 230.9hPa | 2.5V | 08:03:57 | 02:03:12 | 00:00:00 | |
| BIOWL1-15 | 2026-09-04 14:22:11 | 53.91144 | 10.02485 | 86° | 214km/h | 11163m | -6.1m/s | -51.5°C | 67.1% | 230.2hPa | 2.5V | 08:03:57 | 02:03:08 | 00:00:00 | |
| DB0DAN | 2026-09-04 14:22:10 | 53.91148 | 10.02576 | 86° | 201km/h | 11157m | -5.4m/s | -51.5°C | 59.7% | 230.35hPa | 2.5V | 00:00:00 | 00:00:00 | 00:00:00 | |
| DL1XH1-15 | 2026-09-04 14:22:10 | 53.91128 | 10.02116 | 84° | 217km/h | 11185m | -5.7m/s | -51.7°C | 72% | 229.4hPa | 2.5V | 08:03:17 | 02:03:04 | 00:00:00 | |
| DL1XH-west | 2026-09-04 14:22:08 | 53.91141 | 10.02394 | 86° | 215km/h | 11168m | -5.5m/s | -51.6°C | 66.9% | 229.9hPa | 2.5V | 08:03:57 | 02:03:07 | 00:00:00 | |
| DM0DOS-11 | 2026-09-04 14:22:07 | 53.91111 | 10.01840 | 83° | 214km/h | 11202m | -5.9m/s | -51.9°C | 70.8% | 228.8hPa | 2.6V | 08:03:20 | 02:03:01 | 00:00:00 | |
| DF8AY | 2026-09-04 14:22:06 | 53.91133 | 10.02208 | 85° | 217km/h | 11179m | -5.7m/s | -51.7°C | 66.4% | 229.6hPa | 2.6V | 08:03:57 | 02:03:05 | 00:00:00 | |
| AA1-15 | 2026-09-04 14:22:02 | 53.91111 | 10.01840 | 84° | 214km/h | 11202m | -5.9m/s | -51.9°C | 65.3% | 228.8hPa | 2.6V | 08:03:57 | 02:03:01 | 00:00:00 | |
| GOEST3-10 | 2026-09-04 14:22:02 | 53.91111 | 10.01840 | 84° | 212km/h | 11202m | -5.8m/s | -51.8°C | 70.8% | 228.7hPa | 2.5V | 00:00:00 | 02:03:01 | 00:00:00 | |
| DO2LYB-13 | 2026-09-04 14:22:01 | 53.91111 | 10.01840 | 85° | 214km/h | 11202m | -5.9m/s | -51.9°C | 57.3% | 228.8hPa | 2.5V | 08:03:00 | 00:00:00 | 00:00:00 | |
| DL1XH1-15 | 2026-09-04 14:22:00 | 53.91073 | 10.01212 | 85° | 214km/h | 11241m | -6m/s | -52.1°C | 70.9% | 227.3hPa | 2.5V | 08:03:27 | 02:02:54 | 00:00:00 | |
| BIOWL1-15 | 2026-09-04 14:21:58 | 53.91087 | 10.01480 | 84° | 208km/h | 11224m | -5.5m/s | -52.1°C | 64.5% | 227.9hPa | 2.5V | 08:03:57 | 02:02:57 | 00:00:00 | |
| DL1XH-west | 2026-09-04 14:21:57 | 53.91082 | 10.01391 | 85° | 208km/h | 11230m | -5.6m/s | -52.1°C | 64.6% | 227.8hPa | 2.6V | 08:03:57 | 02:02:56 | 00:00:00 | |
| DF8AY | 2026-09-04 14:21:53 | 53.91063 | 10.01028 | 85° | 217km/h | 11253m | -5.7m/s | -52.2°C | 64% | 227hPa | 2.5V | 08:03:57 | 02:02:52 | 00:00:00 | |
| AA1-15 | 2026-09-04 14:21:52 | 53.91058 | 10.00936 | 84° | 217km/h | 11259m | -6.2m/s | -52.3°C | 64% | 226.8hPa | 2.6V | 08:03:57 | 02:02:51 | 00:00:00 | |
| DO2SHX-10 | 2026-09-04 14:21:51 | 53.91052 | 10.00843 | 84° | 219km/h | 11264m | -5.4m/s | -52.3°C | 68.5% | 226.5hPa | 2.6V | 00:00:00 | 02:02:50 | 00:00:00 | |
| DL1XH1-15 | 2026-09-04 14:21:50 | 53.91010 | 10.00284 | 81° | 214km/h | 11298m | -5.4m/s | -52.6°C | 67.9% | 225.4hPa | 2.5V | 08:03:37 | 02:02:44 | 00:00:00 | |
| DF8AY | 2026-09-04 14:21:48 | 53.90996 | 10.00106 | 83° | 208km/h | 11309m | -5.9m/s | -52.6°C | 63.2% | 225hPa | 2.5V | 08:03:57 | 02:02:42 | 00:00:00 | |
| BIOWL1-15 | 2026-09-04 14:21:48 | 53.91033 | 10.00562 | 83° | 221km/h | 11281m | -5.9m/s | -52.5°C | 63.5% | 226hPa | 2.5V | 08:03:57 | 02:02:47 | 00:00:00 | |
| DF5WG-10 | 2026-09-04 14:21:48 | 53.91033 | 10.00562 | 83° | 219km/h | 11281m | -5.8m/s | -52.5°C | 66.9% | 225.9hPa | 2.6V | 00:00:00 | 02:02:47 | 00:00:00 | |
| DM0DOS-11 | 2026-09-04 14:21:47 | 53.90991 | 10.00017 | 84° | 208km/h | 11314m | -5.1m/s | -52.7°C | 69.2% | 224.8hPa | 2.6V | 08:03:40 | 02:02:41 | 00:00:00 | |
| DL1XH-west | 2026-09-04 14:21:47 | 53.91026 | 10.00468 | 82° | 221km/h | 11287m | -5.7m/s | -52.6°C | 63.4% | 225.8hPa | 2.6V | 08:03:57 | 02:02:46 | 00:00:00 | |
| D01LWL | 2026-09-04 14:21:46 | 53.91010 | 10.00284 | 81° | 212km/h | 11298m | -5.4m/s | -52.6°C | 54.5% | 225.4hPa | 2.6V | 00:00:00 | 00:00:00 | 00:00:00 | |
| AA1-15 | 2026-09-04 14:21:41 | 53.90986 | 9.99928 | 85° | 210km/h | 11320m | -5.4m/s | -52.7°C | 63.3% | 224.6hPa | 2.6V | 08:03:57 | 02:02:40 | 00:00:00 | |
| DB0DAN | 2026-09-04 14:21:40 | 53.90981 | 9.99838 | 85° | 204km/h | 11325m | -5.1m/s | -52.8°C | 55.5% | 224.46hPa | 2.5V | 00:00:00 | 00:00:00 | 00:00:00 | |
| DL1XH1-15 | 2026-09-04 14:21:40 | 53.90948 | 9.99377 | 82° | 214km/h | 11353m | -5.8m/s | -53.1°C | 68.1% | 223.5hPa | 2.5V | 08:03:47 | 02:02:34 | 00:00:00 | |
| DL1XH-15 | 2026-09-04 14:21:39 | 53.90941 | 9.99287 | 82° | 212km/h | 11358m | -5.7m/s | -53.1°C | 68.6% | 223.3hPa | 2.5V | 08:03:48 | 02:02:33 | 00:00:00 | |
| BIOWL1-15 | 2026-09-04 14:21:38 | 53.90970 | 9.99654 | 84° | 219km/h | 11336m | -5.7m/s | -52.9°C | 62.9% | 224.2hPa | 2.5V | 08:03:57 | 02:02:37 | 00:00:00 | |
| DM0DOS-11 | 2026-09-04 14:21:37 | 53.90928 | 9.99109 | 84° | 208km/h | 11369m | -5.4m/s | -53.2°C | 68.2% | 222.9hPa | 2.6V | 08:03:50 | 02:02:31 | 00:00:00 | |
| DL1XH-west | 2026-09-04 14:21:36 | 53.90956 | 9.99468 | 82° | 217km/h | 11347m | -5.7m/s | -53°C | 62.8% | 223.7hPa | 2.6V | 08:03:57 | 02:02:35 | 00:00:00 | |
| DF8AY | 2026-09-04 14:21:32 | 53.90928 | 9.99109 | 84° | 208km/h | 11369m | -5.4m/s | -53.2°C | 62.8% | 222.9hPa | 2.6V | 08:03:57 | 02:02:31 | 00:00:00 | |
| AA1-15 | 2026-09-04 14:21:31 | 53.90923 | 9.99020 | 85° | 210km/h | 11375m | -5.9m/s | -53.3°C | 62.9% | 222.8hPa | 2.6V | 08:03:57 | 02:02:30 | 00:00:00 | |
| DL1XH1-15 | 2026-09-04 14:21:30 | 53.90887 | 9.98469 | 82° | 219km/h | 11410m | -6m/s | -53.6°C | 67.3% | 221.5hPa | 2.5V | 08:03:57 | 02:02:24 | 00:00:00 | |
| DO2SHX-10 | 2026-09-04 14:21:30 | 53.90918 | 9.98929 | 85° | 215km/h | 11381m | -5.9m/s | -53.3°C | 68.7% | 222.5hPa | 2.5V | 00:00:00 | 02:02:29 | 00:00:00 | |
| DL1XH-15 | 2026-09-04 14:21:29 | 53.90880 | 9.98376 | 81° | 217km/h | 11416m | -5.8m/s | -53.7°C | 68.1% | 221.3hPa | 2.5V | 08:03:58 | 02:02:23 | 00:00:00 | |
| BIOWL1-15 | 2026-09-04 14:21:28 | 53.90908 | 9.98746 | 84° | 217km/h | 11393m | -6m/s | -53.4°C | 62.9% | 222.2hPa | 2.5V | 08:03:57 | 02:02:27 | 00:00:00 | |
| DL1XH-west | 2026-09-04 14:21:25 | 53.90888 | 9.98469 | 82° | 219km/h | 11410m | -6m/s | -53.6°C | 62.8% | 221.6hPa | 2.5V | 08:03:57 | 02:02:24 | 00:00:00 | |
| DF8AY | 2026-09-04 14:21:22 | 53.90863 | 9.98194 | 81° | 212km/h | 11428m | -6m/s | -53.8°C | 62.9% | 220.9hPa | 2.6V | 08:04:48 | 02:02:21 | 00:00:00 | |
| AA1-15 | 2026-09-04 14:21:21 | 53.90856 | 9.98106 | 82° | 208km/h | 11434m | -5.3m/s | -53.7°C | 62.9% | 220.8hPa | 2.6V | 08:04:48 | 02:02:20 | 00:00:00 | |
| DF5WG-10 | 2026-09-04 14:21:21 | 53.90856 | 9.98106 | 82° | 210km/h | 11434m | -5.3m/s | -53.7°C | 69.3% | 220.7hPa | 2.5V | 00:00:00 | 02:02:20 | 00:00:00 | |
| DL1XH1-15 | 2026-09-04 14:21:20 | 53.90824 | 9.97572 | 85° | 214km/h | 11467m | -5m/s | -54.1°C | 70.1% | 219.6hPa | 2.5V | 08:04:07 | 02:02:14 | 00:00:00 | |
| DL1XH-15 | 2026-09-04 14:21:19 | 53.90819 | 9.97480 | 84° | 215km/h | 11472m | -5.5m/s | -54.1°C | 69.3% | 219.4hPa | 2.5V | 08:04:08 | 02:02:13 | 00:00:00 | |
| BIOWL1-15 | 2026-09-04 14:21:17 | 53.90833 | 9.97753 | 85° | 210km/h | 11456m | -5.2m/s | -53.9°C | 62.9% | 220hPa | 2.6V | 08:04:48 | 02:02:16 | 00:00:00 | |
| DL1XH-west | 2026-09-04 14:21:15 | 53.90824 | 9.97572 | 85° | 215km/h | 11467m | -5m/s | -54.1°C | 62.6% | 219.6hPa | 2.5V | 08:04:48 | 02:02:14 | 00:00:00 | |
| DF8AY | 2026-09-04 14:21:11 | 53.90803 | 9.97199 | 84° | 224km/h | 11488m | -5.8m/s | -54.2°C | 61.4% | 218.9hPa | 2.6V | 08:04:48 | 02:02:10 | 00:00:00 | |
| DB0DAN | 2026-09-04 14:21:10 | 53.90797 | 9.97104 | 83° | 214km/h | 11494m | -5.4m/s | -54.2°C | 53.1% | 218.63hPa | 2.5V | 00:00:00 | 00:00:00 | 00:00:00 | |
| AA1-15 | 2026-09-04 14:21:10 | 53.90797 | 9.97104 | 83° | 223km/h | 11494m | -5.4m/s | -54.2°C | 61.3% | 218.6hPa | 2.5V | 08:04:48 | 02:02:09 | 00:00:00 | |
| BIOWL1-15 | 2026-09-04 14:21:08 | 53.90766 | 9.96736 | 82° | 210km/h | 11514m | -5.6m/s | -54.3°C | 62.3% | 217.9hPa | 2.6V | 08:04:48 | 02:02:05 | 00:00:00 | |
| DL1XH-west | 2026-09-04 14:21:05 | 53.90759 | 9.96648 | 83° | 208km/h | 11520m | -6m/s | -54.3°C | 62.5% | 217.8hPa | 2.5V | 08:04:48 | 02:02:04 | 00:00:00 | |
| DL1LOL-11 | 2026-09-04 14:21:04 | 53.90759 | 9.96647 | 84° | 208km/h | 11521m | -6.0m/s | -54.3°C | 54.2% | 217.8hPa | 2.5V | 00:00:00 | 00:00:00 | 00:00:00 | |
| SONDE2-11 | 2026-09-04 14:21:03 | 53.90749 | 9.96471 | 85° | 208km/h | 11531m | -5.1m/s | -54.3°C | 53.7% | 217.4hPa | 2.5V | 00:00:00 | 00:00:00 | 00:00:00 | |
| GOEST3-10 | 2026-09-04 14:21:02 | 53.90745 | 9.96381 | 87° | 214km/h | 11537m | -5.6m/s | -54.3°C | 67.7% | 217.2hPa | 2.5V | 00:00:00 | 02:02:01 | 00:00:00 | |
| DL1XH1-15 | 2026-09-04 14:21:00 | 53.90715 | 9.95734 | 83° | 219km/h | 11574m | -5.3m/s | -54.7°C | 68.6% | 215.9hPa | 2.5V | 08:04:27 | 02:01:54 | 00:00:00 | |
| AA1-15 | 2026-09-04 14:21:00 | 53.90739 | 9.96199 | 87° | 214km/h | 11548m | -5.6m/s | -54.5°C | 62.8% | 216.8hPa | 2.5V | 08:04:48 | 02:01:59 | 00:00:00 | |
| BIOWL1-15 | 2026-09-04 14:20:56 | 53.90721 | 9.95828 | 84° | 219km/h | 11569m | -5.1m/s | -54.7°C | 63.1% | 216.1hPa | 2.6V | 08:04:48 | 02:01:55 | 00:00:00 | |
| DB0DAN | 2026-09-04 14:20:55 | 53.90715 | 9.95734 | 83° | 208km/h | 11574m | -5.3m/s | -54.7°C | 54.3% | 215.93hPa | 2.5V | 00:00:00 | 00:00:00 | 00:00:00 | |
| DL1XH-west | 2026-09-04 14:20:54 | 53.90708 | 9.95642 | 83° | 215km/h | 11580m | -5.4m/s | -54.7°C | 63.2% | 215.7hPa | 2.5V | 08:04:48 | 02:01:53 | 00:00:00 | |
| AA1-15 | 2026-09-04 14:20:49 | 53.90675 | 9.95190 | 83° | 214km/h | 11607m | -5.1m/s | -54.9°C | 63.5% | 214.8hPa | 2.5V | 08:04:48 | 02:01:48 | 00:00:00 | |
| DF8AY | 2026-09-04 14:20:48 | 53.90668 | 9.95099 | 83° | 215km/h | 11612m | -6m/s | -55°C | 63.5% | 214.6hPa | 2.5V | 08:04:48 | 02:01:47 | 00:00:00 | |
| DJ2DS-15 | 2026-09-04 14:20:48 | 53.90662 | 9.95008 | 83° | 214km/h | 11618m | -5.4m/s | -55.1°C | 53.9% | 214.5hPa | 2.6V | 00:00:00 | 00:00:00 | 00:00:00 | |
| DM0DOS-11 | 2026-09-04 14:20:47 | 53.90635 | 9.94546 | 84° | 221km/h | 11644m | -5.6m/s | -55.2°C | 69.5% | 213.6hPa | 2.6V | 08:04:40 | 02:01:41 | 00:00:00 | |
| BIOWL1-15 | 2026-09-04 14:20:46 | 53.90656 | 9.94917 | 84° | 214km/h | 11623m | -5.4m/s | -55.1°C | 63.5% | 214.3hPa | 2.6V | 08:04:48 | 02:01:45 | 00:00:00 | |
| DL1XH-west | 2026-09-04 14:20:44 | 53.90646 | 9.94733 | 85° | 217km/h | 11634m | -5m/s | -55.2°C | 63.5% | 213.9hPa | 2.5V | 08:04:48 | 02:01:43 | 00:00:00 | |
| D01LWL | 2026-09-04 14:20:44 | 53.90641 | 9.94640 | 84° | 219km/h | 11639m | -4.9m/s | -55.2°C | 55.2% | 213.7hPa | 2.5V | 00:00:00 | 00:00:00 | 00:00:00 | |
| DO2SHX-10 | 2026-09-04 14:20:42 | 53.90635 | 9.94546 | 85° | 219km/h | 11645m | -5.5m/s | -55.2°C | 69.5% | 213.6hPa | 2.5V | 00:00:00 | 02:01:41 | 00:00:00 | |
| DB0DAN | 2026-09-04 14:20:40 | 53.90622 | 9.94360 | 83° | 206km/h | 11656m | -5.7m/s | -55.3°C | 54.9% | 213.19hPa | 2.5V | 00:00:00 | 00:00:00 | 00:00:00 | |
| DL1XH1-15 | 2026-09-04 14:20:40 | 53.90592 | 9.93905 | 84° | 217km/h | 11681m | -5.2m/s | -55.6°C | 70.4% | 212.3hPa | 2.5V | 08:04:47 | 02:01:34 | 00:00:00 | |
| DL1XH-15 | 2026-09-04 14:20:39 | 53.90586 | 9.93812 | 84° | 219km/h | 11687m | -5.3m/s | -55.7°C | 70.2% | 212.1hPa | 2.5V | 08:04:48 | 02:01:33 | 00:00:00 | |
| AA1-15 | 2026-09-04 14:20:38 | 53.90609 | 9.94178 | 83° | 212km/h | 11666m | -5.1m/s | -55.4°C | 63.2% | 212.8hPa | 2.5V | 08:04:48 | 02:01:37 | 00:00:00 | |
| BIOWL1-15 | 2026-09-04 14:20:38 | 53.90597 | 9.93997 | 84° | 215km/h | 11676m | -5m/s | -55.5°C | 63.1% | 212.5hPa | 2.6V | 08:04:48 | 02:01:35 | 00:00:00 | |
| DM0DOS-11 | 2026-09-04 14:20:37 | 53.90575 | 9.93625 | 84° | 219km/h | 11698m | -6.1m/s | -55.8°C | 68.9% | 211.8hPa | 2.6V | 08:04:50 | 02:01:31 | 00:00:00 | |
| DL1XH-west | 2026-09-04 14:20:33 | 53.90581 | 9.93719 | 84° | 219km/h | 11692m | -5.2m/s | -55.7°C | 62.5% | 212hPa | 2.5V | 08:05:39 | 02:01:32 | 00:00:00 | |
| DJ2DS-15 | 2026-09-04 14:20:33 | 53.90580 | 9.93719 | 85° | 219km/h | 11692m | -5.2m/s | -55.6°C | 69.3% | 211.9hPa | 2.5V | 00:00:00 | 02:01:32 | 00:00:00 | |
| GOEST3-10 | 2026-09-04 14:20:32 | 53.90575 | 9.93625 | 85° | 219km/h | 11698m | -6.1m/s | -55.7°C | 68.9% | 211.7hPa | 2.6V | 00:00:00 | 02:01:31 | 00:00:00 | |
| DD8BA-10 | 2026-09-04 14:20:31 | 53.90570 | 9.93531 | 85° | 219km/h | 11704m | -6.1m/s | -55.7°C | 67.9% | 211.6hPa | 2.6V | 08:04:00 | 00:00:00 | 00:00:00 | |
| DL1XH1-15 | 2026-09-04 14:20:30 | 53.90533 | 9.92972 | 83° | 219km/h | 11742m | -6.5m/s | -56.1°C | 66% | 210.3hPa | 2.5V | 08:04:57 | 02:01:24 | 00:00:00 | |
| DO2SHX-10 | 2026-09-04 14:20:30 | 53.90564 | 9.93438 | 85° | 219km/h | 11710m | -6.6m/s | -55.8°C | 68.1% | 211.4hPa | 2.5V | 00:00:00 | 02:01:29 | 00:00:00 | |
| DL1XH-15 | 2026-09-04 14:20:29 | 53.90527 | 9.92880 | 82° | 217km/h | 11749m | -6.1m/s | -56.1°C | 65.5% | 210.1hPa | 2.5V | 08:04:58 | 02:01:23 | 00:00:00 | |
| DO2JMG | 2026-09-04 14:20:29 | 53.90559 | 9.93344 | 84° | 219km/h | 11717m | -6.5m/s | -55.9°C | 61.2% | 211.2hPa | 2.5V | 08:07:21 | 02:01:28 | 00:00:00 | |
| AA1-15 | 2026-09-04 14:20:28 | 53.90553 | 9.93251 | 84° | 219km/h | 11723m | -6.6m/s | -56°C | 60.8% | 211hPa | 2.5V | 08:05:39 | 02:01:27 | 00:00:00 | |
| DF8AY | 2026-09-04 14:20:27 | 53.90546 | 9.93158 | 83° | 219km/h | 11730m | -6.1m/s | -56°C | 60.5% | 210.8hPa | 2.6V | 08:05:39 | 02:01:26 | 00:00:00 | |
| BIOWL1-15 | 2026-09-04 14:20:25 | 53.90534 | 9.92972 | 83° | 219km/h | 11742m | -6.5m/s | -56.1°C | 60.1% | 210.3hPa | 2.5V | 08:05:39 | 02:01:24 | 00:00:00 | |
| DL1XH-west | 2026-09-04 14:20:23 | 53.90520 | 9.92788 | 83° | 217km/h | 11755m | -6.5m/s | -56.3°C | 59.5% | 209.9hPa | 2.5V | 08:05:39 | 02:01:22 | 00:00:00 | |
| SMARD9-15 | 2026-09-04 14:20:23 | 53.90513 | 9.92696 | 82° | 215km/h | 11761m | -6.4m/s | -56.3°C | 51.1% | 209.7hPa | 2.6V | 00:00:00 | 00:00:00 | 00:00:00 | |
| GOEST3-10 | 2026-09-04 14:20:22 | 53.90513 | 9.92696 | 83° | 217km/h | 11762m | -6.4m/s | -56.3°C | 65.5% | 209.7hPa | 2.6V | 00:00:00 | 02:01:21 | 00:00:00 | |
| DO2SHX-10 | 2026-09-04 14:20:21 | 53.90507 | 9.92604 | 84° | 215km/h | 11768m | -6.5m/s | -56.3°C | 64.6% | 209.5hPa | 2.6V | 08:05:00 | 02:01:20 | 00:00:00 | |
| DL1XH1-15 | 2026-09-04 14:20:20 | 53.90477 | 9.92044 | 84° | 224km/h | 11806m | -5.2m/s | -56.6°C | 63.3% | 208.2hPa | 2.5V | 08:05:07 | 02:01:14 | 00:00:00 | |
| DL1XH-15 | 2026-09-04 14:20:19 | 53.90472 | 9.91948 | 84° | 224km/h | 11811m | -5.5m/s | -56.6°C | 62.4% | 208hPa | 2.5V | 08:05:08 | 02:01:13 | 00:00:00 | |
| AA1-15 | 2026-09-04 14:20:17 | 53.90486 | 9.92234 | 86° | 221km/h | 11794m | -6.6m/s | -56.5°C | 57.6% | 208.6hPa | 2.6V | 08:05:39 | 02:01:16 | 00:00:00 | |
| BIOWL1-15 | 2026-09-04 14:20:14 | 53.90472 | 9.91948 | 84° | 224km/h | 11811m | -5.5m/s | -56.6°C | 56.4% | 208hPa | 2.5V | 08:05:39 | 02:01:13 | 00:00:00 | |
| DL1XH-west | 2026-09-04 14:20:12 | 53.90459 | 9.91757 | 83° | 223km/h | 11822m | -5.1m/s | -56.7°C | 56% | 207.7hPa | 2.6V | 08:05:39 | 02:01:11 | 00:00:00 | |
| DO2SHX-10 | 2026-09-04 14:20:12 | 53.90459 | 9.91757 | 84° | 221km/h | 11822m | -5.1m/s | -56.6°C | 62.7% | 207.6hPa | 2.6V | 00:00:00 | 02:01:11 | 00:00:00 | |
| DD8BA-10 | 2026-09-04 14:20:11 | 53.90452 | 9.91663 | 83° | 219km/h | 11827m | -5.4m/s | -56.6°C | 62.5% | 207.4hPa | 2.5V | 00:00:00 | 00:00:00 | 00:00:00 | |
| DL1XH1-15 | 2026-09-04 14:20:10 | 53.90413 | 9.91108 | 82° | 219km/h | 11859m | -5.4m/s | -56.9°C | 61.9% | 206.4hPa | 2.5V | 08:05:17 | 02:01:04 | 00:00:00 | |
| DB0DAN | 2026-09-04 14:20:10 | 53.90445 | 9.91570 | 83° | 208km/h | 11833m | -5.4m/s | -56.7°C | 48.5% | 207.34hPa | 2.5V | 00:00:00 | 00:00:00 | 00:00:00 | |
| DL1XH-15 | 2026-09-04 14:20:09 | 53.90406 | 9.91015 | 82° | 219km/h | 11865m | -5.7m/s | -57°C | 62.3% | 206.2hPa | 2.5V | 08:05:18 | 02:01:03 | 00:00:00 | |
| AA1-15 | 2026-09-04 14:20:06 | 53.90420 | 9.91201 | 83° | 219km/h | 11854m | -5.4m/s | -56.9°C | 56.2% | 206.6hPa | 2.6V | 08:05:39 | 02:01:05 | 00:00:00 | |
| DO2SHX-10 | 2026-09-04 14:20:06 | 53.90420 | 9.91201 | 84° | 219km/h | 11854m | -5.3m/s | -56.8°C | 62.2% | 206.6hPa | 2.5V | 00:00:00 | 02:01:05 | 00:00:00 | |
| DM0DOS-11 | 2026-09-04 14:20:05 | 53.90377 | 9.90640 | 82° | 223km/h | 11887m | -5.5m/s | -57.1°C | 63% | 205.5hPa | 2.5V | 08:05:22 | 02:00:59 | 00:00:00 | |
| BIOWL1-15 | 2026-09-04 14:20:05 | 53.90399 | 9.90922 | 83° | 221km/h | 11870m | -5.6m/s | -57.1°C | 56.5% | 206.1hPa | 2.5V | 08:05:39 | 02:01:02 | 00:00:00 | |
| DL1XH-west | 2026-09-04 14:20:01 | 53.90384 | 9.90734 | 82° | 221km/h | 11881m | -5.8m/s | -57.1°C | 56.7% | 205.8hPa | 2.6V | 08:05:39 | 02:01:00 | 00:00:00 | |
| DL1XH1-15 | 2026-09-04 14:20:00 | 53.90339 | 9.90166 | 82° | 221km/h | 11915m | -5.2m/s | -57.4°C | 64.4% | 204.6hPa | 2.6V | 08:05:27 | 02:00:54 | 00:00:00 | |
| DO2SHX-10 | 2026-09-04 14:20:00 | 53.90377 | 9.90640 | 83° | 224km/h | 11887m | -5.5m/s | -57.0°C | 63.0% | 205.5hPa | 2.6V | 00:00:00 | 02:00:59 | 00:00:00 | |
| DL1XH-15 | 2026-09-04 14:19:59 | 53.90331 | 9.90072 | 82° | 221km/h | 11920m | -6m/s | -57.3°C | 64% | 204.5hPa | 2.6V | 08:05:28 | 02:00:53 | 00:00:00 | |
| DF8AY | 2026-09-04 14:19:56 | 53.90346 | 9.90260 | 82° | 223km/h | 11909m | -5.7m/s | -57.3°C | 57.3% | 204.8hPa | 2.6V | 08:05:39 | 02:00:55 | 00:00:00 | |
| EDDB2-12 | 2026-09-04 14:19:56 | 53.90339 | 9.90166 | 82° | 221km/h | 11915m | -5.3m/s | -57.4°C | 49.8% | 204.6hPa | 2.6V | 00:00:00 | 00:00:00 | 00:00:00 | |
| DB0DAN | 2026-09-04 14:19:55 | 53.90339 | 9.90166 | 83° | 212km/h | 11915m | -5.3m/s | -57.4°C | 49.8% | 204.64hPa | 2.6V | 00:00:00 | 00:00:00 | 00:00:00 | |
| DM0DOS-11 | 2026-09-04 14:19:55 | 53.90299 | 9.89699 | 81° | 219km/h | 11943m | -5.7m/s | -57.5°C | 63.5% | 203.8hPa | 2.6V | 08:05:32 | 02:00:49 | 00:00:00 | |
| AA1-15 | 2026-09-04 14:19:55 | 53.90339 | 9.90166 | 83° | 221km/h | 11915m | -5.3m/s | -57.4°C | 57.4% | 204.6hPa | 2.6V | 08:05:39 | 02:00:54 | 00:00:00 | |
| BIOWL1-15 | 2026-09-04 14:19:53 | 53.90324 | 9.89979 | 82° | 221km/h | 11926m | -5.8m/s | -57.3°C | 57.5% | 204.3hPa | 2.5V | 08:05:39 | 02:00:52 | 00:00:00 | |
| DL1XH-west | 2026-09-04 14:19:51 | 53.90308 | 9.89792 | 81° | 219km/h | 11937m | -5.5m/s | -57.4°C | 57.4% | 203.9hPa | 2.5V | 08:05:39 | 02:00:50 | 00:00:00 | |
| DD8BA-10 | 2026-09-04 14:19:51 | 53.90308 | 9.89792 | 82° | 219km/h | 11937m | -5.4m/s | -57.3°C | 63.1% | 203.8hPa | 2.6V | 00:00:00 | 00:00:00 | 00:00:00 | |
| DL1XH-15 | 2026-09-04 14:19:49 | 53.90247 | 9.89146 | 82° | 217km/h | 11977m | -5.4m/s | -57.6°C | 63% | 202.7hPa | 2.6V | 08:05:38 | 02:00:43 | 00:00:00 | |
| AA1-15 | 2026-09-04 14:19:45 | 53.90255 | 9.89238 | 82° | 217km/h | 11971m | -5.6m/s | -57.6°C | 57.1% | 202.8hPa | 2.6V | 08:05:39 | 02:00:44 | 00:00:00 | |
| BIOWL1-15 | 2026-09-04 14:19:42 | 53.90232 | 9.88960 | 82° | 219km/h | 11988m | -5.5m/s | -57.8°C | 56.9% | 202.3hPa | 2.5V | 08:06:30 | 02:00:41 | 00:00:00 | |
| DO2SHX-10 | 2026-09-04 14:19:42 | 53.90232 | 9.88960 | 83° | 219km/h | 11988m | -5.5m/s | -57.7°C | 62.5% | 202.2hPa | 2.6V | 00:00:00 | 02:00:41 | 00:00:00 | |
| DO2LYB-13 | 2026-09-04 14:19:41 | 53.90232 | 9.88960 | 83° | 219km/h | 11988m | -5.5m/s | -57.8°C | 48.1% | 202.3hPa | 2.6V | 08:06:00 | 00:00:00 | 00:00:00 | |
| DB0DAN | 2026-09-04 14:19:40 | 53.90217 | 9.88775 | 82° | 208km/h | 11999m | -5.5m/s | -57.9°C | 47.7% | 202hPa | 2.6V | 00:00:00 | 00:00:00 | 00:00:00 | |
| DL1XH1-15 | 2026-09-04 14:19:40 | 53.90177 | 9.88307 | 80° | 221km/h | 12025m | -5.1m/s | -58.1°C | 61.1% | 201.1hPa | 2.5V | 08:05:47 | 02:00:34 | 00:00:00 | |
| DL1XH-west | 2026-09-04 14:19:40 | 53.90217 | 9.88775 | 82° | 219km/h | 11999m | -5.5m/s | -57.9°C | 56.6% | 202hPa | 2.6V | 08:06:30 | 02:00:39 | 00:00:00 | |
| AA1-15 | 2026-09-04 14:19:35 | 53.90177 | 9.88307 | 81° | 221km/h | 12025m | -5.1m/s | -58.1°C | 55.6% | 201.1hPa | 2.5V | 08:06:30 | 02:00:34 | 00:00:00 | |
| BIOWL1-15 | 2026-09-04 14:19:31 | 53.90140 | 9.87938 | 81° | 217km/h | 12047m | -5.2m/s | -58.3°C | 54.3% | 200.4hPa | 2.5V | 08:06:30 | 02:00:30 | 00:00:00 | |
| DD8BA-10 | 2026-09-04 14:19:31 | 53.90140 | 9.87938 | 82° | 219km/h | 12047m | -5.2m/s | -58.2°C | 60.5% | 200.4hPa | 2.5V | 00:00:00 | 00:00:00 | 00:00:00 | |
| DL1XH1-15 | 2026-09-04 14:19:30 | 53.90091 | 9.87380 | 81° | 219km/h | 12078m | -5.6m/s | -58.5°C | 58.4% | 199.4hPa | 2.5V | 08:05:57 | 02:00:24 | 00:00:00 | |
| DL1XH-west | 2026-09-04 14:19:29 | 53.90124 | 9.87753 | 82° | 219km/h | 12057m | -5m/s | -58.3°C | 53.7% | 200hPa | 2.5V | 08:06:30 | 02:00:28 | 00:00:00 | |
| DO2SHX-10 | 2026-09-04 14:19:27 | 53.90108 | 9.87566 | 82° | 221km/h | 12068m | -4.8m/s | -58.4°C | 59.6% | 199.7hPa | 2.6V | 08:05:00 | 02:00:26 | 00:00:00 | |
| DB0DAN | 2026-09-04 14:19:25 | 53.90091 | 9.87380 | 81° | 208km/h | 12078m | -5.6m/s | -58.5°C | 44.3% | 199.41hPa | 2.5V | 00:00:00 | 00:00:00 | 00:00:00 | |
| DM0DOS-11 | 2026-09-04 14:19:25 | 53.90052 | 9.86909 | 81° | 228km/h | 12103m | -5.6m/s | -58.8°C | 55.2% | 198.6hPa | 2.5V | 08:06:02 | 02:00:19 | 00:00:00 | |
| AA1-15 | 2026-09-04 14:19:24 | 53.90083 | 9.87287 | 82° | 219km/h | 12083m | -4.9m/s | -58.6°C | 51.8% | 199.2hPa | 2.5V | 08:06:30 | 02:00:23 | 00:00:00 | |
| BIOWL1-15 | 2026-09-04 14:19:20 | 53.90052 | 9.86909 | 82° | 228km/h | 12103m | -5.6m/s | -58.8°C | 49.7% | 198.6hPa | 2.5V | 08:06:30 | 02:00:19 | 00:00:00 | |
| DL1XH-west | 2026-09-04 14:19:18 | 53.90034 | 9.86718 | 81° | 224km/h | 12114m | -5.4m/s | -58.9°C | 48.5% | 198.2hPa | 2.5V | 08:06:30 | 02:00:17 | 00:00:00 | |
| DO2SHX-10 | 2026-09-04 14:19:18 | 53.90034 | 9.86718 | 81° | 224km/h | 12114m | -5.4m/s | -58.9°C | 54.3% | 198.2hPa | 2.5V | 00:00:00 | 02:00:17 | 00:00:00 | |
| GOEST3-10 | 2026-09-04 14:19:17 | 53.90025 | 9.86623 | 81° | 221km/h | 12119m | -5.1m/s | -58.9°C | 54.1% | 198.0hPa | 2.6V | 00:00:00 | 00:00:00 | 00:00:00 | |
| DM0DOS-11 | 2026-09-04 14:19:15 | 53.89963 | 9.85970 | 80° | 223km/h | 12156m | -5.8m/s | -59.2°C | 48.3% | 196.9hPa | 2.6V | 08:06:12 | 02:00:09 | 00:00:00 | |
| AA1-15 | 2026-09-04 14:19:14 | 53.89997 | 9.86341 | 81° | 221km/h | 12135m | -5.7m/s | -59.1°C | 46% | 197.6hPa | 2.5V | 08:06:30 | 02:00:13 | 00:00:00 | |
| BIOWL1-15 | 2026-09-04 14:19:12 | 53.89963 | 9.85970 | 81° | 223km/h | 12156m | -5.8m/s | -59.2°C | 42.5% | 196.9hPa | 2.6V | 08:06:30 | 02:00:09 | 00:00:00 | |
| DO2SHX-10 | 2026-09-04 14:19:12 | 53.89980 | 9.86157 | 82° | 221km/h | 12145m | -5.3m/s | -59.1°C | 51.0% | 197.2hPa | 2.6V | 00:00:00 | 02:00:11 | 00:00:00 | |
| DB0DAN | 2026-09-04 14:19:10 | 53.89963 | 9.85970 | 81° | 212km/h | 12156m | -5.8m/s | -59.2°C | 35.7% | 196.93hPa | 2.6V | 00:00:00 | 00:00:00 | 00:00:00 | |
| DL1XH1-15 | 2026-09-04 14:19:10 | 53.89916 | 9.85495 | 80° | 224km/h | 12184m | -5.3m/s | -59.4°C | 44% | 196.1hPa | 2.6V | 08:06:17 | 02:00:04 | 00:00:00 | |
| DL1XH-west | 2026-09-04 14:19:08 | 53.89945 | 9.85781 | 81° | 224km/h | 12167m | -6.1m/s | -59.4°C | 40.8% | 196.6hPa | 2.5V | 08:06:30 | 02:00:07 | 00:00:00 | |
| DB0UT-7 | 2026-09-04 14:19:07 | 53.89935 | 9.85686 | 81° | 228km/h | 12173m | -5.6m/s | -59.3°C | 45.8% | 196.3hPa | 2.5V | 00:00:00 | 02:00:06 | 00:00:00 | |
| DO2SHX-10 | 2026-09-04 14:19:06 | 53.89925 | 9.85590 | 81° | 224km/h | 12179m | -5.6m/s | -59.4°C | 45.0% | 196.1hPa | 2.5V | 00:00:00 | 02:00:05 | 00:00:00 | |
| DM0DOS-11 | 2026-09-04 14:19:05 | 53.89870 | 9.85020 | 80° | 226km/h | 12211m | -5.5m/s | -59.4°C | 39.4% | 195.2hPa | 2.5V | 08:06:22 | 01:59:59 | 00:00:00 | |
| AA1-15 | 2026-09-04 14:19:03 | 53.89897 | 9.85305 | 81° | 223km/h | 12195m | -5.2m/s | -59.4°C | 36.5% | 195.7hPa | 2.6V | 08:06:30 | 02:00:02 | 00:00:00 | |
| BIOWL1-15 | 2026-09-04 14:19:01 | 53.89860 | 9.84924 | 80° | 228km/h | 12217m | -5.3m/s | -59.3°C | 33.7% | 195hPa | 2.6V | 08:06:30 | 01:59:58 | 00:00:00 | |
| DD8BA-10 | 2026-09-04 14:19:01 | 53.89879 | 9.85115 | 81° | 228km/h | 12206m | -5.6m/s | -59.4°C | 40.3% | 195.3hPa | 2.5V | 08:06:00 | 00:00:00 | 00:00:00 | |
| DO2SHX-10 | 2026-09-04 14:19:00 | 53.89870 | 9.85020 | 81° | 228km/h | 12212m | -5.5m/s | -59.3°C | 39.4% | 195.2hPa | 2.5V | 08:06:00 | 01:59:59 | 00:00:00 | |
| DL1XH-15 | 2026-09-04 14:18:59 | 53.89811 | 9.84440 | 80° | 230km/h | 12244m | -5.7m/s | -59.3°C | 37.6% | 194.1hPa | 2.5V | 08:06:28 | 01:59:53 | 00:00:00 | |
| DL1XH-west | 2026-09-04 14:18:58 | 53.89850 | 9.84828 | 80° | 228km/h | 12222m | -5.4m/s | -59.4°C | 33.3% | 194.9hPa | 2.6V | 08:06:30 | 01:59:57 | 00:00:00 | |
| GOEST3-10 | 2026-09-04 14:18:57 | 53.89840 | 9.84731 | 80° | 230km/h | 12228m | -5.5m/s | -59.3°C | 38.3% | 194.7hPa | 2.5V | 00:00:00 | 00:00:00 | 00:00:00 | |
| DB0DAN | 2026-09-04 14:18:55 | 53.89821 | 9.84537 | 80° | 219km/h | 12239m | -5.7m/s | -59.4°C | 27.2% | 194.38hPa | 2.5V | 00:00:00 | 00:00:00 | 00:00:00 | |
| DM0DOS-11 | 2026-09-04 14:18:55 | 53.89777 | 9.84056 | 82° | 228km/h | 12265m | -5m/s | -59.3°C | 35.5% | 193.5hPa | 2.5V | 08:06:32 | 01:59:49 | 00:00:00 | |
| AA1-15 | 2026-09-04 14:18:53 | 53.89801 | 9.84343 | 81° | 228km/h | 12250m | -5.5m/s | -59.2°C | 31.8% | 194hPa | 2.6V | 08:06:30 | 01:59:52 | 00:00:00 | |
| DF8AY | 2026-09-04 14:18:50 | 53.89777 | 9.84056 | 83° | 228km/h | 12265m | -5m/s | -59.3°C | 30.8% | 193.5hPa | 2.5V | 08:07:21 | 01:59:49 | 00:00:00 | |
| DF5WG-10 | 2026-09-04 14:18:50 | 53.89777 | 9.84056 | 83° | 232km/h | 12265m | -5.0m/s | -59.2°C | 35.5% | 193.5hPa | 2.5V | 00:00:00 | 01:59:49 | 00:00:00 | |
| DL1XH-15 | 2026-09-04 14:18:49 | 53.89730 | 9.83467 | 82° | 234km/h | 12296m | -4.8m/s | -59.4°C | 32.9% | 192.6hPa | 2.5V | 08:06:38 | 01:59:43 | 00:00:00 | |
| BIOWL1-15 | 2026-09-04 14:18:48 | 53.89762 | 9.83861 | 82° | 232km/h | 12275m | -4.9m/s | -59.3°C | 30% | 193.2hPa | 2.5V | 08:07:21 | 01:59:47 | 00:00:00 | |
| DL1XH-west | 2026-09-04 14:18:47 | 53.89754 | 9.83763 | 82° | 232km/h | 12280m | -5m/s | -59.3°C | 29.6% | 193.1hPa | 2.6V | 08:07:21 | 01:59:46 | 00:00:00 | |
| DM0DOS-11 | 2026-09-04 14:18:45 | 53.89702 | 9.83072 | 83° | 232km/h | 12318m | -5.1m/s | -59.2°C | 31.8% | 191.9hPa | 2.6V | 08:06:42 | 01:59:39 | 00:00:00 | |
| AA1-15 | 2026-09-04 14:18:42 | 53.89715 | 9.83269 | 83° | 232km/h | 12307m | -5.2m/s | -59.4°C | 27.7% | 192.2hPa | 2.5V | 08:07:21 | 01:59:41 | 00:00:00 | |
| DO2SHX-10 | 2026-09-04 14:18:42 | 53.89715 | 9.83269 | 83° | 232km/h | 12307m | -5.1m/s | -59.3°C | 32.4% | 192.1hPa | 2.5V | 00:00:00 | 01:59:41 | 00:00:00 | |
| DB0DAN | 2026-09-04 14:18:40 | 53.89702 | 9.83072 | 84° | 221km/h | 12318m | -5.1m/s | -59.2°C | 22.2% | 191.93hPa | 2.6V | 00:00:00 | 00:00:00 | 00:00:00 | |
| DL1XH1-15 | 2026-09-04 14:18:40 | 53.89671 | 9.82578 | 84° | 230km/h | 12344m | -5.7m/s | -58.8°C | 29.7% | 191.1hPa | 2.6V | 08:06:47 | 01:59:34 | 00:00:00 | |
| DF8AY | 2026-09-04 14:18:39 | 53.89696 | 9.82974 | 84° | 232km/h | 12323m | -6.3m/s | -59.1°C | 26.9% | 191.7hPa | 2.6V | 08:07:21 | 01:59:38 | 00:00:00 | |
| BIOWL1-15 | 2026-09-04 14:18:39 | 53.89683 | 9.82775 | 84° | 232km/h | 12334m | -5m/s | -58.8°C | 26.5% | 191.4hPa | 2.5V | 08:07:21 | 01:59:36 | 00:00:00 | |
| DL1XH-west | 2026-09-04 14:18:36 | 53.89677 | 9.82676 | 84° | 230km/h | 12339m | -5.2m/s | -58.8°C | 26.1% | 191.3hPa | 2.5V | 08:07:21 | 01:59:35 | 00:00:00 | |
| DF5WG-10 | 2026-09-04 14:18:36 | 53.89677 | 9.82676 | 85° | 230km/h | 12339m | -5.1m/s | -58.8°C | 30.0% | 191.2hPa | 2.5V | 08:06:00 | 01:59:35 | 00:00:00 | |
| DM0DOS-11 | 2026-09-04 14:18:35 | 53.89645 | 9.82087 | 85° | 232km/h | 12376m | -6.1m/s | -58.8°C | 28.9% | 190.1hPa | 2.5V | 08:06:52 | 01:59:29 | 00:00:00 | |
| AA1-15 | 2026-09-04 14:18:32 | 53.89655 | 9.82284 | 85° | 230km/h | 12363m | -6.1m/s | -58.8°C | 25.4% | 190.5hPa | 2.5V | 08:07:21 | 01:59:31 | 00:00:00 | |
| GOEST3-10 | 2026-09-04 14:18:32 | 53.89655 | 9.82284 | 85° | 230km/h | 12363m | -6.0m/s | -58.7°C | 29.1% | 190.5hPa | 2.5V | 00:00:00 | 01:59:31 | 00:00:00 | |
| DD8BA-10 | 2026-09-04 14:18:31 | 53.89650 | 9.82186 | 86° | 230km/h | 12370m | -6.4m/s | -58.8°C | 29.0% | 190.3hPa | 2.5V | 00:00:00 | 00:00:00 | 00:00:00 | |
| DL1XH1-15 | 2026-09-04 14:18:30 | 53.89626 | 9.81596 | 86° | 230km/h | 12405m | -5.9m/s | -58.8°C | 28.1% | 189.2hPa | 2.5V | 08:06:57 | 01:59:24 | 00:00:00 | |
| DL1XH-15 | 2026-09-04 14:18:29 | 53.89623 | 9.81498 | 87° | 228km/h | 12411m | -5.5m/s | -58.7°C | 27.8% | 189.1hPa | 2.5V | 08:06:58 | 01:59:23 | 00:00:00 | |
| DF8AY | 2026-09-04 14:18:29 | 53.89641 | 9.81988 | 86° | 232km/h | 12382m | -5.8m/s | -58.8°C | 24.9% | 190hPa | 2.6V | 08:07:21 | 01:59:28 | 00:00:00 | |
| BIOWL1-15 | 2026-09-04 14:18:29 | 53.89633 | 9.81792 | 87° | 228km/h | 12393m | -5.6m/s | -58.8°C | 24.7% | 189.6hPa | 2.6V | 08:07:21 | 01:59:26 | 00:00:00 | |
| DL1XH-west | 2026-09-04 14:18:25 | 53.89626 | 9.81596 | 87° | 230km/h | 12405m | -5.9m/s | -58.8°C | 24.4% | 189.3hPa | 2.5V | 08:07:21 | 01:59:24 | 00:00:00 | |
| DB0DAN | 2026-09-04 14:18:25 | 53.89626 | 9.81596 | 87° | 219km/h | 12405m | -5.9m/s | -58.8°C | 19.4% | 189.26hPa | 2.5V | 00:00:00 | 00:00:00 | 00:00:00 | |
| AA1-15 | 2026-09-04 14:18:22 | 53.89618 | 9.81303 | 88° | 228km/h | 12423m | -6.3m/s | -58.7°C | 24.1% | 188.7hPa | 2.6V | 08:07:21 | 01:59:21 | 00:00:00 | |
| GOEST3-10 | 2026-09-04 14:18:22 | 53.89618 | 9.81303 | 88° | 224km/h | 12423m | -6.2m/s | -58.7°C | 27.7% | 188.7hPa | 2.6V | 00:00:00 | 01:59:21 | 00:00:00 | |
| DD8BA-10 | 2026-09-04 14:18:21 | 53.89616 | 9.81206 | 88° | 226km/h | 12429m | -5.6m/s | -58.7°C | 27.5% | 188.4hPa | 2.6V | 00:00:00 | 00:00:00 | 00:00:00 | |
| DL1XH1-15 | 2026-09-04 14:18:20 | 53.89606 | 9.80629 | 89° | 224km/h | 12466m | -6.4m/s | -58.7°C | 26.7% | 187.4hPa | 2.6V | 08:07:07 | 01:59:14 | 00:00:00 | |
| DO2SHX-10 | 2026-09-04 14:18:20 | 53.89613 | 9.81109 | 88° | 224km/h | 12435m | -6.0m/s | -58.7°C | 27.4% | 188.3hPa | 2.5V | 00:00:00 | 01:59:19 | 00:00:00 | |
| DL1XH-15 | 2026-09-04 14:18:19 | 53.89606 | 9.80532 | 89° | 226km/h | 12472m | -6.6m/s | -58.6°C | 26.6% | 187.2hPa | 2.5V | 08:07:08 | 01:59:13 | 00:00:00 | |
| DF8AY | 2026-09-04 14:18:18 | 53.89609 | 9.80918 | 89° | 224km/h | 12447m | -6m/s | -58.7°C | 23.6% | 188hPa | 2.5V | 08:07:21 | 01:59:17 | 00:00:00 | |
| BIOWL1-15 | 2026-09-04 14:18:16 | 53.89607 | 9.80725 | 89° | 224km/h | 12459m | -6.5m/s | -58.7°C | 23.2% | 187.6hPa | 2.6V | 08:07:21 | 01:59:15 | 00:00:00 | |
| DM0DOS-11 | 2026-09-04 14:18:15 | 53.89605 | 9.80145 | 90° | 224km/h | 12497m | -6m/s | -58.5°C | 25.7% | 186.5hPa | 2.6V | 08:07:12 | 01:59:09 | 00:00:00 | |
| DL1XH-west | 2026-09-04 14:18:15 | 53.89606 | 9.80629 | 89° | 224km/h | 12466m | -6.4m/s | -58.7°C | 23% | 187.4hPa | 2.6V | 08:07:21 | 01:59:14 | 00:00:00 | |
| AA1-15 | 2026-09-04 14:18:11 | 53.89605 | 9.80241 | 90° | 226km/h | 12491m | -5.8m/s | -58.6°C | 22.2% | 186.7hPa | 2.5V | 08:07:21 | 01:59:10 | 00:00:00 | |
| DD8BA-10 | 2026-09-04 14:18:11 | 53.89605 | 9.80241 | 90° | 221km/h | 12491m | -5.8m/s | -58.5°C | 26.0% | 186.6hPa | 2.5V | 00:00:00 | 00:00:00 | 00:00:00 | |
| DL1XH1-15 | 2026-09-04 14:18:10 | 53.89608 | 9.79670 | 91° | 219km/h | 12528m | -6.2m/s | -58.2°C | 23.6% | 185.5hPa | 2.5V | 08:07:17 | 01:59:04 | 00:00:00 | |
| DB0DAN | 2026-09-04 14:18:10 | 53.89605 | 9.80145 | 90° | 214km/h | 12497m | -6m/s | -58.5°C | 17.5% | 186.48hPa | 2.6V | 00:00:00 | 00:00:00 | 00:00:00 | |
| DL1XH-15 | 2026-09-04 14:18:09 | 53.89610 | 9.79576 | 91° | 219km/h | 12534m | -6m/s | -58.3°C | 23.3% | 185.4hPa | 2.5V | 08:07:18 | 01:59:03 | 00:00:00 | |
| DF8AY | 2026-09-04 14:18:07 | 53.89607 | 9.79858 | 91° | 221km/h | 12516m | -6.1m/s | -58.2°C | 21.1% | 185.9hPa | 2.5V | 08:07:21 | 01:59:06 | 00:00:00 | |
| BIOWL1-15 | 2026-09-04 14:18:06 | 53.89607 | 9.79763 | 91° | 219km/h | 12522m | -6.2m/s | -58.2°C | 20.8% | 185.8hPa | 2.5V | 08:07:21 | 01:59:05 | 00:00:00 | |
| DM0DOS-11 | 2026-09-04 14:18:05 | 53.89617 | 9.79204 | 92° | 219km/h | 12560m | -5.9m/s | -58.3°C | 22.4% | 184.6hPa | 2.5V | 08:07:22 | 01:58:59 | 00:00:00 | |
| DL1XH-west | 2026-09-04 14:18:04 | 53.89610 | 9.79576 | 92° | 219km/h | 12535m | -6m/s | -58.3°C | 20.4% | 185.4hPa | 2.5V | 08:07:21 | 01:59:03 | 00:00:00 | |
| AA1-15 | 2026-09-04 14:18:01 | 53.89615 | 9.79297 | 92° | 217km/h | 12554m | -7m/s | -58.3°C | 19.5% | 184.8hPa | 2.6V | 08:07:21 | 01:59:00 | 00:00:00 | |
| DD8BA-10 | 2026-09-04 14:18:01 | 53.89615 | 9.79297 | 93° | 210km/h | 12554m | -7.0m/s | -58.3°C | 22.6% | 184.7hPa | 2.6V | 00:00:00 | 00:00:00 | 00:00:00 | |
| DL1XH1-15 | 2026-09-04 14:18:00 | 53.89628 | 9.78742 | 92° | 214km/h | 12592m | -6.2m/s | -58°C | 20.7% | 183.7hPa | 2.6V | 08:07:27 | 01:58:54 | 00:00:00 | |
| BUE01 | 2026-09-04 14:18:00 | 53.89630 | 9.78652 | 92° | 210km/h | 12599m | -7.0m/s | 0°C | -1.0% | -1.0hPa | 2.6V | 00:00:00 | 00:00:00 | 00:00:00 | |
| DL1XH-15 | 2026-09-04 14:17:59 | 53.89630 | 9.78652 | 92° | 210km/h | 12599m | -7m/s | -58°C | 20.4% | 183.5hPa | 2.6V | 08:07:28 | 01:58:53 | 00:00:00 | |
| DF8AY | 2026-09-04 14:17:57 | 53.89623 | 9.78926 | 93° | 215km/h | 12579m | -6.7m/s | -58.2°C | 18.4% | 184.1hPa | 2.5V | 08:09:03 | 01:58:56 | 00:00:00 | |
| SONDE2-11 | 2026-09-04 14:17:57 | 53.89626 | 9.78834 | 92° | 214km/h | 12586m | -6.5m/s | -58.1°C | 14.0% | 183.8hPa | 2.6V | 00:00:00 | 00:00:00 | 00:00:00 | |
| DB0DAN | 2026-09-04 14:17:55 | 53.89628 | 9.78742 | 92° | 203km/h | 12593m | -6.2m/s | -58°C | 13.6% | 183.71hPa | 2.6V | 00:00:00 | 00:00:00 | 00:00:00 | |
| BIOWL1-15 | 2026-09-04 14:17:55 | 53.89628 | 9.78742 | 92° | 214km/h | 12592m | -6.2m/s | -58°C | 17.8% | 183.7hPa | 2.6V | 08:08:12 | 01:58:54 | 00:00:00 | |
| DO2JMG | 2026-09-04 14:17:53 | 53.89632 | 9.78562 | 92° | 208km/h | 12606m | -6.5m/s | -58°C | 17.2% | 183.3hPa | 2.5V | 08:08:12 | 01:58:52 | 00:00:00 | |
| AA1-15 | 2026-09-04 14:17:51 | 53.89637 | 9.78385 | 93° | 206km/h | 12618m | -5.8m/s | -57.8°C | 16.6% | 182.9hPa | 2.5V | 08:08:12 | 01:58:50 | 00:00:00 | |
| DL1XH1-15 | 2026-09-04 14:17:50 | 53.89651 | 9.77864 | 93° | 201km/h | 12654m | -6.2m/s | -57.9°C | 18.1% | 181.8hPa | 2.5V | 08:07:37 | 01:58:44 | 00:00:00 | |
| DO2SHX-10 | 2026-09-04 14:17:49 | 53.89642 | 9.78209 | 93° | 203km/h | 12631m | -6.0m/s | -57.8°C | 18.9% | 182.5hPa | 2.5V | 00:00:00 | 01:58:48 | 00:00:00 | |
| DF5WG-10 | 2026-09-04 14:17:48 | 53.89643 | 9.78122 | 93° | 199km/h | 12637m | -6.5m/s | -57.9°C | 18.8% | 182.3hPa | 2.5V | 00:00:00 | 01:58:47 | 00:00:00 | |
| GOEST3-10 | 2026-09-04 14:17:47 | 53.89646 | 9.78036 | 93° | 201km/h | 12643m | -5.5m/s | -57.8°C | 18.4% | 182.1hPa | 2.5V | 00:00:00 | 00:00:00 | 00:00:00 | |
| DF8AY | 2026-09-04 14:17:47 | 53.89646 | 9.78036 | 93° | 203km/h | 12643m | -5.6m/s | -57.8°C | 15.6% | 182.2hPa | 2.5V | 08:09:03 | 01:58:46 | 00:00:00 | |
| DO2SHX-10 | 2026-09-04 14:17:46 | 53.89649 | 9.77949 | 93° | 199km/h | 12649m | -5.8m/s | -57.8°C | 18.3% | 181.9hPa | 2.5V | 08:07:00 | 01:58:45 | 00:00:00 | |
| DM0DOS-11 | 2026-09-04 14:17:45 | 53.89668 | 9.77436 | 93° | 197km/h | 12685m | -6.2m/s | -57.7°C | 16.3% | 181hPa | 2.5V | 08:07:42 | 01:58:39 | 00:00:00 | |
| BIOWL1-15 | 2026-09-04 14:17:45 | 53.89651 | 9.77864 | 93° | 201km/h | 12654m | -6.2m/s | -57.9°C | 15.1% | 181.8hPa | 2.5V | 08:08:12 | 01:58:44 | 00:00:00 | |
| DL1XH-west | 2026-09-04 14:17:43 | 53.89658 | 9.77693 | 94° | 201km/h | 12667m | -5.7m/s | -57.7°C | 14.6% | 181.5hPa | 2.6V | 08:08:12 | 01:58:42 | 00:00:00 | |
| AA1-15 | 2026-09-04 14:17:41 | 53.89665 | 9.77521 | 93° | 199km/h | 12678m | -6.1m/s | -57.8°C | 14% | 181.2hPa | 2.5V | 08:08:12 | 01:58:40 | 00:00:00 | |
| DL1XH1-15 | 2026-09-04 14:17:40 | 53.89677 | 9.77023 | 92° | 190km/h | 12717m | -6.4m/s | -57.7°C | 15.1% | 180hPa | 2.6V | 08:07:47 | 01:58:34 | 00:00:00 | |
| DB0DAN | 2026-09-04 14:17:40 | 53.89667 | 9.77436 | 93° | 188km/h | 12685m | -6.2m/s | -57.7°C | 10.2% | 181.01hPa | 2.5V | 00:00:00 | 00:00:00 | 00:00:00 | |
| DL1XH-15 | 2026-09-04 14:17:39 | 53.89679 | 9.76942 | 92° | 188km/h | 12724m | -7.1m/s | -57.7°C | 14.7% | 179.9hPa | 2.5V | 08:07:48 | 01:58:33 | 00:00:00 | |
| DF8AY | 2026-09-04 14:17:36 | 53.89676 | 9.77104 | 92° | 188km/h | 12710m | -7.4m/s | -57.7°C | 12.5% | 180.2hPa | 2.6V | 08:09:03 | 01:58:35 | 00:00:00 | |
| DM0DOS-11 | 2026-09-04 14:17:35 | 53.89688 | 9.76623 | 92° | 186km/h | 12752m | -6.2m/s | -57.8°C | 13.9% | 179hPa | 2.6V | 08:07:52 | 01:58:29 | 00:00:00 | |
| BIOWL1-15 | 2026-09-04 14:17:34 | 53.89679 | 9.76942 | 92° | 188km/h | 12724m | -7.1m/s | -57.7°C | 12% | 179.9hPa | 2.5V | 08:08:12 | 01:58:33 | 00:00:00 | |
| DL1XH-west | 2026-09-04 14:17:32 | 53.89683 | 9.76782 | 92° | 186km/h | 12738m | -7.2m/s | -57.7°C | 11.4% | 179.5hPa | 2.5V | 08:08:12 | 01:58:31 | 00:00:00 | |
| AA1-15 | 2026-09-04 14:17:30 | 53.89688 | 9.76623 | 93° | 186km/h | 12752m | -6.2m/s | -57.8°C | 10.8% | 179hPa | 2.6V | 08:08:12 | 01:58:29 | 00:00:00 | |
| DL1XH-15 | 2026-09-04 14:17:29 | 53.89698 | 9.76152 | 91° | 181km/h | 12791m | -6.2m/s | -57.4°C | 12.2% | 178hPa | 2.5V | 08:07:58 | 01:58:23 | 00:00:00 | |
| DO2JMG | 2026-09-04 14:17:28 | 53.89692 | 9.76464 | 92° | 184km/h | 12765m | -6.5m/s | -57.9°C | 10.2% | 178.7hPa | 2.6V | 08:08:12 | 01:58:27 | 00:00:00 | |
| DF5WG-10 | 2026-09-04 14:17:27 | 53.89693 | 9.76386 | 92° | 179km/h | 12772m | -7.0m/s | -57.7°C | 13.2% | 178.5hPa | 2.5V | 00:00:00 | 01:58:26 | 00:00:00 | |
| DB0DAN | 2026-09-04 14:17:25 | 53.89697 | 9.76230 | 92° | 173km/h | 12785m | -6.2m/s | -57.5°C | 7.3% | 178.17hPa | 2.5V | 00:00:00 | 00:00:00 | 00:00:00 | |
| DM0DOS-11 | 2026-09-04 14:17:25 | 53.89700 | 9.75850 | 90° | 173km/h | 12817m | -7m/s | -57.4°C | 11.5% | 177.2hPa | 2.5V | 08:08:02 | 01:58:19 | 00:00:00 | |
| DF8AY | 2026-09-04 14:17:25 | 53.89697 | 9.76230 | 92° | 183km/h | 12785m | -6.2m/s | -57.5°C | 9.3% | 178.2hPa | 2.5V | 08:09:03 | 01:58:24 | 00:00:00 | |
| BIOWL1-15 | 2026-09-04 14:17:23 | 53.89699 | 9.76075 | 91° | 179km/h | 12797m | -6.1m/s | -57.4°C | 8.8% | 177.8hPa | 2.6V | 08:08:12 | 01:58:22 | 00:00:00 | |
| DL1XH-west | 2026-09-04 14:17:21 | 53.89700 | 9.75925 | 90° | 173km/h | 12810m | -6.8m/s | -57.4°C | 8.3% | 177.4hPa | 2.6V | 08:08:12 | 01:58:20 | 00:00:00 | |
| AA1-15 | 2026-09-04 14:17:20 | 53.89700 | 9.75850 | 91° | 173km/h | 12817m | -7m/s | -57.4°C | 8.1% | 177.2hPa | 2.5V | 08:08:12 | 01:58:19 | 00:00:00 | |
| DL1XH-15 | 2026-09-04 14:17:19 | 53.89697 | 9.75409 | 88° | 173km/h | 12858m | -6.4m/s | -57.5°C | 10.5% | 176.1hPa | 2.6V | 08:08:08 | 01:58:13 | 00:00:00 | |
| DO2JMG | 2026-09-04 14:17:17 | 53.89700 | 9.75628 | 89° | 172km/h | 12837m | -7.3m/s | -57.5°C | 7.4% | 176.7hPa | 2.5V | 08:08:12 | 01:58:16 | 00:00:00 | |
| DF5WG-10 | 2026-09-04 14:17:17 | 53.89700 | 9.75628 | 89° | 172km/h | 12838m | -7.3m/s | -57.5°C | 11.1% | 176.7hPa | 2.5V | 00:00:00 | 01:58:16 | 00:00:00 | |
| SMARD9-15 | 2026-09-04 14:17:16 | 53.89699 | 9.75555 | 88° | 170km/h | 12845m | -7.7m/s | -57.5°C | 5.9% | 176.5hPa | 2.5V | 00:00:00 | 00:00:00 | 00:00:00 | |
| DM0DOS-11 | 2026-09-04 14:17:15 | 53.89690 | 9.75112 | 87° | 172km/h | 12883m | -6.1m/s | -57.4°C | 9.5% | 175.4hPa | 2.5V | 08:08:12 | 01:58:09 | 00:00:00 | |
| BIOWL1-15 | 2026-09-04 14:17:14 | 53.89694 | 9.75260 | 87° | 173km/h | 12870m | -6.3m/s | -57.6°C | 6.2% | 175.8hPa | 2.5V | 08:08:12 | 01:58:11 | 00:00:00 | |
| DL1XH-west | 2026-09-04 14:17:11 | 53.89692 | 9.75186 | 87° | 172km/h | 12877m | -6.4m/s | -57.5°C | 5.9% | 175.5hPa | 2.5V | 08:08:12 | 01:58:10 | 00:00:00 | |
| DB0DAN | 2026-09-04 14:17:10 | 53.89690 | 9.75112 | 87° | 162km/h | 12883m | -6.1m/s | -57.4°C | 4.9% | 175.38hPa | 2.5V | 00:00:00 | 00:00:00 | 00:00:00 | |
| DL1XH1-15 | 2026-09-04 14:17:10 | 53.89677 | 9.74745 | 85° | 172km/h | 12915m | -6.6m/s | -56.6°C | 8% | 174.5hPa | 2.5V | 08:08:17 | 01:58:04 | 00:00:00 | |
| AA1-15 | 2026-09-04 14:17:09 | 53.89688 | 9.75039 | 87° | 172km/h | 12889m | -6.6m/s | -57.3°C | 5.4% | 175.3hPa | 2.6V | 08:09:03 | 01:58:08 | 00:00:00 | |
| DO2JMG | 2026-09-04 14:17:06 | 53.89680 | 9.74818 | 85° | 172km/h | 12909m | -6.2m/s | -56.8°C | 4.6% | 174.7hPa | 2.5V | 08:09:03 | 01:58:05 | 00:00:00 | |
| DO2SHX-10 | 2026-09-04 14:17:06 | 53.89680 | 9.74818 | 86° | 172km/h | 12909m | -6.1m/s | -56.7°C | 8.3% | 174.6hPa | 2.6V | 00:00:00 | 01:58:05 | 00:00:00 | |
| BIOWL1-15 | 2026-09-04 14:17:05 | 53.89667 | 9.74524 | 86° | 175km/h | 12934m | -6.2m/s | -55.9°C | 3.6% | 174hPa | 2.6V | 08:09:03 | 01:58:01 | 00:00:00 | |
| DM0DOS-11 | 2026-09-04 14:17:05 | 53.89661 | 9.74376 | 85° | 172km/h | 12947m | -6m/s | -55.5°C | 7% | 173.6hPa | 2.6V | 08:08:22 | 01:57:59 | 00:00:00 | |
| DL1XH-west | 2026-09-04 14:17:01 | 53.89664 | 9.74450 | 85° | 173km/h | 12941m | -6.3m/s | -55.6°C | 3.5% | 173.8hPa | 2.6V | 08:09:03 | 01:58:00 | 00:00:00 | |
| DL1XH1-15 | 2026-09-04 14:17:00 | 53.89650 | 9.74006 | 87° | 173km/h | 12979m | -6.3m/s | -55.3°C | 6.5% | 172.7hPa | 2.6V | 08:08:27 | 01:57:54 | 00:00:00 | |
| DK1YY | 2026-09-04 14:17:00 | 53.89648 | 9.73932 | 87° | 173km/h | 12985m | -6.3m/s | -55.2°C | 2.9% | 172.6hPa | 2.6V | 00:00:00 | 00:00:00 | 00:00:00 | |
| DL1XH-15 | 2026-09-04 14:16:59 | 53.89648 | 9.73932 | 87° | 175km/h | 12985m | -6.3m/s | -55.2°C | 6.4% | 172.6hPa | 2.6V | 08:08:28 | 01:57:53 | 00:00:00 | |
| AA1-15 | 2026-09-04 14:16:59 | 53.89658 | 9.74303 | 87° | 172km/h | 12953m | -6.2m/s | -55.4°C | 3.3% | 173.5hPa | 2.5V | 08:09:03 | 01:57:58 | 00:00:00 | |
| DO2JMG | 2026-09-04 14:16:56 | 53.89652 | 9.74081 | 87° | 175km/h | 12972m | -6.2m/s | -55.3°C | 3.1% | 172.9hPa | 2.5V | 08:09:03 | 01:57:55 | 00:00:00 | |
| DB0DAN | 2026-09-04 14:16:55 | 53.89650 | 9.74006 | 87° | 166km/h | 12979m | -6.3m/s | -55.3°C | 2.9% | 172.75hPa | 2.6V | 00:00:00 | 00:00:00 | 00:00:00 | |
| DM0DOS-11 | 2026-09-04 14:16:55 | 53.89637 | 9.73630 | 86° | 173km/h | 13011m | -6.4m/s | -55.3°C | 6.5% | 171.9hPa | 2.5V | 08:08:32 | 01:57:49 | 00:00:00 | |
| BIOWL1-15 | 2026-09-04 14:16:52 | 53.89643 | 9.73781 | 86° | 177km/h | 12998m | -6.6m/s | -55.3°C | 2.9% | 172.2hPa | 2.5V | 08:09:03 | 01:57:51 | 00:00:00 | |
| DL1XH-west | 2026-09-04 14:16:51 | 53.89640 | 9.73705 | 86° | 177km/h | 13004m | -6.1m/s | -55.3°C | 2.9% | 172.1hPa | 2.5V | 08:09:03 | 01:57:50 | 00:00:00 | |
| DL1XH1-15 | 2026-09-04 14:16:50 | 53.89626 | 9.73263 | 87° | 168km/h | 13042m | -6.5m/s | -55.1°C | 6.5% | 171.1hPa | 2.5V | 08:08:37 | 01:57:44 | 00:00:00 | |
| DO2SHX-10 | 2026-09-04 14:16:50 | 53.89637 | 9.73630 | 87° | 173km/h | 13011m | -6.4m/s | -55.2°C | 6.5% | 171.9hPa | 2.5V | 00:00:00 | 01:57:49 | 00:00:00 | |
| DL1XH-15 | 2026-09-04 14:16:49 | 53.89624 | 9.73191 | 89° | 168km/h | 13049m | -6.2m/s | -55.1°C | 6.4% | 170.9hPa | 2.5V | 08:08:38 | 01:57:43 | 00:00:00 | |
| AA1-15 | 2026-09-04 14:16:48 | 53.89632 | 9.73482 | 87° | 173km/h | 13023m | -6m/s | -55.2°C | 3% | 171.6hPa | 2.6V | 08:09:03 | 01:57:47 | 00:00:00 | |
| DO2SHX-10 | 2026-09-04 14:16:47 | 53.89630 | 9.73408 | 87° | 170km/h | 13030m | -6.1m/s | -55.1°C | 6.5% | 171.3hPa | 2.6V | 08:08:00 | 01:57:46 | 00:00:00 | |
| DL1LOL-11 | 2026-09-04 14:16:46 | 53.89629 | 9.73408 | 88° | 173km/h | 13030m | -6.2m/s | -55.2°C | 2.9% | 171.4hPa | 2.6V | 00:00:00 | 00:00:00 | 00:00:00 | |
| DM0DOS-11 | 2026-09-04 14:16:45 | 53.89622 | 9.72902 | 88° | 166km/h | 13075m | -6.3m/s | -55°C | 6.5% | 170.2hPa | 2.6V | 08:08:42 | 01:57:39 | 00:00:00 | |
| DO2JMG | 2026-09-04 14:16:45 | 53.89625 | 9.73263 | 88° | 168km/h | 13042m | -6.5m/s | -55.1°C | 3% | 171.1hPa | 2.5V | 08:09:03 | 01:57:44 | 00:00:00 | |
| DF8AY | 2026-09-04 14:16:43 | 53.89624 | 9.73118 | 90° | 170km/h | 13055m | -6.8m/s | -55.1°C | 2.9% | 170.8hPa | 2.5V | 08:09:03 | 01:57:42 | 00:00:00 | |
| BIOWL1-15 | 2026-09-04 14:16:41 | 53.89623 | 9.72973 | 89° | 168km/h | 13069m | -6.6m/s | -55.1°C | 2.9% | 170.4hPa | 2.6V | 08:09:03 | 01:57:40 | 00:00:00 | |
| DB0DAN | 2026-09-04 14:16:40 | 53.89623 | 9.72902 | 89° | 159km/h | 13075m | -6.3m/s | -55°C | 2.9% | 170.2hPa | 2.6V | 00:00:00 | 00:00:00 | 00:00:00 | |
| DL1XH-west | 2026-09-04 14:16:40 | 53.89623 | 9.72902 | 89° | 166km/h | 13075m | -6.3m/s | -55°C | 2.9% | 170.2hPa | 2.6V | 08:09:03 | 01:57:39 | 00:00:00 | |
| DL1XH-15 | 2026-09-04 14:16:39 | 53.89613 | 9.72485 | 87° | 161km/h | 13114m | -6.8m/s | -55°C | 6.7% | 169.1hPa | 2.6V | 08:08:48 | 01:57:33 | 00:00:00 | |
| AA1-15 | 2026-09-04 14:16:37 | 53.89619 | 9.72691 | 87° | 162km/h | 13094m | -6.2m/s | -55°C | 3% | 169.7hPa | 2.5V | 08:09:03 | 01:57:36 | 00:00:00 | |
| DB0UT-7 | 2026-09-04 14:16:37 | 53.89619 | 9.72691 | 88° | 151km/h | 13095m | -6.1m/s | -54.9°C | 6.7% | 169.7hPa | 2.5V | 00:00:00 | 00:00:00 | 00:00:00 | |
| DM0DOS-11 | 2026-09-04 14:16:35 | 53.89607 | 9.72212 | 88° | 159km/h | 13142m | -7.2m/s | -55°C | 6.5% | 168.5hPa | 2.5V | 08:08:52 | 01:57:29 | 00:00:00 | |
| DO2JMG | 2026-09-04 14:16:35 | 53.89615 | 9.72553 | 87° | 159km/h | 13107m | -6.8m/s | -55°C | 2.9% | 169.4hPa | 2.5V | 08:09:03 | 01:57:34 | 00:00:00 | |
| DF8AY | 2026-09-04 14:16:32 | 53.89610 | 9.72348 | 87° | 161km/h | 13127m | -7m/s | -55.1°C | 2.9% | 168.9hPa | 2.6V | 08:09:03 | 01:57:31 | 00:00:00 | |
| DL1XH-west | 2026-09-04 14:16:30 | 53.89607 | 9.72212 | 89° | 159km/h | 13142m | -7.3m/s | -55°C | 2.9% | 168.5hPa | 2.5V | 08:09:03 | 01:57:29 | 00:00:00 | |
| DL1XH-15 | 2026-09-04 14:16:29 | 53.89610 | 9.71814 | 91° | 153km/h | 13188m | -6.5m/s | -54.2°C | 6% | 167.2hPa | 2.5V | 08:08:58 | 01:57:23 | 00:00:00 | |
| AA1-15 | 2026-09-04 14:16:27 | 53.89607 | 9.72011 | 91° | 153km/h | 13165m | -7.9m/s | -54.4°C | 2.7% | 167.8hPa | 2.6V | 08:09:03 | 01:57:26 | 00:00:00 | |
| DD8BA-10 | 2026-09-04 14:16:27 | 53.89607 | 9.72011 | 91° | 151km/h | 13166m | -7.9m/s | -54.4°C | 6.1% | 167.8hPa | 2.6V | 00:00:00 | 00:00:00 | 00:00:00 | |
| DB0DAN | 2026-09-04 14:16:25 | 53.89609 | 9.71880 | 91° | 146km/h | 13181m | -6.9m/s | -54.3°C | 2.6% | 167.34hPa | 2.6V | 00:00:00 | 00:00:00 | 00:00:00 | |
| DM0DOS-11 | 2026-09-04 14:16:25 | 53.89612 | 9.71553 | 90° | 151km/h | 13219m | -6.8m/s | -53.9°C | 5.8% | 166.4hPa | 2.6V | 08:09:02 | 01:57:19 | 00:00:00 | |
| DO2JMG | 2026-09-04 14:16:23 | 53.89610 | 9.71749 | 91° | 153km/h | 13195m | -7.6m/s | -54.2°C | 2.5% | 167hPa | 2.5V | 08:09:03 | 01:57:22 | 00:00:00 | |
| DF8AY | 2026-09-04 14:16:21 | 53.89612 | 9.71618 | 91° | 153km/h | 13212m | -7.9m/s | -54°C | 2.4% | 166.6hPa | 2.5V | 08:09:03 | 01:57:20 | 00:00:00 | |
| BIOWL1-15 | 2026-09-04 14:16:21 | 53.89612 | 9.71489 | 90° | 150km/h | 13226m | -6.8m/s | -53.7°C | 2.3% | 166.2hPa | 2.6V | 08:09:03 | 01:57:18 | 00:00:00 | |
| DL1XH-west | 2026-09-04 14:16:20 | 53.89612 | 9.71553 | 90° | 151km/h | 13219m | -6.8m/s | -53.9°C | 2.4% | 166.4hPa | 2.6V | 08:09:03 | 01:57:19 | 00:00:00 | |
| AA1-15 | 2026-09-04 14:16:16 | 53.89615 | 9.71300 | 92° | 146km/h | 13249m | -7.3m/s | -53.5°C | 2.2% | 165.6hPa | 2.5V | 08:09:54 | 01:57:15 | 00:00:00 | |
| DO2SHX-10 | 2026-09-04 14:16:16 | 53.89614 | 9.71300 | 93° | 144km/h | 13249m | -7.2m/s | -53.4°C | 5.6% | 165.6hPa | 2.5V | 00:00:00 | 01:57:15 | 00:00:00 | |
| DM0DOS-11 | 2026-09-04 14:16:15 | 53.89629 | 9.70936 | 94° | 141km/h | 13294m | -7.1m/s | -53.3°C | 5.4% | 164.4hPa | 2.5V | 08:09:12 | 01:57:09 | 00:00:00 | |
| DO2JMG | 2026-09-04 14:16:13 | 53.89621 | 9.71116 | 94° | 142km/h | 13271m | -7.6m/s | -53.3°C | 2.1% | 165.1hPa | 2.6V | 08:10:45 | 01:57:12 | 00:00:00 | |
| DF8AY | 2026-09-04 14:16:11 | 53.89626 | 9.70996 | 95° | 141km/h | 13287m | -7.8m/s | -53.3°C | 2% | 164.6hPa | 2.6V | 08:09:54 | 01:57:10 | 00:00:00 | |
| DB0DAN | 2026-09-04 14:16:10 | 53.89629 | 9.70936 | 95° | 133km/h | 13294m | -7.1m/s | -53.3°C | 2.2% | 164.42hPa | 2.5V | 00:00:00 | 00:00:00 | 00:00:00 | |
| DL1XH-15 | 2026-09-04 14:16:09 | 53.89645 | 9.70582 | 92° | 137km/h | 13341m | -7.7m/s | -53.4°C | 5.2% | 163.2hPa | 2.6V | 08:09:18 | 01:57:03 | 00:00:00 | |
| DL1XH-west | 2026-09-04 14:16:09 | 53.89632 | 9.70876 | 95° | 139km/h | 13301m | -7.9m/s | -53.3°C | 1.9% | 164.3hPa | 2.5V | 08:09:54 | 01:57:08 | 00:00:00 | |
| AA1-15 | 2026-09-04 14:16:05 | 53.89643 | 9.70641 | 93° | 137km/h | 13334m | -7.9m/s | -53.5°C | 1.8% | 163.4hPa | 2.6V | 08:09:54 | 01:57:04 | 00:00:00 | |
| DO2JMG | 2026-09-04 14:16:02 | 53.89647 | 9.70467 | 92° | 135km/h | 13358m | -8.3m/s | -53.3°C | 1.7% | 162.9hPa | 2.5V | 08:10:45 | 01:57:01 | 00:00:00 | |
| GOEST3-10 | 2026-09-04 14:16:02 | 53.89647 | 9.70467 | 92° | 130km/h | 13358m | -8.3m/s | -53.2°C | 5.1% | 162.8hPa | 2.5V | 00:00:00 | 01:57:01 | 00:00:00 | |
| DL1XH1-15 | 2026-09-04 14:16:00 | 53.89650 | 9.70084 | 89° | 122km/h | 13414m | -7.3m/s | -53°C | 4.9% | 161.4hPa | 2.5V | 08:09:27 | 01:56:54 | 00:00:00 | |
| DF8AY | 2026-09-04 14:16:00 | 53.89649 | 9.70354 | 91° | 130km/h | 13374m | -7.7m/s | -53.1°C | 1.5% | 162.5hPa | 2.5V | 08:09:54 | 01:56:59 | 00:00:00 | |
| BIOWL1-15 | 2026-09-04 14:16:00 | 53.89649 | 9.70299 | 91° | 128km/h | 13382m | -8.1m/s | -53.1°C | 1.5% | 162.2hPa | 2.6V | 08:09:54 | 01:56:58 | 00:00:00 | |
| DL1XH-west | 2026-09-04 14:15:58 | 53.89650 | 9.70244 | 91° | 128km/h | 13390m | -8.4m/s | -53°C | 1.5% | 162hPa | 2.6V | 08:09:54 | 01:56:57 | 00:00:00 | |
| DK1YY | 2026-09-04 14:15:58 | 53.89650 | 9.70190 | 89° | 124km/h | 13398m | -8.2m/s | -53.1°C | 1.9% | 161.8hPa | 2.6V | 00:00:00 | 00:00:00 | 00:00:00 | |
| BIOWL9-15 | 2026-09-04 14:15:56 | 53.89650 | 9.70137 | 89° | 122km/h | 13406m | -7.7m/s | -53.1°C | 2.0% | 161.6hPa | 2.6V | 00:00:00 | 00:00:00 | 00:00:00 | |
| DM0DOS-11 | 2026-09-04 14:15:55 | 53.89647 | 9.69824 | 88° | 120km/h | 13451m | -7m/s | -52.9°C | 4.9% | 160.5hPa | 2.6V | 08:09:32 | 01:56:49 | 00:00:00 | |
| AA1-15 | 2026-09-04 14:15:55 | 53.89650 | 9.70084 | 89° | 122km/h | 13414m | -7.3m/s | -53°C | 1.5% | 161.5hPa | 2.5V | 08:09:54 | 01:56:54 | 00:00:00 | |
| DB0DAN | 2026-09-04 14:15:55 | 53.89650 | 9.70084 | 89° | 117km/h | 13414m | -7.3m/s | -53°C | 2% | 161.46hPa | 2.5V | 00:00:00 | 00:00:00 | 00:00:00 | |
| DF8AY | 2026-09-04 14:15:50 | 53.89647 | 9.69824 | 88° | 120km/h | 13451m | -7m/s | -52.9°C | 1.5% | 160.5hPa | 2.6V | 08:09:54 | 01:56:49 | 00:00:00 | |
| BIOWL1-15 | 2026-09-04 14:15:49 | 53.89646 | 9.69773 | 88° | 119km/h | 13458m | -7m/s | -52.8°C | 1.5% | 160.4hPa | 2.5V | 08:09:54 | 01:56:48 | 00:00:00 | |
| DL1XH-west | 2026-09-04 14:15:47 | 53.89644 | 9.69672 | 88° | 119km/h | 13472m | -7m/s | -52.9°C | 1.5% | 160hPa | 2.5V | 08:09:54 | 01:56:46 | 00:00:00 | |
| DD8BA-10 | 2026-09-04 14:15:47 | 53.89644 | 9.69672 | 89° | 120km/h | 13473m | -6.9m/s | -52.8°C | 4.8% | 159.9hPa | 2.5V | 00:00:00 | 00:00:00 | 00:00:00 | |
| DM0DOS-11 | 2026-09-04 14:15:45 | 53.89632 | 9.69311 | 84° | 120km/h | 13526m | -6.9m/s | -53.3°C | 4.9% | 158.7hPa | 2.5V | 08:09:42 | 01:56:39 | 00:00:00 | |
| AA1-15 | 2026-09-04 14:15:44 | 53.89641 | 9.69518 | 87° | 120km/h | 13495m | -7.7m/s | -53.1°C | 1.5% | 159.4hPa | 2.6V | 08:09:54 | 01:56:43 | 00:00:00 | |
| DF5WG-10 | 2026-09-04 14:15:43 | 53.89639 | 9.69466 | 87° | 119km/h | 13503m | -7.5m/s | -53.1°C | 4.9% | 159.2hPa | 2.6V | 00:00:00 | 01:56:42 | 00:00:00 | |
| DO2SHX-10 | 2026-09-04 14:15:42 | 53.89637 | 9.69414 | 87° | 120km/h | 13511m | -7.9m/s | -53.1°C | 4.9% | 159.0hPa | 2.5V | 08:09:00 | 01:56:41 | 00:00:00 | |
| DB0DAN | 2026-09-04 14:15:40 | 53.89633 | 9.69311 | 85° | 115km/h | 13526m | -6.9m/s | -53.3°C | 2% | 158.65hPa | 2.5V | 00:00:00 | 00:00:00 | 00:00:00 | |
| DL1XH1-15 | 2026-09-04 14:15:40 | 53.89620 | 9.69062 | 84° | 117km/h | 13564m | -7.6m/s | -53.4°C | 5% | 157.7hPa | 2.5V | 08:09:47 | 01:56:34 | 00:00:00 | |
| DF8AY | 2026-09-04 14:15:40 | 53.89633 | 9.69311 | 85° | 120km/h | 13526m | -6.9m/s | -53.3°C | 1.6% | 158.7hPa | 2.5V | 08:09:54 | 01:56:39 | 00:00:00 | |
| BIOWL1-15 | 2026-09-04 14:15:38 | 53.89627 | 9.69210 | 85° | 117km/h | 13541m | -7.6m/s | -53.3°C | 1.6% | 158.3hPa | 2.6V | 08:09:54 | 01:56:37 | 00:00:00 | |
| DL1XH-west | 2026-09-04 14:15:37 | 53.89625 | 9.69161 | 85° | 117km/h | 13549m | -7.1m/s | -53.4°C | 1.6% | 158.1hPa | 2.6V | 08:09:54 | 01:56:36 | 00:00:00 | |
| DD8BA-10 | 2026-09-04 14:15:37 | 53.89625 | 9.69160 | 86° | 115km/h | 13549m | -7.1m/s | -53.3°C | 5.0% | 158.0hPa | 2.6V | 00:00:00 | 00:00:00 | 00:00:00 | |
| DM0DOS-11 | 2026-09-04 14:15:35 | 53.89602 | 9.68819 | 81° | 113km/h | 13601m | -7.6m/s | -53.7°C | 5% | 156.8hPa | 2.6V | 08:09:52 | 01:56:29 | 00:00:00 | |
| AA1-15 | 2026-09-04 14:15:33 | 53.89614 | 9.68963 | 83° | 115km/h | 13579m | -7.3m/s | -53.5°C | 1.6% | 157.4hPa | 2.5V | 08:09:54 | 01:56:32 | 00:00:00 | |
| DJ2DS-15 | 2026-09-04 14:15:33 | 53.89614 | 9.68963 | 84° | 117km/h | 13579m | -7.2m/s | -53.4°C | 5.0% | 157.3hPa | 2.5V | 00:00:00 | 01:56:32 | 00:00:00 | |
| GOEST3-10 | 2026-09-04 14:15:32 | 53.89610 | 9.68915 | 83° | 115km/h | 13586m | -7.0m/s | -53.5°C | 5.0% | 157.1hPa | 2.5V | 00:00:00 | 01:56:31 | 00:00:00 | |
| DL1XH1-15 | 2026-09-04 14:15:30 | 53.89574 | 9.68576 | 77° | 117km/h | 13640m | -8.6m/s | -53.9°C | 5.2% | 155.8hPa | 2.5V | 08:09:57 | 01:56:24 | 00:00:00 | |
| DF8AY | 2026-09-04 14:15:29 | 53.89598 | 9.68771 | 81° | 113km/h | 13609m | -8.1m/s | -53.7°C | 1.6% | 156.6hPa | 2.6V | 08:09:54 | 01:56:28 | 00:00:00 | |
| BIOWL1-15 | 2026-09-04 14:15:28 | 53.89593 | 9.68722 | 80° | 115km/h | 13617m | -8.1m/s | -53.8°C | 1.6% | 156.4hPa | 2.5V | 08:09:54 | 01:56:27 | 00:00:00 | |
| DL1XH-west | 2026-09-04 14:15:26 | 53.89581 | 9.68625 | 78° | 117km/h | 13632m | -7.1m/s | -53.9°C | 1.7% | 156hPa | 2.5V | 08:10:45 | 01:56:25 | 00:00:00 | |
| DO2SHX-10 | 2026-09-04 14:15:26 | 53.89581 | 9.68625 | 78° | 117km/h | 13633m | -7.0m/s | -53.8°C | 5.2% | 156.0hPa | 2.5V | 00:00:00 | 01:56:25 | 00:00:00 | |
| DM0DOS-11 | 2026-09-04 14:15:25 | 53.89543 | 9.68332 | 78° | 117km/h | 13679m | -7.6m/s | -54.1°C | 5.3% | 154.9hPa | 2.5V | 08:10:02 | 01:56:19 | 00:00:00 | |
| DB0DAN | 2026-09-04 14:15:25 | 53.89574 | 9.68576 | 77° | 111km/h | 13640m | -8.6m/s | -53.9°C | 2.1% | 155.84hPa | 2.5V | 00:00:00 | 00:00:00 | 00:00:00 | |
| AA1-15 | 2026-09-04 14:15:23 | 53.89561 | 9.68478 | 78° | 117km/h | 13657m | -7.4m/s | -54°C | 1.8% | 155.5hPa | 2.6V | 08:10:45 | 01:56:22 | 00:00:00 | |
| BIOWL1-15 | 2026-09-04 14:15:21 | 53.89525 | 9.68183 | 78° | 119km/h | 13702m | -8.3m/s | -54.3°C | 1.9% | 154.4hPa | 2.6V | 08:10:45 | 01:56:16 | 00:00:00 | |
| DL1XH1-15 | 2026-09-04 14:15:20 | 53.89513 | 9.68084 | 79° | 117km/h | 13719m | -7.8m/s | -54.3°C | 5.5% | 153.9hPa | 2.6V | 08:10:07 | 01:56:14 | 00:00:00 | |
| DF8AY | 2026-09-04 14:15:18 | 53.89531 | 9.68233 | 78° | 120km/h | 13695m | -7.3m/s | -54.3°C | 1.9% | 154.5hPa | 2.5V | 08:11:36 | 01:56:17 | 00:00:00 | |
| DO2SHX-10 | 2026-09-04 14:15:17 | 53.89525 | 9.68183 | 78° | 119km/h | 13703m | -8.2m/s | -54.3°C | 5.4% | 154.3hPa | 2.6V | 00:00:00 | 01:56:16 | 00:00:00 | |
| DM0DOS-11 | 2026-09-04 14:15:16 | 53.89487 | 9.67831 | 80° | 122km/h | 13759m | -8.5m/s | -53.9°C | 5.3% | 153hPa | 2.6V | 08:10:12 | 01:56:09 | 00:00:00 | |
| DL1XH-west | 2026-09-04 14:15:15 | 53.89513 | 9.68084 | 79° | 117km/h | 13719m | -7.8m/s | -54.3°C | 2% | 153.9hPa | 2.6V | 08:10:45 | 01:56:14 | 00:00:00 | |
| AA1-15 | 2026-09-04 14:15:12 | 53.89497 | 9.67934 | 80° | 120km/h | 13743m | -8.4m/s | -54.1°C | 1.9% | 153.4hPa | 2.5V | 08:10:45 | 01:56:11 | 00:00:00 | |
| GOEST3-10 | 2026-09-04 14:15:12 | 53.89497 | 9.67934 | 81° | 120km/h | 13743m | -8.4m/s | -54.0°C | 5.3% | 153.3hPa | 2.5V | 00:00:00 | 01:56:11 | 00:00:00 | |
| DB0DAN | 2026-09-04 14:15:10 | 53.89487 | 9.67831 | 81° | 117km/h | 13759m | -8.5m/s | -53.9°C | 2.1% | 152.98hPa | 2.6V | 00:00:00 | 00:00:00 | 00:00:00 | |
| DL1XH1-15 | 2026-09-04 14:15:10 | 53.89460 | 9.67576 | 78° | 120km/h | 13799m | -7.9m/s | -54°C | 5.3% | 152hPa | 2.5V | 08:10:17 | 01:56:04 | 00:00:00 | |
| DF8AY | 2026-09-04 14:15:08 | 53.89477 | 9.67729 | 80° | 120km/h | 13775m | -7.3m/s | -53.9°C | 1.9% | 152.6hPa | 2.6V | 08:11:36 | 01:56:07 | 00:00:00 | |
| BIOWL1-15 | 2026-09-04 14:15:07 | 53.89471 | 9.67678 | 80° | 120km/h | 13783m | -7.9m/s | -53.9°C | 1.9% | 152.4hPa | 2.5V | 08:10:45 | 01:56:06 | 00:00:00 | |
| DD8BA-10 | 2026-09-04 14:15:07 | 53.89471 | 9.67678 | 80° | 120km/h | 13783m | -7.9m/s | -53.9°C | 5.3% | 152.4hPa | 2.5V | 00:00:00 | 00:00:00 | 00:00:00 | |
| DM0DOS-11 | 2026-09-04 14:15:05 | 53.89429 | 9.67321 | 78° | 122km/h | 13841m | -8.5m/s | -53.8°C | 5.3% | 151.1hPa | 2.5V | 08:10:22 | 01:55:59 | 00:00:00 | |
| DL1XH-west | 2026-09-04 14:15:05 | 53.89460 | 9.67576 | 79° | 120km/h | 13799m | -7.9m/s | -54°C | 1.9% | 152hPa | 2.5V | 08:10:45 | 01:56:04 | 00:00:00 | |
| AA1-15 | 2026-09-04 14:15:02 | 53.89442 | 9.67423 | 78° | 122km/h | 13824m | -8m/s | -53.9°C | 1.9% | 151.4hPa | 2.6V | 08:10:45 | 01:56:01 | 00:00:00 | |
| DO2SHX-10 | 2026-09-04 14:15:02 | 53.89442 | 9.67423 | 79° | 122km/h | 13824m | -8.0m/s | -53.9°C | 5.3% | 151.4hPa | 2.6V | 00:00:00 | 01:56:01 | 00:00:00 | |
| DL1XH1-15 | 2026-09-04 14:15:00 | 53.89402 | 9.67065 | 80° | 124km/h | 13883m | -8.6m/s | -54.1°C | 5.4% | 150hPa | 2.6V | 08:10:27 | 01:55:54 | 00:00:00 | |
| BIOWL1-15 | 2026-09-04 14:14:59 | 53.89412 | 9.67169 | 80° | 122km/h | 13867m | -7.7m/s | -54°C | 1.9% | 150.4hPa | 2.5V | 08:10:45 | 01:55:56 | 00:00:00 | |
| DF8AY | 2026-09-04 14:14:58 | 53.89417 | 9.67219 | 79° | 120km/h | 13858m | -9m/s | -53.9°C | 1.9% | 150.6hPa | 2.5V | 08:11:36 | 01:55:57 | 00:00:00 | |
| DD8BA-10 | 2026-09-04 14:14:57 | 53.89412 | 9.67169 | 80° | 122km/h | 13867m | -7.6m/s | -53.9°C | 5.4% | 150.4hPa | 2.5V | 00:00:00 | 00:00:00 | 00:00:00 | |
| DB0DAN | 2026-09-04 14:14:55 | 53.89401 | 9.67065 | 81° | 119km/h | 13883m | -8.6m/s | -54.1°C | 2.2% | 150.05hPa | 2.6V | 00:00:00 | 00:00:00 | 00:00:00 | |
| DL1XH-west | 2026-09-04 14:14:55 | 53.89401 | 9.67065 | 81° | 124km/h | 13883m | -8.6m/s | -54.1°C | 1.9% | 150.1hPa | 2.6V | 08:10:45 | 01:55:54 | 00:00:00 | |
| DF8AY | 2026-09-04 14:14:53 | 53.89358 | 9.66708 | 75° | 119km/h | 13941m | -8.3m/s | -54.3°C | 1.7% | 148.7hPa | 2.6V | 08:11:36 | 01:55:47 | 00:00:00 | |
| DO2JMG | 2026-09-04 14:14:52 | 53.89385 | 9.66909 | 79° | 122km/h | 13909m | -8.4m/s | -54.2°C | 1.8% | 149.4hPa | 2.5V | 08:10:45 | 01:55:51 | 00:00:00 | |
| AA1-15 | 2026-09-04 14:14:51 | 53.89379 | 9.66858 | 78° | 122km/h | 13917m | -8.2m/s | -54.3°C | 1.9% | 149.2hPa | 2.5V | 08:10:45 | 01:55:50 | 00:00:00 | |
| DL1XH1-15 | 2026-09-04 14:14:50 | 53.89334 | 9.66563 | 74° | 117km/h | 13967m | -8.2m/s | -54.2°C | 5.3% | 148.1hPa | 2.5V | 08:10:37 | 01:55:44 | 00:00:00 | |
| DO2SHX-10 | 2026-09-04 14:14:50 | 53.89372 | 9.66807 | 77° | 119km/h | 13925m | -7.7m/s | -54.2°C | 5.3% | 149.0hPa | 2.5V | 00:00:00 | 01:55:49 | 00:00:00 | |
| DL1XH-15 | 2026-09-04 14:14:49 | 53.89326 | 9.66515 | 74° | 115km/h | 13974m | -6.1m/s | -54.3°C | 5.4% | 147.9hPa | 2.5V | 08:10:38 | 01:55:43 | 00:00:00 | |
| BIOWL1-15 | 2026-09-04 14:14:46 | 53.89342 | 9.66611 | 75° | 117km/h | 13958m | -9.3m/s | -54.2°C | 1.7% | 148.3hPa | 2.5V | 08:10:45 | 01:55:45 | 00:00:00 | |
| DM0DOS-11 | 2026-09-04 14:14:45 | 53.89301 | 9.66321 | 78° | 122km/h | 13997m | -6m/s | -54°C | 5.3% | 147.3hPa | 2.6V | 08:10:42 | 01:55:39 | 00:00:00 | |
| DL1XH-west | 2026-09-04 14:14:45 | 53.89334 | 9.66563 | 75° | 117km/h | 13967m | -8.2m/s | -54.2°C | 1.8% | 148.1hPa | 2.5V | 08:10:45 | 01:55:44 | 00:00:00 | |
| DO2JMG | 2026-09-04 14:14:41 | 53.89307 | 9.66371 | 78° | 119km/h | 13991m | -6.4m/s | -54.1°C | 1.8% | 147.5hPa | 2.6V | 08:10:45 | 01:55:40 | 00:00:00 | |
| DB0DAN | 2026-09-04 14:14:40 | 53.89300 | 9.66321 | 78° | 115km/h | 13997m | -6m/s | -54°C | 2.1% | 147.34hPa | 2.6V | 00:00:00 | 00:00:00 | 00:00:00 | |
| AA1-15 | 2026-09-04 14:14:40 | 53.89300 | 9.66321 | 78° | 122km/h | 13997m | -6m/s | -54°C | 1.8% | 147.3hPa | 2.6V | 08:10:45 | 01:55:39 | 00:00:00 | |
| DL1XH-15 | 2026-09-04 14:14:39 | 53.89255 | 9.66011 | 74° | 122km/h | 14042m | -8.8m/s | -53.8°C | 5.1% | 146.4hPa | 2.6V | 08:10:48 | 01:55:33 | 00:00:00 | |
| DF8AY | 2026-09-04 14:14:38 | 53.89286 | 9.66218 | 76° | 126km/h | 14010m | -6.8m/s | -53.9°C | 1.7% | 147.1hPa | 2.5V | 08:11:36 | 01:55:37 | 00:00:00 | |
| BIOWL1-15 | 2026-09-04 14:14:36 | 53.89271 | 9.66114 | 75° | 124km/h | 14025m | -7.9m/s | -53.8°C | 1.6% | 146.7hPa | 2.6V | 08:11:36 | 01:55:35 | 00:00:00 | |
| DM0DOS-11 | 2026-09-04 14:14:35 | 53.89224 | 9.65809 | 77° | 119km/h | 14072m | -7.2m/s | -54°C | 5.1% | 145.7hPa | 2.5V | 08:10:52 | 01:55:29 | 00:00:00 | |
| DL1XH-west | 2026-09-04 14:14:34 | 53.89255 | 9.66011 | 75° | 122km/h | 14042m | -8.8m/s | -53.8°C | 1.6% | 146.4hPa | 2.6V | 08:11:36 | 01:55:33 | 00:00:00 | |
| DO2JMG | 2026-09-04 14:14:31 | 53.89231 | 9.65859 | 76° | 120km/h | 14065m | -7.1m/s | -54°C | 1.6% | 145.8hPa | 2.5V | 08:12:27 | 01:55:30 | 00:00:00 | |
| DL1XH1-15 | 2026-09-04 14:14:30 | 53.89196 | 9.65557 | 80° | 119km/h | 14105m | -6.4m/s | -54.2°C | 5.1% | 144.9hPa | 2.5V | 08:10:57 | 01:55:24 | 00:00:00 | |
| AA1-15 | 2026-09-04 14:14:30 | 53.89224 | 9.65809 | 78° | 119km/h | 14072m | -7.2m/s | -54°C | 1.6% | 145.7hPa | 2.5V | 08:11:36 | 01:55:29 | 00:00:00 | |
| DF8AY | 2026-09-04 14:14:26 | 53.89201 | 9.65607 | 80° | 119km/h | 14099m | -6.8m/s | -54.1°C | 1.5% | 145.1hPa | 2.6V | 08:11:36 | 01:55:25 | 00:00:00 | |
| DO2SHX-10 | 2026-09-04 14:14:26 | 53.89201 | 9.65607 | 81° | 119km/h | 14099m | -6.7m/s | -54.1°C | 5.0% | 145.0hPa | 2.6V | 00:00:00 | 01:55:25 | 00:00:00 | |
| DM0DOS-11 | 2026-09-04 14:14:25 | 53.89172 | 9.65312 | 80° | 115km/h | 14136m | -5.8m/s | -54.1°C | 5.1% | 144.2hPa | 2.6V | 08:11:02 | 01:55:19 | 00:00:00 | |
| DB0DAN | 2026-09-04 14:14:25 | 53.89196 | 9.65557 | 80° | 113km/h | 14105m | -6.4m/s | -54.2°C | 1.9% | 144.91hPa | 2.5V | 00:00:00 | 00:00:00 | 00:00:00 | |
| BIOWL1-15 | 2026-09-04 14:14:25 | 53.89196 | 9.65557 | 80° | 119km/h | 14105m | -6.4m/s | -54.2°C | 1.5% | 144.9hPa | 2.5V | 08:11:36 | 01:55:24 | 00:00:00 | |
| DL1XH-west | 2026-09-04 14:14:23 | 53.89186 | 9.65458 | 80° | 117km/h | 14117m | -6m/s | -54.2°C | 1.5% | 144.6hPa | 2.5V | 08:11:36 | 01:55:22 | 00:00:00 | |
| DO2JMG | 2026-09-04 14:14:20 | 53.89172 | 9.65312 | 80° | 115km/h | 14137m | -5.8m/s | -54.1°C | 1.5% | 144.2hPa | 2.6V | 08:12:27 | 01:55:19 | 00:00:00 | |
| AA1-15 | 2026-09-04 14:14:19 | 53.89167 | 9.65263 | 80° | 117km/h | 14143m | -6.5m/s | -54.1°C | 1.6% | 144.1hPa | 2.6V | 08:11:36 | 01:55:18 | 00:00:00 | |
| BIOWL1-15 | 2026-09-04 14:14:17 | 53.89149 | 9.65062 | 82° | 120km/h | 14168m | -6.1m/s | -54.2°C | 1.6% | 143.5hPa | 2.6V | 08:11:36 | 01:55:14 | 00:00:00 | |
| DO2SHX-10 | 2026-09-04 14:14:17 | 53.89157 | 9.65164 | 82° | 120km/h | 14155m | -6.0m/s | -54.1°C | 5.2% | 143.8hPa | 2.5V | 08:11:00 | 01:55:16 | 00:00:00 | |
| DC4HF-4 | 2026-09-04 14:14:16 | 53.89153 | 9.65113 | 81° | 119km/h | 14162m | -6.8m/s | -54.2°C | 1.9% | 143.6hPa | 2.5V | 00:00:00 | 00:00:00 | 00:00:00 | |
| DM0DOS-11 | 2026-09-04 14:14:15 | 53.89129 | 9.64816 | 84° | 111km/h | 14201m | -5m/s | -54.3°C | 5.2% | 142.8hPa | 2.5V | 08:11:12 | 01:55:09 | 00:00:00 | |
| DL1XH-west | 2026-09-04 14:14:12 | 53.89135 | 9.64912 | 82° | 115km/h | 14189m | -6.4m/s | -54.3°C | 1.6% | 143.1hPa | 2.6V | 08:11:36 | 01:55:11 | 00:00:00 | |
| DB0DAN | 2026-09-04 14:14:10 | 53.89129 | 9.64816 | 85° | 106km/h | 14201m | -5m/s | -54.3°C | 1.9% | 142.76hPa | 2.5V | 00:00:00 | 00:00:00 | 00:00:00 | |
| DO2JMG | 2026-09-04 14:14:10 | 53.89129 | 9.64816 | 85° | 111km/h | 14202m | -5m/s | -54.3°C | 1.6% | 142.8hPa | 2.5V | 08:12:27 | 01:55:09 | 00:00:00 | |
| DL1XH-15 | 2026-09-04 14:14:09 | 53.89122 | 9.64527 | 89° | 115km/h | 14239m | -6.2m/s | -54.4°C | 5.2% | 141.9hPa | 2.5V | 08:11:18 | 01:55:03 | 00:00:00 | |
| AA1-15 | 2026-09-04 14:14:08 | 53.89125 | 9.64721 | 87° | 111km/h | 14213m | -5.6m/s | -54.4°C | 1.5% | 142.5hPa | 2.6V | 08:11:36 | 01:55:07 | 00:00:00 | |
| BIOWL1-15 | 2026-09-04 14:14:07 | 53.89122 | 9.64576 | 89° | 113km/h | 14232m | -6.3m/s | -54.4°C | 1.6% | 142.1hPa | 2.6V | 08:11:36 | 01:55:04 | 00:00:00 | |
| DL1XH-west | 2026-09-04 14:14:02 | 53.89121 | 9.64427 | 89° | 117km/h | 14251m | -6.6m/s | -54.5°C | 1.5% | 141.7hPa | 2.5V | 08:11:36 | 01:55:01 | 00:00:00 | |
| DF8AY | 2026-09-04 14:14:00 | 53.89119 | 9.64329 | 88° | 113km/h | 14264m | -6.3m/s | -54.4°C | 1.5% | 141.4hPa | 2.6V | 08:11:36 | 01:54:59 | 00:00:00 | |
| DL1XH-15 | 2026-09-04 14:13:59 | 53.89109 | 9.64043 | 86° | 110km/h | 14304m | -7.2m/s | -53.9°C | 5% | 140.4hPa | 2.6V | 08:11:28 | 01:54:53 | 00:00:00 | |
| DO2JMG | 2026-09-04 14:13:59 | 53.89118 | 9.64281 | 88° | 111km/h | 14271m | -6.4m/s | -54.4°C | 1.4% | 141.2hPa | 2.6V | 08:12:27 | 01:54:58 | 00:00:00 | |
| AA1-15 | 2026-09-04 14:13:58 | 53.89117 | 9.64233 | 87° | 111km/h | 14277m | -6.3m/s | -54.5°C | 1.5% | 141.1hPa | 2.6V | 08:11:36 | 01:54:57 | 00:00:00 | |
| BIOWL1-15 | 2026-09-04 14:13:55 | 53.89111 | 9.64090 | 86° | 111km/h | 14298m | -6.4m/s | -54.2°C | 1.4% | 140.6hPa | 2.5V | 08:11:36 | 01:54:54 | 00:00:00 | |
| DB0DAN | 2026-09-04 14:13:55 | 53.89111 | 9.64090 | 86° | 106km/h | 14298m | -6.4m/s | -54.2°C | 1.8% | 140.59hPa | 2.5V | 00:00:00 | 00:00:00 | 00:00:00 | |
| DL1XH-west | 2026-09-04 14:13:51 | 53.89106 | 9.63902 | 88° | 111km/h | 14324m | -6.6m/s | -53.8°C | 1.4% | 140hPa | 2.6V | 08:11:36 | 01:54:50 | 00:00:00 | |
| DL1XH1-15 | 2026-09-04 14:13:50 | 53.89101 | 9.63610 | 86° | 115km/h | 14365m | -6.6m/s | -54°C | 5% | 139.1hPa | 2.7V | 08:11:37 | 01:54:44 | 00:00:00 | |
| DF8AY | 2026-09-04 14:13:49 | 53.89105 | 9.63807 | 90° | 111km/h | 14337m | -6.5m/s | -53.9°C | 1.4% | 139.7hPa | 2.5V | 08:11:36 | 01:54:48 | 00:00:00 | |
| AA1-15 | 2026-09-04 14:13:48 | 53.89104 | 9.63709 | 88° | 115km/h | 14351m | -6.9m/s | -53.9°C | 1.4% | 139.4hPa | 2.6V | 08:11:36 | 01:54:46 | 00:00:00 | |
| S3001 | 2026-09-04 14:13:47 | 53.89099 | 9.63561 | 85° | 113km/h | 14371m | -6.7m/s | -54.0°C | 1.8% | 139.0hPa | 2.6V | 00:00:00 | 00:00:00 | 00:00:00 | |
| GOEST3-10 | 2026-09-04 14:13:46 | 53.89103 | 9.63660 | 88° | 113km/h | 14358m | -7.0m/s | -53.9°C | 5.0% | 139.2hPa | 2.6V | 00:00:00 | 00:00:00 | 00:00:00 | |
| DM0DOS-11 | 2026-09-04 14:13:45 | 53.89094 | 9.63371 | 89° | 110km/h | 14397m | -7m/s | -54.1°C | 5% | 138.4hPa | 2.6V | 08:11:42 | 01:54:39 | 00:00:00 | |
| DO2JMG | 2026-09-04 14:13:44 | 53.89099 | 9.63561 | 86° | 115km/h | 14371m | -6.7m/s | -54°C | 1.4% | 139hPa | 2.6V | 08:12:27 | 01:54:43 | 00:00:00 | |
| DL1XH-west | 2026-09-04 14:13:41 | 53.89094 | 9.63418 | 88° | 110km/h | 14391m | -6.3m/s | -54.1°C | 1.4% | 138.6hPa | 2.5V | 08:12:27 | 01:54:40 | 00:00:00 | |
| DB0DAN | 2026-09-04 14:13:40 | 53.89094 | 9.63371 | 90° | 104km/h | 14397m | -7.1m/s | -54.1°C | 1.8% | 138.4hPa | 2.6V | 00:00:00 | 00:00:00 | 00:00:00 | |
| DF8AY | 2026-09-04 14:13:39 | 53.89094 | 9.63324 | 91° | 111km/h | 14404m | -6.5m/s | -54.1°C | 1.5% | 138.2hPa | 2.7V | 08:12:27 | 01:54:38 | 00:00:00 | |
| AA1-15 | 2026-09-04 14:13:36 | 53.89093 | 9.63177 | 88° | 115km/h | 14423m | -6.5m/s | -54.1°C | 1.5% | 137.8hPa | 2.5V | 08:12:27 | 01:54:35 | 00:00:00 | |
| GOEST3-10 | 2026-09-04 14:13:36 | 53.89093 | 9.63177 | 88° | 117km/h | 14423m | -6.5m/s | -54.1°C | 5.1% | 137.8hPa | 2.6V | 00:00:00 | 00:00:00 | 00:00:00 | |
| BIOWL1-15 | 2026-09-04 14:13:36 | 53.89090 | 9.63078 | 86° | 117km/h | 14437m | -6.5m/s | -54.2°C | 1.5% | 137.6hPa | 2.5V | 08:12:27 | 01:54:33 | 00:00:00 | |
| DM0DOS-11 | 2026-09-04 14:13:35 | 53.89083 | 9.62877 | 87° | 115km/h | 14464m | -7.3m/s | -54.1°C | 5.1% | 137hPa | 2.6V | 08:11:52 | 01:54:29 | 00:00:00 | |
| DO2JMG | 2026-09-04 14:13:33 | 53.89088 | 9.63028 | 87° | 119km/h | 14443m | -6.7m/s | -54.2°C | 1.5% | 137.4hPa | 2.6V | 08:12:27 | 01:54:32 | 00:00:00 | |
| DJ2DS-15 | 2026-09-04 14:13:33 | 53.89088 | 9.63028 | 87° | 113km/h | 14443m | -6.6m/s | -54.2°C | 5.1% | 137.4hPa | 2.6V | 08:11:00 | 01:54:32 | 00:00:00 | |
| DO2SHX-10 | 2026-09-04 14:13:32 | 53.89086 | 9.62977 | 87° | 117km/h | 14450m | -6.5m/s | -54.2°C | 5.1% | 137.2hPa | 2.7V | 00:00:00 | 01:54:31 | 00:00:00 | |
| GOEST3-10 | 2026-09-04 14:13:31 | 53.89085 | 9.62927 | 87° | 115km/h | 14457m | -7.3m/s | -54.2°C | 5.2% | 137.1hPa | 2.7V | 00:00:00 | 01:54:30 | 00:00:00 | |
| DL1XH1-15 | 2026-09-04 14:13:30 | 53.89090 | 9.62637 | 96° | 111km/h | 14497m | -7m/s | -54°C | 5% | 136.3hPa | 2.7V | 08:11:57 | 01:54:24 | 00:00:00 | |
| DL1XH-west | 2026-09-04 14:13:30 | 53.89083 | 9.62877 | 88° | 115km/h | 14464m | -7.4m/s | -54.1°C | 1.5% | 137hPa | 2.6V | 08:12:27 | 01:54:29 | 00:00:00 | |
| DF8AY | 2026-09-04 14:13:28 | 53.89083 | 9.62780 | 92° | 113km/h | 14477m | -6.9m/s | -54.1°C | 1.5% | 136.7hPa | 2.5V | 08:12:27 | 01:54:27 | 00:00:00 | |
| AA1-15 | 2026-09-04 14:13:26 | 53.89086 | 9.62684 | 96° | 111km/h | 14490m | -7m/s | -54°C | 1.4% | 136.4hPa | 2.6V | 08:12:27 | 01:54:25 | 00:00:00 | |
| DO2SHX-10 | 2026-09-04 14:13:26 | 53.89086 | 9.62684 | 96° | 111km/h | 14490m | -6.9m/s | -54.0°C | 5.0% | 136.3hPa | 2.6V | 00:00:00 | 01:54:25 | 00:00:00 | |
| DM0DOS-11 | 2026-09-04 14:13:25 | 53.89101 | 9.62393 | 91° | 119km/h | 14528m | -6.5m/s | -54.1°C | 5% | 135.6hPa | 2.6V | 08:12:02 | 01:54:19 | 00:00:00 | |
| DB0DAN | 2026-09-04 14:13:25 | 53.89089 | 9.62637 | 97° | 106km/h | 14497m | -7m/s | -54°C | 1.9% | 136.27hPa | 2.7V | 00:00:00 | 00:00:00 | 00:00:00 | |
| BIOWL1-15 | 2026-09-04 14:13:23 | 53.89096 | 9.62542 | 96° | 113km/h | 14510m | -5.4m/s | -54°C | 1.4% | 135.9hPa | 2.6V | 08:12:27 | 01:54:22 | 00:00:00 | |
| DO2JMG | 2026-09-04 14:13:22 | 53.89098 | 9.62493 | 94° | 115km/h | 14516m | -6.5m/s | -54°C | 1.4% | 135.9hPa | 2.5V | 08:12:27 | 01:54:21 | 00:00:00 | |
| BIOWL9-15 | 2026-09-04 14:13:21 | 53.89101 | 9.62393 | 91° | 117km/h | 14528m | -6.5m/s | -54.1°C | 1.8% | 135.6hPa | 2.6V | 00:00:00 | 00:00:00 | 00:00:00 | |
| DL1XH1-15 | 2026-09-04 14:13:20 | 53.89101 | 9.62157 | 93° | 104km/h | 14561m | -5.8m/s | -54.2°C | 5.1% | 134.9hPa | 2.6V | 08:12:07 | 01:54:14 | 00:00:00 | |
| DL1XH-west | 2026-09-04 14:13:19 | 53.89101 | 9.62342 | 90° | 117km/h | 14535m | -6.9m/s | -54.2°C | 1.4% | 135.5hPa | 2.6V | 08:12:27 | 01:54:18 | 00:00:00 | |
| DF8AY | 2026-09-04 14:13:18 | 53.89101 | 9.62294 | 89° | 111km/h | 14542m | -6.7m/s | -54.3°C | 1.4% | 135.3hPa | 2.6V | 08:12:27 | 01:54:17 | 00:00:00 | |
| AA1-15 | 2026-09-04 14:13:16 | 53.89100 | 9.62201 | 91° | 104km/h | 14555m | -6.2m/s | -54.3°C | 1.4% | 135.1hPa | 2.5V | 08:12:27 | 01:54:15 | 00:00:00 | |
| S3001 | 2026-09-04 14:13:16 | 53.89101 | 9.62157 | 93° | 102km/h | 14561m | -5.8m/s | -54.2°C | 1.9% | 134.9hPa | 2.6V | 00:00:00 | 00:00:00 | 00:00:00 | |
| DM0DOS-11 | 2026-09-04 14:13:15 | 53.89111 | 9.61927 | 92° | 111km/h | 14592m | -6.5m/s | -54.3°C | 5.3% | 134.3hPa | 2.6V | 08:12:12 | 01:54:09 | 00:00:00 | |
| BIOWL1-15 | 2026-09-04 14:13:12 | 53.89108 | 9.62021 | 95° | 110km/h | 14580m | -5.9m/s | -54.3°C | 1.6% | 134.5hPa | 2.5V | 08:12:27 | 01:54:11 | 00:00:00 | |
| DO2JMG | 2026-09-04 14:13:11 | 53.89110 | 9.61974 | 94° | 111km/h | 14586m | -6.2m/s | -54.3°C | 1.6% | 134.4hPa | 2.5V | 08:12:27 | 01:54:10 | 00:00:00 | |
| DO2SHX-10 | 2026-09-04 14:13:11 | 53.89110 | 9.61974 | 94° | 111km/h | 14586m | -6.1m/s | -54.3°C | 5.2% | 134.3hPa | 2.5V | 08:12:00 | 01:54:10 | 00:00:00 | |
| DL1XH1-15 | 2026-09-04 14:13:10 | 53.89108 | 9.61694 | 85° | 100km/h | 14624m | -6.7m/s | -54.3°C | 5% | 133.5hPa | 2.5V | 08:12:17 | 01:54:04 | 00:00:00 | |
| DB0DAN | 2026-09-04 14:13:10 | 53.89112 | 9.61927 | 92° | 106km/h | 14592m | -6.5m/s | -54.3°C | 1.9% | 134.29hPa | 2.6V | 00:00:00 | 00:00:00 | 00:00:00 | |
| DL1XH-west | 2026-09-04 14:13:08 | 53.89113 | 9.61832 | 89° | 111km/h | 14604m | -6.9m/s | -54.2°C | 1.5% | 134hPa | 2.6V | 08:12:27 | 01:54:07 | 00:00:00 | |
| AA1-15 | 2026-09-04 14:13:05 | 53.89108 | 9.61694 | 85° | 100km/h | 14624m | -6.7m/s | -54.3°C | 1.4% | 133.5hPa | 2.5V | 08:12:27 | 01:54:04 | 00:00:00 | |
| BIOWL1-15 | 2026-09-04 14:13:02 | 53.89104 | 9.61575 | 89° | 88km/h | 14642m | -6.2m/s | -54.4°C | 1.4% | 133.2hPa | 2.7V | 08:12:27 | 01:54:01 | 00:00:00 | |
| DO2SHX-10 | 2026-09-04 14:13:02 | 53.89104 | 9.61575 | 90° | 88km/h | 14643m | -6.2m/s | -54.3°C | 5.1% | 133.2hPa | 2.7V | 00:00:00 | 01:54:01 | 00:00:00 | |
| GOEST3-10 | 2026-09-04 14:13:01 | 53.89104 | 9.61538 | 93° | 93km/h | 14649m | -7.2m/s | -54.2°C | 5.1% | 133.0hPa | 2.7V | 00:00:00 | 01:54:00 | 00:00:00 | |
| DL1XH1-15 | 2026-09-04 14:13:00 | 53.89123 | 9.61289 | 94° | 111km/h | 14690m | -6.4m/s | -54.1°C | 4.9% | 132.2hPa | 2.7V | 08:12:27 | 01:53:54 | 00:00:00 | |
| DO2JMG | 2026-09-04 14:13:00 | 53.89106 | 9.61501 | 95° | 88km/h | 14656m | -7m/s | -54.3°C | 1.5% | 132.8hPa | 2.6V | 08:12:27 | 01:53:59 | 00:00:00 | |
| DL1XH-west | 2026-09-04 14:12:58 | 53.89112 | 9.61423 | 99° | 95km/h | 14670m | -6.5m/s | -54.2°C | 1.5% | 132.6hPa | 2.5V | 08:12:27 | 01:53:57 | 00:00:00 | |
| DF8AY | 2026-09-04 14:12:56 | 53.89120 | 9.61336 | 98° | 108km/h | 14683m | -6.6m/s | -54.2°C | 1.4% | 132.3hPa | 2.6V | 08:12:27 | 01:53:55 | 00:00:00 | |
| AA1-15 | 2026-09-04 14:12:55 | 53.89123 | 9.61289 | 95° | 111km/h | 14690m | -6.4m/s | -54.2°C | 1.4% | 132.2hPa | 2.7V | 08:12:27 | 01:53:54 | 00:00:00 | |
| BIOWL1-15 | 2026-09-04 14:12:53 | 53.89120 | 9.61106 | 83° | 99km/h | 14715m | -6.9m/s | -54°C | 1.3% | 131.8hPa | 2.5V | 08:13:18 | 01:53:50 | 00:00:00 | |
| DO2SHX-10 | 2026-09-04 14:12:53 | 53.89124 | 9.61194 | 88° | 104km/h | 14703m | -6.3m/s | -54.0°C | 4.8% | 131.9hPa | 2.6V | 00:00:00 | 01:53:52 | 00:00:00 | |
| GOEST3-10 | 2026-09-04 14:12:51 | 53.89119 | 9.61106 | 84° | 91km/h | 14715m | -6.9m/s | -54.0°C | 4.8% | 131.7hPa | 2.6V | 00:00:00 | 01:53:50 | 00:00:00 | |
| DL1XH1-15 | 2026-09-04 14:12:50 | 53.89112 | 9.60879 | 93° | 88km/h | 14754m | -6.4m/s | -54.1°C | 5% | 130.9hPa | 2.6V | 08:12:37 | 01:53:44 | 00:00:00 | |
| DL1XH-west | 2026-09-04 14:12:48 | 53.89112 | 9.60989 | 86° | 86km/h | 14735m | -7.1m/s | -54°C | 1.4% | 131.3hPa | 2.6V | 08:13:18 | 01:53:47 | 00:00:00 | |
| DF8AY | 2026-09-04 14:12:45 | 53.89112 | 9.60879 | 93° | 88km/h | 14754m | -6.4m/s | -54.1°C | 1.3% | 130.9hPa | 2.6V | 08:13:18 | 01:53:44 | 00:00:00 | |
| AA1-15 | 2026-09-04 14:12:44 | 53.89114 | 9.60840 | 95° | 93km/h | 14761m | -6.2m/s | -54.1°C | 1.4% | 130.8hPa | 2.7V | 08:13:18 | 01:53:43 | 00:00:00 | |
| BIOWL1-15 | 2026-09-04 14:12:41 | 53.89116 | 9.60711 | 88° | 106km/h | 14779m | -6m/s | -54.3°C | 1.4% | 130.4hPa | 2.5V | 08:13:18 | 01:53:40 | 00:00:00 | |
| DB0DAN | 2026-09-04 14:12:40 | 53.89115 | 9.60665 | 85° | 100km/h | 14786m | -6.4m/s | -54.3°C | 1.7% | 130.28hPa | 2.6V | 00:00:00 | 00:00:00 | 00:00:00 | |
| DL1XH-15 | 2026-09-04 14:12:39 | 53.89098 | 9.60426 | 86° | 86km/h | 14825m | -6.7m/s | -54.3°C | 4.8% | 129.5hPa | 2.6V | 08:12:48 | 01:53:33 | 00:00:00 | |
| DO2JMG | 2026-09-04 14:12:38 | 53.89109 | 9.60579 | 82° | 99km/h | 14799m | -6.3m/s | -54.3°C | 1.2% | 130hPa | 2.6V | 08:13:18 | 01:53:37 | 00:00:00 | |
| DL1XH-west | 2026-09-04 14:12:37 | 53.89106 | 9.60538 | 81° | 93km/h | 14805m | -6.2m/s | -54.3°C | 1.3% | 129.9hPa | 2.6V | 08:13:18 | 01:53:36 | 00:00:00 | |
| DB0UT-7 | 2026-09-04 14:12:37 | 53.89106 | 9.60538 | 82° | 95km/h | 14805m | -6.1m/s | -54.3°C | 4.8% | 129.8hPa | 2.6V | 00:00:00 | 00:00:00 | 00:00:00 | |
| GOEST3-10 | 2026-09-04 14:12:36 | 53.89103 | 9.60500 | 83° | 88km/h | 14811m | -6.2m/s | -54.2°C | 4.7% | 129.7hPa | 2.6V | 00:00:00 | 00:00:00 | 00:00:00 | |
| DM0DOS-11 | 2026-09-04 14:12:35 | 53.89097 | 9.60270 | 92° | 97km/h | 14848m | -5.5m/s | -54.6°C | 5% | 129hPa | 2.6V | 08:12:52 | 01:53:29 | 00:00:00 | |
| DF8AY | 2026-09-04 14:12:35 | 53.89100 | 9.60463 | 84° | 86km/h | 14818m | -6.7m/s | -54.3°C | 1.2% | 129.6hPa | 2.5V | 08:13:18 | 01:53:34 | 00:00:00 | |
| AA1-15 | 2026-09-04 14:12:34 | 53.89098 | 9.60426 | 86° | 86km/h | 14825m | -6.7m/s | -54.3°C | 1.2% | 129.5hPa | 2.6V | 08:13:18 | 01:53:33 | 00:00:00 | |
| BIOWL1-15 | 2026-09-04 14:12:30 | 53.89097 | 9.60270 | 93° | 97km/h | 14848m | -5.5m/s | -54.6°C | 1.3% | 129hPa | 2.6V | 08:13:18 | 01:53:29 | 00:00:00 | |
| DL4XJ-10 | 2026-09-04 14:12:30 | 53.89097 | 9.60270 | 93° | 97km/h | 14849m | -5.4m/s | -54.6°C | 0% | 0hPa | 2.5V | 00:00:00 | 00:00:00 | 00:00:00 | |
| DL1XH-15 | 2026-09-04 14:12:29 | 53.89100 | 9.60009 | 85° | 106km/h | 14885m | -6m/s | -54.8°C | 5% | 128.2hPa | 2.5V | 08:12:58 | 01:53:23 | 00:00:00 | |
| DO2JMG | 2026-09-04 14:12:28 | 53.89100 | 9.60186 | 93° | 100km/h | 14860m | -6.1m/s | -54.6°C | 1.4% | 128.7hPa | 2.5V | 08:13:18 | 01:53:27 | 00:00:00 | |
| DL1XH-west | 2026-09-04 14:12:26 | 53.89102 | 9.60099 | 90° | 104km/h | 14872m | -6.6m/s | -54.6°C | 1.4% | 128.5hPa | 2.7V | 08:13:18 | 01:53:25 | 00:00:00 | |
| DB0DAN | 2026-09-04 14:12:25 | 53.89101 | 9.60054 | 88° | 100km/h | 14879m | -6.3m/s | -54.7°C | 1.8% | 128.36hPa | 2.6V | 00:00:00 | 00:00:00 | 00:00:00 | |
| DM0DOS-11 | 2026-09-04 14:12:25 | 53.89083 | 9.59840 | 78° | 95km/h | 14910m | -5.5m/s | -54.9°C | 5% | 127.7hPa | 2.6V | 08:13:02 | 01:53:19 | 00:00:00 | |
| DF8AY | 2026-09-04 14:12:24 | 53.89100 | 9.60009 | 85° | 106km/h | 14885m | -6m/s | -54.8°C | 1.3% | 128.2hPa | 2.5V | 08:13:18 | 01:53:23 | 00:00:00 | |
| AA1-15 | 2026-09-04 14:12:23 | 53.89097 | 9.59965 | 82° | 104km/h | 14891m | -6.5m/s | -54.8°C | 1.3% | 128.1hPa | 2.6V | 08:13:18 | 01:53:22 | 00:00:00 | |
| DO2SHX-10 | 2026-09-04 14:12:23 | 53.89097 | 9.59965 | 82° | 100km/h | 14891m | -6.4m/s | -54.7°C | 5.0% | 128.1hPa | 2.7V | 00:00:00 | 01:53:22 | 00:00:00 | |
| GOEST3-10 | 2026-09-04 14:12:21 | 53.89088 | 9.59880 | 78° | 93km/h | 14904m | -6.0m/s | -54.8°C | 5.0% | 127.8hPa | 2.7V | 00:00:00 | 01:53:20 | 00:00:00 | |
| DL1XH1-15 | 2026-09-04 14:12:20 | 53.89067 | 9.59650 | 88° | 88km/h | 14940m | -6.2m/s | -55.3°C | 5.1% | 127.2hPa | 2.7V | 08:13:07 | 01:53:14 | 00:00:00 | |
| BIOWL1-15 | 2026-09-04 14:12:19 | 53.89078 | 9.59801 | 79° | 93km/h | 14915m | -5.9m/s | -55°C | 1.3% | 127.6hPa | 2.6V | 08:13:18 | 01:53:18 | 00:00:00 | |
| DO2JMG | 2026-09-04 14:12:17 | 53.89071 | 9.59724 | 83° | 88km/h | 14928m | -6.4m/s | -55.1°C | 1.2% | 127.4hPa | 2.6V | 08:13:18 | 01:53:16 | 00:00:00 | |
| DL1XH-west | 2026-09-04 14:12:16 | 53.89069 | 9.59687 | 86° | 88km/h | 14934m | -6.1m/s | -55.2°C | 1.2% | 127.2hPa | 2.7V | 08:13:18 | 01:53:15 | 00:00:00 | |
| GOEST3-10 | 2026-09-04 14:12:16 | 53.89069 | 9.59687 | 86° | 88km/h | 14934m | -6.0m/s | -55.2°C | 5.0% | 127.2hPa | 2.6V | 00:00:00 | 00:00:00 | 00:00:00 | |
| DM0DOS-11 | 2026-09-04 14:12:15 | 53.89067 | 9.59459 | 88° | 95km/h | 14972m | -6m/s | -55.3°C | 5.2% | 126.5hPa | 2.6V | 08:13:12 | 01:53:09 | 00:00:00 | |
| AA1-15 | 2026-09-04 14:12:13 | 53.89067 | 9.59576 | 91° | 88km/h | 14953m | -6.9m/s | -55.3°C | 1.3% | 126.9hPa | 2.5V | 08:13:18 | 01:53:12 | 00:00:00 | |
| DF8AY | 2026-09-04 14:12:12 | 53.89068 | 9.59538 | 91° | 89km/h | 14960m | -6.4m/s | -55.3°C | 1.3% | 126.7hPa | 2.6V | 08:13:18 | 01:53:11 | 00:00:00 | |
| DB0DAN | 2026-09-04 14:12:10 | 53.89067 | 9.59459 | 89° | 91km/h | 14972m | -6m/s | -55.3°C | 1.8% | 126.49hPa | 2.6V | 00:00:00 | 00:00:00 | 00:00:00 | |
| DL1XH1-15 | 2026-09-04 14:12:10 | 53.89061 | 9.59241 | 90° | 106km/h | 15003m | -6.2m/s | -55.3°C | 5.1% | 125.9hPa | 2.5V | 08:13:17 | 01:53:04 | 00:00:00 | |
| DL1XH-15 | 2026-09-04 14:12:09 | 53.89062 | 9.59196 | 92° | 108km/h | 15009m | -5.3m/s | -55.2°C | 5.1% | 125.8hPa | 2.6V | 08:13:18 | 01:53:03 | 00:00:00 | |
| BIOWL1-15 | 2026-09-04 14:12:09 | 53.89067 | 9.59417 | 87° | 99km/h | 14978m | -6.1m/s | -55.3°C | 1.3% | 126.4hPa | 2.7V | 08:13:18 | 01:53:08 | 00:00:00 | |
| DL1XH-west | 2026-09-04 14:12:06 | 53.89062 | 9.59286 | 88° | 104km/h | 14997m | -6.8m/s | -55.3°C | 1.2% | 126hPa | 2.5V | 08:13:18 | 01:53:05 | 00:00:00 | |
| AA1-15 | 2026-09-04 14:12:02 | 53.89065 | 9.59102 | 93° | 110km/h | 15021m | -5.8m/s | -55.2°C | 1.3% | 125.5hPa | 2.7V | 08:14:09 | 01:53:01 | 00:00:00 | |
| DF8AY | 2026-09-04 14:12:01 | 53.89066 | 9.59055 | 92° | 110km/h | 15027m | -6.6m/s | -55.2°C | 1.3% | 125.4hPa | 2.7V | 08:14:09 | 01:53:00 | 00:00:00 | |
| GOEST3-10 | 2026-09-04 14:12:01 | 53.89066 | 9.59055 | 92° | 108km/h | 15027m | -6.6m/s | -55.2°C | 5.2% | 125.4hPa | 2.7V | 00:00:00 | 01:53:00 | 00:00:00 | |
| DL1XH1-15 | 2026-09-04 14:12:00 | 53.89058 | 9.58782 | 83° | 104km/h | 15065m | -6.8m/s | -55°C | 5% | 124.7hPa | 2.7V | 08:13:27 | 01:52:54 | 00:00:00 | |
| BIOWL1-15 | 2026-09-04 14:12:00 | 53.89065 | 9.58916 | 87° | 106km/h | 15046m | -6.1m/s | -55.2°C | 1.2% | 125.1hPa | 2.5V | 08:14:09 | 01:52:57 | 00:00:00 | |
| DL1XH-15 | 2026-09-04 14:11:59 | 53.89055 | 9.58738 | 82° | 102km/h | 15072m | -6.8m/s | -55°C | 5% | 124.5hPa | 2.7V | 08:13:28 | 01:52:53 | 00:00:00 | |
| D01LWL | 2026-09-04 14:11:56 | 53.89058 | 9.58782 | 83° | 102km/h | 15065m | -6.8m/s | -55.0°C | 1.7% | 124.7hPa | 2.7V | 00:00:00 | 00:00:00 | 00:00:00 | |
| DB0DAN | 2026-09-04 14:11:55 | 53.89058 | 9.58782 | 84° | 99km/h | 15065m | -6.8m/s | -55°C | 1.7% | 124.69hPa | 2.7V | 00:00:00 | 00:00:00 | 00:00:00 | |
| DL1XH-west | 2026-09-04 14:11:55 | 53.89058 | 9.58782 | 84° | 104km/h | 15065m | -6.8m/s | -55°C | 1.2% | 124.7hPa | 2.7V | 08:14:09 | 01:52:54 | 00:00:00 | |
| AA1-15 | 2026-09-04 14:11:51 | 53.89045 | 9.58614 | 82° | 91km/h | 15092m | -6.9m/s | -55°C | 1.1% | 124.2hPa | 2.5V | 08:14:09 | 01:52:50 | 00:00:00 | |
| GOEST3-10 | 2026-09-04 14:11:51 | 53.89045 | 9.58614 | 83° | 86km/h | 15092m | -6.9m/s | -55.0°C | 5.0% | 124.1hPa | 2.7V | 00:00:00 | 01:52:50 | 00:00:00 | |
| DL1XH-15 | 2026-09-04 14:11:49 | 53.89037 | 9.58356 | 91° | 93km/h | 15139m | -5.7m/s | -54.6°C | 4.9% | 123.2hPa | 2.7V | 08:13:38 | 01:52:43 | 00:00:00 | |
| BIOWL1-15 | 2026-09-04 14:11:49 | 53.89037 | 9.58468 | 88° | 84km/h | 15119m | -6.8m/s | -54.9°C | 1.1% | 123.6hPa | 2.5V | 08:14:09 | 01:52:46 | 00:00:00 | |
| DL1XH-west | 2026-09-04 14:11:45 | 53.89037 | 9.58395 | 91° | 89km/h | 15133m | -6.4m/s | -54.7°C | 1% | 123.4hPa | 2.6V | 08:14:09 | 01:52:44 | 00:00:00 | |
| DO2JMG | 2026-09-04 14:11:44 | 53.89037 | 9.58356 | 92° | 93km/h | 15139m | -5.7m/s | -54.6°C | 1% | 123.3hPa | 2.7V | 08:16:42 | 01:52:43 | 00:00:00 | |
| DO2SHX-10 | 2026-09-04 14:11:44 | 53.89037 | 9.58356 | 92° | 99km/h | 15139m | -5.7m/s | -54.6°C | 4.9% | 123.2hPa | 2.6V | 00:00:00 | 01:52:43 | 00:00:00 | |
| S3001 | 2026-09-04 14:11:42 | 53.89039 | 9.58271 | 90° | 102km/h | 15151m | -6.0m/s | -54.5°C | 1.5% | 123.0hPa | 2.6V | 00:00:00 | 00:00:00 | 00:00:00 | |
| DB0DAN | 2026-09-04 14:11:40 | 53.89039 | 9.58183 | 90° | 99km/h | 15163m | -6.3m/s | -54.2°C | 1.5% | 122.75hPa | 2.6V | 00:00:00 | 00:00:00 | 00:00:00 | |
| AA1-15 | 2026-09-04 14:11:40 | 53.89039 | 9.58183 | 90° | 104km/h | 15163m | -6.3m/s | -54.2°C | 0.9% | 122.8hPa | 2.6V | 08:14:09 | 01:52:39 | 00:00:00 | |
| BIOWL1-15 | 2026-09-04 14:11:36 | 53.89037 | 9.58007 | 86° | 102km/h | 15189m | -7.3m/s | -53.8°C | 0.9% | 122.3hPa | 2.7V | 08:14:09 | 01:52:35 | 00:00:00 | |
| DD8BA-10 | 2026-09-04 14:11:36 | 53.89037 | 9.58007 | 87° | 97km/h | 15189m | -7.3m/s | -53.8°C | 4.7% | 122.2hPa | 2.7V | 00:00:00 | 00:00:00 | 00:00:00 | |
| DM0DOS-11 | 2026-09-04 14:11:35 | 53.89018 | 9.57758 | 81° | 91km/h | 15226m | -6.9m/s | -53.9°C | 4.7% | 121.5hPa | 2.7V | 08:13:52 | 01:52:29 | 00:00:00 | |
| DL1XH-west | 2026-09-04 14:11:35 | 53.89035 | 9.57963 | 85° | 102km/h | 15196m | -6.5m/s | -53.8°C | 0.9% | 122.1hPa | 2.6V | 08:14:09 | 01:52:34 | 00:00:00 | |
| DO2JMG | 2026-09-04 14:11:34 | 53.89032 | 9.57920 | 83° | 102km/h | 15202m | -6m/s | -53.8°C | 0.9% | 122hPa | 2.5V | 08:16:42 | 01:52:33 | 00:00:00 | |
| DJ2DS-15 | 2026-09-04 14:11:33 | 53.89029 | 9.57877 | 82° | 89km/h | 15208m | -5.8m/s | -53.8°C | 4.7% | 121.9hPa | 2.5V | 00:00:00 | 01:52:32 | 00:00:00 | |
| DF5WG-10 | 2026-09-04 14:11:32 | 53.89025 | 9.57836 | 82° | 91km/h | 15214m | -6.1m/s | -53.8°C | 4.8% | 121.8hPa | 2.6V | 00:00:00 | 01:52:31 | 00:00:00 | |
| GOEST3-10 | 2026-09-04 14:11:31 | 53.89021 | 9.57797 | 82° | 91km/h | 15220m | -5.5m/s | -53.8°C | 4.8% | 121.6hPa | 2.6V | 00:00:00 | 01:52:30 | 00:00:00 | |
| DL1XH1-15 | 2026-09-04 14:11:30 | 53.89006 | 9.57565 | 87° | 91km/h | 15258m | -6m/s | -53.4°C | 4.6% | 120.9hPa | 2.6V | 08:13:57 | 01:52:24 | 00:00:00 | |
| DF8AY | 2026-09-04 14:11:29 | 53.89015 | 9.57720 | 82° | 91km/h | 15233m | -7m/s | -53.8°C | 0.9% | 121.5hPa | 2.7V | 08:14:09 | 01:52:28 | 00:00:00 | |
| BIOWL1-15 | 2026-09-04 14:11:29 | 53.89006 | 9.57565 | 87° | 91km/h | 15258m | -6m/s | -53.4°C | 0.8% | 120.9hPa | 2.6V | 08:14:09 | 01:52:24 | 00:00:00 | |
| DO2SHX-10 | 2026-09-04 14:11:29 | 53.89015 | 9.57720 | 82° | 91km/h | 15233m | -7.0m/s | -53.8°C | 4.8% | 121.4hPa | 2.6V | 00:00:00 | 01:52:28 | 00:00:00 | |
| DB0DAN | 2026-09-04 14:11:25 | 53.89006 | 9.57565 | 87° | 88km/h | 15258m | -6m/s | -53.4°C | 1.4% | 120.94hPa | 2.6V | 00:00:00 | 00:00:00 | 00:00:00 | |
| DM0DOS-11 | 2026-09-04 14:11:25 | 53.89005 | 9.57374 | 92° | 86km/h | 15290m | -7.1m/s | -53.1°C | 4.6% | 120.4hPa | 2.6V | 08:14:02 | 01:52:19 | 00:00:00 | |
| DL1XH-west | 2026-09-04 14:11:24 | 53.89005 | 9.57525 | 88° | 91km/h | 15263m | -5.9m/s | -53.3°C | 0.8% | 120.8hPa | 2.7V | 08:14:09 | 01:52:23 | 00:00:00 | |
| DO2JMG | 2026-09-04 14:11:23 | 53.89005 | 9.57486 | 89° | 91km/h | 15270m | -6.3m/s | -53.3°C | 0.8% | 120.7hPa | 2.6V | 08:16:42 | 01:52:22 | 00:00:00 | |
| DL4XJ-10 | 2026-09-04 14:11:23 | 53.89005 | 9.57486 | 90° | 84km/h | 15269m | -6.3m/s | -53.3°C | 0% | 0hPa | 2.5V | 00:00:00 | 00:00:00 | 00:00:00 | |
| DF5WG-10 | 2026-09-04 14:11:22 | 53.89004 | 9.57448 | 90° | 88km/h | 15276m | -6.3m/s | -53.1°C | 4.5% | 120.5hPa | 2.5V | 00:00:00 | 01:52:21 | 00:00:00 | |
| GOEST3-10 | 2026-09-04 14:11:21 | 53.89004 | 9.57410 | 91° | 86km/h | 15283m | -7.0m/s | -53.0°C | 4.5% | 120.4hPa | 2.5V | 00:00:00 | 01:52:20 | 00:00:00 | |
| DL1XH1-15 | 2026-09-04 14:11:20 | 53.89005 | 9.57186 | 84° | 89km/h | 15323m | -6.6m/s | -52.6°C | 4.4% | 119.7hPa | 2.5V | 08:14:07 | 01:52:14 | 00:00:00 | |
| DO2SHX-10 | 2026-09-04 14:11:20 | 53.89005 | 9.57374 | 93° | 86km/h | 15290m | -7.1m/s | -53.0°C | 4.6% | 120.3hPa | 2.6V | 00:00:00 | 01:52:19 | 00:00:00 | |
| DL1XH-15 | 2026-09-04 14:11:19 | 53.89003 | 9.57148 | 82° | 89km/h | 15330m | -6.7m/s | -52.5°C | 4.3% | 119.6hPa | 2.6V | 08:14:08 | 01:52:13 | 00:00:00 | |
| AA1-15 | 2026-09-04 14:11:19 | 53.89006 | 9.57337 | 93° | 86km/h | 15297m | -7.4m/s | -52.9°C | 0.7% | 120.2hPa | 2.7V | 08:14:09 | 01:52:18 | 00:00:00 | |
| BIOWL1-15 | 2026-09-04 14:11:19 | 53.89005 | 9.57186 | 85° | 89km/h | 15323m | -6.6m/s | -52.6°C | 0.7% | 119.7hPa | 2.5V | 08:14:09 | 01:52:14 | 00:00:00 | |
| DF8AY | 2026-09-04 14:11:18 | 53.89007 | 9.57300 | 92° | 88km/h | 15304m | -7.1m/s | -52.8°C | 0.7% | 120.1hPa | 2.7V | 08:14:09 | 01:52:17 | 00:00:00 | |
| DL1XH-west | 2026-09-04 14:11:13 | 53.89000 | 9.57111 | 82° | 89km/h | 15336m | -6.3m/s | -52.5°C | 0.6% | 119.4hPa | 2.6V | 08:14:09 | 01:52:12 | 00:00:00 | |
| DJ2DS-15 | 2026-09-04 14:11:13 | 53.89000 | 9.57110 | 82° | 82km/h | 15337m | -6.2m/s | -52.4°C | 4.2% | 119.4hPa | 2.7V | 00:00:00 | 01:52:12 | 00:00:00 | |
| DF5WG-10 | 2026-09-04 14:11:12 | 53.88996 | 9.57073 | 80° | 80km/h | 15343m | -7.4m/s | -52.3°C | 4.2% | 119.3hPa | 2.7V | 00:00:00 | 01:52:11 | 00:00:00 | |
| DB0DAN | 2026-09-04 14:11:10 | 53.88988 | 9.57001 | 79° | 78km/h | 15358m | -7.7m/s | -52.2°C | 1.3% | 119.09hPa | 2.7V | 00:00:00 | 00:00:00 | 00:00:00 | |
| DL1XH1-15 | 2026-09-04 14:11:10 | 53.88976 | 9.56835 | 85° | 78km/h | 15390m | -6.7m/s | -52.1°C | 4.2% | 118.4hPa | 2.7V | 08:14:17 | 01:52:04 | 00:00:00 | |
| GOEST3-10 | 2026-09-04 14:11:10 | 53.88988 | 9.57001 | 80° | 78km/h | 15358m | -7.6m/s | -52.2°C | 4.2% | 119.0hPa | 2.7V | 08:14:00 | 01:52:09 | 00:00:00 | |
| DL1XH-15 | 2026-09-04 14:11:09 | 53.88975 | 9.56801 | 86° | 80km/h | 15397m | -7m/s | -52°C | 4.2% | 118.3hPa | 2.7V | 08:14:18 | 01:52:03 | 00:00:00 | |
| BIOWL1-15 | 2026-09-04 14:11:09 | 53.88976 | 9.56835 | 86° | 78km/h | 15390m | -6.7m/s | -52.1°C | 0.6% | 118.4hPa | 2.7V | 08:15:00 | 01:52:04 | 00:00:00 | |
| AA1-15 | 2026-09-04 14:11:08 | 53.88982 | 9.56934 | 82° | 77km/h | 15372m | -6.1m/s | -52.1°C | 0.6% | 118.8hPa | 2.6V | 08:15:00 | 01:52:07 | 00:00:00 | |
| DO2SHX-10 | 2026-09-04 14:11:08 | 53.88982 | 9.56934 | 83° | 77km/h | 15372m | -6.0m/s | -52.1°C | 4.2% | 118.7hPa | 2.6V | 00:00:00 | 01:52:07 | 00:00:00 | |
| DB0UT-7 | 2026-09-04 14:11:07 | 53.88979 | 9.56901 | 85° | 80km/h | 15378m | -5.6m/s | -52.0°C | 4.2% | 118.6hPa | 2.6V | 00:00:00 | 01:52:06 | 00:00:00 | |
| DD8BA-10 | 2026-09-04 14:11:06 | 53.88977 | 9.56868 | 86° | 84km/h | 15384m | -6.7m/s | -52.0°C | 4.1% | 118.5hPa | 2.6V | 00:00:00 | 00:00:00 | 00:00:00 | |
| DM0DOS-11 | 2026-09-04 14:11:05 | 53.88966 | 9.56657 | 79° | 89km/h | 15422m | -6.2m/s | -51.9°C | 3.9% | 117.8hPa | 2.6V | 08:14:22 | 01:51:59 | 00:00:00 | |
| DL1XH-west | 2026-09-04 14:11:03 | 53.88973 | 9.56766 | 86° | 82km/h | 15404m | -6.4m/s | -52°C | 0.5% | 118.2hPa | 2.7V | 08:15:00 | 01:52:02 | 00:00:00 | |
| DL4XJ-10 | 2026-09-04 14:11:03 | 53.88973 | 9.56766 | 86° | 84km/h | 15404m | -6.4m/s | -52.0°C | 0% | 0hPa | 2.6V | 00:00:00 | 00:00:00 | 00:00:00 | |
| DO2SHX-10 | 2026-09-04 14:11:02 | 53.88972 | 9.56731 | 86° | 88km/h | 15410m | -5.9m/s | -51.9°C | 4.1% | 118.1hPa | 2.6V | 00:00:00 | 01:52:01 | 00:00:00 | |
| HTAHTA | 2026-09-04 14:11:01 | 53.88969 | 9.56694 | 82° | 86km/h | 15416m | -5.9m/s | -51.9°C | 1.2% | 118.0hPa | 2.6V | 00:00:00 | 00:00:00 | 00:00:00 | |
| DL1XH1-15 | 2026-09-04 14:11:00 | 53.88937 | 9.56482 | 76° | 77km/h | 15454m | -6.7m/s | -52°C | 4% | 117.3hPa | 2.6V | 08:14:27 | 01:51:54 | 00:00:00 | |
| GOEST3-10 | 2026-09-04 14:11:00 | 53.88966 | 9.56657 | 80° | 86km/h | 15422m | -6.2m/s | -51.9°C | 3.9% | 117.8hPa | 2.7V | 00:00:00 | 01:51:59 | 00:00:00 | |
| DL1XH-15 | 2026-09-04 14:10:59 | 53.88934 | 9.56451 | 80° | 75km/h | 15461m | -6.8m/s | -51.9°C | 4% | 117.1hPa | 2.7V | 08:14:28 | 01:51:53 | 00:00:00 | |
| AA1-15 | 2026-09-04 14:10:57 | 53.88949 | 9.56548 | 72° | 84km/h | 15441m | -6.8m/s | -51.9°C | 0.5% | 117.5hPa | 2.6V | 08:15:00 | 01:51:56 | 00:00:00 | |
| DB0DAN | 2026-09-04 14:10:55 | 53.88937 | 9.56482 | 76° | 73km/h | 15454m | -6.7m/s | -52°C | 1.2% | 117.27hPa | 2.6V | 00:00:00 | 00:00:00 | 00:00:00 | |
| DM0DOS-11 | 2026-09-04 14:10:55 | 53.88924 | 9.56313 | 83° | 86km/h | 15488m | -6.4m/s | -52.2°C | 4.1% | 116.7hPa | 2.6V | 08:14:32 | 01:51:49 | 00:00:00 | |
| BIOWL1-15 | 2026-09-04 14:10:54 | 53.88933 | 9.56451 | 80° | 75km/h | 15461m | -6.8m/s | -51.9°C | 0.5% | 117.1hPa | 2.7V | 08:15:00 | 01:51:53 | 00:00:00 | |
| DL1XH-west | 2026-09-04 14:10:52 | 53.88929 | 9.56385 | 85° | 80km/h | 15475m | -7.1m/s | -52°C | 0.5% | 116.9hPa | 2.7V | 08:15:00 | 01:51:51 | 00:00:00 | |
| DF5WG-10 | 2026-09-04 14:10:52 | 53.88929 | 9.56385 | 85° | 84km/h | 15475m | -7.0m/s | -52.0°C | 4.0% | 116.9hPa | 2.7V | 00:00:00 | 01:51:51 | 00:00:00 | |
| BIOWL7-15 | 2026-09-04 14:10:51 | 53.88929 | 9.56384 | 86° | 80km/h | 15475m | -7.1m/s | -52.0°C | 1.2% | 116.9hPa | 2.7V | 00:00:00 | 00:00:00 | 00:00:00 | |
| DL1XH1-15 | 2026-09-04 14:10:50 | 53.88906 | 9.56137 | 75° | 84km/h | 15522m | -7.8m/s | -52.3°C | 4.1% | 116hPa | 2.7V | 08:14:37 | 01:51:44 | 00:00:00 | |
| DO2SHX-10 | 2026-09-04 14:10:50 | 53.88924 | 9.56313 | 84° | 86km/h | 15488m | -6.4m/s | -52.1°C | 4.1% | 116.6hPa | 2.6V | 00:00:00 | 01:51:49 | 00:00:00 | |
| DL1XH-15 | 2026-09-04 14:10:49 | 53.88900 | 9.56102 | 73° | 82km/h | 15530m | -7.9m/s | -52.4°C | 4.1% | 115.9hPa | 2.6V | 08:14:38 | 01:51:43 | 00:00:00 | |
| AA1-15 | 2026-09-04 14:10:47 | 53.88915 | 9.56206 | 79° | 82km/h | 15508m | -6.8m/s | -52.3°C | 0.5% | 116.3hPa | 2.7V | 08:15:00 | 01:51:46 | 00:00:00 | |
| DO2SHX-10 | 2026-09-04 14:10:47 | 53.88914 | 9.56206 | 80° | 84km/h | 15509m | -6.8m/s | -52.3°C | 4.1% | 116.2hPa | 2.7V | 00:00:00 | 01:51:46 | 00:00:00 | |
| DD8BA-10 | 2026-09-04 14:10:46 | 53.88910 | 9.56171 | 79° | 78km/h | 15515m | -6.6m/s | -52.3°C | 4.2% | 116.1hPa | 2.7V | 00:00:00 | 00:00:00 | 00:00:00 | |
| DM0DOS-11 | 2026-09-04 14:10:45 | 53.88877 | 9.55977 | 78° | 71km/h | 15559m | -7.1m/s | -52.5°C | 4.2% | 115.4hPa | 2.7V | 08:14:42 | 01:51:39 | 00:00:00 | |
| BIOWL1-15 | 2026-09-04 14:10:45 | 53.88894 | 9.56069 | 71° | 80km/h | 15537m | -7.2m/s | -52.4°C | 0.6% | 115.8hPa | 2.6V | 08:15:00 | 01:51:42 | 00:00:00 | |
| DL1XH-west | 2026-09-04 14:10:42 | 53.88888 | 9.56037 | 71° | 77km/h | 15544m | -7.3m/s | -52.5°C | 0.6% | 115.7hPa | 2.6V | 08:15:00 | 01:51:41 | 00:00:00 | |
| DF5WG-10 | 2026-09-04 14:10:42 | 53.88888 | 9.56037 | 71° | 84km/h | 15545m | -7.3m/s | -52.4°C | 4.2% | 115.6hPa | 2.6V | 08:14:00 | 01:51:41 | 00:00:00 | |
| DO2SHX-10 | 2026-09-04 14:10:41 | 53.88882 | 9.56007 | 73° | 73km/h | 15552m | -7.2m/s | -52.5°C | 4.2% | 115.5hPa | 2.6V | 00:00:00 | 01:51:40 | 00:00:00 | |
| DL1XH1-15 | 2026-09-04 14:10:40 | 53.88870 | 9.55803 | 85° | 93km/h | 15592m | -7.5m/s | -52.6°C | 4.1% | 114.8hPa | 2.6V | 08:14:47 | 01:51:34 | 00:00:00 | |
| DB0DAN | 2026-09-04 14:10:40 | 53.88877 | 9.55977 | 78° | 68km/h | 15559m | -7.1m/s | -52.5°C | 1.3% | 115.39hPa | 2.7V | 00:00:00 | 00:00:00 | 00:00:00 | |
| DC4HF-4 | 2026-09-04 14:10:40 | 53.88874 | 9.55946 | 83° | 73km/h | 15566m | -5.8m/s | 0°C | -1.0% | -1.0hPa | 2.7V | 00:00:00 | 00:00:00 | 00:00:00 | |
| DL1XH-15 | 2026-09-04 14:10:39 | 53.88868 | 9.55763 | 82° | 95km/h | 15600m | -7.5m/s | -52.7°C | 4.1% | 114.7hPa | 2.7V | 08:14:48 | 01:51:33 | 00:00:00 | |
| AA1-15 | 2026-09-04 14:10:36 | 53.88871 | 9.55842 | 88° | 89km/h | 15585m | -7.2m/s | -52.6°C | 0.6% | 114.9hPa | 2.6V | 08:15:00 | 01:51:35 | 00:00:00 | |
| BIOWL1-15 | 2026-09-04 14:10:35 | 53.88864 | 9.55723 | 80° | 95km/h | 15607m | -6.7m/s | -52.8°C | 0.6% | 114.5hPa | 2.7V | 08:15:00 | 01:51:32 | 00:00:00 | |
| DL1XH-west | 2026-09-04 14:10:31 | 53.88854 | 9.55645 | 75° | 89km/h | 15620m | -7m/s | -52.8°C | 0.5% | 114.3hPa | 2.6V | 08:15:00 | 01:51:30 | 00:00:00 | |
| DO2SHX-10 | 2026-09-04 14:10:31 | 53.88854 | 9.55645 | 75° | 88km/h | 15620m | -6.9m/s | -52.8°C | 4.2% | 114.3hPa | 2.6V | 00:00:00 | 01:51:30 | 00:00:00 | |
| GOEST3-10 | 2026-09-04 14:10:30 | 53.88847 | 9.55609 | 74° | 84km/h | 15627m | -6.7m/s | -52.8°C | 4.2% | 114.1hPa | 2.6V | 00:00:00 | 01:51:29 | 00:00:00 | |
| DL1XH1-15 | 2026-09-04 14:10:30 | 53.88823 | 9.55437 | 81° | 84km/h | 15660m | -6.5m/s | -52.8°C | 4.2% | 113.6hPa | 2.5V | 08:14:57 | 01:51:24 | 00:00:00 | |
| DL1XH-15 | 2026-09-04 14:10:29 | 53.88820 | 9.55401 | 83° | 84km/h | 15667m | -7.3m/s | -52.8°C | 4.2% | 113.5hPa | 2.6V | 08:14:58 | 01:51:23 | 00:00:00 | |
| BIOWL1-15 | 2026-09-04 14:10:25 | 53.88818 | 9.55365 | 84° | 88km/h | 15674m | -7.4m/s | -52.8°C | 0.6% | 113.3hPa | 2.6V | 08:15:00 | 01:51:22 | 00:00:00 | |
| DB0DAN | 2026-09-04 14:10:25 | 53.88823 | 9.55437 | 82° | 80km/h | 15660m | -6.6m/s | -52.8°C | 1.3% | 113.6hPa | 2.5V | 00:00:00 | 00:00:00 | 00:00:00 | |
| AA1-15 | 2026-09-04 14:10:25 | 53.88823 | 9.55437 | 82° | 84km/h | 15660m | -6.6m/s | -52.8°C | 0.5% | 113.6hPa | 2.5V | 08:15:00 | 01:51:24 | 00:00:00 | |
| DL1XH-west | 2026-09-04 14:10:21 | 53.88814 | 9.55287 | 86° | 95km/h | 15689m | -7.5m/s | -52.9°C | 0.6% | 113.1hPa | 2.7V | 08:15:51 | 01:51:20 | 00:00:00 | |
| DL4XJ-10 | 2026-09-04 14:10:21 | 53.88814 | 9.55287 | 86° | 99km/h | 15689m | -7.5m/s | -52.9°C | 0% | 0hPa | 2.7V | 00:00:00 | 00:00:00 | 00:00:00 | |
| GOEST3-10 | 2026-09-04 14:10:20 | 53.88812 | 9.55246 | 86° | 102km/h | 15696m | -6.7m/s | -52.9°C | 4.2% | 112.9hPa | 2.7V | 00:00:00 | 01:51:19 | 00:00:00 | |
| DL1XH-15 | 2026-09-04 14:10:19 | 53.88789 | 9.54989 | 76° | 99km/h | 15738m | -6.8m/s | -53.1°C | 4.3% | 112.2hPa | 2.7V | 08:15:08 | 01:51:13 | 00:00:00 | |
| DF8AY | 2026-09-04 14:10:15 | 53.88794 | 9.55031 | 79° | 100km/h | 15731m | -7.2m/s | -53°C | 0.5% | 112.4hPa | 2.7V | 08:15:51 | 01:51:14 | 00:00:00 | |
| AA1-15 | 2026-09-04 14:10:14 | 53.88789 | 9.54989 | 77° | 99km/h | 15738m | -6.8m/s | -53.1°C | 0.6% | 112.2hPa | 2.7V | 08:15:51 | 01:51:13 | 00:00:00 | |
| BIOWL1-15 | 2026-09-04 14:10:12 | 53.88777 | 9.54911 | 74° | 91km/h | 15751m | -6.6m/s | -53.1°C | 0.6% | 112hPa | 2.6V | 08:15:51 | 01:51:11 | 00:00:00 | |
| SONCRA | 2026-09-04 14:10:12 | 53.88771 | 9.54874 | 75° | 88km/h | 15758m | -6.7m/s | -53.1°C | 1.3% | 111.9hPa | 2.6V | 00:00:00 | 00:00:00 | 00:00:00 | |
| SONDE2-11 | 2026-09-04 14:10:11 | 53.88771 | 9.54874 | 75° | 88km/h | 15758m | -6.7m/s | -53.1°C | 1.3% | 111.9hPa | 2.6V | 00:00:00 | 00:00:00 | 00:00:00 | |
| DL1XH1-15 | 2026-09-04 14:10:10 | 53.88749 | 9.54628 | 85° | 104km/h | 15799m | -5.8m/s | -52.6°C | 4.2% | 111.2hPa | 2.6V | 08:15:17 | 01:51:04 | 00:00:00 | |
| DL1XH-west | 2026-09-04 14:10:10 | 53.88766 | 9.54836 | 77° | 91km/h | 15765m | -7.6m/s | -53.1°C | 0.7% | 111.8hPa | 2.6V | 08:15:51 | 01:51:09 | 00:00:00 | |
| DB0DAN | 2026-09-04 14:10:10 | 53.88766 | 9.54836 | 77° | 86km/h | 15765m | -7.6m/s | -53.1°C | 1.3% | 111.77hPa | 2.6V | 00:00:00 | 00:00:00 | 00:00:00 | |
| DF8AY | 2026-09-04 14:10:05 | 53.88749 | 9.54628 | 86° | 104km/h | 15799m | -5.8m/s | -52.7°C | 0.5% | 111.2hPa | 2.6V | 08:15:51 | 01:51:04 | 00:00:00 | |
| AA1-15 | 2026-09-04 14:10:04 | 53.88748 | 9.54583 | 87° | 104km/h | 15805m | -6.2m/s | -52.6°C | 0.5% | 111.1hPa | 2.7V | 08:15:51 | 01:51:03 | 00:00:00 | |
| BIOWL1-15 | 2026-09-04 14:10:02 | 53.88744 | 9.54495 | 85° | 104km/h | 15818m | -6.5m/s | -52.7°C | 0.6% | 110.8hPa | 2.7V | 08:15:51 | 01:51:01 | 00:00:00 | |
| DL4XJ-10 | 2026-09-04 14:10:01 | 53.88742 | 9.54451 | 85° | 93km/h | 15825m | -7.1m/s | -52.7°C | 0% | 0hPa | 2.7V | 00:00:00 | 00:00:00 | 00:00:00 | |
| DL1XH1-15 | 2026-09-04 14:10:00 | 53.88720 | 9.54203 | 76° | 91km/h | 15868m | -7.5m/s | -52.6°C | 4.2% | 110hPa | 2.7V | 08:15:27 | 01:50:54 | 00:00:00 | |
| DL1XH-west | 2026-09-04 14:09:59 | 53.88737 | 9.54365 | 84° | 100km/h | 15840m | -7.4m/s | -52.7°C | 0.6% | 110.5hPa | 2.6V | 08:15:51 | 01:50:58 | 00:00:00 | |
| DJ2DS-15 | 2026-09-04 14:09:59 | 53.88734 | 9.54323 | 82° | 99km/h | 15847m | -7.5m/s | -52.7°C | 1.3% | 110.4hPa | 2.7V | 00:00:00 | 00:00:00 | 00:00:00 | |
| DO2SHX-10 | 2026-09-04 14:09:58 | 53.88734 | 9.54323 | 83° | 97km/h | 15847m | -7.5m/s | -52.6°C | 4.2% | 110.3hPa | 2.7V | 00:00:00 | 01:50:57 | 00:00:00 | |
| DD8BA-10 | 2026-09-04 14:09:56 | 53.88725 | 9.54241 | 78° | 91km/h | 15861m | -7.1m/s | -52.6°C | 4.2% | 110.1hPa | 2.7V | 08:15:00 | 00:00:00 | 00:00:00 | |
| DM0DOS-11 | 2026-09-04 14:09:55 | 53.88694 | 9.54013 | 78° | 93km/h | 15905m | -6.6m/s | -52.4°C | 4.2% | 109.4hPa | 2.7V | 08:15:32 | 01:50:49 | 00:00:00 | |
| DB0DAN | 2026-09-04 14:09:55 | 53.88720 | 9.54203 | 77° | 88km/h | 15868m | -7.5m/s | -52.7°C | 1.2% | 110hPa | 2.7V | 00:00:00 | 00:00:00 | 00:00:00 | |
| DF8AY | 2026-09-04 14:09:54 | 53.88715 | 9.54165 | 76° | 89km/h | 15876m | -7.2m/s | -52.6°C | 0.5% | 109.9hPa | 2.6V | 08:15:51 | 01:50:53 | 00:00:00 | |
| AA1-15 | 2026-09-04 14:09:53 | 53.88710 | 9.54128 | 76° | 91km/h | 15883m | -7.9m/s | -52.6°C | 0.5% | 109.7hPa | 2.6V | 08:15:51 | 01:50:52 | 00:00:00 | |
| BIOWL1-15 | 2026-09-04 14:09:51 | 53.88699 | 9.54052 | 77° | 91km/h | 15898m | -6.6m/s | -52.5°C | 0.5% | 109.5hPa | 2.6V | 08:15:51 | 01:50:50 | 00:00:00 | |
| DL1XH-west | 2026-09-04 14:09:48 | 53.88687 | 9.53936 | 83° | 91km/h | 15918m | -6.9m/s | -52.3°C | 0.5% | 109.2hPa | 2.7V | 08:15:51 | 01:50:47 | 00:00:00 | |
| DF8AY | 2026-09-04 14:09:44 | 53.88680 | 9.53783 | 86° | 89km/h | 15946m | -7.3m/s | -52.2°C | 0.5% | 108.7hPa | 2.7V | 08:15:51 | 01:50:43 | 00:00:00 | |
| AA1-15 | 2026-09-04 14:09:42 | 53.88677 | 9.53707 | 86° | 89km/h | 15960m | -6.5m/s | -52.3°C | 0.5% | 108.4hPa | 2.6V | 08:15:51 | 01:50:41 | 00:00:00 | |
| DB0DAN | 2026-09-04 14:09:40 | 53.88674 | 9.53632 | 85° | 82km/h | 15974m | -8.1m/s | -52.3°C | 1.2% | 108.23hPa | 2.6V | 00:00:00 | 00:00:00 | 00:00:00 | |
| DL1XH1-15 | 2026-09-04 14:09:40 | 53.88670 | 9.53449 | 89° | 88km/h | 16014m | -7.5m/s | -52.1°C | 4.1% | 107.6hPa | 2.6V | 08:15:47 | 01:50:34 | 00:00:00 | |
| BIOWL1-15 | 2026-09-04 14:09:40 | 53.88674 | 9.53632 | 85° | 86km/h | 15974m | -8.1m/s | -52.3°C | 0.5% | 108.2hPa | 2.6V | 08:15:51 | 01:50:39 | 00:00:00 | |
| DL1XH-west | 2026-09-04 14:09:38 | 53.88671 | 9.53560 | 88° | 84km/h | 15991m | -8.7m/s | -52.1°C | 0.5% | 108hPa | 2.7V | 08:15:51 | 01:50:37 | 00:00:00 | |
| DB0UT-7 | 2026-09-04 14:09:37 | 53.88670 | 9.53524 | 90° | 82km/h | 16000m | -8.1m/s | -52.0°C | 4.1% | 107.8hPa | 2.7V | 00:00:00 | 00:00:00 | 00:00:00 | |
| DD8BA-10 | 2026-09-04 14:09:36 | 53.88670 | 9.53486 | 90° | 86km/h | 16007m | -7.0m/s | -52.0°C | 4.0% | 107.7hPa | 2.7V | 00:00:00 | 00:00:00 | 00:00:00 | |
| DM0DOS-11 | 2026-09-04 14:09:35 | 53.88667 | 9.53262 | 85° | 86km/h | 16050m | -6m/s | -52.1°C | 4.1% | 107hPa | 2.7V | 08:15:52 | 01:50:29 | 00:00:00 | |
| DF8AY | 2026-09-04 14:09:33 | 53.88669 | 9.53374 | 90° | 88km/h | 16029m | -7.8m/s | -52.1°C | 0.4% | 107.4hPa | 2.6V | 08:15:51 | 01:50:32 | 00:00:00 | |
| AA1-15 | 2026-09-04 14:09:31 | 53.88668 | 9.53299 | 88° | 88km/h | 16043m | -7.1m/s | -52.2°C | 0.4% | 107.1hPa | 2.7V | 08:15:51 | 01:50:30 | 00:00:00 | |
| BIOWL1-15 | 2026-09-04 14:09:31 | 53.88665 | 9.53226 | 85° | 82km/h | 16057m | -6.6m/s | -52.1°C | 0.5% | 106.9hPa | 2.6V | 08:16:42 | 01:50:28 | 00:00:00 | |
| SMARD9-15 | 2026-09-04 14:09:31 | 53.88667 | 9.53262 | 85° | 84km/h | 16050m | -6.0m/s | -52.1°C | 1.2% | 107.0hPa | 2.7V | 00:00:00 | 00:00:00 | 00:00:00 | |
| DL1XH1-15 | 2026-09-04 14:09:30 | 53.88657 | 9.53090 | 82° | 78km/h | 16085m | -7.8m/s | -52°C | 4.1% | 106.4hPa | 2.7V | 08:15:57 | 01:50:24 | 00:00:00 | |
| DL1XH-west | 2026-09-04 14:09:28 | 53.88663 | 9.53192 | 85° | 80km/h | 16063m | -6.8m/s | -52.1°C | 0.5% | 106.8hPa | 2.6V | 08:16:42 | 01:50:27 | 00:00:00 | |
| DF8AY | 2026-09-04 14:09:27 | 53.88650 | 9.52988 | 85° | 84km/h | 16107m | -6.9m/s | -51.9°C | 0.4% | 106.1hPa | 2.6V | 08:16:42 | 01:50:21 | 00:00:00 | |
| DB0DAN | 2026-09-04 14:09:25 | 53.88657 | 9.53090 | 83° | 75km/h | 16085m | -7.8m/s | -52°C | 1.2% | 106.4hPa | 2.7V | 00:00:00 | 00:00:00 | 00:00:00 | |
| DM0DOS-11 | 2026-09-04 14:09:25 | 53.88647 | 9.52915 | 86° | 86km/h | 16122m | -8.5m/s | -52°C | 4.1% | 105.8hPa | 2.6V | 08:16:02 | 01:50:19 | 00:00:00 | |
| DO2JMG | 2026-09-04 14:09:24 | 53.88655 | 9.53057 | 83° | 78km/h | 16092m | -7m/s | -52°C | 0.4% | 106.3hPa | 2.7V | 08:16:42 | 01:50:23 | 00:00:00 | |
| AA1-15 | 2026-09-04 14:09:21 | 53.88648 | 9.52951 | 86° | 86km/h | 16114m | -7.2m/s | -52°C | 0.5% | 106hPa | 2.6V | 08:16:42 | 01:50:20 | 00:00:00 | |
| BIOWL1-15 | 2026-09-04 14:09:20 | 53.88644 | 9.52843 | 87° | 82km/h | 16136m | -6.2m/s | -51.9°C | 0.5% | 105.6hPa | 2.7V | 08:16:42 | 01:50:17 | 00:00:00 | |
| GOEST3-10 | 2026-09-04 14:09:20 | 53.88647 | 9.52914 | 87° | 82km/h | 16122m | -8.4m/s | -51.9°C | 4.1% | 105.8hPa | 2.7V | 00:00:00 | 01:50:19 | 00:00:00 | |
| DL1XH-15 | 2026-09-04 14:09:19 | 53.88640 | 9.52708 | 85° | 77km/h | 16165m | -7.3m/s | -51.8°C | 4% | 105.1hPa | 2.7V | 08:16:08 | 01:50:13 | 00:00:00 | |
| DL1XH-west | 2026-09-04 14:09:17 | 53.88643 | 9.52808 | 88° | 78km/h | 16143m | -6.3m/s | -51.8°C | 0.5% | 105.4hPa | 2.6V | 08:16:42 | 01:50:16 | 00:00:00 | |
| DD8BA-10 | 2026-09-04 14:09:16 | 53.88642 | 9.52775 | 88° | 77km/h | 16150m | -7.4m/s | -51.7°C | 4.1% | 105.3hPa | 2.6V | 00:00:00 | 00:00:00 | 00:00:00 | |
| DM0DOS-11 | 2026-09-04 14:09:15 | 53.88631 | 9.52582 | 82° | 77km/h | 16194m | -7.1m/s | -51.6°C | 4% | 104.7hPa | 2.6V | 08:16:12 | 01:50:09 | 00:00:00 | |
| DF8AY | 2026-09-04 14:09:12 | 53.88636 | 9.52645 | 84° | 73km/h | 16180m | -7.1m/s | -51.8°C | 0.5% | 104.9hPa | 2.7V | 08:16:42 | 01:50:11 | 00:00:00 | |
| DB0DAN | 2026-09-04 14:09:10 | 53.88632 | 9.52582 | 83° | 73km/h | 16194m | -7.1m/s | -51.6°C | 1.2% | 104.65hPa | 2.6V | 00:00:00 | 00:00:00 | 00:00:00 | |
| AA1-15 | 2026-09-04 14:09:10 | 53.88632 | 9.52582 | 83° | 77km/h | 16194m | -7.1m/s | -51.6°C | 0.5% | 104.7hPa | 2.6V | 08:16:42 | 01:50:09 | 00:00:00 | |
| SONCRA | 2026-09-04 14:09:10 | 53.88629 | 9.52549 | 80° | 77km/h | 16201m | -7.2m/s | -51.6°C | 1.2% | 104.5hPa | 2.6V | 00:00:00 | 00:00:00 | 00:00:00 | |
| DL1XH-15 | 2026-09-04 14:09:09 | 53.88608 | 9.52386 | 78° | 77km/h | 16236m | -5.9m/s | -51.2°C | 3.9% | 103.9hPa | 2.6V | 08:16:18 | 01:50:03 | 00:00:00 | |
| BIOWL1-15 | 2026-09-04 14:09:08 | 53.88625 | 9.52516 | 79° | 78km/h | 16208m | -6.3m/s | -51.5°C | 0.4% | 104.4hPa | 2.6V | 08:16:42 | 01:50:07 | 00:00:00 | |
| DL1XH-west | 2026-09-04 14:09:06 | 53.88616 | 9.52450 | 77° | 78km/h | 16222m | -7.7m/s | -51.3°C | 0.4% | 104.2hPa | 2.7V | 08:16:42 | 01:50:05 | 00:00:00 | |
| DD8BA-10 | 2026-09-04 14:09:06 | 53.88616 | 9.52450 | 77° | 75km/h | 16223m | -7.6m/s | -51.3°C | 3.9% | 104.2hPa | 2.7V | 00:00:00 | 00:00:00 | 00:00:00 | |
| DM0DOS-11 | 2026-09-04 14:09:05 | 53.88593 | 9.52258 | 77° | 75km/h | 16262m | -7.5m/s | -51.2°C | 3.8% | 103.5hPa | 2.7V | 08:16:22 | 01:49:59 | 00:00:00 | |
| DF8AY | 2026-09-04 14:09:03 | 53.88601 | 9.52322 | 79° | 75km/h | 16249m | -6.5m/s | -51.2°C | 0.3% | 103.8hPa | 2.6V | 08:16:42 | 01:50:01 | 00:00:00 | |
| DL4XJ-10 | 2026-09-04 14:09:02 | 53.88601 | 9.52322 | 80° | 68km/h | 16249m | -6.5m/s | -51.2°C | 0% | 0hPa | 2.7V | 00:00:00 | 00:00:00 | 00:00:00 | |
| DO2SHX-10 | 2026-09-04 14:09:01 | 53.88597 | 9.52290 | 80° | 75km/h | 16255m | -5.7m/s | -51.1°C | 3.8% | 103.6hPa | 2.7V | 00:00:00 | 01:50:00 | 00:00:00 | |
| DL1XH1-15 | 2026-09-04 14:09:00 | 53.88576 | 9.52107 | 82° | 73km/h | 16297m | -6.9m/s | -51.3°C | 3.8% | 103hPa | 2.7V | 08:16:27 | 01:49:54 | 00:00:00 | |
| AA1-15 | 2026-09-04 14:08:59 | 53.88589 | 9.52228 | 77° | 73km/h | 16269m | -7m/s | -51.2°C | 0.3% | 103.4hPa | 2.6V | 08:16:42 | 01:49:58 | 00:00:00 | |
| BIOWL1-15 | 2026-09-04 14:08:57 | 53.88582 | 9.52168 | 79° | 71km/h | 16283m | -7m/s | -51.2°C | 0.3% | 103.2hPa | 2.6V | 08:16:42 | 01:49:56 | 00:00:00 | |
| DO2JMG | 2026-09-04 14:08:56 | 53.88579 | 9.52138 | 81° | 71km/h | 16290m | -6.7m/s | -51.2°C | 0.3% | 103.1hPa | 2.7V | 08:16:42 | 01:49:55 | 00:00:00 | |
| DB0DAN | 2026-09-04 14:08:55 | 53.88576 | 9.52107 | 82° | 69km/h | 16297m | -6.9m/s | -51.3°C | 1.1% | 102.97hPa | 2.7V | 00:00:00 | 00:00:00 | 00:00:00 | |
| DL1XH-west | 2026-09-04 14:08:55 | 53.88576 | 9.52107 | 82° | 73km/h | 16297m | -6.9m/s | -51.3°C | 0.4% | 103hPa | 2.7V | 08:16:42 | 01:49:54 | 00:00:00 | |
| DF8AY | 2026-09-04 14:08:52 | 53.88567 | 9.52016 | 79° | 69km/h | 16321m | -9.5m/s | -51.3°C | 0.3% | 102.6hPa | 2.6V | 08:16:42 | 01:49:51 | 00:00:00 | |
| DO2SHX-10 | 2026-09-04 14:08:52 | 53.88567 | 9.52016 | 80° | 66km/h | 16321m | -9.4m/s | -51.2°C | 3.8% | 102.6hPa | 2.6V | 00:00:00 | 01:49:51 | 00:00:00 | |
| DF5WG-10 | 2026-09-04 14:08:51 | 53.88564 | 9.51988 | 80° | 62km/h | 16330m | -9.2m/s | -51.2°C | 3.8% | 102.4hPa | 2.6V | 00:00:00 | 01:49:50 | 00:00:00 | |
| DL1XH1-15 | 2026-09-04 14:08:50 | 53.88541 | 9.51834 | 73° | 58km/h | 16372m | -8.6m/s | -51.6°C | 3.9% | 101.8hPa | 2.6V | 08:16:37 | 01:49:44 | 00:00:00 | |
| GOEST3-10 | 2026-09-04 14:08:50 | 53.88561 | 9.51960 | 80° | 62km/h | 16338m | -5.3m/s | -51.3°C | 3.8% | 102.3hPa | 2.6V | 00:00:00 | 01:49:49 | 00:00:00 | |
| DL1XH-15 | 2026-09-04 14:08:49 | 53.88537 | 9.51810 | 77° | 60km/h | 16381m | -8.7m/s | -51.7°C | 3.9% | 101.7hPa | 2.6V | 08:16:38 | 01:49:43 | 00:00:00 | |
| AA1-15 | 2026-09-04 14:08:49 | 53.88558 | 9.51934 | 78° | 62km/h | 16343m | -6.7m/s | -51.5°C | 0.3% | 102.3hPa | 2.7V | 08:16:42 | 01:49:48 | 00:00:00 | |
| DJ2DS-15 | 2026-09-04 14:08:47 | 53.88546 | 9.51858 | 71° | 58km/h | 16364m | -7.3m/s | -51.7°C | 1.1% | 101.9hPa | 2.7V | 00:00:00 | 00:00:00 | 00:00:00 | |
| DF8AY | 2026-09-04 14:08:46 | 53.88530 | 9.51723 | 84° | 75km/h | 16403m | -5.6m/s | -52°C | 0.5% | 101.3hPa | 2.7V | 08:16:42 | 01:49:40 | 00:00:00 | |
| DO2JMG | 2026-09-04 14:08:46 | 53.88546 | 9.51858 | 72° | 60km/h | 16364m | -7.3m/s | -51.7°C | 0.4% | 101.9hPa | 2.6V | 08:16:42 | 01:49:45 | 00:00:00 | |
| DL1XH-west | 2026-09-04 14:08:45 | 53.88541 | 9.51834 | 73° | 58km/h | 16372m | -8.6m/s | -51.7°C | 0.4% | 101.8hPa | 2.6V | 08:16:42 | 01:49:44 | 00:00:00 | |
| DO2SHX-10 | 2026-09-04 14:08:43 | 53.88534 | 9.51783 | 81° | 71km/h | 16389m | -7.6m/s | 0°C | 0% | 0hPa | 2.7V | 00:00:00 | 01:49:42 | 00:00:00 | |
| BUE01 | 2026-09-04 14:08:41 | 53.88528 | 9.51691 | 84° | 78km/h | 16409m | -6.7m/s | -52.1°C | 1.2% | 101.2hPa | 2.7V | 00:00:00 | 00:00:00 | 00:00:00 | |
| DL1XH1-15 | 2026-09-04 14:08:40 | 53.88503 | 9.51523 | 68° | 73km/h | 16444m | -6.7m/s | -52.4°C | 4.2% | 100.6hPa | 2.7V | 08:16:47 | 01:49:34 | 00:00:00 | |
| DB0DAN | 2026-09-04 14:08:40 | 53.88528 | 9.51691 | 84° | 77km/h | 16409m | -6.7m/s | -52.1°C | 1.2% | 101.22hPa | 2.7V | 00:00:00 | 00:00:00 | 00:00:00 | |
| DO2SHX-10 | 2026-09-04 14:08:40 | 53.88527 | 9.51690 | 85° | 82km/h | 16409m | -6.6m/s | 0°C | 0% | 0hPa | 2.7V | 08:16:00 | 01:49:39 | 00:00:00 | |
| DL1XH-15 | 2026-09-04 14:08:39 | 53.88497 | 9.51495 | 68° | 66km/h | 16452m | -7.7m/s | -52.5°C | 4.3% | 100.5hPa | 2.6V | 08:16:48 | 01:49:33 | 00:00:00 | |
| AA1-15 | 2026-09-04 14:08:38 | 53.88521 | 9.51621 | 77° | 84km/h | 16424m | -8.2m/s | -52.2°C | 0.5% | 101hPa | 2.6V | 08:17:33 | 01:49:37 | 00:00:00 | |
| BIOWL1-15 | 2026-09-04 14:08:36 | 53.88510 | 9.51554 | 71° | 78km/h | 16438m | -6.1m/s | -52.3°C | 0.5% | 100.7hPa | 2.7V | 08:17:33 | 01:49:35 | 00:00:00 | |
| DO2JMG | 2026-09-04 14:08:35 | 53.88503 | 9.51523 | 68° | 73km/h | 16445m | -6.7m/s | -52.4°C | 0.6% | 100.6hPa | 2.7V | 08:17:33 | 01:49:34 | 00:00:00 | |
| DL1XH-west | 2026-09-04 14:08:34 | 53.88497 | 9.51495 | 69° | 66km/h | 16452m | -7.7m/s | -52.5°C | 0.6% | 100.5hPa | 2.6V | 08:17:33 | 01:49:33 | 00:00:00 | |
| DF8AY | 2026-09-04 14:08:31 | 53.88485 | 9.51419 | 84° | 62km/h | 16472m | -6.6m/s | -52.6°C | 0.6% | 100.2hPa | 2.7V | 08:17:33 | 01:49:30 | 00:00:00 | |
| DO2SHX-10 | 2026-09-04 14:08:31 | 53.88484 | 9.51419 | 85° | 69km/h | 16472m | -6.5m/s | -52.5°C | 4.2% | 100.2hPa | 2.7V | 00:00:00 | 01:49:30 | 00:00:00 | |
| GOEST3-10 | 2026-09-04 14:08:30 | 53.88484 | 9.51391 | 89° | 80km/h | 16479m | -7.4m/s | -52.6°C | 4.3% | 100.1hPa | 2.7V | 00:00:00 | 01:49:29 | 00:00:00 | |
| DL1XH-15 | 2026-09-04 14:08:29 | 53.88473 | 9.51178 | 77° | 89km/h | 16524m | -7.7m/s | -52.5°C | 4.1% | 99.5hPa | 2.7V | 08:16:58 | 01:49:23 | 00:00:00 | |
| BIOWL1-15 | 2026-09-04 14:08:28 | 53.88480 | 9.51253 | 84° | 89km/h | 16509m | -7.5m/s | -52.4°C | 0.5% | 99.7hPa | 2.6V | 08:17:33 | 01:49:25 | 00:00:00 | |
| AA1-15 | 2026-09-04 14:08:27 | 53.88482 | 9.51291 | 86° | 86km/h | 16501m | -7.8m/s | -52.4°C | 0.5% | 99.8hPa | 2.6V | 08:17:33 | 01:49:26 | 00:00:00 | |
| DB0DAN | 2026-09-04 14:08:25 | 53.88477 | 9.51215 | 81° | 86km/h | 16516m | -7.3m/s | -52.4°C | 1.2% | 99.56hPa | 2.6V | 00:00:00 | 00:00:00 | 00:00:00 | |
| DM0DOS-11 | 2026-09-04 14:08:25 | 53.88443 | 9.51024 | 72° | 58km/h | 16558m | -6.8m/s | -52.3°C | 4.1% | 98.9hPa | 2.6V | 08:17:03 | 01:49:18 | 00:00:00 | |
| DL1XH-west | 2026-09-04 14:08:24 | 53.88473 | 9.51178 | 78° | 89km/h | 16524m | -7.7m/s | -52.5°C | 0.5% | 99.5hPa | 2.7V | 08:17:33 | 01:49:23 | 00:00:00 | |
| DF8AY | 2026-09-04 14:08:21 | 53.88449 | 9.51048 | 69° | 64km/h | 16551m | -7.3m/s | -52.3°C | 0.4% | 99hPa | 2.6V | 08:17:33 | 01:49:19 | 00:00:00 | |
| DF5WG-10 | 2026-09-04 14:08:20 | 53.88449 | 9.51048 | 70° | 69km/h | 16551m | -7.2m/s | -52.3°C | 4.0% | 99.0hPa | 2.6V | 00:00:00 | 01:49:19 | 00:00:00 | |
| DL1XH-15 | 2026-09-04 14:08:19 | 53.88439 | 9.50892 | 91° | 75km/h | 16595m | -7.1m/s | -52.6°C | 4.2% | 98.3hPa | 2.6V | 08:17:08 | 01:49:13 | 00:00:00 | |
| AA1-15 | 2026-09-04 14:08:16 | 53.88438 | 9.50951 | 90° | 62km/h | 16580m | -7.8m/s | -52.4°C | 0.5% | 98.6hPa | 2.6V | 08:17:33 | 01:49:15 | 00:00:00 | |
| DD8BA-10 | 2026-09-04 14:08:16 | 53.88438 | 9.50951 | 91° | 77km/h | 16581m | -7.7m/s | -52.4°C | 4.1% | 98.5hPa | 2.6V | 00:00:00 | 00:00:00 | 00:00:00 | |
| GOEST3-10 | 2026-09-04 14:08:15 | 53.88438 | 9.50923 | 92° | 78km/h | 16588m | -7.0m/s | -52.4°C | 4.2% | 98.4hPa | 2.6V | 00:00:00 | 00:00:00 | 00:00:00 | |
| BIOWL1-15 | 2026-09-04 14:08:15 | 53.88438 | 9.50923 | 92° | 68km/h | 16588m | -7.1m/s | -52.5°C | 0.6% | 98.5hPa | 2.6V | 08:17:33 | 01:49:14 | 00:00:00 | |
| DM0DOS-11 | 2026-09-04 14:08:14 | 53.88428 | 9.50718 | 74° | 80km/h | 16634m | -7.1m/s | -52.7°C | 4.3% | 97.8hPa | 2.6V | 08:17:13 | 01:49:08 | 00:00:00 | |
| DO2JMG | 2026-09-04 14:08:14 | 53.88439 | 9.50892 | 92° | 75km/h | 16595m | -7.1m/s | -52.6°C | 0.6% | 98.3hPa | 2.6V | 08:17:33 | 01:49:13 | 00:00:00 | |
| DL1XH-west | 2026-09-04 14:08:13 | 53.88439 | 9.50859 | 90° | 80km/h | 16602m | -6.9m/s | -52.6°C | 0.6% | 98.2hPa | 2.7V | 08:17:33 | 01:49:12 | 00:00:00 | |
| DJ2DS-15 | 2026-09-04 14:08:13 | 53.88439 | 9.50859 | 90° | 73km/h | 16602m | -6.8m/s | -52.5°C | 4.2% | 98.2hPa | 2.6V | 00:00:00 | 01:49:12 | 00:00:00 | |
| DK1YY | 2026-09-04 14:08:12 | 53.88438 | 9.50824 | 86° | 84km/h | 16609m | -7.8m/s | -52.7°C | 1.3% | 98.1hPa | 2.6V | 00:00:00 | 00:00:00 | 00:00:00 | |
| DB0DAN | 2026-09-04 14:08:10 | 53.88433 | 9.50752 | 78° | 78km/h | 16625m | -9m/s | -52.8°C | 1.3% | 97.88hPa | 2.6V | 00:00:00 | 00:00:00 | 00:00:00 | |
| DL1XH1-15 | 2026-09-04 14:08:10 | 53.88404 | 9.50606 | 71° | 60km/h | 16664m | -8m/s | -52.9°C | 4.4% | 97.3hPa | 2.7V | 08:17:17 | 01:49:04 | 00:00:00 | |
| DF8AY | 2026-09-04 14:08:09 | 53.88428 | 9.50718 | 74° | 80km/h | 16634m | -7.1m/s | -52.7°C | 0.6% | 97.8hPa | 2.6V | 08:17:33 | 01:49:08 | 00:00:00 | |
| BIOWL1-15 | 2026-09-04 14:08:05 | 53.88404 | 9.50606 | 71° | 60km/h | 16664m | -8m/s | -52.9°C | 0.7% | 97.3hPa | 2.7V | 08:17:33 | 01:49:04 | 00:00:00 | |
| DL4BBY-15 | 2026-09-04 14:08:05 | 53.88404 | 9.50606 | 72° | 66km/h | 16664m | -8.0m/s | -52.9°C | 0% | 0hPa | 2.7V | 00:00:00 | 00:00:00 | 00:00:00 | |
| DM0DOS-11 | 2026-09-04 14:08:04 | 53.88390 | 9.50454 | 88° | 73km/h | 16709m | -7m/s | -52.5°C | 4.3% | 96.6hPa | 2.7V | 08:17:23 | 01:48:58 | 00:00:00 | |
| DL1XH-west | 2026-09-04 14:08:03 | 53.88396 | 9.50559 | 77° | 57km/h | 16679m | -7.6m/s | -52.8°C | 0.7% | 97.1hPa | 2.6V | 08:17:33 | 01:49:02 | 00:00:00 | |
| EDDB2-12 | 2026-09-04 14:08:02 | 53.88392 | 9.50510 | 84° | 60km/h | 16695m | -8.4m/s | -52.6°C | 1.3% | 96.8hPa | 2.7V | 00:00:00 | 00:00:00 | 00:00:00 | |
| DO2SHX-10 | 2026-09-04 14:08:01 | 53.88392 | 9.50510 | 85° | 68km/h | 16695m | -8.4m/s | -52.6°C | 4.4% | 96.8hPa | 2.7V | 00:00:00 | 01:49:00 | 00:00:00 | |
| DL1XH1-15 | 2026-09-04 14:08:00 | 53.88390 | 9.50319 | 92° | 78km/h | 16738m | -8.3m/s | -52.3°C | 4.1% | 96.2hPa | 2.7V | 08:17:27 | 01:48:54 | 00:00:00 | |
| DF8AY | 2026-09-04 14:07:59 | 53.88390 | 9.50454 | 89° | 73km/h | 16709m | -7.1m/s | -52.5°C | 0.7% | 96.6hPa | 2.7V | 08:17:33 | 01:48:58 | 00:00:00 | |
| AA1-15 | 2026-09-04 14:07:55 | 53.88390 | 9.50319 | 93° | 78km/h | 16738m | -8.3m/s | -52.3°C | 0.6% | 96.2hPa | 2.7V | 08:17:33 | 01:48:54 | 00:00:00 | |
| DB0DAN | 2026-09-04 14:07:55 | 53.88390 | 9.50319 | 93° | 75km/h | 16738m | -8.3m/s | -52.3°C | 1.2% | 96.23hPa | 2.7V | 00:00:00 | 00:00:00 | 00:00:00 | |
| BIOWL1-15 | 2026-09-04 14:07:54 | 53.88391 | 9.50286 | 94° | 77km/h | 16746m | -6.8m/s | -52.3°C | 0.7% | 96hPa | 2.7V | 08:17:33 | 01:48:53 | 00:00:00 | |
| DL1XH-west | 2026-09-04 14:07:52 | 53.88392 | 9.50227 | 87° | 62km/h | 16761m | -8.5m/s | -52.3°C | 0.7% | 95.9hPa | 2.6V | 08:17:33 | 01:48:51 | 00:00:00 | |
| DO2SHX-10 | 2026-09-04 14:07:52 | 53.88392 | 9.50227 | 88° | 58km/h | 16761m | -8.4m/s | -52.2°C | 4.2% | 95.8hPa | 2.6V | 00:00:00 | 01:48:51 | 00:00:00 | |
| DL1XH1-15 | 2026-09-04 14:07:50 | 53.88380 | 9.50070 | 92° | 49km/h | 16812m | -6.7m/s | -52.3°C | 4.3% | 95hPa | 2.6V | 08:17:37 | 01:48:44 | 00:00:00 | |
| DF8AY | 2026-09-04 14:07:48 | 53.88383 | 9.50132 | 79° | 49km/h | 16789m | -8.2m/s | -52.2°C | 0.6% | 95.4hPa | 2.7V | 08:18:24 | 01:48:47 | 00:00:00 | |
| AA1-15 | 2026-09-04 14:07:44 | 53.88381 | 9.50048 | 98° | 53km/h | 16819m | -7.1m/s | -52.3°C | 0.7% | 95hPa | 2.6V | 08:18:24 | 01:48:43 | 00:00:00 | |
| DL1XH-west | 2026-09-04 14:07:42 | 53.88386 | 9.50000 | 101° | 60km/h | 16833m | -6.9m/s | -52.3°C | 0.6% | 94.8hPa | 2.7V | 08:18:24 | 01:48:41 | 00:00:00 | |
| DO2JMG | 2026-09-04 14:07:41 | 53.88389 | 9.49974 | 99° | 64km/h | 16841m | -8m/s | -52.2°C | 0.6% | 94.6hPa | 2.7V | 08:18:24 | 01:48:40 | 00:00:00 | |
| DL1XH1-15 | 2026-09-04 14:07:40 | 53.88387 | 9.49793 | 80° | 77km/h | 16884m | -6.8m/s | -52.4°C | 4.2% | 94hPa | 2.7V | 08:17:47 | 01:48:34 | 00:00:00 | |
| DB0DAN | 2026-09-04 14:07:40 | 53.88391 | 9.49947 | 96° | 64km/h | 16848m | -7.5m/s | -52.2°C | 1.3% | 94.59hPa | 2.6V | 00:00:00 | 00:00:00 | 00:00:00 | |
| DO2SHX-10 | 2026-09-04 14:07:40 | 53.88391 | 9.49947 | 97° | 69km/h | 16849m | -7.5m/s | -52.2°C | 4.2% | 94.5hPa | 2.6V | 00:00:00 | 01:48:39 | 00:00:00 | |
| DL1XH-15 | 2026-09-04 14:07:39 | 53.88383 | 9.49761 | 77° | 75km/h | 16890m | -6.3m/s | -52.5°C | 4.2% | 93.9hPa | 2.6V | 08:17:48 | 01:48:33 | 00:00:00 | |
| DF8AY | 2026-09-04 14:07:38 | 53.88393 | 9.49888 | 89° | 71km/h | 16862m | -6.5m/s | -52.3°C | 0.7% | 94.3hPa | 2.6V | 08:18:24 | 01:48:37 | 00:00:00 | |
| BIOWL1-15 | 2026-09-04 14:07:38 | 53.88383 | 9.49761 | 77° | 75km/h | 16890m | -6.3m/s | -52.5°C | 0.7% | 93.9hPa | 2.6V | 08:18:24 | 01:48:33 | 00:00:00 | |
| AA1-15 | 2026-09-04 14:07:33 | 53.88379 | 9.49730 | 74° | 73km/h | 16897m | -6.8m/s | -52.5°C | 0.7% | 93.8hPa | 2.6V | 08:18:24 | 01:48:32 | 00:00:00 | |
| DL1XH-west | 2026-09-04 14:07:32 | 53.88373 | 9.49701 | 71° | 69km/h | 16905m | -8m/s | -52.5°C | 0.7% | 93.7hPa | 2.6V | 08:18:24 | 01:48:31 | 00:00:00 | |
| DM0DOS-11 | 2026-09-04 14:07:31 | 53.88357 | 9.49628 | 71° | 53km/h | 16928m | -7.5m/s | -52.4°C | 4.1% | 93.3hPa | 2.7V | 08:17:53 | 01:48:28 | 00:00:00 | |
| DO2JMG | 2026-09-04 14:07:30 | 53.88362 | 9.49651 | 69° | 58km/h | 16920m | -8.3m/s | -52.5°C | 0.6% | 93.5hPa | 2.7V | 08:18:24 | 01:48:29 | 00:00:00 | |
| DF5WG-10 | 2026-09-04 14:07:30 | 53.88362 | 9.49651 | 70° | 55km/h | 16920m | -8.3m/s | -52.5°C | 4.2% | 93.4hPa | 2.7V | 08:17:00 | 01:48:29 | 00:00:00 | |
| DL1XH-15 | 2026-09-04 14:07:29 | 53.88353 | 9.49521 | 93° | 57km/h | 16966m | -8.2m/s | -52.6°C | 4% | 92.8hPa | 2.7V | 08:17:58 | 01:48:23 | 00:00:00 | |
| DF8AY | 2026-09-04 14:07:28 | 53.88354 | 9.49607 | 77° | 49km/h | 16936m | -7.5m/s | -52.3°C | 0.5% | 93.2hPa | 2.7V | 08:18:24 | 01:48:27 | 00:00:00 | |
| DO2SHX-10 | 2026-09-04 14:07:28 | 53.88354 | 9.49607 | 77° | 49km/h | 16936m | -7.4m/s | -52.3°C | 4.1% | 93.2hPa | 2.7V | 00:00:00 | 01:48:27 | 00:00:00 | |
| DB0DAN | 2026-09-04 14:07:25 | 53.88352 | 9.49544 | 94° | 51km/h | 16958m | -7.2m/s | -52.5°C | 1.1% | 92.95hPa | 2.6V | 00:00:00 | 00:00:00 | 00:00:00 | |
| DF8AY-15 | 2026-09-04 14:07:25 | 53.88352 | 9.49544 | 94° | 62km/h | 16958m | -7.1m/s | -52.4°C | 4.0% | 92.9hPa | 2.7V | 00:00:00 | 01:48:24 | 00:00:00 | |
| DM0DOS-11 | 2026-09-04 14:07:24 | 53.88349 | 9.49391 | 80° | 60km/h | 17004m | -7.5m/s | -52.9°C | 4.2% | 92.3hPa | 2.7V | 08:18:03 | 01:48:18 | 00:00:00 | |
| BIOWL1-15 | 2026-09-04 14:07:23 | 53.88353 | 9.49496 | 93° | 60km/h | 16973m | -6.2m/s | -52.6°C | 0.5% | 92.7hPa | 2.7V | 08:18:24 | 01:48:22 | 00:00:00 | |
| DL1XH-west | 2026-09-04 14:07:22 | 53.88354 | 9.49470 | 89° | 62km/h | 16980m | -7.7m/s | -52.7°C | 0.4% | 92.7hPa | 2.6V | 08:18:24 | 01:48:21 | 00:00:00 | |
| DO2SHX-10 | 2026-09-04 14:07:22 | 53.88354 | 9.49470 | 89° | 62km/h | 16980m | -7.6m/s | -52.6°C | 4.1% | 92.6hPa | 2.6V | 00:00:00 | 01:48:21 | 00:00:00 | |
| DL1XH1-15 | 2026-09-04 14:07:20 | 53.88332 | 9.49292 | 70° | 60km/h | 17035m | -8.2m/s | -53.1°C | 4.3% | 91.9hPa | 2.6V | 08:18:07 | 01:48:14 | 00:00:00 | |
| DO2JMG | 2026-09-04 14:07:20 | 53.88351 | 9.49417 | 82° | 62km/h | 16996m | -8.5m/s | -52.9°C | 0.5% | 92.4hPa | 2.6V | 08:18:24 | 01:48:19 | 00:00:00 | |
| DF8AY | 2026-09-04 14:07:17 | 53.88342 | 9.49341 | 73° | 60km/h | 17019m | -8.2m/s | -53°C | 0.5% | 92.1hPa | 2.7V | 08:18:24 | 01:48:16 | 00:00:00 | |
| DD8BA-10 | 2026-09-04 14:07:16 | 53.88337 | 9.49316 | 72° | 66km/h | 17027m | -7.6m/s | -53.0°C | 4.3% | 91.9hPa | 2.6V | 00:00:00 | 00:00:00 | 00:00:00 | |
| GOEST3-10 | 2026-09-04 14:07:15 | 53.88332 | 9.49292 | 71° | 64km/h | 17036m | -8.2m/s | -53.0°C | 4.3% | 91.8hPa | 2.6V | 00:00:00 | 00:00:00 | 00:00:00 | |
| DO2LYB-13 | 2026-09-04 14:07:14 | 53.88332 | 9.49292 | 71° | 60km/h | 17036m | -8.3m/s | -53.1°C | 1.2% | 91.9hPa | 2.6V | 00:00:00 | 00:00:00 | 00:00:00 | |
| DO2SHX-10 | 2026-09-04 14:07:13 | 53.88321 | 9.49242 | 71° | 66km/h | 17053m | -8.3m/s | -53.1°C | 4.3% | 91.6hPa | 2.6V | 00:00:00 | 01:48:12 | 00:00:00 | |
| DM0DOS-11 | 2026-09-04 14:07:12 | 53.88299 | 9.49132 | 69° | 69km/h | 17084m | -7.5m/s | -53.2°C | 4.3% | 91.2hPa | 2.6V | 08:18:13 | 01:48:08 | 00:00:00 | |
| AA1-15 | 2026-09-04 14:07:12 | 53.88316 | 9.49215 | 71° | 68km/h | 17061m | -8.1m/s | -53.2°C | 0.6% | 91.6hPa | 2.7V | 08:18:24 | 01:48:11 | 00:00:00 | |
| DL1XH-west | 2026-09-04 14:07:11 | 53.88310 | 9.49188 | 72° | 69km/h | 17069m | -7.7m/s | -53.2°C | 0.6% | 91.4hPa | 2.7V | 08:18:24 | 01:48:10 | 00:00:00 | |
| DB0DAN | 2026-09-04 14:07:10 | 53.88305 | 9.49160 | 71° | 66km/h | 17076m | -7.1m/s | -53.2°C | 1.2% | 91.32hPa | 2.7V | 00:00:00 | 00:00:00 | 00:00:00 | |
| DO2JMG | 2026-09-04 14:07:09 | 53.88299 | 9.49132 | 70° | 69km/h | 17084m | -7.5m/s | -53.2°C | 0.6% | 91.2hPa | 2.6V | 08:18:24 | 01:48:08 | 00:00:00 | |
| DF8AY | 2026-09-04 14:07:07 | 53.88286 | 9.49079 | 65° | 64km/h | 17100m | -7.9m/s | -53.3°C | 0.6% | 91hPa | 2.6V | 08:18:24 | 01:48:06 | 00:00:00 | |
| AA1-15 | 2026-09-04 14:07:02 | 53.88249 | 9.48981 | 51° | 49km/h | 17140m | -8.2m/s | -53.1°C | 0.6% | 90.4hPa | 2.6V | 08:18:24 | 01:48:01 | 00:00:00 | |
| DL1XH-west | 2026-09-04 14:07:01 | 53.88241 | 9.48965 | 51° | 47km/h | 17147m | -7.5m/s | -52.9°C | 0.5% | 90.3hPa | 2.7V | 08:18:24 | 01:48:00 | 00:00:00 | |
| DL1XH1-15 | 2026-09-04 14:07:00 | 53.88214 | 9.48854 | 74° | 55km/h | 17194m | -8.4m/s | -53°C | 4.2% | 89.6hPa | 2.6V | 08:18:27 | 01:47:54 | 00:00:00 | |
| EDDB2-12 | 2026-09-04 14:07:00 | 53.88229 | 9.48932 | 62° | 42km/h | 17164m | -7.0m/s | -52.9°C | 1.2% | 90.1hPa | 2.7V | 00:00:00 | 00:00:00 | 00:00:00 | |
| DM0DOS-11 | 2026-09-04 14:06:59 | 53.88229 | 9.48932 | 62° | 44km/h | 17164m | -7m/s | -52.9°C | 4.2% | 90.1hPa | 2.7V | 08:18:23 | 01:47:58 | 00:00:00 | |
| DL1XH-15 | 2026-09-04 14:06:59 | 53.88210 | 9.48830 | 73° | 58km/h | 17203m | -9m/s | -53°C | 4.2% | 89.5hPa | 2.7V | 08:18:28 | 01:47:53 | 00:00:00 | |
| DO2JMG | 2026-09-04 14:06:58 | 53.88224 | 9.48915 | 70° | 44km/h | 17171m | -7.2m/s | -52.9°C | 0.5% | 90hPa | 2.6V | 08:18:24 | 01:47:57 | 00:00:00 | |
| DF8AY | 2026-09-04 14:06:57 | 53.88221 | 9.48897 | 75° | 47km/h | 17179m | -7.5m/s | -52.9°C | 0.6% | 89.9hPa | 2.6V | 08:19:15 | 01:47:56 | 00:00:00 | |
| DB0DAN | 2026-09-04 14:06:55 | 53.88214 | 9.48854 | 75° | 53km/h | 17194m | -8.4m/s | -53°C | 1.2% | 89.62hPa | 2.6V | 00:00:00 | 00:00:00 | 00:00:00 | |
| DO2SHX-10 | 2026-09-04 14:06:55 | 53.88214 | 9.48854 | 75° | 58km/h | 17195m | -8.3m/s | -52.9°C | 4.2% | 89.6hPa | 2.6V | 00:00:00 | 01:47:54 | 00:00:00 | |
| DM0DOS-11 | 2026-09-04 14:06:54 | 53.88173 | 9.48707 | 51° | 64km/h | 17244m | -8.9m/s | -53.1°C | 4.2% | 88.9hPa | 2.6V | 08:18:33 | 01:47:48 | 00:00:00 | |
| AA1-15 | 2026-09-04 14:06:51 | 53.88192 | 9.48754 | 61° | 68km/h | 17228m | -7.7m/s | -53.1°C | 0.6% | 89.2hPa | 2.6V | 08:19:15 | 01:47:50 | 00:00:00 | |
| BIOWL1-15 | 2026-09-04 14:06:50 | 53.88173 | 9.48707 | 52° | 64km/h | 17245m | -8.9m/s | -53.1°C | 0.5% | 88.9hPa | 2.6V | 08:19:15 | 01:47:48 | 00:00:00 | |
| DL1XH-west | 2026-09-04 14:06:50 | 53.88183 | 9.48729 | 55° | 68km/h | 17236m | -8.6m/s | -53.1°C | 0.5% | 89hPa | 2.6V | 08:19:15 | 01:47:49 | 00:00:00 | |
| DF5WG-10 | 2026-09-04 14:06:50 | 53.88183 | 9.48729 | 56° | 62km/h | 17236m | -8.6m/s | -53.0°C | 4.2% | 89.0hPa | 2.6V | 00:00:00 | 01:47:49 | 00:00:00 | |
| DL1XH-15 | 2026-09-04 14:06:49 | 53.88136 | 9.48611 | 74° | 53km/h | 17285m | -8.7m/s | -53.3°C | 4.5% | 88.3hPa | 2.6V | 08:18:38 | 01:47:43 | 00:00:00 | |
| DO2JMG | 2026-09-04 14:06:48 | 53.88163 | 9.48686 | 50° | 60km/h | 17253m | -7.9m/s | -53.2°C | 0.5% | 88.8hPa | 2.7V | 08:20:06 | 01:47:47 | 00:00:00 | |
| DF8AY | 2026-09-04 14:06:47 | 53.88147 | 9.48650 | 56° | 49km/h | 17269m | -8.3m/s | -53.2°C | 0.6% | 88.5hPa | 2.6V | 08:19:15 | 01:47:45 | 00:00:00 | |
| DO2SHX-10 | 2026-09-04 14:06:46 | 53.88147 | 9.48650 | 57° | 51km/h | 17269m | -8.3m/s | -53.1°C | 4.3% | 88.5hPa | 2.6V | 00:00:00 | 01:47:45 | 00:00:00 | |
| DF8AY-15 | 2026-09-04 14:06:45 | 53.88140 | 9.48632 | 65° | 64km/h | 17277m | -7.0m/s | -53.2°C | 4.4% | 88.4hPa | 2.6V | 00:00:00 | 01:47:44 | 00:00:00 | |
| DL4XJ-10 | 2026-09-04 14:06:42 | 53.88130 | 9.48563 | 83° | 64km/h | 17303m | -8.7m/s | -53.4°C | 0% | 0hPa | 2.6V | 00:00:00 | 00:00:00 | 00:00:00 | |
| SMARD9-10 | 2026-09-04 14:06:41 | 53.88130 | 9.48563 | 83° | 62km/h | 17303m | -8.7m/s | -53.4°C | 1.3% | 88.1hPa | 2.6V | 08:19:00 | 00:00:00 | 00:00:00 | |
| DM0DOS-11 | 2026-09-04 14:06:40 | 53.88126 | 9.48480 | 85° | 68km/h | 17328m | -7.7m/s | -53.4°C | 4.5% | 87.8hPa | 2.6V | 08:18:43 | 01:47:38 | 00:00:00 | |
| DL1XH1-15 | 2026-09-04 14:06:40 | 53.88115 | 9.48360 | 76° | 73km/h | 17362m | -7m/s | -53.4°C | 4.5% | 87.3hPa | 2.7V | 08:18:47 | 01:47:34 | 00:00:00 | |
| DB0DAN | 2026-09-04 14:06:40 | 53.88127 | 9.48508 | 85° | 64km/h | 17320m | -9.1m/s | -53.4°C | 1.3% | 87.91hPa | 2.6V | 00:00:00 | 00:00:00 | 00:00:00 | |
| DL1XH-west | 2026-09-04 14:06:40 | 53.88127 | 9.48508 | 85° | 66km/h | 17320m | -9.1m/s | -53.4°C | 0.8% | 87.9hPa | 2.6V | 08:19:15 | 01:47:39 | 00:00:00 | |
| BIOWL1-15 | 2026-09-04 14:06:38 | 53.88111 | 9.48331 | 73° | 71km/h | 17370m | -8.4m/s | -53.4°C | 0.7% | 87.2hPa | 2.7V | 08:19:15 | 01:47:33 | 00:00:00 | |
| DO2JMG | 2026-09-04 14:06:37 | 53.88122 | 9.48420 | 82° | 71km/h | 17345m | -8.2m/s | -53.4°C | 0.7% | 87.5hPa | 2.6V | 08:20:06 | 01:47:36 | 00:00:00 | |
| DF8AY | 2026-09-04 14:06:36 | 53.88119 | 9.48390 | 79° | 71km/h | 17354m | -9.4m/s | -53.4°C | 0.7% | 87.4hPa | 2.7V | 08:19:15 | 01:47:35 | 00:00:00 | |
| DD8BA-10 | 2026-09-04 14:06:36 | 53.88119 | 9.48390 | 80° | 64km/h | 17354m | -9.4m/s | -53.4°C | 4.5% | 87.4hPa | 2.6V | 00:00:00 | 00:00:00 | 00:00:00 | |
| DL4BBY-15 | 2026-09-04 14:06:35 | 53.88115 | 9.48360 | 77° | 57km/h | 17362m | -6.9m/s | -53.4°C | 0% | 0hPa | 2.6V | 00:00:00 | 00:00:00 | 00:00:00 | |
| SONDE2-11 | 2026-09-04 14:06:34 | 53.88105 | 9.48303 | 69° | 68km/h | 17378m | -8.4m/s | -53.3°C | 1.2% | 87.1hPa | 2.6V | 00:00:00 | 00:00:00 | 00:00:00 | |
| DJ2DS-15 | 2026-09-04 14:06:33 | 53.88105 | 9.48303 | 70° | 58km/h | 17378m | -8.4m/s | -53.3°C | 4.5% | 87.0hPa | 2.6V | 00:00:00 | 01:47:32 | 00:00:00 | |
| DO2SHX-10 | 2026-09-04 14:06:31 | 53.88093 | 9.48251 | 70° | 58km/h | 17396m | -8.7m/s | -53.3°C | 4.6% | 86.8hPa | 2.7V | 00:00:00 | 01:47:30 | 00:00:00 | |
| DL1XH1-15 | 2026-09-04 14:06:30 | 53.88071 | 9.48107 | 82° | 58km/h | 17445m | -8.2m/s | -52.6°C | 4.2% | 86.2hPa | 2.7V | 08:18:57 | 01:47:24 | 00:00:00 | |
| GOEST3-10 | 2026-09-04 14:06:30 | 53.88088 | 9.48227 | 71° | 58km/h | 17404m | -7.2m/s | -53.1°C | 4.4% | 86.8hPa | 2.7V | 00:00:00 | 01:47:29 | 00:00:00 | |
| DL1XH-15 | 2026-09-04 14:06:29 | 53.88070 | 9.48083 | 86° | 55km/h | 17453m | -7.7m/s | -52.5°C | 4.1% | 86.1hPa | 2.7V | 08:18:58 | 01:47:23 | 00:00:00 | |
| DL1XH-west | 2026-09-04 14:06:29 | 53.88083 | 9.48204 | 72° | 57km/h | 17412m | -8.5m/s | -53°C | 0.6% | 86.5hPa | 2.7V | 08:19:15 | 01:47:28 | 00:00:00 | |
| DO2JMG | 2026-09-04 14:06:26 | 53.88073 | 9.48131 | 80° | 60km/h | 17436m | -7.7m/s | -52.7°C | 0.5% | 86.3hPa | 2.6V | 08:20:06 | 01:47:25 | 00:00:00 | |
| BIOWL1-15 | 2026-09-04 14:06:25 | 53.88069 | 9.48083 | 86° | 55km/h | 17453m | -7.7m/s | -52.5°C | 0.5% | 86.1hPa | 2.7V | 08:19:15 | 01:47:23 | 00:00:00 | |
| DO2SHX-10 | 2026-09-04 14:06:25 | 53.88071 | 9.48107 | 83° | 55km/h | 17445m | -8.2m/s | -52.5°C | 4.2% | 86.1hPa | 2.7V | 08:18:00 | 01:47:24 | 00:00:00 | |
| DM0DOS-11 | 2026-09-04 14:06:24 | 53.88075 | 9.47973 | 94° | 55km/h | 17496m | -11.4m/s | -52.1°C | 4.2% | 85.5hPa | 2.7V | 08:19:03 | 01:47:18 | 00:00:00 | |
| DF8AY-15 | 2026-09-04 14:06:24 | 53.88069 | 9.48083 | 87° | 51km/h | 17453m | -7.7m/s | -52.4°C | 4.1% | 86.1hPa | 2.6V | 00:00:00 | 01:47:23 | 00:00:00 | |
| DO2SHX-10 | 2026-09-04 14:06:22 | 53.88070 | 9.48038 | 96° | 51km/h | 17468m | -7.9m/s | -52.3°C | 4.1% | 85.8hPa | 2.6V | 00:00:00 | 01:47:21 | 00:00:00 | |
| DL1XH1-15 | 2026-09-04 14:06:20 | 53.88071 | 9.47870 | 76° | 64km/h | 17529m | -7.1m/s | -51.9°C | 4% | 85.1hPa | 2.6V | 08:19:07 | 01:47:14 | 00:00:00 | |
| GOEST3-10 | 2026-09-04 14:06:20 | 53.88073 | 9.47995 | 99° | 58km/h | 17486m | -8.6m/s | -52.2°C | 4.1% | 85.6hPa | 2.7V | 00:00:00 | 01:47:19 | 00:00:00 | |
| DL1XH-15 | 2026-09-04 14:06:19 | 53.88067 | 9.47844 | 73° | 60km/h | 17537m | -7.5m/s | -52°C | 4% | 85hPa | 2.7V | 08:19:08 | 01:47:13 | 00:00:00 | |
| DL1XH-west | 2026-09-04 14:06:18 | 53.88076 | 9.47949 | 92° | 58km/h | 17507m | -10.4m/s | -52°C | 0.5% | 85.4hPa | 2.7V | 08:19:15 | 01:47:17 | 00:00:00 | |
| DO2JMG | 2026-09-04 14:06:16 | 53.88074 | 9.47897 | 82° | 64km/h | 17523m | -6.7m/s | -51.9°C | 0.5% | 85.2hPa | 2.6V | 08:20:06 | 01:47:15 | 00:00:00 | |
| DF8AY | 2026-09-04 14:06:15 | 53.88071 | 9.47870 | 77° | 64km/h | 17530m | -7.1m/s | -51.9°C | 0.4% | 85.1hPa | 2.6V | 08:19:15 | 01:47:14 | 00:00:00 | |
| GOEST3-10 | 2026-09-04 14:06:15 | 53.88071 | 9.47870 | 77° | 57km/h | 17530m | -7.1m/s | -51.9°C | 4.0% | 85.0hPa | 2.6V | 00:00:00 | 00:00:00 | 00:00:00 | |
| DM0DOS-11 | 2026-09-04 14:06:14 | 53.88051 | 9.47739 | 81° | 42km/h | 17578m | -8.8m/s | -52°C | 3.9% | 84.4hPa | 2.6V | 08:19:13 | 01:47:08 | 00:00:00 | |
| BIOWL1-15 | 2026-09-04 14:06:13 | 53.88063 | 9.47820 | 72° | 57km/h | 17545m | -7.8m/s | -52°C | 0.4% | 84.9hPa | 2.7V | 08:19:15 | 01:47:12 | 00:00:00 | |
| DJ2DS-15 | 2026-09-04 14:06:13 | 53.88063 | 9.47820 | 72° | 53km/h | 17545m | -7.7m/s | -52.0°C | 4.0% | 84.8hPa | 2.7V | 00:00:00 | 01:47:12 | 00:00:00 | |
| DL1CLM-18 | 2026-09-04 14:06:11 | 53.88058 | 9.47797 | 74° | 53km/h | 17553m | -8.1m/s | -52.0°C | 1.1% | 84.8hPa | 2.7V | 08:19:00 | 00:00:00 | 00:00:00 | |
| DL1XH1-15 | 2026-09-04 14:06:10 | 53.88045 | 9.47675 | 78° | 38km/h | 17613m | -8.7m/s | -52°C | 4.1% | 84hPa | 2.7V | 08:19:17 | 01:47:04 | 00:00:00 | |
| DB0DAN | 2026-09-04 14:06:10 | 53.88053 | 9.47757 | 79° | 42km/h | 17569m | -8.8m/s | -52°C | 1.1% | 84.56hPa | 2.6V | 00:00:00 | 00:00:00 | 00:00:00 | |
| DO2SHX-10 | 2026-09-04 14:06:10 | 53.88053 | 9.47757 | 79° | 42km/h | 17569m | -8.7m/s | -52.0°C | 3.9% | 84.5hPa | 2.6V | 00:00:00 | 01:47:09 | 00:00:00 | |
| DL1XH-15 | 2026-09-04 14:06:09 | 53.88043 | 9.47658 | 78° | 42km/h | 17622m | -7.5m/s | -52.1°C | 4.1% | 83.8hPa | 2.6V | 08:19:18 | 01:47:03 | 00:00:00 | |
| DL1XH-west | 2026-09-04 14:06:07 | 53.88048 | 9.47706 | 83° | 37km/h | 17596m | -8.9m/s | -52°C | 0.4% | 84.2hPa | 2.7V | 08:19:15 | 01:47:06 | 00:00:00 | |
| DF8AY | 2026-09-04 14:06:05 | 53.88043 | 9.47658 | 79° | 42km/h | 17622m | -7.5m/s | -52.1°C | 0.6% | 83.9hPa | 2.6V | 08:20:06 | 01:47:03 | 00:00:00 | |
| BIOWL1-15 | 2026-09-04 14:06:02 | 53.88039 | 9.47618 | 84° | 53km/h | 17638m | -7.5m/s | -52.1°C | 0.5% | 83.6hPa | 2.6V | 08:20:06 | 01:47:01 | 00:00:00 | |
| DL4XJ-10 | 2026-09-04 14:06:02 | 53.88039 | 9.47618 | 84° | 66km/h | 17638m | -7.4m/s | -52.1°C | 0% | 0hPa | 2.7V | 00:00:00 | 00:00:00 | 00:00:00 | |
| DO2SHX-10 | 2026-09-04 14:06:01 | 53.88038 | 9.47595 | 87° | 60km/h | 17645m | -7.5m/s | -52.1°C | 4.2% | 83.5hPa | 2.7V | 00:00:00 | 01:47:00 | 00:00:00 | |
| DL1XH1-15 | 2026-09-04 14:06:00 | 53.88037 | 9.47426 | 87° | 73km/h | 17691m | -8.3m/s | -52.2°C | 4.1% | 83hPa | 2.7V | 08:19:27 | 01:46:54 | 00:00:00 | |
| DO2JMG | 2026-09-04 14:06:00 | 53.88038 | 9.47569 | 88° | 62km/h | 17653m | -8.4m/s | -52.2°C | 0.5% | 83.5hPa | 2.7V | 08:20:06 | 01:46:59 | 00:00:00 | |
| GOEST3-10 | 2026-09-04 14:06:00 | 53.88038 | 9.47569 | 88° | 66km/h | 17653m | -8.4m/s | -52.1°C | 4.1% | 83.4hPa | 2.7V | 00:00:00 | 01:46:59 | 00:00:00 | |
| DL1XH-15 | 2026-09-04 14:05:59 | 53.88037 | 9.47394 | 85° | 77km/h | 17700m | -8.2m/s | -52.3°C | 4% | 82.8hPa | 2.7V | 08:19:28 | 01:46:53 | 00:00:00 | |
| DL1XH-west | 2026-09-04 14:05:57 | 53.88038 | 9.47487 | 91° | 68km/h | 17676m | -7.3m/s | -52.2°C | 0.6% | 83.2hPa | 2.6V | 08:20:06 | 01:46:56 | 00:00:00 | |
| DL3AQ-11 | 2026-09-04 14:05:56 | 53.88037 | 9.47394 | 85° | 77km/h | 17700m | -8.3m/s | -52.3°C | 1.1% | 82.8hPa | 2.7V | 00:00:00 | 00:00:00 | 00:00:00 | |
| DB0DAN | 2026-09-04 14:05:55 | 53.88038 | 9.47426 | 88° | 71km/h | 17691m | -8.3m/s | -52.2°C | 1.2% | 82.98hPa | 2.7V | 00:00:00 | 00:00:00 | 00:00:00 | |
| DF8AY | 2026-09-04 14:05:54 | 53.88037 | 9.47394 | 86° | 77km/h | 17700m | -8.3m/s | -52.3°C | 0.5% | 82.8hPa | 2.7V | 08:20:06 | 01:46:53 | 00:00:00 | |
| BIOWL1-15 | 2026-09-04 14:05:52 | 53.88033 | 9.47328 | 83° | 80km/h | 17717m | -8.2m/s | -52.4°C | 0.5% | 82.6hPa | 2.6V | 08:20:06 | 01:46:51 | 00:00:00 | |
| HTAHTA | 2026-09-04 14:05:51 | 53.88030 | 9.47294 | 81° | 77km/h | 17725m | -8.5m/s | -52.4°C | 1.1% | 82.5hPa | 2.7V | 00:00:00 | 00:00:00 | 00:00:00 | |
| DL1XH1-15 | 2026-09-04 14:05:50 | 53.88018 | 9.47137 | 88° | 49km/h | 17771m | -7.8m/s | -52.5°C | 4.1% | 82hPa | 2.7V | 08:19:37 | 01:46:44 | 00:00:00 | |
| GOEST3-10 | 2026-09-04 14:05:50 | 53.88027 | 9.47262 | 81° | 62km/h | 17734m | -8.0m/s | -52.4°C | 4.0% | 82.4hPa | 2.7V | 00:00:00 | 01:46:49 | 00:00:00 | |
| DL1XH-15 | 2026-09-04 14:05:49 | 53.88018 | 9.47116 | 91° | 51km/h | 17780m | -8.9m/s | -52.5°C | 4.1% | 81.9hPa | 2.7V | 08:19:38 | 01:46:43 | 00:00:00 | |
| DL1XH-west | 2026-09-04 14:05:47 | 53.88020 | 9.47181 | 84° | 53km/h | 17756m | -7.7m/s | -52.5°C | 0.5% | 82.2hPa | 2.6V | 08:20:06 | 01:46:46 | 00:00:00 | |
| DO2JMG | 2026-09-04 14:05:46 | 53.88019 | 9.47158 | 87° | 49km/h | 17764m | -7m/s | -52.4°C | 0.5% | 82.1hPa | 2.6V | 08:20:06 | 01:46:45 | 00:00:00 | |
| DF8AY | 2026-09-04 14:05:43 | 53.88019 | 9.47093 | 93° | 55km/h | 17788m | -7.7m/s | -52.5°C | 0.5% | 81.8hPa | 2.7V | 08:20:06 | 01:46:42 | 00:00:00 | |
| DO2SHX-10 | 2026-09-04 14:05:43 | 53.88019 | 9.47093 | 93° | 62km/h | 17788m | -7.7m/s | -52.4°C | 4.2% | 81.7hPa | 2.6V | 00:00:00 | 01:46:42 | 00:00:00 | |
| DM0DOS-11 | 2026-09-04 14:05:42 | 53.88021 | 9.46978 | 87° | 77km/h | 17821m | -9.1m/s | -52.7°C | 4.2% | 81.4hPa | 2.6V | 08:19:43 | 01:46:38 | 00:00:00 | |
| BIOWL1-15 | 2026-09-04 14:05:41 | 53.88021 | 9.47040 | 93° | 68km/h | 17804m | -7.6m/s | -52.6°C | 0.5% | 81.5hPa | 2.6V | 08:20:06 | 01:46:40 | 00:00:00 | |
| DL1XH1-15 | 2026-09-04 14:05:40 | 53.88006 | 9.46848 | 71° | 73km/h | 17855m | -6.6m/s | -53°C | 4.2% | 80.9hPa | 2.6V | 08:19:47 | 01:46:34 | 00:00:00 | |
| DB0DAN | 2026-09-04 14:05:40 | 53.88021 | 9.47010 | 90° | 69km/h | 17812m | -8.5m/s | -52.7°C | 1.1% | 81.45hPa | 2.6V | 00:00:00 | 00:00:00 | 00:00:00 | |
| DL3AQ-11 | 2026-09-04 14:05:40 | 53.88021 | 9.46978 | 87° | 77km/h | 17821m | -9.1m/s | -52.7°C | 1.1% | 81.4hPa | 2.6V | 00:00:00 | 00:00:00 | 00:00:00 | |
| DL1XH-15 | 2026-09-04 14:05:39 | 53.88000 | 9.46819 | 69° | 69km/h | 17862m | -7.9m/s | -53°C | 4.3% | 80.8hPa | 2.6V | 08:19:48 | 01:46:33 | 00:00:00 | |
| DL1XH-west | 2026-09-04 14:05:37 | 53.88016 | 9.46911 | 79° | 80km/h | 17839m | -8.6m/s | -52.9°C | 0.5% | 81.1hPa | 2.7V | 08:20:06 | 01:46:36 | 00:00:00 | |
| AA1-15 | 2026-09-04 14:05:35 | 53.88006 | 9.46848 | 72° | 73km/h | 17855m | -6.6m/s | -53°C | 0.5% | 80.9hPa | 2.6V | 08:20:06 | 01:46:34 | 00:00:00 | |
| DO2JMG | 2026-09-04 14:05:34 | 53.88000 | 9.46819 | 69° | 69km/h | 17862m | -7.9m/s | -53°C | 0.6% | 80.8hPa | 2.6V | 08:20:06 | 01:46:33 | 00:00:00 | |
| DF8AY | 2026-09-04 14:05:33 | 53.87994 | 9.46792 | 71° | 66km/h | 17870m | -7.5m/s | -52.9°C | 0.6% | 80.7hPa | 2.6V | 08:20:06 | 01:46:32 | 00:00:00 | |
| BIOWL1-15 | 2026-09-04 14:05:31 | 53.87986 | 9.46740 | 78° | 62km/h | 17887m | -8.5m/s | -52.6°C | 0.6% | 80.5hPa | 2.7V | 08:20:06 | 01:46:30 | 00:00:00 | |
| DO2SHX-10 | 2026-09-04 14:05:31 | 53.87986 | 9.46740 | 79° | 64km/h | 17887m | -8.4m/s | -52.6°C | 4.2% | 80.5hPa | 2.7V | 08:19:00 | 01:46:30 | 00:00:00 | |
| DL1XH1-15 | 2026-09-04 14:05:30 | 53.87982 | 9.46566 | 90° | 77km/h | 17939m | -7.3m/s | -52.2°C | 4% | 79.8hPa | 2.7V | 08:19:57 | 01:46:24 | 00:00:00 | |
| DL1XH-west | 2026-09-04 14:05:26 | 53.87982 | 9.46598 | 91° | 73km/h | 17930m | -8.8m/s | -52.2°C | 0.4% | 80hPa | 2.7V | 08:20:06 | 01:46:25 | 00:00:00 | |
| DB0DAN | 2026-09-04 14:05:25 | 53.87982 | 9.46566 | 90° | 73km/h | 17939m | -7.3m/s | -52.3°C | 1.1% | 79.85hPa | 2.7V | 00:00:00 | 00:00:00 | 00:00:00 | |
| AA1-15 | 2026-09-04 14:05:25 | 53.87982 | 9.46566 | 90° | 77km/h | 17939m | -7.3m/s | -52.3°C | 0.4% | 79.8hPa | 2.7V | 08:20:06 | 01:46:24 | 00:00:00 | |
| DO2JMG | 2026-09-04 14:05:24 | 53.87982 | 9.46532 | 87° | 82km/h | 17946m | -7.4m/s | -52.4°C | 0.4% | 79.8hPa | 2.6V | 08:20:06 | 01:46:23 | 00:00:00 | |
| DF8AY | 2026-09-04 14:05:22 | 53.87977 | 9.46461 | 82° | 84km/h | 17960m | -6.8m/s | -52.5°C | 0.4% | 79.6hPa | 2.6V | 08:20:06 | 01:46:21 | 00:00:00 | |
| BIOWL1-15 | 2026-09-04 14:05:21 | 53.87974 | 9.46426 | 81° | 82km/h | 17967m | -7.1m/s | -52.5°C | 0.4% | 79.5hPa | 2.7V | 08:20:06 | 01:46:20 | 00:00:00 | |
| DL1ZP-14 | 2026-09-04 14:05:21 | 53.87971 | 9.46392 | 80° | 78km/h | 17975m | -8.2m/s | -52.6°C | 1.1% | 79.5hPa | 2.7V | 00:00:00 | 00:00:00 | 00:00:00 | |
| DL1XH1-15 | 2026-09-04 14:05:20 | 53.87961 | 9.46232 | 85° | 73km/h | 18014m | -8.4m/s | -52.8°C | 4.2% | 79hPa | 2.7V | 08:20:07 | 01:46:14 | 00:00:00 | |
| GOEST3-10 | 2026-09-04 14:05:20 | 53.87971 | 9.46392 | 81° | 75km/h | 17975m | -8.2m/s | -52.5°C | 4.1% | 79.4hPa | 2.7V | 00:00:00 | 01:46:19 | 00:00:00 | |
| DL1XH-15 | 2026-09-04 14:05:19 | 53.87960 | 9.46201 | 85° | 75km/h | 18022m | -8.5m/s | -52.8°C | 4.1% | 78.8hPa | 2.7V | 08:20:08 | 01:46:13 | 00:00:00 | |
| DL1XH-west | 2026-09-04 14:05:15 | 53.87961 | 9.46232 | 85° | 73km/h | 18014m | -8.4m/s | -52.8°C | 0.5% | 79hPa | 2.7V | 08:20:57 | 01:46:14 | 00:00:00 | |
| DO2JMG | 2026-09-04 14:05:13 | 53.87959 | 9.46169 | 86° | 75km/h | 18031m | -8.7m/s | -52.8°C | 0.5% | 78.8hPa | 2.6V | 08:20:57 | 01:46:12 | 00:00:00 | |
| DF8AY | 2026-09-04 14:05:11 | 53.87957 | 9.46104 | 88° | 77km/h | 18048m | -9.3m/s | -52.8°C | 0.5% | 78.6hPa | 2.6V | 08:20:57 | 01:46:10 | 00:00:00 | |
| BIOWL1-15 | 2026-09-04 14:05:10 | 53.87958 | 9.46006 | 94° | 75km/h | 18073m | -8.1m/s | -52.7°C | 0.5% | 78.2hPa | 2.7V | 08:20:57 | 01:46:07 | 00:00:00 | |
| DB0DAN | 2026-09-04 14:05:10 | 53.87957 | 9.46071 | 91° | 73km/h | 18057m | -8.3m/s | -52.8°C | 1.1% | 78.39hPa | 2.6V | 00:00:00 | 00:00:00 | 00:00:00 | |
| DL1XH1-15 | 2026-09-04 14:05:10 | 53.87960 | 9.45914 | 90° | 69km/h | 18098m | -8.1m/s | -52.7°C | 4.1% | 77.9hPa | 2.6V | 08:20:17 | 01:46:04 | 00:00:00 | |
| DO2SHX-10 | 2026-09-04 14:05:10 | 53.87956 | 9.46071 | 91° | 77km/h | 18057m | -8.2m/s | -52.8°C | 4.1% | 78.3hPa | 2.6V | 00:00:00 | 01:46:09 | 00:00:00 | |
| DL1XH-15 | 2026-09-04 14:05:09 | 53.87960 | 9.45885 | 89° | 68km/h | 18106m | -8.4m/s | -52.8°C | 4.1% | 77.8hPa | 2.6V | 08:20:18 | 01:46:03 | 00:00:00 | |
| DL1XH-west | 2026-09-04 14:05:04 | 53.87960 | 9.45885 | 90° | 68km/h | 18106m | -8.4m/s | -52.8°C | 0.5% | 77.8hPa | 2.6V | 08:20:57 | 01:46:03 | 00:00:00 | |
| DO2JMG | 2026-09-04 14:05:03 | 53.87960 | 9.45856 | 90° | 68km/h | 18114m | -8.2m/s | -52.8°C | 0.5% | 77.7hPa | 2.7V | 08:20:57 | 01:46:02 | 00:00:00 | |
| BIOWL1-15 | 2026-09-04 14:05:00 | 53.87961 | 9.45773 | 91° | 62km/h | 18140m | -9m/s | -52.8°C | 0.5% | 77.4hPa | 2.6V | 08:20:57 | 01:45:59 | 00:00:00 | |
| GOEST3-10 | 2026-09-04 14:05:00 | 53.87961 | 9.45773 | 92° | 60km/h | 18140m | -8.9m/s | -52.8°C | 4.2% | 77.4hPa | 2.6V | 00:00:00 | 01:45:59 | 00:00:00 | |
| DL1XH-15 | 2026-09-04 14:04:59 | 53.87966 | 9.45618 | 93° | 60km/h | 18193m | -9.6m/s | -52.9°C | 4.3% | 76.8hPa | 2.6V | 08:20:28 | 01:45:53 | 00:00:00 | |
| DD1CC8 | 2026-09-04 14:04:57 | 53.87963 | 9.45695 | 94° | 60km/h | 18165m | -7.8m/s | -52.9°C | 1.1% | 77.1hPa | 2.6V | 00:00:00 | 00:00:00 | 00:00:00 | |
| DB0DAN | 2026-09-04 14:04:55 | 53.87965 | 9.45644 | 94° | 58km/h | 18183m | -9.4m/s | -52.9°C | 1.2% | 76.89hPa | 2.6V | 00:00:00 | 00:00:00 | 00:00:00 | |
| GOEST3-10 | 2026-09-04 14:04:55 | 53.87965 | 9.45644 | 95° | 58km/h | 18183m | -9.3m/s | -52.8°C | 4.3% | 76.8hPa | 2.6V | 00:00:00 | 00:00:00 | 00:00:00 | |
| DM0DOS-11 | 2026-09-04 14:04:54 | 53.87967 | 9.45496 | 85° | 51km/h | 18239m | -9.9m/s | -53°C | 4.2% | 76.2hPa | 2.6V | 08:20:33 | 01:45:48 | 00:00:00 | |
| AA1-15 | 2026-09-04 14:04:53 | 53.87967 | 9.45592 | 92° | 58km/h | 18202m | -8.9m/s | -52.9°C | 0.6% | 76.7hPa | 2.6V | 08:20:57 | 01:45:52 | 00:00:00 | |
| DO2JMG | 2026-09-04 14:04:52 | 53.87967 | 9.45567 | 92° | 58km/h | 18211m | -8.9m/s | -53°C | 0.6% | 76.6hPa | 2.7V | 08:20:57 | 01:45:51 | 00:00:00 | |
| BIOWL1-15 | 2026-09-04 14:04:50 | 53.87968 | 9.45519 | 88° | 55km/h | 18229m | -9.4m/s | -53°C | 0.5% | 76.4hPa | 2.6V | 08:20:57 | 01:45:49 | 00:00:00 | |
| HTAHTA | 2026-09-04 14:04:49 | 53.87965 | 9.45474 | 81° | 49km/h | 18248m | -9.6m/s | -53.0°C | 1.1% | 76.1hPa | 2.6V | 00:00:00 | 00:00:00 | 00:00:00 | |
| DL3AQ-11 | 2026-09-04 14:04:47 | 53.87961 | 9.45436 | 77° | 42km/h | 18267m | -9.3m/s | -53.1°C | 1.1% | 75.8hPa | 2.6V | 00:00:00 | 00:00:00 | 00:00:00 | |
| AA1-15 | 2026-09-04 14:04:43 | 53.87954 | 9.45383 | 76° | 46km/h | 18296m | -10.6m/s | -53.1°C | 0.6% | 75.6hPa | 2.6V | 08:20:57 | 01:45:42 | 00:00:00 | |
| DO2SHX-10 | 2026-09-04 14:04:43 | 53.87954 | 9.45383 | 76° | 49km/h | 18297m | -10.5m/s | -53.0°C | 4.2% | 75.5hPa | 2.7V | 00:00:00 | 01:45:42 | 00:00:00 | |
| DM0DOS-11 | 2026-09-04 14:04:42 | 53.87940 | 9.45296 | 76° | 60km/h | 18331m | -7.7m/s | -53.1°C | 4.3% | 75.1hPa | 2.7V | 08:20:43 | 01:45:38 | 00:00:00 | |
| DO2JMG | 2026-09-04 14:04:42 | 53.87951 | 9.45364 | 74° | 49km/h | 18307m | -10.9m/s | -53°C | 0.6% | 75.4hPa | 2.6V | 08:20:57 | 01:45:41 | 00:00:00 | |
| DL4XJ-10 | 2026-09-04 14:04:42 | 53.87951 | 9.45364 | 75° | 51km/h | 18307m | -10.8m/s | -53.0°C | 0% | 0hPa | 2.6V | 00:00:00 | 00:00:00 | 00:00:00 | |
| D01LWL | 2026-09-04 14:04:41 | 53.87947 | 9.45343 | 73° | 51km/h | 18316m | -7.8m/s | -53.0°C | 1.1% | 75.3hPa | 2.6V | 00:00:00 | 00:00:00 | 00:00:00 | |
| DL1XH1-15 | 2026-09-04 14:04:40 | 53.87933 | 9.45197 | 88° | 53km/h | 18362m | -7.6m/s | -53.3°C | 4.5% | 74.8hPa | 2.6V | 08:20:47 | 01:45:34 | 00:00:00 | |
| DB0DAN | 2026-09-04 14:04:40 | 53.87943 | 9.45320 | 75° | 55km/h | 18324m | -7.1m/s | -53.1°C | 1.2% | 75.19hPa | 2.7V | 00:00:00 | 00:00:00 | 00:00:00 | |
| DF8AY | 2026-09-04 14:04:39 | 53.87940 | 9.45296 | 76° | 60km/h | 18331m | -7.7m/s | -53.1°C | 0.6% | 75.1hPa | 2.7V | 08:20:57 | 01:45:38 | 00:00:00 | |
| DL1XH-west | 2026-09-04 14:04:32 | 53.87930 | 9.45132 | 80° | 51km/h | 18388m | -9.2m/s | -53.3°C | 0.8% | 74.5hPa | 2.6V | 08:20:57 | 01:45:31 | 00:00:00 | |
| DO2JMG | 2026-09-04 14:04:31 | 53.87927 | 9.45110 | 75° | 51km/h | 18397m | -9.4m/s | -53.4°C | 0.8% | 74.4hPa | 2.6V | 08:20:57 | 01:45:30 | 00:00:00 | |
| DO2SHX-10 | 2026-09-04 14:04:31 | 53.87927 | 9.45110 | 76° | 51km/h | 18397m | -9.3m/s | -53.3°C | 4.6% | 74.3hPa | 2.7V | 00:00:00 | 01:45:30 | 00:00:00 | |
| DM0DOS-11 | 2026-09-04 14:04:30 | 53.87919 | 9.45069 | 68° | 51km/h | 18414m | -8.2m/s | -53.5°C | 4.7% | 74.2hPa | 2.7V | 08:20:53 | 01:45:28 | 00:00:00 | |
| DL1XH1-15 | 2026-09-04 14:04:30 | 53.87897 | 9.44992 | 66° | 49km/h | 18450m | -8.3m/s | -53.6°C | 4.9% | 73.8hPa | 2.7V | 08:20:57 | 01:45:24 | 00:00:00 | |
| DF8AY | 2026-09-04 14:04:29 | 53.87919 | 9.45069 | 68° | 51km/h | 18414m | -8.2m/s | -53.5°C | 0.9% | 74.2hPa | 2.7V | 08:20:57 | 01:45:28 | 00:00:00 | |
| BIOWL1-15 | 2026-09-04 14:04:28 | 53.87914 | 9.45049 | 65° | 51km/h | 18423m | -9.5m/s | -53.6°C | 0.9% | 74.1hPa | 2.6V | 08:20:57 | 01:45:27 | 00:00:00 | |
| DO2SHX-10 | 2026-09-04 14:04:28 | 53.87914 | 9.45049 | 66° | 49km/h | 18424m | -9.5m/s | -53.5°C | 4.8% | 74.0hPa | 2.6V | 00:00:00 | 01:45:27 | 00:00:00 | |
| DB0DAN | 2026-09-04 14:04:25 | 53.87897 | 9.44992 | 67° | 46km/h | 18450m | -8.3m/s | -53.6°C | 1.4% | 73.78hPa | 2.7V | 00:00:00 | 00:00:00 | 00:00:00 | |
| DO2SHX-10 | 2026-09-04 14:04:25 | 53.87897 | 9.44992 | 67° | 47km/h | 18450m | -8.2m/s | -53.5°C | 4.9% | 73.7hPa | 2.6V | 00:00:00 | 01:45:24 | 00:00:00 | |
| DM0DOS-11 | 2026-09-04 14:04:24 | 53.87888 | 9.44879 | 91° | 47km/h | 18501m | -8.7m/s | -51.8°C | 4.3% | 73.1hPa | 2.6V | 08:21:03 | 01:45:18 | 00:00:00 | |
| DL1XH-west | 2026-09-04 14:04:21 | 53.87888 | 9.44917 | 87° | 42km/h | 18484m | -8.8m/s | -52.1°C | 0.8% | 73.4hPa | 2.6V | 08:21:48 | 01:45:20 | 00:00:00 | |
| SMARD9-15 | 2026-09-04 14:04:20 | 53.87888 | 9.44879 | 91° | 47km/h | 18502m | -8.7m/s | -51.8°C | 1.2% | 73.1hPa | 2.6V | 00:00:00 | 00:00:00 | 00:00:00 | |
| DL1XH-15 | 2026-09-04 14:04:19 | 53.87886 | 9.44750 | 84° | 69km/h | 18544m | -7.8m/s | -51.7°C | 4.1% | 72.7hPa | 2.6V | 08:21:08 | 01:45:13 | 00:00:00 | |
| BIOWL1-15 | 2026-09-04 14:04:18 | 53.87888 | 9.44858 | 92° | 53km/h | 18511m | -8.9m/s | -51.8°C | 0.8% | 73.1hPa | 2.7V | 08:21:48 | 01:45:17 | 00:00:00 | |
| HTAHTA | 2026-09-04 14:04:18 | 53.87888 | 9.44834 | 91° | 58km/h | 18519m | -7.6m/s | -51.7°C | 1.2% | 73.0hPa | 2.6V | 00:00:00 | 00:00:00 | 00:00:00 | |
| DD8BA-10 | 2026-09-04 14:04:16 | 53.87888 | 9.44807 | 90° | 57km/h | 18527m | -8.8m/s | -51.6°C | 4.2% | 72.8hPa | 2.6V | 00:00:00 | 00:00:00 | 00:00:00 | |
| GOEST3-10 | 2026-09-04 14:04:15 | 53.87888 | 9.44779 | 87° | 66km/h | 18536m | -8.8m/s | -51.7°C | 4.2% | 72.7hPa | 2.6V | 00:00:00 | 00:00:00 | 00:00:00 | |
| DM0DOS-11 | 2026-09-04 14:04:13 | 53.87871 | 9.44624 | 79° | 46km/h | 18588m | -7.6m/s | -51.4°C | 3.9% | 72.2hPa | 2.6V | 08:21:13 | 01:45:08 | 00:00:00 | |
| DL1XH-west | 2026-09-04 14:04:11 | 53.87877 | 9.44668 | 76° | 58km/h | 18570m | -10m/s | -51.6°C | 0.5% | 72.4hPa | 2.7V | 08:21:48 | 01:45:10 | 00:00:00 | |
| DB0DAN | 2026-09-04 14:04:10 | 53.87874 | 9.44645 | 76° | 49km/h | 18579m | -8.7m/s | -51.6°C | 1.1% | 72.28hPa | 2.6V | 00:00:00 | 00:00:00 | 00:00:00 | |
| AA1-15 | 2026-09-04 14:04:10 | 53.87874 | 9.44645 | 76° | 53km/h | 18579m | -8.7m/s | -51.6°C | 0.4% | 72.3hPa | 2.6V | 08:21:48 | 01:45:09 | 00:00:00 | |
| DF8AY | 2026-09-04 14:04:08 | 53.87870 | 9.44606 | 85° | 40km/h | 18596m | -8.5m/s | -51.5°C | 0.4% | 72.1hPa | 2.6V | 08:21:48 | 01:45:07 | 00:00:00 | |
| BIOWL1-15 | 2026-09-04 14:04:07 | 53.87870 | 9.44576 | 100° | 33km/h | 18615m | -10.6m/s | -51.6°C | 0.5% | 71.9hPa | 2.7V | 08:21:48 | 01:45:05 | 00:00:00 | |
| DL3AQ-11 | 2026-09-04 14:04:07 | 53.87870 | 9.44576 | 99° | 33km/h | 18615m | -10.6m/s | -51.6°C | 1.1% | 71.9hPa | 2.6V | 00:00:00 | 00:00:00 | 00:00:00 | |
| DD8BA-10 | 2026-09-04 14:04:06 | 53.87870 | 9.44575 | 100° | 42km/h | 18615m | -10.6m/s | -51.5°C | 4.0% | 71.9hPa | 2.6V | 00:00:00 | 00:00:00 | 00:00:00 | |
| DL4XJ-10 | 2026-09-04 14:04:05 | 53.87872 | 9.44562 | 107° | 44km/h | 18624m | -8.3m/s | -51.6°C | 0% | 0hPa | 2.6V | 00:00:00 | 00:00:00 | 00:00:00 | |
| DO2SHX-10 | 2026-09-04 14:04:04 | 53.87875 | 9.44548 | 110° | 37km/h | 18633m | -8.6m/s | -51.4°C | 4.1% | 71.6hPa | 2.6V | 00:00:00 | 01:45:03 | 00:00:00 | |
| DL4BBY-15 | 2026-09-04 14:04:03 | 53.87877 | 9.44534 | 113° | 42km/h | 18641m | -8.1m/s | -51.4°C | 0% | 0hPa | 2.6V | 00:00:00 | 00:00:00 | 00:00:00 | |
| DM0DOS-11 | 2026-09-04 14:04:02 | 53.87892 | 9.44464 | 102° | 51km/h | 18673m | -7.8m/s | -51.6°C | 3.9% | 71.2hPa | 2.6V | 08:21:23 | 01:44:58 | 00:00:00 | |
| AA1-15 | 2026-09-04 14:04:00 | 53.87889 | 9.44484 | 107° | 47km/h | 18665m | -8.3m/s | -51.5°C | 0.4% | 71.3hPa | 2.7V | 08:21:48 | 01:44:59 | 00:00:00 | |
| DL1XH-west | 2026-09-04 14:03:59 | 53.87892 | 9.44464 | 103° | 51km/h | 18673m | -7.8m/s | -51.6°C | 0.4% | 71.2hPa | 2.6V | 08:21:48 | 01:44:58 | 00:00:00 | |
| BIOWL1-15 | 2026-09-04 14:03:57 | 53.87894 | 9.44420 | 86° | 51km/h | 18690m | -7.7m/s | -51.6°C | 0.4% | 71.1hPa | 2.6V | 08:21:48 | 01:44:56 | 00:00:00 | |
| S3001 | 2026-09-04 14:03:57 | 53.87889 | 9.44380 | 70° | 44km/h | 18706m | -7.9m/s | -51.5°C | 1.1% | 70.8hPa | 2.7V | 00:00:00 | 00:00:00 | 00:00:00 | |
| DL3AQ-11 | 2026-09-04 14:03:56 | 53.87889 | 9.44380 | 70° | 44km/h | 18706m | -7.9m/s | -51.5°C | 1.1% | 70.8hPa | 2.7V | 00:00:00 | 00:00:00 | 00:00:00 | |
| DB0DAN | 2026-09-04 14:03:55 | 53.87889 | 9.44380 | 71° | 42km/h | 18706m | -7.9m/s | -51.5°C | 1.1% | 70.85hPa | 2.7V | 00:00:00 | 00:00:00 | 00:00:00 | |
| DO2SHX-10 | 2026-09-04 14:03:55 | 53.87888 | 9.44380 | 71° | 42km/h | 18706m | -7.9m/s | -51.5°C | 3.9% | 70.8hPa | 2.6V | 00:00:00 | 01:44:54 | 00:00:00 | |
| DJ2DS-15 | 2026-09-04 14:03:53 | 53.87880 | 9.44346 | 67° | 40km/h | 18722m | -9.4m/s | -51.4°C | 3.8% | 70.6hPa | 2.6V | 00:00:00 | 01:44:52 | 00:00:00 | |
| DF8AY-15 | 2026-09-04 14:03:52 | 53.87876 | 9.44330 | 71° | 38km/h | 18731m | -9.0m/s | -51.4°C | 3.9% | 70.5hPa | 2.6V | 08:21:00 | 01:44:51 | 00:00:00 | |
| DM0DOS-11 | 2026-09-04 14:03:50 | 53.87871 | 9.44272 | 87° | 51km/h | 18757m | -6.7m/s | -51.6°C | 3.8% | 70.3hPa | 2.7V | 08:21:33 | 01:44:48 | 00:00:00 | |
| DO2JMG | 2026-09-04 14:03:50 | 53.87872 | 9.44293 | 83° | 47km/h | 18749m | -8.4m/s | -51.6°C | 0.4% | 70.4hPa | 2.7V | 08:21:48 | 01:44:49 | 00:00:00 | |
| DL1XH-15 | 2026-09-04 14:03:49 | 53.87875 | 9.44178 | 100° | 35km/h | 18799m | -8.4m/s | -51.9°C | 3.8% | 69.8hPa | 2.7V | 08:21:38 | 01:44:43 | 00:00:00 | |
| AA1-15 | 2026-09-04 14:03:49 | 53.87871 | 9.44272 | 88° | 51km/h | 18757m | -6.7m/s | -51.7°C | 0.4% | 70.3hPa | 2.7V | 08:21:48 | 01:44:48 | 00:00:00 | |
| DL1XH-west | 2026-09-04 14:03:48 | 53.87871 | 9.44250 | 92° | 51km/h | 18764m | -8.7m/s | -51.8°C | 0.4% | 70.2hPa | 2.6V | 08:21:48 | 01:44:47 | 00:00:00 | |
| BIOWL1-15 | 2026-09-04 14:03:46 | 53.87872 | 9.44211 | 98° | 42km/h | 18782m | -9.6m/s | -51.8°C | 0.3% | 70hPa | 2.6V | 08:21:48 | 01:44:45 | 00:00:00 | |
| DO2SHX-10 | 2026-09-04 14:03:46 | 53.87872 | 9.44210 | 98° | 38km/h | 18782m | -9.5m/s | -51.7°C | 3.8% | 70.0hPa | 2.7V | 00:00:00 | 01:44:45 | 00:00:00 | |
| DL4XJ-10 | 2026-09-04 14:03:45 | 53.87874 | 9.44193 | 100° | 44km/h | 18791m | -7.6m/s | -51.9°C | 0% | 0hPa | 2.7V | 00:00:00 | 00:00:00 | 00:00:00 | |
| DM0DOS-11 | 2026-09-04 14:03:44 | 53.87881 | 9.44114 | 94° | 33km/h | 18839m | -8.6m/s | -52.2°C | 3.9% | 69.4hPa | 2.7V | 08:21:43 | 01:44:38 | 00:00:00 | |
| DO2SHX-10 | 2026-09-04 14:03:43 | 53.87877 | 9.44165 | 101° | 29km/h | 18807m | -7.9m/s | -52.0°C | 3.8% | 69.7hPa | 2.7V | 08:21:00 | 01:44:42 | 00:00:00 | |
| BIOWL7-15 | 2026-09-04 14:03:41 | 53.87878 | 9.44153 | 102° | 29km/h | 18815m | -7.8m/s | -52.0°C | 1.0% | 69.7hPa | 2.6V | 08:21:00 | 00:00:00 | 00:00:00 | |
| DL1XH1-15 | 2026-09-04 14:03:40 | 53.87875 | 9.44046 | 70° | 47km/h | 18872m | -7.9m/s | -52.5°C | 4% | 69hPa | 2.6V | 08:21:47 | 01:44:34 | 00:00:00 | |
| DB0DAN | 2026-09-04 14:03:40 | 53.87881 | 9.44128 | 97° | 29km/h | 18831m | -8.2m/s | -52.2°C | 1.1% | 69.5hPa | 2.6V | 00:00:00 | 00:00:00 | 00:00:00 | |
| AA1-15 | 2026-09-04 14:03:39 | 53.87882 | 9.44114 | 95° | 33km/h | 18839m | -8.6m/s | -52.2°C | 0.4% | 69.4hPa | 2.7V | 08:21:48 | 01:44:38 | 00:00:00 | |
| DO2JMG | 2026-09-04 14:03:38 | 53.87882 | 9.44099 | 87° | 37km/h | 18848m | -9.3m/s | -52.4°C | 0.5% | 69.3hPa | 2.7V | 08:21:48 | 01:44:37 | 00:00:00 | |
| DL1XH-west | 2026-09-04 14:03:37 | 53.87881 | 9.44083 | 83° | 40km/h | 18856m | -7.5m/s | -52.4°C | 0.5% | 69.2hPa | 2.6V | 08:21:48 | 01:44:36 | 00:00:00 | |
| BIOWL1-15 | 2026-09-04 14:03:35 | 53.87863 | 9.43987 | 74° | 47km/h | 18896m | -9.4m/s | -52.8°C | 0.5% | 68.8hPa | 2.7V | 08:22:39 | 01:44:31 | 00:00:00 | |
| DF8AY | 2026-09-04 14:03:35 | 53.87875 | 9.44046 | 71° | 47km/h | 18872m | -7.9m/s | -52.5°C | 0.5% | 69hPa | 2.6V | 08:21:48 | 01:44:34 | 00:00:00 | |
| GOEST3-10 | 2026-09-04 14:03:35 | 53.87875 | 9.44046 | 71° | 47km/h | 18872m | -7.8m/s | -52.5°C | 4.0% | 69.0hPa | 2.7V | 00:00:00 | 00:00:00 | 00:00:00 | |
| DO2SHX-10 | 2026-09-04 14:03:34 | 53.87871 | 9.44027 | 71° | 49km/h | 18880m | -7.6m/s | -52.6°C | 4.0% | 68.9hPa | 2.7V | 00:00:00 | 01:44:33 | 00:00:00 | |
| DJ2DS-15 | 2026-09-04 14:03:33 | 53.87867 | 9.44007 | 71° | 53km/h | 18888m | -8.3m/s | -52.7°C | 4.1% | 68.8hPa | 2.7V | 00:00:00 | 01:44:32 | 00:00:00 | |
| DK1YY | 2026-09-04 14:03:32 | 53.87860 | 9.43968 | 79° | 47km/h | 18906m | -10.2m/s | -52.8°C | 1.1% | 68.7hPa | 2.6V | 00:00:00 | 00:00:00 | 00:00:00 | |
| DM0DOS-11 | 2026-09-04 14:03:31 | 53.87858 | 9.43926 | 88° | 51km/h | 18925m | -9.9m/s | -53°C | 4.2% | 68.5hPa | 2.6V | 08:21:53 | 01:44:28 | 00:00:00 | |
| DO2SHX-10 | 2026-09-04 14:03:31 | 53.87860 | 9.43968 | 80° | 49km/h | 18906m | -10.1m/s | -52.8°C | 4.1% | 68.7hPa | 2.6V | 00:00:00 | 01:44:30 | 00:00:00 | |
| DL1XH1-15 | 2026-09-04 14:03:30 | 53.87855 | 9.43826 | 80° | 64km/h | 18964m | -8.8m/s | -53.2°C | 4.1% | 68.1hPa | 2.6V | 08:21:57 | 01:44:24 | 00:00:00 | |
| AA1-15 | 2026-09-04 14:03:29 | 53.87858 | 9.43926 | 89° | 51km/h | 18925m | -10m/s | -53°C | 0.6% | 68.5hPa | 2.6V | 08:22:39 | 01:44:28 | 00:00:00 | |
| DL1XH-west | 2026-09-04 14:03:27 | 53.87858 | 9.43878 | 89° | 60km/h | 18945m | -9.5m/s | -53.1°C | 0.5% | 68.3hPa | 2.7V | 08:22:39 | 01:44:26 | 00:00:00 | |
| DF8AY | 2026-09-04 14:03:25 | 53.87855 | 9.43826 | 81° | 64km/h | 18964m | -8.8m/s | -53.2°C | 0.5% | 68.1hPa | 2.6V | 08:22:39 | 01:44:24 | 00:00:00 | |
| DB0DAN | 2026-09-04 14:03:25 | 53.87855 | 9.43826 | 81° | 60km/h | 18964m | -8.8m/s | -53.2°C | 1.1% | 68.12hPa | 2.6V | 00:00:00 | 00:00:00 | 00:00:00 | |
| BIOWL1-15 | 2026-09-04 14:03:23 | 53.87834 | 9.43722 | 65° | 64km/h | 19002m | -9.9m/s | -53.6°C | 0.5% | 67.7hPa | 2.7V | 08:22:39 | 01:44:20 | 00:00:00 | |
| DO2SHX-10 | 2026-09-04 14:03:22 | 53.87841 | 9.43747 | 68° | 64km/h | 18992m | -9.9m/s | -53.4°C | 4.1% | 67.8hPa | 2.6V | 00:00:00 | 01:44:21 | 00:00:00 | |
| DL1XH1-15 | 2026-09-04 14:03:20 | 53.87798 | 9.43609 | 73° | 33km/h | 19058m | -9m/s | -54.1°C | 4.5% | 67.1hPa | 2.6V | 08:22:07 | 01:44:14 | 00:00:00 | |
| DM0DOS-11 | 2026-09-04 14:03:19 | 53.87820 | 9.43675 | 60° | 58km/h | 19022m | -9.9m/s | -53.8°C | 4.3% | 67.5hPa | 2.6V | 08:22:03 | 01:44:18 | 00:00:00 | |
| DL1XH-15 | 2026-09-04 14:03:19 | 53.87796 | 9.43595 | 87° | 35km/h | 19067m | -9m/s | -54.1°C | 4.5% | 67hPa | 2.6V | 08:22:08 | 01:44:13 | 00:00:00 | |
| AA1-15 | 2026-09-04 14:03:18 | 53.87813 | 9.43655 | 59° | 53km/h | 19031m | -8.9m/s | -53.9°C | 0.6% | 67.4hPa | 2.6V | 08:22:39 | 01:44:17 | 00:00:00 | |
| DL1XH-west | 2026-09-04 14:03:16 | 53.87801 | 9.43622 | 60° | 38km/h | 19049m | -8.2m/s | -54°C | 0.6% | 67.2hPa | 2.7V | 08:22:39 | 01:44:15 | 00:00:00 | |
| DF8AY | 2026-09-04 14:03:14 | 53.87796 | 9.43595 | 87° | 35km/h | 19067m | -9m/s | -54.2°C | 0.7% | 67hPa | 2.6V | 08:22:39 | 01:44:13 | 00:00:00 | |
| DM0DOS-11 | 2026-09-04 14:03:13 | 53.87801 | 9.43486 | 86° | 64km/h | 19113m | -10.4m/s | -54.6°C | 4.6% | 66.5hPa | 2.6V | 08:22:13 | 01:44:08 | 00:00:00 | |
| BIOWL1-15 | 2026-09-04 14:03:10 | 53.87799 | 9.43458 | 80° | 68km/h | 19123m | -9.2m/s | -54.7°C | 0.7% | 66.5hPa | 2.6V | 08:22:39 | 01:44:07 | 00:00:00 | |
| DL1XH1-15 | 2026-09-04 14:03:10 | 53.87782 | 9.43379 | 64° | 62km/h | 19148m | -11m/s | -54.8°C | 4.7% | 66.2hPa | 2.7V | 08:22:17 | 01:44:04 | 00:00:00 | |
| DB0DAN | 2026-09-04 14:03:10 | 53.87801 | 9.43513 | 92° | 58km/h | 19103m | -10.1m/s | -54.5°C | 1.2% | 66.67hPa | 2.7V | 00:00:00 | 00:00:00 | 00:00:00 | |
| AA1-15 | 2026-09-04 14:03:07 | 53.87795 | 9.43430 | 73° | 68km/h | 19131m | -7.9m/s | -54.7°C | 0.8% | 66.3hPa | 2.6V | 08:22:39 | 01:44:06 | 00:00:00 | |
| DL1XH-west | 2026-09-04 14:03:05 | 53.87782 | 9.43379 | 64° | 62km/h | 19149m | -11m/s | -54.8°C | 0.8% | 66.2hPa | 2.7V | 08:22:39 | 01:44:04 | 00:00:00 | |
| DF8AY | 2026-09-04 14:03:04 | 53.87776 | 9.43355 | 63° | 58km/h | 19159m | -9.8m/s | -54.8°C | 0.8% | 66.1hPa | 2.6V | 08:22:39 | 01:44:03 | 00:00:00 | |
| BIOWL1-15 | 2026-09-04 14:03:02 | 53.87758 | 9.43272 | 84° | 46km/h | 19194m | -7.8m/s | -54.6°C | 0.9% | 65.7hPa | 2.7V | 08:22:39 | 01:43:59 | 00:00:00 | |
| DM0DOS-11 | 2026-09-04 14:03:01 | 53.87758 | 9.43252 | 90° | 47km/h | 19203m | -8.7m/s | -54.6°C | 4.9% | 65.6hPa | 2.7V | 08:22:23 | 01:43:58 | 00:00:00 | |
| DO2JMG | 2026-09-04 14:03:01 | 53.87761 | 9.43292 | 76° | 49km/h | 19187m | -8.2m/s | -54.7°C | 0.9% | 65.8hPa | 2.7V | 08:23:30 | 01:44:00 | 00:00:00 | |
| AA1-15 | 2026-09-04 14:02:57 | 53.87760 | 9.43210 | 96° | 51km/h | 19221m | -9.3m/s | -54.6°C | 1% | 65.4hPa | 2.6V | 08:22:39 | 01:43:56 | 00:00:00 | |
| DB0DAN | 2026-09-04 14:02:55 | 53.87763 | 9.43165 | 98° | 51km/h | 19239m | -9.1m/s | -54.6°C | 1.3% | 65.22hPa | 2.7V | 00:00:00 | 00:00:00 | 00:00:00 | |
| DL1XH-west | 2026-09-04 14:02:55 | 53.87763 | 9.43165 | 98° | 53km/h | 19239m | -9.1m/s | -54.6°C | 0.9% | 65.2hPa | 2.7V | 08:22:39 | 01:43:54 | 00:00:00 | |
| DF8AY | 2026-09-04 14:02:54 | 53.87764 | 9.43143 | 95° | 53km/h | 19248m | -9.1m/s | -54.6°C | 0.9% | 65.1hPa | 2.7V | 08:22:39 | 01:43:53 | 00:00:00 | |
| BIOWL1-15 | 2026-09-04 14:02:50 | 53.87761 | 9.43063 | 74° | 44km/h | 19286m | -8m/s | -54.2°C | 1% | 64.7hPa | 2.7V | 08:22:39 | 01:43:49 | 00:00:00 | |
| GOEST3-10 | 2026-09-04 14:02:50 | 53.87760 | 9.43063 | 75° | 44km/h | 19286m | -8.0m/s | -54.2°C | 5.0% | 64.7hPa | 2.7V | 00:00:00 | 01:43:49 | 00:00:00 | |
| DL1XH1-15 | 2026-09-04 14:02:49 | 53.87740 | 9.42955 | 77° | 44km/h | 19340m | -9.3m/s | -52.8°C | 4.3% | 64.2hPa | 2.7V | 08:22:38 | 01:43:43 | 00:00:00 | |
| DO2JMG | 2026-09-04 14:02:48 | 53.87754 | 9.43027 | 70° | 44km/h | 19303m | -8.8m/s | -53.3°C | 0.7% | 64.6hPa | 2.7V | 08:23:30 | 01:43:47 | 00:00:00 | |
| AA1-15 | 2026-09-04 14:02:47 | 53.87750 | 9.43009 | 70° | 46km/h | 19312m | -9.6m/s | -53.1°C | 0.7% | 64.5hPa | 2.6V | 08:22:39 | 01:43:46 | 00:00:00 | |
| DL1XH-west | 2026-09-04 14:02:44 | 53.87740 | 9.42955 | 78° | 44km/h | 19340m | -9.3m/s | -52.8°C | 0.6% | 64.2hPa | 2.7V | 08:22:39 | 01:43:43 | 00:00:00 | |
| DO2SHX-10 | 2026-09-04 14:02:43 | 53.87738 | 9.42936 | 84° | 42km/h | 19349m | -8.4m/s | -52.7°C | 4.3% | 64.1hPa | 2.6V | 00:00:00 | 01:43:42 | 00:00:00 | |
| DB0DAN | 2026-09-04 14:02:40 | 53.87740 | 9.42884 | 102° | 37km/h | 19376m | -9.4m/s | -52.5°C | 1.1% | 63.86hPa | 2.6V | 00:00:00 | 00:00:00 | 00:00:00 | |
| DO2SHX-10 | 2026-09-04 14:02:40 | 53.87740 | 9.42884 | 102° | 38km/h | 19376m | -9.3m/s | -52.4°C | 4.2% | 63.8hPa | 2.6V | 00:00:00 | 01:43:39 | 00:00:00 | |
| DL1XH1-15 | 2026-09-04 14:02:39 | 53.87741 | 9.42782 | 82° | 49km/h | 19429m | -9.2m/s | -52°C | 4% | 63.3hPa | 2.6V | 08:22:48 | 01:43:33 | 00:00:00 | |
| DO2JMG | 2026-09-04 14:02:38 | 53.87743 | 9.42851 | 95° | 37km/h | 19395m | -9.8m/s | -52°C | 0.6% | 63.6hPa | 2.7V | 08:23:30 | 01:43:37 | 00:00:00 | |
| AA1-15 | 2026-09-04 14:02:36 | 53.87744 | 9.42819 | 86° | 40km/h | 19413m | -9.3m/s | -51.9°C | 0.5% | 63.5hPa | 2.6V | 08:23:30 | 01:43:35 | 00:00:00 | |
| DL1XH-west | 2026-09-04 14:02:33 | 53.87739 | 9.42761 | 82° | 51km/h | 19439m | -10.2m/s | -52°C | 0.5% | 63.2hPa | 2.7V | 08:23:30 | 01:43:32 | 00:00:00 | |
| DJ2DS-15 | 2026-09-04 14:02:33 | 53.87739 | 9.42761 | 82° | 44km/h | 19440m | -10.1m/s | -52.0°C | 4.1% | 63.1hPa | 2.7V | 00:00:00 | 01:43:32 | 00:00:00 | |
| DM0DOS-11 | 2026-09-04 14:02:31 | 53.87737 | 9.42668 | 92° | 55km/h | 19485m | -11.2m/s | -52.2°C | 4.2% | 62.8hPa | 2.7V | 08:22:53 | 01:43:28 | 00:00:00 | |
| DO2SHX-10 | 2026-09-04 14:02:31 | 53.87737 | 9.42715 | 88° | 55km/h | 19461m | -11.4m/s | -52.1°C | 4.1% | 63.0hPa | 2.6V | 00:00:00 | 01:43:30 | 00:00:00 | |
| GOEST3-10 | 2026-09-04 14:02:30 | 53.87736 | 9.42691 | 91° | 51km/h | 19473m | -12.7m/s | -52.1°C | 4.1% | 62.9hPa | 2.7V | 00:00:00 | 01:43:29 | 00:00:00 | |
| DL1XH1-15 | 2026-09-04 14:02:29 | 53.87735 | 9.42572 | 79° | 35km/h | 19530m | -8m/s | -52.3°C | 4.1% | 62.3hPa | 2.7V | 08:22:58 | 01:43:23 | 00:00:00 | |
| BIOWL1-15 | 2026-09-04 14:02:28 | 53.87729 | 9.42531 | 81° | 29km/h | 19556m | -9.9m/s | -52.3°C | 0.5% | 62.1hPa | 2.6V | 08:23:30 | 01:43:20 | 00:00:00 | |
| DO2JMG | 2026-09-04 14:02:27 | 53.87738 | 9.42623 | 90° | 47km/h | 19503m | -9.7m/s | -52.3°C | 0.6% | 62.6hPa | 2.6V | 08:23:30 | 01:43:26 | 00:00:00 | |
| AA1-15 | 2026-09-04 14:02:27 | 53.87737 | 9.42604 | 87° | 42km/h | 19512m | -9.1m/s | -52.3°C | 0.6% | 62.5hPa | 2.6V | 08:23:30 | 01:43:25 | 00:00:00 | |
| DM0DOS-11 | 2026-09-04 14:02:26 | 53.87729 | 9.42492 | 96° | 35km/h | 19587m | -10.8m/s | -52.2°C | 4.2% | 61.8hPa | 2.6V | 08:23:04 | 01:43:17 | 00:00:00 | |
| DL1XH-west | 2026-09-04 14:02:26 | 53.87733 | 9.42558 | 75° | 33km/h | 19538m | -9.1m/s | -52.3°C | 0.5% | 62.2hPa | 2.7V | 08:23:30 | 01:43:22 | 00:00:00 | |
| DB0DAN | 2026-09-04 14:02:25 | 53.87736 | 9.42587 | 80° | 37km/h | 19521m | -8.9m/s | -52.3°C | 1.1% | 62.44hPa | 2.6V | 00:00:00 | 00:00:00 | 00:00:00 | |
| DL4XJ-10 | 2026-09-04 14:02:25 | 53.87736 | 9.42587 | 81° | 46km/h | 19521m | -8.9m/s | -52.3°C | 0% | 0hPa | 2.7V | 00:00:00 | 00:00:00 | 00:00:00 | |
| DO2SHX-10 | 2026-09-04 14:02:22 | 53.87731 | 9.42544 | 79° | 31km/h | 19547m | -8.5m/s | -52.2°C | 4.1% | 62.1hPa | 2.7V | 08:23:00 | 01:43:21 | 00:00:00 | |
| SMARD9-10 | 2026-09-04 14:02:21 | 53.87731 | 9.42544 | 79° | 31km/h | 19547m | -8.5m/s | -52.3°C | 1.1% | 62.1hPa | 2.6V | 08:23:00 | 00:00:00 | 00:00:00 | |
| GOEST3-10 | 2026-09-04 14:02:20 | 53.87729 | 9.42519 | 86° | 38km/h | 19566m | -10.0m/s | -52.2°C | 4.1% | 62.0hPa | 2.6V | 00:00:00 | 01:43:19 | 00:00:00 | |
| DL1XH1-15 | 2026-09-04 14:02:19 | 53.87733 | 9.42408 | 89° | 62km/h | 19618m | -7.4m/s | -52.2°C | 4.2% | 61.4hPa | 2.6V | 08:23:08 | 01:43:13 | 00:00:00 | |
| DO2JMG | 2026-09-04 14:02:18 | 53.87730 | 9.42475 | 99° | 40km/h | 19596m | -6.6m/s | -52.2°C | 0.6% | 61.7hPa | 2.7V | 08:23:30 | 01:43:16 | 00:00:00 | |
| BIOWL1-15 | 2026-09-04 14:02:16 | 53.87733 | 9.42408 | 90° | 62km/h | 19618m | -7.4m/s | -52.3°C | 0.6% | 61.4hPa | 2.6V | 08:23:30 | 01:43:13 | 00:00:00 | |
| AA1-15 | 2026-09-04 14:02:15 | 53.87733 | 9.42433 | 95° | 57km/h | 19611m | -6.9m/s | -52.2°C | 0.7% | 61.6hPa | 2.7V | 08:23:30 | 01:43:14 | 00:00:00 | |
| GOEST3-10 | 2026-09-04 14:02:15 | 53.87733 | 9.42433 | 96° | 62km/h | 19611m | -6.9m/s | -52.2°C | 4.2% | 61.5hPa | 2.6V | 00:00:00 | 00:00:00 | 00:00:00 | |
| DF2AP-13 | 2026-09-04 14:02:14 | 53.87733 | 9.42408 | 90° | 49km/h | 19619m | -7.4m/s | -52.2°C | 4.2% | 61.4hPa | 2.6V | 00:00:00 | 01:43:13 | 00:00:00 | |
| DM0DOS-11 | 2026-09-04 14:02:13 | 53.87719 | 9.42255 | 72° | 53km/h | 19668m | -8.9m/s | -52.2°C | 4.1% | 61hPa | 2.6V | 08:23:14 | 01:43:07 | 00:00:00 | |
| DL1XH-west | 2026-09-04 14:02:12 | 53.87732 | 9.42354 | 85° | 66km/h | 19635m | -9.4m/s | -52.2°C | 0.6% | 61.3hPa | 2.6V | 08:23:30 | 01:43:11 | 00:00:00 | |
| DB0DAN | 2026-09-04 14:02:10 | 53.87727 | 9.42301 | 78° | 58km/h | 19651m | -8.7m/s | -52.2°C | 1.1% | 61.15hPa | 2.7V | 00:00:00 | 00:00:00 | 00:00:00 | |
| DO2SHX-10 | 2026-09-04 14:02:10 | 53.87727 | 9.42301 | 78° | 57km/h | 19652m | -8.6m/s | -52.1°C | 4.2% | 61.1hPa | 2.6V | 00:00:00 | 01:43:09 | 00:00:00 | |
| DL1XH-15 | 2026-09-04 14:02:09 | 53.87707 | 9.42184 | 82° | 35km/h | 19703m | -9.5m/s | -52.4°C | 4.1% | 60.7hPa | 2.6V | 08:23:18 | 01:43:03 | 00:00:00 | |
| DO2JMG | 2026-09-04 14:02:07 | 53.87715 | 9.42235 | 71° | 46km/h | 19677m | -9.7m/s | -52.3°C | 0.6% | 60.9hPa | 2.7V | 08:23:30 | 01:43:06 | 00:00:00 | |
| AA1-15 | 2026-09-04 14:02:05 | 53.87709 | 9.42199 | 77° | 38km/h | 19695m | -8.6m/s | -52.3°C | 0.5% | 60.7hPa | 2.6V | 08:23:30 | 01:43:04 | 00:00:00 | |
| DL1XH-west | 2026-09-04 14:02:01 | 53.87710 | 9.42143 | 112° | 35km/h | 19735m | -11.4m/s | -52.4°C | 0.6% | 60.4hPa | 2.7V | 08:23:30 | 01:43:00 | 00:00:00 | |
| DO2SHX-10 | 2026-09-04 14:02:01 | 53.87710 | 9.42143 | 112° | 37km/h | 19735m | -11.3m/s | -52.3°C | 4.2% | 60.3hPa | 2.6V | 00:00:00 | 01:43:00 | 00:00:00 | |
| GOEST3-10 | 2026-09-04 14:02:00 | 53.87714 | 9.42130 | 117° | 46km/h | 19744m | -7.7m/s | -52.4°C | 4.2% | 60.2hPa | 2.6V | 00:00:00 | 01:42:59 | 00:00:00 | |
| DL1XH1-15 | 2026-09-04 14:01:59 | 53.87740 | 9.42012 | 92° | 55km/h | 19797m | -10m/s | -52.5°C | 4.3% | 59.8hPa | 2.6V | 08:23:28 | 01:42:53 | 00:00:00 | |
| DM0DOS-11 | 2026-09-04 14:01:58 | 53.87724 | 9.42099 | 117° | 47km/h | 19760m | -8.5m/s | -52.4°C | 4.3% | 60.1hPa | 2.6V | 08:23:24 | 01:42:57 | 00:00:00 | |
| DO2JMG | 2026-09-04 14:01:57 | 53.87729 | 9.42080 | 114° | 53km/h | 19769m | -9.6m/s | -52.5°C | 0.7% | 60hPa | 2.6V | 08:23:30 | 01:42:56 | 00:00:00 | |
| DB0DAN | 2026-09-04 14:01:55 | 53.87738 | 9.42036 | 102° | 55km/h | 19788m | -9.2m/s | -52.5°C | 1.2% | 59.9hPa | 2.7V | 00:00:00 | 00:00:00 | 00:00:00 | |
| AA1-15 | 2026-09-04 14:01:54 | 53.87739 | 9.42012 | 92° | 55km/h | 19797m | -10m/s | -52.5°C | 0.7% | 59.8hPa | 2.6V | 08:23:30 | 01:42:53 | 00:00:00 | |
| S3001 | 2026-09-04 14:01:53 | 53.87713 | 9.41876 | 62° | 42km/h | 19861m | -10.6m/s | -52.5°C | 1.2% | 59.2hPa | 2.6V | 00:00:00 | 00:00:00 | 00:00:00 | |
| DM0DOS-11 | 2026-09-04 14:01:52 | 53.87718 | 9.41893 | 61° | 46km/h | 19851m | -10.1m/s | -52.7°C | 4.5% | 59.3hPa | 2.6V | 08:23:34 | 01:42:47 | 00:00:00 | |
| DL1XH-west | 2026-09-04 14:01:50 | 53.87729 | 9.41928 | 67° | 47km/h | 19831m | -8.4m/s | -52.7°C | 0.8% | 59.5hPa | 2.7V | 08:24:21 | 01:42:49 | 00:00:00 | |
| DO2JMG | 2026-09-04 14:01:46 | 53.87709 | 9.41859 | 68° | 42km/h | 19871m | -10.4m/s | -52.4°C | 0.8% | 59.1hPa | 2.6V | 08:25:12 | 01:42:45 | 00:00:00 | |
| DO2SHX-10 | 2026-09-04 14:01:46 | 53.87708 | 9.41859 | 68° | 38km/h | 19871m | -10.3m/s | -52.3°C | 4.4% | 59.1hPa | 2.6V | 00:00:00 | 01:42:45 | 00:00:00 | |
| DL4XJ-10 | 2026-09-04 14:01:45 | 53.87705 | 9.41843 | 77° | 24km/h | 19881m | -8.5m/s | -52.3°C | 0% | 0hPa | 2.7V | 00:00:00 | 00:00:00 | 00:00:00 | |
| DF2AP-13 | 2026-09-04 14:01:44 | 53.87704 | 9.41827 | 90° | 27km/h | 19889m | -8.4m/s | -52.0°C | 4.2% | 58.9hPa | 2.7V | 08:23:00 | 01:42:43 | 00:00:00 | |
| AA1-15 | 2026-09-04 14:01:44 | 53.87704 | 9.41827 | 89° | 37km/h | 19889m | -8.4m/s | -52.1°C | 0.6% | 58.9hPa | 2.7V | 08:24:21 | 01:42:43 | 00:00:00 | |
| DO2SHX-10 | 2026-09-04 14:01:43 | 53.87706 | 9.41811 | 106° | 40km/h | 19898m | -9.1m/s | -52.0°C | 4.2% | 58.8hPa | 2.7V | 00:00:00 | 01:42:42 | 00:00:00 | |
| HTAHTA | 2026-09-04 14:01:42 | 53.87709 | 9.41795 | 116° | 40km/h | 19906m | -7.5m/s | -52.1°C | 1.1% | 58.8hPa | 2.7V | 00:00:00 | 00:00:00 | 00:00:00 | |
| DB0DAN | 2026-09-04 14:01:40 | 53.87720 | 9.41765 | 121° | 38km/h | 19923m | -11.7m/s | -52.2°C | 1.2% | 58.61hPa | 2.7V | 00:00:00 | 00:00:00 | 00:00:00 | |
| DM0DOS-11 | 2026-09-04 14:01:40 | 53.87729 | 9.41740 | 122° | 27km/h | 19944m | -8.9m/s | -52.1°C | 4.2% | 58.4hPa | 2.7V | 08:23:44 | 01:42:37 | 00:00:00 | |
| BIOWL1-15 | 2026-09-04 14:01:40 | 53.87720 | 9.41765 | 121° | 40km/h | 19923m | -11.7m/s | -52.2°C | 0.7% | 58.6hPa | 2.7V | 08:24:21 | 01:42:39 | 00:00:00 | |
| DL1XH-west | 2026-09-04 14:01:39 | 53.87725 | 9.41751 | 123° | 35km/h | 19934m | -11.3m/s | -52.2°C | 0.6% | 58.5hPa | 2.7V | 08:24:21 | 01:42:38 | 00:00:00 | |
| AA1-15 | 2026-09-04 14:01:34 | 53.87732 | 9.41716 | 35° | 9km/h | 19982m | -9.2m/s | -52°C | 0.7% | 58.1hPa | 2.7V | 08:24:21 | 01:42:33 | 00:00:00 | |
| DO2JMG | 2026-09-04 14:01:33 | 53.87730 | 9.41715 | 19° | 7km/h | 19991m | -10m/s | -52°C | 0.7% | 58hPa | 2.7V | 08:25:12 | 01:42:32 | 00:00:00 | |
| DF8AY | 2026-09-04 14:01:29 | 53.87726 | 9.41712 | 102° | 7km/h | 20032m | -9.4m/s | -51.8°C | 0.6% | 57.6hPa | 2.7V | 08:24:21 | 01:42:28 | 00:00:00 | |
| DL1XH-west | 2026-09-04 14:01:28 | 53.87727 | 9.41707 | 113° | 18km/h | 20042m | -9.9m/s | -51.6°C | 0.6% | 57.5hPa | 2.7V | 08:24:21 | 01:42:27 | 00:00:00 | |
| DO2SHX-10 | 2026-09-04 14:01:28 | 53.87727 | 9.41707 | 114° | 27km/h | 20042m | -9.8m/s | -51.5°C | 4.2% | 57.5hPa | 2.7V | 08:23:00 | 01:42:27 | 00:00:00 | |
| DL8OAI-8 | 2026-09-04 14:01:26 | 53.87729 | 9.41698 | 109° | 26km/h | 20051m | -8.1m/s | -51.6°C | 1.1% | 57.5hPa | 2.6V | 08:24:00 | 00:00:00 | 00:00:00 | |
| DB0DAN | 2026-09-04 14:01:25 | 53.87733 | 9.41668 | 99° | 42km/h | 20067m | -8.8m/s | -51.6°C | 1.1% | 57.35hPa | 2.6V | 00:00:00 | 00:00:00 | 00:00:00 | |
| AA1-15 | 2026-09-04 14:01:23 | 53.87734 | 9.41629 | 83° | 49km/h | 20084m | -8.2m/s | -51.6°C | 0.6% | 57.2hPa | 2.7V | 08:24:21 | 01:42:22 | 00:00:00 | |
| DM0DOS-11 | 2026-09-04 14:01:22 | 53.87714 | 9.41545 | 51° | 29km/h | 20128m | -8.2m/s | -51.6°C | 4.1% | 56.8hPa | 2.7V | 08:24:04 | 01:42:17 | 00:00:00 | |
| DO2JMG | 2026-09-04 14:01:21 | 53.87728 | 9.41589 | 70° | 46km/h | 20103m | -10.3m/s | -51.6°C | 0.6% | 57hPa | 2.6V | 08:25:12 | 01:42:20 | 00:00:00 | |
| DF8AY | 2026-09-04 14:01:19 | 53.87714 | 9.41545 | 52° | 29km/h | 20128m | -8.2m/s | -51.6°C | 0.6% | 56.8hPa | 2.7V | 08:24:21 | 01:42:17 | 00:00:00 | |
| DL1XH-west | 2026-09-04 14:01:17 | 53.87710 | 9.41536 | 51° | 24km/h | 20136m | -8.1m/s | -51.6°C | 0.6% | 56.7hPa | 2.6V | 08:24:21 | 01:42:16 | 00:00:00 | |
| DO2SHX-10 | 2026-09-04 14:01:16 | 53.87707 | 9.41528 | 62° | 18km/h | 20145m | -8.1m/s | -51.5°C | 4.1% | 56.6hPa | 2.7V | 00:00:00 | 01:42:15 | 00:00:00 | |
| AP2371 | 2026-09-04 14:01:15 | 53.87707 | 9.41528 | 63° | 18km/h | 20145m | -8.2m/s | -51.6°C | 1.1% | 56.7hPa | 2.7V | 00:00:00 | 00:00:00 | 00:00:00 | |
| DL3AQ-11 | 2026-09-04 14:01:14 | 53.87709 | 9.41505 | 119° | 24km/h | 20171m | -7.9m/s | -51.6°C | 1.1% | 56.4hPa | 2.7V | 00:00:00 | 00:00:00 | 00:00:00 | |
| SMARD9-15 | 2026-09-04 14:01:13 | 53.87709 | 9.41505 | 119° | 24km/h | 20171m | -7.9m/s | -51.6°C | 1.1% | 56.4hPa | 2.7V | 00:00:00 | 00:00:00 | 00:00:00 | |
| DM0DOS-11 | 2026-09-04 14:01:12 | 53.87733 | 9.41430 | 110° | 53km/h | 20213m | -8.5m/s | -51.6°C | 4.2% | 56hPa | 2.7V | 08:24:14 | 01:42:07 | 00:00:00 | |
| AA1-15 | 2026-09-04 14:01:12 | 53.87713 | 9.41495 | 122° | 29km/h | 20178m | -7.6m/s | -51.6°C | 0.7% | 56.4hPa | 2.7V | 08:24:21 | 01:42:11 | 00:00:00 | |
| DB0DAN | 2026-09-04 14:01:10 | 53.87722 | 9.41468 | 119° | 42km/h | 20195m | -10.1m/s | -51.7°C | 1.1% | 56.22hPa | 2.6V | 00:00:00 | 00:00:00 | 00:00:00 | |
| DF8AY | 2026-09-04 14:01:09 | 53.87733 | 9.41430 | 110° | 53km/h | 20213m | -8.5m/s | -51.6°C | 0.7% | 56hPa | 2.7V | 08:24:21 | 01:42:07 | 00:00:00 | |
| BIOWL1-15 | 2026-09-04 14:01:08 | 53.87740 | 9.41385 | 100° | 57km/h | 20230m | -9.2m/s | -51.5°C | 0.6% | 55.9hPa | 2.6V | 08:24:21 | 01:42:05 | 00:00:00 | |
| DL1XH-west | 2026-09-04 14:01:07 | 53.87737 | 9.41408 | 106° | 55km/h | 20221m | -8.5m/s | -51.5°C | 0.6% | 56hPa | 2.7V | 08:24:21 | 01:42:06 | 00:00:00 | |
| DB0UT-7 | 2026-09-04 14:01:07 | 53.87737 | 9.41408 | 107° | 35km/h | 20221m | -8.4m/s | -51.5°C | 4.1% | 55.9hPa | 2.7V | 00:00:00 | 01:42:06 | 00:00:00 | |
| DF5WG-10 | 2026-09-04 14:01:06 | 53.87740 | 9.41385 | 100° | 40km/h | 20230m | -9.2m/s | -51.5°C | 4.1% | 55.8hPa | 2.6V | 00:00:00 | 01:42:05 | 00:00:00 | |
| DL4XJ-10 | 2026-09-04 14:01:05 | 53.87742 | 9.41361 | 94° | 38km/h | 20239m | -9.4m/s | -51.5°C | 0% | 0hPa | 2.6V | 00:00:00 | 00:00:00 | 00:00:00 | |
| DO2SHX-10 | 2026-09-04 14:01:04 | 53.87742 | 9.41336 | 88° | 53km/h | 20248m | -9.1m/s | -51.5°C | 4.0% | 55.7hPa | 2.6V | 00:00:00 | 01:42:03 | 00:00:00 | |
| DM0DOS-11 | 2026-09-04 14:01:03 | 53.87723 | 9.41240 | 62° | 18km/h | 20305m | -10.1m/s | -51.5°C | 3.9% | 55.3hPa | 2.6V | 08:24:24 | 01:41:57 | 00:00:00 | |
| AA1-15 | 2026-09-04 14:01:01 | 53.87734 | 9.41275 | 65° | 40km/h | 20277m | -10.9m/s | -51.5°C | 0.4% | 55.5hPa | 2.7V | 08:24:21 | 01:42:00 | 00:00:00 | |
| DO2SHX-10 | 2026-09-04 14:01:01 | 53.87734 | 9.41275 | 66° | 35km/h | 20277m | -10.8m/s | -51.5°C | 3.9% | 55.5hPa | 2.7V | 08:24:00 | 01:42:00 | 00:00:00 | |
| GOEST3-10 | 2026-09-04 14:01:00 | 53.87730 | 9.41260 | 62° | 20km/h | 20287m | -8.7m/s | -51.4°C | 3.9% | 55.4hPa | 2.6V | 00:00:00 | 01:41:59 | 00:00:00 | |
| DL1XH1-15 | 2026-09-04 14:00:59 | 53.87722 | 9.41223 | 130° | 9km/h | 20344m | -10m/s | -51.5°C | 4% | 54.9hPa | 2.6V | 08:24:28 | 01:41:53 | 00:00:00 | |
| DF8AY | 2026-09-04 14:00:58 | 53.87723 | 9.41240 | 62° | 18km/h | 20305m | -10.1m/s | -51.5°C | 0.5% | 55.3hPa | 2.6V | 08:25:12 | 01:41:57 | 00:00:00 | |
| DL1XH-west | 2026-09-04 14:00:56 | 53.87721 | 9.41230 | 80° | 9km/h | 20325m | -10.2m/s | -51.6°C | 0.5% | 55.1hPa | 2.7V | 08:25:12 | 01:41:55 | 00:00:00 | |
| BIOWL9-15 | 2026-09-04 14:00:56 | 53.87721 | 9.41226 | 111° | 7km/h | 20334m | -9.1m/s | -51.5°C | 1.1% | 55.0hPa | 2.6V | 00:00:00 | 00:00:00 | 00:00:00 | |
| DB0DAN | 2026-09-04 14:00:55 | 53.87721 | 9.41226 | 112° | 9km/h | 20334m | -9.1m/s | -51.5°C | 1.1% | 55.01hPa | 2.6V | 00:00:00 | 00:00:00 | 00:00:00 | |
| BIOWL1-15 | 2026-09-04 14:00:55 | 53.87721 | 9.41226 | 112° | 9km/h | 20334m | -9.1m/s | -51.5°C | 0.5% | 55hPa | 2.6V | 08:25:12 | 01:41:54 | 00:00:00 | |
| AA1-15 | 2026-09-04 14:00:51 | 53.87732 | 9.41212 | 144° | 20km/h | 20373m | -9.2m/s | -51.7°C | 0.5% | 54.7hPa | 2.7V | 08:25:12 | 01:41:50 | 00:00:00 | |
| DM0DOS-11 | 2026-09-04 14:00:50 | 53.87748 | 9.41185 | 127° | 38km/h | 20399m | -8.7m/s | -51.9°C | 4.1% | 54.5hPa | 2.6V | 08:24:34 | 01:41:47 | 00:00:00 | |
| DF8AY | 2026-09-04 14:00:48 | 53.87748 | 9.41185 | 128° | 38km/h | 20399m | -8.7m/s | -51.9°C | 0.6% | 54.5hPa | 2.6V | 08:25:12 | 01:41:47 | 00:00:00 | |
| DL1XH-west | 2026-09-04 14:00:45 | 53.87765 | 9.41136 | 117° | 51km/h | 20425m | -8.4m/s | -52°C | 0.5% | 54.3hPa | 2.7V | 08:25:12 | 01:41:44 | 00:00:00 | |
| BIOWL1-15 | 2026-09-04 14:00:44 | 53.87771 | 9.41116 | 112° | 53km/h | 20435m | -11.3m/s | -52.1°C | 0.5% | 54.2hPa | 2.6V | 08:25:12 | 01:41:43 | 00:00:00 | |
| DD8BA-10 | 2026-09-04 14:00:44 | 53.87771 | 9.41116 | 113° | 33km/h | 20435m | -11.3m/s | -52.1°C | 4.1% | 54.1hPa | 2.6V | 00:00:00 | 00:00:00 | 00:00:00 | |
| DM0DOS-11 | 2026-09-04 14:00:43 | 53.87786 | 9.41013 | 89° | 22km/h | 20492m | -8.7m/s | -52.4°C | 4.2% | 53.7hPa | 2.6V | 08:24:44 | 01:41:37 | 00:00:00 | |
| DO2SHX-10 | 2026-09-04 14:00:43 | 53.87775 | 9.41095 | 110° | 49km/h | 20446m | -9.9m/s | -52.1°C | 4.1% | 54.0hPa | 2.6V | 00:00:00 | 01:41:42 | 00:00:00 | |
| SMARD9-15 | 2026-09-04 14:00:42 | 53.87779 | 9.41075 | 105° | 47km/h | 20456m | -10.5m/s | -52.2°C | 1.1% | 54.0hPa | 2.6V | 00:00:00 | 00:00:00 | 00:00:00 | |
| DB0DAN | 2026-09-04 14:00:40 | 53.87784 | 9.41038 | 100° | 37km/h | 20475m | -8.2m/s | -52.3°C | 1.1% | 53.82hPa | 2.6V | 00:00:00 | 00:00:00 | 00:00:00 | |
| AA1-15 | 2026-09-04 14:00:40 | 53.87784 | 9.41038 | 100° | 38km/h | 20475m | -8.2m/s | -52.3°C | 0.6% | 53.8hPa | 2.6V | 08:25:12 | 01:41:39 | 00:00:00 | |
| DO2JMG | 2026-09-04 14:00:39 | 53.87786 | 9.41024 | 96° | 29km/h | 20483m | -8.7m/s | -52.4°C | 0.6% | 53.8hPa | 2.6V | 08:25:12 | 01:41:38 | 00:00:00 | |
| DL1XH1-15 | 2026-09-04 14:00:39 | 53.87793 | 9.40997 | 165° | 18km/h | 20527m | -8.4m/s | -52.5°C | 4.4% | 53.4hPa | 2.6V | 08:24:48 | 01:41:33 | 00:00:00 | |
| DF8AY | 2026-09-04 14:00:37 | 53.87786 | 9.41005 | 99° | 15km/h | 20500m | -8.3m/s | -52.5°C | 0.6% | 53.6hPa | 2.7V | 08:25:12 | 01:41:36 | 00:00:00 | |
| BIOWL1-15 | 2026-09-04 14:00:35 | 53.87798 | 9.40994 | 155° | 22km/h | 20536m | -8.6m/s | -52.5°C | 0.7% | 53.3hPa | 2.6V | 08:25:12 | 01:41:32 | 00:00:00 | |
| DL1XH-west | 2026-09-04 14:00:34 | 53.87793 | 9.40997 | 165° | 18km/h | 20527m | -8.5m/s | -52.5°C | 0.7% | 53.4hPa | 2.6V | 08:25:12 | 01:41:33 | 00:00:00 | |
| DO2SHX-10 | 2026-09-04 14:00:34 | 53.87793 | 9.40997 | 166° | 22km/h | 20528m | -8.4m/s | -52.5°C | 4.4% | 53.3hPa | 2.6V | 08:24:00 | 01:41:33 | 00:00:00 | |
| DJ2DS-15 | 2026-09-04 14:00:33 | 53.87798 | 9.40994 | 156° | 16km/h | 20536m | -8.5m/s | -52.4°C | 4.4% | 53.3hPa | 2.6V | 00:00:00 | 01:41:32 | 00:00:00 | |
| DL4BBY-15 | 2026-09-04 14:00:32 | 53.87803 | 9.40990 | 150° | 15km/h | 20545m | -8.9m/s | -52.4°C | 0% | 0hPa | 2.6V | 00:00:00 | 00:00:00 | 00:00:00 | |
| DO2SHX-10 | 2026-09-04 14:00:31 | 53.87808 | 9.40983 | 141° | 27km/h | 20553m | -8.3m/s | -52.3°C | 4.4% | 53.1hPa | 2.6V | 00:00:00 | 01:41:30 | 00:00:00 | |
| DM0DOS-11 | 2026-09-04 14:00:30 | 53.87820 | 9.40957 | 111° | 22km/h | 20579m | -9.7m/s | -52.1°C | 4.3% | 53hPa | 2.6V | 08:24:54 | 01:41:27 | 00:00:00 | |
| AA1-15 | 2026-09-04 14:00:30 | 53.87813 | 9.40975 | 130° | 26km/h | 20561m | -8.4m/s | -52.3°C | 0.7% | 53.1hPa | 2.7V | 08:25:12 | 01:41:29 | 00:00:00 | |
| GOEST3-10 | 2026-09-04 14:00:30 | 53.87813 | 9.40975 | 131° | 20km/h | 20561m | -8.4m/s | -52.2°C | 4.4% | 53.1hPa | 2.7V | 00:00:00 | 01:41:29 | 00:00:00 | |
| DL1XH-15 | 2026-09-04 14:00:29 | 53.87824 | 9.40936 | 127° | 5km/h | 20629m | -11.2m/s | -51.8°C | 4.1% | 52.6hPa | 2.7V | 08:24:58 | 01:41:23 | 00:00:00 | |
| DO2JMG | 2026-09-04 14:00:28 | 53.87820 | 9.40957 | 112° | 22km/h | 20579m | -9.7m/s | -52.1°C | 0.7% | 53hPa | 2.6V | 08:25:12 | 01:41:27 | 00:00:00 | |
| DF8AY | 2026-09-04 14:00:27 | 53.87822 | 9.40949 | 104° | 16km/h | 20590m | -13.2m/s | -52°C | 0.6% | 52.9hPa | 2.6V | 08:25:12 | 01:41:26 | 00:00:00 | |
| DB0DAN | 2026-09-04 14:00:25 | 53.87823 | 9.40939 | 112° | 7km/h | 20616m | -14.1m/s | -51.9°C | 1.1% | 52.71hPa | 2.7V | 00:00:00 | 00:00:00 | 00:00:00 | |
| DL1XH-west | 2026-09-04 14:00:23 | 53.87825 | 9.40935 | 169° | 7km/h | 20639m | -10.1m/s | -51.5°C | 0.4% | 52.5hPa | 2.6V | 08:25:12 | 01:41:22 | 00:00:00 | |
| AA1-15 | 2026-09-04 14:00:20 | 53.87833 | 9.40938 | 204° | 15km/h | 20668m | -11.8m/s | -51.4°C | 0.4% | 52.3hPa | 2.7V | 08:25:12 | 01:41:19 | 00:00:00 | |
| DL1XH1-15 | 2026-09-04 14:00:19 | 53.87856 | 9.40937 | 137° | 15km/h | 20727m | -10.3m/s | -51.7°C | 4% | 51.8hPa | 2.6V | 08:25:08 | 01:41:13 | 00:00:00 | |
| DO2JMG | 2026-09-04 14:00:17 | 53.87844 | 9.40944 | 180° | 15km/h | 20698m | -10.1m/s | -51.5°C | 0.4% | 52hPa | 2.6V | 08:25:12 | 01:41:16 | 00:00:00 | |
| DF8AY | 2026-09-04 14:00:16 | 53.87848 | 9.40943 | 164° | 16km/h | 20708m | -9.5m/s | -51.5°C | 0.5% | 51.9hPa | 2.7V | 08:25:12 | 01:41:15 | 00:00:00 | |
| DL1XH-west | 2026-09-04 14:00:13 | 53.87858 | 9.40932 | 132° | 13km/h | 20737m | -10.4m/s | -51.8°C | 0.5% | 51.7hPa | 2.6V | 08:25:12 | 01:41:12 | 00:00:00 | |
| DJ2DS-15 | 2026-09-04 14:00:13 | 53.87858 | 9.40932 | 133° | 20km/h | 20737m | -10.4m/s | -51.7°C | 4.0% | 51.6hPa | 2.7V | 00:00:00 | 01:41:12 | 00:00:00 | |
| DB0DAN | 2026-09-04 14:00:10 | 53.87862 | 9.40920 | 99° | 11km/h | 20766m | -11.2m/s | -51.8°C | 1.1% | 51.45hPa | 2.7V | 00:00:00 | 00:00:00 | 00:00:00 | |
| AA1-15 | 2026-09-04 14:00:10 | 53.87862 | 9.40920 | 99° | 11km/h | 20766m | -11.2m/s | -51.8°C | 0.6% | 51.5hPa | 2.7V | 08:25:12 | 01:41:09 | 00:00:00 | |
| DO2JMG | 2026-09-04 14:00:06 | 53.87859 | 9.40900 | 66° | 15km/h | 20812m | -9.4m/s | -52.1°C | 0.6% | 51.1hPa | 2.6V | 08:26:03 | 01:41:05 | 00:00:00 | |
| DF8AY | 2026-09-04 14:00:05 | 53.87857 | 9.40895 | 51° | 16km/h | 20821m | -9.5m/s | -52.1°C | 0.6% | 51hPa | 2.7V | 08:26:03 | 01:41:04 | 00:00:00 | |
| DL1XH-west | 2026-09-04 14:00:03 | 53.87850 | 9.40886 | 25° | 22km/h | 20839m | -9m/s | -52.1°C | 0.7% | 50.9hPa | 2.6V | 08:26:03 | 01:41:02 | 00:00:00 | |
| HSKMA3-T | 2026-09-04 14:00:02 | 53.87844 | 9.40882 | 20° | 24km/h | 20847m | -8.6m/s | -52.2°C | 0.6% | 50.8hPa | 2.6V | 08:26:54 | 01:41:01 | 00:00:00 | |
| DM0DOS-11 | 2026-09-04 14:00:01 | 53.87809 | 9.40835 | 52° | 31km/h | 20903m | -10.4m/s | -52.4°C | 4.2% | 50.4hPa | 2.6V | 08:25:26 | 01:40:55 | 00:00:00 | |
| DO2SHX-10 | 2026-09-04 14:00:01 | 53.87838 | 9.40878 | 24° | 29km/h | 20857m | -9.8m/s | -52.2°C | 4.2% | 50.7hPa | 2.7V | 00:00:00 | 01:41:00 | 00:00:00 | |
| GOEST3-10 | 2026-09-04 14:00:00 | 53.87832 | 9.40872 | 32° | 31km/h | 20867m | -10.3m/s | -52.2°C | 4.2% | 50.6hPa | 2.7V | 00:00:00 | 01:40:59 | 00:00:00 | |
| DL1XH1-15 | 2026-09-04 13:59:59 | 53.87802 | 9.40815 | 62° | 22km/h | 20922m | -9.9m/s | -52.4°C | 4.2% | 50.2hPa | 2.7V | 08:25:28 | 01:40:53 | 00:00:00 | |
| AA1-15 | 2026-09-04 13:59:59 | 53.87826 | 9.40865 | 38° | 31km/h | 20875m | -8.5m/s | -52.3°C | 0.6% | 50.6hPa | 2.7V | 08:26:03 | 01:40:58 | 00:00:00 | |
| DO2SHX-10 | 2026-09-04 13:59:58 | 53.87820 | 9.40856 | 45° | 33km/h | 20885m | -9.8m/s | -52.3°C | 4.2% | 50.4hPa | 2.7V | 00:00:00 | 01:40:57 | 00:00:00 | |
| AP2371 | 2026-09-04 13:59:57 | 53.87820 | 9.40856 | 45° | 33km/h | 20885m | -9.9m/s | -52.3°C | 1.1% | 50.5hPa | 2.6V | 00:00:00 | 00:00:00 | 00:00:00 | |
| DB0DAN | 2026-09-04 13:59:55 | 53.87805 | 9.40825 | 57° | 27km/h | 20913m | -9.2m/s | -52.4°C | 1.1% | 50.29hPa | 2.6V | 00:00:00 | 00:00:00 | 00:00:00 | |
| DO2JMG | 2026-09-04 13:59:55 | 53.87805 | 9.40825 | 57° | 27km/h | 20913m | -9.2m/s | -52.4°C | 0.7% | 50.3hPa | 2.6V | 08:26:03 | 01:40:54 | 00:00:00 | |
| DF8AY | 2026-09-04 13:59:54 | 53.87802 | 9.40815 | 62° | 22km/h | 20922m | -9.9m/s | -52.4°C | 0.6% | 50.2hPa | 2.7V | 08:26:03 | 01:40:53 | 00:00:00 | |
| BIOWL1-15 | 2026-09-04 13:59:54 | 53.87799 | 9.40802 | 79° | 13km/h | 20940m | -9.5m/s | -52.5°C | 0.6% | 50hPa | 2.6V | 08:26:03 | 01:40:51 | 00:00:00 | |
| DL1XH-west | 2026-09-04 13:59:53 | 53.87800 | 9.40808 | 69° | 16km/h | 20931m | -9.2m/s | -52.4°C | 0.6% | 50.1hPa | 2.7V | 08:26:03 | 01:40:52 | 00:00:00 | |
| BUE01 | 2026-09-04 13:59:53 | 53.87799 | 9.40802 | 79° | 11km/h | 20940m | -9.5m/s | -52.5°C | 1.1% | 50.0hPa | 2.7V | 00:00:00 | 00:00:00 | 00:00:00 | |
| SONCRA | 2026-09-04 13:59:51 | 53.87799 | 9.40794 | 118° | 7km/h | 20962m | -11.0m/s | -52.6°C | 1.1% | 49.9hPa | 2.7V | 00:00:00 | 00:00:00 | 00:00:00 | |
| GOEST3-10 | 2026-09-04 13:59:50 | 53.87799 | 9.40794 | 119° | 5km/h | 20962m | -10.9m/s | -52.5°C | 4.2% | 49.8hPa | 2.7V | 00:00:00 | 01:40:49 | 00:00:00 | |
| DL1XH1-15 | 2026-09-04 13:59:49 | 53.87805 | 9.40791 | 198° | 5km/h | 21019m | -11.6m/s | -52.5°C | 4.4% | 49.5hPa | 2.7V | 08:25:38 | 01:40:43 | 00:00:00 | |
| AA1-15 | 2026-09-04 13:59:48 | 53.87802 | 9.40789 | 140° | 5km/h | 20981m | -9.8m/s | -52.6°C | 0.6% | 49.8hPa | 2.6V | 08:26:03 | 01:40:47 | 00:00:00 | |
| HSKMA3-T | 2026-09-04 13:59:45 | 53.87804 | 9.40790 | 213° | 5km/h | 21009m | -9.2m/s | -52.5°C | 0.7% | 49.5hPa | 2.7V | 08:26:54 | 01:40:44 | 00:00:00 | |
| DO2JMG | 2026-09-04 13:59:44 | 53.87805 | 9.40791 | 199° | 5km/h | 21019m | -11.6m/s | -52.5°C | 0.8% | 49.5hPa | 2.7V | 08:26:03 | 01:40:43 | 00:00:00 | |
| BIOWL1-15 | 2026-09-04 13:59:43 | 53.87806 | 9.40786 | 81° | 13km/h | 21047m | -8.9m/s | -52.6°C | 0.8% | 49.2hPa | 2.6V | 08:26:03 | 01:40:40 | 00:00:00 | |
| DL1XH-west | 2026-09-04 13:59:43 | 53.87806 | 9.40791 | 180° | 4km/h | 21029m | -8.4m/s | -52.6°C | 0.8% | 49.4hPa | 2.7V | 08:26:03 | 01:40:42 | 00:00:00 | |
| DO2SHX-10 | 2026-09-04 13:59:43 | 53.87806 | 9.40791 | 181° | 7km/h | 21030m | -8.4m/s | -52.5°C | 4.5% | 49.3hPa | 2.6V | 00:00:00 | 01:40:42 | 00:00:00 | |
| AM1SDL-15 | 2026-09-04 13:59:42 | 53.87806 | 9.40790 | 100° | 18km/h | 21038m | -9.3m/s | -52.5°C | 4.5% | 49.2hPa | 2.6V | 00:00:00 | 01:40:41 | 00:00:00 | |
| DB0DAN | 2026-09-04 13:59:40 | 53.87805 | 9.40779 | 74° | 18km/h | 21055m | -7.9m/s | -52.6°C | 1.2% | 49.15hPa | 2.6V | 00:00:00 | 00:00:00 | 00:00:00 | |
| DO2SHX-10 | 2026-09-04 13:59:40 | 53.87805 | 9.40779 | 74° | 26km/h | 21055m | -7.9m/s | -52.5°C | 4.5% | 49.1hPa | 2.6V | 08:25:00 | 01:40:39 | 00:00:00 | |
| DL1XH1-15 | 2026-09-04 13:59:39 | 53.87785 | 9.40717 | 55° | 27km/h | 21115m | -9.6m/s | -52.3°C | 4.2% | 48.7hPa | 2.7V | 08:25:48 | 01:40:33 | 00:00:00 | |
| AA1-15 | 2026-09-04 13:59:37 | 53.87797 | 9.40749 | 62° | 31km/h | 21084m | -6.8m/s | -52.4°C | 0.7% | 49hPa | 2.6V | 08:26:03 | 01:40:36 | 00:00:00 | |
| DO2JMG | 2026-09-04 13:59:33 | 53.87781 | 9.40708 | 52° | 24km/h | 21124m | -9.1m/s | -52.2°C | 0.6% | 48.6hPa | 2.6V | 08:26:03 | 01:40:32 | 00:00:00 | |
| DL1XH-west | 2026-09-04 13:59:32 | 53.87778 | 9.40701 | 50° | 15km/h | 21133m | -10.5m/s | -52.2°C | 0.6% | 48.6hPa | 2.6V | 08:26:03 | 01:40:31 | 00:00:00 | |
| DL4BBY-15 | 2026-09-04 13:59:32 | 53.87778 | 9.40701 | 51° | 15km/h | 21134m | -10.5m/s | -52.2°C | 0% | 0hPa | 2.6V | 00:00:00 | 00:00:00 | 00:00:00 | |
| DM0DOS-11 | 2026-09-04 13:59:31 | 53.87781 | 9.40704 | 192° | 9km/h | 21190m | -10.8m/s | -51.8°C | 4.1% | 48.2hPa | 2.6V | 08:25:56 | 01:40:25 | 00:00:00 | |
| BIOWL1-15 | 2026-09-04 13:59:31 | 53.87783 | 9.40704 | 171° | 7km/h | 21200m | -8.7m/s | -51.8°C | 0.7% | 48.1hPa | 2.6V | 08:26:03 | 01:40:24 | 00:00:00 | |
| HSKMA3-T | 2026-09-04 13:59:31 | 53.87775 | 9.40696 | 324° | 2km/h | 21153m | -9.7m/s | -52.1°C | 0.6% | 48.5hPa | 2.7V | 08:26:54 | 01:40:29 | 00:00:00 | |
| GOEST3-10 | 2026-09-04 13:59:30 | 53.87775 | 9.40696 | 325° | 7km/h | 21153m | -9.6m/s | -52.0°C | 4.1% | 48.4hPa | 2.7V | 00:00:00 | 01:40:29 | 00:00:00 | |
| DL1XH-15 | 2026-09-04 13:59:29 | 53.87784 | 9.40702 | 108° | 7km/h | 21209m | -9.1m/s | -51.9°C | 4.2% | 48hPa | 2.7V | 08:25:58 | 01:40:23 | 00:00:00 | |
| AA1-15 | 2026-09-04 13:59:26 | 53.87781 | 9.40704 | 192° | 9km/h | 21190m | -10.8m/s | -51.8°C | 0.6% | 48.2hPa | 2.6V | 08:26:03 | 01:40:25 | 00:00:00 | |
| DB0DAN | 2026-09-04 13:59:25 | 53.87783 | 9.40704 | 171° | 7km/h | 21200m | -8.7m/s | -51.8°C | 1.1% | 48.11hPa | 2.6V | 00:00:00 | 00:00:00 | 00:00:00 | |
| DO2JMG | 2026-09-04 13:59:22 | 53.87783 | 9.40694 | 59° | 15km/h | 21227m | -9m/s | -52°C | 0.6% | 47.9hPa | 2.6V | 08:26:03 | 01:40:21 | 00:00:00 | |
| DL1XH-west | 2026-09-04 13:59:21 | 53.87780 | 9.40688 | 42° | 20km/h | 21236m | -10.7m/s | -52°C | 0.7% | 47.9hPa | 2.6V | 08:26:03 | 01:40:20 | 00:00:00 | |
| HSKMA3-T | 2026-09-04 13:59:20 | 53.87776 | 9.40683 | 32° | 22km/h | 21247m | -11.9m/s | -52.1°C | 0.7% | 47.8hPa | 2.6V | 08:26:54 | 01:40:19 | 00:00:00 | |
| GOEST3-10 | 2026-09-04 13:59:20 | 53.87776 | 9.40683 | 32° | 20km/h | 21248m | -11.8m/s | -52.1°C | 4.2% | 47.7hPa | 2.6V | 00:00:00 | 01:40:19 | 00:00:00 | |
| DL1XH1-15 | 2026-09-04 13:59:19 | 53.87749 | 9.40678 | 313° | 15km/h | 21306m | -9.7m/s | -52.1°C | 4.1% | 47.3hPa | 2.6V | 08:26:08 | 01:40:13 | 00:00:00 | |
| BIOWL1-15 | 2026-09-04 13:59:15 | 53.87752 | 9.40675 | 338° | 15km/h | 21296m | -9.6m/s | -52.1°C | 0.6% | 47.4hPa | 2.6V | 08:26:54 | 01:40:14 | 00:00:00 | |
| DL1XH-west | 2026-09-04 13:59:11 | 53.87748 | 9.40691 | 244° | 11km/h | 21339m | -12.5m/s | -52.2°C | 0.6% | 47.1hPa | 2.6V | 08:26:54 | 01:40:10 | 00:00:00 | |
| DB0DAN | 2026-09-04 13:59:10 | 53.87750 | 9.40694 | 210° | 11km/h | 21350m | -10.4m/s | -52.2°C | 1.1% | 47.02hPa | 2.6V | 00:00:00 | 00:00:00 | 00:00:00 | |
| DO2SHX-10 | 2026-09-04 13:59:10 | 53.87750 | 9.40694 | 211° | 11km/h | 21350m | -10.3m/s | -52.2°C | 4.2% | 47.0hPa | 2.7V | 00:00:00 | 01:40:09 | 00:00:00 | |
| DL1XH1-15 | 2026-09-04 13:59:09 | 53.87759 | 9.40666 | 86° | 24km/h | 21408m | -9m/s | -52.4°C | 4.1% | 46.6hPa | 2.7V | 08:26:18 | 01:40:03 | 00:00:00 | |
| HSKMA3-T | 2026-09-04 13:59:07 | 53.87757 | 9.40690 | 126° | 13km/h | 21379m | -9.3m/s | -52.2°C | 0.6% | 46.8hPa | 2.6V | 08:26:54 | 01:40:06 | 00:00:00 | |
| BIOWL1-15 | 2026-09-04 13:59:05 | 53.87760 | 9.40676 | 90° | 22km/h | 21398m | -10.3m/s | -52.3°C | 0.6% | 46.7hPa | 2.6V | 08:26:54 | 01:40:04 | 00:00:00 | |
| DO2JMG | 2026-09-04 13:59:01 | 53.87757 | 9.40633 | 76° | 27km/h | 21439m | -11.8m/s | -52.5°C | 0.7% | 46.4hPa | 2.6V | 08:27:45 | 01:40:00 | 00:00:00 | |
| DF8AY | 2026-09-04 13:59:00 | 53.87755 | 9.40622 | 73° | 26km/h | 21451m | -10.7m/s | -52.6°C | 0.6% | 46.3hPa | 2.6V | 08:26:54 | 01:39:59 | 00:00:00 | |
| GOEST3-10 | 2026-09-04 13:59:00 | 53.87755 | 9.40622 | 73° | 16km/h | 21451m | -10.6m/s | -52.5°C | 4.1% | 46.2hPa | 2.7V | 00:00:00 | 01:39:59 | 00:00:00 | |
| DL1XH1-15 | 2026-09-04 13:58:59 | 53.87744 | 9.40593 | 34° | 7km/h | 21513m | -11.8m/s | -52.8°C | 4.4% | 45.8hPa | 2.7V | 08:26:28 | 01:39:53 | 00:00:00 | |
| DL3AQ-11 | 2026-09-04 13:58:57 | 53.87749 | 9.40599 | 46° | 11km/h | 21484m | -12.6m/s | -52.7°C | 1.1% | 46.1hPa | 2.6V | 00:00:00 | 00:00:00 | 00:00:00 | |
| DB0DAN | 2026-09-04 13:58:55 | 53.87745 | 9.40594 | 13° | 7km/h | 21503m | -7.9m/s | -52.7°C | 1.1% | 45.92hPa | 2.6V | 00:00:00 | 00:00:00 | 00:00:00 | |
| HSKMA3-T | 2026-09-04 13:58:55 | 53.87745 | 9.40594 | 14° | 7km/h | 21503m | -7.9m/s | -52.7°C | 0.7% | 45.9hPa | 2.6V | 08:26:54 | 01:39:54 | 00:00:00 | |
| BIOWL1-15 | 2026-09-04 13:58:54 | 53.87742 | 9.40591 | 34° | 11km/h | 21524m | -9.7m/s | -52.8°C | 0.8% | 45.7hPa | 2.7V | 08:26:54 | 01:39:52 | 00:00:00 | |
| AA1-15 | 2026-09-04 13:58:54 | 53.87744 | 9.40593 | 34° | 7km/h | 21513m | -11.8m/s | -52.8°C | 0.7% | 45.8hPa | 2.7V | 08:26:54 | 01:39:53 | 00:00:00 | |
| DK1YY | 2026-09-04 13:58:53 | 53.87742 | 9.40591 | 33° | 11km/h | 21524m | -9.7m/s | -52.8°C | 1.2% | 45.7hPa | 2.6V | 00:00:00 | 00:00:00 | 00:00:00 | |
| BIOWL9-15 | 2026-09-04 13:58:52 | 53.87734 | 9.40582 | 33° | 26km/h | 21544m | -9.7m/s | -53.0°C | 1.1% | 45.6hPa | 2.6V | 00:00:00 | 00:00:00 | 00:00:00 | |
| BUE01 | 2026-09-04 13:58:51 | 53.87728 | 9.40575 | 36° | 33km/h | 21553m | -7.4m/s | -53.0°C | 1.2% | 45.5hPa | 2.6V | 00:00:00 | 00:00:00 | 00:00:00 | |
| DL1XH-west | 2026-09-04 13:58:51 | 53.87734 | 9.40582 | 34° | 26km/h | 21544m | -9.7m/s | -53°C | 0.7% | 45.6hPa | 2.6V | 08:26:54 | 01:39:50 | 00:00:00 | |
| DM0DOS-11 | 2026-09-04 13:58:50 | 53.87691 | 9.40528 | 41° | 47km/h | 21594m | -10.9m/s | -53.2°C | 4.5% | 45.2hPa | 2.6V | 08:26:36 | 01:39:45 | 00:00:00 | |
| DO2JMG | 2026-09-04 13:58:50 | 53.87728 | 9.40575 | 37° | 33km/h | 21552m | -7.4m/s | -53°C | 0.8% | 45.5hPa | 2.6V | 08:27:45 | 01:39:49 | 00:00:00 | |
| HSKMA3-T | 2026-09-04 13:58:45 | 53.87683 | 9.40514 | 47° | 46km/h | 21605m | -11m/s | -53.3°C | 0.8% | 45.2hPa | 2.6V | 08:26:54 | 01:39:44 | 00:00:00 | |
| BIOWL1-15 | 2026-09-04 13:58:44 | 53.87676 | 9.40500 | 53° | 38km/h | 21617m | -12m/s | -53.3°C | 0.8% | 45.1hPa | 2.6V | 08:26:54 | 01:39:43 | 00:00:00 | |
| DD8BA-10 | 2026-09-04 13:58:44 | 53.87676 | 9.40500 | 54° | 31km/h | 21617m | -12.0m/s | -53.2°C | 4.5% | 45.0hPa | 2.6V | 00:00:00 | 00:00:00 | 00:00:00 | |
| DO2SHX-10 | 2026-09-04 13:58:43 | 53.87672 | 9.40488 | 63° | 27km/h | 21627m | -9.0m/s | -53.3°C | 4.5% | 45.0hPa | 2.6V | 00:00:00 | 01:39:42 | 00:00:00 | |
| DL1CLM-18 | 2026-09-04 13:58:41 | 53.87669 | 9.40476 | 85° | 27km/h | 21637m | -10.7m/s | -53.3°C | 1.2% | 45.0hPa | 2.6V | 08:26:00 | 00:00:00 | 00:00:00 | |
| DM0DOS-11 | 2026-09-04 13:58:40 | 53.87687 | 9.40413 | 110° | 35km/h | 21697m | -12m/s | -53.2°C | 4.6% | 44.5hPa | 2.6V | 08:26:46 | 01:39:35 | 00:00:00 | |
| DL1NUX | 2026-09-04 13:58:40 | 53.87689 | 9.40397 | 104° | 40km/h | 21708m | -9.5m/s | -53.2°C | 4.6% | 44.4hPa | 2.6V | 08:26:47 | 01:39:34 | 00:00:00 | |
| DB0DAN | 2026-09-04 13:58:40 | 53.87671 | 9.40455 | 115° | 22km/h | 21656m | -10.5m/s | -53.2°C | 1.2% | 44.83hPa | 2.6V | 00:00:00 | 00:00:00 | 00:00:00 | |
| DO2JMG | 2026-09-04 13:58:40 | 53.87671 | 9.40455 | 115° | 24km/h | 21656m | -10.5m/s | -53.2°C | 0.8% | 44.8hPa | 2.6V | 08:27:45 | 01:39:39 | 00:00:00 | |
| DL1XH-west | 2026-09-04 13:58:39 | 53.87674 | 9.40446 | 125° | 24km/h | 21666m | -9.4m/s | -53.2°C | 0.8% | 44.7hPa | 2.7V | 08:26:54 | 01:39:38 | 00:00:00 | |
| HSKMA3-T | 2026-09-04 13:58:35 | 53.87689 | 9.40397 | 105° | 40km/h | 21708m | -9.5m/s | -53.2°C | 0.9% | 44.5hPa | 2.6V | 08:26:54 | 01:39:34 | 00:00:00 | |
| GOEST3-10 | 2026-09-04 13:58:35 | 53.87689 | 9.40397 | 105° | 42km/h | 21708m | -9.5m/s | -53.1°C | 4.6% | 44.4hPa | 2.6V | 00:00:00 | 00:00:00 | 00:00:00 | |
| DL1XH1-15 | 2026-09-04 13:58:34 | 53.87672 | 9.40300 | 52° | 35km/h | 21761m | -10.5m/s | -53.2°C | 4.6% | 44.1hPa | 2.6V | 08:26:53 | 01:39:28 | 00:00:00 | |
| BIOWL1-15 | 2026-09-04 13:58:33 | 53.87690 | 9.40362 | 80° | 42km/h | 21725m | -8.3m/s | -53.2°C | 0.9% | 44.3hPa | 2.7V | 08:26:54 | 01:39:32 | 00:00:00 | |
| DJ2DS-15 | 2026-09-04 13:58:33 | 53.87690 | 9.40362 | 80° | 35km/h | 21725m | -8.2m/s | -53.2°C | 4.6% | 44.3hPa | 2.7V | 08:26:00 | 01:39:32 | 00:00:00 | |
| DL4BBY-15 | 2026-09-04 13:58:32 | 53.87687 | 9.40344 | 73° | 29km/h | 21733m | -8.0m/s | -53.3°C | 0% | 0hPa | 2.6V | 00:00:00 | 00:00:00 | 00:00:00 | |
| DO2SHX-10 | 2026-09-04 13:58:31 | 53.87683 | 9.40327 | 61° | 38km/h | 21741m | -10.0m/s | -53.2°C | 4.7% | 44.2hPa | 2.6V | 00:00:00 | 01:39:30 | 00:00:00 | |
| DM0DOS-11 | 2026-09-04 13:58:30 | 53.87659 | 9.40269 | 65° | 24km/h | 21790m | -10.2m/s | -52.7°C | 4.4% | 43.9hPa | 2.6V | 08:26:56 | 01:39:25 | 00:00:00 | |
| DL1NUX | 2026-09-04 13:58:30 | 53.87657 | 9.40260 | 88° | 24km/h | 21802m | -14.6m/s | -52.7°C | 4.4% | 43.8hPa | 2.6V | 08:26:57 | 01:39:24 | 00:00:00 | |
| GOEST3-10 | 2026-09-04 13:58:30 | 53.87677 | 9.40313 | 54° | 31km/h | 21751m | -9.9m/s | -53.2°C | 4.6% | 44.1hPa | 2.7V | 00:00:00 | 01:39:29 | 00:00:00 | |
| DL1XH-15 | 2026-09-04 13:58:29 | 53.87658 | 9.40250 | 99° | 26km/h | 21814m | -8.9m/s | -52.6°C | 4.4% | 43.7hPa | 2.7V | 08:26:58 | 01:39:23 | 00:00:00 | |
| DO2JMG | 2026-09-04 13:58:29 | 53.87672 | 9.40300 | 52° | 35km/h | 21761m | -10.5m/s | -53.2°C | 0.9% | 44.1hPa | 2.6V | 08:27:45 | 01:39:28 | 00:00:00 | |
| DL1XH-west | 2026-09-04 13:58:28 | 53.87666 | 9.40289 | 51° | 31km/h | 21770m | -9.4m/s | -53°C | 0.8% | 44hPa | 2.7V | 08:26:54 | 01:39:27 | 00:00:00 | |
| DO2SHX-10 | 2026-09-04 13:58:28 | 53.87666 | 9.40289 | 52° | 27km/h | 21771m | -9.4m/s | -52.9°C | 4.6% | 43.9hPa | 2.7V | 00:00:00 | 01:39:27 | 00:00:00 | |
| DL8OAI-8 | 2026-09-04 13:58:26 | 53.87662 | 9.40279 | 55° | 27km/h | 21780m | -10.4m/s | -52.7°C | 1.2% | 43.9hPa | 2.6V | 08:27:00 | 00:00:00 | 00:00:00 | |
| DB0DAN | 2026-09-04 13:58:25 | 53.87657 | 9.40260 | 88° | 22km/h | 21803m | -14.6m/s | -52.7°C | 1.1% | 43.81hPa | 2.6V | 00:00:00 | 00:00:00 | 00:00:00 | |
| HSKMA3-T | 2026-09-04 13:58:24 | 53.87658 | 9.40250 | 100° | 26km/h | 21814m | -8.9m/s | -52.6°C | 0.7% | 43.7hPa | 2.7V | 08:28:36 | 01:39:23 | 00:00:00 | |
| AA1-15 | 2026-09-04 13:58:23 | 53.87660 | 9.40238 | 107° | 33km/h | 21824m | -10.5m/s | -52.6°C | 0.8% | 43.6hPa | 2.7V | 08:27:45 | 01:39:22 | 00:00:00 | |
| BIOWL1-15 | 2026-09-04 13:58:22 | 53.87665 | 9.40208 | 109° | 40km/h | 21845m | -10.1m/s | -52.5°C | 0.8% | 43.5hPa | 2.6V | 08:27:45 | 01:39:20 | 00:00:00 | |
| DO2SHX-10 | 2026-09-04 13:58:22 | 53.87662 | 9.40223 | 106° | 40km/h | 21834m | -11.0m/s | -52.5°C | 4.4% | 43.5hPa | 2.6V | 00:00:00 | 01:39:21 | 00:00:00 | |
| DB0NH | 2026-09-04 13:58:21 | 53.87665 | 9.40208 | 109° | 33km/h | 21845m | -10.1m/s | -52.5°C | 4.4% | 43.4hPa | 2.6V | 08:27:00 | 01:39:20 | 00:00:00 | |
| DL1NUX | 2026-09-04 13:58:20 | 53.87675 | 9.40107 | 73° | 31km/h | 21909m | -10.4m/s | -52.3°C | 4.3% | 43.1hPa | 2.6V | 08:27:07 | 01:39:14 | 00:00:00 | |
| GOEST3-10 | 2026-09-04 13:58:20 | 53.87668 | 9.40191 | 109° | 42km/h | 21856m | -11.9m/s | -52.4°C | 4.4% | 43.4hPa | 2.6V | 00:00:00 | 01:39:19 | 00:00:00 | |
| DL1XH-15 | 2026-09-04 13:58:19 | 53.87673 | 9.40096 | 62° | 26km/h | 21918m | -8.8m/s | -52.1°C | 4.2% | 43hPa | 2.6V | 08:27:08 | 01:39:13 | 00:00:00 | |
| DL1XH-west | 2026-09-04 13:58:18 | 53.87674 | 9.40155 | 101° | 42km/h | 21877m | -11.9m/s | -52.4°C | 0.7% | 43.3hPa | 2.7V | 08:28:36 | 01:39:17 | 00:00:00 | |
| DF8AY | 2026-09-04 13:58:17 | 53.87676 | 9.40137 | 99° | 42km/h | 21888m | -10.1m/s | -52.4°C | 0.7% | 43.2hPa | 2.7V | 08:27:45 | 01:39:16 | 00:00:00 | |
| SONDE2-11 | 2026-09-04 13:58:17 | 53.87676 | 9.40137 | 99° | 40km/h | 21888m | -10.1m/s | -52.4°C | 1.1% | 43.2hPa | 2.7V | 00:00:00 | 00:00:00 | 00:00:00 | |
| DO2SHX-10 | 2026-09-04 13:58:16 | 53.87677 | 9.40121 | 86° | 31km/h | 21899m | -11.2m/s | -52.3°C | 4.3% | 43.1hPa | 2.7V | 00:00:00 | 01:39:15 | 00:00:00 | |
| GOEST3-10 | 2026-09-04 13:58:15 | 53.87675 | 9.40107 | 74° | 20km/h | 21909m | -10.3m/s | -52.2°C | 4.3% | 43.0hPa | 2.7V | 00:00:00 | 00:00:00 | 00:00:00 | |
| DL1XH1-15 | 2026-09-04 13:58:14 | 53.87671 | 9.40064 | 131° | 20km/h | 21970m | -10.6m/s | -52°C | 4.3% | 42.6hPa | 2.7V | 08:27:13 | 01:39:08 | 00:00:00 | |
| HSKMA3-T | 2026-09-04 13:58:14 | 53.87673 | 9.40096 | 63° | 26km/h | 21918m | -8.8m/s | -52.2°C | 0.6% | 43hPa | 2.6V | 08:28:36 | 01:39:13 | 00:00:00 | |
| AA1-15 | 2026-09-04 13:58:12 | 53.87668 | 9.40081 | 65° | 15km/h | 21939m | -11.5m/s | -52°C | 0.6% | 42.9hPa | 2.7V | 08:27:45 | 01:39:11 | 00:00:00 | |
| BIOWL1-15 | 2026-09-04 13:58:11 | 53.87667 | 9.40075 | 93° | 13km/h | 21950m | -11.7m/s | -52°C | 0.6% | 42.8hPa | 2.6V | 08:27:45 | 01:39:10 | 00:00:00 | |
| DO2SHX-10 | 2026-09-04 13:58:10 | 53.87668 | 9.40070 | 121° | 18km/h | 21961m | -9.0m/s | -52.0°C | 4.3% | 42.7hPa | 2.6V | 00:00:00 | 01:39:09 | 00:00:00 | |
| DL1NUX | 2026-09-04 13:58:09 | 53.87682 | 9.40024 | 69° | 24km/h | 22025m | -13m/s | -51.7°C | 4.3% | 42.3hPa | 2.7V | 08:27:18 | 01:39:03 | 00:00:00 | |
| DL1XH-west | 2026-09-04 13:58:07 | 53.87678 | 9.40050 | 125° | 24km/h | 21992m | -11.4m/s | -52°C | 0.7% | 42.5hPa | 2.6V | 08:28:36 | 01:39:06 | 00:00:00 | |
| DO2SHX-10 | 2026-09-04 13:58:07 | 53.87678 | 9.40050 | 125° | 22km/h | 21993m | -11.3m/s | -51.9°C | 4.4% | 42.5hPa | 2.6V | 00:00:00 | 01:39:06 | 00:00:00 | |
| DF5WG-10 | 2026-09-04 13:58:06 | 53.87681 | 9.40042 | 118° | 31km/h | 22003m | -10.2m/s | -51.9°C | 4.3% | 42.4hPa | 2.6V | 00:00:00 | 01:39:05 | 00:00:00 | |
| DL3AQ-11 | 2026-09-04 13:58:05 | 53.87682 | 9.40024 | 69° | 24km/h | 22025m | -13.0m/s | -51.7°C | 1.1% | 42.3hPa | 2.6V | 00:00:00 | 00:00:00 | 00:00:00 | |
| DL1XH1-15 | 2026-09-04 13:58:04 | 53.87658 | 9.39970 | 53° | 37km/h | 22076m | -13.6m/s | -51.4°C | 4.1% | 42hPa | 2.6V | 08:27:23 | 01:38:58 | 00:00:00 | |
| DO2JMG | 2026-09-04 13:58:04 | 53.87682 | 9.40024 | 69° | 24km/h | 22025m | -13m/s | -51.7°C | 0.7% | 42.3hPa | 2.7V | 08:27:45 | 01:39:03 | 00:00:00 | |
| HSKMA3-T | 2026-09-04 13:58:03 | 53.87680 | 9.40014 | 57° | 26km/h | 22036m | -10m/s | -51.7°C | 0.7% | 42.2hPa | 2.7V | 08:28:36 | 01:39:02 | 00:00:00 | |
| AA1-15 | 2026-09-04 13:58:01 | 53.87670 | 9.39993 | 50° | 33km/h | 22055m | -8.4m/s | -51.6°C | 0.7% | 42.1hPa | 2.6V | 08:27:45 | 01:39:00 | 00:00:00 | |
| DO2SHX-10 | 2026-09-04 13:58:01 | 53.87669 | 9.39993 | 50° | 37km/h | 22056m | -8.4m/s | -51.6°C | 4.2% | 42.0hPa | 2.6V | 00:00:00 | 01:39:00 | 00:00:00 | |
| DM0DOS-11 | 2026-09-04 13:58:00 | 53.87646 | 9.39932 | 79° | 31km/h | 22111m | -11.1m/s | -51.3°C | 4% | 41.8hPa | 2.6V | 08:27:26 | 01:38:55 | 00:00:00 | |
| BIOWL1-15 | 2026-09-04 13:58:00 | 53.87664 | 9.39982 | 48° | 38km/h | 22064m | -10.1m/s | -51.5°C | 0.6% | 42hPa | 2.6V | 08:27:45 | 01:38:59 | 00:00:00 | |
| DL1XH-west | 2026-09-04 13:57:56 | 53.87646 | 9.39932 | 80° | 31km/h | 22111m | -11.1m/s | -51.3°C | 0.5% | 41.8hPa | 2.6V | 08:28:36 | 01:38:55 | 00:00:00 | |
| DF5WG-10 | 2026-09-04 13:57:56 | 53.87646 | 9.39932 | 80° | 38km/h | 22111m | -11.0m/s | -51.2°C | 4.0% | 41.7hPa | 2.6V | 00:00:00 | 01:38:55 | 00:00:00 | |
| GOEST3-10 | 2026-09-04 13:57:55 | 53.87645 | 9.39918 | 93° | 42km/h | 22121m | -9.6m/s | -51.2°C | 4.0% | 41.6hPa | 2.6V | 00:00:00 | 00:00:00 | 00:00:00 | |
| DL1XH1-15 | 2026-09-04 13:57:54 | 53.87665 | 9.39814 | 107° | 40km/h | 22190m | -9.7m/s | -51.1°C | 4.1% | 41.2hPa | 2.7V | 08:27:33 | 01:38:48 | 00:00:00 | |
| HSKMA3-T | 2026-09-04 13:57:52 | 53.87654 | 9.39868 | 108° | 47km/h | 22155m | -12.8m/s | -51.2°C | 0.5% | 41.5hPa | 2.6V | 08:28:36 | 01:38:51 | 00:00:00 | |
| DO2JMG | 2026-09-04 13:57:51 | 53.87658 | 9.39849 | 111° | 49km/h | 22167m | -11m/s | -51.2°C | 0.6% | 41.4hPa | 2.6V | 08:27:45 | 01:38:50 | 00:00:00 | |
| AA1-15 | 2026-09-04 13:57:50 | 53.87662 | 9.39831 | 110° | 40km/h | 22179m | -13.2m/s | -51.2°C | 0.5% | 41.3hPa | 2.6V | 08:27:45 | 01:38:49 | 00:00:00 | |
| GOEST3-10 | 2026-09-04 13:57:50 | 53.87662 | 9.39830 | 110° | 33km/h | 22179m | -13.2m/s | -51.1°C | 4.1% | 41.3hPa | 2.6V | 00:00:00 | 01:38:49 | 00:00:00 | |
| DL1XH-15 | 2026-09-04 13:57:49 | 53.87679 | 9.39757 | 112° | 24km/h | 22249m | -12.8m/s | -51°C | 4.1% | 40.9hPa | 2.6V | 08:27:38 | 01:38:43 | 00:00:00 | |
| BIOWL1-15 | 2026-09-04 13:57:49 | 53.87665 | 9.39814 | 108° | 40km/h | 22190m | -9.7m/s | -51.1°C | 0.6% | 41.3hPa | 2.7V | 08:27:45 | 01:38:48 | 00:00:00 | |
| DB0NH | 2026-09-04 13:57:49 | 53.87665 | 9.39814 | 108° | 24km/h | 22191m | -9.6m/s | -51.1°C | 4.1% | 41.2hPa | 2.6V | 00:00:00 | 01:38:48 | 00:00:00 | |
| AM1SDL-15 | 2026-09-04 13:57:48 | 53.87668 | 9.39799 | 112° | 27km/h | 22201m | -12.2m/s | -51.1°C | 4.1% | 41.2hPa | 2.6V | 00:00:00 | 01:38:47 | 00:00:00 | |
| DM0DOS-11 | 2026-09-04 13:57:47 | 53.87674 | 9.39776 | 113° | 26km/h | 22225m | -11.4m/s | -51.1°C | 4.2% | 41.1hPa | 2.6V | 08:27:36 | 01:38:45 | 00:00:00 | |
| DL1XH-west | 2026-09-04 13:57:46 | 53.87673 | 9.39776 | 113° | 26km/h | 22225m | -11.5m/s | -51.1°C | 0.6% | 41.1hPa | 2.6V | 08:28:36 | 01:38:45 | 00:00:00 | |
| DF8AY | 2026-09-04 13:57:45 | 53.87676 | 9.39766 | 114° | 24km/h | 22237m | -11.7m/s | -51.1°C | 0.5% | 41hPa | 2.6V | 08:27:45 | 01:38:44 | 00:00:00 | |
| S3001 | 2026-09-04 13:57:44 | 53.87678 | 9.39757 | 112° | 24km/h | 22249m | -12.8m/s | -51.0°C | 1.0% | 40.9hPa | 2.7V | 00:00:00 | 00:00:00 | 00:00:00 | |
| HSKMA3-T | 2026-09-04 13:57:42 | 53.87684 | 9.39737 | 115° | 24km/h | 22278m | -12.7m/s | -50.9°C | 0.5% | 40.7hPa | 2.7V | 08:28:36 | 01:38:41 | 00:00:00 | |
| DO2JMG | 2026-09-04 13:57:41 | 53.87686 | 9.39727 | 114° | 26km/h | 22291m | -14.1m/s | -50.9°C | 0.5% | 40.7hPa | 2.6V | 08:27:45 | 01:38:40 | 00:00:00 | |
| DB0DAN | 2026-09-04 13:57:40 | 53.87689 | 9.39717 | 120° | 26km/h | 22306m | -14.6m/s | -50.9°C | 1% | 40.57hPa | 2.6V | 00:00:00 | 00:00:00 | 00:00:00 | |
| DO2SHX-10 | 2026-09-04 13:57:40 | 53.87689 | 9.39717 | 120° | 26km/h | 22306m | -14.6m/s | -50.8°C | 4.1% | 40.5hPa | 2.7V | 00:00:00 | 01:38:39 | 00:00:00 | |
| DL1XH-15 | 2026-09-04 13:57:39 | 53.87705 | 9.39669 | 119° | 15km/h | 22388m | -13.9m/s | -50.3°C | 3.9% | 40.1hPa | 2.7V | 08:27:48 | 01:38:33 | 00:00:00 | |
| AA1-15 | 2026-09-04 13:57:39 | 53.87692 | 9.39707 | 120° | 24km/h | 22319m | -12.7m/s | -50.8°C | 0.5% | 40.5hPa | 2.7V | 08:27:45 | 01:38:38 | 00:00:00 | |
| BIOWL1-15 | 2026-09-04 13:57:38 | 53.87695 | 9.39698 | 119° | 26km/h | 22331m | -11.2m/s | -50.8°C | 0.5% | 40.4hPa | 2.7V | 08:27:45 | 01:38:37 | 00:00:00 | |
| DF8AY | 2026-09-04 13:57:34 | 53.87705 | 9.39669 | 119° | 15km/h | 22388m | -13.9m/s | -50.3°C | 0.4% | 40.1hPa | 2.7V | 08:28:36 | 01:38:33 | 00:00:00 | |
| DL1XH-west | 2026-09-04 13:57:32 | 53.87709 | 9.39663 | 171° | 5km/h | 22413m | -11.5m/s | -50.2°C | 0.4% | 39.9hPa | 2.7V | 08:28:36 | 01:38:31 | 00:00:00 | |
| DO2JMG | 2026-09-04 13:57:31 | 53.87711 | 9.39663 | 181° | 7km/h | 22425m | -12m/s | -50.1°C | 0.3% | 39.8hPa | 2.6V | 08:28:36 | 01:38:30 | 00:00:00 | |
| AA1-15 | 2026-09-04 13:57:29 | 53.87716 | 9.39666 | 207° | 13km/h | 22447m | -13.5m/s | -50.1°C | 0.3% | 39.7hPa | 2.6V | 08:28:36 | 01:38:28 | 00:00:00 | |
| BIOWL1-15 | 2026-09-04 13:57:27 | 53.87723 | 9.39672 | 210° | 18km/h | 22469m | -9.7m/s | -50.1°C | 0.3% | 39.5hPa | 2.7V | 08:28:36 | 01:38:26 | 00:00:00 | |
| DB0DAN | 2026-09-04 13:57:25 | 53.87732 | 9.39680 | 213° | 22km/h | 22491m | -11.5m/s | -50.1°C | 0.9% | 39.43hPa | 2.6V | 00:00:00 | 00:00:00 | 00:00:00 | |
| DO2SHX-10 | 2026-09-04 13:57:25 | 53.87732 | 9.39680 | 214° | 26km/h | 22491m | -11.5m/s | -50.0°C | 3.7% | 39.4hPa | 2.6V | 08:27:00 | 01:38:24 | 00:00:00 | |
| DL1XH1-15 | 2026-09-04 13:57:24 | 53.87767 | 9.39720 | 201° | 27km/h | 22563m | -11.4m/s | -50.1°C | 3.7% | 39hPa | 2.6V | 08:28:03 | 01:38:18 | 00:00:00 | |
| DF8AY | 2026-09-04 13:57:24 | 53.87737 | 9.39686 | 215° | 27km/h | 22503m | -13.1m/s | -50.1°C | 0.4% | 39.4hPa | 2.6V | 08:28:36 | 01:38:23 | 00:00:00 | |
| DL1XH-west | 2026-09-04 13:57:22 | 53.87748 | 9.39701 | 217° | 27km/h | 22527m | -11.4m/s | -50.1°C | 0.3% | 39.2hPa | 2.7V | 08:28:36 | 01:38:21 | 00:00:00 | |
| DO2JMG | 2026-09-04 13:57:20 | 53.87761 | 9.39715 | 213° | 29km/h | 22551m | -12.8m/s | -50.1°C | 0.3% | 39.1hPa | 2.6V | 08:28:36 | 01:38:19 | 00:00:00 | |
| AA1-15 | 2026-09-04 13:57:19 | 53.87767 | 9.39720 | 202° | 27km/h | 22563m | -11.4m/s | -50.1°C | 0.3% | 39hPa | 2.6V | 08:28:36 | 01:38:18 | 00:00:00 | |
| BIOWL1-15 | 2026-09-04 13:57:16 | 53.87786 | 9.39725 | 170° | 24km/h | 22597m | -10.1m/s | -50.3°C | 0.3% | 38.8hPa | 2.7V | 08:28:36 | 01:38:15 | 00:00:00 | |
| DO2SHX-10 | 2026-09-04 13:57:16 | 53.87786 | 9.39725 | 171° | 26km/h | 22598m | -10.1m/s | -50.2°C | 3.7% | 38.7hPa | 2.7V | 00:00:00 | 01:38:15 | 00:00:00 | |
| GOEST3-10 | 2026-09-04 13:57:15 | 53.87792 | 9.39721 | 158° | 26km/h | 22609m | -11.3m/s | -50.3°C | 3.7% | 38.7hPa | 2.6V | 00:00:00 | 00:00:00 | 00:00:00 | |
| DD8BA-10 | 2026-09-04 13:57:14 | 53.87798 | 9.39716 | 147° | 24km/h | 22620m | -12.4m/s | -50.4°C | 3.8% | 38.6hPa | 2.6V | 00:00:00 | 00:00:00 | 00:00:00 | |
| DL1XH1-15 | 2026-09-04 13:57:13 | 53.87829 | 9.39683 | 142° | 22km/h | 22690m | -12.1m/s | -50.7°C | 3.9% | 38.3hPa | 2.6V | 08:28:14 | 01:38:07 | 00:00:00 | |
| DF8AY | 2026-09-04 13:57:13 | 53.87803 | 9.39710 | 150° | 26km/h | 22633m | -12.8m/s | -50.5°C | 0.4% | 38.6hPa | 2.6V | 08:28:36 | 01:38:12 | 00:00:00 | |
| DJ2DS-15 | 2026-09-04 13:57:13 | 53.87803 | 9.39710 | 150° | 20km/h | 22633m | -12.8m/s | -50.5°C | 3.8% | 38.5hPa | 2.7V | 00:00:00 | 01:38:12 | 00:00:00 | |
| DM0DOS-11 | 2026-09-04 13:57:11 | 53.87837 | 9.39670 | 126° | 24km/h | 22713m | -11.4m/s | -50.8°C | 3.9% | 38.1hPa | 2.7V | 08:28:16 | 01:38:05 | 00:00:00 | |
| DL1XH-west | 2026-09-04 13:57:11 | 53.87815 | 9.39699 | 148° | 26km/h | 22658m | -10.8m/s | -50.6°C | 0.4% | 38.5hPa | 2.7V | 08:28:36 | 01:38:10 | 00:00:00 | |
| DO2JMG | 2026-09-04 13:57:10 | 53.87820 | 9.39693 | 149° | 22km/h | 22668m | -11m/s | -50.7°C | 0.5% | 38.4hPa | 2.7V | 08:28:36 | 01:38:09 | 00:00:00 | |
| AA1-15 | 2026-09-04 13:57:08 | 53.87829 | 9.39683 | 143° | 22km/h | 22690m | -12.1m/s | -50.7°C | 0.5% | 38.3hPa | 2.6V | 08:28:36 | 01:38:07 | 00:00:00 | |
| BIOWL1-15 | 2026-09-04 13:57:06 | 53.87837 | 9.39670 | 127° | 24km/h | 22713m | -11.4m/s | -50.8°C | 0.5% | 38.1hPa | 2.7V | 08:28:36 | 01:38:05 | 00:00:00 | |
| DF5WG-10 | 2026-09-04 13:57:06 | 53.87837 | 9.39670 | 127° | 18km/h | 22714m | -11.3m/s | -50.8°C | 3.9% | 38.1hPa | 2.7V | 00:00:00 | 01:38:05 | 00:00:00 | |
| GOEST3-10 | 2026-09-04 13:57:05 | 53.87840 | 9.39661 | 121° | 20km/h | 22726m | -12.1m/s | -50.8°C | 4.0% | 38.0hPa | 2.7V | 00:00:00 | 00:00:00 | 00:00:00 | |
| Es werden nur die letzten 3500 von 7011 Frames angezeigt. GPX/KML und Diagramme bleiben verfügbar. | |||||||||||||||